<?xml version="1.0" encoding="UTF-8"?>
<gpx version="1.1" creator="https://www.youtrack.es" xsi:schemaLocation="http://www.topografix.com/GPX/1/1 http://www.topografix.com/GPX/1/1/gpx.xsd http://www.garmin.com/xmlschemas/GpxExtensions/v3 http://www.garmin.com/xmlschemas/GpxExtensionsv3.xsd http://www.garmin.com/xmlschemas/TrackPointExtension/v1 http://www.garmin.com/xmlschemas/TrackPointExtensionv1.xsd" xmlns:gpxtpx="http://www.garmin.com/xmlschemas/TrackPointExtension/v1" xmlns:gpxx="http://www.garmin.com/xmlschemas/GpxExtensions/v3" xmlns:xsi="http://www.w3.org/2001/XMLSchema-instance">
  <metadata>
    <link href="https://www.youtrack.es">
      <text>YouTrack.es</text>
    </link>
    <time>2026-05-08T22:43:52Z</time>
  </metadata>
  <trk>
    <src>https://www.youtrack.es</src>
    <link href="https://www.youtrack.es/ruta/4833-valle-del-oro">
      <text>YouTrack.es</text>
    </link>
    <trkseg>
      <trkpt lat="42.522577" lon="-0.371359">
        <ele>790.0</ele>
        <time>2019-03-26T08:45:54.000Z</time>
      </trkpt>
      <trkpt lat="42.522577" lon="-0.371359">
        <ele>790.0</ele>
        <time>2019-03-26T08:45:55.000Z</time>
      </trkpt>
      <trkpt lat="42.522576" lon="-0.371357">
        <ele>790.0</ele>
        <time>2019-03-26T08:45:56.000Z</time>
      </trkpt>
      <trkpt lat="42.522577" lon="-0.371357">
        <ele>790.0</ele>
        <time>2019-03-26T08:45:57.000Z</time>
      </trkpt>
      <trkpt lat="42.522577" lon="-0.371363">
        <ele>790.0</ele>
        <time>2019-03-26T08:45:58.000Z</time>
      </trkpt>
      <trkpt lat="42.522578" lon="-0.371377">
        <ele>790.0</ele>
        <time>2019-03-26T08:45:59.000Z</time>
      </trkpt>
      <trkpt lat="42.52258" lon="-0.3714">
        <ele>790.0</ele>
        <time>2019-03-26T08:46:00.000Z</time>
      </trkpt>
      <trkpt lat="42.522582" lon="-0.37143">
        <ele>789.0</ele>
        <time>2019-03-26T08:46:01.000Z</time>
      </trkpt>
      <trkpt lat="42.522584" lon="-0.371467">
        <ele>789.0</ele>
        <time>2019-03-26T08:46:02.000Z</time>
      </trkpt>
      <trkpt lat="42.522587" lon="-0.371511">
        <ele>789.0</ele>
        <time>2019-03-26T08:46:03.000Z</time>
      </trkpt>
      <trkpt lat="42.522592" lon="-0.37156">
        <ele>788.0</ele>
        <time>2019-03-26T08:46:04.000Z</time>
      </trkpt>
      <trkpt lat="42.522598" lon="-0.371613">
        <ele>788.0</ele>
        <time>2019-03-26T08:46:05.000Z</time>
      </trkpt>
      <trkpt lat="42.522607" lon="-0.371669">
        <ele>788.0</ele>
        <time>2019-03-26T08:46:06.000Z</time>
      </trkpt>
      <trkpt lat="42.522616" lon="-0.371726">
        <ele>787.0</ele>
        <time>2019-03-26T08:46:07.000Z</time>
      </trkpt>
      <trkpt lat="42.522624" lon="-0.37178">
        <ele>787.0</ele>
        <time>2019-03-26T08:46:08.000Z</time>
      </trkpt>
      <trkpt lat="42.522627" lon="-0.371829">
        <ele>787.0</ele>
        <time>2019-03-26T08:46:09.000Z</time>
      </trkpt>
      <trkpt lat="42.52263" lon="-0.371869">
        <ele>787.0</ele>
        <time>2019-03-26T08:46:10.000Z</time>
      </trkpt>
      <trkpt lat="42.522634" lon="-0.371899">
        <ele>787.0</ele>
        <time>2019-03-26T08:46:11.000Z</time>
      </trkpt>
      <trkpt lat="42.522643" lon="-0.371917">
        <ele>787.0</ele>
        <time>2019-03-26T08:46:12.000Z</time>
      </trkpt>
      <trkpt lat="42.522659" lon="-0.371921">
        <ele>787.0</ele>
        <time>2019-03-26T08:46:13.000Z</time>
      </trkpt>
      <trkpt lat="42.522681" lon="-0.371915">
        <ele>787.0</ele>
        <time>2019-03-26T08:46:14.000Z</time>
      </trkpt>
      <trkpt lat="42.522704" lon="-0.371903">
        <ele>788.0</ele>
        <time>2019-03-26T08:46:15.000Z</time>
      </trkpt>
      <trkpt lat="42.522728" lon="-0.37189">
        <ele>788.0</ele>
        <time>2019-03-26T08:46:16.000Z</time>
      </trkpt>
      <trkpt lat="42.522751" lon="-0.371877">
        <ele>788.0</ele>
        <time>2019-03-26T08:46:17.000Z</time>
      </trkpt>
      <trkpt lat="42.522774" lon="-0.371864">
        <ele>789.0</ele>
        <time>2019-03-26T08:46:18.000Z</time>
      </trkpt>
      <trkpt lat="42.522796" lon="-0.371854">
        <ele>789.0</ele>
        <time>2019-03-26T08:46:19.000Z</time>
      </trkpt>
      <trkpt lat="42.522818" lon="-0.371845">
        <ele>790.0</ele>
        <time>2019-03-26T08:46:20.000Z</time>
      </trkpt>
      <trkpt lat="42.52284" lon="-0.371839">
        <ele>790.0</ele>
        <time>2019-03-26T08:46:21.000Z</time>
      </trkpt>
      <trkpt lat="42.522861" lon="-0.371838">
        <ele>790.0</ele>
        <time>2019-03-26T08:46:22.000Z</time>
      </trkpt>
      <trkpt lat="42.522882" lon="-0.37184">
        <ele>791.0</ele>
        <time>2019-03-26T08:46:23.000Z</time>
      </trkpt>
      <trkpt lat="42.522902" lon="-0.371848">
        <ele>791.0</ele>
        <time>2019-03-26T08:46:24.000Z</time>
      </trkpt>
      <trkpt lat="42.522922" lon="-0.371861">
        <ele>791.0</ele>
        <time>2019-03-26T08:46:25.000Z</time>
      </trkpt>
      <trkpt lat="42.52294" lon="-0.37188">
        <ele>791.0</ele>
        <time>2019-03-26T08:46:26.000Z</time>
      </trkpt>
      <trkpt lat="42.522957" lon="-0.371906">
        <ele>791.0</ele>
        <time>2019-03-26T08:46:27.000Z</time>
      </trkpt>
      <trkpt lat="42.522971" lon="-0.371938">
        <ele>791.0</ele>
        <time>2019-03-26T08:46:28.000Z</time>
      </trkpt>
      <trkpt lat="42.522984" lon="-0.371978">
        <ele>791.0</ele>
        <time>2019-03-26T08:46:29.000Z</time>
      </trkpt>
      <trkpt lat="42.522994" lon="-0.372025">
        <ele>791.0</ele>
        <time>2019-03-26T08:46:30.000Z</time>
      </trkpt>
      <trkpt lat="42.523004" lon="-0.37208">
        <ele>791.0</ele>
        <time>2019-03-26T08:46:31.000Z</time>
      </trkpt>
      <trkpt lat="42.523016" lon="-0.37214">
        <ele>790.0</ele>
        <time>2019-03-26T08:46:32.000Z</time>
      </trkpt>
      <trkpt lat="42.523034" lon="-0.372205">
        <ele>790.0</ele>
        <time>2019-03-26T08:46:33.000Z</time>
      </trkpt>
      <trkpt lat="42.523058" lon="-0.372274">
        <ele>789.0</ele>
        <time>2019-03-26T08:46:34.000Z</time>
      </trkpt>
      <trkpt lat="42.523086" lon="-0.372348">
        <ele>789.0</ele>
        <time>2019-03-26T08:46:35.000Z</time>
      </trkpt>
      <trkpt lat="42.523112" lon="-0.372428">
        <ele>788.0</ele>
        <time>2019-03-26T08:46:36.000Z</time>
      </trkpt>
      <trkpt lat="42.523133" lon="-0.372513">
        <ele>787.0</ele>
        <time>2019-03-26T08:46:37.000Z</time>
      </trkpt>
      <trkpt lat="42.52315" lon="-0.372601">
        <ele>787.0</ele>
        <time>2019-03-26T08:46:38.000Z</time>
      </trkpt>
      <trkpt lat="42.523163" lon="-0.372688">
        <ele>786.0</ele>
        <time>2019-03-26T08:46:39.000Z</time>
      </trkpt>
      <trkpt lat="42.523174" lon="-0.37277">
        <ele>787.0</ele>
        <time>2019-03-26T08:46:40.000Z</time>
      </trkpt>
      <trkpt lat="42.523184" lon="-0.372844">
        <ele>787.0</ele>
        <time>2019-03-26T08:46:41.000Z</time>
      </trkpt>
      <trkpt lat="42.523195" lon="-0.372908">
        <ele>787.0</ele>
        <time>2019-03-26T08:46:42.000Z</time>
      </trkpt>
      <trkpt lat="42.523208" lon="-0.372963">
        <ele>787.0</ele>
        <time>2019-03-26T08:46:43.000Z</time>
      </trkpt>
      <trkpt lat="42.523223" lon="-0.373009">
        <ele>787.0</ele>
        <time>2019-03-26T08:46:44.000Z</time>
      </trkpt>
      <trkpt lat="42.523242" lon="-0.373043">
        <ele>787.0</ele>
        <time>2019-03-26T08:46:45.000Z</time>
      </trkpt>
      <trkpt lat="42.523265" lon="-0.373067">
        <ele>787.0</ele>
        <time>2019-03-26T08:46:46.000Z</time>
      </trkpt>
      <trkpt lat="42.523291" lon="-0.373078">
        <ele>787.0</ele>
        <time>2019-03-26T08:46:47.000Z</time>
      </trkpt>
      <trkpt lat="42.523322" lon="-0.373078">
        <ele>787.0</ele>
        <time>2019-03-26T08:46:48.000Z</time>
      </trkpt>
      <trkpt lat="42.523354" lon="-0.37307">
        <ele>787.0</ele>
        <time>2019-03-26T08:46:49.000Z</time>
      </trkpt>
      <trkpt lat="42.523388" lon="-0.373057">
        <ele>788.0</ele>
        <time>2019-03-26T08:46:50.000Z</time>
      </trkpt>
      <trkpt lat="42.523421" lon="-0.373044">
        <ele>788.0</ele>
        <time>2019-03-26T08:46:51.000Z</time>
      </trkpt>
      <trkpt lat="42.523454" lon="-0.373032">
        <ele>788.0</ele>
        <time>2019-03-26T08:46:52.000Z</time>
      </trkpt>
      <trkpt lat="42.523486" lon="-0.37302">
        <ele>788.0</ele>
        <time>2019-03-26T08:46:53.000Z</time>
      </trkpt>
      <trkpt lat="42.523517" lon="-0.373009">
        <ele>788.0</ele>
        <time>2019-03-26T08:46:54.000Z</time>
      </trkpt>
      <trkpt lat="42.523548" lon="-0.372999">
        <ele>788.0</ele>
        <time>2019-03-26T08:46:55.000Z</time>
      </trkpt>
      <trkpt lat="42.523578" lon="-0.37299">
        <ele>789.0</ele>
        <time>2019-03-26T08:46:56.000Z</time>
      </trkpt>
      <trkpt lat="42.523608" lon="-0.372982">
        <ele>789.0</ele>
        <time>2019-03-26T08:46:57.000Z</time>
      </trkpt>
      <trkpt lat="42.523637" lon="-0.372976">
        <ele>789.0</ele>
        <time>2019-03-26T08:46:58.000Z</time>
      </trkpt>
      <trkpt lat="42.523666" lon="-0.372971">
        <ele>789.0</ele>
        <time>2019-03-26T08:46:59.000Z</time>
      </trkpt>
      <trkpt lat="42.523695" lon="-0.372969">
        <ele>790.0</ele>
        <time>2019-03-26T08:47:00.000Z</time>
      </trkpt>
      <trkpt lat="42.523724" lon="-0.37297">
        <ele>790.0</ele>
        <time>2019-03-26T08:47:01.000Z</time>
      </trkpt>
      <trkpt lat="42.523754" lon="-0.372974">
        <ele>790.0</ele>
        <time>2019-03-26T08:47:02.000Z</time>
      </trkpt>
      <trkpt lat="42.523783" lon="-0.372981">
        <ele>790.0</ele>
        <time>2019-03-26T08:47:03.000Z</time>
      </trkpt>
      <trkpt lat="42.52381" lon="-0.372989">
        <ele>791.0</ele>
        <time>2019-03-26T08:47:04.000Z</time>
      </trkpt>
      <trkpt lat="42.523832" lon="-0.372999">
        <ele>791.0</ele>
        <time>2019-03-26T08:47:05.000Z</time>
      </trkpt>
      <trkpt lat="42.523852" lon="-0.373011">
        <ele>791.0</ele>
        <time>2019-03-26T08:47:06.000Z</time>
      </trkpt>
      <trkpt lat="42.523869" lon="-0.373024">
        <ele>792.0</ele>
        <time>2019-03-26T08:47:07.000Z</time>
      </trkpt>
      <trkpt lat="42.523884" lon="-0.373039">
        <ele>792.0</ele>
        <time>2019-03-26T08:47:08.000Z</time>
      </trkpt>
      <trkpt lat="42.523898" lon="-0.373055">
        <ele>792.0</ele>
        <time>2019-03-26T08:47:09.000Z</time>
      </trkpt>
      <trkpt lat="42.523911" lon="-0.373073">
        <ele>792.0</ele>
        <time>2019-03-26T08:47:10.000Z</time>
      </trkpt>
      <trkpt lat="42.523923" lon="-0.373093">
        <ele>792.0</ele>
        <time>2019-03-26T08:47:11.000Z</time>
      </trkpt>
      <trkpt lat="42.523933" lon="-0.373113">
        <ele>792.0</ele>
        <time>2019-03-26T08:47:12.000Z</time>
      </trkpt>
      <trkpt lat="42.523943" lon="-0.373133">
        <ele>792.0</ele>
        <time>2019-03-26T08:47:13.000Z</time>
      </trkpt>
      <trkpt lat="42.523954" lon="-0.373149">
        <ele>792.0</ele>
        <time>2019-03-26T08:47:14.000Z</time>
      </trkpt>
      <trkpt lat="42.523968" lon="-0.373161">
        <ele>793.0</ele>
        <time>2019-03-26T08:47:15.000Z</time>
      </trkpt>
      <trkpt lat="42.523986" lon="-0.373166">
        <ele>793.0</ele>
        <time>2019-03-26T08:47:16.000Z</time>
      </trkpt>
      <trkpt lat="42.524007" lon="-0.373163">
        <ele>793.0</ele>
        <time>2019-03-26T08:47:17.000Z</time>
      </trkpt>
      <trkpt lat="42.524029" lon="-0.373153">
        <ele>793.0</ele>
        <time>2019-03-26T08:47:18.000Z</time>
      </trkpt>
      <trkpt lat="42.524049" lon="-0.373134">
        <ele>793.0</ele>
        <time>2019-03-26T08:47:19.000Z</time>
      </trkpt>
      <trkpt lat="42.524068" lon="-0.37311">
        <ele>793.0</ele>
        <time>2019-03-26T08:47:20.000Z</time>
      </trkpt>
      <trkpt lat="42.524085" lon="-0.373084">
        <ele>793.0</ele>
        <time>2019-03-26T08:47:21.000Z</time>
      </trkpt>
      <trkpt lat="42.524102" lon="-0.373058">
        <ele>793.0</ele>
        <time>2019-03-26T08:47:22.000Z</time>
      </trkpt>
      <trkpt lat="42.524117" lon="-0.373036">
        <ele>793.0</ele>
        <time>2019-03-26T08:47:23.000Z</time>
      </trkpt>
      <trkpt lat="42.524133" lon="-0.373017">
        <ele>794.0</ele>
        <time>2019-03-26T08:47:24.000Z</time>
      </trkpt>
      <trkpt lat="42.524149" lon="-0.373">
        <ele>794.0</ele>
        <time>2019-03-26T08:47:25.000Z</time>
      </trkpt>
      <trkpt lat="42.524166" lon="-0.372984">
        <ele>794.0</ele>
        <time>2019-03-26T08:47:26.000Z</time>
      </trkpt>
      <trkpt lat="42.524185" lon="-0.372968">
        <ele>795.0</ele>
        <time>2019-03-26T08:47:27.000Z</time>
      </trkpt>
      <trkpt lat="42.524205" lon="-0.372953">
        <ele>795.0</ele>
        <time>2019-03-26T08:47:28.000Z</time>
      </trkpt>
      <trkpt lat="42.524226" lon="-0.372939">
        <ele>795.0</ele>
        <time>2019-03-26T08:47:29.000Z</time>
      </trkpt>
      <trkpt lat="42.524248" lon="-0.372925">
        <ele>795.0</ele>
        <time>2019-03-26T08:47:30.000Z</time>
      </trkpt>
      <trkpt lat="42.52427" lon="-0.372912">
        <ele>796.0</ele>
        <time>2019-03-26T08:47:31.000Z</time>
      </trkpt>
      <trkpt lat="42.524292" lon="-0.372899">
        <ele>796.0</ele>
        <time>2019-03-26T08:47:32.000Z</time>
      </trkpt>
      <trkpt lat="42.524314" lon="-0.372886">
        <ele>796.0</ele>
        <time>2019-03-26T08:47:33.000Z</time>
      </trkpt>
      <trkpt lat="42.524335" lon="-0.372874">
        <ele>796.0</ele>
        <time>2019-03-26T08:47:34.000Z</time>
      </trkpt>
      <trkpt lat="42.524357" lon="-0.372862">
        <ele>797.0</ele>
        <time>2019-03-26T08:47:35.000Z</time>
      </trkpt>
      <trkpt lat="42.524378" lon="-0.372849">
        <ele>797.0</ele>
        <time>2019-03-26T08:47:36.000Z</time>
      </trkpt>
      <trkpt lat="42.524399" lon="-0.372837">
        <ele>797.0</ele>
        <time>2019-03-26T08:47:37.000Z</time>
      </trkpt>
      <trkpt lat="42.524419" lon="-0.372825">
        <ele>797.0</ele>
        <time>2019-03-26T08:47:38.000Z</time>
      </trkpt>
      <trkpt lat="42.524439" lon="-0.372813">
        <ele>797.0</ele>
        <time>2019-03-26T08:47:39.000Z</time>
      </trkpt>
      <trkpt lat="42.524459" lon="-0.3728">
        <ele>797.0</ele>
        <time>2019-03-26T08:47:40.000Z</time>
      </trkpt>
      <trkpt lat="42.524479" lon="-0.372788">
        <ele>798.0</ele>
        <time>2019-03-26T08:47:41.000Z</time>
      </trkpt>
      <trkpt lat="42.524498" lon="-0.372775">
        <ele>798.0</ele>
        <time>2019-03-26T08:47:42.000Z</time>
      </trkpt>
      <trkpt lat="42.524517" lon="-0.372762">
        <ele>798.0</ele>
        <time>2019-03-26T08:47:43.000Z</time>
      </trkpt>
      <trkpt lat="42.524535" lon="-0.372749">
        <ele>799.0</ele>
        <time>2019-03-26T08:47:44.000Z</time>
      </trkpt>
      <trkpt lat="42.524553" lon="-0.372735">
        <ele>799.0</ele>
        <time>2019-03-26T08:47:45.000Z</time>
      </trkpt>
      <trkpt lat="42.52457" lon="-0.372721">
        <ele>799.0</ele>
        <time>2019-03-26T08:47:46.000Z</time>
      </trkpt>
      <trkpt lat="42.524588" lon="-0.372707">
        <ele>799.0</ele>
        <time>2019-03-26T08:47:47.000Z</time>
      </trkpt>
      <trkpt lat="42.524604" lon="-0.372692">
        <ele>800.0</ele>
        <time>2019-03-26T08:47:48.000Z</time>
      </trkpt>
      <trkpt lat="42.524621" lon="-0.372677">
        <ele>800.0</ele>
        <time>2019-03-26T08:47:49.000Z</time>
      </trkpt>
      <trkpt lat="42.524637" lon="-0.372662">
        <ele>800.0</ele>
        <time>2019-03-26T08:47:50.000Z</time>
      </trkpt>
      <trkpt lat="42.524652" lon="-0.372646">
        <ele>800.0</ele>
        <time>2019-03-26T08:47:51.000Z</time>
      </trkpt>
      <trkpt lat="42.524667" lon="-0.372631">
        <ele>800.0</ele>
        <time>2019-03-26T08:47:52.000Z</time>
      </trkpt>
      <trkpt lat="42.524682" lon="-0.372615">
        <ele>801.0</ele>
        <time>2019-03-26T08:47:53.000Z</time>
      </trkpt>
      <trkpt lat="42.524697" lon="-0.372598">
        <ele>801.0</ele>
        <time>2019-03-26T08:47:54.000Z</time>
      </trkpt>
      <trkpt lat="42.524711" lon="-0.372582">
        <ele>801.0</ele>
        <time>2019-03-26T08:47:55.000Z</time>
      </trkpt>
      <trkpt lat="42.524726" lon="-0.372565">
        <ele>801.0</ele>
        <time>2019-03-26T08:47:56.000Z</time>
      </trkpt>
      <trkpt lat="42.524739" lon="-0.372549">
        <ele>802.0</ele>
        <time>2019-03-26T08:47:57.000Z</time>
      </trkpt>
      <trkpt lat="42.524753" lon="-0.372532">
        <ele>802.0</ele>
        <time>2019-03-26T08:47:58.000Z</time>
      </trkpt>
      <trkpt lat="42.524766" lon="-0.372515">
        <ele>802.0</ele>
        <time>2019-03-26T08:47:59.000Z</time>
      </trkpt>
      <trkpt lat="42.524779" lon="-0.372498">
        <ele>802.0</ele>
        <time>2019-03-26T08:48:00.000Z</time>
      </trkpt>
      <trkpt lat="42.524792" lon="-0.372481">
        <ele>803.0</ele>
        <time>2019-03-26T08:48:01.000Z</time>
      </trkpt>
      <trkpt lat="42.524805" lon="-0.372463">
        <ele>803.0</ele>
        <time>2019-03-26T08:48:02.000Z</time>
      </trkpt>
      <trkpt lat="42.524818" lon="-0.372446">
        <ele>803.0</ele>
        <time>2019-03-26T08:48:03.000Z</time>
      </trkpt>
      <trkpt lat="42.52483" lon="-0.372428">
        <ele>803.0</ele>
        <time>2019-03-26T08:48:04.000Z</time>
      </trkpt>
      <trkpt lat="42.524843" lon="-0.37241">
        <ele>804.0</ele>
        <time>2019-03-26T08:48:05.000Z</time>
      </trkpt>
      <trkpt lat="42.524855" lon="-0.372391">
        <ele>804.0</ele>
        <time>2019-03-26T08:48:06.000Z</time>
      </trkpt>
      <trkpt lat="42.524868" lon="-0.372372">
        <ele>804.0</ele>
        <time>2019-03-26T08:48:07.000Z</time>
      </trkpt>
      <trkpt lat="42.52488" lon="-0.372353">
        <ele>804.0</ele>
        <time>2019-03-26T08:48:08.000Z</time>
      </trkpt>
      <trkpt lat="42.524892" lon="-0.372332">
        <ele>804.0</ele>
        <time>2019-03-26T08:48:09.000Z</time>
      </trkpt>
      <trkpt lat="42.524904" lon="-0.372312">
        <ele>805.0</ele>
        <time>2019-03-26T08:48:10.000Z</time>
      </trkpt>
      <trkpt lat="42.524917" lon="-0.372291">
        <ele>805.0</ele>
        <time>2019-03-26T08:48:11.000Z</time>
      </trkpt>
      <trkpt lat="42.524929" lon="-0.372269">
        <ele>805.0</ele>
        <time>2019-03-26T08:48:12.000Z</time>
      </trkpt>
      <trkpt lat="42.524941" lon="-0.372246">
        <ele>805.0</ele>
        <time>2019-03-26T08:48:13.000Z</time>
      </trkpt>
      <trkpt lat="42.524954" lon="-0.372223">
        <ele>805.0</ele>
        <time>2019-03-26T08:48:14.000Z</time>
      </trkpt>
      <trkpt lat="42.524966" lon="-0.372199">
        <ele>805.0</ele>
        <time>2019-03-26T08:48:15.000Z</time>
      </trkpt>
      <trkpt lat="42.524979" lon="-0.372174">
        <ele>805.0</ele>
        <time>2019-03-26T08:48:16.000Z</time>
      </trkpt>
      <trkpt lat="42.524992" lon="-0.372149">
        <ele>805.0</ele>
        <time>2019-03-26T08:48:17.000Z</time>
      </trkpt>
      <trkpt lat="42.525004" lon="-0.372123">
        <ele>805.0</ele>
        <time>2019-03-26T08:48:18.000Z</time>
      </trkpt>
      <trkpt lat="42.525017" lon="-0.372098">
        <ele>805.0</ele>
        <time>2019-03-26T08:48:19.000Z</time>
      </trkpt>
      <trkpt lat="42.525029" lon="-0.372072">
        <ele>806.0</ele>
        <time>2019-03-26T08:48:20.000Z</time>
      </trkpt>
      <trkpt lat="42.525041" lon="-0.372046">
        <ele>806.0</ele>
        <time>2019-03-26T08:48:21.000Z</time>
      </trkpt>
      <trkpt lat="42.525054" lon="-0.37202">
        <ele>806.0</ele>
        <time>2019-03-26T08:48:22.000Z</time>
      </trkpt>
      <trkpt lat="42.525066" lon="-0.371995">
        <ele>806.0</ele>
        <time>2019-03-26T08:48:23.000Z</time>
      </trkpt>
      <trkpt lat="42.525078" lon="-0.37197">
        <ele>806.0</ele>
        <time>2019-03-26T08:48:24.000Z</time>
      </trkpt>
      <trkpt lat="42.525089" lon="-0.371945">
        <ele>806.0</ele>
        <time>2019-03-26T08:48:25.000Z</time>
      </trkpt>
      <trkpt lat="42.525101" lon="-0.371921">
        <ele>807.0</ele>
        <time>2019-03-26T08:48:26.000Z</time>
      </trkpt>
      <trkpt lat="42.525112" lon="-0.371897">
        <ele>807.0</ele>
        <time>2019-03-26T08:48:27.000Z</time>
      </trkpt>
      <trkpt lat="42.525123" lon="-0.371874">
        <ele>807.0</ele>
        <time>2019-03-26T08:48:28.000Z</time>
      </trkpt>
      <trkpt lat="42.525135" lon="-0.371853">
        <ele>807.0</ele>
        <time>2019-03-26T08:48:29.000Z</time>
      </trkpt>
      <trkpt lat="42.525147" lon="-0.371834">
        <ele>808.0</ele>
        <time>2019-03-26T08:48:30.000Z</time>
      </trkpt>
      <trkpt lat="42.525161" lon="-0.371819">
        <ele>808.0</ele>
        <time>2019-03-26T08:48:31.000Z</time>
      </trkpt>
      <trkpt lat="42.525177" lon="-0.371807">
        <ele>808.0</ele>
        <time>2019-03-26T08:48:32.000Z</time>
      </trkpt>
      <trkpt lat="42.525195" lon="-0.371799">
        <ele>808.0</ele>
        <time>2019-03-26T08:48:33.000Z</time>
      </trkpt>
      <trkpt lat="42.525215" lon="-0.371793">
        <ele>809.0</ele>
        <time>2019-03-26T08:48:34.000Z</time>
      </trkpt>
      <trkpt lat="42.525236" lon="-0.37179">
        <ele>809.0</ele>
        <time>2019-03-26T08:48:35.000Z</time>
      </trkpt>
      <trkpt lat="42.525258" lon="-0.371787">
        <ele>809.0</ele>
        <time>2019-03-26T08:48:36.000Z</time>
      </trkpt>
      <trkpt lat="42.525281" lon="-0.371785">
        <ele>809.0</ele>
        <time>2019-03-26T08:48:37.000Z</time>
      </trkpt>
      <trkpt lat="42.525303" lon="-0.371783">
        <ele>809.0</ele>
        <time>2019-03-26T08:48:38.000Z</time>
      </trkpt>
      <trkpt lat="42.525326" lon="-0.37178">
        <ele>809.0</ele>
        <time>2019-03-26T08:48:39.000Z</time>
      </trkpt>
      <trkpt lat="42.525349" lon="-0.371778">
        <ele>809.0</ele>
        <time>2019-03-26T08:48:40.000Z</time>
      </trkpt>
      <trkpt lat="42.525375" lon="-0.371776">
        <ele>809.0</ele>
        <time>2019-03-26T08:48:41.000Z</time>
      </trkpt>
      <trkpt lat="42.525402" lon="-0.371776">
        <ele>809.0</ele>
        <time>2019-03-26T08:48:42.000Z</time>
      </trkpt>
      <trkpt lat="42.52543" lon="-0.371776">
        <ele>809.0</ele>
        <time>2019-03-26T08:48:43.000Z</time>
      </trkpt>
      <trkpt lat="42.52546" lon="-0.371777">
        <ele>809.0</ele>
        <time>2019-03-26T08:48:44.000Z</time>
      </trkpt>
      <trkpt lat="42.52549" lon="-0.371779">
        <ele>809.0</ele>
        <time>2019-03-26T08:48:45.000Z</time>
      </trkpt>
      <trkpt lat="42.525521" lon="-0.371782">
        <ele>809.0</ele>
        <time>2019-03-26T08:48:46.000Z</time>
      </trkpt>
      <trkpt lat="42.525552" lon="-0.371787">
        <ele>809.0</ele>
        <time>2019-03-26T08:48:47.000Z</time>
      </trkpt>
      <trkpt lat="42.525582" lon="-0.371793">
        <ele>809.0</ele>
        <time>2019-03-26T08:48:48.000Z</time>
      </trkpt>
      <trkpt lat="42.525613" lon="-0.3718">
        <ele>809.0</ele>
        <time>2019-03-26T08:48:49.000Z</time>
      </trkpt>
      <trkpt lat="42.525643" lon="-0.371807">
        <ele>810.0</ele>
        <time>2019-03-26T08:48:50.000Z</time>
      </trkpt>
      <trkpt lat="42.525672" lon="-0.371812">
        <ele>810.0</ele>
        <time>2019-03-26T08:48:51.000Z</time>
      </trkpt>
      <trkpt lat="42.525701" lon="-0.371815">
        <ele>810.0</ele>
        <time>2019-03-26T08:48:52.000Z</time>
      </trkpt>
      <trkpt lat="42.525728" lon="-0.371815">
        <ele>810.0</ele>
        <time>2019-03-26T08:48:53.000Z</time>
      </trkpt>
      <trkpt lat="42.525755" lon="-0.371811">
        <ele>810.0</ele>
        <time>2019-03-26T08:48:54.000Z</time>
      </trkpt>
      <trkpt lat="42.525781" lon="-0.371802">
        <ele>810.0</ele>
        <time>2019-03-26T08:48:55.000Z</time>
      </trkpt>
      <trkpt lat="42.525805" lon="-0.371789">
        <ele>810.0</ele>
        <time>2019-03-26T08:48:56.000Z</time>
      </trkpt>
      <trkpt lat="42.525828" lon="-0.371772">
        <ele>810.0</ele>
        <time>2019-03-26T08:48:57.000Z</time>
      </trkpt>
      <trkpt lat="42.52585" lon="-0.371751">
        <ele>811.0</ele>
        <time>2019-03-26T08:48:58.000Z</time>
      </trkpt>
      <trkpt lat="42.525871" lon="-0.371728">
        <ele>811.0</ele>
        <time>2019-03-26T08:48:59.000Z</time>
      </trkpt>
      <trkpt lat="42.525889" lon="-0.371702">
        <ele>810.0</ele>
        <time>2019-03-26T08:49:00.000Z</time>
      </trkpt>
      <trkpt lat="42.525907" lon="-0.371674">
        <ele>811.0</ele>
        <time>2019-03-26T08:49:01.000Z</time>
      </trkpt>
      <trkpt lat="42.525922" lon="-0.371646">
        <ele>811.0</ele>
        <time>2019-03-26T08:49:02.000Z</time>
      </trkpt>
      <trkpt lat="42.525936" lon="-0.371616">
        <ele>811.0</ele>
        <time>2019-03-26T08:49:03.000Z</time>
      </trkpt>
      <trkpt lat="42.525949" lon="-0.371587">
        <ele>811.0</ele>
        <time>2019-03-26T08:49:04.000Z</time>
      </trkpt>
      <trkpt lat="42.525962" lon="-0.371558">
        <ele>811.0</ele>
        <time>2019-03-26T08:49:05.000Z</time>
      </trkpt>
      <trkpt lat="42.525975" lon="-0.37153">
        <ele>811.0</ele>
        <time>2019-03-26T08:49:06.000Z</time>
      </trkpt>
      <trkpt lat="42.525987" lon="-0.371504">
        <ele>812.0</ele>
        <time>2019-03-26T08:49:07.000Z</time>
      </trkpt>
      <trkpt lat="42.526" lon="-0.37148">
        <ele>812.0</ele>
        <time>2019-03-26T08:49:08.000Z</time>
      </trkpt>
      <trkpt lat="42.526014" lon="-0.371459">
        <ele>812.0</ele>
        <time>2019-03-26T08:49:09.000Z</time>
      </trkpt>
      <trkpt lat="42.52603" lon="-0.37144">
        <ele>812.0</ele>
        <time>2019-03-26T08:49:10.000Z</time>
      </trkpt>
      <trkpt lat="42.526047" lon="-0.371423">
        <ele>812.0</ele>
        <time>2019-03-26T08:49:11.000Z</time>
      </trkpt>
      <trkpt lat="42.526066" lon="-0.371408">
        <ele>812.0</ele>
        <time>2019-03-26T08:49:12.000Z</time>
      </trkpt>
      <trkpt lat="42.526087" lon="-0.371395">
        <ele>812.0</ele>
        <time>2019-03-26T08:49:13.000Z</time>
      </trkpt>
      <trkpt lat="42.526111" lon="-0.371382">
        <ele>812.0</ele>
        <time>2019-03-26T08:49:14.000Z</time>
      </trkpt>
      <trkpt lat="42.526138" lon="-0.371369">
        <ele>812.0</ele>
        <time>2019-03-26T08:49:15.000Z</time>
      </trkpt>
      <trkpt lat="42.526169" lon="-0.371357">
        <ele>812.0</ele>
        <time>2019-03-26T08:49:16.000Z</time>
      </trkpt>
      <trkpt lat="42.526201" lon="-0.371344">
        <ele>812.0</ele>
        <time>2019-03-26T08:49:17.000Z</time>
      </trkpt>
      <trkpt lat="42.526236" lon="-0.371331">
        <ele>812.0</ele>
        <time>2019-03-26T08:49:18.000Z</time>
      </trkpt>
      <trkpt lat="42.526271" lon="-0.371318">
        <ele>812.0</ele>
        <time>2019-03-26T08:49:19.000Z</time>
      </trkpt>
      <trkpt lat="42.526306" lon="-0.371303">
        <ele>812.0</ele>
        <time>2019-03-26T08:49:20.000Z</time>
      </trkpt>
      <trkpt lat="42.526341" lon="-0.371288">
        <ele>812.0</ele>
        <time>2019-03-26T08:49:21.000Z</time>
      </trkpt>
      <trkpt lat="42.526374" lon="-0.371272">
        <ele>812.0</ele>
        <time>2019-03-26T08:49:22.000Z</time>
      </trkpt>
      <trkpt lat="42.526405" lon="-0.371254">
        <ele>812.0</ele>
        <time>2019-03-26T08:49:23.000Z</time>
      </trkpt>
      <trkpt lat="42.526434" lon="-0.371237">
        <ele>812.0</ele>
        <time>2019-03-26T08:49:24.000Z</time>
      </trkpt>
      <trkpt lat="42.526461" lon="-0.37122">
        <ele>812.0</ele>
        <time>2019-03-26T08:49:25.000Z</time>
      </trkpt>
      <trkpt lat="42.526486" lon="-0.371205">
        <ele>812.0</ele>
        <time>2019-03-26T08:49:26.000Z</time>
      </trkpt>
      <trkpt lat="42.526509" lon="-0.371192">
        <ele>812.0</ele>
        <time>2019-03-26T08:49:27.000Z</time>
      </trkpt>
      <trkpt lat="42.526531" lon="-0.371183">
        <ele>813.0</ele>
        <time>2019-03-26T08:49:28.000Z</time>
      </trkpt>
      <trkpt lat="42.526552" lon="-0.371178">
        <ele>813.0</ele>
        <time>2019-03-26T08:49:29.000Z</time>
      </trkpt>
      <trkpt lat="42.526573" lon="-0.371178">
        <ele>813.0</ele>
        <time>2019-03-26T08:49:30.000Z</time>
      </trkpt>
      <trkpt lat="42.526592" lon="-0.371183">
        <ele>814.0</ele>
        <time>2019-03-26T08:49:31.000Z</time>
      </trkpt>
      <trkpt lat="42.526612" lon="-0.37119">
        <ele>814.0</ele>
        <time>2019-03-26T08:49:32.000Z</time>
      </trkpt>
      <trkpt lat="42.526631" lon="-0.371199">
        <ele>814.0</ele>
        <time>2019-03-26T08:49:33.000Z</time>
      </trkpt>
      <trkpt lat="42.526651" lon="-0.371208">
        <ele>814.0</ele>
        <time>2019-03-26T08:49:34.000Z</time>
      </trkpt>
      <trkpt lat="42.526671" lon="-0.371216">
        <ele>814.0</ele>
        <time>2019-03-26T08:49:35.000Z</time>
      </trkpt>
      <trkpt lat="42.526692" lon="-0.371223">
        <ele>814.0</ele>
        <time>2019-03-26T08:49:36.000Z</time>
      </trkpt>
      <trkpt lat="42.526715" lon="-0.371229">
        <ele>814.0</ele>
        <time>2019-03-26T08:49:37.000Z</time>
      </trkpt>
      <trkpt lat="42.526739" lon="-0.371238">
        <ele>814.0</ele>
        <time>2019-03-26T08:49:38.000Z</time>
      </trkpt>
      <trkpt lat="42.526765" lon="-0.371251">
        <ele>813.0</ele>
        <time>2019-03-26T08:49:39.000Z</time>
      </trkpt>
      <trkpt lat="42.526792" lon="-0.371269">
        <ele>813.0</ele>
        <time>2019-03-26T08:49:40.000Z</time>
      </trkpt>
      <trkpt lat="42.52682" lon="-0.371287">
        <ele>813.0</ele>
        <time>2019-03-26T08:49:41.000Z</time>
      </trkpt>
      <trkpt lat="42.526847" lon="-0.371297">
        <ele>813.0</ele>
        <time>2019-03-26T08:49:42.000Z</time>
      </trkpt>
      <trkpt lat="42.526871" lon="-0.371295">
        <ele>813.0</ele>
        <time>2019-03-26T08:49:43.000Z</time>
      </trkpt>
      <trkpt lat="42.526891" lon="-0.371283">
        <ele>813.0</ele>
        <time>2019-03-26T08:49:44.000Z</time>
      </trkpt>
      <trkpt lat="42.526907" lon="-0.371267">
        <ele>813.0</ele>
        <time>2019-03-26T08:49:45.000Z</time>
      </trkpt>
      <trkpt lat="42.526919" lon="-0.371253">
        <ele>813.0</ele>
        <time>2019-03-26T08:49:46.000Z</time>
      </trkpt>
      <trkpt lat="42.526925" lon="-0.371245">
        <ele>813.0</ele>
        <time>2019-03-26T08:49:47.000Z</time>
      </trkpt>
      <trkpt lat="42.526926" lon="-0.37124">
        <ele>813.0</ele>
        <time>2019-03-26T08:49:48.000Z</time>
      </trkpt>
      <trkpt lat="42.526924" lon="-0.371236">
        <ele>813.0</ele>
        <time>2019-03-26T08:49:49.000Z</time>
      </trkpt>
      <trkpt lat="42.526921" lon="-0.37123">
        <ele>813.0</ele>
        <time>2019-03-26T08:49:50.000Z</time>
      </trkpt>
      <trkpt lat="42.526916" lon="-0.371222">
        <ele>813.0</ele>
        <time>2019-03-26T08:49:51.000Z</time>
      </trkpt>
      <trkpt lat="42.526909" lon="-0.371212">
        <ele>814.0</ele>
        <time>2019-03-26T08:49:52.000Z</time>
      </trkpt>
      <trkpt lat="42.5269" lon="-0.371201">
        <ele>814.0</ele>
        <time>2019-03-26T08:49:53.000Z</time>
      </trkpt>
      <trkpt lat="42.526891" lon="-0.371189">
        <ele>814.0</ele>
        <time>2019-03-26T08:49:54.000Z</time>
      </trkpt>
      <trkpt lat="42.52688" lon="-0.371176">
        <ele>814.0</ele>
        <time>2019-03-26T08:49:55.000Z</time>
      </trkpt>
      <trkpt lat="42.526868" lon="-0.371163">
        <ele>814.0</ele>
        <time>2019-03-26T08:49:56.000Z</time>
      </trkpt>
      <trkpt lat="42.526855" lon="-0.371149">
        <ele>814.0</ele>
        <time>2019-03-26T08:49:57.000Z</time>
      </trkpt>
      <trkpt lat="42.526841" lon="-0.371136">
        <ele>814.0</ele>
        <time>2019-03-26T08:49:58.000Z</time>
      </trkpt>
      <trkpt lat="42.526828" lon="-0.371123">
        <ele>814.0</ele>
        <time>2019-03-26T08:49:59.000Z</time>
      </trkpt>
      <trkpt lat="42.526815" lon="-0.371109">
        <ele>814.0</ele>
        <time>2019-03-26T08:50:00.000Z</time>
      </trkpt>
      <trkpt lat="42.526803" lon="-0.371094">
        <ele>814.0</ele>
        <time>2019-03-26T08:50:01.000Z</time>
      </trkpt>
      <trkpt lat="42.526792" lon="-0.371078">
        <ele>814.0</ele>
        <time>2019-03-26T08:50:02.000Z</time>
      </trkpt>
      <trkpt lat="42.526784" lon="-0.371061">
        <ele>815.0</ele>
        <time>2019-03-26T08:50:03.000Z</time>
      </trkpt>
      <trkpt lat="42.526778" lon="-0.371043">
        <ele>815.0</ele>
        <time>2019-03-26T08:50:04.000Z</time>
      </trkpt>
      <trkpt lat="42.526774" lon="-0.371024">
        <ele>815.0</ele>
        <time>2019-03-26T08:50:05.000Z</time>
      </trkpt>
      <trkpt lat="42.526772" lon="-0.371005">
        <ele>816.0</ele>
        <time>2019-03-26T08:50:06.000Z</time>
      </trkpt>
      <trkpt lat="42.526772" lon="-0.370984">
        <ele>816.0</ele>
        <time>2019-03-26T08:50:07.000Z</time>
      </trkpt>
      <trkpt lat="42.526773" lon="-0.370964">
        <ele>816.0</ele>
        <time>2019-03-26T08:50:08.000Z</time>
      </trkpt>
      <trkpt lat="42.526776" lon="-0.370943">
        <ele>816.0</ele>
        <time>2019-03-26T08:50:09.000Z</time>
      </trkpt>
      <trkpt lat="42.52678" lon="-0.370922">
        <ele>817.0</ele>
        <time>2019-03-26T08:50:10.000Z</time>
      </trkpt>
      <trkpt lat="42.526785" lon="-0.370902">
        <ele>817.0</ele>
        <time>2019-03-26T08:50:11.000Z</time>
      </trkpt>
      <trkpt lat="42.526791" lon="-0.370882">
        <ele>817.0</ele>
        <time>2019-03-26T08:50:12.000Z</time>
      </trkpt>
      <trkpt lat="42.526798" lon="-0.370863">
        <ele>817.0</ele>
        <time>2019-03-26T08:50:13.000Z</time>
      </trkpt>
      <trkpt lat="42.526805" lon="-0.370845">
        <ele>818.0</ele>
        <time>2019-03-26T08:50:14.000Z</time>
      </trkpt>
      <trkpt lat="42.526812" lon="-0.370828">
        <ele>818.0</ele>
        <time>2019-03-26T08:50:15.000Z</time>
      </trkpt>
      <trkpt lat="42.526819" lon="-0.370813">
        <ele>818.0</ele>
        <time>2019-03-26T08:50:16.000Z</time>
      </trkpt>
      <trkpt lat="42.526826" lon="-0.3708">
        <ele>818.0</ele>
        <time>2019-03-26T08:50:17.000Z</time>
      </trkpt>
      <trkpt lat="42.526833" lon="-0.370788">
        <ele>818.0</ele>
        <time>2019-03-26T08:50:18.000Z</time>
      </trkpt>
      <trkpt lat="42.526839" lon="-0.370778">
        <ele>819.0</ele>
        <time>2019-03-26T08:50:19.000Z</time>
      </trkpt>
      <trkpt lat="42.526844" lon="-0.37077">
        <ele>819.0</ele>
        <time>2019-03-26T08:50:20.000Z</time>
      </trkpt>
      <trkpt lat="42.52685" lon="-0.370762">
        <ele>819.0</ele>
        <time>2019-03-26T08:50:21.000Z</time>
      </trkpt>
      <trkpt lat="42.526855" lon="-0.370755">
        <ele>819.0</ele>
        <time>2019-03-26T08:50:22.000Z</time>
      </trkpt>
      <trkpt lat="42.526859" lon="-0.370747">
        <ele>819.0</ele>
        <time>2019-03-26T08:50:23.000Z</time>
      </trkpt>
      <trkpt lat="42.526864" lon="-0.37074">
        <ele>819.0</ele>
        <time>2019-03-26T08:50:24.000Z</time>
      </trkpt>
      <trkpt lat="42.526868" lon="-0.370732">
        <ele>819.0</ele>
        <time>2019-03-26T08:50:25.000Z</time>
      </trkpt>
      <trkpt lat="42.526872" lon="-0.370723">
        <ele>819.0</ele>
        <time>2019-03-26T08:50:26.000Z</time>
      </trkpt>
      <trkpt lat="42.526875" lon="-0.370713">
        <ele>820.0</ele>
        <time>2019-03-26T08:50:27.000Z</time>
      </trkpt>
      <trkpt lat="42.526878" lon="-0.370702">
        <ele>820.0</ele>
        <time>2019-03-26T08:50:28.000Z</time>
      </trkpt>
      <trkpt lat="42.526881" lon="-0.370689">
        <ele>820.0</ele>
        <time>2019-03-26T08:50:29.000Z</time>
      </trkpt>
      <trkpt lat="42.526883" lon="-0.370675">
        <ele>820.0</ele>
        <time>2019-03-26T08:50:30.000Z</time>
      </trkpt>
      <trkpt lat="42.526884" lon="-0.370659">
        <ele>820.0</ele>
        <time>2019-03-26T08:50:31.000Z</time>
      </trkpt>
      <trkpt lat="42.526885" lon="-0.370641">
        <ele>821.0</ele>
        <time>2019-03-26T08:50:32.000Z</time>
      </trkpt>
      <trkpt lat="42.526885" lon="-0.370628">
        <ele>821.0</ele>
        <time>2019-03-26T08:50:33.000Z</time>
      </trkpt>
      <trkpt lat="42.526885" lon="-0.370623">
        <ele>821.0</ele>
        <time>2019-03-26T08:50:34.000Z</time>
      </trkpt>
      <trkpt lat="42.526885" lon="-0.370623">
        <ele>821.0</ele>
        <time>2019-03-26T08:50:35.000Z</time>
      </trkpt>
      <trkpt lat="42.526886" lon="-0.370623">
        <ele>821.0</ele>
        <time>2019-03-26T08:50:36.000Z</time>
      </trkpt>
      <trkpt lat="42.526887" lon="-0.370619">
        <ele>821.0</ele>
        <time>2019-03-26T08:50:37.000Z</time>
      </trkpt>
      <trkpt lat="42.526887" lon="-0.370612">
        <ele>821.0</ele>
        <time>2019-03-26T08:50:38.000Z</time>
      </trkpt>
      <trkpt lat="42.526886" lon="-0.3706">
        <ele>821.0</ele>
        <time>2019-03-26T08:50:39.000Z</time>
      </trkpt>
      <trkpt lat="42.526882" lon="-0.370584">
        <ele>821.0</ele>
        <time>2019-03-26T08:50:40.000Z</time>
      </trkpt>
      <trkpt lat="42.526877" lon="-0.370566">
        <ele>821.0</ele>
        <time>2019-03-26T08:50:41.000Z</time>
      </trkpt>
      <trkpt lat="42.52687" lon="-0.370545">
        <ele>821.0</ele>
        <time>2019-03-26T08:50:42.000Z</time>
      </trkpt>
      <trkpt lat="42.526863" lon="-0.370524">
        <ele>822.0</ele>
        <time>2019-03-26T08:50:43.000Z</time>
      </trkpt>
      <trkpt lat="42.526854" lon="-0.370503">
        <ele>822.0</ele>
        <time>2019-03-26T08:50:44.000Z</time>
      </trkpt>
      <trkpt lat="42.526845" lon="-0.370484">
        <ele>822.0</ele>
        <time>2019-03-26T08:50:45.000Z</time>
      </trkpt>
      <trkpt lat="42.526836" lon="-0.370467">
        <ele>822.0</ele>
        <time>2019-03-26T08:50:46.000Z</time>
      </trkpt>
      <trkpt lat="42.526828" lon="-0.370451">
        <ele>822.0</ele>
        <time>2019-03-26T08:50:47.000Z</time>
      </trkpt>
      <trkpt lat="42.52682" lon="-0.370435">
        <ele>822.0</ele>
        <time>2019-03-26T08:50:48.000Z</time>
      </trkpt>
      <trkpt lat="42.526814" lon="-0.370418">
        <ele>823.0</ele>
        <time>2019-03-26T08:50:49.000Z</time>
      </trkpt>
      <trkpt lat="42.52681" lon="-0.370398">
        <ele>823.0</ele>
        <time>2019-03-26T08:50:50.000Z</time>
      </trkpt>
      <trkpt lat="42.526808" lon="-0.370377">
        <ele>823.0</ele>
        <time>2019-03-26T08:50:51.000Z</time>
      </trkpt>
      <trkpt lat="42.526806" lon="-0.370354">
        <ele>823.0</ele>
        <time>2019-03-26T08:50:52.000Z</time>
      </trkpt>
      <trkpt lat="42.526804" lon="-0.370332">
        <ele>823.0</ele>
        <time>2019-03-26T08:50:53.000Z</time>
      </trkpt>
      <trkpt lat="42.526801" lon="-0.37031">
        <ele>824.0</ele>
        <time>2019-03-26T08:50:54.000Z</time>
      </trkpt>
      <trkpt lat="42.526798" lon="-0.370288">
        <ele>824.0</ele>
        <time>2019-03-26T08:50:55.000Z</time>
      </trkpt>
      <trkpt lat="42.526796" lon="-0.370269">
        <ele>824.0</ele>
        <time>2019-03-26T08:50:56.000Z</time>
      </trkpt>
      <trkpt lat="42.526793" lon="-0.370251">
        <ele>824.0</ele>
        <time>2019-03-26T08:50:57.000Z</time>
      </trkpt>
      <trkpt lat="42.526792" lon="-0.370237">
        <ele>825.0</ele>
        <time>2019-03-26T08:50:58.000Z</time>
      </trkpt>
      <trkpt lat="42.526791" lon="-0.370225">
        <ele>825.0</ele>
        <time>2019-03-26T08:50:59.000Z</time>
      </trkpt>
      <trkpt lat="42.52679" lon="-0.370218">
        <ele>825.0</ele>
        <time>2019-03-26T08:51:00.000Z</time>
      </trkpt>
      <trkpt lat="42.52679" lon="-0.370213">
        <ele>825.0</ele>
        <time>2019-03-26T08:51:01.000Z</time>
      </trkpt>
      <trkpt lat="42.52679" lon="-0.370209">
        <ele>825.0</ele>
        <time>2019-03-26T08:51:02.000Z</time>
      </trkpt>
      <trkpt lat="42.526789" lon="-0.370203">
        <ele>826.0</ele>
        <time>2019-03-26T08:51:03.000Z</time>
      </trkpt>
      <trkpt lat="42.526787" lon="-0.370195">
        <ele>826.0</ele>
        <time>2019-03-26T08:51:04.000Z</time>
      </trkpt>
      <trkpt lat="42.526785" lon="-0.370184">
        <ele>826.0</ele>
        <time>2019-03-26T08:51:05.000Z</time>
      </trkpt>
      <trkpt lat="42.526783" lon="-0.370173">
        <ele>826.0</ele>
        <time>2019-03-26T08:51:06.000Z</time>
      </trkpt>
      <trkpt lat="42.526781" lon="-0.370161">
        <ele>827.0</ele>
        <time>2019-03-26T08:51:07.000Z</time>
      </trkpt>
      <trkpt lat="42.526779" lon="-0.370149">
        <ele>827.0</ele>
        <time>2019-03-26T08:51:08.000Z</time>
      </trkpt>
      <trkpt lat="42.526778" lon="-0.370137">
        <ele>827.0</ele>
        <time>2019-03-26T08:51:09.000Z</time>
      </trkpt>
      <trkpt lat="42.526778" lon="-0.370125">
        <ele>827.0</ele>
        <time>2019-03-26T08:51:10.000Z</time>
      </trkpt>
      <trkpt lat="42.526777" lon="-0.370112">
        <ele>827.0</ele>
        <time>2019-03-26T08:51:11.000Z</time>
      </trkpt>
      <trkpt lat="42.526777" lon="-0.370099">
        <ele>828.0</ele>
        <time>2019-03-26T08:51:12.000Z</time>
      </trkpt>
      <trkpt lat="42.526776" lon="-0.370086">
        <ele>828.0</ele>
        <time>2019-03-26T08:51:13.000Z</time>
      </trkpt>
      <trkpt lat="42.526776" lon="-0.370073">
        <ele>828.0</ele>
        <time>2019-03-26T08:51:14.000Z</time>
      </trkpt>
      <trkpt lat="42.526775" lon="-0.370059">
        <ele>828.0</ele>
        <time>2019-03-26T08:51:15.000Z</time>
      </trkpt>
      <trkpt lat="42.526774" lon="-0.370044">
        <ele>828.0</ele>
        <time>2019-03-26T08:51:16.000Z</time>
      </trkpt>
      <trkpt lat="42.526774" lon="-0.37003">
        <ele>828.0</ele>
        <time>2019-03-26T08:51:17.000Z</time>
      </trkpt>
      <trkpt lat="42.526773" lon="-0.370015">
        <ele>829.0</ele>
        <time>2019-03-26T08:51:18.000Z</time>
      </trkpt>
      <trkpt lat="42.526773" lon="-0.370001">
        <ele>829.0</ele>
        <time>2019-03-26T08:51:19.000Z</time>
      </trkpt>
      <trkpt lat="42.526772" lon="-0.369986">
        <ele>829.0</ele>
        <time>2019-03-26T08:51:20.000Z</time>
      </trkpt>
      <trkpt lat="42.526772" lon="-0.369972">
        <ele>829.0</ele>
        <time>2019-03-26T08:51:21.000Z</time>
      </trkpt>
      <trkpt lat="42.526772" lon="-0.369957">
        <ele>829.0</ele>
        <time>2019-03-26T08:51:22.000Z</time>
      </trkpt>
      <trkpt lat="42.526773" lon="-0.369943">
        <ele>829.0</ele>
        <time>2019-03-26T08:51:23.000Z</time>
      </trkpt>
      <trkpt lat="42.526773" lon="-0.369929">
        <ele>830.0</ele>
        <time>2019-03-26T08:51:24.000Z</time>
      </trkpt>
      <trkpt lat="42.526775" lon="-0.369916">
        <ele>830.0</ele>
        <time>2019-03-26T08:51:25.000Z</time>
      </trkpt>
      <trkpt lat="42.526776" lon="-0.369903">
        <ele>830.0</ele>
        <time>2019-03-26T08:51:26.000Z</time>
      </trkpt>
      <trkpt lat="42.526778" lon="-0.369891">
        <ele>830.0</ele>
        <time>2019-03-26T08:51:27.000Z</time>
      </trkpt>
      <trkpt lat="42.526781" lon="-0.369879">
        <ele>830.0</ele>
        <time>2019-03-26T08:51:28.000Z</time>
      </trkpt>
      <trkpt lat="42.526783" lon="-0.369867">
        <ele>831.0</ele>
        <time>2019-03-26T08:51:29.000Z</time>
      </trkpt>
      <trkpt lat="42.526786" lon="-0.369856">
        <ele>831.0</ele>
        <time>2019-03-26T08:51:30.000Z</time>
      </trkpt>
      <trkpt lat="42.52679" lon="-0.369846">
        <ele>831.0</ele>
        <time>2019-03-26T08:51:31.000Z</time>
      </trkpt>
      <trkpt lat="42.526793" lon="-0.369836">
        <ele>831.0</ele>
        <time>2019-03-26T08:51:32.000Z</time>
      </trkpt>
      <trkpt lat="42.526796" lon="-0.369826">
        <ele>832.0</ele>
        <time>2019-03-26T08:51:33.000Z</time>
      </trkpt>
      <trkpt lat="42.526799" lon="-0.369817">
        <ele>832.0</ele>
        <time>2019-03-26T08:51:34.000Z</time>
      </trkpt>
      <trkpt lat="42.526802" lon="-0.369808">
        <ele>832.0</ele>
        <time>2019-03-26T08:51:35.000Z</time>
      </trkpt>
      <trkpt lat="42.526805" lon="-0.369799">
        <ele>832.0</ele>
        <time>2019-03-26T08:51:36.000Z</time>
      </trkpt>
      <trkpt lat="42.526808" lon="-0.36979">
        <ele>832.0</ele>
        <time>2019-03-26T08:51:37.000Z</time>
      </trkpt>
      <trkpt lat="42.52681" lon="-0.369782">
        <ele>833.0</ele>
        <time>2019-03-26T08:51:38.000Z</time>
      </trkpt>
      <trkpt lat="42.526811" lon="-0.369774">
        <ele>833.0</ele>
        <time>2019-03-26T08:51:39.000Z</time>
      </trkpt>
      <trkpt lat="42.526812" lon="-0.369766">
        <ele>833.0</ele>
        <time>2019-03-26T08:51:40.000Z</time>
      </trkpt>
      <trkpt lat="42.526813" lon="-0.369758">
        <ele>834.0</ele>
        <time>2019-03-26T08:51:41.000Z</time>
      </trkpt>
      <trkpt lat="42.526813" lon="-0.36975">
        <ele>834.0</ele>
        <time>2019-03-26T08:51:42.000Z</time>
      </trkpt>
      <trkpt lat="42.526813" lon="-0.369742">
        <ele>834.0</ele>
        <time>2019-03-26T08:51:43.000Z</time>
      </trkpt>
      <trkpt lat="42.526812" lon="-0.369734">
        <ele>834.0</ele>
        <time>2019-03-26T08:51:44.000Z</time>
      </trkpt>
      <trkpt lat="42.526812" lon="-0.369725">
        <ele>834.0</ele>
        <time>2019-03-26T08:51:45.000Z</time>
      </trkpt>
      <trkpt lat="42.526813" lon="-0.369716">
        <ele>835.0</ele>
        <time>2019-03-26T08:51:46.000Z</time>
      </trkpt>
      <trkpt lat="42.526814" lon="-0.369707">
        <ele>835.0</ele>
        <time>2019-03-26T08:51:47.000Z</time>
      </trkpt>
      <trkpt lat="42.526816" lon="-0.369696">
        <ele>835.0</ele>
        <time>2019-03-26T08:51:48.000Z</time>
      </trkpt>
      <trkpt lat="42.526818" lon="-0.369686">
        <ele>835.0</ele>
        <time>2019-03-26T08:51:49.000Z</time>
      </trkpt>
      <trkpt lat="42.526821" lon="-0.369676">
        <ele>836.0</ele>
        <time>2019-03-26T08:51:50.000Z</time>
      </trkpt>
      <trkpt lat="42.526824" lon="-0.369666">
        <ele>836.0</ele>
        <time>2019-03-26T08:51:51.000Z</time>
      </trkpt>
      <trkpt lat="42.526827" lon="-0.369658">
        <ele>836.0</ele>
        <time>2019-03-26T08:51:52.000Z</time>
      </trkpt>
      <trkpt lat="42.52683" lon="-0.369652">
        <ele>836.0</ele>
        <time>2019-03-26T08:51:53.000Z</time>
      </trkpt>
      <trkpt lat="42.526832" lon="-0.369648">
        <ele>836.0</ele>
        <time>2019-03-26T08:51:54.000Z</time>
      </trkpt>
      <trkpt lat="42.526834" lon="-0.369646">
        <ele>837.0</ele>
        <time>2019-03-26T08:51:55.000Z</time>
      </trkpt>
      <trkpt lat="42.526836" lon="-0.369647">
        <ele>837.0</ele>
        <time>2019-03-26T08:51:56.000Z</time>
      </trkpt>
      <trkpt lat="42.526839" lon="-0.369649">
        <ele>837.0</ele>
        <time>2019-03-26T08:51:57.000Z</time>
      </trkpt>
      <trkpt lat="42.526844" lon="-0.369651">
        <ele>837.0</ele>
        <time>2019-03-26T08:51:58.000Z</time>
      </trkpt>
      <trkpt lat="42.526852" lon="-0.369653">
        <ele>837.0</ele>
        <time>2019-03-26T08:51:59.000Z</time>
      </trkpt>
      <trkpt lat="42.526862" lon="-0.369653">
        <ele>837.0</ele>
        <time>2019-03-26T08:52:00.000Z</time>
      </trkpt>
      <trkpt lat="42.526877" lon="-0.369651">
        <ele>837.0</ele>
        <time>2019-03-26T08:52:01.000Z</time>
      </trkpt>
      <trkpt lat="42.526897" lon="-0.369647">
        <ele>837.0</ele>
        <time>2019-03-26T08:52:02.000Z</time>
      </trkpt>
      <trkpt lat="42.52692" lon="-0.369642">
        <ele>837.0</ele>
        <time>2019-03-26T08:52:03.000Z</time>
      </trkpt>
      <trkpt lat="42.526945" lon="-0.369636">
        <ele>837.0</ele>
        <time>2019-03-26T08:52:04.000Z</time>
      </trkpt>
      <trkpt lat="42.526972" lon="-0.369631">
        <ele>837.0</ele>
        <time>2019-03-26T08:52:05.000Z</time>
      </trkpt>
      <trkpt lat="42.526998" lon="-0.36963">
        <ele>837.0</ele>
        <time>2019-03-26T08:52:06.000Z</time>
      </trkpt>
      <trkpt lat="42.527022" lon="-0.369632">
        <ele>837.0</ele>
        <time>2019-03-26T08:52:07.000Z</time>
      </trkpt>
      <trkpt lat="42.527044" lon="-0.36964">
        <ele>837.0</ele>
        <time>2019-03-26T08:52:08.000Z</time>
      </trkpt>
      <trkpt lat="42.527062" lon="-0.369654">
        <ele>837.0</ele>
        <time>2019-03-26T08:52:09.000Z</time>
      </trkpt>
      <trkpt lat="42.527076" lon="-0.369675">
        <ele>837.0</ele>
        <time>2019-03-26T08:52:10.000Z</time>
      </trkpt>
      <trkpt lat="42.527088" lon="-0.3697">
        <ele>837.0</ele>
        <time>2019-03-26T08:52:11.000Z</time>
      </trkpt>
      <trkpt lat="42.527098" lon="-0.36973">
        <ele>837.0</ele>
        <time>2019-03-26T08:52:12.000Z</time>
      </trkpt>
      <trkpt lat="42.527108" lon="-0.369764">
        <ele>837.0</ele>
        <time>2019-03-26T08:52:13.000Z</time>
      </trkpt>
      <trkpt lat="42.527118" lon="-0.369801">
        <ele>837.0</ele>
        <time>2019-03-26T08:52:14.000Z</time>
      </trkpt>
      <trkpt lat="42.52713" lon="-0.369839">
        <ele>837.0</ele>
        <time>2019-03-26T08:52:15.000Z</time>
      </trkpt>
      <trkpt lat="42.527143" lon="-0.369879">
        <ele>837.0</ele>
        <time>2019-03-26T08:52:16.000Z</time>
      </trkpt>
      <trkpt lat="42.527158" lon="-0.36992">
        <ele>836.0</ele>
        <time>2019-03-26T08:52:17.000Z</time>
      </trkpt>
      <trkpt lat="42.527174" lon="-0.369961">
        <ele>836.0</ele>
        <time>2019-03-26T08:52:18.000Z</time>
      </trkpt>
      <trkpt lat="42.527191" lon="-0.370004">
        <ele>836.0</ele>
        <time>2019-03-26T08:52:19.000Z</time>
      </trkpt>
      <trkpt lat="42.527207" lon="-0.370046">
        <ele>836.0</ele>
        <time>2019-03-26T08:52:20.000Z</time>
      </trkpt>
      <trkpt lat="42.527224" lon="-0.37009">
        <ele>836.0</ele>
        <time>2019-03-26T08:52:21.000Z</time>
      </trkpt>
      <trkpt lat="42.527239" lon="-0.370133">
        <ele>836.0</ele>
        <time>2019-03-26T08:52:22.000Z</time>
      </trkpt>
      <trkpt lat="42.527254" lon="-0.370177">
        <ele>836.0</ele>
        <time>2019-03-26T08:52:23.000Z</time>
      </trkpt>
      <trkpt lat="42.527268" lon="-0.37022">
        <ele>835.0</ele>
        <time>2019-03-26T08:52:24.000Z</time>
      </trkpt>
      <trkpt lat="42.527282" lon="-0.370263">
        <ele>835.0</ele>
        <time>2019-03-26T08:52:25.000Z</time>
      </trkpt>
      <trkpt lat="42.527295" lon="-0.370307">
        <ele>835.0</ele>
        <time>2019-03-26T08:52:26.000Z</time>
      </trkpt>
      <trkpt lat="42.527308" lon="-0.37035">
        <ele>835.0</ele>
        <time>2019-03-26T08:52:27.000Z</time>
      </trkpt>
      <trkpt lat="42.527321" lon="-0.370392">
        <ele>835.0</ele>
        <time>2019-03-26T08:52:28.000Z</time>
      </trkpt>
      <trkpt lat="42.527334" lon="-0.370434">
        <ele>836.0</ele>
        <time>2019-03-26T08:52:29.000Z</time>
      </trkpt>
      <trkpt lat="42.527346" lon="-0.370475">
        <ele>836.0</ele>
        <time>2019-03-26T08:52:30.000Z</time>
      </trkpt>
      <trkpt lat="42.52736" lon="-0.370516">
        <ele>836.0</ele>
        <time>2019-03-26T08:52:31.000Z</time>
      </trkpt>
      <trkpt lat="42.527373" lon="-0.370556">
        <ele>836.0</ele>
        <time>2019-03-26T08:52:32.000Z</time>
      </trkpt>
      <trkpt lat="42.527387" lon="-0.370595">
        <ele>836.0</ele>
        <time>2019-03-26T08:52:33.000Z</time>
      </trkpt>
      <trkpt lat="42.527402" lon="-0.370633">
        <ele>836.0</ele>
        <time>2019-03-26T08:52:34.000Z</time>
      </trkpt>
      <trkpt lat="42.527417" lon="-0.37067">
        <ele>836.0</ele>
        <time>2019-03-26T08:52:35.000Z</time>
      </trkpt>
      <trkpt lat="42.527434" lon="-0.370705">
        <ele>837.0</ele>
        <time>2019-03-26T08:52:36.000Z</time>
      </trkpt>
      <trkpt lat="42.527451" lon="-0.370739">
        <ele>837.0</ele>
        <time>2019-03-26T08:52:37.000Z</time>
      </trkpt>
      <trkpt lat="42.52747" lon="-0.37077">
        <ele>837.0</ele>
        <time>2019-03-26T08:52:38.000Z</time>
      </trkpt>
      <trkpt lat="42.527491" lon="-0.370798">
        <ele>837.0</ele>
        <time>2019-03-26T08:52:39.000Z</time>
      </trkpt>
      <trkpt lat="42.527514" lon="-0.370822">
        <ele>837.0</ele>
        <time>2019-03-26T08:52:40.000Z</time>
      </trkpt>
      <trkpt lat="42.527538" lon="-0.370842">
        <ele>837.0</ele>
        <time>2019-03-26T08:52:41.000Z</time>
      </trkpt>
      <trkpt lat="42.527566" lon="-0.370857">
        <ele>837.0</ele>
        <time>2019-03-26T08:52:42.000Z</time>
      </trkpt>
      <trkpt lat="42.527596" lon="-0.370866">
        <ele>837.0</ele>
        <time>2019-03-26T08:52:43.000Z</time>
      </trkpt>
      <trkpt lat="42.527627" lon="-0.37087">
        <ele>837.0</ele>
        <time>2019-03-26T08:52:44.000Z</time>
      </trkpt>
      <trkpt lat="42.527658" lon="-0.370869">
        <ele>837.0</ele>
        <time>2019-03-26T08:52:45.000Z</time>
      </trkpt>
      <trkpt lat="42.527687" lon="-0.370865">
        <ele>837.0</ele>
        <time>2019-03-26T08:52:46.000Z</time>
      </trkpt>
      <trkpt lat="42.527713" lon="-0.370856">
        <ele>837.0</ele>
        <time>2019-03-26T08:52:47.000Z</time>
      </trkpt>
      <trkpt lat="42.527738" lon="-0.370847">
        <ele>837.0</ele>
        <time>2019-03-26T08:52:48.000Z</time>
      </trkpt>
      <trkpt lat="42.527762" lon="-0.370838">
        <ele>838.0</ele>
        <time>2019-03-26T08:52:49.000Z</time>
      </trkpt>
      <trkpt lat="42.527787" lon="-0.370831">
        <ele>838.0</ele>
        <time>2019-03-26T08:52:50.000Z</time>
      </trkpt>
      <trkpt lat="42.527813" lon="-0.370827">
        <ele>838.0</ele>
        <time>2019-03-26T08:52:51.000Z</time>
      </trkpt>
      <trkpt lat="42.527839" lon="-0.370822">
        <ele>838.0</ele>
        <time>2019-03-26T08:52:52.000Z</time>
      </trkpt>
      <trkpt lat="42.527865" lon="-0.370817">
        <ele>838.0</ele>
        <time>2019-03-26T08:52:53.000Z</time>
      </trkpt>
      <trkpt lat="42.527892" lon="-0.37081">
        <ele>839.0</ele>
        <time>2019-03-26T08:52:54.000Z</time>
      </trkpt>
      <trkpt lat="42.527918" lon="-0.3708">
        <ele>839.0</ele>
        <time>2019-03-26T08:52:55.000Z</time>
      </trkpt>
      <trkpt lat="42.527943" lon="-0.370787">
        <ele>839.0</ele>
        <time>2019-03-26T08:52:56.000Z</time>
      </trkpt>
      <trkpt lat="42.527968" lon="-0.370772">
        <ele>839.0</ele>
        <time>2019-03-26T08:52:57.000Z</time>
      </trkpt>
      <trkpt lat="42.527993" lon="-0.370755">
        <ele>839.0</ele>
        <time>2019-03-26T08:52:58.000Z</time>
      </trkpt>
      <trkpt lat="42.528019" lon="-0.37074">
        <ele>839.0</ele>
        <time>2019-03-26T08:52:59.000Z</time>
      </trkpt>
      <trkpt lat="42.528047" lon="-0.370728">
        <ele>839.0</ele>
        <time>2019-03-26T08:53:00.000Z</time>
      </trkpt>
      <trkpt lat="42.528077" lon="-0.370721">
        <ele>839.0</ele>
        <time>2019-03-26T08:53:01.000Z</time>
      </trkpt>
      <trkpt lat="42.528109" lon="-0.370718">
        <ele>839.0</ele>
        <time>2019-03-26T08:53:02.000Z</time>
      </trkpt>
      <trkpt lat="42.528142" lon="-0.370715">
        <ele>840.0</ele>
        <time>2019-03-26T08:53:03.000Z</time>
      </trkpt>
      <trkpt lat="42.528176" lon="-0.370712">
        <ele>839.0</ele>
        <time>2019-03-26T08:53:04.000Z</time>
      </trkpt>
      <trkpt lat="42.528211" lon="-0.370707">
        <ele>840.0</ele>
        <time>2019-03-26T08:53:05.000Z</time>
      </trkpt>
      <trkpt lat="42.528246" lon="-0.370699">
        <ele>840.0</ele>
        <time>2019-03-26T08:53:06.000Z</time>
      </trkpt>
      <trkpt lat="42.528281" lon="-0.370688">
        <ele>840.0</ele>
        <time>2019-03-26T08:53:07.000Z</time>
      </trkpt>
      <trkpt lat="42.528315" lon="-0.370675">
        <ele>840.0</ele>
        <time>2019-03-26T08:53:08.000Z</time>
      </trkpt>
      <trkpt lat="42.52835" lon="-0.370662">
        <ele>840.0</ele>
        <time>2019-03-26T08:53:09.000Z</time>
      </trkpt>
      <trkpt lat="42.528383" lon="-0.370652">
        <ele>840.0</ele>
        <time>2019-03-26T08:53:10.000Z</time>
      </trkpt>
      <trkpt lat="42.528415" lon="-0.370649">
        <ele>840.0</ele>
        <time>2019-03-26T08:53:11.000Z</time>
      </trkpt>
      <trkpt lat="42.528446" lon="-0.370651">
        <ele>841.0</ele>
        <time>2019-03-26T08:53:12.000Z</time>
      </trkpt>
      <trkpt lat="42.528477" lon="-0.37066">
        <ele>841.0</ele>
        <time>2019-03-26T08:53:13.000Z</time>
      </trkpt>
      <trkpt lat="42.528509" lon="-0.370674">
        <ele>841.0</ele>
        <time>2019-03-26T08:53:14.000Z</time>
      </trkpt>
      <trkpt lat="42.528541" lon="-0.37069">
        <ele>841.0</ele>
        <time>2019-03-26T08:53:15.000Z</time>
      </trkpt>
      <trkpt lat="42.528573" lon="-0.370709">
        <ele>841.0</ele>
        <time>2019-03-26T08:53:16.000Z</time>
      </trkpt>
      <trkpt lat="42.528605" lon="-0.370726">
        <ele>841.0</ele>
        <time>2019-03-26T08:53:17.000Z</time>
      </trkpt>
      <trkpt lat="42.528637" lon="-0.370744">
        <ele>841.0</ele>
        <time>2019-03-26T08:53:18.000Z</time>
      </trkpt>
      <trkpt lat="42.528669" lon="-0.37076">
        <ele>842.0</ele>
        <time>2019-03-26T08:53:19.000Z</time>
      </trkpt>
      <trkpt lat="42.5287" lon="-0.370776">
        <ele>842.0</ele>
        <time>2019-03-26T08:53:20.000Z</time>
      </trkpt>
      <trkpt lat="42.528732" lon="-0.370791">
        <ele>841.0</ele>
        <time>2019-03-26T08:53:21.000Z</time>
      </trkpt>
      <trkpt lat="42.528764" lon="-0.370806">
        <ele>842.0</ele>
        <time>2019-03-26T08:53:22.000Z</time>
      </trkpt>
      <trkpt lat="42.528796" lon="-0.370821">
        <ele>842.0</ele>
        <time>2019-03-26T08:53:23.000Z</time>
      </trkpt>
      <trkpt lat="42.528828" lon="-0.370835">
        <ele>842.0</ele>
        <time>2019-03-26T08:53:24.000Z</time>
      </trkpt>
      <trkpt lat="42.52886" lon="-0.370849">
        <ele>842.0</ele>
        <time>2019-03-26T08:53:25.000Z</time>
      </trkpt>
      <trkpt lat="42.528891" lon="-0.370865">
        <ele>842.0</ele>
        <time>2019-03-26T08:53:26.000Z</time>
      </trkpt>
      <trkpt lat="42.528922" lon="-0.370883">
        <ele>842.0</ele>
        <time>2019-03-26T08:53:27.000Z</time>
      </trkpt>
      <trkpt lat="42.528952" lon="-0.370904">
        <ele>842.0</ele>
        <time>2019-03-26T08:53:28.000Z</time>
      </trkpt>
      <trkpt lat="42.528981" lon="-0.370928">
        <ele>842.0</ele>
        <time>2019-03-26T08:53:29.000Z</time>
      </trkpt>
      <trkpt lat="42.529008" lon="-0.370957">
        <ele>842.0</ele>
        <time>2019-03-26T08:53:30.000Z</time>
      </trkpt>
      <trkpt lat="42.529033" lon="-0.370991">
        <ele>842.0</ele>
        <time>2019-03-26T08:53:31.000Z</time>
      </trkpt>
      <trkpt lat="42.529057" lon="-0.371028">
        <ele>842.0</ele>
        <time>2019-03-26T08:53:32.000Z</time>
      </trkpt>
      <trkpt lat="42.52908" lon="-0.371067">
        <ele>842.0</ele>
        <time>2019-03-26T08:53:33.000Z</time>
      </trkpt>
      <trkpt lat="42.529103" lon="-0.371105">
        <ele>842.0</ele>
        <time>2019-03-26T08:53:34.000Z</time>
      </trkpt>
      <trkpt lat="42.529126" lon="-0.371141">
        <ele>842.0</ele>
        <time>2019-03-26T08:53:35.000Z</time>
      </trkpt>
      <trkpt lat="42.529151" lon="-0.371175">
        <ele>842.0</ele>
        <time>2019-03-26T08:53:36.000Z</time>
      </trkpt>
      <trkpt lat="42.529177" lon="-0.371207">
        <ele>843.0</ele>
        <time>2019-03-26T08:53:37.000Z</time>
      </trkpt>
      <trkpt lat="42.529205" lon="-0.371236">
        <ele>842.0</ele>
        <time>2019-03-26T08:53:38.000Z</time>
      </trkpt>
      <trkpt lat="42.529235" lon="-0.37126">
        <ele>843.0</ele>
        <time>2019-03-26T08:53:39.000Z</time>
      </trkpt>
      <trkpt lat="42.529267" lon="-0.371278">
        <ele>843.0</ele>
        <time>2019-03-26T08:53:40.000Z</time>
      </trkpt>
      <trkpt lat="42.529301" lon="-0.371286">
        <ele>843.0</ele>
        <time>2019-03-26T08:53:41.000Z</time>
      </trkpt>
      <trkpt lat="42.529338" lon="-0.371284">
        <ele>843.0</ele>
        <time>2019-03-26T08:53:42.000Z</time>
      </trkpt>
      <trkpt lat="42.529374" lon="-0.371277">
        <ele>843.0</ele>
        <time>2019-03-26T08:53:43.000Z</time>
      </trkpt>
      <trkpt lat="42.52941" lon="-0.371273">
        <ele>843.0</ele>
        <time>2019-03-26T08:53:44.000Z</time>
      </trkpt>
      <trkpt lat="42.529444" lon="-0.371277">
        <ele>843.0</ele>
        <time>2019-03-26T08:53:45.000Z</time>
      </trkpt>
      <trkpt lat="42.529476" lon="-0.371289">
        <ele>843.0</ele>
        <time>2019-03-26T08:53:46.000Z</time>
      </trkpt>
      <trkpt lat="42.529507" lon="-0.371308">
        <ele>843.0</ele>
        <time>2019-03-26T08:53:47.000Z</time>
      </trkpt>
      <trkpt lat="42.529536" lon="-0.37133">
        <ele>843.0</ele>
        <time>2019-03-26T08:53:48.000Z</time>
      </trkpt>
      <trkpt lat="42.529565" lon="-0.371356">
        <ele>843.0</ele>
        <time>2019-03-26T08:53:49.000Z</time>
      </trkpt>
      <trkpt lat="42.529593" lon="-0.371382">
        <ele>843.0</ele>
        <time>2019-03-26T08:53:50.000Z</time>
      </trkpt>
      <trkpt lat="42.529621" lon="-0.371408">
        <ele>844.0</ele>
        <time>2019-03-26T08:53:51.000Z</time>
      </trkpt>
      <trkpt lat="42.52965" lon="-0.371432">
        <ele>844.0</ele>
        <time>2019-03-26T08:53:52.000Z</time>
      </trkpt>
      <trkpt lat="42.529678" lon="-0.371453">
        <ele>844.0</ele>
        <time>2019-03-26T08:53:53.000Z</time>
      </trkpt>
      <trkpt lat="42.529707" lon="-0.371473">
        <ele>844.0</ele>
        <time>2019-03-26T08:53:54.000Z</time>
      </trkpt>
      <trkpt lat="42.529736" lon="-0.371492">
        <ele>844.0</ele>
        <time>2019-03-26T08:53:55.000Z</time>
      </trkpt>
      <trkpt lat="42.529766" lon="-0.371511">
        <ele>844.0</ele>
        <time>2019-03-26T08:53:56.000Z</time>
      </trkpt>
      <trkpt lat="42.529796" lon="-0.371529">
        <ele>844.0</ele>
        <time>2019-03-26T08:53:57.000Z</time>
      </trkpt>
      <trkpt lat="42.529827" lon="-0.371547">
        <ele>844.0</ele>
        <time>2019-03-26T08:53:58.000Z</time>
      </trkpt>
      <trkpt lat="42.529858" lon="-0.371566">
        <ele>844.0</ele>
        <time>2019-03-26T08:53:59.000Z</time>
      </trkpt>
      <trkpt lat="42.529889" lon="-0.371586">
        <ele>844.0</ele>
        <time>2019-03-26T08:54:00.000Z</time>
      </trkpt>
      <trkpt lat="42.529921" lon="-0.371605">
        <ele>844.0</ele>
        <time>2019-03-26T08:54:01.000Z</time>
      </trkpt>
      <trkpt lat="42.529953" lon="-0.371625">
        <ele>844.0</ele>
        <time>2019-03-26T08:54:02.000Z</time>
      </trkpt>
      <trkpt lat="42.529984" lon="-0.371645">
        <ele>844.0</ele>
        <time>2019-03-26T08:54:03.000Z</time>
      </trkpt>
      <trkpt lat="42.530016" lon="-0.371664">
        <ele>844.0</ele>
        <time>2019-03-26T08:54:04.000Z</time>
      </trkpt>
      <trkpt lat="42.530047" lon="-0.371682">
        <ele>844.0</ele>
        <time>2019-03-26T08:54:05.000Z</time>
      </trkpt>
      <trkpt lat="42.530077" lon="-0.3717">
        <ele>844.0</ele>
        <time>2019-03-26T08:54:06.000Z</time>
      </trkpt>
      <trkpt lat="42.530107" lon="-0.371718">
        <ele>844.0</ele>
        <time>2019-03-26T08:54:07.000Z</time>
      </trkpt>
      <trkpt lat="42.530137" lon="-0.371735">
        <ele>844.0</ele>
        <time>2019-03-26T08:54:08.000Z</time>
      </trkpt>
      <trkpt lat="42.530166" lon="-0.371754">
        <ele>845.0</ele>
        <time>2019-03-26T08:54:09.000Z</time>
      </trkpt>
      <trkpt lat="42.530195" lon="-0.371774">
        <ele>845.0</ele>
        <time>2019-03-26T08:54:10.000Z</time>
      </trkpt>
      <trkpt lat="42.530224" lon="-0.371796">
        <ele>845.0</ele>
        <time>2019-03-26T08:54:11.000Z</time>
      </trkpt>
      <trkpt lat="42.530253" lon="-0.371821">
        <ele>845.0</ele>
        <time>2019-03-26T08:54:12.000Z</time>
      </trkpt>
      <trkpt lat="42.530282" lon="-0.371849">
        <ele>845.0</ele>
        <time>2019-03-26T08:54:13.000Z</time>
      </trkpt>
      <trkpt lat="42.530311" lon="-0.371879">
        <ele>845.0</ele>
        <time>2019-03-26T08:54:14.000Z</time>
      </trkpt>
      <trkpt lat="42.53034" lon="-0.371908">
        <ele>845.0</ele>
        <time>2019-03-26T08:54:15.000Z</time>
      </trkpt>
      <trkpt lat="42.530369" lon="-0.371936">
        <ele>845.0</ele>
        <time>2019-03-26T08:54:16.000Z</time>
      </trkpt>
      <trkpt lat="42.530399" lon="-0.371961">
        <ele>845.0</ele>
        <time>2019-03-26T08:54:17.000Z</time>
      </trkpt>
      <trkpt lat="42.530428" lon="-0.371985">
        <ele>845.0</ele>
        <time>2019-03-26T08:54:18.000Z</time>
      </trkpt>
      <trkpt lat="42.530458" lon="-0.372009">
        <ele>845.0</ele>
        <time>2019-03-26T08:54:19.000Z</time>
      </trkpt>
      <trkpt lat="42.530488" lon="-0.372035">
        <ele>845.0</ele>
        <time>2019-03-26T08:54:20.000Z</time>
      </trkpt>
      <trkpt lat="42.530518" lon="-0.372062">
        <ele>845.0</ele>
        <time>2019-03-26T08:54:21.000Z</time>
      </trkpt>
      <trkpt lat="42.530548" lon="-0.37209">
        <ele>845.0</ele>
        <time>2019-03-26T08:54:22.000Z</time>
      </trkpt>
      <trkpt lat="42.530579" lon="-0.372119">
        <ele>845.0</ele>
        <time>2019-03-26T08:54:23.000Z</time>
      </trkpt>
      <trkpt lat="42.530609" lon="-0.372149">
        <ele>845.0</ele>
        <time>2019-03-26T08:54:24.000Z</time>
      </trkpt>
      <trkpt lat="42.530638" lon="-0.372178">
        <ele>845.0</ele>
        <time>2019-03-26T08:54:25.000Z</time>
      </trkpt>
      <trkpt lat="42.530668" lon="-0.372207">
        <ele>845.0</ele>
        <time>2019-03-26T08:54:26.000Z</time>
      </trkpt>
      <trkpt lat="42.530697" lon="-0.372235">
        <ele>845.0</ele>
        <time>2019-03-26T08:54:27.000Z</time>
      </trkpt>
      <trkpt lat="42.530725" lon="-0.372262">
        <ele>845.0</ele>
        <time>2019-03-26T08:54:28.000Z</time>
      </trkpt>
      <trkpt lat="42.530753" lon="-0.372288">
        <ele>846.0</ele>
        <time>2019-03-26T08:54:29.000Z</time>
      </trkpt>
      <trkpt lat="42.530782" lon="-0.372313">
        <ele>846.0</ele>
        <time>2019-03-26T08:54:30.000Z</time>
      </trkpt>
      <trkpt lat="42.53081" lon="-0.372336">
        <ele>846.0</ele>
        <time>2019-03-26T08:54:31.000Z</time>
      </trkpt>
      <trkpt lat="42.530839" lon="-0.372359">
        <ele>846.0</ele>
        <time>2019-03-26T08:54:32.000Z</time>
      </trkpt>
      <trkpt lat="42.530868" lon="-0.37238">
        <ele>846.0</ele>
        <time>2019-03-26T08:54:33.000Z</time>
      </trkpt>
      <trkpt lat="42.530898" lon="-0.372399">
        <ele>846.0</ele>
        <time>2019-03-26T08:54:34.000Z</time>
      </trkpt>
      <trkpt lat="42.530928" lon="-0.372418">
        <ele>846.0</ele>
        <time>2019-03-26T08:54:35.000Z</time>
      </trkpt>
      <trkpt lat="42.530959" lon="-0.372434">
        <ele>846.0</ele>
        <time>2019-03-26T08:54:36.000Z</time>
      </trkpt>
      <trkpt lat="42.530991" lon="-0.372449">
        <ele>847.0</ele>
        <time>2019-03-26T08:54:37.000Z</time>
      </trkpt>
      <trkpt lat="42.531023" lon="-0.372462">
        <ele>847.0</ele>
        <time>2019-03-26T08:54:38.000Z</time>
      </trkpt>
      <trkpt lat="42.531055" lon="-0.372474">
        <ele>847.0</ele>
        <time>2019-03-26T08:54:39.000Z</time>
      </trkpt>
      <trkpt lat="42.531087" lon="-0.372483">
        <ele>847.0</ele>
        <time>2019-03-26T08:54:40.000Z</time>
      </trkpt>
      <trkpt lat="42.53112" lon="-0.37249">
        <ele>847.0</ele>
        <time>2019-03-26T08:54:41.000Z</time>
      </trkpt>
      <trkpt lat="42.531153" lon="-0.372496">
        <ele>847.0</ele>
        <time>2019-03-26T08:54:42.000Z</time>
      </trkpt>
      <trkpt lat="42.531186" lon="-0.3725">
        <ele>847.0</ele>
        <time>2019-03-26T08:54:43.000Z</time>
      </trkpt>
      <trkpt lat="42.531219" lon="-0.372502">
        <ele>847.0</ele>
        <time>2019-03-26T08:54:44.000Z</time>
      </trkpt>
      <trkpt lat="42.531252" lon="-0.372503">
        <ele>847.0</ele>
        <time>2019-03-26T08:54:45.000Z</time>
      </trkpt>
      <trkpt lat="42.531286" lon="-0.372502">
        <ele>847.0</ele>
        <time>2019-03-26T08:54:46.000Z</time>
      </trkpt>
      <trkpt lat="42.53132" lon="-0.3725">
        <ele>847.0</ele>
        <time>2019-03-26T08:54:47.000Z</time>
      </trkpt>
      <trkpt lat="42.531354" lon="-0.372496">
        <ele>847.0</ele>
        <time>2019-03-26T08:54:48.000Z</time>
      </trkpt>
      <trkpt lat="42.531388" lon="-0.372492">
        <ele>847.0</ele>
        <time>2019-03-26T08:54:49.000Z</time>
      </trkpt>
      <trkpt lat="42.531422" lon="-0.372486">
        <ele>848.0</ele>
        <time>2019-03-26T08:54:50.000Z</time>
      </trkpt>
      <trkpt lat="42.531457" lon="-0.37248">
        <ele>848.0</ele>
        <time>2019-03-26T08:54:51.000Z</time>
      </trkpt>
      <trkpt lat="42.531492" lon="-0.372472">
        <ele>848.0</ele>
        <time>2019-03-26T08:54:52.000Z</time>
      </trkpt>
      <trkpt lat="42.531527" lon="-0.372464">
        <ele>848.0</ele>
        <time>2019-03-26T08:54:53.000Z</time>
      </trkpt>
      <trkpt lat="42.531562" lon="-0.372456">
        <ele>848.0</ele>
        <time>2019-03-26T08:54:54.000Z</time>
      </trkpt>
      <trkpt lat="42.531597" lon="-0.372447">
        <ele>848.0</ele>
        <time>2019-03-26T08:54:55.000Z</time>
      </trkpt>
      <trkpt lat="42.531632" lon="-0.372438">
        <ele>848.0</ele>
        <time>2019-03-26T08:54:56.000Z</time>
      </trkpt>
      <trkpt lat="42.531668" lon="-0.372428">
        <ele>848.0</ele>
        <time>2019-03-26T08:54:57.000Z</time>
      </trkpt>
      <trkpt lat="42.531704" lon="-0.372418">
        <ele>848.0</ele>
        <time>2019-03-26T08:54:58.000Z</time>
      </trkpt>
      <trkpt lat="42.53174" lon="-0.372408">
        <ele>848.0</ele>
        <time>2019-03-26T08:54:59.000Z</time>
      </trkpt>
      <trkpt lat="42.531776" lon="-0.372398">
        <ele>848.0</ele>
        <time>2019-03-26T08:55:00.000Z</time>
      </trkpt>
      <trkpt lat="42.531812" lon="-0.372389">
        <ele>849.0</ele>
        <time>2019-03-26T08:55:01.000Z</time>
      </trkpt>
      <trkpt lat="42.531848" lon="-0.37238">
        <ele>849.0</ele>
        <time>2019-03-26T08:55:02.000Z</time>
      </trkpt>
      <trkpt lat="42.531885" lon="-0.372371">
        <ele>849.0</ele>
        <time>2019-03-26T08:55:03.000Z</time>
      </trkpt>
      <trkpt lat="42.531921" lon="-0.372362">
        <ele>849.0</ele>
        <time>2019-03-26T08:55:04.000Z</time>
      </trkpt>
      <trkpt lat="42.531958" lon="-0.372354">
        <ele>849.0</ele>
        <time>2019-03-26T08:55:05.000Z</time>
      </trkpt>
      <trkpt lat="42.531995" lon="-0.372347">
        <ele>849.0</ele>
        <time>2019-03-26T08:55:06.000Z</time>
      </trkpt>
      <trkpt lat="42.532032" lon="-0.372341">
        <ele>849.0</ele>
        <time>2019-03-26T08:55:07.000Z</time>
      </trkpt>
      <trkpt lat="42.532069" lon="-0.372336">
        <ele>849.0</ele>
        <time>2019-03-26T08:55:08.000Z</time>
      </trkpt>
      <trkpt lat="42.532106" lon="-0.372331">
        <ele>849.0</ele>
        <time>2019-03-26T08:55:09.000Z</time>
      </trkpt>
      <trkpt lat="42.532144" lon="-0.372328">
        <ele>849.0</ele>
        <time>2019-03-26T08:55:10.000Z</time>
      </trkpt>
      <trkpt lat="42.532182" lon="-0.372325">
        <ele>850.0</ele>
        <time>2019-03-26T08:55:11.000Z</time>
      </trkpt>
      <trkpt lat="42.53222" lon="-0.372323">
        <ele>850.0</ele>
        <time>2019-03-26T08:55:12.000Z</time>
      </trkpt>
      <trkpt lat="42.532258" lon="-0.372322">
        <ele>849.0</ele>
        <time>2019-03-26T08:55:13.000Z</time>
      </trkpt>
      <trkpt lat="42.532297" lon="-0.372323">
        <ele>849.0</ele>
        <time>2019-03-26T08:55:14.000Z</time>
      </trkpt>
      <trkpt lat="42.532336" lon="-0.372324">
        <ele>850.0</ele>
        <time>2019-03-26T08:55:15.000Z</time>
      </trkpt>
      <trkpt lat="42.532376" lon="-0.372325">
        <ele>850.0</ele>
        <time>2019-03-26T08:55:16.000Z</time>
      </trkpt>
      <trkpt lat="42.532416" lon="-0.372327">
        <ele>850.0</ele>
        <time>2019-03-26T08:55:17.000Z</time>
      </trkpt>
      <trkpt lat="42.532455" lon="-0.372327">
        <ele>850.0</ele>
        <time>2019-03-26T08:55:18.000Z</time>
      </trkpt>
      <trkpt lat="42.532494" lon="-0.372327">
        <ele>850.0</ele>
        <time>2019-03-26T08:55:19.000Z</time>
      </trkpt>
      <trkpt lat="42.532533" lon="-0.372325">
        <ele>850.0</ele>
        <time>2019-03-26T08:55:20.000Z</time>
      </trkpt>
      <trkpt lat="42.532571" lon="-0.37232">
        <ele>850.0</ele>
        <time>2019-03-26T08:55:21.000Z</time>
      </trkpt>
      <trkpt lat="42.532608" lon="-0.372314">
        <ele>851.0</ele>
        <time>2019-03-26T08:55:22.000Z</time>
      </trkpt>
      <trkpt lat="42.532644" lon="-0.372306">
        <ele>851.0</ele>
        <time>2019-03-26T08:55:23.000Z</time>
      </trkpt>
      <trkpt lat="42.532679" lon="-0.3723">
        <ele>851.0</ele>
        <time>2019-03-26T08:55:24.000Z</time>
      </trkpt>
      <trkpt lat="42.532713" lon="-0.372296">
        <ele>851.0</ele>
        <time>2019-03-26T08:55:25.000Z</time>
      </trkpt>
      <trkpt lat="42.532746" lon="-0.372298">
        <ele>851.0</ele>
        <time>2019-03-26T08:55:26.000Z</time>
      </trkpt>
      <trkpt lat="42.532778" lon="-0.372306">
        <ele>851.0</ele>
        <time>2019-03-26T08:55:27.000Z</time>
      </trkpt>
      <trkpt lat="42.532809" lon="-0.372324">
        <ele>851.0</ele>
        <time>2019-03-26T08:55:28.000Z</time>
      </trkpt>
      <trkpt lat="42.532838" lon="-0.372351">
        <ele>851.0</ele>
        <time>2019-03-26T08:55:29.000Z</time>
      </trkpt>
      <trkpt lat="42.532867" lon="-0.372385">
        <ele>851.0</ele>
        <time>2019-03-26T08:55:30.000Z</time>
      </trkpt>
      <trkpt lat="42.532898" lon="-0.372421">
        <ele>851.0</ele>
        <time>2019-03-26T08:55:31.000Z</time>
      </trkpt>
      <trkpt lat="42.53293" lon="-0.372453">
        <ele>851.0</ele>
        <time>2019-03-26T08:55:32.000Z</time>
      </trkpt>
      <trkpt lat="42.532967" lon="-0.372477">
        <ele>851.0</ele>
        <time>2019-03-26T08:55:33.000Z</time>
      </trkpt>
      <trkpt lat="42.533005" lon="-0.372494">
        <ele>851.0</ele>
        <time>2019-03-26T08:55:34.000Z</time>
      </trkpt>
      <trkpt lat="42.533044" lon="-0.372507">
        <ele>851.0</ele>
        <time>2019-03-26T08:55:35.000Z</time>
      </trkpt>
      <trkpt lat="42.533081" lon="-0.372517">
        <ele>851.0</ele>
        <time>2019-03-26T08:55:36.000Z</time>
      </trkpt>
      <trkpt lat="42.533116" lon="-0.372525">
        <ele>851.0</ele>
        <time>2019-03-26T08:55:37.000Z</time>
      </trkpt>
      <trkpt lat="42.533151" lon="-0.37253">
        <ele>851.0</ele>
        <time>2019-03-26T08:55:38.000Z</time>
      </trkpt>
      <trkpt lat="42.533186" lon="-0.372533">
        <ele>851.0</ele>
        <time>2019-03-26T08:55:39.000Z</time>
      </trkpt>
      <trkpt lat="42.533221" lon="-0.372533">
        <ele>852.0</ele>
        <time>2019-03-26T08:55:40.000Z</time>
      </trkpt>
      <trkpt lat="42.533257" lon="-0.372532">
        <ele>852.0</ele>
        <time>2019-03-26T08:55:41.000Z</time>
      </trkpt>
      <trkpt lat="42.533294" lon="-0.372531">
        <ele>852.0</ele>
        <time>2019-03-26T08:55:42.000Z</time>
      </trkpt>
      <trkpt lat="42.533332" lon="-0.372532">
        <ele>852.0</ele>
        <time>2019-03-26T08:55:43.000Z</time>
      </trkpt>
      <trkpt lat="42.533371" lon="-0.372534">
        <ele>852.0</ele>
        <time>2019-03-26T08:55:44.000Z</time>
      </trkpt>
      <trkpt lat="42.533412" lon="-0.372539">
        <ele>852.0</ele>
        <time>2019-03-26T08:55:45.000Z</time>
      </trkpt>
      <trkpt lat="42.533454" lon="-0.372546">
        <ele>852.0</ele>
        <time>2019-03-26T08:55:46.000Z</time>
      </trkpt>
      <trkpt lat="42.533498" lon="-0.372553">
        <ele>852.0</ele>
        <time>2019-03-26T08:55:47.000Z</time>
      </trkpt>
      <trkpt lat="42.533541" lon="-0.372557">
        <ele>852.0</ele>
        <time>2019-03-26T08:55:48.000Z</time>
      </trkpt>
      <trkpt lat="42.533581" lon="-0.372552">
        <ele>852.0</ele>
        <time>2019-03-26T08:55:49.000Z</time>
      </trkpt>
      <trkpt lat="42.533616" lon="-0.372534">
        <ele>852.0</ele>
        <time>2019-03-26T08:55:50.000Z</time>
      </trkpt>
      <trkpt lat="42.533642" lon="-0.372499">
        <ele>852.0</ele>
        <time>2019-03-26T08:55:51.000Z</time>
      </trkpt>
      <trkpt lat="42.533656" lon="-0.372448">
        <ele>851.0</ele>
        <time>2019-03-26T08:55:52.000Z</time>
      </trkpt>
      <trkpt lat="42.533661" lon="-0.372387">
        <ele>851.0</ele>
        <time>2019-03-26T08:55:53.000Z</time>
      </trkpt>
      <trkpt lat="42.53366" lon="-0.37232">
        <ele>851.0</ele>
        <time>2019-03-26T08:55:54.000Z</time>
      </trkpt>
      <trkpt lat="42.533655" lon="-0.37225">
        <ele>850.0</ele>
        <time>2019-03-26T08:55:55.000Z</time>
      </trkpt>
      <trkpt lat="42.533649" lon="-0.372177">
        <ele>850.0</ele>
        <time>2019-03-26T08:55:56.000Z</time>
      </trkpt>
      <trkpt lat="42.533647" lon="-0.372104">
        <ele>850.0</ele>
        <time>2019-03-26T08:55:57.000Z</time>
      </trkpt>
      <trkpt lat="42.533651" lon="-0.372034">
        <ele>850.0</ele>
        <time>2019-03-26T08:55:58.000Z</time>
      </trkpt>
      <trkpt lat="42.533663" lon="-0.371971">
        <ele>849.0</ele>
        <time>2019-03-26T08:55:59.000Z</time>
      </trkpt>
      <trkpt lat="42.533684" lon="-0.371917">
        <ele>849.0</ele>
        <time>2019-03-26T08:56:00.000Z</time>
      </trkpt>
      <trkpt lat="42.53371" lon="-0.371871">
        <ele>849.0</ele>
        <time>2019-03-26T08:56:01.000Z</time>
      </trkpt>
      <trkpt lat="42.533734" lon="-0.371828">
        <ele>849.0</ele>
        <time>2019-03-26T08:56:02.000Z</time>
      </trkpt>
      <trkpt lat="42.533751" lon="-0.371787">
        <ele>849.0</ele>
        <time>2019-03-26T08:56:03.000Z</time>
      </trkpt>
      <trkpt lat="42.533762" lon="-0.371745">
        <ele>850.0</ele>
        <time>2019-03-26T08:56:04.000Z</time>
      </trkpt>
      <trkpt lat="42.533767" lon="-0.371704">
        <ele>849.0</ele>
        <time>2019-03-26T08:56:05.000Z</time>
      </trkpt>
      <trkpt lat="42.533767" lon="-0.371664">
        <ele>849.0</ele>
        <time>2019-03-26T08:56:06.000Z</time>
      </trkpt>
      <trkpt lat="42.533764" lon="-0.371623">
        <ele>850.0</ele>
        <time>2019-03-26T08:56:07.000Z</time>
      </trkpt>
      <trkpt lat="42.533759" lon="-0.371582">
        <ele>850.0</ele>
        <time>2019-03-26T08:56:08.000Z</time>
      </trkpt>
      <trkpt lat="42.533752" lon="-0.371541">
        <ele>850.0</ele>
        <time>2019-03-26T08:56:09.000Z</time>
      </trkpt>
      <trkpt lat="42.533745" lon="-0.3715">
        <ele>850.0</ele>
        <time>2019-03-26T08:56:10.000Z</time>
      </trkpt>
      <trkpt lat="42.533737" lon="-0.371459">
        <ele>850.0</ele>
        <time>2019-03-26T08:56:11.000Z</time>
      </trkpt>
      <trkpt lat="42.533729" lon="-0.371418">
        <ele>850.0</ele>
        <time>2019-03-26T08:56:12.000Z</time>
      </trkpt>
      <trkpt lat="42.533719" lon="-0.371376">
        <ele>850.0</ele>
        <time>2019-03-26T08:56:13.000Z</time>
      </trkpt>
      <trkpt lat="42.533708" lon="-0.371334">
        <ele>851.0</ele>
        <time>2019-03-26T08:56:14.000Z</time>
      </trkpt>
      <trkpt lat="42.533698" lon="-0.371293">
        <ele>851.0</ele>
        <time>2019-03-26T08:56:15.000Z</time>
      </trkpt>
      <trkpt lat="42.53369" lon="-0.371253">
        <ele>851.0</ele>
        <time>2019-03-26T08:56:16.000Z</time>
      </trkpt>
      <trkpt lat="42.533687" lon="-0.371214">
        <ele>851.0</ele>
        <time>2019-03-26T08:56:17.000Z</time>
      </trkpt>
      <trkpt lat="42.53369" lon="-0.371181">
        <ele>851.0</ele>
        <time>2019-03-26T08:56:18.000Z</time>
      </trkpt>
      <trkpt lat="42.533699" lon="-0.371154">
        <ele>851.0</ele>
        <time>2019-03-26T08:56:19.000Z</time>
      </trkpt>
      <trkpt lat="42.533715" lon="-0.371138">
        <ele>851.0</ele>
        <time>2019-03-26T08:56:20.000Z</time>
      </trkpt>
      <trkpt lat="42.533738" lon="-0.371133">
        <ele>851.0</ele>
        <time>2019-03-26T08:56:21.000Z</time>
      </trkpt>
      <trkpt lat="42.533763" lon="-0.37114">
        <ele>851.0</ele>
        <time>2019-03-26T08:56:22.000Z</time>
      </trkpt>
      <trkpt lat="42.533787" lon="-0.371158">
        <ele>851.0</ele>
        <time>2019-03-26T08:56:23.000Z</time>
      </trkpt>
      <trkpt lat="42.533804" lon="-0.371185">
        <ele>851.0</ele>
        <time>2019-03-26T08:56:24.000Z</time>
      </trkpt>
      <trkpt lat="42.533817" lon="-0.37122">
        <ele>851.0</ele>
        <time>2019-03-26T08:56:25.000Z</time>
      </trkpt>
      <trkpt lat="42.533828" lon="-0.371258">
        <ele>850.0</ele>
        <time>2019-03-26T08:56:26.000Z</time>
      </trkpt>
      <trkpt lat="42.533839" lon="-0.371297">
        <ele>850.0</ele>
        <time>2019-03-26T08:56:27.000Z</time>
      </trkpt>
      <trkpt lat="42.533851" lon="-0.371334">
        <ele>850.0</ele>
        <time>2019-03-26T08:56:28.000Z</time>
      </trkpt>
      <trkpt lat="42.533865" lon="-0.371371">
        <ele>849.0</ele>
        <time>2019-03-26T08:56:29.000Z</time>
      </trkpt>
      <trkpt lat="42.533879" lon="-0.371406">
        <ele>849.0</ele>
        <time>2019-03-26T08:56:30.000Z</time>
      </trkpt>
      <trkpt lat="42.533893" lon="-0.37144">
        <ele>848.0</ele>
        <time>2019-03-26T08:56:31.000Z</time>
      </trkpt>
      <trkpt lat="42.533907" lon="-0.371475">
        <ele>848.0</ele>
        <time>2019-03-26T08:56:32.000Z</time>
      </trkpt>
      <trkpt lat="42.533921" lon="-0.371509">
        <ele>847.0</ele>
        <time>2019-03-26T08:56:33.000Z</time>
      </trkpt>
      <trkpt lat="42.533936" lon="-0.371543">
        <ele>847.0</ele>
        <time>2019-03-26T08:56:34.000Z</time>
      </trkpt>
      <trkpt lat="42.533951" lon="-0.371576">
        <ele>847.0</ele>
        <time>2019-03-26T08:56:35.000Z</time>
      </trkpt>
      <trkpt lat="42.533968" lon="-0.371609">
        <ele>846.0</ele>
        <time>2019-03-26T08:56:36.000Z</time>
      </trkpt>
      <trkpt lat="42.533987" lon="-0.371642">
        <ele>845.0</ele>
        <time>2019-03-26T08:56:37.000Z</time>
      </trkpt>
      <trkpt lat="42.534007" lon="-0.371674">
        <ele>845.0</ele>
        <time>2019-03-26T08:56:38.000Z</time>
      </trkpt>
      <trkpt lat="42.534028" lon="-0.371705">
        <ele>844.0</ele>
        <time>2019-03-26T08:56:39.000Z</time>
      </trkpt>
      <trkpt lat="42.534049" lon="-0.371734">
        <ele>843.0</ele>
        <time>2019-03-26T08:56:40.000Z</time>
      </trkpt>
      <trkpt lat="42.534068" lon="-0.371761">
        <ele>843.0</ele>
        <time>2019-03-26T08:56:41.000Z</time>
      </trkpt>
      <trkpt lat="42.534086" lon="-0.371785">
        <ele>843.0</ele>
        <time>2019-03-26T08:56:42.000Z</time>
      </trkpt>
      <trkpt lat="42.534102" lon="-0.371807">
        <ele>842.0</ele>
        <time>2019-03-26T08:56:43.000Z</time>
      </trkpt>
      <trkpt lat="42.534118" lon="-0.371828">
        <ele>842.0</ele>
        <time>2019-03-26T08:56:44.000Z</time>
      </trkpt>
      <trkpt lat="42.534134" lon="-0.371848">
        <ele>841.0</ele>
        <time>2019-03-26T08:56:45.000Z</time>
      </trkpt>
      <trkpt lat="42.53415" lon="-0.371869">
        <ele>841.0</ele>
        <time>2019-03-26T08:56:46.000Z</time>
      </trkpt>
      <trkpt lat="42.534165" lon="-0.371894">
        <ele>840.0</ele>
        <time>2019-03-26T08:56:47.000Z</time>
      </trkpt>
      <trkpt lat="42.534178" lon="-0.371924">
        <ele>839.0</ele>
        <time>2019-03-26T08:56:48.000Z</time>
      </trkpt>
      <trkpt lat="42.534189" lon="-0.371961">
        <ele>839.0</ele>
        <time>2019-03-26T08:56:49.000Z</time>
      </trkpt>
      <trkpt lat="42.5342" lon="-0.372001">
        <ele>838.0</ele>
        <time>2019-03-26T08:56:50.000Z</time>
      </trkpt>
      <trkpt lat="42.534213" lon="-0.37204">
        <ele>837.0</ele>
        <time>2019-03-26T08:56:51.000Z</time>
      </trkpt>
      <trkpt lat="42.534231" lon="-0.372074">
        <ele>837.0</ele>
        <time>2019-03-26T08:56:52.000Z</time>
      </trkpt>
      <trkpt lat="42.534253" lon="-0.372105">
        <ele>836.0</ele>
        <time>2019-03-26T08:56:53.000Z</time>
      </trkpt>
      <trkpt lat="42.534277" lon="-0.372134">
        <ele>835.0</ele>
        <time>2019-03-26T08:56:54.000Z</time>
      </trkpt>
      <trkpt lat="42.534303" lon="-0.372161">
        <ele>835.0</ele>
        <time>2019-03-26T08:56:55.000Z</time>
      </trkpt>
      <trkpt lat="42.534329" lon="-0.372188">
        <ele>835.0</ele>
        <time>2019-03-26T08:56:56.000Z</time>
      </trkpt>
      <trkpt lat="42.534353" lon="-0.372217">
        <ele>834.0</ele>
        <time>2019-03-26T08:56:57.000Z</time>
      </trkpt>
      <trkpt lat="42.534375" lon="-0.372247">
        <ele>834.0</ele>
        <time>2019-03-26T08:56:58.000Z</time>
      </trkpt>
      <trkpt lat="42.534396" lon="-0.372274">
        <ele>834.0</ele>
        <time>2019-03-26T08:56:59.000Z</time>
      </trkpt>
      <trkpt lat="42.534418" lon="-0.372295">
        <ele>834.0</ele>
        <time>2019-03-26T08:57:00.000Z</time>
      </trkpt>
      <trkpt lat="42.534442" lon="-0.372303">
        <ele>834.0</ele>
        <time>2019-03-26T08:57:01.000Z</time>
      </trkpt>
      <trkpt lat="42.53447" lon="-0.372297">
        <ele>834.0</ele>
        <time>2019-03-26T08:57:02.000Z</time>
      </trkpt>
      <trkpt lat="42.534502" lon="-0.372283">
        <ele>834.0</ele>
        <time>2019-03-26T08:57:03.000Z</time>
      </trkpt>
      <trkpt lat="42.534535" lon="-0.372271">
        <ele>834.0</ele>
        <time>2019-03-26T08:57:04.000Z</time>
      </trkpt>
      <trkpt lat="42.53457" lon="-0.372267">
        <ele>833.0</ele>
        <time>2019-03-26T08:57:05.000Z</time>
      </trkpt>
      <trkpt lat="42.534608" lon="-0.372272">
        <ele>833.0</ele>
        <time>2019-03-26T08:57:06.000Z</time>
      </trkpt>
      <trkpt lat="42.534649" lon="-0.372287">
        <ele>833.0</ele>
        <time>2019-03-26T08:57:07.000Z</time>
      </trkpt>
      <trkpt lat="42.534692" lon="-0.372311">
        <ele>832.0</ele>
        <time>2019-03-26T08:57:08.000Z</time>
      </trkpt>
      <trkpt lat="42.534735" lon="-0.372345">
        <ele>832.0</ele>
        <time>2019-03-26T08:57:09.000Z</time>
      </trkpt>
      <trkpt lat="42.534775" lon="-0.372383">
        <ele>832.0</ele>
        <time>2019-03-26T08:57:10.000Z</time>
      </trkpt>
      <trkpt lat="42.53481" lon="-0.372416">
        <ele>833.0</ele>
        <time>2019-03-26T08:57:11.000Z</time>
      </trkpt>
      <trkpt lat="42.534837" lon="-0.372441">
        <ele>833.0</ele>
        <time>2019-03-26T08:57:12.000Z</time>
      </trkpt>
      <trkpt lat="42.53486" lon="-0.372452">
        <ele>833.0</ele>
        <time>2019-03-26T08:57:13.000Z</time>
      </trkpt>
      <trkpt lat="42.53488" lon="-0.37245">
        <ele>833.0</ele>
        <time>2019-03-26T08:57:14.000Z</time>
      </trkpt>
      <trkpt lat="42.534901" lon="-0.372431">
        <ele>833.0</ele>
        <time>2019-03-26T08:57:15.000Z</time>
      </trkpt>
      <trkpt lat="42.534925" lon="-0.3724">
        <ele>833.0</ele>
        <time>2019-03-26T08:57:16.000Z</time>
      </trkpt>
      <trkpt lat="42.534953" lon="-0.372378">
        <ele>832.0</ele>
        <time>2019-03-26T08:57:17.000Z</time>
      </trkpt>
      <trkpt lat="42.534986" lon="-0.372382">
        <ele>832.0</ele>
        <time>2019-03-26T08:57:18.000Z</time>
      </trkpt>
      <trkpt lat="42.535025" lon="-0.372396">
        <ele>832.0</ele>
        <time>2019-03-26T08:57:19.000Z</time>
      </trkpt>
      <trkpt lat="42.535067" lon="-0.372414">
        <ele>831.0</ele>
        <time>2019-03-26T08:57:20.000Z</time>
      </trkpt>
      <trkpt lat="42.535113" lon="-0.372435">
        <ele>831.0</ele>
        <time>2019-03-26T08:57:21.000Z</time>
      </trkpt>
      <trkpt lat="42.535161" lon="-0.372457">
        <ele>830.0</ele>
        <time>2019-03-26T08:57:22.000Z</time>
      </trkpt>
      <trkpt lat="42.53521" lon="-0.372479">
        <ele>830.0</ele>
        <time>2019-03-26T08:57:23.000Z</time>
      </trkpt>
      <trkpt lat="42.535259" lon="-0.372501">
        <ele>829.0</ele>
        <time>2019-03-26T08:57:24.000Z</time>
      </trkpt>
      <trkpt lat="42.535305" lon="-0.372524">
        <ele>829.0</ele>
        <time>2019-03-26T08:57:25.000Z</time>
      </trkpt>
      <trkpt lat="42.535348" lon="-0.372547">
        <ele>829.0</ele>
        <time>2019-03-26T08:57:26.000Z</time>
      </trkpt>
      <trkpt lat="42.535388" lon="-0.372569">
        <ele>828.0</ele>
        <time>2019-03-26T08:57:27.000Z</time>
      </trkpt>
      <trkpt lat="42.535426" lon="-0.372592">
        <ele>829.0</ele>
        <time>2019-03-26T08:57:28.000Z</time>
      </trkpt>
      <trkpt lat="42.535462" lon="-0.372613">
        <ele>828.0</ele>
        <time>2019-03-26T08:57:29.000Z</time>
      </trkpt>
      <trkpt lat="42.535499" lon="-0.372632">
        <ele>828.0</ele>
        <time>2019-03-26T08:57:30.000Z</time>
      </trkpt>
      <trkpt lat="42.535535" lon="-0.37265">
        <ele>827.0</ele>
        <time>2019-03-26T08:57:31.000Z</time>
      </trkpt>
      <trkpt lat="42.535574" lon="-0.372665">
        <ele>827.0</ele>
        <time>2019-03-26T08:57:32.000Z</time>
      </trkpt>
      <trkpt lat="42.535614" lon="-0.372677">
        <ele>827.0</ele>
        <time>2019-03-26T08:57:33.000Z</time>
      </trkpt>
      <trkpt lat="42.535657" lon="-0.372687">
        <ele>826.0</ele>
        <time>2019-03-26T08:57:34.000Z</time>
      </trkpt>
      <trkpt lat="42.5357" lon="-0.372697">
        <ele>826.0</ele>
        <time>2019-03-26T08:57:35.000Z</time>
      </trkpt>
      <trkpt lat="42.535744" lon="-0.372708">
        <ele>825.0</ele>
        <time>2019-03-26T08:57:36.000Z</time>
      </trkpt>
      <trkpt lat="42.535787" lon="-0.37272">
        <ele>825.0</ele>
        <time>2019-03-26T08:57:37.000Z</time>
      </trkpt>
      <trkpt lat="42.53583" lon="-0.372734">
        <ele>824.0</ele>
        <time>2019-03-26T08:57:38.000Z</time>
      </trkpt>
      <trkpt lat="42.535871" lon="-0.372753">
        <ele>824.0</ele>
        <time>2019-03-26T08:57:39.000Z</time>
      </trkpt>
      <trkpt lat="42.535909" lon="-0.372776">
        <ele>824.0</ele>
        <time>2019-03-26T08:57:40.000Z</time>
      </trkpt>
      <trkpt lat="42.535945" lon="-0.3728">
        <ele>824.0</ele>
        <time>2019-03-26T08:57:41.000Z</time>
      </trkpt>
      <trkpt lat="42.535976" lon="-0.372821">
        <ele>824.0</ele>
        <time>2019-03-26T08:57:42.000Z</time>
      </trkpt>
      <trkpt lat="42.536002" lon="-0.372835">
        <ele>824.0</ele>
        <time>2019-03-26T08:57:43.000Z</time>
      </trkpt>
      <trkpt lat="42.536023" lon="-0.372838">
        <ele>824.0</ele>
        <time>2019-03-26T08:57:44.000Z</time>
      </trkpt>
      <trkpt lat="42.536039" lon="-0.372833">
        <ele>824.0</ele>
        <time>2019-03-26T08:57:45.000Z</time>
      </trkpt>
      <trkpt lat="42.536053" lon="-0.372823">
        <ele>824.0</ele>
        <time>2019-03-26T08:57:46.000Z</time>
      </trkpt>
      <trkpt lat="42.536064" lon="-0.372811">
        <ele>823.0</ele>
        <time>2019-03-26T08:57:47.000Z</time>
      </trkpt>
      <trkpt lat="42.536075" lon="-0.372797">
        <ele>823.0</ele>
        <time>2019-03-26T08:57:48.000Z</time>
      </trkpt>
      <trkpt lat="42.536085" lon="-0.372783">
        <ele>823.0</ele>
        <time>2019-03-26T08:57:49.000Z</time>
      </trkpt>
      <trkpt lat="42.536094" lon="-0.372769">
        <ele>823.0</ele>
        <time>2019-03-26T08:57:50.000Z</time>
      </trkpt>
      <trkpt lat="42.536103" lon="-0.372756">
        <ele>823.0</ele>
        <time>2019-03-26T08:57:51.000Z</time>
      </trkpt>
      <trkpt lat="42.536111" lon="-0.372745">
        <ele>823.0</ele>
        <time>2019-03-26T08:57:52.000Z</time>
      </trkpt>
      <trkpt lat="42.536121" lon="-0.372736">
        <ele>823.0</ele>
        <time>2019-03-26T08:57:53.000Z</time>
      </trkpt>
      <trkpt lat="42.53613" lon="-0.372727">
        <ele>823.0</ele>
        <time>2019-03-26T08:57:54.000Z</time>
      </trkpt>
      <trkpt lat="42.53614" lon="-0.372718">
        <ele>823.0</ele>
        <time>2019-03-26T08:57:55.000Z</time>
      </trkpt>
      <trkpt lat="42.53615" lon="-0.372707">
        <ele>823.0</ele>
        <time>2019-03-26T08:57:56.000Z</time>
      </trkpt>
      <trkpt lat="42.536161" lon="-0.372692">
        <ele>823.0</ele>
        <time>2019-03-26T08:57:57.000Z</time>
      </trkpt>
      <trkpt lat="42.536171" lon="-0.372673">
        <ele>823.0</ele>
        <time>2019-03-26T08:57:58.000Z</time>
      </trkpt>
      <trkpt lat="42.536182" lon="-0.372647">
        <ele>823.0</ele>
        <time>2019-03-26T08:57:59.000Z</time>
      </trkpt>
      <trkpt lat="42.536192" lon="-0.372614">
        <ele>822.0</ele>
        <time>2019-03-26T08:58:00.000Z</time>
      </trkpt>
      <trkpt lat="42.536204" lon="-0.372579">
        <ele>822.0</ele>
        <time>2019-03-26T08:58:01.000Z</time>
      </trkpt>
      <trkpt lat="42.536219" lon="-0.372548">
        <ele>822.0</ele>
        <time>2019-03-26T08:58:02.000Z</time>
      </trkpt>
      <trkpt lat="42.536237" lon="-0.372527">
        <ele>822.0</ele>
        <time>2019-03-26T08:58:03.000Z</time>
      </trkpt>
      <trkpt lat="42.53626" lon="-0.372519">
        <ele>822.0</ele>
        <time>2019-03-26T08:58:04.000Z</time>
      </trkpt>
      <trkpt lat="42.536286" lon="-0.372524">
        <ele>822.0</ele>
        <time>2019-03-26T08:58:05.000Z</time>
      </trkpt>
      <trkpt lat="42.536311" lon="-0.372536">
        <ele>823.0</ele>
        <time>2019-03-26T08:58:06.000Z</time>
      </trkpt>
      <trkpt lat="42.536334" lon="-0.372554">
        <ele>823.0</ele>
        <time>2019-03-26T08:58:07.000Z</time>
      </trkpt>
      <trkpt lat="42.536355" lon="-0.372577">
        <ele>823.0</ele>
        <time>2019-03-26T08:58:08.000Z</time>
      </trkpt>
      <trkpt lat="42.536373" lon="-0.372602">
        <ele>823.0</ele>
        <time>2019-03-26T08:58:09.000Z</time>
      </trkpt>
      <trkpt lat="42.536391" lon="-0.37263">
        <ele>823.0</ele>
        <time>2019-03-26T08:58:10.000Z</time>
      </trkpt>
      <trkpt lat="42.536409" lon="-0.372661">
        <ele>824.0</ele>
        <time>2019-03-26T08:58:11.000Z</time>
      </trkpt>
      <trkpt lat="42.536426" lon="-0.372693">
        <ele>824.0</ele>
        <time>2019-03-26T08:58:12.000Z</time>
      </trkpt>
      <trkpt lat="42.536445" lon="-0.372726">
        <ele>824.0</ele>
        <time>2019-03-26T08:58:13.000Z</time>
      </trkpt>
      <trkpt lat="42.536465" lon="-0.37276">
        <ele>824.0</ele>
        <time>2019-03-26T08:58:14.000Z</time>
      </trkpt>
      <trkpt lat="42.536486" lon="-0.372793">
        <ele>824.0</ele>
        <time>2019-03-26T08:58:15.000Z</time>
      </trkpt>
      <trkpt lat="42.536509" lon="-0.372828">
        <ele>824.0</ele>
        <time>2019-03-26T08:58:16.000Z</time>
      </trkpt>
      <trkpt lat="42.536533" lon="-0.372862">
        <ele>824.0</ele>
        <time>2019-03-26T08:58:17.000Z</time>
      </trkpt>
      <trkpt lat="42.536557" lon="-0.372897">
        <ele>824.0</ele>
        <time>2019-03-26T08:58:18.000Z</time>
      </trkpt>
      <trkpt lat="42.536583" lon="-0.372933">
        <ele>824.0</ele>
        <time>2019-03-26T08:58:19.000Z</time>
      </trkpt>
      <trkpt lat="42.536609" lon="-0.372969">
        <ele>824.0</ele>
        <time>2019-03-26T08:58:20.000Z</time>
      </trkpt>
      <trkpt lat="42.536636" lon="-0.373005">
        <ele>824.0</ele>
        <time>2019-03-26T08:58:21.000Z</time>
      </trkpt>
      <trkpt lat="42.536661" lon="-0.37304">
        <ele>824.0</ele>
        <time>2019-03-26T08:58:22.000Z</time>
      </trkpt>
      <trkpt lat="42.536683" lon="-0.373071">
        <ele>824.0</ele>
        <time>2019-03-26T08:58:23.000Z</time>
      </trkpt>
      <trkpt lat="42.5367" lon="-0.373097">
        <ele>824.0</ele>
        <time>2019-03-26T08:58:24.000Z</time>
      </trkpt>
      <trkpt lat="42.53671" lon="-0.373117">
        <ele>824.0</ele>
        <time>2019-03-26T08:58:25.000Z</time>
      </trkpt>
      <trkpt lat="42.536717" lon="-0.37313">
        <ele>824.0</ele>
        <time>2019-03-26T08:58:26.000Z</time>
      </trkpt>
      <trkpt lat="42.536722" lon="-0.373138">
        <ele>824.0</ele>
        <time>2019-03-26T08:58:27.000Z</time>
      </trkpt>
      <trkpt lat="42.536729" lon="-0.373142">
        <ele>824.0</ele>
        <time>2019-03-26T08:58:28.000Z</time>
      </trkpt>
      <trkpt lat="42.536739" lon="-0.373141">
        <ele>824.0</ele>
        <time>2019-03-26T08:58:29.000Z</time>
      </trkpt>
      <trkpt lat="42.536754" lon="-0.373139">
        <ele>824.0</ele>
        <time>2019-03-26T08:58:30.000Z</time>
      </trkpt>
      <trkpt lat="42.536767" lon="-0.373136">
        <ele>824.0</ele>
        <time>2019-03-26T08:58:31.000Z</time>
      </trkpt>
      <trkpt lat="42.536775" lon="-0.373136">
        <ele>824.0</ele>
        <time>2019-03-26T08:58:32.000Z</time>
      </trkpt>
      <trkpt lat="42.536779" lon="-0.373139">
        <ele>824.0</ele>
        <time>2019-03-26T08:58:33.000Z</time>
      </trkpt>
      <trkpt lat="42.536786" lon="-0.373144">
        <ele>824.0</ele>
        <time>2019-03-26T08:58:34.000Z</time>
      </trkpt>
      <trkpt lat="42.536801" lon="-0.373152">
        <ele>824.0</ele>
        <time>2019-03-26T08:58:35.000Z</time>
      </trkpt>
      <trkpt lat="42.536822" lon="-0.37316">
        <ele>824.0</ele>
        <time>2019-03-26T08:58:36.000Z</time>
      </trkpt>
      <trkpt lat="42.536849" lon="-0.37317">
        <ele>824.0</ele>
        <time>2019-03-26T08:58:37.000Z</time>
      </trkpt>
      <trkpt lat="42.53688" lon="-0.373181">
        <ele>824.0</ele>
        <time>2019-03-26T08:58:38.000Z</time>
      </trkpt>
      <trkpt lat="42.536914" lon="-0.373192">
        <ele>824.0</ele>
        <time>2019-03-26T08:58:39.000Z</time>
      </trkpt>
      <trkpt lat="42.53695" lon="-0.373203">
        <ele>824.0</ele>
        <time>2019-03-26T08:58:40.000Z</time>
      </trkpt>
      <trkpt lat="42.536987" lon="-0.373214">
        <ele>824.0</ele>
        <time>2019-03-26T08:58:41.000Z</time>
      </trkpt>
      <trkpt lat="42.537024" lon="-0.373225">
        <ele>824.0</ele>
        <time>2019-03-26T08:58:42.000Z</time>
      </trkpt>
      <trkpt lat="42.53706" lon="-0.373234">
        <ele>824.0</ele>
        <time>2019-03-26T08:58:43.000Z</time>
      </trkpt>
      <trkpt lat="42.537097" lon="-0.373243">
        <ele>824.0</ele>
        <time>2019-03-26T08:58:44.000Z</time>
      </trkpt>
      <trkpt lat="42.537133" lon="-0.373252">
        <ele>824.0</ele>
        <time>2019-03-26T08:58:45.000Z</time>
      </trkpt>
      <trkpt lat="42.537169" lon="-0.373259">
        <ele>824.0</ele>
        <time>2019-03-26T08:58:46.000Z</time>
      </trkpt>
      <trkpt lat="42.537205" lon="-0.373265">
        <ele>824.0</ele>
        <time>2019-03-26T08:58:47.000Z</time>
      </trkpt>
      <trkpt lat="42.537242" lon="-0.373271">
        <ele>824.0</ele>
        <time>2019-03-26T08:58:48.000Z</time>
      </trkpt>
      <trkpt lat="42.537278" lon="-0.373276">
        <ele>824.0</ele>
        <time>2019-03-26T08:58:49.000Z</time>
      </trkpt>
      <trkpt lat="42.537315" lon="-0.373281">
        <ele>824.0</ele>
        <time>2019-03-26T08:58:50.000Z</time>
      </trkpt>
      <trkpt lat="42.537352" lon="-0.373285">
        <ele>824.0</ele>
        <time>2019-03-26T08:58:51.000Z</time>
      </trkpt>
      <trkpt lat="42.53739" lon="-0.373289">
        <ele>825.0</ele>
        <time>2019-03-26T08:58:52.000Z</time>
      </trkpt>
      <trkpt lat="42.537428" lon="-0.373294">
        <ele>825.0</ele>
        <time>2019-03-26T08:58:53.000Z</time>
      </trkpt>
      <trkpt lat="42.537466" lon="-0.373298">
        <ele>825.0</ele>
        <time>2019-03-26T08:58:54.000Z</time>
      </trkpt>
      <trkpt lat="42.537504" lon="-0.373304">
        <ele>825.0</ele>
        <time>2019-03-26T08:58:55.000Z</time>
      </trkpt>
      <trkpt lat="42.537542" lon="-0.37331">
        <ele>825.0</ele>
        <time>2019-03-26T08:58:56.000Z</time>
      </trkpt>
      <trkpt lat="42.537581" lon="-0.373317">
        <ele>825.0</ele>
        <time>2019-03-26T08:58:57.000Z</time>
      </trkpt>
      <trkpt lat="42.53762" lon="-0.373325">
        <ele>825.0</ele>
        <time>2019-03-26T08:58:58.000Z</time>
      </trkpt>
      <trkpt lat="42.537659" lon="-0.373335">
        <ele>825.0</ele>
        <time>2019-03-26T08:58:59.000Z</time>
      </trkpt>
      <trkpt lat="42.537699" lon="-0.373346">
        <ele>825.0</ele>
        <time>2019-03-26T08:59:00.000Z</time>
      </trkpt>
      <trkpt lat="42.537739" lon="-0.373359">
        <ele>825.0</ele>
        <time>2019-03-26T08:59:01.000Z</time>
      </trkpt>
      <trkpt lat="42.537779" lon="-0.373374">
        <ele>825.0</ele>
        <time>2019-03-26T08:59:02.000Z</time>
      </trkpt>
      <trkpt lat="42.537819" lon="-0.373391">
        <ele>825.0</ele>
        <time>2019-03-26T08:59:03.000Z</time>
      </trkpt>
      <trkpt lat="42.537858" lon="-0.37341">
        <ele>825.0</ele>
        <time>2019-03-26T08:59:04.000Z</time>
      </trkpt>
      <trkpt lat="42.537898" lon="-0.37343">
        <ele>824.0</ele>
        <time>2019-03-26T08:59:05.000Z</time>
      </trkpt>
      <trkpt lat="42.537936" lon="-0.373451">
        <ele>824.0</ele>
        <time>2019-03-26T08:59:06.000Z</time>
      </trkpt>
      <trkpt lat="42.537973" lon="-0.373474">
        <ele>824.0</ele>
        <time>2019-03-26T08:59:07.000Z</time>
      </trkpt>
      <trkpt lat="42.538009" lon="-0.373497">
        <ele>823.0</ele>
        <time>2019-03-26T08:59:08.000Z</time>
      </trkpt>
      <trkpt lat="42.538044" lon="-0.373522">
        <ele>823.0</ele>
        <time>2019-03-26T08:59:09.000Z</time>
      </trkpt>
      <trkpt lat="42.538077" lon="-0.373547">
        <ele>823.0</ele>
        <time>2019-03-26T08:59:10.000Z</time>
      </trkpt>
      <trkpt lat="42.53811" lon="-0.373572">
        <ele>823.0</ele>
        <time>2019-03-26T08:59:11.000Z</time>
      </trkpt>
      <trkpt lat="42.538143" lon="-0.373596">
        <ele>823.0</ele>
        <time>2019-03-26T08:59:12.000Z</time>
      </trkpt>
      <trkpt lat="42.538175" lon="-0.37362">
        <ele>823.0</ele>
        <time>2019-03-26T08:59:13.000Z</time>
      </trkpt>
      <trkpt lat="42.538209" lon="-0.373642">
        <ele>823.0</ele>
        <time>2019-03-26T08:59:14.000Z</time>
      </trkpt>
      <trkpt lat="42.538244" lon="-0.373663">
        <ele>823.0</ele>
        <time>2019-03-26T08:59:15.000Z</time>
      </trkpt>
      <trkpt lat="42.53828" lon="-0.373682">
        <ele>822.0</ele>
        <time>2019-03-26T08:59:16.000Z</time>
      </trkpt>
      <trkpt lat="42.538317" lon="-0.373697">
        <ele>822.0</ele>
        <time>2019-03-26T08:59:17.000Z</time>
      </trkpt>
      <trkpt lat="42.538355" lon="-0.373706">
        <ele>822.0</ele>
        <time>2019-03-26T08:59:18.000Z</time>
      </trkpt>
      <trkpt lat="42.538394" lon="-0.373706">
        <ele>822.0</ele>
        <time>2019-03-26T08:59:19.000Z</time>
      </trkpt>
      <trkpt lat="42.538432" lon="-0.373698">
        <ele>821.0</ele>
        <time>2019-03-26T08:59:20.000Z</time>
      </trkpt>
      <trkpt lat="42.538468" lon="-0.373681">
        <ele>821.0</ele>
        <time>2019-03-26T08:59:21.000Z</time>
      </trkpt>
      <trkpt lat="42.5385" lon="-0.373656">
        <ele>821.0</ele>
        <time>2019-03-26T08:59:22.000Z</time>
      </trkpt>
      <trkpt lat="42.538527" lon="-0.373626">
        <ele>822.0</ele>
        <time>2019-03-26T08:59:23.000Z</time>
      </trkpt>
      <trkpt lat="42.538552" lon="-0.373593">
        <ele>822.0</ele>
        <time>2019-03-26T08:59:24.000Z</time>
      </trkpt>
      <trkpt lat="42.538574" lon="-0.373561">
        <ele>822.0</ele>
        <time>2019-03-26T08:59:25.000Z</time>
      </trkpt>
      <trkpt lat="42.538598" lon="-0.373532">
        <ele>822.0</ele>
        <time>2019-03-26T08:59:26.000Z</time>
      </trkpt>
      <trkpt lat="42.538624" lon="-0.37351">
        <ele>822.0</ele>
        <time>2019-03-26T08:59:27.000Z</time>
      </trkpt>
      <trkpt lat="42.538651" lon="-0.37349">
        <ele>822.0</ele>
        <time>2019-03-26T08:59:28.000Z</time>
      </trkpt>
      <trkpt lat="42.538677" lon="-0.373471">
        <ele>823.0</ele>
        <time>2019-03-26T08:59:29.000Z</time>
      </trkpt>
      <trkpt lat="42.5387" lon="-0.373448">
        <ele>823.0</ele>
        <time>2019-03-26T08:59:30.000Z</time>
      </trkpt>
      <trkpt lat="42.538722" lon="-0.373422">
        <ele>823.0</ele>
        <time>2019-03-26T08:59:31.000Z</time>
      </trkpt>
      <trkpt lat="42.538742" lon="-0.373393">
        <ele>823.0</ele>
        <time>2019-03-26T08:59:32.000Z</time>
      </trkpt>
      <trkpt lat="42.538761" lon="-0.373364">
        <ele>823.0</ele>
        <time>2019-03-26T08:59:33.000Z</time>
      </trkpt>
      <trkpt lat="42.538781" lon="-0.373335">
        <ele>824.0</ele>
        <time>2019-03-26T08:59:34.000Z</time>
      </trkpt>
      <trkpt lat="42.538802" lon="-0.373306">
        <ele>824.0</ele>
        <time>2019-03-26T08:59:35.000Z</time>
      </trkpt>
      <trkpt lat="42.538824" lon="-0.37328">
        <ele>824.0</ele>
        <time>2019-03-26T08:59:36.000Z</time>
      </trkpt>
      <trkpt lat="42.538849" lon="-0.373256">
        <ele>824.0</ele>
        <time>2019-03-26T08:59:37.000Z</time>
      </trkpt>
      <trkpt lat="42.538876" lon="-0.373235">
        <ele>824.0</ele>
        <time>2019-03-26T08:59:38.000Z</time>
      </trkpt>
      <trkpt lat="42.538904" lon="-0.373218">
        <ele>825.0</ele>
        <time>2019-03-26T08:59:39.000Z</time>
      </trkpt>
      <trkpt lat="42.538934" lon="-0.373203">
        <ele>825.0</ele>
        <time>2019-03-26T08:59:40.000Z</time>
      </trkpt>
      <trkpt lat="42.538963" lon="-0.373192">
        <ele>825.0</ele>
        <time>2019-03-26T08:59:41.000Z</time>
      </trkpt>
      <trkpt lat="42.538993" lon="-0.373183">
        <ele>825.0</ele>
        <time>2019-03-26T08:59:42.000Z</time>
      </trkpt>
      <trkpt lat="42.539023" lon="-0.373178">
        <ele>825.0</ele>
        <time>2019-03-26T08:59:43.000Z</time>
      </trkpt>
      <trkpt lat="42.539052" lon="-0.373175">
        <ele>825.0</ele>
        <time>2019-03-26T08:59:44.000Z</time>
      </trkpt>
      <trkpt lat="42.539081" lon="-0.373173">
        <ele>825.0</ele>
        <time>2019-03-26T08:59:45.000Z</time>
      </trkpt>
      <trkpt lat="42.539112" lon="-0.373172">
        <ele>826.0</ele>
        <time>2019-03-26T08:59:46.000Z</time>
      </trkpt>
      <trkpt lat="42.539144" lon="-0.373171">
        <ele>826.0</ele>
        <time>2019-03-26T08:59:47.000Z</time>
      </trkpt>
      <trkpt lat="42.539177" lon="-0.373169">
        <ele>826.0</ele>
        <time>2019-03-26T08:59:48.000Z</time>
      </trkpt>
      <trkpt lat="42.539213" lon="-0.373165">
        <ele>826.0</ele>
        <time>2019-03-26T08:59:49.000Z</time>
      </trkpt>
      <trkpt lat="42.539251" lon="-0.373158">
        <ele>825.0</ele>
        <time>2019-03-26T08:59:50.000Z</time>
      </trkpt>
      <trkpt lat="42.539286" lon="-0.373147">
        <ele>825.0</ele>
        <time>2019-03-26T08:59:51.000Z</time>
      </trkpt>
      <trkpt lat="42.539313" lon="-0.373127">
        <ele>825.0</ele>
        <time>2019-03-26T08:59:52.000Z</time>
      </trkpt>
      <trkpt lat="42.539328" lon="-0.373098">
        <ele>825.0</ele>
        <time>2019-03-26T08:59:53.000Z</time>
      </trkpt>
      <trkpt lat="42.539326" lon="-0.373059">
        <ele>825.0</ele>
        <time>2019-03-26T08:59:54.000Z</time>
      </trkpt>
      <trkpt lat="42.53931" lon="-0.373014">
        <ele>825.0</ele>
        <time>2019-03-26T08:59:55.000Z</time>
      </trkpt>
      <trkpt lat="42.539285" lon="-0.372972">
        <ele>825.0</ele>
        <time>2019-03-26T08:59:56.000Z</time>
      </trkpt>
      <trkpt lat="42.539256" lon="-0.372937">
        <ele>825.0</ele>
        <time>2019-03-26T08:59:57.000Z</time>
      </trkpt>
      <trkpt lat="42.539224" lon="-0.372906">
        <ele>825.0</ele>
        <time>2019-03-26T08:59:58.000Z</time>
      </trkpt>
      <trkpt lat="42.53919" lon="-0.372874">
        <ele>825.0</ele>
        <time>2019-03-26T08:59:59.000Z</time>
      </trkpt>
      <trkpt lat="42.539156" lon="-0.372836">
        <ele>824.0</ele>
        <time>2019-03-26T09:00:00.000Z</time>
      </trkpt>
      <trkpt lat="42.539122" lon="-0.372787">
        <ele>824.0</ele>
        <time>2019-03-26T09:00:01.000Z</time>
      </trkpt>
      <trkpt lat="42.539089" lon="-0.372731">
        <ele>824.0</ele>
        <time>2019-03-26T09:00:02.000Z</time>
      </trkpt>
      <trkpt lat="42.539054" lon="-0.372668">
        <ele>823.0</ele>
        <time>2019-03-26T09:00:03.000Z</time>
      </trkpt>
      <trkpt lat="42.539019" lon="-0.372602">
        <ele>823.0</ele>
        <time>2019-03-26T09:00:04.000Z</time>
      </trkpt>
      <trkpt lat="42.538981" lon="-0.372533">
        <ele>822.0</ele>
        <time>2019-03-26T09:00:05.000Z</time>
      </trkpt>
      <trkpt lat="42.538944" lon="-0.372461">
        <ele>821.0</ele>
        <time>2019-03-26T09:00:06.000Z</time>
      </trkpt>
      <trkpt lat="42.538906" lon="-0.372388">
        <ele>821.0</ele>
        <time>2019-03-26T09:00:07.000Z</time>
      </trkpt>
      <trkpt lat="42.53887" lon="-0.372313">
        <ele>821.0</ele>
        <time>2019-03-26T09:00:08.000Z</time>
      </trkpt>
      <trkpt lat="42.538836" lon="-0.372236">
        <ele>820.0</ele>
        <time>2019-03-26T09:00:09.000Z</time>
      </trkpt>
      <trkpt lat="42.538803" lon="-0.372158">
        <ele>819.0</ele>
        <time>2019-03-26T09:00:10.000Z</time>
      </trkpt>
      <trkpt lat="42.538774" lon="-0.37208">
        <ele>819.0</ele>
        <time>2019-03-26T09:00:11.000Z</time>
      </trkpt>
      <trkpt lat="42.538749" lon="-0.372">
        <ele>819.0</ele>
        <time>2019-03-26T09:00:12.000Z</time>
      </trkpt>
      <trkpt lat="42.538728" lon="-0.371917">
        <ele>818.0</ele>
        <time>2019-03-26T09:00:13.000Z</time>
      </trkpt>
      <trkpt lat="42.538713" lon="-0.371831">
        <ele>818.0</ele>
        <time>2019-03-26T09:00:14.000Z</time>
      </trkpt>
      <trkpt lat="42.538703" lon="-0.371742">
        <ele>818.0</ele>
        <time>2019-03-26T09:00:15.000Z</time>
      </trkpt>
      <trkpt lat="42.538697" lon="-0.371651">
        <ele>818.0</ele>
        <time>2019-03-26T09:00:16.000Z</time>
      </trkpt>
      <trkpt lat="42.538693" lon="-0.371561">
        <ele>817.0</ele>
        <time>2019-03-26T09:00:17.000Z</time>
      </trkpt>
      <trkpt lat="42.538689" lon="-0.371476">
        <ele>817.0</ele>
        <time>2019-03-26T09:00:18.000Z</time>
      </trkpt>
      <trkpt lat="42.538685" lon="-0.371395">
        <ele>817.0</ele>
        <time>2019-03-26T09:00:19.000Z</time>
      </trkpt>
      <trkpt lat="42.538682" lon="-0.371317">
        <ele>817.0</ele>
        <time>2019-03-26T09:00:20.000Z</time>
      </trkpt>
      <trkpt lat="42.538681" lon="-0.371243">
        <ele>817.0</ele>
        <time>2019-03-26T09:00:21.000Z</time>
      </trkpt>
      <trkpt lat="42.538682" lon="-0.371171">
        <ele>817.0</ele>
        <time>2019-03-26T09:00:22.000Z</time>
      </trkpt>
      <trkpt lat="42.538686" lon="-0.371101">
        <ele>817.0</ele>
        <time>2019-03-26T09:00:23.000Z</time>
      </trkpt>
      <trkpt lat="42.538694" lon="-0.371034">
        <ele>817.0</ele>
        <time>2019-03-26T09:00:24.000Z</time>
      </trkpt>
      <trkpt lat="42.538706" lon="-0.370968">
        <ele>817.0</ele>
        <time>2019-03-26T09:00:25.000Z</time>
      </trkpt>
      <trkpt lat="42.53872" lon="-0.370903">
        <ele>817.0</ele>
        <time>2019-03-26T09:00:26.000Z</time>
      </trkpt>
      <trkpt lat="42.538735" lon="-0.370839">
        <ele>817.0</ele>
        <time>2019-03-26T09:00:27.000Z</time>
      </trkpt>
      <trkpt lat="42.53875" lon="-0.370775">
        <ele>817.0</ele>
        <time>2019-03-26T09:00:28.000Z</time>
      </trkpt>
      <trkpt lat="42.538763" lon="-0.370713">
        <ele>817.0</ele>
        <time>2019-03-26T09:00:29.000Z</time>
      </trkpt>
      <trkpt lat="42.538776" lon="-0.370655">
        <ele>817.0</ele>
        <time>2019-03-26T09:00:30.000Z</time>
      </trkpt>
      <trkpt lat="42.538792" lon="-0.370605">
        <ele>817.0</ele>
        <time>2019-03-26T09:00:31.000Z</time>
      </trkpt>
      <trkpt lat="42.538812" lon="-0.370568">
        <ele>817.0</ele>
        <time>2019-03-26T09:00:32.000Z</time>
      </trkpt>
      <trkpt lat="42.538836" lon="-0.370544">
        <ele>817.0</ele>
        <time>2019-03-26T09:00:33.000Z</time>
      </trkpt>
      <trkpt lat="42.538862" lon="-0.370532">
        <ele>817.0</ele>
        <time>2019-03-26T09:00:34.000Z</time>
      </trkpt>
      <trkpt lat="42.53889" lon="-0.370531">
        <ele>817.0</ele>
        <time>2019-03-26T09:00:35.000Z</time>
      </trkpt>
      <trkpt lat="42.538918" lon="-0.370539">
        <ele>817.0</ele>
        <time>2019-03-26T09:00:36.000Z</time>
      </trkpt>
      <trkpt lat="42.538946" lon="-0.370553">
        <ele>817.0</ele>
        <time>2019-03-26T09:00:37.000Z</time>
      </trkpt>
      <trkpt lat="42.538975" lon="-0.370568">
        <ele>817.0</ele>
        <time>2019-03-26T09:00:38.000Z</time>
      </trkpt>
      <trkpt lat="42.539004" lon="-0.370584">
        <ele>817.0</ele>
        <time>2019-03-26T09:00:39.000Z</time>
      </trkpt>
      <trkpt lat="42.539034" lon="-0.370601">
        <ele>817.0</ele>
        <time>2019-03-26T09:00:40.000Z</time>
      </trkpt>
      <trkpt lat="42.539063" lon="-0.370619">
        <ele>817.0</ele>
        <time>2019-03-26T09:00:41.000Z</time>
      </trkpt>
      <trkpt lat="42.539093" lon="-0.370638">
        <ele>817.0</ele>
        <time>2019-03-26T09:00:42.000Z</time>
      </trkpt>
      <trkpt lat="42.539124" lon="-0.370658">
        <ele>818.0</ele>
        <time>2019-03-26T09:00:43.000Z</time>
      </trkpt>
      <trkpt lat="42.539154" lon="-0.370679">
        <ele>818.0</ele>
        <time>2019-03-26T09:00:44.000Z</time>
      </trkpt>
      <trkpt lat="42.539185" lon="-0.3707">
        <ele>818.0</ele>
        <time>2019-03-26T09:00:45.000Z</time>
      </trkpt>
      <trkpt lat="42.539216" lon="-0.370722">
        <ele>818.0</ele>
        <time>2019-03-26T09:00:46.000Z</time>
      </trkpt>
      <trkpt lat="42.539247" lon="-0.370744">
        <ele>818.0</ele>
        <time>2019-03-26T09:00:47.000Z</time>
      </trkpt>
      <trkpt lat="42.539279" lon="-0.370767">
        <ele>818.0</ele>
        <time>2019-03-26T09:00:48.000Z</time>
      </trkpt>
      <trkpt lat="42.53931" lon="-0.37079">
        <ele>818.0</ele>
        <time>2019-03-26T09:00:49.000Z</time>
      </trkpt>
      <trkpt lat="42.539342" lon="-0.370813">
        <ele>819.0</ele>
        <time>2019-03-26T09:00:50.000Z</time>
      </trkpt>
      <trkpt lat="42.539374" lon="-0.370836">
        <ele>819.0</ele>
        <time>2019-03-26T09:00:51.000Z</time>
      </trkpt>
      <trkpt lat="42.539406" lon="-0.37086">
        <ele>819.0</ele>
        <time>2019-03-26T09:00:52.000Z</time>
      </trkpt>
      <trkpt lat="42.539438" lon="-0.370883">
        <ele>819.0</ele>
        <time>2019-03-26T09:00:53.000Z</time>
      </trkpt>
      <trkpt lat="42.53947" lon="-0.370907">
        <ele>819.0</ele>
        <time>2019-03-26T09:00:54.000Z</time>
      </trkpt>
      <trkpt lat="42.539502" lon="-0.37093">
        <ele>819.0</ele>
        <time>2019-03-26T09:00:55.000Z</time>
      </trkpt>
      <trkpt lat="42.539534" lon="-0.370954">
        <ele>819.0</ele>
        <time>2019-03-26T09:00:56.000Z</time>
      </trkpt>
      <trkpt lat="42.539566" lon="-0.370977">
        <ele>819.0</ele>
        <time>2019-03-26T09:00:57.000Z</time>
      </trkpt>
      <trkpt lat="42.539599" lon="-0.371001">
        <ele>820.0</ele>
        <time>2019-03-26T09:00:58.000Z</time>
      </trkpt>
      <trkpt lat="42.539631" lon="-0.371025">
        <ele>820.0</ele>
        <time>2019-03-26T09:00:59.000Z</time>
      </trkpt>
      <trkpt lat="42.539664" lon="-0.371049">
        <ele>820.0</ele>
        <time>2019-03-26T09:01:00.000Z</time>
      </trkpt>
      <trkpt lat="42.539697" lon="-0.371072">
        <ele>820.0</ele>
        <time>2019-03-26T09:01:01.000Z</time>
      </trkpt>
      <trkpt lat="42.539729" lon="-0.371096">
        <ele>820.0</ele>
        <time>2019-03-26T09:01:02.000Z</time>
      </trkpt>
      <trkpt lat="42.539762" lon="-0.37112">
        <ele>820.0</ele>
        <time>2019-03-26T09:01:03.000Z</time>
      </trkpt>
      <trkpt lat="42.539795" lon="-0.371144">
        <ele>820.0</ele>
        <time>2019-03-26T09:01:04.000Z</time>
      </trkpt>
      <trkpt lat="42.539829" lon="-0.371168">
        <ele>820.0</ele>
        <time>2019-03-26T09:01:05.000Z</time>
      </trkpt>
      <trkpt lat="42.539862" lon="-0.371192">
        <ele>821.0</ele>
        <time>2019-03-26T09:01:06.000Z</time>
      </trkpt>
      <trkpt lat="42.539895" lon="-0.371216">
        <ele>821.0</ele>
        <time>2019-03-26T09:01:07.000Z</time>
      </trkpt>
      <trkpt lat="42.539929" lon="-0.37124">
        <ele>821.0</ele>
        <time>2019-03-26T09:01:08.000Z</time>
      </trkpt>
      <trkpt lat="42.539962" lon="-0.371264">
        <ele>821.0</ele>
        <time>2019-03-26T09:01:09.000Z</time>
      </trkpt>
      <trkpt lat="42.539996" lon="-0.371289">
        <ele>821.0</ele>
        <time>2019-03-26T09:01:10.000Z</time>
      </trkpt>
      <trkpt lat="42.54003" lon="-0.371313">
        <ele>821.0</ele>
        <time>2019-03-26T09:01:11.000Z</time>
      </trkpt>
      <trkpt lat="42.540064" lon="-0.371337">
        <ele>821.0</ele>
        <time>2019-03-26T09:01:12.000Z</time>
      </trkpt>
      <trkpt lat="42.540098" lon="-0.371362">
        <ele>821.0</ele>
        <time>2019-03-26T09:01:13.000Z</time>
      </trkpt>
      <trkpt lat="42.540131" lon="-0.371386">
        <ele>821.0</ele>
        <time>2019-03-26T09:01:14.000Z</time>
      </trkpt>
      <trkpt lat="42.540165" lon="-0.371411">
        <ele>821.0</ele>
        <time>2019-03-26T09:01:15.000Z</time>
      </trkpt>
      <trkpt lat="42.540199" lon="-0.371436">
        <ele>822.0</ele>
        <time>2019-03-26T09:01:16.000Z</time>
      </trkpt>
      <trkpt lat="42.540233" lon="-0.37146">
        <ele>822.0</ele>
        <time>2019-03-26T09:01:17.000Z</time>
      </trkpt>
      <trkpt lat="42.540267" lon="-0.371485">
        <ele>822.0</ele>
        <time>2019-03-26T09:01:18.000Z</time>
      </trkpt>
      <trkpt lat="42.540301" lon="-0.37151">
        <ele>822.0</ele>
        <time>2019-03-26T09:01:19.000Z</time>
      </trkpt>
      <trkpt lat="42.540335" lon="-0.371535">
        <ele>822.0</ele>
        <time>2019-03-26T09:01:20.000Z</time>
      </trkpt>
      <trkpt lat="42.540369" lon="-0.37156">
        <ele>822.0</ele>
        <time>2019-03-26T09:01:21.000Z</time>
      </trkpt>
      <trkpt lat="42.540403" lon="-0.371585">
        <ele>823.0</ele>
        <time>2019-03-26T09:01:22.000Z</time>
      </trkpt>
      <trkpt lat="42.540436" lon="-0.37161">
        <ele>823.0</ele>
        <time>2019-03-26T09:01:23.000Z</time>
      </trkpt>
      <trkpt lat="42.54047" lon="-0.371635">
        <ele>823.0</ele>
        <time>2019-03-26T09:01:24.000Z</time>
      </trkpt>
      <trkpt lat="42.540504" lon="-0.37166">
        <ele>823.0</ele>
        <time>2019-03-26T09:01:25.000Z</time>
      </trkpt>
      <trkpt lat="42.540537" lon="-0.371685">
        <ele>823.0</ele>
        <time>2019-03-26T09:01:26.000Z</time>
      </trkpt>
      <trkpt lat="42.540571" lon="-0.37171">
        <ele>824.0</ele>
        <time>2019-03-26T09:01:27.000Z</time>
      </trkpt>
      <trkpt lat="42.540604" lon="-0.371734">
        <ele>824.0</ele>
        <time>2019-03-26T09:01:28.000Z</time>
      </trkpt>
      <trkpt lat="42.540637" lon="-0.371758">
        <ele>824.0</ele>
        <time>2019-03-26T09:01:29.000Z</time>
      </trkpt>
      <trkpt lat="42.54067" lon="-0.371782">
        <ele>824.0</ele>
        <time>2019-03-26T09:01:30.000Z</time>
      </trkpt>
      <trkpt lat="42.540703" lon="-0.371805">
        <ele>824.0</ele>
        <time>2019-03-26T09:01:31.000Z</time>
      </trkpt>
      <trkpt lat="42.540736" lon="-0.371828">
        <ele>825.0</ele>
        <time>2019-03-26T09:01:32.000Z</time>
      </trkpt>
      <trkpt lat="42.540769" lon="-0.371851">
        <ele>825.0</ele>
        <time>2019-03-26T09:01:33.000Z</time>
      </trkpt>
      <trkpt lat="42.540801" lon="-0.371873">
        <ele>825.0</ele>
        <time>2019-03-26T09:01:34.000Z</time>
      </trkpt>
      <trkpt lat="42.540834" lon="-0.371892">
        <ele>826.0</ele>
        <time>2019-03-26T09:01:35.000Z</time>
      </trkpt>
      <trkpt lat="42.540867" lon="-0.371906">
        <ele>826.0</ele>
        <time>2019-03-26T09:01:36.000Z</time>
      </trkpt>
      <trkpt lat="42.540899" lon="-0.371914">
        <ele>826.0</ele>
        <time>2019-03-26T09:01:37.000Z</time>
      </trkpt>
      <trkpt lat="42.540932" lon="-0.371913">
        <ele>826.0</ele>
        <time>2019-03-26T09:01:38.000Z</time>
      </trkpt>
      <trkpt lat="42.540966" lon="-0.371905">
        <ele>826.0</ele>
        <time>2019-03-26T09:01:39.000Z</time>
      </trkpt>
      <trkpt lat="42.541001" lon="-0.371895">
        <ele>826.0</ele>
        <time>2019-03-26T09:01:40.000Z</time>
      </trkpt>
      <trkpt lat="42.541037" lon="-0.371884">
        <ele>826.0</ele>
        <time>2019-03-26T09:01:41.000Z</time>
      </trkpt>
      <trkpt lat="42.541075" lon="-0.371872">
        <ele>826.0</ele>
        <time>2019-03-26T09:01:42.000Z</time>
      </trkpt>
      <trkpt lat="42.541114" lon="-0.371859">
        <ele>826.0</ele>
        <time>2019-03-26T09:01:43.000Z</time>
      </trkpt>
      <trkpt lat="42.541154" lon="-0.371844">
        <ele>826.0</ele>
        <time>2019-03-26T09:01:44.000Z</time>
      </trkpt>
      <trkpt lat="42.541197" lon="-0.371825">
        <ele>826.0</ele>
        <time>2019-03-26T09:01:45.000Z</time>
      </trkpt>
      <trkpt lat="42.54124" lon="-0.371805">
        <ele>826.0</ele>
        <time>2019-03-26T09:01:46.000Z</time>
      </trkpt>
      <trkpt lat="42.541284" lon="-0.371783">
        <ele>826.0</ele>
        <time>2019-03-26T09:01:47.000Z</time>
      </trkpt>
      <trkpt lat="42.541329" lon="-0.371759">
        <ele>825.0</ele>
        <time>2019-03-26T09:01:48.000Z</time>
      </trkpt>
      <trkpt lat="42.541375" lon="-0.371734">
        <ele>825.0</ele>
        <time>2019-03-26T09:01:49.000Z</time>
      </trkpt>
      <trkpt lat="42.54142" lon="-0.371708">
        <ele>825.0</ele>
        <time>2019-03-26T09:01:50.000Z</time>
      </trkpt>
      <trkpt lat="42.541465" lon="-0.37168">
        <ele>825.0</ele>
        <time>2019-03-26T09:01:51.000Z</time>
      </trkpt>
      <trkpt lat="42.541509" lon="-0.371653">
        <ele>825.0</ele>
        <time>2019-03-26T09:01:52.000Z</time>
      </trkpt>
      <trkpt lat="42.541554" lon="-0.371627">
        <ele>825.0</ele>
        <time>2019-03-26T09:01:53.000Z</time>
      </trkpt>
      <trkpt lat="42.541599" lon="-0.371606">
        <ele>825.0</ele>
        <time>2019-03-26T09:01:54.000Z</time>
      </trkpt>
      <trkpt lat="42.541645" lon="-0.371591">
        <ele>824.0</ele>
        <time>2019-03-26T09:01:55.000Z</time>
      </trkpt>
      <trkpt lat="42.541692" lon="-0.371579">
        <ele>825.0</ele>
        <time>2019-03-26T09:01:56.000Z</time>
      </trkpt>
      <trkpt lat="42.54174" lon="-0.37157">
        <ele>824.0</ele>
        <time>2019-03-26T09:01:57.000Z</time>
      </trkpt>
      <trkpt lat="42.541788" lon="-0.371559">
        <ele>824.0</ele>
        <time>2019-03-26T09:01:58.000Z</time>
      </trkpt>
      <trkpt lat="42.541837" lon="-0.371545">
        <ele>824.0</ele>
        <time>2019-03-26T09:01:59.000Z</time>
      </trkpt>
      <trkpt lat="42.541886" lon="-0.371531">
        <ele>824.0</ele>
        <time>2019-03-26T09:02:00.000Z</time>
      </trkpt>
      <trkpt lat="42.541934" lon="-0.37152">
        <ele>824.0</ele>
        <time>2019-03-26T09:02:01.000Z</time>
      </trkpt>
      <trkpt lat="42.541982" lon="-0.371514">
        <ele>825.0</ele>
        <time>2019-03-26T09:02:02.000Z</time>
      </trkpt>
      <trkpt lat="42.542029" lon="-0.371514">
        <ele>825.0</ele>
        <time>2019-03-26T09:02:03.000Z</time>
      </trkpt>
      <trkpt lat="42.542074" lon="-0.371518">
        <ele>825.0</ele>
        <time>2019-03-26T09:02:04.000Z</time>
      </trkpt>
      <trkpt lat="42.542117" lon="-0.371527">
        <ele>825.0</ele>
        <time>2019-03-26T09:02:05.000Z</time>
      </trkpt>
      <trkpt lat="42.542157" lon="-0.37154">
        <ele>825.0</ele>
        <time>2019-03-26T09:02:06.000Z</time>
      </trkpt>
      <trkpt lat="42.542194" lon="-0.371555">
        <ele>825.0</ele>
        <time>2019-03-26T09:02:07.000Z</time>
      </trkpt>
      <trkpt lat="42.542231" lon="-0.371571">
        <ele>826.0</ele>
        <time>2019-03-26T09:02:08.000Z</time>
      </trkpt>
      <trkpt lat="42.542267" lon="-0.371587">
        <ele>826.0</ele>
        <time>2019-03-26T09:02:09.000Z</time>
      </trkpt>
      <trkpt lat="42.542303" lon="-0.371602">
        <ele>826.0</ele>
        <time>2019-03-26T09:02:10.000Z</time>
      </trkpt>
      <trkpt lat="42.542338" lon="-0.371616">
        <ele>826.0</ele>
        <time>2019-03-26T09:02:11.000Z</time>
      </trkpt>
      <trkpt lat="42.542374" lon="-0.37163">
        <ele>826.0</ele>
        <time>2019-03-26T09:02:12.000Z</time>
      </trkpt>
      <trkpt lat="42.542409" lon="-0.371643">
        <ele>827.0</ele>
        <time>2019-03-26T09:02:13.000Z</time>
      </trkpt>
      <trkpt lat="42.542444" lon="-0.371655">
        <ele>827.0</ele>
        <time>2019-03-26T09:02:14.000Z</time>
      </trkpt>
      <trkpt lat="42.542479" lon="-0.371667">
        <ele>827.0</ele>
        <time>2019-03-26T09:02:15.000Z</time>
      </trkpt>
      <trkpt lat="42.542514" lon="-0.371678">
        <ele>827.0</ele>
        <time>2019-03-26T09:02:16.000Z</time>
      </trkpt>
      <trkpt lat="42.542549" lon="-0.371689">
        <ele>827.0</ele>
        <time>2019-03-26T09:02:17.000Z</time>
      </trkpt>
      <trkpt lat="42.542584" lon="-0.371699">
        <ele>827.0</ele>
        <time>2019-03-26T09:02:18.000Z</time>
      </trkpt>
      <trkpt lat="42.542619" lon="-0.371709">
        <ele>827.0</ele>
        <time>2019-03-26T09:02:19.000Z</time>
      </trkpt>
      <trkpt lat="42.542654" lon="-0.371719">
        <ele>827.0</ele>
        <time>2019-03-26T09:02:20.000Z</time>
      </trkpt>
      <trkpt lat="42.542689" lon="-0.371729">
        <ele>827.0</ele>
        <time>2019-03-26T09:02:21.000Z</time>
      </trkpt>
      <trkpt lat="42.542723" lon="-0.371739">
        <ele>828.0</ele>
        <time>2019-03-26T09:02:22.000Z</time>
      </trkpt>
      <trkpt lat="42.542757" lon="-0.371749">
        <ele>828.0</ele>
        <time>2019-03-26T09:02:23.000Z</time>
      </trkpt>
      <trkpt lat="42.542791" lon="-0.37176">
        <ele>828.0</ele>
        <time>2019-03-26T09:02:24.000Z</time>
      </trkpt>
      <trkpt lat="42.542825" lon="-0.371771">
        <ele>828.0</ele>
        <time>2019-03-26T09:02:25.000Z</time>
      </trkpt>
      <trkpt lat="42.542858" lon="-0.371783">
        <ele>828.0</ele>
        <time>2019-03-26T09:02:26.000Z</time>
      </trkpt>
      <trkpt lat="42.542891" lon="-0.371795">
        <ele>828.0</ele>
        <time>2019-03-26T09:02:27.000Z</time>
      </trkpt>
      <trkpt lat="42.542924" lon="-0.371809">
        <ele>828.0</ele>
        <time>2019-03-26T09:02:28.000Z</time>
      </trkpt>
      <trkpt lat="42.542956" lon="-0.371823">
        <ele>828.0</ele>
        <time>2019-03-26T09:02:29.000Z</time>
      </trkpt>
      <trkpt lat="42.542988" lon="-0.371838">
        <ele>829.0</ele>
        <time>2019-03-26T09:02:30.000Z</time>
      </trkpt>
      <trkpt lat="42.543019" lon="-0.371854">
        <ele>829.0</ele>
        <time>2019-03-26T09:02:31.000Z</time>
      </trkpt>
      <trkpt lat="42.543051" lon="-0.371871">
        <ele>829.0</ele>
        <time>2019-03-26T09:02:32.000Z</time>
      </trkpt>
      <trkpt lat="42.543083" lon="-0.371887">
        <ele>829.0</ele>
        <time>2019-03-26T09:02:33.000Z</time>
      </trkpt>
      <trkpt lat="42.543115" lon="-0.371903">
        <ele>829.0</ele>
        <time>2019-03-26T09:02:34.000Z</time>
      </trkpt>
      <trkpt lat="42.543147" lon="-0.371919">
        <ele>829.0</ele>
        <time>2019-03-26T09:02:35.000Z</time>
      </trkpt>
      <trkpt lat="42.54318" lon="-0.371934">
        <ele>829.0</ele>
        <time>2019-03-26T09:02:36.000Z</time>
      </trkpt>
      <trkpt lat="42.543213" lon="-0.371949">
        <ele>830.0</ele>
        <time>2019-03-26T09:02:37.000Z</time>
      </trkpt>
      <trkpt lat="42.543247" lon="-0.371962">
        <ele>830.0</ele>
        <time>2019-03-26T09:02:38.000Z</time>
      </trkpt>
      <trkpt lat="42.54328" lon="-0.371975">
        <ele>830.0</ele>
        <time>2019-03-26T09:02:39.000Z</time>
      </trkpt>
      <trkpt lat="42.543314" lon="-0.371986">
        <ele>830.0</ele>
        <time>2019-03-26T09:02:40.000Z</time>
      </trkpt>
      <trkpt lat="42.543349" lon="-0.371996">
        <ele>830.0</ele>
        <time>2019-03-26T09:02:41.000Z</time>
      </trkpt>
      <trkpt lat="42.543383" lon="-0.372004">
        <ele>830.0</ele>
        <time>2019-03-26T09:02:42.000Z</time>
      </trkpt>
      <trkpt lat="42.543418" lon="-0.372011">
        <ele>830.0</ele>
        <time>2019-03-26T09:02:43.000Z</time>
      </trkpt>
      <trkpt lat="42.543453" lon="-0.372016">
        <ele>831.0</ele>
        <time>2019-03-26T09:02:44.000Z</time>
      </trkpt>
      <trkpt lat="42.543488" lon="-0.37202">
        <ele>831.0</ele>
        <time>2019-03-26T09:02:45.000Z</time>
      </trkpt>
      <trkpt lat="42.543523" lon="-0.372023">
        <ele>831.0</ele>
        <time>2019-03-26T09:02:46.000Z</time>
      </trkpt>
      <trkpt lat="42.543557" lon="-0.372026">
        <ele>831.0</ele>
        <time>2019-03-26T09:02:47.000Z</time>
      </trkpt>
      <trkpt lat="42.543592" lon="-0.37203">
        <ele>831.0</ele>
        <time>2019-03-26T09:02:48.000Z</time>
      </trkpt>
      <trkpt lat="42.543626" lon="-0.372033">
        <ele>831.0</ele>
        <time>2019-03-26T09:02:49.000Z</time>
      </trkpt>
      <trkpt lat="42.543659" lon="-0.372037">
        <ele>831.0</ele>
        <time>2019-03-26T09:02:50.000Z</time>
      </trkpt>
      <trkpt lat="42.543693" lon="-0.372042">
        <ele>831.0</ele>
        <time>2019-03-26T09:02:51.000Z</time>
      </trkpt>
      <trkpt lat="42.543726" lon="-0.372048">
        <ele>831.0</ele>
        <time>2019-03-26T09:02:52.000Z</time>
      </trkpt>
      <trkpt lat="42.543759" lon="-0.372054">
        <ele>831.0</ele>
        <time>2019-03-26T09:02:53.000Z</time>
      </trkpt>
      <trkpt lat="42.543791" lon="-0.372061">
        <ele>831.0</ele>
        <time>2019-03-26T09:02:54.000Z</time>
      </trkpt>
      <trkpt lat="42.543824" lon="-0.372069">
        <ele>832.0</ele>
        <time>2019-03-26T09:02:55.000Z</time>
      </trkpt>
      <trkpt lat="42.543856" lon="-0.372078">
        <ele>832.0</ele>
        <time>2019-03-26T09:02:56.000Z</time>
      </trkpt>
      <trkpt lat="42.543889" lon="-0.372087">
        <ele>832.0</ele>
        <time>2019-03-26T09:02:57.000Z</time>
      </trkpt>
      <trkpt lat="42.543922" lon="-0.372097">
        <ele>832.0</ele>
        <time>2019-03-26T09:02:58.000Z</time>
      </trkpt>
      <trkpt lat="42.543954" lon="-0.372107">
        <ele>832.0</ele>
        <time>2019-03-26T09:02:59.000Z</time>
      </trkpt>
      <trkpt lat="42.543987" lon="-0.372116">
        <ele>832.0</ele>
        <time>2019-03-26T09:03:00.000Z</time>
      </trkpt>
      <trkpt lat="42.54402" lon="-0.372125">
        <ele>833.0</ele>
        <time>2019-03-26T09:03:01.000Z</time>
      </trkpt>
      <trkpt lat="42.544053" lon="-0.372133">
        <ele>833.0</ele>
        <time>2019-03-26T09:03:02.000Z</time>
      </trkpt>
      <trkpt lat="42.544086" lon="-0.372139">
        <ele>833.0</ele>
        <time>2019-03-26T09:03:03.000Z</time>
      </trkpt>
      <trkpt lat="42.544119" lon="-0.372144">
        <ele>833.0</ele>
        <time>2019-03-26T09:03:04.000Z</time>
      </trkpt>
      <trkpt lat="42.544153" lon="-0.372147">
        <ele>833.0</ele>
        <time>2019-03-26T09:03:05.000Z</time>
      </trkpt>
      <trkpt lat="42.544186" lon="-0.372149">
        <ele>833.0</ele>
        <time>2019-03-26T09:03:06.000Z</time>
      </trkpt>
      <trkpt lat="42.544219" lon="-0.372151">
        <ele>833.0</ele>
        <time>2019-03-26T09:03:07.000Z</time>
      </trkpt>
      <trkpt lat="42.544253" lon="-0.372152">
        <ele>833.0</ele>
        <time>2019-03-26T09:03:08.000Z</time>
      </trkpt>
      <trkpt lat="42.544286" lon="-0.372153">
        <ele>833.0</ele>
        <time>2019-03-26T09:03:09.000Z</time>
      </trkpt>
      <trkpt lat="42.544319" lon="-0.372154">
        <ele>833.0</ele>
        <time>2019-03-26T09:03:10.000Z</time>
      </trkpt>
      <trkpt lat="42.544352" lon="-0.372155">
        <ele>833.0</ele>
        <time>2019-03-26T09:03:11.000Z</time>
      </trkpt>
      <trkpt lat="42.544384" lon="-0.372157">
        <ele>833.0</ele>
        <time>2019-03-26T09:03:12.000Z</time>
      </trkpt>
      <trkpt lat="42.544417" lon="-0.372159">
        <ele>833.0</ele>
        <time>2019-03-26T09:03:13.000Z</time>
      </trkpt>
      <trkpt lat="42.544449" lon="-0.372162">
        <ele>833.0</ele>
        <time>2019-03-26T09:03:14.000Z</time>
      </trkpt>
      <trkpt lat="42.54448" lon="-0.372165">
        <ele>833.0</ele>
        <time>2019-03-26T09:03:15.000Z</time>
      </trkpt>
      <trkpt lat="42.544511" lon="-0.372168">
        <ele>833.0</ele>
        <time>2019-03-26T09:03:16.000Z</time>
      </trkpt>
      <trkpt lat="42.544542" lon="-0.372171">
        <ele>833.0</ele>
        <time>2019-03-26T09:03:17.000Z</time>
      </trkpt>
      <trkpt lat="42.544571" lon="-0.372174">
        <ele>834.0</ele>
        <time>2019-03-26T09:03:18.000Z</time>
      </trkpt>
      <trkpt lat="42.5446" lon="-0.372177">
        <ele>834.0</ele>
        <time>2019-03-26T09:03:19.000Z</time>
      </trkpt>
      <trkpt lat="42.544629" lon="-0.372181">
        <ele>834.0</ele>
        <time>2019-03-26T09:03:20.000Z</time>
      </trkpt>
      <trkpt lat="42.544657" lon="-0.372186">
        <ele>834.0</ele>
        <time>2019-03-26T09:03:21.000Z</time>
      </trkpt>
      <trkpt lat="42.544684" lon="-0.372193">
        <ele>834.0</ele>
        <time>2019-03-26T09:03:22.000Z</time>
      </trkpt>
      <trkpt lat="42.544711" lon="-0.372201">
        <ele>834.0</ele>
        <time>2019-03-26T09:03:23.000Z</time>
      </trkpt>
      <trkpt lat="42.544738" lon="-0.372211">
        <ele>834.0</ele>
        <time>2019-03-26T09:03:24.000Z</time>
      </trkpt>
      <trkpt lat="42.544765" lon="-0.372222">
        <ele>835.0</ele>
        <time>2019-03-26T09:03:25.000Z</time>
      </trkpt>
      <trkpt lat="42.544792" lon="-0.372235">
        <ele>835.0</ele>
        <time>2019-03-26T09:03:26.000Z</time>
      </trkpt>
      <trkpt lat="42.544818" lon="-0.372248">
        <ele>835.0</ele>
        <time>2019-03-26T09:03:27.000Z</time>
      </trkpt>
      <trkpt lat="42.544845" lon="-0.372261">
        <ele>835.0</ele>
        <time>2019-03-26T09:03:28.000Z</time>
      </trkpt>
      <trkpt lat="42.544872" lon="-0.372273">
        <ele>835.0</ele>
        <time>2019-03-26T09:03:29.000Z</time>
      </trkpt>
      <trkpt lat="42.544899" lon="-0.372285">
        <ele>835.0</ele>
        <time>2019-03-26T09:03:30.000Z</time>
      </trkpt>
      <trkpt lat="42.544926" lon="-0.372295">
        <ele>835.0</ele>
        <time>2019-03-26T09:03:31.000Z</time>
      </trkpt>
      <trkpt lat="42.544954" lon="-0.372304">
        <ele>836.0</ele>
        <time>2019-03-26T09:03:32.000Z</time>
      </trkpt>
      <trkpt lat="42.544982" lon="-0.37231">
        <ele>836.0</ele>
        <time>2019-03-26T09:03:33.000Z</time>
      </trkpt>
      <trkpt lat="42.545011" lon="-0.372313">
        <ele>836.0</ele>
        <time>2019-03-26T09:03:34.000Z</time>
      </trkpt>
      <trkpt lat="42.545041" lon="-0.372313">
        <ele>836.0</ele>
        <time>2019-03-26T09:03:35.000Z</time>
      </trkpt>
      <trkpt lat="42.54507" lon="-0.37231">
        <ele>836.0</ele>
        <time>2019-03-26T09:03:36.000Z</time>
      </trkpt>
      <trkpt lat="42.545101" lon="-0.372303">
        <ele>836.0</ele>
        <time>2019-03-26T09:03:37.000Z</time>
      </trkpt>
      <trkpt lat="42.545132" lon="-0.372292">
        <ele>836.0</ele>
        <time>2019-03-26T09:03:38.000Z</time>
      </trkpt>
      <trkpt lat="42.545163" lon="-0.372278">
        <ele>836.0</ele>
        <time>2019-03-26T09:03:39.000Z</time>
      </trkpt>
      <trkpt lat="42.545195" lon="-0.372262">
        <ele>836.0</ele>
        <time>2019-03-26T09:03:40.000Z</time>
      </trkpt>
      <trkpt lat="42.545228" lon="-0.372246">
        <ele>836.0</ele>
        <time>2019-03-26T09:03:41.000Z</time>
      </trkpt>
      <trkpt lat="42.545261" lon="-0.372229">
        <ele>836.0</ele>
        <time>2019-03-26T09:03:42.000Z</time>
      </trkpt>
      <trkpt lat="42.545295" lon="-0.372215">
        <ele>836.0</ele>
        <time>2019-03-26T09:03:43.000Z</time>
      </trkpt>
      <trkpt lat="42.545329" lon="-0.372203">
        <ele>836.0</ele>
        <time>2019-03-26T09:03:44.000Z</time>
      </trkpt>
      <trkpt lat="42.545365" lon="-0.372195">
        <ele>836.0</ele>
        <time>2019-03-26T09:03:45.000Z</time>
      </trkpt>
      <trkpt lat="42.5454" lon="-0.372189">
        <ele>836.0</ele>
        <time>2019-03-26T09:03:46.000Z</time>
      </trkpt>
      <trkpt lat="42.545437" lon="-0.372187">
        <ele>836.0</ele>
        <time>2019-03-26T09:03:47.000Z</time>
      </trkpt>
      <trkpt lat="42.545474" lon="-0.372186">
        <ele>836.0</ele>
        <time>2019-03-26T09:03:48.000Z</time>
      </trkpt>
      <trkpt lat="42.545511" lon="-0.372185">
        <ele>836.0</ele>
        <time>2019-03-26T09:03:49.000Z</time>
      </trkpt>
      <trkpt lat="42.545548" lon="-0.372185">
        <ele>836.0</ele>
        <time>2019-03-26T09:03:50.000Z</time>
      </trkpt>
      <trkpt lat="42.545585" lon="-0.372184">
        <ele>836.0</ele>
        <time>2019-03-26T09:03:51.000Z</time>
      </trkpt>
      <trkpt lat="42.545623" lon="-0.372182">
        <ele>836.0</ele>
        <time>2019-03-26T09:03:52.000Z</time>
      </trkpt>
      <trkpt lat="42.54566" lon="-0.372179">
        <ele>836.0</ele>
        <time>2019-03-26T09:03:53.000Z</time>
      </trkpt>
      <trkpt lat="42.545698" lon="-0.372174">
        <ele>836.0</ele>
        <time>2019-03-26T09:03:54.000Z</time>
      </trkpt>
      <trkpt lat="42.545736" lon="-0.372168">
        <ele>837.0</ele>
        <time>2019-03-26T09:03:55.000Z</time>
      </trkpt>
      <trkpt lat="42.545774" lon="-0.37216">
        <ele>837.0</ele>
        <time>2019-03-26T09:03:56.000Z</time>
      </trkpt>
      <trkpt lat="42.545811" lon="-0.372151">
        <ele>837.0</ele>
        <time>2019-03-26T09:03:57.000Z</time>
      </trkpt>
      <trkpt lat="42.545849" lon="-0.37214">
        <ele>837.0</ele>
        <time>2019-03-26T09:03:58.000Z</time>
      </trkpt>
      <trkpt lat="42.545887" lon="-0.372128">
        <ele>836.0</ele>
        <time>2019-03-26T09:03:59.000Z</time>
      </trkpt>
      <trkpt lat="42.545925" lon="-0.372116">
        <ele>836.0</ele>
        <time>2019-03-26T09:04:00.000Z</time>
      </trkpt>
      <trkpt lat="42.545963" lon="-0.372104">
        <ele>837.0</ele>
        <time>2019-03-26T09:04:01.000Z</time>
      </trkpt>
      <trkpt lat="42.546" lon="-0.372093">
        <ele>837.0</ele>
        <time>2019-03-26T09:04:02.000Z</time>
      </trkpt>
      <trkpt lat="42.546038" lon="-0.372084">
        <ele>837.0</ele>
        <time>2019-03-26T09:04:03.000Z</time>
      </trkpt>
      <trkpt lat="42.546076" lon="-0.372078">
        <ele>837.0</ele>
        <time>2019-03-26T09:04:04.000Z</time>
      </trkpt>
      <trkpt lat="42.546113" lon="-0.372075">
        <ele>837.0</ele>
        <time>2019-03-26T09:04:05.000Z</time>
      </trkpt>
      <trkpt lat="42.546151" lon="-0.372077">
        <ele>837.0</ele>
        <time>2019-03-26T09:04:06.000Z</time>
      </trkpt>
      <trkpt lat="42.546188" lon="-0.372083">
        <ele>837.0</ele>
        <time>2019-03-26T09:04:07.000Z</time>
      </trkpt>
      <trkpt lat="42.546226" lon="-0.372092">
        <ele>837.0</ele>
        <time>2019-03-26T09:04:08.000Z</time>
      </trkpt>
      <trkpt lat="42.546263" lon="-0.372102">
        <ele>836.0</ele>
        <time>2019-03-26T09:04:09.000Z</time>
      </trkpt>
      <trkpt lat="42.5463" lon="-0.372114">
        <ele>836.0</ele>
        <time>2019-03-26T09:04:10.000Z</time>
      </trkpt>
      <trkpt lat="42.546337" lon="-0.372125">
        <ele>836.0</ele>
        <time>2019-03-26T09:04:11.000Z</time>
      </trkpt>
      <trkpt lat="42.546374" lon="-0.372136">
        <ele>836.0</ele>
        <time>2019-03-26T09:04:12.000Z</time>
      </trkpt>
      <trkpt lat="42.546411" lon="-0.372145">
        <ele>837.0</ele>
        <time>2019-03-26T09:04:13.000Z</time>
      </trkpt>
      <trkpt lat="42.546447" lon="-0.372153">
        <ele>837.0</ele>
        <time>2019-03-26T09:04:14.000Z</time>
      </trkpt>
      <trkpt lat="42.546484" lon="-0.37216">
        <ele>837.0</ele>
        <time>2019-03-26T09:04:15.000Z</time>
      </trkpt>
      <trkpt lat="42.54652" lon="-0.372168">
        <ele>837.0</ele>
        <time>2019-03-26T09:04:16.000Z</time>
      </trkpt>
      <trkpt lat="42.546556" lon="-0.372176">
        <ele>837.0</ele>
        <time>2019-03-26T09:04:17.000Z</time>
      </trkpt>
      <trkpt lat="42.546591" lon="-0.372187">
        <ele>837.0</ele>
        <time>2019-03-26T09:04:18.000Z</time>
      </trkpt>
      <trkpt lat="42.546626" lon="-0.372199">
        <ele>837.0</ele>
        <time>2019-03-26T09:04:19.000Z</time>
      </trkpt>
      <trkpt lat="42.546661" lon="-0.372214">
        <ele>837.0</ele>
        <time>2019-03-26T09:04:20.000Z</time>
      </trkpt>
      <trkpt lat="42.546694" lon="-0.37223">
        <ele>837.0</ele>
        <time>2019-03-26T09:04:21.000Z</time>
      </trkpt>
      <trkpt lat="42.546728" lon="-0.372249">
        <ele>837.0</ele>
        <time>2019-03-26T09:04:22.000Z</time>
      </trkpt>
      <trkpt lat="42.54676" lon="-0.372269">
        <ele>837.0</ele>
        <time>2019-03-26T09:04:23.000Z</time>
      </trkpt>
      <trkpt lat="42.546791" lon="-0.37229">
        <ele>837.0</ele>
        <time>2019-03-26T09:04:24.000Z</time>
      </trkpt>
      <trkpt lat="42.54682" lon="-0.372313">
        <ele>837.0</ele>
        <time>2019-03-26T09:04:25.000Z</time>
      </trkpt>
      <trkpt lat="42.546849" lon="-0.372337">
        <ele>837.0</ele>
        <time>2019-03-26T09:04:26.000Z</time>
      </trkpt>
      <trkpt lat="42.546876" lon="-0.372361">
        <ele>837.0</ele>
        <time>2019-03-26T09:04:27.000Z</time>
      </trkpt>
      <trkpt lat="42.546903" lon="-0.372386">
        <ele>837.0</ele>
        <time>2019-03-26T09:04:28.000Z</time>
      </trkpt>
      <trkpt lat="42.546929" lon="-0.372412">
        <ele>838.0</ele>
        <time>2019-03-26T09:04:29.000Z</time>
      </trkpt>
      <trkpt lat="42.546954" lon="-0.372436">
        <ele>838.0</ele>
        <time>2019-03-26T09:04:30.000Z</time>
      </trkpt>
      <trkpt lat="42.54698" lon="-0.372461">
        <ele>838.0</ele>
        <time>2019-03-26T09:04:31.000Z</time>
      </trkpt>
      <trkpt lat="42.547006" lon="-0.372484">
        <ele>838.0</ele>
        <time>2019-03-26T09:04:32.000Z</time>
      </trkpt>
      <trkpt lat="42.547032" lon="-0.372506">
        <ele>838.0</ele>
        <time>2019-03-26T09:04:33.000Z</time>
      </trkpt>
      <trkpt lat="42.547058" lon="-0.372526">
        <ele>838.0</ele>
        <time>2019-03-26T09:04:34.000Z</time>
      </trkpt>
      <trkpt lat="42.547083" lon="-0.372543">
        <ele>839.0</ele>
        <time>2019-03-26T09:04:35.000Z</time>
      </trkpt>
      <trkpt lat="42.547108" lon="-0.372555">
        <ele>839.0</ele>
        <time>2019-03-26T09:04:36.000Z</time>
      </trkpt>
      <trkpt lat="42.547131" lon="-0.372564">
        <ele>839.0</ele>
        <time>2019-03-26T09:04:37.000Z</time>
      </trkpt>
      <trkpt lat="42.547153" lon="-0.372569">
        <ele>839.0</ele>
        <time>2019-03-26T09:04:38.000Z</time>
      </trkpt>
      <trkpt lat="42.547175" lon="-0.372574">
        <ele>839.0</ele>
        <time>2019-03-26T09:04:39.000Z</time>
      </trkpt>
      <trkpt lat="42.547197" lon="-0.37258">
        <ele>839.0</ele>
        <time>2019-03-26T09:04:40.000Z</time>
      </trkpt>
      <trkpt lat="42.54722" lon="-0.372587">
        <ele>839.0</ele>
        <time>2019-03-26T09:04:41.000Z</time>
      </trkpt>
      <trkpt lat="42.547242" lon="-0.372595">
        <ele>839.0</ele>
        <time>2019-03-26T09:04:42.000Z</time>
      </trkpt>
      <trkpt lat="42.547265" lon="-0.372605">
        <ele>840.0</ele>
        <time>2019-03-26T09:04:43.000Z</time>
      </trkpt>
      <trkpt lat="42.547288" lon="-0.372614">
        <ele>840.0</ele>
        <time>2019-03-26T09:04:44.000Z</time>
      </trkpt>
      <trkpt lat="42.547311" lon="-0.372624">
        <ele>840.0</ele>
        <time>2019-03-26T09:04:45.000Z</time>
      </trkpt>
      <trkpt lat="42.547334" lon="-0.372635">
        <ele>840.0</ele>
        <time>2019-03-26T09:04:46.000Z</time>
      </trkpt>
      <trkpt lat="42.547358" lon="-0.372645">
        <ele>840.0</ele>
        <time>2019-03-26T09:04:47.000Z</time>
      </trkpt>
      <trkpt lat="42.547381" lon="-0.372655">
        <ele>840.0</ele>
        <time>2019-03-26T09:04:48.000Z</time>
      </trkpt>
      <trkpt lat="42.547405" lon="-0.372666">
        <ele>840.0</ele>
        <time>2019-03-26T09:04:49.000Z</time>
      </trkpt>
      <trkpt lat="42.547428" lon="-0.372676">
        <ele>840.0</ele>
        <time>2019-03-26T09:04:50.000Z</time>
      </trkpt>
      <trkpt lat="42.547452" lon="-0.372687">
        <ele>840.0</ele>
        <time>2019-03-26T09:04:51.000Z</time>
      </trkpt>
      <trkpt lat="42.547475" lon="-0.372697">
        <ele>840.0</ele>
        <time>2019-03-26T09:04:52.000Z</time>
      </trkpt>
      <trkpt lat="42.547499" lon="-0.372707">
        <ele>840.0</ele>
        <time>2019-03-26T09:04:53.000Z</time>
      </trkpt>
      <trkpt lat="42.547522" lon="-0.372718">
        <ele>840.0</ele>
        <time>2019-03-26T09:04:54.000Z</time>
      </trkpt>
      <trkpt lat="42.547546" lon="-0.372729">
        <ele>840.0</ele>
        <time>2019-03-26T09:04:55.000Z</time>
      </trkpt>
      <trkpt lat="42.547569" lon="-0.372739">
        <ele>840.0</ele>
        <time>2019-03-26T09:04:56.000Z</time>
      </trkpt>
      <trkpt lat="42.547593" lon="-0.37275">
        <ele>841.0</ele>
        <time>2019-03-26T09:04:57.000Z</time>
      </trkpt>
      <trkpt lat="42.547616" lon="-0.372761">
        <ele>841.0</ele>
        <time>2019-03-26T09:04:58.000Z</time>
      </trkpt>
      <trkpt lat="42.547639" lon="-0.372772">
        <ele>841.0</ele>
        <time>2019-03-26T09:04:59.000Z</time>
      </trkpt>
      <trkpt lat="42.547662" lon="-0.372783">
        <ele>841.0</ele>
        <time>2019-03-26T09:05:00.000Z</time>
      </trkpt>
      <trkpt lat="42.547685" lon="-0.372795">
        <ele>841.0</ele>
        <time>2019-03-26T09:05:01.000Z</time>
      </trkpt>
      <trkpt lat="42.547708" lon="-0.372806">
        <ele>841.0</ele>
        <time>2019-03-26T09:05:02.000Z</time>
      </trkpt>
      <trkpt lat="42.547731" lon="-0.372818">
        <ele>841.0</ele>
        <time>2019-03-26T09:05:03.000Z</time>
      </trkpt>
      <trkpt lat="42.547753" lon="-0.372829">
        <ele>841.0</ele>
        <time>2019-03-26T09:05:04.000Z</time>
      </trkpt>
      <trkpt lat="42.547776" lon="-0.372841">
        <ele>841.0</ele>
        <time>2019-03-26T09:05:05.000Z</time>
      </trkpt>
      <trkpt lat="42.547798" lon="-0.372853">
        <ele>842.0</ele>
        <time>2019-03-26T09:05:06.000Z</time>
      </trkpt>
      <trkpt lat="42.54782" lon="-0.372865">
        <ele>842.0</ele>
        <time>2019-03-26T09:05:07.000Z</time>
      </trkpt>
      <trkpt lat="42.547842" lon="-0.372878">
        <ele>842.0</ele>
        <time>2019-03-26T09:05:08.000Z</time>
      </trkpt>
      <trkpt lat="42.547864" lon="-0.37289">
        <ele>842.0</ele>
        <time>2019-03-26T09:05:09.000Z</time>
      </trkpt>
      <trkpt lat="42.547886" lon="-0.372903">
        <ele>842.0</ele>
        <time>2019-03-26T09:05:10.000Z</time>
      </trkpt>
      <trkpt lat="42.547908" lon="-0.372915">
        <ele>842.0</ele>
        <time>2019-03-26T09:05:11.000Z</time>
      </trkpt>
      <trkpt lat="42.54793" lon="-0.372928">
        <ele>842.0</ele>
        <time>2019-03-26T09:05:12.000Z</time>
      </trkpt>
      <trkpt lat="42.547952" lon="-0.372941">
        <ele>842.0</ele>
        <time>2019-03-26T09:05:13.000Z</time>
      </trkpt>
      <trkpt lat="42.547974" lon="-0.372954">
        <ele>843.0</ele>
        <time>2019-03-26T09:05:14.000Z</time>
      </trkpt>
      <trkpt lat="42.547995" lon="-0.372967">
        <ele>843.0</ele>
        <time>2019-03-26T09:05:15.000Z</time>
      </trkpt>
      <trkpt lat="42.548017" lon="-0.372981">
        <ele>843.0</ele>
        <time>2019-03-26T09:05:16.000Z</time>
      </trkpt>
      <trkpt lat="42.548039" lon="-0.372994">
        <ele>843.0</ele>
        <time>2019-03-26T09:05:17.000Z</time>
      </trkpt>
      <trkpt lat="42.548061" lon="-0.373007">
        <ele>843.0</ele>
        <time>2019-03-26T09:05:18.000Z</time>
      </trkpt>
      <trkpt lat="42.548083" lon="-0.37302">
        <ele>843.0</ele>
        <time>2019-03-26T09:05:19.000Z</time>
      </trkpt>
      <trkpt lat="42.548105" lon="-0.373033">
        <ele>843.0</ele>
        <time>2019-03-26T09:05:20.000Z</time>
      </trkpt>
      <trkpt lat="42.548127" lon="-0.373045">
        <ele>843.0</ele>
        <time>2019-03-26T09:05:21.000Z</time>
      </trkpt>
      <trkpt lat="42.548149" lon="-0.373058">
        <ele>844.0</ele>
        <time>2019-03-26T09:05:22.000Z</time>
      </trkpt>
      <trkpt lat="42.548172" lon="-0.37307">
        <ele>844.0</ele>
        <time>2019-03-26T09:05:23.000Z</time>
      </trkpt>
      <trkpt lat="42.548194" lon="-0.373082">
        <ele>844.0</ele>
        <time>2019-03-26T09:05:24.000Z</time>
      </trkpt>
      <trkpt lat="42.548217" lon="-0.373093">
        <ele>844.0</ele>
        <time>2019-03-26T09:05:25.000Z</time>
      </trkpt>
      <trkpt lat="42.54824" lon="-0.373104">
        <ele>844.0</ele>
        <time>2019-03-26T09:05:26.000Z</time>
      </trkpt>
      <trkpt lat="42.548263" lon="-0.373115">
        <ele>844.0</ele>
        <time>2019-03-26T09:05:27.000Z</time>
      </trkpt>
      <trkpt lat="42.548287" lon="-0.373125">
        <ele>844.0</ele>
        <time>2019-03-26T09:05:28.000Z</time>
      </trkpt>
      <trkpt lat="42.548311" lon="-0.373135">
        <ele>844.0</ele>
        <time>2019-03-26T09:05:29.000Z</time>
      </trkpt>
      <trkpt lat="42.548335" lon="-0.373144">
        <ele>844.0</ele>
        <time>2019-03-26T09:05:30.000Z</time>
      </trkpt>
      <trkpt lat="42.548359" lon="-0.373152">
        <ele>844.0</ele>
        <time>2019-03-26T09:05:31.000Z</time>
      </trkpt>
      <trkpt lat="42.548383" lon="-0.373161">
        <ele>844.0</ele>
        <time>2019-03-26T09:05:32.000Z</time>
      </trkpt>
      <trkpt lat="42.548407" lon="-0.373169">
        <ele>845.0</ele>
        <time>2019-03-26T09:05:33.000Z</time>
      </trkpt>
      <trkpt lat="42.548432" lon="-0.373176">
        <ele>845.0</ele>
        <time>2019-03-26T09:05:34.000Z</time>
      </trkpt>
      <trkpt lat="42.548456" lon="-0.373184">
        <ele>845.0</ele>
        <time>2019-03-26T09:05:35.000Z</time>
      </trkpt>
      <trkpt lat="42.548481" lon="-0.373191">
        <ele>845.0</ele>
        <time>2019-03-26T09:05:36.000Z</time>
      </trkpt>
      <trkpt lat="42.548506" lon="-0.373198">
        <ele>845.0</ele>
        <time>2019-03-26T09:05:37.000Z</time>
      </trkpt>
      <trkpt lat="42.54853" lon="-0.373205">
        <ele>845.0</ele>
        <time>2019-03-26T09:05:38.000Z</time>
      </trkpt>
      <trkpt lat="42.548555" lon="-0.373211">
        <ele>845.0</ele>
        <time>2019-03-26T09:05:39.000Z</time>
      </trkpt>
      <trkpt lat="42.54858" lon="-0.373218">
        <ele>845.0</ele>
        <time>2019-03-26T09:05:40.000Z</time>
      </trkpt>
      <trkpt lat="42.548604" lon="-0.373224">
        <ele>845.0</ele>
        <time>2019-03-26T09:05:41.000Z</time>
      </trkpt>
      <trkpt lat="42.548628" lon="-0.373231">
        <ele>846.0</ele>
        <time>2019-03-26T09:05:42.000Z</time>
      </trkpt>
      <trkpt lat="42.548653" lon="-0.373237">
        <ele>846.0</ele>
        <time>2019-03-26T09:05:43.000Z</time>
      </trkpt>
      <trkpt lat="42.548677" lon="-0.373243">
        <ele>846.0</ele>
        <time>2019-03-26T09:05:44.000Z</time>
      </trkpt>
      <trkpt lat="42.548701" lon="-0.373249">
        <ele>846.0</ele>
        <time>2019-03-26T09:05:45.000Z</time>
      </trkpt>
      <trkpt lat="42.548726" lon="-0.373255">
        <ele>846.0</ele>
        <time>2019-03-26T09:05:46.000Z</time>
      </trkpt>
      <trkpt lat="42.54875" lon="-0.373261">
        <ele>846.0</ele>
        <time>2019-03-26T09:05:47.000Z</time>
      </trkpt>
      <trkpt lat="42.548774" lon="-0.373266">
        <ele>846.0</ele>
        <time>2019-03-26T09:05:48.000Z</time>
      </trkpt>
      <trkpt lat="42.548798" lon="-0.373271">
        <ele>846.0</ele>
        <time>2019-03-26T09:05:49.000Z</time>
      </trkpt>
      <trkpt lat="42.548823" lon="-0.373276">
        <ele>846.0</ele>
        <time>2019-03-26T09:05:50.000Z</time>
      </trkpt>
      <trkpt lat="42.548847" lon="-0.373281">
        <ele>846.0</ele>
        <time>2019-03-26T09:05:51.000Z</time>
      </trkpt>
      <trkpt lat="42.548871" lon="-0.373285">
        <ele>846.0</ele>
        <time>2019-03-26T09:05:52.000Z</time>
      </trkpt>
      <trkpt lat="42.548895" lon="-0.37329">
        <ele>846.0</ele>
        <time>2019-03-26T09:05:53.000Z</time>
      </trkpt>
      <trkpt lat="42.54892" lon="-0.373294">
        <ele>847.0</ele>
        <time>2019-03-26T09:05:54.000Z</time>
      </trkpt>
      <trkpt lat="42.548944" lon="-0.373299">
        <ele>847.0</ele>
        <time>2019-03-26T09:05:55.000Z</time>
      </trkpt>
      <trkpt lat="42.548969" lon="-0.373304">
        <ele>847.0</ele>
        <time>2019-03-26T09:05:56.000Z</time>
      </trkpt>
      <trkpt lat="42.548993" lon="-0.37331">
        <ele>847.0</ele>
        <time>2019-03-26T09:05:57.000Z</time>
      </trkpt>
      <trkpt lat="42.549016" lon="-0.373317">
        <ele>847.0</ele>
        <time>2019-03-26T09:05:58.000Z</time>
      </trkpt>
      <trkpt lat="42.549039" lon="-0.373327">
        <ele>847.0</ele>
        <time>2019-03-26T09:05:59.000Z</time>
      </trkpt>
      <trkpt lat="42.54906" lon="-0.37334">
        <ele>847.0</ele>
        <time>2019-03-26T09:06:00.000Z</time>
      </trkpt>
      <trkpt lat="42.549081" lon="-0.373353">
        <ele>847.0</ele>
        <time>2019-03-26T09:06:01.000Z</time>
      </trkpt>
      <trkpt lat="42.549103" lon="-0.373365">
        <ele>847.0</ele>
        <time>2019-03-26T09:06:02.000Z</time>
      </trkpt>
      <trkpt lat="42.549124" lon="-0.373374">
        <ele>847.0</ele>
        <time>2019-03-26T09:06:03.000Z</time>
      </trkpt>
      <trkpt lat="42.549147" lon="-0.373381">
        <ele>848.0</ele>
        <time>2019-03-26T09:06:04.000Z</time>
      </trkpt>
      <trkpt lat="42.549169" lon="-0.373385">
        <ele>848.0</ele>
        <time>2019-03-26T09:06:05.000Z</time>
      </trkpt>
      <trkpt lat="42.549193" lon="-0.373387">
        <ele>848.0</ele>
        <time>2019-03-26T09:06:06.000Z</time>
      </trkpt>
      <trkpt lat="42.549217" lon="-0.373388">
        <ele>848.0</ele>
        <time>2019-03-26T09:06:07.000Z</time>
      </trkpt>
      <trkpt lat="42.549242" lon="-0.373387">
        <ele>848.0</ele>
        <time>2019-03-26T09:06:08.000Z</time>
      </trkpt>
      <trkpt lat="42.549267" lon="-0.373386">
        <ele>848.0</ele>
        <time>2019-03-26T09:06:09.000Z</time>
      </trkpt>
      <trkpt lat="42.549292" lon="-0.373385">
        <ele>848.0</ele>
        <time>2019-03-26T09:06:10.000Z</time>
      </trkpt>
      <trkpt lat="42.549318" lon="-0.373384">
        <ele>848.0</ele>
        <time>2019-03-26T09:06:11.000Z</time>
      </trkpt>
      <trkpt lat="42.549344" lon="-0.373384">
        <ele>848.0</ele>
        <time>2019-03-26T09:06:12.000Z</time>
      </trkpt>
      <trkpt lat="42.54937" lon="-0.373384">
        <ele>848.0</ele>
        <time>2019-03-26T09:06:13.000Z</time>
      </trkpt>
      <trkpt lat="42.549396" lon="-0.373385">
        <ele>849.0</ele>
        <time>2019-03-26T09:06:14.000Z</time>
      </trkpt>
      <trkpt lat="42.549421" lon="-0.373387">
        <ele>849.0</ele>
        <time>2019-03-26T09:06:15.000Z</time>
      </trkpt>
      <trkpt lat="42.549445" lon="-0.373391">
        <ele>849.0</ele>
        <time>2019-03-26T09:06:16.000Z</time>
      </trkpt>
      <trkpt lat="42.54947" lon="-0.373396">
        <ele>849.0</ele>
        <time>2019-03-26T09:06:17.000Z</time>
      </trkpt>
      <trkpt lat="42.549493" lon="-0.373402">
        <ele>849.0</ele>
        <time>2019-03-26T09:06:18.000Z</time>
      </trkpt>
      <trkpt lat="42.549517" lon="-0.37341">
        <ele>849.0</ele>
        <time>2019-03-26T09:06:19.000Z</time>
      </trkpt>
      <trkpt lat="42.54954" lon="-0.373418">
        <ele>849.0</ele>
        <time>2019-03-26T09:06:20.000Z</time>
      </trkpt>
      <trkpt lat="42.549564" lon="-0.373426">
        <ele>849.0</ele>
        <time>2019-03-26T09:06:21.000Z</time>
      </trkpt>
      <trkpt lat="42.549587" lon="-0.373435">
        <ele>849.0</ele>
        <time>2019-03-26T09:06:22.000Z</time>
      </trkpt>
      <trkpt lat="42.54961" lon="-0.373444">
        <ele>849.0</ele>
        <time>2019-03-26T09:06:23.000Z</time>
      </trkpt>
      <trkpt lat="42.549634" lon="-0.373453">
        <ele>850.0</ele>
        <time>2019-03-26T09:06:24.000Z</time>
      </trkpt>
      <trkpt lat="42.549657" lon="-0.373462">
        <ele>850.0</ele>
        <time>2019-03-26T09:06:25.000Z</time>
      </trkpt>
      <trkpt lat="42.549681" lon="-0.373471">
        <ele>850.0</ele>
        <time>2019-03-26T09:06:26.000Z</time>
      </trkpt>
      <trkpt lat="42.549705" lon="-0.37348">
        <ele>850.0</ele>
        <time>2019-03-26T09:06:27.000Z</time>
      </trkpt>
      <trkpt lat="42.549728" lon="-0.373489">
        <ele>850.0</ele>
        <time>2019-03-26T09:06:28.000Z</time>
      </trkpt>
      <trkpt lat="42.549752" lon="-0.373498">
        <ele>850.0</ele>
        <time>2019-03-26T09:06:29.000Z</time>
      </trkpt>
      <trkpt lat="42.549776" lon="-0.373508">
        <ele>850.0</ele>
        <time>2019-03-26T09:06:30.000Z</time>
      </trkpt>
      <trkpt lat="42.5498" lon="-0.373518">
        <ele>850.0</ele>
        <time>2019-03-26T09:06:31.000Z</time>
      </trkpt>
      <trkpt lat="42.549823" lon="-0.373528">
        <ele>850.0</ele>
        <time>2019-03-26T09:06:32.000Z</time>
      </trkpt>
      <trkpt lat="42.549846" lon="-0.373539">
        <ele>850.0</ele>
        <time>2019-03-26T09:06:33.000Z</time>
      </trkpt>
      <trkpt lat="42.549869" lon="-0.373551">
        <ele>850.0</ele>
        <time>2019-03-26T09:06:34.000Z</time>
      </trkpt>
      <trkpt lat="42.54989" lon="-0.373564">
        <ele>851.0</ele>
        <time>2019-03-26T09:06:35.000Z</time>
      </trkpt>
      <trkpt lat="42.549911" lon="-0.373578">
        <ele>851.0</ele>
        <time>2019-03-26T09:06:36.000Z</time>
      </trkpt>
      <trkpt lat="42.54993" lon="-0.373593">
        <ele>851.0</ele>
        <time>2019-03-26T09:06:37.000Z</time>
      </trkpt>
      <trkpt lat="42.549948" lon="-0.373609">
        <ele>851.0</ele>
        <time>2019-03-26T09:06:38.000Z</time>
      </trkpt>
      <trkpt lat="42.549966" lon="-0.373626">
        <ele>851.0</ele>
        <time>2019-03-26T09:06:39.000Z</time>
      </trkpt>
      <trkpt lat="42.549982" lon="-0.373644">
        <ele>851.0</ele>
        <time>2019-03-26T09:06:40.000Z</time>
      </trkpt>
      <trkpt lat="42.549998" lon="-0.373663">
        <ele>851.0</ele>
        <time>2019-03-26T09:06:41.000Z</time>
      </trkpt>
      <trkpt lat="42.550012" lon="-0.373683">
        <ele>851.0</ele>
        <time>2019-03-26T09:06:42.000Z</time>
      </trkpt>
      <trkpt lat="42.550027" lon="-0.373703">
        <ele>851.0</ele>
        <time>2019-03-26T09:06:43.000Z</time>
      </trkpt>
      <trkpt lat="42.55004" lon="-0.373724">
        <ele>852.0</ele>
        <time>2019-03-26T09:06:44.000Z</time>
      </trkpt>
      <trkpt lat="42.550054" lon="-0.373745">
        <ele>852.0</ele>
        <time>2019-03-26T09:06:45.000Z</time>
      </trkpt>
      <trkpt lat="42.550067" lon="-0.373766">
        <ele>852.0</ele>
        <time>2019-03-26T09:06:46.000Z</time>
      </trkpt>
      <trkpt lat="42.55008" lon="-0.373787">
        <ele>852.0</ele>
        <time>2019-03-26T09:06:47.000Z</time>
      </trkpt>
      <trkpt lat="42.550094" lon="-0.373807">
        <ele>852.0</ele>
        <time>2019-03-26T09:06:48.000Z</time>
      </trkpt>
      <trkpt lat="42.550108" lon="-0.373827">
        <ele>852.0</ele>
        <time>2019-03-26T09:06:49.000Z</time>
      </trkpt>
      <trkpt lat="42.550122" lon="-0.373846">
        <ele>853.0</ele>
        <time>2019-03-26T09:06:50.000Z</time>
      </trkpt>
      <trkpt lat="42.550137" lon="-0.373863">
        <ele>853.0</ele>
        <time>2019-03-26T09:06:51.000Z</time>
      </trkpt>
      <trkpt lat="42.550153" lon="-0.37388">
        <ele>853.0</ele>
        <time>2019-03-26T09:06:52.000Z</time>
      </trkpt>
      <trkpt lat="42.550169" lon="-0.373896">
        <ele>853.0</ele>
        <time>2019-03-26T09:06:53.000Z</time>
      </trkpt>
      <trkpt lat="42.550186" lon="-0.373912">
        <ele>853.0</ele>
        <time>2019-03-26T09:06:54.000Z</time>
      </trkpt>
      <trkpt lat="42.550203" lon="-0.373926">
        <ele>853.0</ele>
        <time>2019-03-26T09:06:55.000Z</time>
      </trkpt>
      <trkpt lat="42.550221" lon="-0.373941">
        <ele>854.0</ele>
        <time>2019-03-26T09:06:56.000Z</time>
      </trkpt>
      <trkpt lat="42.550238" lon="-0.373955">
        <ele>854.0</ele>
        <time>2019-03-26T09:06:57.000Z</time>
      </trkpt>
      <trkpt lat="42.550256" lon="-0.373969">
        <ele>854.0</ele>
        <time>2019-03-26T09:06:58.000Z</time>
      </trkpt>
      <trkpt lat="42.550274" lon="-0.373983">
        <ele>854.0</ele>
        <time>2019-03-26T09:06:59.000Z</time>
      </trkpt>
      <trkpt lat="42.550293" lon="-0.373997">
        <ele>854.0</ele>
        <time>2019-03-26T09:07:00.000Z</time>
      </trkpt>
      <trkpt lat="42.550311" lon="-0.374012">
        <ele>854.0</ele>
        <time>2019-03-26T09:07:01.000Z</time>
      </trkpt>
      <trkpt lat="42.550329" lon="-0.374027">
        <ele>854.0</ele>
        <time>2019-03-26T09:07:02.000Z</time>
      </trkpt>
      <trkpt lat="42.550347" lon="-0.374043">
        <ele>855.0</ele>
        <time>2019-03-26T09:07:03.000Z</time>
      </trkpt>
      <trkpt lat="42.550364" lon="-0.37406">
        <ele>855.0</ele>
        <time>2019-03-26T09:07:04.000Z</time>
      </trkpt>
      <trkpt lat="42.550382" lon="-0.374077">
        <ele>855.0</ele>
        <time>2019-03-26T09:07:05.000Z</time>
      </trkpt>
      <trkpt lat="42.550399" lon="-0.374095">
        <ele>855.0</ele>
        <time>2019-03-26T09:07:06.000Z</time>
      </trkpt>
      <trkpt lat="42.550416" lon="-0.374114">
        <ele>855.0</ele>
        <time>2019-03-26T09:07:07.000Z</time>
      </trkpt>
      <trkpt lat="42.550433" lon="-0.374134">
        <ele>855.0</ele>
        <time>2019-03-26T09:07:08.000Z</time>
      </trkpt>
      <trkpt lat="42.550449" lon="-0.374154">
        <ele>856.0</ele>
        <time>2019-03-26T09:07:09.000Z</time>
      </trkpt>
      <trkpt lat="42.550466" lon="-0.374174">
        <ele>856.0</ele>
        <time>2019-03-26T09:07:10.000Z</time>
      </trkpt>
      <trkpt lat="42.550482" lon="-0.374195">
        <ele>856.0</ele>
        <time>2019-03-26T09:07:11.000Z</time>
      </trkpt>
      <trkpt lat="42.550498" lon="-0.374217">
        <ele>856.0</ele>
        <time>2019-03-26T09:07:12.000Z</time>
      </trkpt>
      <trkpt lat="42.550513" lon="-0.374238">
        <ele>856.0</ele>
        <time>2019-03-26T09:07:13.000Z</time>
      </trkpt>
      <trkpt lat="42.550529" lon="-0.37426">
        <ele>856.0</ele>
        <time>2019-03-26T09:07:14.000Z</time>
      </trkpt>
      <trkpt lat="42.550544" lon="-0.374282">
        <ele>856.0</ele>
        <time>2019-03-26T09:07:15.000Z</time>
      </trkpt>
      <trkpt lat="42.550559" lon="-0.374305">
        <ele>856.0</ele>
        <time>2019-03-26T09:07:16.000Z</time>
      </trkpt>
      <trkpt lat="42.550574" lon="-0.374327">
        <ele>857.0</ele>
        <time>2019-03-26T09:07:17.000Z</time>
      </trkpt>
      <trkpt lat="42.550588" lon="-0.37435">
        <ele>857.0</ele>
        <time>2019-03-26T09:07:18.000Z</time>
      </trkpt>
      <trkpt lat="42.550603" lon="-0.374372">
        <ele>857.0</ele>
        <time>2019-03-26T09:07:19.000Z</time>
      </trkpt>
      <trkpt lat="42.550617" lon="-0.374395">
        <ele>857.0</ele>
        <time>2019-03-26T09:07:20.000Z</time>
      </trkpt>
      <trkpt lat="42.550631" lon="-0.374417">
        <ele>857.0</ele>
        <time>2019-03-26T09:07:21.000Z</time>
      </trkpt>
      <trkpt lat="42.550646" lon="-0.37444">
        <ele>857.0</ele>
        <time>2019-03-26T09:07:22.000Z</time>
      </trkpt>
      <trkpt lat="42.55066" lon="-0.374462">
        <ele>857.0</ele>
        <time>2019-03-26T09:07:23.000Z</time>
      </trkpt>
      <trkpt lat="42.550674" lon="-0.374485">
        <ele>858.0</ele>
        <time>2019-03-26T09:07:24.000Z</time>
      </trkpt>
      <trkpt lat="42.550688" lon="-0.374507">
        <ele>858.0</ele>
        <time>2019-03-26T09:07:25.000Z</time>
      </trkpt>
      <trkpt lat="42.550703" lon="-0.37453">
        <ele>858.0</ele>
        <time>2019-03-26T09:07:26.000Z</time>
      </trkpt>
      <trkpt lat="42.550717" lon="-0.374552">
        <ele>858.0</ele>
        <time>2019-03-26T09:07:27.000Z</time>
      </trkpt>
      <trkpt lat="42.550732" lon="-0.374574">
        <ele>858.0</ele>
        <time>2019-03-26T09:07:28.000Z</time>
      </trkpt>
      <trkpt lat="42.550747" lon="-0.374596">
        <ele>858.0</ele>
        <time>2019-03-26T09:07:29.000Z</time>
      </trkpt>
      <trkpt lat="42.550762" lon="-0.374618">
        <ele>859.0</ele>
        <time>2019-03-26T09:07:30.000Z</time>
      </trkpt>
      <trkpt lat="42.550778" lon="-0.37464">
        <ele>859.0</ele>
        <time>2019-03-26T09:07:31.000Z</time>
      </trkpt>
      <trkpt lat="42.550793" lon="-0.374662">
        <ele>859.0</ele>
        <time>2019-03-26T09:07:32.000Z</time>
      </trkpt>
      <trkpt lat="42.55081" lon="-0.374683">
        <ele>859.0</ele>
        <time>2019-03-26T09:07:33.000Z</time>
      </trkpt>
      <trkpt lat="42.550826" lon="-0.374704">
        <ele>859.0</ele>
        <time>2019-03-26T09:07:34.000Z</time>
      </trkpt>
      <trkpt lat="42.550843" lon="-0.374725">
        <ele>859.0</ele>
        <time>2019-03-26T09:07:35.000Z</time>
      </trkpt>
      <trkpt lat="42.55086" lon="-0.374745">
        <ele>859.0</ele>
        <time>2019-03-26T09:07:36.000Z</time>
      </trkpt>
      <trkpt lat="42.550878" lon="-0.374765">
        <ele>859.0</ele>
        <time>2019-03-26T09:07:37.000Z</time>
      </trkpt>
      <trkpt lat="42.550896" lon="-0.374784">
        <ele>859.0</ele>
        <time>2019-03-26T09:07:38.000Z</time>
      </trkpt>
      <trkpt lat="42.550914" lon="-0.374802">
        <ele>859.0</ele>
        <time>2019-03-26T09:07:39.000Z</time>
      </trkpt>
      <trkpt lat="42.550932" lon="-0.374819">
        <ele>859.0</ele>
        <time>2019-03-26T09:07:40.000Z</time>
      </trkpt>
      <trkpt lat="42.550951" lon="-0.374835">
        <ele>859.0</ele>
        <time>2019-03-26T09:07:41.000Z</time>
      </trkpt>
      <trkpt lat="42.550971" lon="-0.374851">
        <ele>859.0</ele>
        <time>2019-03-26T09:07:42.000Z</time>
      </trkpt>
      <trkpt lat="42.55099" lon="-0.374865">
        <ele>859.0</ele>
        <time>2019-03-26T09:07:43.000Z</time>
      </trkpt>
      <trkpt lat="42.551011" lon="-0.374877">
        <ele>859.0</ele>
        <time>2019-03-26T09:07:44.000Z</time>
      </trkpt>
      <trkpt lat="42.551031" lon="-0.374888">
        <ele>860.0</ele>
        <time>2019-03-26T09:07:45.000Z</time>
      </trkpt>
      <trkpt lat="42.551052" lon="-0.374898">
        <ele>860.0</ele>
        <time>2019-03-26T09:07:46.000Z</time>
      </trkpt>
      <trkpt lat="42.551073" lon="-0.374907">
        <ele>860.0</ele>
        <time>2019-03-26T09:07:47.000Z</time>
      </trkpt>
      <trkpt lat="42.551094" lon="-0.374915">
        <ele>860.0</ele>
        <time>2019-03-26T09:07:48.000Z</time>
      </trkpt>
      <trkpt lat="42.551114" lon="-0.374922">
        <ele>860.0</ele>
        <time>2019-03-26T09:07:49.000Z</time>
      </trkpt>
      <trkpt lat="42.551134" lon="-0.374929">
        <ele>860.0</ele>
        <time>2019-03-26T09:07:50.000Z</time>
      </trkpt>
      <trkpt lat="42.551154" lon="-0.374935">
        <ele>861.0</ele>
        <time>2019-03-26T09:07:51.000Z</time>
      </trkpt>
      <trkpt lat="42.551172" lon="-0.374942">
        <ele>861.0</ele>
        <time>2019-03-26T09:07:52.000Z</time>
      </trkpt>
      <trkpt lat="42.55119" lon="-0.374949">
        <ele>861.0</ele>
        <time>2019-03-26T09:07:53.000Z</time>
      </trkpt>
      <trkpt lat="42.551206" lon="-0.374956">
        <ele>861.0</ele>
        <time>2019-03-26T09:07:54.000Z</time>
      </trkpt>
      <trkpt lat="42.551222" lon="-0.374964">
        <ele>861.0</ele>
        <time>2019-03-26T09:07:55.000Z</time>
      </trkpt>
      <trkpt lat="42.551237" lon="-0.374971">
        <ele>861.0</ele>
        <time>2019-03-26T09:07:56.000Z</time>
      </trkpt>
      <trkpt lat="42.551252" lon="-0.374979">
        <ele>861.0</ele>
        <time>2019-03-26T09:07:57.000Z</time>
      </trkpt>
      <trkpt lat="42.551267" lon="-0.374986">
        <ele>861.0</ele>
        <time>2019-03-26T09:07:58.000Z</time>
      </trkpt>
      <trkpt lat="42.551282" lon="-0.374992">
        <ele>861.0</ele>
        <time>2019-03-26T09:07:59.000Z</time>
      </trkpt>
      <trkpt lat="42.551297" lon="-0.374998">
        <ele>862.0</ele>
        <time>2019-03-26T09:08:00.000Z</time>
      </trkpt>
      <trkpt lat="42.551313" lon="-0.375004">
        <ele>862.0</ele>
        <time>2019-03-26T09:08:01.000Z</time>
      </trkpt>
      <trkpt lat="42.551328" lon="-0.375009">
        <ele>862.0</ele>
        <time>2019-03-26T09:08:02.000Z</time>
      </trkpt>
      <trkpt lat="42.551344" lon="-0.375014">
        <ele>862.0</ele>
        <time>2019-03-26T09:08:03.000Z</time>
      </trkpt>
      <trkpt lat="42.551359" lon="-0.375018">
        <ele>862.0</ele>
        <time>2019-03-26T09:08:04.000Z</time>
      </trkpt>
      <trkpt lat="42.551375" lon="-0.375023">
        <ele>862.0</ele>
        <time>2019-03-26T09:08:05.000Z</time>
      </trkpt>
      <trkpt lat="42.551391" lon="-0.375027">
        <ele>862.0</ele>
        <time>2019-03-26T09:08:06.000Z</time>
      </trkpt>
      <trkpt lat="42.551407" lon="-0.375031">
        <ele>863.0</ele>
        <time>2019-03-26T09:08:07.000Z</time>
      </trkpt>
      <trkpt lat="42.551423" lon="-0.375035">
        <ele>863.0</ele>
        <time>2019-03-26T09:08:08.000Z</time>
      </trkpt>
      <trkpt lat="42.551438" lon="-0.375039">
        <ele>863.0</ele>
        <time>2019-03-26T09:08:09.000Z</time>
      </trkpt>
      <trkpt lat="42.551454" lon="-0.375044">
        <ele>863.0</ele>
        <time>2019-03-26T09:08:10.000Z</time>
      </trkpt>
      <trkpt lat="42.55147" lon="-0.375048">
        <ele>863.0</ele>
        <time>2019-03-26T09:08:11.000Z</time>
      </trkpt>
      <trkpt lat="42.551486" lon="-0.375052">
        <ele>863.0</ele>
        <time>2019-03-26T09:08:12.000Z</time>
      </trkpt>
      <trkpt lat="42.551501" lon="-0.375057">
        <ele>863.0</ele>
        <time>2019-03-26T09:08:13.000Z</time>
      </trkpt>
      <trkpt lat="42.551517" lon="-0.375061">
        <ele>863.0</ele>
        <time>2019-03-26T09:08:14.000Z</time>
      </trkpt>
      <trkpt lat="42.551532" lon="-0.375066">
        <ele>863.0</ele>
        <time>2019-03-26T09:08:15.000Z</time>
      </trkpt>
      <trkpt lat="42.551547" lon="-0.375071">
        <ele>863.0</ele>
        <time>2019-03-26T09:08:16.000Z</time>
      </trkpt>
      <trkpt lat="42.551561" lon="-0.375076">
        <ele>863.0</ele>
        <time>2019-03-26T09:08:17.000Z</time>
      </trkpt>
      <trkpt lat="42.551575" lon="-0.375082">
        <ele>863.0</ele>
        <time>2019-03-26T09:08:18.000Z</time>
      </trkpt>
      <trkpt lat="42.551589" lon="-0.375087">
        <ele>863.0</ele>
        <time>2019-03-26T09:08:19.000Z</time>
      </trkpt>
      <trkpt lat="42.551602" lon="-0.375092">
        <ele>863.0</ele>
        <time>2019-03-26T09:08:20.000Z</time>
      </trkpt>
      <trkpt lat="42.551614" lon="-0.375098">
        <ele>864.0</ele>
        <time>2019-03-26T09:08:21.000Z</time>
      </trkpt>
      <trkpt lat="42.551626" lon="-0.375103">
        <ele>864.0</ele>
        <time>2019-03-26T09:08:22.000Z</time>
      </trkpt>
      <trkpt lat="42.551638" lon="-0.375108">
        <ele>864.0</ele>
        <time>2019-03-26T09:08:23.000Z</time>
      </trkpt>
      <trkpt lat="42.551651" lon="-0.375113">
        <ele>864.0</ele>
        <time>2019-03-26T09:08:24.000Z</time>
      </trkpt>
      <trkpt lat="42.551664" lon="-0.375117">
        <ele>864.0</ele>
        <time>2019-03-26T09:08:25.000Z</time>
      </trkpt>
      <trkpt lat="42.551677" lon="-0.375121">
        <ele>864.0</ele>
        <time>2019-03-26T09:08:26.000Z</time>
      </trkpt>
      <trkpt lat="42.551691" lon="-0.375124">
        <ele>864.0</ele>
        <time>2019-03-26T09:08:27.000Z</time>
      </trkpt>
      <trkpt lat="42.551706" lon="-0.375127">
        <ele>864.0</ele>
        <time>2019-03-26T09:08:28.000Z</time>
      </trkpt>
      <trkpt lat="42.551721" lon="-0.37513">
        <ele>864.0</ele>
        <time>2019-03-26T09:08:29.000Z</time>
      </trkpt>
      <trkpt lat="42.551736" lon="-0.375133">
        <ele>865.0</ele>
        <time>2019-03-26T09:08:30.000Z</time>
      </trkpt>
      <trkpt lat="42.551751" lon="-0.375136">
        <ele>865.0</ele>
        <time>2019-03-26T09:08:31.000Z</time>
      </trkpt>
      <trkpt lat="42.551766" lon="-0.37514">
        <ele>865.0</ele>
        <time>2019-03-26T09:08:32.000Z</time>
      </trkpt>
      <trkpt lat="42.55178" lon="-0.375144">
        <ele>865.0</ele>
        <time>2019-03-26T09:08:33.000Z</time>
      </trkpt>
      <trkpt lat="42.551794" lon="-0.37515">
        <ele>865.0</ele>
        <time>2019-03-26T09:08:34.000Z</time>
      </trkpt>
      <trkpt lat="42.551807" lon="-0.375156">
        <ele>865.0</ele>
        <time>2019-03-26T09:08:35.000Z</time>
      </trkpt>
      <trkpt lat="42.55182" lon="-0.375163">
        <ele>865.0</ele>
        <time>2019-03-26T09:08:36.000Z</time>
      </trkpt>
      <trkpt lat="42.551831" lon="-0.37517">
        <ele>866.0</ele>
        <time>2019-03-26T09:08:37.000Z</time>
      </trkpt>
      <trkpt lat="42.551843" lon="-0.375177">
        <ele>866.0</ele>
        <time>2019-03-26T09:08:38.000Z</time>
      </trkpt>
      <trkpt lat="42.551853" lon="-0.375183">
        <ele>866.0</ele>
        <time>2019-03-26T09:08:39.000Z</time>
      </trkpt>
      <trkpt lat="42.551863" lon="-0.375189">
        <ele>866.0</ele>
        <time>2019-03-26T09:08:40.000Z</time>
      </trkpt>
      <trkpt lat="42.551873" lon="-0.375194">
        <ele>866.0</ele>
        <time>2019-03-26T09:08:41.000Z</time>
      </trkpt>
      <trkpt lat="42.551882" lon="-0.375198">
        <ele>866.0</ele>
        <time>2019-03-26T09:08:42.000Z</time>
      </trkpt>
      <trkpt lat="42.551891" lon="-0.375202">
        <ele>866.0</ele>
        <time>2019-03-26T09:08:43.000Z</time>
      </trkpt>
      <trkpt lat="42.551899" lon="-0.375205">
        <ele>866.0</ele>
        <time>2019-03-26T09:08:44.000Z</time>
      </trkpt>
      <trkpt lat="42.551908" lon="-0.375208">
        <ele>866.0</ele>
        <time>2019-03-26T09:08:45.000Z</time>
      </trkpt>
      <trkpt lat="42.551918" lon="-0.37521">
        <ele>866.0</ele>
        <time>2019-03-26T09:08:46.000Z</time>
      </trkpt>
      <trkpt lat="42.551928" lon="-0.375212">
        <ele>866.0</ele>
        <time>2019-03-26T09:08:47.000Z</time>
      </trkpt>
      <trkpt lat="42.551938" lon="-0.375214">
        <ele>867.0</ele>
        <time>2019-03-26T09:08:48.000Z</time>
      </trkpt>
      <trkpt lat="42.551949" lon="-0.375216">
        <ele>867.0</ele>
        <time>2019-03-26T09:08:49.000Z</time>
      </trkpt>
      <trkpt lat="42.55196" lon="-0.375218">
        <ele>867.0</ele>
        <time>2019-03-26T09:08:50.000Z</time>
      </trkpt>
      <trkpt lat="42.551972" lon="-0.37522">
        <ele>867.0</ele>
        <time>2019-03-26T09:08:51.000Z</time>
      </trkpt>
      <trkpt lat="42.551984" lon="-0.375223">
        <ele>867.0</ele>
        <time>2019-03-26T09:08:52.000Z</time>
      </trkpt>
      <trkpt lat="42.551995" lon="-0.375225">
        <ele>867.0</ele>
        <time>2019-03-26T09:08:53.000Z</time>
      </trkpt>
      <trkpt lat="42.552007" lon="-0.375228">
        <ele>867.0</ele>
        <time>2019-03-26T09:08:54.000Z</time>
      </trkpt>
      <trkpt lat="42.552018" lon="-0.375231">
        <ele>867.0</ele>
        <time>2019-03-26T09:08:55.000Z</time>
      </trkpt>
      <trkpt lat="42.552029" lon="-0.375235">
        <ele>867.0</ele>
        <time>2019-03-26T09:08:56.000Z</time>
      </trkpt>
      <trkpt lat="42.55204" lon="-0.375239">
        <ele>868.0</ele>
        <time>2019-03-26T09:08:57.000Z</time>
      </trkpt>
      <trkpt lat="42.55205" lon="-0.375244">
        <ele>868.0</ele>
        <time>2019-03-26T09:08:58.000Z</time>
      </trkpt>
      <trkpt lat="42.55206" lon="-0.375248">
        <ele>868.0</ele>
        <time>2019-03-26T09:08:59.000Z</time>
      </trkpt>
      <trkpt lat="42.552069" lon="-0.375254">
        <ele>868.0</ele>
        <time>2019-03-26T09:09:00.000Z</time>
      </trkpt>
      <trkpt lat="42.552078" lon="-0.375259">
        <ele>868.0</ele>
        <time>2019-03-26T09:09:01.000Z</time>
      </trkpt>
      <trkpt lat="42.552087" lon="-0.375265">
        <ele>868.0</ele>
        <time>2019-03-26T09:09:02.000Z</time>
      </trkpt>
      <trkpt lat="42.552095" lon="-0.375272">
        <ele>868.0</ele>
        <time>2019-03-26T09:09:03.000Z</time>
      </trkpt>
      <trkpt lat="42.552103" lon="-0.375279">
        <ele>868.0</ele>
        <time>2019-03-26T09:09:04.000Z</time>
      </trkpt>
      <trkpt lat="42.55211" lon="-0.375286">
        <ele>868.0</ele>
        <time>2019-03-26T09:09:05.000Z</time>
      </trkpt>
      <trkpt lat="42.552117" lon="-0.375293">
        <ele>869.0</ele>
        <time>2019-03-26T09:09:06.000Z</time>
      </trkpt>
      <trkpt lat="42.552124" lon="-0.375301">
        <ele>869.0</ele>
        <time>2019-03-26T09:09:07.000Z</time>
      </trkpt>
      <trkpt lat="42.55213" lon="-0.375309">
        <ele>869.0</ele>
        <time>2019-03-26T09:09:08.000Z</time>
      </trkpt>
      <trkpt lat="42.552136" lon="-0.375318">
        <ele>869.0</ele>
        <time>2019-03-26T09:09:09.000Z</time>
      </trkpt>
      <trkpt lat="42.552141" lon="-0.375326">
        <ele>869.0</ele>
        <time>2019-03-26T09:09:10.000Z</time>
      </trkpt>
      <trkpt lat="42.552146" lon="-0.375335">
        <ele>869.0</ele>
        <time>2019-03-26T09:09:11.000Z</time>
      </trkpt>
      <trkpt lat="42.552151" lon="-0.375345">
        <ele>869.0</ele>
        <time>2019-03-26T09:09:12.000Z</time>
      </trkpt>
      <trkpt lat="42.552155" lon="-0.375354">
        <ele>870.0</ele>
        <time>2019-03-26T09:09:13.000Z</time>
      </trkpt>
      <trkpt lat="42.552159" lon="-0.375364">
        <ele>870.0</ele>
        <time>2019-03-26T09:09:14.000Z</time>
      </trkpt>
      <trkpt lat="42.552163" lon="-0.375374">
        <ele>870.0</ele>
        <time>2019-03-26T09:09:15.000Z</time>
      </trkpt>
      <trkpt lat="42.552166" lon="-0.375385">
        <ele>870.0</ele>
        <time>2019-03-26T09:09:16.000Z</time>
      </trkpt>
      <trkpt lat="42.55217" lon="-0.375395">
        <ele>870.0</ele>
        <time>2019-03-26T09:09:17.000Z</time>
      </trkpt>
      <trkpt lat="42.552173" lon="-0.375406">
        <ele>871.0</ele>
        <time>2019-03-26T09:09:18.000Z</time>
      </trkpt>
      <trkpt lat="42.552176" lon="-0.375417">
        <ele>871.0</ele>
        <time>2019-03-26T09:09:19.000Z</time>
      </trkpt>
      <trkpt lat="42.552179" lon="-0.375427">
        <ele>871.0</ele>
        <time>2019-03-26T09:09:20.000Z</time>
      </trkpt>
      <trkpt lat="42.552182" lon="-0.375439">
        <ele>871.0</ele>
        <time>2019-03-26T09:09:21.000Z</time>
      </trkpt>
      <trkpt lat="42.552185" lon="-0.37545">
        <ele>871.0</ele>
        <time>2019-03-26T09:09:22.000Z</time>
      </trkpt>
      <trkpt lat="42.552189" lon="-0.375461">
        <ele>871.0</ele>
        <time>2019-03-26T09:09:23.000Z</time>
      </trkpt>
      <trkpt lat="42.552192" lon="-0.375472">
        <ele>871.0</ele>
        <time>2019-03-26T09:09:24.000Z</time>
      </trkpt>
      <trkpt lat="42.552195" lon="-0.375484">
        <ele>872.0</ele>
        <time>2019-03-26T09:09:25.000Z</time>
      </trkpt>
      <trkpt lat="42.552198" lon="-0.375495">
        <ele>872.0</ele>
        <time>2019-03-26T09:09:26.000Z</time>
      </trkpt>
      <trkpt lat="42.552201" lon="-0.375507">
        <ele>872.0</ele>
        <time>2019-03-26T09:09:27.000Z</time>
      </trkpt>
      <trkpt lat="42.552205" lon="-0.375518">
        <ele>872.0</ele>
        <time>2019-03-26T09:09:28.000Z</time>
      </trkpt>
      <trkpt lat="42.552208" lon="-0.37553">
        <ele>872.0</ele>
        <time>2019-03-26T09:09:29.000Z</time>
      </trkpt>
      <trkpt lat="42.552211" lon="-0.375541">
        <ele>872.0</ele>
        <time>2019-03-26T09:09:30.000Z</time>
      </trkpt>
      <trkpt lat="42.552215" lon="-0.375553">
        <ele>872.0</ele>
        <time>2019-03-26T09:09:31.000Z</time>
      </trkpt>
      <trkpt lat="42.552218" lon="-0.375564">
        <ele>873.0</ele>
        <time>2019-03-26T09:09:32.000Z</time>
      </trkpt>
      <trkpt lat="42.552222" lon="-0.375576">
        <ele>873.0</ele>
        <time>2019-03-26T09:09:33.000Z</time>
      </trkpt>
      <trkpt lat="42.552225" lon="-0.375587">
        <ele>873.0</ele>
        <time>2019-03-26T09:09:34.000Z</time>
      </trkpt>
      <trkpt lat="42.552229" lon="-0.375599">
        <ele>873.0</ele>
        <time>2019-03-26T09:09:35.000Z</time>
      </trkpt>
      <trkpt lat="42.552232" lon="-0.37561">
        <ele>873.0</ele>
        <time>2019-03-26T09:09:36.000Z</time>
      </trkpt>
      <trkpt lat="42.552236" lon="-0.375621">
        <ele>873.0</ele>
        <time>2019-03-26T09:09:37.000Z</time>
      </trkpt>
      <trkpt lat="42.552239" lon="-0.375632">
        <ele>874.0</ele>
        <time>2019-03-26T09:09:38.000Z</time>
      </trkpt>
      <trkpt lat="42.552243" lon="-0.375643">
        <ele>874.0</ele>
        <time>2019-03-26T09:09:39.000Z</time>
      </trkpt>
      <trkpt lat="42.552247" lon="-0.375654">
        <ele>874.0</ele>
        <time>2019-03-26T09:09:40.000Z</time>
      </trkpt>
      <trkpt lat="42.55225" lon="-0.375665">
        <ele>874.0</ele>
        <time>2019-03-26T09:09:41.000Z</time>
      </trkpt>
      <trkpt lat="42.552254" lon="-0.375676">
        <ele>874.0</ele>
        <time>2019-03-26T09:09:42.000Z</time>
      </trkpt>
      <trkpt lat="42.552258" lon="-0.375686">
        <ele>874.0</ele>
        <time>2019-03-26T09:09:43.000Z</time>
      </trkpt>
      <trkpt lat="42.552261" lon="-0.375696">
        <ele>874.0</ele>
        <time>2019-03-26T09:09:44.000Z</time>
      </trkpt>
      <trkpt lat="42.552265" lon="-0.375707">
        <ele>874.0</ele>
        <time>2019-03-26T09:09:45.000Z</time>
      </trkpt>
      <trkpt lat="42.552269" lon="-0.375716">
        <ele>875.0</ele>
        <time>2019-03-26T09:09:46.000Z</time>
      </trkpt>
      <trkpt lat="42.552272" lon="-0.375726">
        <ele>875.0</ele>
        <time>2019-03-26T09:09:47.000Z</time>
      </trkpt>
      <trkpt lat="42.552276" lon="-0.375736">
        <ele>875.0</ele>
        <time>2019-03-26T09:09:48.000Z</time>
      </trkpt>
      <trkpt lat="42.55228" lon="-0.375745">
        <ele>875.0</ele>
        <time>2019-03-26T09:09:49.000Z</time>
      </trkpt>
      <trkpt lat="42.552284" lon="-0.375754">
        <ele>875.0</ele>
        <time>2019-03-26T09:09:50.000Z</time>
      </trkpt>
      <trkpt lat="42.552287" lon="-0.375763">
        <ele>876.0</ele>
        <time>2019-03-26T09:09:51.000Z</time>
      </trkpt>
      <trkpt lat="42.552291" lon="-0.375771">
        <ele>876.0</ele>
        <time>2019-03-26T09:09:52.000Z</time>
      </trkpt>
      <trkpt lat="42.552295" lon="-0.37578">
        <ele>876.0</ele>
        <time>2019-03-26T09:09:53.000Z</time>
      </trkpt>
      <trkpt lat="42.552299" lon="-0.375788">
        <ele>876.0</ele>
        <time>2019-03-26T09:09:54.000Z</time>
      </trkpt>
      <trkpt lat="42.552303" lon="-0.375796">
        <ele>876.0</ele>
        <time>2019-03-26T09:09:55.000Z</time>
      </trkpt>
      <trkpt lat="42.552308" lon="-0.375804">
        <ele>877.0</ele>
        <time>2019-03-26T09:09:56.000Z</time>
      </trkpt>
      <trkpt lat="42.552312" lon="-0.375812">
        <ele>877.0</ele>
        <time>2019-03-26T09:09:57.000Z</time>
      </trkpt>
      <trkpt lat="42.552317" lon="-0.37582">
        <ele>877.0</ele>
        <time>2019-03-26T09:09:58.000Z</time>
      </trkpt>
      <trkpt lat="42.552322" lon="-0.375827">
        <ele>877.0</ele>
        <time>2019-03-26T09:09:59.000Z</time>
      </trkpt>
      <trkpt lat="42.552327" lon="-0.375834">
        <ele>877.0</ele>
        <time>2019-03-26T09:10:00.000Z</time>
      </trkpt>
      <trkpt lat="42.552332" lon="-0.375841">
        <ele>877.0</ele>
        <time>2019-03-26T09:10:01.000Z</time>
      </trkpt>
      <trkpt lat="42.552337" lon="-0.375847">
        <ele>878.0</ele>
        <time>2019-03-26T09:10:02.000Z</time>
      </trkpt>
      <trkpt lat="42.552342" lon="-0.375853">
        <ele>878.0</ele>
        <time>2019-03-26T09:10:03.000Z</time>
      </trkpt>
      <trkpt lat="42.552348" lon="-0.375858">
        <ele>878.0</ele>
        <time>2019-03-26T09:10:04.000Z</time>
      </trkpt>
      <trkpt lat="42.552353" lon="-0.375863">
        <ele>878.0</ele>
        <time>2019-03-26T09:10:05.000Z</time>
      </trkpt>
      <trkpt lat="42.552359" lon="-0.375867">
        <ele>878.0</ele>
        <time>2019-03-26T09:10:06.000Z</time>
      </trkpt>
      <trkpt lat="42.552364" lon="-0.375872">
        <ele>878.0</ele>
        <time>2019-03-26T09:10:07.000Z</time>
      </trkpt>
      <trkpt lat="42.55237" lon="-0.375876">
        <ele>878.0</ele>
        <time>2019-03-26T09:10:08.000Z</time>
      </trkpt>
      <trkpt lat="42.552375" lon="-0.37588">
        <ele>879.0</ele>
        <time>2019-03-26T09:10:09.000Z</time>
      </trkpt>
      <trkpt lat="42.552381" lon="-0.375884">
        <ele>879.0</ele>
        <time>2019-03-26T09:10:10.000Z</time>
      </trkpt>
      <trkpt lat="42.552386" lon="-0.375889">
        <ele>879.0</ele>
        <time>2019-03-26T09:10:11.000Z</time>
      </trkpt>
      <trkpt lat="42.552391" lon="-0.375894">
        <ele>879.0</ele>
        <time>2019-03-26T09:10:12.000Z</time>
      </trkpt>
      <trkpt lat="42.552396" lon="-0.375899">
        <ele>879.0</ele>
        <time>2019-03-26T09:10:13.000Z</time>
      </trkpt>
      <trkpt lat="42.552401" lon="-0.375904">
        <ele>879.0</ele>
        <time>2019-03-26T09:10:14.000Z</time>
      </trkpt>
      <trkpt lat="42.552406" lon="-0.37591">
        <ele>879.0</ele>
        <time>2019-03-26T09:10:15.000Z</time>
      </trkpt>
      <trkpt lat="42.552411" lon="-0.375916">
        <ele>879.0</ele>
        <time>2019-03-26T09:10:16.000Z</time>
      </trkpt>
      <trkpt lat="42.552416" lon="-0.375922">
        <ele>880.0</ele>
        <time>2019-03-26T09:10:17.000Z</time>
      </trkpt>
      <trkpt lat="42.552422" lon="-0.375929">
        <ele>880.0</ele>
        <time>2019-03-26T09:10:18.000Z</time>
      </trkpt>
      <trkpt lat="42.552427" lon="-0.375937">
        <ele>880.0</ele>
        <time>2019-03-26T09:10:19.000Z</time>
      </trkpt>
      <trkpt lat="42.552433" lon="-0.375944">
        <ele>880.0</ele>
        <time>2019-03-26T09:10:20.000Z</time>
      </trkpt>
      <trkpt lat="42.552439" lon="-0.375952">
        <ele>880.0</ele>
        <time>2019-03-26T09:10:21.000Z</time>
      </trkpt>
      <trkpt lat="42.552445" lon="-0.37596">
        <ele>881.0</ele>
        <time>2019-03-26T09:10:22.000Z</time>
      </trkpt>
      <trkpt lat="42.552451" lon="-0.375968">
        <ele>881.0</ele>
        <time>2019-03-26T09:10:23.000Z</time>
      </trkpt>
      <trkpt lat="42.552457" lon="-0.375976">
        <ele>881.0</ele>
        <time>2019-03-26T09:10:24.000Z</time>
      </trkpt>
      <trkpt lat="42.552464" lon="-0.375985">
        <ele>881.0</ele>
        <time>2019-03-26T09:10:25.000Z</time>
      </trkpt>
      <trkpt lat="42.55247" lon="-0.375993">
        <ele>881.0</ele>
        <time>2019-03-26T09:10:26.000Z</time>
      </trkpt>
      <trkpt lat="42.552477" lon="-0.376002">
        <ele>881.0</ele>
        <time>2019-03-26T09:10:27.000Z</time>
      </trkpt>
      <trkpt lat="42.552483" lon="-0.37601">
        <ele>882.0</ele>
        <time>2019-03-26T09:10:28.000Z</time>
      </trkpt>
      <trkpt lat="42.55249" lon="-0.376018">
        <ele>882.0</ele>
        <time>2019-03-26T09:10:29.000Z</time>
      </trkpt>
      <trkpt lat="42.552497" lon="-0.376026">
        <ele>882.0</ele>
        <time>2019-03-26T09:10:30.000Z</time>
      </trkpt>
      <trkpt lat="42.552504" lon="-0.376034">
        <ele>882.0</ele>
        <time>2019-03-26T09:10:31.000Z</time>
      </trkpt>
      <trkpt lat="42.552511" lon="-0.376042">
        <ele>882.0</ele>
        <time>2019-03-26T09:10:32.000Z</time>
      </trkpt>
      <trkpt lat="42.552518" lon="-0.376049">
        <ele>883.0</ele>
        <time>2019-03-26T09:10:33.000Z</time>
      </trkpt>
      <trkpt lat="42.552525" lon="-0.376057">
        <ele>883.0</ele>
        <time>2019-03-26T09:10:34.000Z</time>
      </trkpt>
      <trkpt lat="42.552532" lon="-0.376064">
        <ele>883.0</ele>
        <time>2019-03-26T09:10:35.000Z</time>
      </trkpt>
      <trkpt lat="42.552539" lon="-0.376071">
        <ele>883.0</ele>
        <time>2019-03-26T09:10:36.000Z</time>
      </trkpt>
      <trkpt lat="42.552547" lon="-0.376078">
        <ele>883.0</ele>
        <time>2019-03-26T09:10:37.000Z</time>
      </trkpt>
      <trkpt lat="42.552554" lon="-0.376085">
        <ele>883.0</ele>
        <time>2019-03-26T09:10:38.000Z</time>
      </trkpt>
      <trkpt lat="42.552562" lon="-0.376092">
        <ele>883.0</ele>
        <time>2019-03-26T09:10:39.000Z</time>
      </trkpt>
      <trkpt lat="42.552569" lon="-0.376099">
        <ele>884.0</ele>
        <time>2019-03-26T09:10:40.000Z</time>
      </trkpt>
      <trkpt lat="42.552577" lon="-0.376106">
        <ele>884.0</ele>
        <time>2019-03-26T09:10:41.000Z</time>
      </trkpt>
      <trkpt lat="42.552584" lon="-0.376113">
        <ele>884.0</ele>
        <time>2019-03-26T09:10:42.000Z</time>
      </trkpt>
      <trkpt lat="42.552592" lon="-0.376121">
        <ele>884.0</ele>
        <time>2019-03-26T09:10:43.000Z</time>
      </trkpt>
      <trkpt lat="42.5526" lon="-0.376129">
        <ele>884.0</ele>
        <time>2019-03-26T09:10:44.000Z</time>
      </trkpt>
      <trkpt lat="42.552607" lon="-0.376137">
        <ele>884.0</ele>
        <time>2019-03-26T09:10:45.000Z</time>
      </trkpt>
      <trkpt lat="42.552615" lon="-0.376145">
        <ele>885.0</ele>
        <time>2019-03-26T09:10:46.000Z</time>
      </trkpt>
      <trkpt lat="42.552623" lon="-0.376153">
        <ele>885.0</ele>
        <time>2019-03-26T09:10:47.000Z</time>
      </trkpt>
      <trkpt lat="42.552631" lon="-0.376162">
        <ele>885.0</ele>
        <time>2019-03-26T09:10:48.000Z</time>
      </trkpt>
      <trkpt lat="42.552639" lon="-0.37617">
        <ele>885.0</ele>
        <time>2019-03-26T09:10:49.000Z</time>
      </trkpt>
      <trkpt lat="42.552647" lon="-0.376178">
        <ele>885.0</ele>
        <time>2019-03-26T09:10:50.000Z</time>
      </trkpt>
      <trkpt lat="42.552655" lon="-0.376187">
        <ele>886.0</ele>
        <time>2019-03-26T09:10:51.000Z</time>
      </trkpt>
      <trkpt lat="42.552664" lon="-0.376195">
        <ele>886.0</ele>
        <time>2019-03-26T09:10:52.000Z</time>
      </trkpt>
      <trkpt lat="42.552672" lon="-0.376203">
        <ele>886.0</ele>
        <time>2019-03-26T09:10:53.000Z</time>
      </trkpt>
      <trkpt lat="42.55268" lon="-0.376211">
        <ele>886.0</ele>
        <time>2019-03-26T09:10:54.000Z</time>
      </trkpt>
      <trkpt lat="42.552689" lon="-0.376219">
        <ele>886.0</ele>
        <time>2019-03-26T09:10:55.000Z</time>
      </trkpt>
      <trkpt lat="42.552697" lon="-0.376226">
        <ele>886.0</ele>
        <time>2019-03-26T09:10:56.000Z</time>
      </trkpt>
      <trkpt lat="42.552706" lon="-0.376233">
        <ele>886.0</ele>
        <time>2019-03-26T09:10:57.000Z</time>
      </trkpt>
      <trkpt lat="42.552715" lon="-0.376239">
        <ele>886.0</ele>
        <time>2019-03-26T09:10:58.000Z</time>
      </trkpt>
      <trkpt lat="42.552724" lon="-0.376245">
        <ele>887.0</ele>
        <time>2019-03-26T09:10:59.000Z</time>
      </trkpt>
      <trkpt lat="42.552733" lon="-0.376251">
        <ele>887.0</ele>
        <time>2019-03-26T09:11:00.000Z</time>
      </trkpt>
      <trkpt lat="42.552742" lon="-0.376256">
        <ele>887.0</ele>
        <time>2019-03-26T09:11:01.000Z</time>
      </trkpt>
      <trkpt lat="42.552751" lon="-0.37626">
        <ele>887.0</ele>
        <time>2019-03-26T09:11:02.000Z</time>
      </trkpt>
      <trkpt lat="42.55276" lon="-0.376265">
        <ele>887.0</ele>
        <time>2019-03-26T09:11:03.000Z</time>
      </trkpt>
      <trkpt lat="42.55277" lon="-0.376269">
        <ele>888.0</ele>
        <time>2019-03-26T09:11:04.000Z</time>
      </trkpt>
      <trkpt lat="42.552779" lon="-0.376273">
        <ele>888.0</ele>
        <time>2019-03-26T09:11:05.000Z</time>
      </trkpt>
      <trkpt lat="42.552788" lon="-0.376277">
        <ele>888.0</ele>
        <time>2019-03-26T09:11:06.000Z</time>
      </trkpt>
      <trkpt lat="42.552797" lon="-0.376281">
        <ele>888.0</ele>
        <time>2019-03-26T09:11:07.000Z</time>
      </trkpt>
      <trkpt lat="42.552806" lon="-0.376285">
        <ele>888.0</ele>
        <time>2019-03-26T09:11:08.000Z</time>
      </trkpt>
      <trkpt lat="42.552816" lon="-0.376289">
        <ele>888.0</ele>
        <time>2019-03-26T09:11:09.000Z</time>
      </trkpt>
      <trkpt lat="42.552825" lon="-0.376293">
        <ele>888.0</ele>
        <time>2019-03-26T09:11:10.000Z</time>
      </trkpt>
      <trkpt lat="42.552834" lon="-0.376297">
        <ele>889.0</ele>
        <time>2019-03-26T09:11:11.000Z</time>
      </trkpt>
      <trkpt lat="42.552843" lon="-0.376302">
        <ele>889.0</ele>
        <time>2019-03-26T09:11:12.000Z</time>
      </trkpt>
      <trkpt lat="42.552851" lon="-0.376307">
        <ele>889.0</ele>
        <time>2019-03-26T09:11:13.000Z</time>
      </trkpt>
      <trkpt lat="42.55286" lon="-0.376312">
        <ele>889.0</ele>
        <time>2019-03-26T09:11:14.000Z</time>
      </trkpt>
      <trkpt lat="42.552869" lon="-0.376317">
        <ele>889.0</ele>
        <time>2019-03-26T09:11:15.000Z</time>
      </trkpt>
      <trkpt lat="42.552878" lon="-0.376322">
        <ele>889.0</ele>
        <time>2019-03-26T09:11:16.000Z</time>
      </trkpt>
      <trkpt lat="42.552886" lon="-0.376328">
        <ele>889.0</ele>
        <time>2019-03-26T09:11:17.000Z</time>
      </trkpt>
      <trkpt lat="42.552895" lon="-0.376334">
        <ele>890.0</ele>
        <time>2019-03-26T09:11:18.000Z</time>
      </trkpt>
      <trkpt lat="42.552904" lon="-0.37634">
        <ele>890.0</ele>
        <time>2019-03-26T09:11:19.000Z</time>
      </trkpt>
      <trkpt lat="42.552913" lon="-0.376346">
        <ele>890.0</ele>
        <time>2019-03-26T09:11:20.000Z</time>
      </trkpt>
      <trkpt lat="42.552922" lon="-0.376351">
        <ele>890.0</ele>
        <time>2019-03-26T09:11:21.000Z</time>
      </trkpt>
      <trkpt lat="42.552931" lon="-0.376357">
        <ele>890.0</ele>
        <time>2019-03-26T09:11:22.000Z</time>
      </trkpt>
      <trkpt lat="42.55294" lon="-0.376363">
        <ele>890.0</ele>
        <time>2019-03-26T09:11:23.000Z</time>
      </trkpt>
      <trkpt lat="42.55295" lon="-0.376369">
        <ele>891.0</ele>
        <time>2019-03-26T09:11:24.000Z</time>
      </trkpt>
      <trkpt lat="42.55296" lon="-0.376375">
        <ele>891.0</ele>
        <time>2019-03-26T09:11:25.000Z</time>
      </trkpt>
      <trkpt lat="42.55297" lon="-0.37638">
        <ele>891.0</ele>
        <time>2019-03-26T09:11:26.000Z</time>
      </trkpt>
      <trkpt lat="42.552981" lon="-0.376386">
        <ele>891.0</ele>
        <time>2019-03-26T09:11:27.000Z</time>
      </trkpt>
      <trkpt lat="42.552992" lon="-0.376391">
        <ele>891.0</ele>
        <time>2019-03-26T09:11:28.000Z</time>
      </trkpt>
      <trkpt lat="42.553003" lon="-0.376396">
        <ele>892.0</ele>
        <time>2019-03-26T09:11:29.000Z</time>
      </trkpt>
      <trkpt lat="42.553014" lon="-0.376401">
        <ele>892.0</ele>
        <time>2019-03-26T09:11:30.000Z</time>
      </trkpt>
      <trkpt lat="42.553025" lon="-0.376406">
        <ele>892.0</ele>
        <time>2019-03-26T09:11:31.000Z</time>
      </trkpt>
      <trkpt lat="42.553036" lon="-0.37641">
        <ele>892.0</ele>
        <time>2019-03-26T09:11:32.000Z</time>
      </trkpt>
      <trkpt lat="42.553047" lon="-0.376415">
        <ele>892.0</ele>
        <time>2019-03-26T09:11:33.000Z</time>
      </trkpt>
      <trkpt lat="42.553058" lon="-0.376419">
        <ele>892.0</ele>
        <time>2019-03-26T09:11:34.000Z</time>
      </trkpt>
      <trkpt lat="42.553067" lon="-0.376422">
        <ele>892.0</ele>
        <time>2019-03-26T09:11:35.000Z</time>
      </trkpt>
      <trkpt lat="42.553076" lon="-0.376425">
        <ele>892.0</ele>
        <time>2019-03-26T09:11:36.000Z</time>
      </trkpt>
      <trkpt lat="42.553083" lon="-0.376426">
        <ele>892.0</ele>
        <time>2019-03-26T09:11:37.000Z</time>
      </trkpt>
      <trkpt lat="42.553089" lon="-0.376427">
        <ele>892.0</ele>
        <time>2019-03-26T09:11:38.000Z</time>
      </trkpt>
      <trkpt lat="42.553093" lon="-0.376427">
        <ele>892.0</ele>
        <time>2019-03-26T09:11:39.000Z</time>
      </trkpt>
      <trkpt lat="42.553097" lon="-0.376428">
        <ele>893.0</ele>
        <time>2019-03-26T09:11:40.000Z</time>
      </trkpt>
      <trkpt lat="42.553102" lon="-0.376427">
        <ele>893.0</ele>
        <time>2019-03-26T09:11:41.000Z</time>
      </trkpt>
      <trkpt lat="42.553108" lon="-0.376425">
        <ele>893.0</ele>
        <time>2019-03-26T09:11:42.000Z</time>
      </trkpt>
      <trkpt lat="42.553117" lon="-0.376421">
        <ele>893.0</ele>
        <time>2019-03-26T09:11:43.000Z</time>
      </trkpt>
      <trkpt lat="42.553129" lon="-0.376415">
        <ele>893.0</ele>
        <time>2019-03-26T09:11:44.000Z</time>
      </trkpt>
      <trkpt lat="42.553143" lon="-0.376409">
        <ele>893.0</ele>
        <time>2019-03-26T09:11:45.000Z</time>
      </trkpt>
      <trkpt lat="42.553159" lon="-0.376403">
        <ele>893.0</ele>
        <time>2019-03-26T09:11:46.000Z</time>
      </trkpt>
      <trkpt lat="42.553176" lon="-0.376399">
        <ele>894.0</ele>
        <time>2019-03-26T09:11:47.000Z</time>
      </trkpt>
      <trkpt lat="42.553193" lon="-0.376398">
        <ele>894.0</ele>
        <time>2019-03-26T09:11:48.000Z</time>
      </trkpt>
      <trkpt lat="42.553209" lon="-0.376398">
        <ele>894.0</ele>
        <time>2019-03-26T09:11:49.000Z</time>
      </trkpt>
      <trkpt lat="42.553227" lon="-0.3764">
        <ele>894.0</ele>
        <time>2019-03-26T09:11:50.000Z</time>
      </trkpt>
      <trkpt lat="42.553244" lon="-0.376403">
        <ele>894.0</ele>
        <time>2019-03-26T09:11:51.000Z</time>
      </trkpt>
      <trkpt lat="42.553262" lon="-0.376407">
        <ele>894.0</ele>
        <time>2019-03-26T09:11:52.000Z</time>
      </trkpt>
      <trkpt lat="42.55328" lon="-0.376411">
        <ele>894.0</ele>
        <time>2019-03-26T09:11:53.000Z</time>
      </trkpt>
      <trkpt lat="42.553299" lon="-0.376415">
        <ele>894.0</ele>
        <time>2019-03-26T09:11:54.000Z</time>
      </trkpt>
      <trkpt lat="42.553318" lon="-0.376418">
        <ele>895.0</ele>
        <time>2019-03-26T09:11:55.000Z</time>
      </trkpt>
      <trkpt lat="42.553337" lon="-0.376421">
        <ele>895.0</ele>
        <time>2019-03-26T09:11:56.000Z</time>
      </trkpt>
      <trkpt lat="42.553356" lon="-0.376424">
        <ele>895.0</ele>
        <time>2019-03-26T09:11:57.000Z</time>
      </trkpt>
      <trkpt lat="42.553376" lon="-0.376427">
        <ele>895.0</ele>
        <time>2019-03-26T09:11:58.000Z</time>
      </trkpt>
      <trkpt lat="42.553396" lon="-0.37643">
        <ele>895.0</ele>
        <time>2019-03-26T09:11:59.000Z</time>
      </trkpt>
      <trkpt lat="42.553416" lon="-0.376433">
        <ele>895.0</ele>
        <time>2019-03-26T09:12:00.000Z</time>
      </trkpt>
      <trkpt lat="42.553436" lon="-0.376436">
        <ele>895.0</ele>
        <time>2019-03-26T09:12:01.000Z</time>
      </trkpt>
      <trkpt lat="42.553455" lon="-0.376438">
        <ele>895.0</ele>
        <time>2019-03-26T09:12:02.000Z</time>
      </trkpt>
      <trkpt lat="42.553475" lon="-0.376441">
        <ele>895.0</ele>
        <time>2019-03-26T09:12:03.000Z</time>
      </trkpt>
      <trkpt lat="42.553496" lon="-0.376444">
        <ele>895.0</ele>
        <time>2019-03-26T09:12:04.000Z</time>
      </trkpt>
      <trkpt lat="42.553516" lon="-0.376447">
        <ele>896.0</ele>
        <time>2019-03-26T09:12:05.000Z</time>
      </trkpt>
      <trkpt lat="42.553536" lon="-0.37645">
        <ele>896.0</ele>
        <time>2019-03-26T09:12:06.000Z</time>
      </trkpt>
      <trkpt lat="42.553557" lon="-0.376453">
        <ele>896.0</ele>
        <time>2019-03-26T09:12:07.000Z</time>
      </trkpt>
      <trkpt lat="42.553578" lon="-0.376456">
        <ele>896.0</ele>
        <time>2019-03-26T09:12:08.000Z</time>
      </trkpt>
      <trkpt lat="42.553599" lon="-0.376459">
        <ele>896.0</ele>
        <time>2019-03-26T09:12:09.000Z</time>
      </trkpt>
      <trkpt lat="42.553621" lon="-0.376464">
        <ele>896.0</ele>
        <time>2019-03-26T09:12:10.000Z</time>
      </trkpt>
      <trkpt lat="42.553643" lon="-0.376468">
        <ele>896.0</ele>
        <time>2019-03-26T09:12:11.000Z</time>
      </trkpt>
      <trkpt lat="42.553665" lon="-0.376474">
        <ele>896.0</ele>
        <time>2019-03-26T09:12:12.000Z</time>
      </trkpt>
      <trkpt lat="42.553687" lon="-0.376481">
        <ele>896.0</ele>
        <time>2019-03-26T09:12:13.000Z</time>
      </trkpt>
      <trkpt lat="42.553709" lon="-0.376489">
        <ele>896.0</ele>
        <time>2019-03-26T09:12:14.000Z</time>
      </trkpt>
      <trkpt lat="42.553732" lon="-0.376498">
        <ele>896.0</ele>
        <time>2019-03-26T09:12:15.000Z</time>
      </trkpt>
      <trkpt lat="42.553755" lon="-0.376509">
        <ele>896.0</ele>
        <time>2019-03-26T09:12:16.000Z</time>
      </trkpt>
      <trkpt lat="42.553778" lon="-0.37652">
        <ele>896.0</ele>
        <time>2019-03-26T09:12:17.000Z</time>
      </trkpt>
      <trkpt lat="42.553802" lon="-0.376533">
        <ele>896.0</ele>
        <time>2019-03-26T09:12:18.000Z</time>
      </trkpt>
      <trkpt lat="42.553826" lon="-0.376547">
        <ele>896.0</ele>
        <time>2019-03-26T09:12:19.000Z</time>
      </trkpt>
      <trkpt lat="42.55385" lon="-0.376562">
        <ele>896.0</ele>
        <time>2019-03-26T09:12:20.000Z</time>
      </trkpt>
      <trkpt lat="42.553874" lon="-0.376578">
        <ele>896.0</ele>
        <time>2019-03-26T09:12:21.000Z</time>
      </trkpt>
      <trkpt lat="42.553899" lon="-0.376594">
        <ele>896.0</ele>
        <time>2019-03-26T09:12:22.000Z</time>
      </trkpt>
      <trkpt lat="42.553924" lon="-0.376611">
        <ele>896.0</ele>
        <time>2019-03-26T09:12:23.000Z</time>
      </trkpt>
      <trkpt lat="42.553949" lon="-0.376629">
        <ele>896.0</ele>
        <time>2019-03-26T09:12:24.000Z</time>
      </trkpt>
      <trkpt lat="42.553975" lon="-0.376646">
        <ele>896.0</ele>
        <time>2019-03-26T09:12:25.000Z</time>
      </trkpt>
      <trkpt lat="42.554001" lon="-0.376664">
        <ele>896.0</ele>
        <time>2019-03-26T09:12:26.000Z</time>
      </trkpt>
      <trkpt lat="42.554027" lon="-0.376682">
        <ele>896.0</ele>
        <time>2019-03-26T09:12:27.000Z</time>
      </trkpt>
      <trkpt lat="42.554054" lon="-0.376701">
        <ele>896.0</ele>
        <time>2019-03-26T09:12:28.000Z</time>
      </trkpt>
      <trkpt lat="42.554081" lon="-0.376719">
        <ele>896.0</ele>
        <time>2019-03-26T09:12:29.000Z</time>
      </trkpt>
      <trkpt lat="42.554109" lon="-0.376737">
        <ele>896.0</ele>
        <time>2019-03-26T09:12:30.000Z</time>
      </trkpt>
      <trkpt lat="42.554136" lon="-0.376755">
        <ele>896.0</ele>
        <time>2019-03-26T09:12:31.000Z</time>
      </trkpt>
      <trkpt lat="42.554165" lon="-0.376773">
        <ele>896.0</ele>
        <time>2019-03-26T09:12:32.000Z</time>
      </trkpt>
      <trkpt lat="42.554194" lon="-0.376791">
        <ele>896.0</ele>
        <time>2019-03-26T09:12:33.000Z</time>
      </trkpt>
      <trkpt lat="42.554223" lon="-0.376809">
        <ele>896.0</ele>
        <time>2019-03-26T09:12:34.000Z</time>
      </trkpt>
      <trkpt lat="42.554252" lon="-0.376827">
        <ele>896.0</ele>
        <time>2019-03-26T09:12:35.000Z</time>
      </trkpt>
      <trkpt lat="42.554282" lon="-0.376845">
        <ele>896.0</ele>
        <time>2019-03-26T09:12:36.000Z</time>
      </trkpt>
      <trkpt lat="42.554312" lon="-0.376864">
        <ele>896.0</ele>
        <time>2019-03-26T09:12:37.000Z</time>
      </trkpt>
      <trkpt lat="42.554342" lon="-0.376882">
        <ele>896.0</ele>
        <time>2019-03-26T09:12:38.000Z</time>
      </trkpt>
      <trkpt lat="42.554372" lon="-0.376901">
        <ele>896.0</ele>
        <time>2019-03-26T09:12:39.000Z</time>
      </trkpt>
      <trkpt lat="42.554402" lon="-0.37692">
        <ele>896.0</ele>
        <time>2019-03-26T09:12:40.000Z</time>
      </trkpt>
      <trkpt lat="42.554431" lon="-0.376939">
        <ele>896.0</ele>
        <time>2019-03-26T09:12:41.000Z</time>
      </trkpt>
      <trkpt lat="42.554461" lon="-0.376958">
        <ele>896.0</ele>
        <time>2019-03-26T09:12:42.000Z</time>
      </trkpt>
      <trkpt lat="42.55449" lon="-0.376977">
        <ele>896.0</ele>
        <time>2019-03-26T09:12:43.000Z</time>
      </trkpt>
      <trkpt lat="42.554519" lon="-0.376996">
        <ele>896.0</ele>
        <time>2019-03-26T09:12:44.000Z</time>
      </trkpt>
      <trkpt lat="42.554547" lon="-0.377016">
        <ele>896.0</ele>
        <time>2019-03-26T09:12:45.000Z</time>
      </trkpt>
      <trkpt lat="42.554575" lon="-0.377036">
        <ele>896.0</ele>
        <time>2019-03-26T09:12:46.000Z</time>
      </trkpt>
      <trkpt lat="42.554602" lon="-0.377055">
        <ele>895.0</ele>
        <time>2019-03-26T09:12:47.000Z</time>
      </trkpt>
      <trkpt lat="42.554629" lon="-0.377076">
        <ele>896.0</ele>
        <time>2019-03-26T09:12:48.000Z</time>
      </trkpt>
      <trkpt lat="42.554654" lon="-0.377096">
        <ele>896.0</ele>
        <time>2019-03-26T09:12:49.000Z</time>
      </trkpt>
      <trkpt lat="42.554679" lon="-0.377116">
        <ele>896.0</ele>
        <time>2019-03-26T09:12:50.000Z</time>
      </trkpt>
      <trkpt lat="42.554703" lon="-0.377137">
        <ele>896.0</ele>
        <time>2019-03-26T09:12:51.000Z</time>
      </trkpt>
      <trkpt lat="42.554727" lon="-0.377158">
        <ele>896.0</ele>
        <time>2019-03-26T09:12:52.000Z</time>
      </trkpt>
      <trkpt lat="42.554751" lon="-0.377178">
        <ele>896.0</ele>
        <time>2019-03-26T09:12:53.000Z</time>
      </trkpt>
      <trkpt lat="42.554774" lon="-0.377199">
        <ele>896.0</ele>
        <time>2019-03-26T09:12:54.000Z</time>
      </trkpt>
      <trkpt lat="42.554797" lon="-0.377219">
        <ele>896.0</ele>
        <time>2019-03-26T09:12:55.000Z</time>
      </trkpt>
      <trkpt lat="42.554821" lon="-0.37724">
        <ele>896.0</ele>
        <time>2019-03-26T09:12:56.000Z</time>
      </trkpt>
      <trkpt lat="42.554844" lon="-0.37726">
        <ele>896.0</ele>
        <time>2019-03-26T09:12:57.000Z</time>
      </trkpt>
      <trkpt lat="42.554868" lon="-0.37728">
        <ele>896.0</ele>
        <time>2019-03-26T09:12:58.000Z</time>
      </trkpt>
      <trkpt lat="42.554893" lon="-0.377299">
        <ele>896.0</ele>
        <time>2019-03-26T09:12:59.000Z</time>
      </trkpt>
      <trkpt lat="42.554918" lon="-0.377318">
        <ele>896.0</ele>
        <time>2019-03-26T09:13:00.000Z</time>
      </trkpt>
      <trkpt lat="42.554944" lon="-0.377337">
        <ele>896.0</ele>
        <time>2019-03-26T09:13:01.000Z</time>
      </trkpt>
      <trkpt lat="42.55497" lon="-0.377355">
        <ele>896.0</ele>
        <time>2019-03-26T09:13:02.000Z</time>
      </trkpt>
      <trkpt lat="42.554998" lon="-0.377373">
        <ele>896.0</ele>
        <time>2019-03-26T09:13:03.000Z</time>
      </trkpt>
      <trkpt lat="42.555026" lon="-0.377391">
        <ele>896.0</ele>
        <time>2019-03-26T09:13:04.000Z</time>
      </trkpt>
      <trkpt lat="42.555052" lon="-0.377409">
        <ele>897.0</ele>
        <time>2019-03-26T09:13:05.000Z</time>
      </trkpt>
      <trkpt lat="42.555077" lon="-0.377428">
        <ele>897.0</ele>
        <time>2019-03-26T09:13:06.000Z</time>
      </trkpt>
      <trkpt lat="42.5551" lon="-0.377448">
        <ele>897.0</ele>
        <time>2019-03-26T09:13:07.000Z</time>
      </trkpt>
      <trkpt lat="42.555122" lon="-0.377469">
        <ele>897.0</ele>
        <time>2019-03-26T09:13:08.000Z</time>
      </trkpt>
      <trkpt lat="42.555144" lon="-0.377489">
        <ele>897.0</ele>
        <time>2019-03-26T09:13:09.000Z</time>
      </trkpt>
      <trkpt lat="42.555168" lon="-0.377507">
        <ele>897.0</ele>
        <time>2019-03-26T09:13:10.000Z</time>
      </trkpt>
      <trkpt lat="42.555193" lon="-0.377524">
        <ele>897.0</ele>
        <time>2019-03-26T09:13:11.000Z</time>
      </trkpt>
      <trkpt lat="42.55522" lon="-0.37754">
        <ele>897.0</ele>
        <time>2019-03-26T09:13:12.000Z</time>
      </trkpt>
      <trkpt lat="42.555248" lon="-0.377554">
        <ele>897.0</ele>
        <time>2019-03-26T09:13:13.000Z</time>
      </trkpt>
      <trkpt lat="42.555275" lon="-0.377569">
        <ele>897.0</ele>
        <time>2019-03-26T09:13:14.000Z</time>
      </trkpt>
      <trkpt lat="42.555303" lon="-0.377583">
        <ele>897.0</ele>
        <time>2019-03-26T09:13:15.000Z</time>
      </trkpt>
      <trkpt lat="42.55533" lon="-0.377597">
        <ele>897.0</ele>
        <time>2019-03-26T09:13:16.000Z</time>
      </trkpt>
      <trkpt lat="42.555357" lon="-0.377611">
        <ele>897.0</ele>
        <time>2019-03-26T09:13:17.000Z</time>
      </trkpt>
      <trkpt lat="42.555383" lon="-0.377627">
        <ele>897.0</ele>
        <time>2019-03-26T09:13:18.000Z</time>
      </trkpt>
      <trkpt lat="42.55541" lon="-0.377643">
        <ele>897.0</ele>
        <time>2019-03-26T09:13:19.000Z</time>
      </trkpt>
      <trkpt lat="42.555436" lon="-0.377659">
        <ele>897.0</ele>
        <time>2019-03-26T09:13:20.000Z</time>
      </trkpt>
      <trkpt lat="42.555462" lon="-0.377676">
        <ele>897.0</ele>
        <time>2019-03-26T09:13:21.000Z</time>
      </trkpt>
      <trkpt lat="42.555488" lon="-0.377694">
        <ele>897.0</ele>
        <time>2019-03-26T09:13:22.000Z</time>
      </trkpt>
      <trkpt lat="42.555515" lon="-0.377713">
        <ele>897.0</ele>
        <time>2019-03-26T09:13:23.000Z</time>
      </trkpt>
      <trkpt lat="42.555541" lon="-0.377732">
        <ele>897.0</ele>
        <time>2019-03-26T09:13:24.000Z</time>
      </trkpt>
      <trkpt lat="42.555568" lon="-0.377752">
        <ele>897.0</ele>
        <time>2019-03-26T09:13:25.000Z</time>
      </trkpt>
      <trkpt lat="42.555596" lon="-0.377772">
        <ele>897.0</ele>
        <time>2019-03-26T09:13:26.000Z</time>
      </trkpt>
      <trkpt lat="42.555623" lon="-0.377792">
        <ele>898.0</ele>
        <time>2019-03-26T09:13:27.000Z</time>
      </trkpt>
      <trkpt lat="42.555651" lon="-0.377813">
        <ele>898.0</ele>
        <time>2019-03-26T09:13:28.000Z</time>
      </trkpt>
      <trkpt lat="42.555678" lon="-0.377833">
        <ele>898.0</ele>
        <time>2019-03-26T09:13:29.000Z</time>
      </trkpt>
      <trkpt lat="42.555707" lon="-0.377853">
        <ele>898.0</ele>
        <time>2019-03-26T09:13:30.000Z</time>
      </trkpt>
      <trkpt lat="42.555735" lon="-0.377872">
        <ele>898.0</ele>
        <time>2019-03-26T09:13:31.000Z</time>
      </trkpt>
      <trkpt lat="42.555763" lon="-0.377891">
        <ele>898.0</ele>
        <time>2019-03-26T09:13:32.000Z</time>
      </trkpt>
      <trkpt lat="42.555791" lon="-0.37791">
        <ele>898.0</ele>
        <time>2019-03-26T09:13:33.000Z</time>
      </trkpt>
      <trkpt lat="42.555819" lon="-0.377928">
        <ele>898.0</ele>
        <time>2019-03-26T09:13:34.000Z</time>
      </trkpt>
      <trkpt lat="42.555847" lon="-0.377947">
        <ele>898.0</ele>
        <time>2019-03-26T09:13:35.000Z</time>
      </trkpt>
      <trkpt lat="42.555874" lon="-0.377965">
        <ele>898.0</ele>
        <time>2019-03-26T09:13:36.000Z</time>
      </trkpt>
      <trkpt lat="42.555901" lon="-0.377983">
        <ele>898.0</ele>
        <time>2019-03-26T09:13:37.000Z</time>
      </trkpt>
      <trkpt lat="42.555927" lon="-0.378002">
        <ele>898.0</ele>
        <time>2019-03-26T09:13:38.000Z</time>
      </trkpt>
      <trkpt lat="42.555952" lon="-0.37802">
        <ele>898.0</ele>
        <time>2019-03-26T09:13:39.000Z</time>
      </trkpt>
      <trkpt lat="42.555977" lon="-0.378039">
        <ele>898.0</ele>
        <time>2019-03-26T09:13:40.000Z</time>
      </trkpt>
      <trkpt lat="42.556001" lon="-0.378057">
        <ele>899.0</ele>
        <time>2019-03-26T09:13:41.000Z</time>
      </trkpt>
      <trkpt lat="42.556024" lon="-0.378076">
        <ele>899.0</ele>
        <time>2019-03-26T09:13:42.000Z</time>
      </trkpt>
      <trkpt lat="42.556045" lon="-0.378095">
        <ele>899.0</ele>
        <time>2019-03-26T09:13:43.000Z</time>
      </trkpt>
      <trkpt lat="42.556066" lon="-0.378115">
        <ele>899.0</ele>
        <time>2019-03-26T09:13:44.000Z</time>
      </trkpt>
      <trkpt lat="42.556086" lon="-0.378134">
        <ele>899.0</ele>
        <time>2019-03-26T09:13:45.000Z</time>
      </trkpt>
      <trkpt lat="42.556105" lon="-0.378154">
        <ele>899.0</ele>
        <time>2019-03-26T09:13:46.000Z</time>
      </trkpt>
      <trkpt lat="42.556124" lon="-0.378174">
        <ele>900.0</ele>
        <time>2019-03-26T09:13:47.000Z</time>
      </trkpt>
      <trkpt lat="42.556143" lon="-0.378195">
        <ele>900.0</ele>
        <time>2019-03-26T09:13:48.000Z</time>
      </trkpt>
      <trkpt lat="42.556162" lon="-0.378215">
        <ele>900.0</ele>
        <time>2019-03-26T09:13:49.000Z</time>
      </trkpt>
      <trkpt lat="42.556182" lon="-0.378235">
        <ele>900.0</ele>
        <time>2019-03-26T09:13:50.000Z</time>
      </trkpt>
      <trkpt lat="42.556204" lon="-0.378256">
        <ele>900.0</ele>
        <time>2019-03-26T09:13:51.000Z</time>
      </trkpt>
      <trkpt lat="42.556226" lon="-0.378276">
        <ele>900.0</ele>
        <time>2019-03-26T09:13:52.000Z</time>
      </trkpt>
      <trkpt lat="42.556249" lon="-0.378297">
        <ele>900.0</ele>
        <time>2019-03-26T09:13:53.000Z</time>
      </trkpt>
      <trkpt lat="42.556272" lon="-0.378318">
        <ele>900.0</ele>
        <time>2019-03-26T09:13:54.000Z</time>
      </trkpt>
      <trkpt lat="42.556296" lon="-0.378339">
        <ele>901.0</ele>
        <time>2019-03-26T09:13:55.000Z</time>
      </trkpt>
      <trkpt lat="42.556319" lon="-0.378361">
        <ele>901.0</ele>
        <time>2019-03-26T09:13:56.000Z</time>
      </trkpt>
      <trkpt lat="42.556343" lon="-0.378384">
        <ele>901.0</ele>
        <time>2019-03-26T09:13:57.000Z</time>
      </trkpt>
      <trkpt lat="42.556366" lon="-0.378407">
        <ele>901.0</ele>
        <time>2019-03-26T09:13:58.000Z</time>
      </trkpt>
      <trkpt lat="42.556389" lon="-0.378431">
        <ele>901.0</ele>
        <time>2019-03-26T09:13:59.000Z</time>
      </trkpt>
      <trkpt lat="42.556412" lon="-0.378455">
        <ele>901.0</ele>
        <time>2019-03-26T09:14:00.000Z</time>
      </trkpt>
      <trkpt lat="42.556434" lon="-0.37848">
        <ele>901.0</ele>
        <time>2019-03-26T09:14:01.000Z</time>
      </trkpt>
      <trkpt lat="42.556457" lon="-0.378504">
        <ele>901.0</ele>
        <time>2019-03-26T09:14:02.000Z</time>
      </trkpt>
      <trkpt lat="42.556481" lon="-0.378528">
        <ele>901.0</ele>
        <time>2019-03-26T09:14:03.000Z</time>
      </trkpt>
      <trkpt lat="42.556504" lon="-0.378551">
        <ele>901.0</ele>
        <time>2019-03-26T09:14:04.000Z</time>
      </trkpt>
      <trkpt lat="42.556529" lon="-0.378573">
        <ele>901.0</ele>
        <time>2019-03-26T09:14:05.000Z</time>
      </trkpt>
      <trkpt lat="42.556553" lon="-0.378595">
        <ele>901.0</ele>
        <time>2019-03-26T09:14:06.000Z</time>
      </trkpt>
      <trkpt lat="42.556579" lon="-0.378616">
        <ele>901.0</ele>
        <time>2019-03-26T09:14:07.000Z</time>
      </trkpt>
      <trkpt lat="42.556605" lon="-0.378636">
        <ele>901.0</ele>
        <time>2019-03-26T09:14:08.000Z</time>
      </trkpt>
      <trkpt lat="42.556633" lon="-0.378655">
        <ele>901.0</ele>
        <time>2019-03-26T09:14:09.000Z</time>
      </trkpt>
      <trkpt lat="42.556661" lon="-0.378673">
        <ele>901.0</ele>
        <time>2019-03-26T09:14:10.000Z</time>
      </trkpt>
      <trkpt lat="42.55669" lon="-0.378691">
        <ele>901.0</ele>
        <time>2019-03-26T09:14:11.000Z</time>
      </trkpt>
      <trkpt lat="42.55672" lon="-0.378708">
        <ele>901.0</ele>
        <time>2019-03-26T09:14:12.000Z</time>
      </trkpt>
      <trkpt lat="42.556752" lon="-0.378725">
        <ele>901.0</ele>
        <time>2019-03-26T09:14:13.000Z</time>
      </trkpt>
      <trkpt lat="42.556784" lon="-0.378742">
        <ele>901.0</ele>
        <time>2019-03-26T09:14:14.000Z</time>
      </trkpt>
      <trkpt lat="42.556819" lon="-0.378761">
        <ele>901.0</ele>
        <time>2019-03-26T09:14:15.000Z</time>
      </trkpt>
      <trkpt lat="42.556854" lon="-0.378782">
        <ele>901.0</ele>
        <time>2019-03-26T09:14:16.000Z</time>
      </trkpt>
      <trkpt lat="42.55689" lon="-0.378804">
        <ele>901.0</ele>
        <time>2019-03-26T09:14:17.000Z</time>
      </trkpt>
      <trkpt lat="42.556926" lon="-0.378827">
        <ele>901.0</ele>
        <time>2019-03-26T09:14:18.000Z</time>
      </trkpt>
      <trkpt lat="42.55696" lon="-0.37885">
        <ele>902.0</ele>
        <time>2019-03-26T09:14:19.000Z</time>
      </trkpt>
      <trkpt lat="42.556993" lon="-0.378873">
        <ele>902.0</ele>
        <time>2019-03-26T09:14:20.000Z</time>
      </trkpt>
      <trkpt lat="42.557025" lon="-0.378895">
        <ele>902.0</ele>
        <time>2019-03-26T09:14:21.000Z</time>
      </trkpt>
      <trkpt lat="42.557056" lon="-0.378917">
        <ele>902.0</ele>
        <time>2019-03-26T09:14:22.000Z</time>
      </trkpt>
      <trkpt lat="42.557086" lon="-0.378938">
        <ele>902.0</ele>
        <time>2019-03-26T09:14:23.000Z</time>
      </trkpt>
      <trkpt lat="42.557116" lon="-0.378957">
        <ele>902.0</ele>
        <time>2019-03-26T09:14:24.000Z</time>
      </trkpt>
      <trkpt lat="42.557146" lon="-0.378974">
        <ele>902.0</ele>
        <time>2019-03-26T09:14:25.000Z</time>
      </trkpt>
      <trkpt lat="42.557176" lon="-0.37899">
        <ele>903.0</ele>
        <time>2019-03-26T09:14:26.000Z</time>
      </trkpt>
      <trkpt lat="42.557205" lon="-0.379005">
        <ele>903.0</ele>
        <time>2019-03-26T09:14:27.000Z</time>
      </trkpt>
      <trkpt lat="42.557235" lon="-0.379018">
        <ele>903.0</ele>
        <time>2019-03-26T09:14:28.000Z</time>
      </trkpt>
      <trkpt lat="42.557265" lon="-0.37903">
        <ele>903.0</ele>
        <time>2019-03-26T09:14:29.000Z</time>
      </trkpt>
      <trkpt lat="42.557295" lon="-0.379042">
        <ele>903.0</ele>
        <time>2019-03-26T09:14:30.000Z</time>
      </trkpt>
      <trkpt lat="42.557326" lon="-0.379053">
        <ele>903.0</ele>
        <time>2019-03-26T09:14:31.000Z</time>
      </trkpt>
      <trkpt lat="42.557357" lon="-0.379063">
        <ele>903.0</ele>
        <time>2019-03-26T09:14:32.000Z</time>
      </trkpt>
      <trkpt lat="42.557389" lon="-0.379073">
        <ele>904.0</ele>
        <time>2019-03-26T09:14:33.000Z</time>
      </trkpt>
      <trkpt lat="42.557422" lon="-0.379083">
        <ele>904.0</ele>
        <time>2019-03-26T09:14:34.000Z</time>
      </trkpt>
      <trkpt lat="42.557455" lon="-0.379092">
        <ele>904.0</ele>
        <time>2019-03-26T09:14:35.000Z</time>
      </trkpt>
      <trkpt lat="42.557489" lon="-0.3791">
        <ele>904.0</ele>
        <time>2019-03-26T09:14:36.000Z</time>
      </trkpt>
      <trkpt lat="42.557524" lon="-0.379108">
        <ele>904.0</ele>
        <time>2019-03-26T09:14:37.000Z</time>
      </trkpt>
      <trkpt lat="42.557559" lon="-0.379115">
        <ele>904.0</ele>
        <time>2019-03-26T09:14:38.000Z</time>
      </trkpt>
      <trkpt lat="42.557595" lon="-0.379121">
        <ele>904.0</ele>
        <time>2019-03-26T09:14:39.000Z</time>
      </trkpt>
      <trkpt lat="42.557632" lon="-0.379127">
        <ele>904.0</ele>
        <time>2019-03-26T09:14:40.000Z</time>
      </trkpt>
      <trkpt lat="42.557668" lon="-0.379132">
        <ele>904.0</ele>
        <time>2019-03-26T09:14:41.000Z</time>
      </trkpt>
      <trkpt lat="42.557706" lon="-0.379138">
        <ele>904.0</ele>
        <time>2019-03-26T09:14:42.000Z</time>
      </trkpt>
      <trkpt lat="42.557743" lon="-0.379143">
        <ele>904.0</ele>
        <time>2019-03-26T09:14:43.000Z</time>
      </trkpt>
      <trkpt lat="42.557781" lon="-0.37915">
        <ele>904.0</ele>
        <time>2019-03-26T09:14:44.000Z</time>
      </trkpt>
      <trkpt lat="42.557819" lon="-0.379156">
        <ele>904.0</ele>
        <time>2019-03-26T09:14:45.000Z</time>
      </trkpt>
      <trkpt lat="42.557856" lon="-0.379164">
        <ele>904.0</ele>
        <time>2019-03-26T09:14:46.000Z</time>
      </trkpt>
      <trkpt lat="42.557894" lon="-0.379173">
        <ele>904.0</ele>
        <time>2019-03-26T09:14:47.000Z</time>
      </trkpt>
      <trkpt lat="42.55793" lon="-0.379182">
        <ele>904.0</ele>
        <time>2019-03-26T09:14:48.000Z</time>
      </trkpt>
      <trkpt lat="42.557966" lon="-0.37919">
        <ele>904.0</ele>
        <time>2019-03-26T09:14:49.000Z</time>
      </trkpt>
      <trkpt lat="42.558" lon="-0.379199">
        <ele>904.0</ele>
        <time>2019-03-26T09:14:50.000Z</time>
      </trkpt>
      <trkpt lat="42.558033" lon="-0.379208">
        <ele>904.0</ele>
        <time>2019-03-26T09:14:51.000Z</time>
      </trkpt>
      <trkpt lat="42.558066" lon="-0.379217">
        <ele>904.0</ele>
        <time>2019-03-26T09:14:52.000Z</time>
      </trkpt>
      <trkpt lat="42.5581" lon="-0.379228">
        <ele>904.0</ele>
        <time>2019-03-26T09:14:53.000Z</time>
      </trkpt>
      <trkpt lat="42.558135" lon="-0.379242">
        <ele>904.0</ele>
        <time>2019-03-26T09:14:54.000Z</time>
      </trkpt>
      <trkpt lat="42.558171" lon="-0.379258">
        <ele>904.0</ele>
        <time>2019-03-26T09:14:55.000Z</time>
      </trkpt>
      <trkpt lat="42.558208" lon="-0.379278">
        <ele>904.0</ele>
        <time>2019-03-26T09:14:56.000Z</time>
      </trkpt>
      <trkpt lat="42.558247" lon="-0.379302">
        <ele>904.0</ele>
        <time>2019-03-26T09:14:57.000Z</time>
      </trkpt>
      <trkpt lat="42.558287" lon="-0.379331">
        <ele>903.0</ele>
        <time>2019-03-26T09:14:58.000Z</time>
      </trkpt>
      <trkpt lat="42.558328" lon="-0.379363">
        <ele>903.0</ele>
        <time>2019-03-26T09:14:59.000Z</time>
      </trkpt>
      <trkpt lat="42.558368" lon="-0.379399">
        <ele>903.0</ele>
        <time>2019-03-26T09:15:00.000Z</time>
      </trkpt>
      <trkpt lat="42.558408" lon="-0.379436">
        <ele>903.0</ele>
        <time>2019-03-26T09:15:01.000Z</time>
      </trkpt>
      <trkpt lat="42.558447" lon="-0.379474">
        <ele>903.0</ele>
        <time>2019-03-26T09:15:02.000Z</time>
      </trkpt>
      <trkpt lat="42.558485" lon="-0.379512">
        <ele>903.0</ele>
        <time>2019-03-26T09:15:03.000Z</time>
      </trkpt>
      <trkpt lat="42.558522" lon="-0.379547">
        <ele>902.0</ele>
        <time>2019-03-26T09:15:04.000Z</time>
      </trkpt>
      <trkpt lat="42.558559" lon="-0.379582">
        <ele>902.0</ele>
        <time>2019-03-26T09:15:05.000Z</time>
      </trkpt>
      <trkpt lat="42.558596" lon="-0.379616">
        <ele>902.0</ele>
        <time>2019-03-26T09:15:06.000Z</time>
      </trkpt>
      <trkpt lat="42.558633" lon="-0.379652">
        <ele>902.0</ele>
        <time>2019-03-26T09:15:07.000Z</time>
      </trkpt>
      <trkpt lat="42.558671" lon="-0.379687">
        <ele>902.0</ele>
        <time>2019-03-26T09:15:08.000Z</time>
      </trkpt>
      <trkpt lat="42.558709" lon="-0.379724">
        <ele>902.0</ele>
        <time>2019-03-26T09:15:09.000Z</time>
      </trkpt>
      <trkpt lat="42.558746" lon="-0.379761">
        <ele>902.0</ele>
        <time>2019-03-26T09:15:10.000Z</time>
      </trkpt>
      <trkpt lat="42.558782" lon="-0.379799">
        <ele>902.0</ele>
        <time>2019-03-26T09:15:11.000Z</time>
      </trkpt>
      <trkpt lat="42.558816" lon="-0.379838">
        <ele>902.0</ele>
        <time>2019-03-26T09:15:12.000Z</time>
      </trkpt>
      <trkpt lat="42.558847" lon="-0.379877">
        <ele>901.0</ele>
        <time>2019-03-26T09:15:13.000Z</time>
      </trkpt>
      <trkpt lat="42.558876" lon="-0.379916">
        <ele>901.0</ele>
        <time>2019-03-26T09:15:14.000Z</time>
      </trkpt>
      <trkpt lat="42.558902" lon="-0.379956">
        <ele>901.0</ele>
        <time>2019-03-26T09:15:15.000Z</time>
      </trkpt>
      <trkpt lat="42.558927" lon="-0.379997">
        <ele>900.0</ele>
        <time>2019-03-26T09:15:16.000Z</time>
      </trkpt>
      <trkpt lat="42.55895" lon="-0.380038">
        <ele>900.0</ele>
        <time>2019-03-26T09:15:17.000Z</time>
      </trkpt>
      <trkpt lat="42.558972" lon="-0.38008">
        <ele>899.0</ele>
        <time>2019-03-26T09:15:18.000Z</time>
      </trkpt>
      <trkpt lat="42.558994" lon="-0.380123">
        <ele>899.0</ele>
        <time>2019-03-26T09:15:19.000Z</time>
      </trkpt>
      <trkpt lat="42.559017" lon="-0.380166">
        <ele>898.0</ele>
        <time>2019-03-26T09:15:20.000Z</time>
      </trkpt>
      <trkpt lat="42.55904" lon="-0.38021">
        <ele>898.0</ele>
        <time>2019-03-26T09:15:21.000Z</time>
      </trkpt>
      <trkpt lat="42.559064" lon="-0.380253">
        <ele>898.0</ele>
        <time>2019-03-26T09:15:22.000Z</time>
      </trkpt>
      <trkpt lat="42.559089" lon="-0.380296">
        <ele>898.0</ele>
        <time>2019-03-26T09:15:23.000Z</time>
      </trkpt>
      <trkpt lat="42.559115" lon="-0.380338">
        <ele>897.0</ele>
        <time>2019-03-26T09:15:24.000Z</time>
      </trkpt>
      <trkpt lat="42.559139" lon="-0.380379">
        <ele>897.0</ele>
        <time>2019-03-26T09:15:25.000Z</time>
      </trkpt>
      <trkpt lat="42.559161" lon="-0.38042">
        <ele>897.0</ele>
        <time>2019-03-26T09:15:26.000Z</time>
      </trkpt>
      <trkpt lat="42.559179" lon="-0.380461">
        <ele>897.0</ele>
        <time>2019-03-26T09:15:27.000Z</time>
      </trkpt>
      <trkpt lat="42.559194" lon="-0.380499">
        <ele>896.0</ele>
        <time>2019-03-26T09:15:28.000Z</time>
      </trkpt>
      <trkpt lat="42.559208" lon="-0.380534">
        <ele>896.0</ele>
        <time>2019-03-26T09:15:29.000Z</time>
      </trkpt>
      <trkpt lat="42.559221" lon="-0.380563">
        <ele>896.0</ele>
        <time>2019-03-26T09:15:30.000Z</time>
      </trkpt>
      <trkpt lat="42.559237" lon="-0.380584">
        <ele>896.0</ele>
        <time>2019-03-26T09:15:31.000Z</time>
      </trkpt>
      <trkpt lat="42.559256" lon="-0.380595">
        <ele>895.0</ele>
        <time>2019-03-26T09:15:32.000Z</time>
      </trkpt>
      <trkpt lat="42.559281" lon="-0.380595">
        <ele>895.0</ele>
        <time>2019-03-26T09:15:33.000Z</time>
      </trkpt>
      <trkpt lat="42.559312" lon="-0.380584">
        <ele>895.0</ele>
        <time>2019-03-26T09:15:34.000Z</time>
      </trkpt>
      <trkpt lat="42.559351" lon="-0.380565">
        <ele>894.0</ele>
        <time>2019-03-26T09:15:35.000Z</time>
      </trkpt>
      <trkpt lat="42.559397" lon="-0.380545">
        <ele>893.0</ele>
        <time>2019-03-26T09:15:36.000Z</time>
      </trkpt>
      <trkpt lat="42.559451" lon="-0.380531">
        <ele>893.0</ele>
        <time>2019-03-26T09:15:37.000Z</time>
      </trkpt>
      <trkpt lat="42.559512" lon="-0.380528">
        <ele>892.0</ele>
        <time>2019-03-26T09:15:38.000Z</time>
      </trkpt>
      <trkpt lat="42.559576" lon="-0.380542">
        <ele>892.0</ele>
        <time>2019-03-26T09:15:39.000Z</time>
      </trkpt>
      <trkpt lat="42.559636" lon="-0.380573">
        <ele>892.0</ele>
        <time>2019-03-26T09:15:40.000Z</time>
      </trkpt>
      <trkpt lat="42.559689" lon="-0.380604">
        <ele>893.0</ele>
        <time>2019-03-26T09:15:41.000Z</time>
      </trkpt>
      <trkpt lat="42.559735" lon="-0.380634">
        <ele>893.0</ele>
        <time>2019-03-26T09:15:42.000Z</time>
      </trkpt>
      <trkpt lat="42.559775" lon="-0.38066">
        <ele>893.0</ele>
        <time>2019-03-26T09:15:43.000Z</time>
      </trkpt>
      <trkpt lat="42.559811" lon="-0.380685">
        <ele>894.0</ele>
        <time>2019-03-26T09:15:44.000Z</time>
      </trkpt>
      <trkpt lat="42.559842" lon="-0.380708">
        <ele>894.0</ele>
        <time>2019-03-26T09:15:45.000Z</time>
      </trkpt>
      <trkpt lat="42.559872" lon="-0.380729">
        <ele>894.0</ele>
        <time>2019-03-26T09:15:46.000Z</time>
      </trkpt>
      <trkpt lat="42.5599" lon="-0.380749">
        <ele>894.0</ele>
        <time>2019-03-26T09:15:47.000Z</time>
      </trkpt>
      <trkpt lat="42.559927" lon="-0.380768">
        <ele>895.0</ele>
        <time>2019-03-26T09:15:48.000Z</time>
      </trkpt>
      <trkpt lat="42.559955" lon="-0.380785">
        <ele>895.0</ele>
        <time>2019-03-26T09:15:49.000Z</time>
      </trkpt>
      <trkpt lat="42.559982" lon="-0.380802">
        <ele>895.0</ele>
        <time>2019-03-26T09:15:50.000Z</time>
      </trkpt>
      <trkpt lat="42.560008" lon="-0.380819">
        <ele>896.0</ele>
        <time>2019-03-26T09:15:51.000Z</time>
      </trkpt>
      <trkpt lat="42.560035" lon="-0.380834">
        <ele>896.0</ele>
        <time>2019-03-26T09:15:52.000Z</time>
      </trkpt>
      <trkpt lat="42.56006" lon="-0.38085">
        <ele>896.0</ele>
        <time>2019-03-26T09:15:53.000Z</time>
      </trkpt>
      <trkpt lat="42.560086" lon="-0.380865">
        <ele>897.0</ele>
        <time>2019-03-26T09:15:54.000Z</time>
      </trkpt>
      <trkpt lat="42.560111" lon="-0.38088">
        <ele>897.0</ele>
        <time>2019-03-26T09:15:55.000Z</time>
      </trkpt>
      <trkpt lat="42.560136" lon="-0.380895">
        <ele>897.0</ele>
        <time>2019-03-26T09:15:56.000Z</time>
      </trkpt>
      <trkpt lat="42.56016" lon="-0.380911">
        <ele>897.0</ele>
        <time>2019-03-26T09:15:57.000Z</time>
      </trkpt>
      <trkpt lat="42.560184" lon="-0.380926">
        <ele>898.0</ele>
        <time>2019-03-26T09:15:58.000Z</time>
      </trkpt>
      <trkpt lat="42.560207" lon="-0.380943">
        <ele>898.0</ele>
        <time>2019-03-26T09:15:59.000Z</time>
      </trkpt>
      <trkpt lat="42.56023" lon="-0.38096">
        <ele>898.0</ele>
        <time>2019-03-26T09:16:00.000Z</time>
      </trkpt>
      <trkpt lat="42.560252" lon="-0.380978">
        <ele>898.0</ele>
        <time>2019-03-26T09:16:01.000Z</time>
      </trkpt>
      <trkpt lat="42.560274" lon="-0.380997">
        <ele>898.0</ele>
        <time>2019-03-26T09:16:02.000Z</time>
      </trkpt>
      <trkpt lat="42.560295" lon="-0.381017">
        <ele>899.0</ele>
        <time>2019-03-26T09:16:03.000Z</time>
      </trkpt>
      <trkpt lat="42.560316" lon="-0.381037">
        <ele>899.0</ele>
        <time>2019-03-26T09:16:04.000Z</time>
      </trkpt>
      <trkpt lat="42.560336" lon="-0.381059">
        <ele>899.0</ele>
        <time>2019-03-26T09:16:05.000Z</time>
      </trkpt>
      <trkpt lat="42.560356" lon="-0.381081">
        <ele>899.0</ele>
        <time>2019-03-26T09:16:06.000Z</time>
      </trkpt>
      <trkpt lat="42.560375" lon="-0.381104">
        <ele>899.0</ele>
        <time>2019-03-26T09:16:07.000Z</time>
      </trkpt>
      <trkpt lat="42.560394" lon="-0.381128">
        <ele>899.0</ele>
        <time>2019-03-26T09:16:08.000Z</time>
      </trkpt>
      <trkpt lat="42.560413" lon="-0.381152">
        <ele>900.0</ele>
        <time>2019-03-26T09:16:09.000Z</time>
      </trkpt>
      <trkpt lat="42.560431" lon="-0.381177">
        <ele>900.0</ele>
        <time>2019-03-26T09:16:10.000Z</time>
      </trkpt>
      <trkpt lat="42.560449" lon="-0.381202">
        <ele>900.0</ele>
        <time>2019-03-26T09:16:11.000Z</time>
      </trkpt>
      <trkpt lat="42.560466" lon="-0.381228">
        <ele>901.0</ele>
        <time>2019-03-26T09:16:12.000Z</time>
      </trkpt>
      <trkpt lat="42.560483" lon="-0.381254">
        <ele>901.0</ele>
        <time>2019-03-26T09:16:13.000Z</time>
      </trkpt>
      <trkpt lat="42.5605" lon="-0.38128">
        <ele>901.0</ele>
        <time>2019-03-26T09:16:14.000Z</time>
      </trkpt>
      <trkpt lat="42.560517" lon="-0.381306">
        <ele>902.0</ele>
        <time>2019-03-26T09:16:15.000Z</time>
      </trkpt>
      <trkpt lat="42.560533" lon="-0.381333">
        <ele>902.0</ele>
        <time>2019-03-26T09:16:16.000Z</time>
      </trkpt>
      <trkpt lat="42.560549" lon="-0.38136">
        <ele>902.0</ele>
        <time>2019-03-26T09:16:17.000Z</time>
      </trkpt>
      <trkpt lat="42.560565" lon="-0.381386">
        <ele>902.0</ele>
        <time>2019-03-26T09:16:18.000Z</time>
      </trkpt>
      <trkpt lat="42.560581" lon="-0.381413">
        <ele>903.0</ele>
        <time>2019-03-26T09:16:19.000Z</time>
      </trkpt>
      <trkpt lat="42.560597" lon="-0.38144">
        <ele>903.0</ele>
        <time>2019-03-26T09:16:20.000Z</time>
      </trkpt>
      <trkpt lat="42.560612" lon="-0.381466">
        <ele>904.0</ele>
        <time>2019-03-26T09:16:21.000Z</time>
      </trkpt>
      <trkpt lat="42.560628" lon="-0.381493">
        <ele>904.0</ele>
        <time>2019-03-26T09:16:22.000Z</time>
      </trkpt>
      <trkpt lat="42.560643" lon="-0.381519">
        <ele>904.0</ele>
        <time>2019-03-26T09:16:23.000Z</time>
      </trkpt>
      <trkpt lat="42.560658" lon="-0.381545">
        <ele>905.0</ele>
        <time>2019-03-26T09:16:24.000Z</time>
      </trkpt>
      <trkpt lat="42.560674" lon="-0.381571">
        <ele>905.0</ele>
        <time>2019-03-26T09:16:25.000Z</time>
      </trkpt>
      <trkpt lat="42.560689" lon="-0.381597">
        <ele>905.0</ele>
        <time>2019-03-26T09:16:26.000Z</time>
      </trkpt>
      <trkpt lat="42.560705" lon="-0.381622">
        <ele>906.0</ele>
        <time>2019-03-26T09:16:27.000Z</time>
      </trkpt>
      <trkpt lat="42.56072" lon="-0.381647">
        <ele>906.0</ele>
        <time>2019-03-26T09:16:28.000Z</time>
      </trkpt>
      <trkpt lat="42.560736" lon="-0.381672">
        <ele>906.0</ele>
        <time>2019-03-26T09:16:29.000Z</time>
      </trkpt>
      <trkpt lat="42.560752" lon="-0.381696">
        <ele>906.0</ele>
        <time>2019-03-26T09:16:30.000Z</time>
      </trkpt>
      <trkpt lat="42.560768" lon="-0.381719">
        <ele>907.0</ele>
        <time>2019-03-26T09:16:31.000Z</time>
      </trkpt>
      <trkpt lat="42.560785" lon="-0.381743">
        <ele>907.0</ele>
        <time>2019-03-26T09:16:32.000Z</time>
      </trkpt>
      <trkpt lat="42.560802" lon="-0.381766">
        <ele>907.0</ele>
        <time>2019-03-26T09:16:33.000Z</time>
      </trkpt>
      <trkpt lat="42.560821" lon="-0.381789">
        <ele>907.0</ele>
        <time>2019-03-26T09:16:34.000Z</time>
      </trkpt>
      <trkpt lat="42.56084" lon="-0.381812">
        <ele>907.0</ele>
        <time>2019-03-26T09:16:35.000Z</time>
      </trkpt>
      <trkpt lat="42.560861" lon="-0.381835">
        <ele>907.0</ele>
        <time>2019-03-26T09:16:36.000Z</time>
      </trkpt>
      <trkpt lat="42.560884" lon="-0.381858">
        <ele>907.0</ele>
        <time>2019-03-26T09:16:37.000Z</time>
      </trkpt>
      <trkpt lat="42.560909" lon="-0.381881">
        <ele>907.0</ele>
        <time>2019-03-26T09:16:38.000Z</time>
      </trkpt>
      <trkpt lat="42.560937" lon="-0.381905">
        <ele>907.0</ele>
        <time>2019-03-26T09:16:39.000Z</time>
      </trkpt>
      <trkpt lat="42.56097" lon="-0.38193">
        <ele>907.0</ele>
        <time>2019-03-26T09:16:40.000Z</time>
      </trkpt>
      <trkpt lat="42.561008" lon="-0.381956">
        <ele>906.0</ele>
        <time>2019-03-26T09:16:41.000Z</time>
      </trkpt>
      <trkpt lat="42.561046" lon="-0.381984">
        <ele>906.0</ele>
        <time>2019-03-26T09:16:42.000Z</time>
      </trkpt>
      <trkpt lat="42.561081" lon="-0.382015">
        <ele>906.0</ele>
        <time>2019-03-26T09:16:43.000Z</time>
      </trkpt>
      <trkpt lat="42.561108" lon="-0.382049">
        <ele>906.0</ele>
        <time>2019-03-26T09:16:44.000Z</time>
      </trkpt>
      <trkpt lat="42.561127" lon="-0.382087">
        <ele>906.0</ele>
        <time>2019-03-26T09:16:45.000Z</time>
      </trkpt>
      <trkpt lat="42.561137" lon="-0.382129">
        <ele>905.0</ele>
        <time>2019-03-26T09:16:46.000Z</time>
      </trkpt>
      <trkpt lat="42.561138" lon="-0.382175">
        <ele>905.0</ele>
        <time>2019-03-26T09:16:47.000Z</time>
      </trkpt>
      <trkpt lat="42.561131" lon="-0.382225">
        <ele>905.0</ele>
        <time>2019-03-26T09:16:48.000Z</time>
      </trkpt>
      <trkpt lat="42.561122" lon="-0.382275">
        <ele>905.0</ele>
        <time>2019-03-26T09:16:49.000Z</time>
      </trkpt>
      <trkpt lat="42.561114" lon="-0.382324">
        <ele>904.0</ele>
        <time>2019-03-26T09:16:50.000Z</time>
      </trkpt>
      <trkpt lat="42.561113" lon="-0.382369">
        <ele>904.0</ele>
        <time>2019-03-26T09:16:51.000Z</time>
      </trkpt>
      <trkpt lat="42.561118" lon="-0.382411">
        <ele>904.0</ele>
        <time>2019-03-26T09:16:52.000Z</time>
      </trkpt>
      <trkpt lat="42.561127" lon="-0.382452">
        <ele>903.0</ele>
        <time>2019-03-26T09:16:53.000Z</time>
      </trkpt>
      <trkpt lat="42.561139" lon="-0.382494">
        <ele>903.0</ele>
        <time>2019-03-26T09:16:54.000Z</time>
      </trkpt>
      <trkpt lat="42.56115" lon="-0.382539">
        <ele>902.0</ele>
        <time>2019-03-26T09:16:55.000Z</time>
      </trkpt>
      <trkpt lat="42.561162" lon="-0.382586">
        <ele>902.0</ele>
        <time>2019-03-26T09:16:56.000Z</time>
      </trkpt>
      <trkpt lat="42.561172" lon="-0.382637">
        <ele>902.0</ele>
        <time>2019-03-26T09:16:57.000Z</time>
      </trkpt>
      <trkpt lat="42.561181" lon="-0.382689">
        <ele>901.0</ele>
        <time>2019-03-26T09:16:58.000Z</time>
      </trkpt>
      <trkpt lat="42.561189" lon="-0.382744">
        <ele>901.0</ele>
        <time>2019-03-26T09:16:59.000Z</time>
      </trkpt>
      <trkpt lat="42.561197" lon="-0.382799">
        <ele>900.0</ele>
        <time>2019-03-26T09:17:00.000Z</time>
      </trkpt>
      <trkpt lat="42.561206" lon="-0.382853">
        <ele>900.0</ele>
        <time>2019-03-26T09:17:01.000Z</time>
      </trkpt>
      <trkpt lat="42.561217" lon="-0.382904">
        <ele>900.0</ele>
        <time>2019-03-26T09:17:02.000Z</time>
      </trkpt>
      <trkpt lat="42.56123" lon="-0.382952">
        <ele>899.0</ele>
        <time>2019-03-26T09:17:03.000Z</time>
      </trkpt>
      <trkpt lat="42.561246" lon="-0.382995">
        <ele>899.0</ele>
        <time>2019-03-26T09:17:04.000Z</time>
      </trkpt>
      <trkpt lat="42.561266" lon="-0.383033">
        <ele>900.0</ele>
        <time>2019-03-26T09:17:05.000Z</time>
      </trkpt>
      <trkpt lat="42.561289" lon="-0.383064">
        <ele>900.0</ele>
        <time>2019-03-26T09:17:06.000Z</time>
      </trkpt>
      <trkpt lat="42.561315" lon="-0.383092">
        <ele>900.0</ele>
        <time>2019-03-26T09:17:07.000Z</time>
      </trkpt>
      <trkpt lat="42.561343" lon="-0.383115">
        <ele>900.0</ele>
        <time>2019-03-26T09:17:08.000Z</time>
      </trkpt>
      <trkpt lat="42.561373" lon="-0.383135">
        <ele>900.0</ele>
        <time>2019-03-26T09:17:09.000Z</time>
      </trkpt>
      <trkpt lat="42.561402" lon="-0.383153">
        <ele>900.0</ele>
        <time>2019-03-26T09:17:10.000Z</time>
      </trkpt>
      <trkpt lat="42.561432" lon="-0.38317">
        <ele>900.0</ele>
        <time>2019-03-26T09:17:11.000Z</time>
      </trkpt>
      <trkpt lat="42.56146" lon="-0.383188">
        <ele>900.0</ele>
        <time>2019-03-26T09:17:12.000Z</time>
      </trkpt>
      <trkpt lat="42.561485" lon="-0.38321">
        <ele>900.0</ele>
        <time>2019-03-26T09:17:13.000Z</time>
      </trkpt>
      <trkpt lat="42.561507" lon="-0.383239">
        <ele>900.0</ele>
        <time>2019-03-26T09:17:14.000Z</time>
      </trkpt>
      <trkpt lat="42.561525" lon="-0.383275">
        <ele>900.0</ele>
        <time>2019-03-26T09:17:15.000Z</time>
      </trkpt>
      <trkpt lat="42.56154" lon="-0.383317">
        <ele>900.0</ele>
        <time>2019-03-26T09:17:16.000Z</time>
      </trkpt>
      <trkpt lat="42.561557" lon="-0.383361">
        <ele>900.0</ele>
        <time>2019-03-26T09:17:17.000Z</time>
      </trkpt>
      <trkpt lat="42.561576" lon="-0.383402">
        <ele>900.0</ele>
        <time>2019-03-26T09:17:18.000Z</time>
      </trkpt>
      <trkpt lat="42.561599" lon="-0.383441">
        <ele>900.0</ele>
        <time>2019-03-26T09:17:19.000Z</time>
      </trkpt>
      <trkpt lat="42.561623" lon="-0.383479">
        <ele>900.0</ele>
        <time>2019-03-26T09:17:20.000Z</time>
      </trkpt>
      <trkpt lat="42.561649" lon="-0.383515">
        <ele>900.0</ele>
        <time>2019-03-26T09:17:21.000Z</time>
      </trkpt>
      <trkpt lat="42.561676" lon="-0.383551">
        <ele>900.0</ele>
        <time>2019-03-26T09:17:22.000Z</time>
      </trkpt>
      <trkpt lat="42.561702" lon="-0.383587">
        <ele>900.0</ele>
        <time>2019-03-26T09:17:23.000Z</time>
      </trkpt>
      <trkpt lat="42.561727" lon="-0.383624">
        <ele>900.0</ele>
        <time>2019-03-26T09:17:24.000Z</time>
      </trkpt>
      <trkpt lat="42.561751" lon="-0.383663">
        <ele>900.0</ele>
        <time>2019-03-26T09:17:25.000Z</time>
      </trkpt>
      <trkpt lat="42.561773" lon="-0.383702">
        <ele>900.0</ele>
        <time>2019-03-26T09:17:26.000Z</time>
      </trkpt>
      <trkpt lat="42.561794" lon="-0.383741">
        <ele>900.0</ele>
        <time>2019-03-26T09:17:27.000Z</time>
      </trkpt>
      <trkpt lat="42.561815" lon="-0.38378">
        <ele>900.0</ele>
        <time>2019-03-26T09:17:28.000Z</time>
      </trkpt>
      <trkpt lat="42.561837" lon="-0.383819">
        <ele>900.0</ele>
        <time>2019-03-26T09:17:29.000Z</time>
      </trkpt>
      <trkpt lat="42.56186" lon="-0.383855">
        <ele>900.0</ele>
        <time>2019-03-26T09:17:30.000Z</time>
      </trkpt>
      <trkpt lat="42.561885" lon="-0.383889">
        <ele>900.0</ele>
        <time>2019-03-26T09:17:31.000Z</time>
      </trkpt>
      <trkpt lat="42.56191" lon="-0.383922">
        <ele>900.0</ele>
        <time>2019-03-26T09:17:32.000Z</time>
      </trkpt>
      <trkpt lat="42.561933" lon="-0.383956">
        <ele>900.0</ele>
        <time>2019-03-26T09:17:33.000Z</time>
      </trkpt>
      <trkpt lat="42.561949" lon="-0.383995">
        <ele>900.0</ele>
        <time>2019-03-26T09:17:34.000Z</time>
      </trkpt>
      <trkpt lat="42.561964" lon="-0.384036">
        <ele>900.0</ele>
        <time>2019-03-26T09:17:35.000Z</time>
      </trkpt>
      <trkpt lat="42.561983" lon="-0.384077">
        <ele>900.0</ele>
        <time>2019-03-26T09:17:36.000Z</time>
      </trkpt>
      <trkpt lat="42.562005" lon="-0.384117">
        <ele>900.0</ele>
        <time>2019-03-26T09:17:37.000Z</time>
      </trkpt>
      <trkpt lat="42.56203" lon="-0.384158">
        <ele>900.0</ele>
        <time>2019-03-26T09:17:38.000Z</time>
      </trkpt>
      <trkpt lat="42.562053" lon="-0.3842">
        <ele>899.0</ele>
        <time>2019-03-26T09:17:39.000Z</time>
      </trkpt>
      <trkpt lat="42.562075" lon="-0.38424">
        <ele>899.0</ele>
        <time>2019-03-26T09:17:40.000Z</time>
      </trkpt>
      <trkpt lat="42.562093" lon="-0.384277">
        <ele>899.0</ele>
        <time>2019-03-26T09:17:41.000Z</time>
      </trkpt>
      <trkpt lat="42.562107" lon="-0.384308">
        <ele>899.0</ele>
        <time>2019-03-26T09:17:42.000Z</time>
      </trkpt>
      <trkpt lat="42.562116" lon="-0.384331">
        <ele>899.0</ele>
        <time>2019-03-26T09:17:43.000Z</time>
      </trkpt>
      <trkpt lat="42.56212" lon="-0.384347">
        <ele>899.0</ele>
        <time>2019-03-26T09:17:44.000Z</time>
      </trkpt>
      <trkpt lat="42.562123" lon="-0.384358">
        <ele>899.0</ele>
        <time>2019-03-26T09:17:45.000Z</time>
      </trkpt>
      <trkpt lat="42.562124" lon="-0.384365">
        <ele>899.0</ele>
        <time>2019-03-26T09:17:46.000Z</time>
      </trkpt>
      <trkpt lat="42.562126" lon="-0.38437">
        <ele>899.0</ele>
        <time>2019-03-26T09:17:47.000Z</time>
      </trkpt>
      <trkpt lat="42.562127" lon="-0.384372">
        <ele>899.0</ele>
        <time>2019-03-26T09:17:48.000Z</time>
      </trkpt>
      <trkpt lat="42.562128" lon="-0.384373">
        <ele>899.0</ele>
        <time>2019-03-26T09:17:49.000Z</time>
      </trkpt>
      <trkpt lat="42.562129" lon="-0.384372">
        <ele>899.0</ele>
        <time>2019-03-26T09:17:50.000Z</time>
      </trkpt>
      <trkpt lat="42.56213" lon="-0.384371">
        <ele>899.0</ele>
        <time>2019-03-26T09:17:51.000Z</time>
      </trkpt>
      <trkpt lat="42.562131" lon="-0.38437">
        <ele>899.0</ele>
        <time>2019-03-26T09:17:52.000Z</time>
      </trkpt>
      <trkpt lat="42.562132" lon="-0.38437">
        <ele>899.0</ele>
        <time>2019-03-26T09:17:53.000Z</time>
      </trkpt>
      <trkpt lat="42.562132" lon="-0.38437">
        <ele>899.0</ele>
        <time>2019-03-26T09:17:54.000Z</time>
      </trkpt>
      <trkpt lat="42.562133" lon="-0.384371">
        <ele>899.0</ele>
        <time>2019-03-26T09:17:55.000Z</time>
      </trkpt>
      <trkpt lat="42.562133" lon="-0.384371">
        <ele>899.0</ele>
        <time>2019-03-26T09:17:56.000Z</time>
      </trkpt>
      <trkpt lat="42.562133" lon="-0.384371">
        <ele>899.0</ele>
        <time>2019-03-26T09:17:57.000Z</time>
      </trkpt>
      <trkpt lat="42.562133" lon="-0.384371">
        <ele>899.0</ele>
        <time>2019-03-26T09:17:58.000Z</time>
      </trkpt>
      <trkpt lat="42.562133" lon="-0.384371">
        <ele>899.0</ele>
        <time>2019-03-26T09:17:59.000Z</time>
      </trkpt>
      <trkpt lat="42.562133" lon="-0.38437">
        <ele>899.0</ele>
        <time>2019-03-26T09:18:00.000Z</time>
      </trkpt>
      <trkpt lat="42.562132" lon="-0.38437">
        <ele>899.0</ele>
        <time>2019-03-26T09:18:01.000Z</time>
      </trkpt>
      <trkpt lat="42.562133" lon="-0.384371">
        <ele>899.0</ele>
        <time>2019-03-26T09:18:02.000Z</time>
      </trkpt>
      <trkpt lat="42.562135" lon="-0.384376">
        <ele>899.0</ele>
        <time>2019-03-26T09:18:03.000Z</time>
      </trkpt>
      <trkpt lat="42.562138" lon="-0.384385">
        <ele>899.0</ele>
        <time>2019-03-26T09:18:04.000Z</time>
      </trkpt>
      <trkpt lat="42.562144" lon="-0.3844">
        <ele>899.0</ele>
        <time>2019-03-26T09:18:05.000Z</time>
      </trkpt>
      <trkpt lat="42.562152" lon="-0.384421">
        <ele>899.0</ele>
        <time>2019-03-26T09:18:06.000Z</time>
      </trkpt>
      <trkpt lat="42.562162" lon="-0.384447">
        <ele>899.0</ele>
        <time>2019-03-26T09:18:07.000Z</time>
      </trkpt>
      <trkpt lat="42.562174" lon="-0.384476">
        <ele>899.0</ele>
        <time>2019-03-26T09:18:08.000Z</time>
      </trkpt>
      <trkpt lat="42.562185" lon="-0.384505">
        <ele>899.0</ele>
        <time>2019-03-26T09:18:09.000Z</time>
      </trkpt>
      <trkpt lat="42.562195" lon="-0.384535">
        <ele>899.0</ele>
        <time>2019-03-26T09:18:10.000Z</time>
      </trkpt>
      <trkpt lat="42.562202" lon="-0.384566">
        <ele>899.0</ele>
        <time>2019-03-26T09:18:11.000Z</time>
      </trkpt>
      <trkpt lat="42.562205" lon="-0.384603">
        <ele>898.0</ele>
        <time>2019-03-26T09:18:12.000Z</time>
      </trkpt>
      <trkpt lat="42.562203" lon="-0.384648">
        <ele>898.0</ele>
        <time>2019-03-26T09:18:13.000Z</time>
      </trkpt>
      <trkpt lat="42.562196" lon="-0.3847">
        <ele>898.0</ele>
        <time>2019-03-26T09:18:14.000Z</time>
      </trkpt>
      <trkpt lat="42.562185" lon="-0.38476">
        <ele>897.0</ele>
        <time>2019-03-26T09:18:15.000Z</time>
      </trkpt>
      <trkpt lat="42.562171" lon="-0.384826">
        <ele>897.0</ele>
        <time>2019-03-26T09:18:16.000Z</time>
      </trkpt>
      <trkpt lat="42.562155" lon="-0.384898">
        <ele>896.0</ele>
        <time>2019-03-26T09:18:17.000Z</time>
      </trkpt>
      <trkpt lat="42.562136" lon="-0.384975">
        <ele>896.0</ele>
        <time>2019-03-26T09:18:18.000Z</time>
      </trkpt>
      <trkpt lat="42.562117" lon="-0.385056">
        <ele>895.0</ele>
        <time>2019-03-26T09:18:19.000Z</time>
      </trkpt>
      <trkpt lat="42.562097" lon="-0.38514">
        <ele>894.0</ele>
        <time>2019-03-26T09:18:20.000Z</time>
      </trkpt>
      <trkpt lat="42.562078" lon="-0.385228">
        <ele>893.0</ele>
        <time>2019-03-26T09:18:21.000Z</time>
      </trkpt>
      <trkpt lat="42.562059" lon="-0.38532">
        <ele>893.0</ele>
        <time>2019-03-26T09:18:22.000Z</time>
      </trkpt>
      <trkpt lat="42.562041" lon="-0.385413">
        <ele>892.0</ele>
        <time>2019-03-26T09:18:23.000Z</time>
      </trkpt>
      <trkpt lat="42.562024" lon="-0.38551">
        <ele>891.0</ele>
        <time>2019-03-26T09:18:24.000Z</time>
      </trkpt>
      <trkpt lat="42.562008" lon="-0.385609">
        <ele>891.0</ele>
        <time>2019-03-26T09:18:25.000Z</time>
      </trkpt>
      <trkpt lat="42.561994" lon="-0.38571">
        <ele>890.0</ele>
        <time>2019-03-26T09:18:26.000Z</time>
      </trkpt>
      <trkpt lat="42.561981" lon="-0.385813">
        <ele>889.0</ele>
        <time>2019-03-26T09:18:27.000Z</time>
      </trkpt>
      <trkpt lat="42.561968" lon="-0.385917">
        <ele>888.0</ele>
        <time>2019-03-26T09:18:28.000Z</time>
      </trkpt>
      <trkpt lat="42.561953" lon="-0.386021">
        <ele>887.0</ele>
        <time>2019-03-26T09:18:29.000Z</time>
      </trkpt>
      <trkpt lat="42.561933" lon="-0.386126">
        <ele>887.0</ele>
        <time>2019-03-26T09:18:30.000Z</time>
      </trkpt>
      <trkpt lat="42.561906" lon="-0.38623">
        <ele>886.0</ele>
        <time>2019-03-26T09:18:31.000Z</time>
      </trkpt>
      <trkpt lat="42.561872" lon="-0.386333">
        <ele>886.0</ele>
        <time>2019-03-26T09:18:32.000Z</time>
      </trkpt>
      <trkpt lat="42.561831" lon="-0.386434">
        <ele>885.0</ele>
        <time>2019-03-26T09:18:33.000Z</time>
      </trkpt>
      <trkpt lat="42.561784" lon="-0.386532">
        <ele>884.0</ele>
        <time>2019-03-26T09:18:34.000Z</time>
      </trkpt>
      <trkpt lat="42.561731" lon="-0.386627">
        <ele>883.0</ele>
        <time>2019-03-26T09:18:35.000Z</time>
      </trkpt>
      <trkpt lat="42.561675" lon="-0.38672">
        <ele>882.0</ele>
        <time>2019-03-26T09:18:36.000Z</time>
      </trkpt>
      <trkpt lat="42.561619" lon="-0.386811">
        <ele>882.0</ele>
        <time>2019-03-26T09:18:37.000Z</time>
      </trkpt>
      <trkpt lat="42.561563" lon="-0.386899">
        <ele>881.0</ele>
        <time>2019-03-26T09:18:38.000Z</time>
      </trkpt>
      <trkpt lat="42.561508" lon="-0.386986">
        <ele>880.0</ele>
        <time>2019-03-26T09:18:39.000Z</time>
      </trkpt>
      <trkpt lat="42.561452" lon="-0.387072">
        <ele>880.0</ele>
        <time>2019-03-26T09:18:40.000Z</time>
      </trkpt>
      <trkpt lat="42.561395" lon="-0.387159">
        <ele>879.0</ele>
        <time>2019-03-26T09:18:41.000Z</time>
      </trkpt>
      <trkpt lat="42.561336" lon="-0.387245">
        <ele>879.0</ele>
        <time>2019-03-26T09:18:42.000Z</time>
      </trkpt>
      <trkpt lat="42.561275" lon="-0.387333">
        <ele>878.0</ele>
        <time>2019-03-26T09:18:43.000Z</time>
      </trkpt>
      <trkpt lat="42.561214" lon="-0.38742">
        <ele>877.0</ele>
        <time>2019-03-26T09:18:44.000Z</time>
      </trkpt>
      <trkpt lat="42.561152" lon="-0.387508">
        <ele>877.0</ele>
        <time>2019-03-26T09:18:45.000Z</time>
      </trkpt>
      <trkpt lat="42.56109" lon="-0.387597">
        <ele>876.0</ele>
        <time>2019-03-26T09:18:46.000Z</time>
      </trkpt>
      <trkpt lat="42.561028" lon="-0.387685">
        <ele>876.0</ele>
        <time>2019-03-26T09:18:47.000Z</time>
      </trkpt>
      <trkpt lat="42.560967" lon="-0.387775">
        <ele>875.0</ele>
        <time>2019-03-26T09:18:48.000Z</time>
      </trkpt>
      <trkpt lat="42.560906" lon="-0.387865">
        <ele>874.0</ele>
        <time>2019-03-26T09:18:49.000Z</time>
      </trkpt>
      <trkpt lat="42.560845" lon="-0.387955">
        <ele>874.0</ele>
        <time>2019-03-26T09:18:50.000Z</time>
      </trkpt>
      <trkpt lat="42.560785" lon="-0.388046">
        <ele>873.0</ele>
        <time>2019-03-26T09:18:51.000Z</time>
      </trkpt>
      <trkpt lat="42.560725" lon="-0.388138">
        <ele>873.0</ele>
        <time>2019-03-26T09:18:52.000Z</time>
      </trkpt>
      <trkpt lat="42.560665" lon="-0.388231">
        <ele>872.0</ele>
        <time>2019-03-26T09:18:53.000Z</time>
      </trkpt>
      <trkpt lat="42.560605" lon="-0.388324">
        <ele>873.0</ele>
        <time>2019-03-26T09:18:54.000Z</time>
      </trkpt>
      <trkpt lat="42.560545" lon="-0.388418">
        <ele>872.0</ele>
        <time>2019-03-26T09:18:55.000Z</time>
      </trkpt>
      <trkpt lat="42.560486" lon="-0.388513">
        <ele>871.0</ele>
        <time>2019-03-26T09:18:56.000Z</time>
      </trkpt>
      <trkpt lat="42.560425" lon="-0.388607">
        <ele>870.0</ele>
        <time>2019-03-26T09:18:57.000Z</time>
      </trkpt>
      <trkpt lat="42.560365" lon="-0.3887">
        <ele>869.0</ele>
        <time>2019-03-26T09:18:58.000Z</time>
      </trkpt>
      <trkpt lat="42.560304" lon="-0.388792">
        <ele>869.0</ele>
        <time>2019-03-26T09:18:59.000Z</time>
      </trkpt>
      <trkpt lat="42.560242" lon="-0.388882">
        <ele>868.0</ele>
        <time>2019-03-26T09:19:00.000Z</time>
      </trkpt>
      <trkpt lat="42.560179" lon="-0.388969">
        <ele>869.0</ele>
        <time>2019-03-26T09:19:01.000Z</time>
      </trkpt>
      <trkpt lat="42.560115" lon="-0.389054">
        <ele>868.0</ele>
        <time>2019-03-26T09:19:02.000Z</time>
      </trkpt>
      <trkpt lat="42.560051" lon="-0.389136">
        <ele>867.0</ele>
        <time>2019-03-26T09:19:03.000Z</time>
      </trkpt>
      <trkpt lat="42.559986" lon="-0.389214">
        <ele>867.0</ele>
        <time>2019-03-26T09:19:04.000Z</time>
      </trkpt>
      <trkpt lat="42.559921" lon="-0.38929">
        <ele>867.0</ele>
        <time>2019-03-26T09:19:05.000Z</time>
      </trkpt>
      <trkpt lat="42.559855" lon="-0.389362">
        <ele>867.0</ele>
        <time>2019-03-26T09:19:06.000Z</time>
      </trkpt>
      <trkpt lat="42.55979" lon="-0.38943">
        <ele>866.0</ele>
        <time>2019-03-26T09:19:07.000Z</time>
      </trkpt>
      <trkpt lat="42.559724" lon="-0.389494">
        <ele>866.0</ele>
        <time>2019-03-26T09:19:08.000Z</time>
      </trkpt>
      <trkpt lat="42.559658" lon="-0.389555">
        <ele>866.0</ele>
        <time>2019-03-26T09:19:09.000Z</time>
      </trkpt>
      <trkpt lat="42.559592" lon="-0.389611">
        <ele>866.0</ele>
        <time>2019-03-26T09:19:10.000Z</time>
      </trkpt>
      <trkpt lat="42.559526" lon="-0.389664">
        <ele>866.0</ele>
        <time>2019-03-26T09:19:11.000Z</time>
      </trkpt>
      <trkpt lat="42.55946" lon="-0.389711">
        <ele>866.0</ele>
        <time>2019-03-26T09:19:12.000Z</time>
      </trkpt>
      <trkpt lat="42.559395" lon="-0.389754">
        <ele>866.0</ele>
        <time>2019-03-26T09:19:13.000Z</time>
      </trkpt>
      <trkpt lat="42.559331" lon="-0.389793">
        <ele>866.0</ele>
        <time>2019-03-26T09:19:14.000Z</time>
      </trkpt>
      <trkpt lat="42.559267" lon="-0.389826">
        <ele>866.0</ele>
        <time>2019-03-26T09:19:15.000Z</time>
      </trkpt>
      <trkpt lat="42.559204" lon="-0.389855">
        <ele>865.0</ele>
        <time>2019-03-26T09:19:16.000Z</time>
      </trkpt>
      <trkpt lat="42.559141" lon="-0.389881">
        <ele>865.0</ele>
        <time>2019-03-26T09:19:17.000Z</time>
      </trkpt>
      <trkpt lat="42.559079" lon="-0.389904">
        <ele>865.0</ele>
        <time>2019-03-26T09:19:18.000Z</time>
      </trkpt>
      <trkpt lat="42.559018" lon="-0.389925">
        <ele>865.0</ele>
        <time>2019-03-26T09:19:19.000Z</time>
      </trkpt>
      <trkpt lat="42.558958" lon="-0.389944">
        <ele>865.0</ele>
        <time>2019-03-26T09:19:20.000Z</time>
      </trkpt>
      <trkpt lat="42.558898" lon="-0.389964">
        <ele>865.0</ele>
        <time>2019-03-26T09:19:21.000Z</time>
      </trkpt>
      <trkpt lat="42.558839" lon="-0.389983">
        <ele>865.0</ele>
        <time>2019-03-26T09:19:22.000Z</time>
      </trkpt>
      <trkpt lat="42.55878" lon="-0.390003">
        <ele>865.0</ele>
        <time>2019-03-26T09:19:23.000Z</time>
      </trkpt>
      <trkpt lat="42.558723" lon="-0.390025">
        <ele>865.0</ele>
        <time>2019-03-26T09:19:24.000Z</time>
      </trkpt>
      <trkpt lat="42.558666" lon="-0.390049">
        <ele>865.0</ele>
        <time>2019-03-26T09:19:25.000Z</time>
      </trkpt>
      <trkpt lat="42.55861" lon="-0.390077">
        <ele>865.0</ele>
        <time>2019-03-26T09:19:26.000Z</time>
      </trkpt>
      <trkpt lat="42.558554" lon="-0.390108">
        <ele>864.0</ele>
        <time>2019-03-26T09:19:27.000Z</time>
      </trkpt>
      <trkpt lat="42.5585" lon="-0.390144">
        <ele>864.0</ele>
        <time>2019-03-26T09:19:28.000Z</time>
      </trkpt>
      <trkpt lat="42.558446" lon="-0.390185">
        <ele>864.0</ele>
        <time>2019-03-26T09:19:29.000Z</time>
      </trkpt>
      <trkpt lat="42.558393" lon="-0.390231">
        <ele>864.0</ele>
        <time>2019-03-26T09:19:30.000Z</time>
      </trkpt>
      <trkpt lat="42.558341" lon="-0.39028">
        <ele>864.0</ele>
        <time>2019-03-26T09:19:31.000Z</time>
      </trkpt>
      <trkpt lat="42.55829" lon="-0.390333">
        <ele>864.0</ele>
        <time>2019-03-26T09:19:32.000Z</time>
      </trkpt>
      <trkpt lat="42.55824" lon="-0.390387">
        <ele>864.0</ele>
        <time>2019-03-26T09:19:33.000Z</time>
      </trkpt>
      <trkpt lat="42.558191" lon="-0.390443">
        <ele>864.0</ele>
        <time>2019-03-26T09:19:34.000Z</time>
      </trkpt>
      <trkpt lat="42.558144" lon="-0.390499">
        <ele>864.0</ele>
        <time>2019-03-26T09:19:35.000Z</time>
      </trkpt>
      <trkpt lat="42.558097" lon="-0.390555">
        <ele>864.0</ele>
        <time>2019-03-26T09:19:36.000Z</time>
      </trkpt>
      <trkpt lat="42.558051" lon="-0.39061">
        <ele>864.0</ele>
        <time>2019-03-26T09:19:37.000Z</time>
      </trkpt>
      <trkpt lat="42.558005" lon="-0.390666">
        <ele>864.0</ele>
        <time>2019-03-26T09:19:38.000Z</time>
      </trkpt>
      <trkpt lat="42.557958" lon="-0.390722">
        <ele>863.0</ele>
        <time>2019-03-26T09:19:39.000Z</time>
      </trkpt>
      <trkpt lat="42.557909" lon="-0.390778">
        <ele>863.0</ele>
        <time>2019-03-26T09:19:40.000Z</time>
      </trkpt>
      <trkpt lat="42.557858" lon="-0.390835">
        <ele>862.0</ele>
        <time>2019-03-26T09:19:41.000Z</time>
      </trkpt>
      <trkpt lat="42.557804" lon="-0.390893">
        <ele>861.0</ele>
        <time>2019-03-26T09:19:42.000Z</time>
      </trkpt>
      <trkpt lat="42.557746" lon="-0.390951">
        <ele>861.0</ele>
        <time>2019-03-26T09:19:43.000Z</time>
      </trkpt>
      <trkpt lat="42.557683" lon="-0.391008">
        <ele>860.0</ele>
        <time>2019-03-26T09:19:44.000Z</time>
      </trkpt>
      <trkpt lat="42.557616" lon="-0.391061">
        <ele>859.0</ele>
        <time>2019-03-26T09:19:45.000Z</time>
      </trkpt>
      <trkpt lat="42.557544" lon="-0.391109">
        <ele>859.0</ele>
        <time>2019-03-26T09:19:46.000Z</time>
      </trkpt>
      <trkpt lat="42.557467" lon="-0.39115">
        <ele>858.0</ele>
        <time>2019-03-26T09:19:47.000Z</time>
      </trkpt>
      <trkpt lat="42.557386" lon="-0.391187">
        <ele>857.0</ele>
        <time>2019-03-26T09:19:48.000Z</time>
      </trkpt>
      <trkpt lat="42.557302" lon="-0.391222">
        <ele>856.0</ele>
        <time>2019-03-26T09:19:49.000Z</time>
      </trkpt>
      <trkpt lat="42.557216" lon="-0.39126">
        <ele>855.0</ele>
        <time>2019-03-26T09:19:50.000Z</time>
      </trkpt>
      <trkpt lat="42.55713" lon="-0.391302">
        <ele>854.0</ele>
        <time>2019-03-26T09:19:51.000Z</time>
      </trkpt>
      <trkpt lat="42.557045" lon="-0.391352">
        <ele>853.0</ele>
        <time>2019-03-26T09:19:52.000Z</time>
      </trkpt>
      <trkpt lat="42.556962" lon="-0.391411">
        <ele>853.0</ele>
        <time>2019-03-26T09:19:53.000Z</time>
      </trkpt>
      <trkpt lat="42.556882" lon="-0.391478">
        <ele>852.0</ele>
        <time>2019-03-26T09:19:54.000Z</time>
      </trkpt>
      <trkpt lat="42.556804" lon="-0.391552">
        <ele>852.0</ele>
        <time>2019-03-26T09:19:55.000Z</time>
      </trkpt>
      <trkpt lat="42.556729" lon="-0.391632">
        <ele>851.0</ele>
        <time>2019-03-26T09:19:56.000Z</time>
      </trkpt>
      <trkpt lat="42.556654" lon="-0.391712">
        <ele>850.0</ele>
        <time>2019-03-26T09:19:57.000Z</time>
      </trkpt>
      <trkpt lat="42.556577" lon="-0.391787">
        <ele>849.0</ele>
        <time>2019-03-26T09:19:58.000Z</time>
      </trkpt>
      <trkpt lat="42.556497" lon="-0.391853">
        <ele>848.0</ele>
        <time>2019-03-26T09:19:59.000Z</time>
      </trkpt>
      <trkpt lat="42.556411" lon="-0.391905">
        <ele>847.0</ele>
        <time>2019-03-26T09:20:00.000Z</time>
      </trkpt>
      <trkpt lat="42.556323" lon="-0.391946">
        <ele>846.0</ele>
        <time>2019-03-26T09:20:01.000Z</time>
      </trkpt>
      <trkpt lat="42.556233" lon="-0.391977">
        <ele>847.0</ele>
        <time>2019-03-26T09:20:02.000Z</time>
      </trkpt>
      <trkpt lat="42.556145" lon="-0.392001">
        <ele>846.0</ele>
        <time>2019-03-26T09:20:03.000Z</time>
      </trkpt>
      <trkpt lat="42.556059" lon="-0.392021">
        <ele>845.0</ele>
        <time>2019-03-26T09:20:04.000Z</time>
      </trkpt>
      <trkpt lat="42.555975" lon="-0.392041">
        <ele>844.0</ele>
        <time>2019-03-26T09:20:05.000Z</time>
      </trkpt>
      <trkpt lat="42.555891" lon="-0.392063">
        <ele>843.0</ele>
        <time>2019-03-26T09:20:06.000Z</time>
      </trkpt>
      <trkpt lat="42.555809" lon="-0.39209">
        <ele>842.0</ele>
        <time>2019-03-26T09:20:07.000Z</time>
      </trkpt>
      <trkpt lat="42.555729" lon="-0.392122">
        <ele>842.0</ele>
        <time>2019-03-26T09:20:08.000Z</time>
      </trkpt>
      <trkpt lat="42.555651" lon="-0.392161">
        <ele>843.0</ele>
        <time>2019-03-26T09:20:09.000Z</time>
      </trkpt>
      <trkpt lat="42.555578" lon="-0.392205">
        <ele>843.0</ele>
        <time>2019-03-26T09:20:10.000Z</time>
      </trkpt>
      <trkpt lat="42.555507" lon="-0.392254">
        <ele>842.0</ele>
        <time>2019-03-26T09:20:11.000Z</time>
      </trkpt>
      <trkpt lat="42.55544" lon="-0.392307">
        <ele>841.0</ele>
        <time>2019-03-26T09:20:12.000Z</time>
      </trkpt>
      <trkpt lat="42.555374" lon="-0.392364">
        <ele>840.0</ele>
        <time>2019-03-26T09:20:13.000Z</time>
      </trkpt>
      <trkpt lat="42.555311" lon="-0.392423">
        <ele>840.0</ele>
        <time>2019-03-26T09:20:14.000Z</time>
      </trkpt>
      <trkpt lat="42.555249" lon="-0.392484">
        <ele>841.0</ele>
        <time>2019-03-26T09:20:15.000Z</time>
      </trkpt>
      <trkpt lat="42.555187" lon="-0.392545">
        <ele>840.0</ele>
        <time>2019-03-26T09:20:16.000Z</time>
      </trkpt>
      <trkpt lat="42.555126" lon="-0.392606">
        <ele>839.0</ele>
        <time>2019-03-26T09:20:17.000Z</time>
      </trkpt>
      <trkpt lat="42.555065" lon="-0.392667">
        <ele>839.0</ele>
        <time>2019-03-26T09:20:18.000Z</time>
      </trkpt>
      <trkpt lat="42.555004" lon="-0.392728">
        <ele>840.0</ele>
        <time>2019-03-26T09:20:19.000Z</time>
      </trkpt>
      <trkpt lat="42.554944" lon="-0.392788">
        <ele>840.0</ele>
        <time>2019-03-26T09:20:20.000Z</time>
      </trkpt>
      <trkpt lat="42.554883" lon="-0.392848">
        <ele>839.0</ele>
        <time>2019-03-26T09:20:21.000Z</time>
      </trkpt>
      <trkpt lat="42.554823" lon="-0.392908">
        <ele>838.0</ele>
        <time>2019-03-26T09:20:22.000Z</time>
      </trkpt>
      <trkpt lat="42.554764" lon="-0.392967">
        <ele>837.0</ele>
        <time>2019-03-26T09:20:23.000Z</time>
      </trkpt>
      <trkpt lat="42.554704" lon="-0.393027">
        <ele>837.0</ele>
        <time>2019-03-26T09:20:24.000Z</time>
      </trkpt>
      <trkpt lat="42.554645" lon="-0.393086">
        <ele>837.0</ele>
        <time>2019-03-26T09:20:25.000Z</time>
      </trkpt>
      <trkpt lat="42.554585" lon="-0.393145">
        <ele>836.0</ele>
        <time>2019-03-26T09:20:26.000Z</time>
      </trkpt>
      <trkpt lat="42.554525" lon="-0.393204">
        <ele>836.0</ele>
        <time>2019-03-26T09:20:27.000Z</time>
      </trkpt>
      <trkpt lat="42.554465" lon="-0.393264">
        <ele>837.0</ele>
        <time>2019-03-26T09:20:28.000Z</time>
      </trkpt>
      <trkpt lat="42.554404" lon="-0.393324">
        <ele>836.0</ele>
        <time>2019-03-26T09:20:29.000Z</time>
      </trkpt>
      <trkpt lat="42.554342" lon="-0.393385">
        <ele>836.0</ele>
        <time>2019-03-26T09:20:30.000Z</time>
      </trkpt>
      <trkpt lat="42.554279" lon="-0.393446">
        <ele>835.0</ele>
        <time>2019-03-26T09:20:31.000Z</time>
      </trkpt>
      <trkpt lat="42.554216" lon="-0.393509">
        <ele>835.0</ele>
        <time>2019-03-26T09:20:32.000Z</time>
      </trkpt>
      <trkpt lat="42.554153" lon="-0.393573">
        <ele>834.0</ele>
        <time>2019-03-26T09:20:33.000Z</time>
      </trkpt>
      <trkpt lat="42.554092" lon="-0.393638">
        <ele>834.0</ele>
        <time>2019-03-26T09:20:34.000Z</time>
      </trkpt>
      <trkpt lat="42.554031" lon="-0.393705">
        <ele>834.0</ele>
        <time>2019-03-26T09:20:35.000Z</time>
      </trkpt>
      <trkpt lat="42.553974" lon="-0.393774">
        <ele>833.0</ele>
        <time>2019-03-26T09:20:36.000Z</time>
      </trkpt>
      <trkpt lat="42.553919" lon="-0.393846">
        <ele>833.0</ele>
        <time>2019-03-26T09:20:37.000Z</time>
      </trkpt>
      <trkpt lat="42.553867" lon="-0.393919">
        <ele>833.0</ele>
        <time>2019-03-26T09:20:38.000Z</time>
      </trkpt>
      <trkpt lat="42.553819" lon="-0.393993">
        <ele>833.0</ele>
        <time>2019-03-26T09:20:39.000Z</time>
      </trkpt>
      <trkpt lat="42.553774" lon="-0.394065">
        <ele>833.0</ele>
        <time>2019-03-26T09:20:40.000Z</time>
      </trkpt>
      <trkpt lat="42.553731" lon="-0.394134">
        <ele>834.0</ele>
        <time>2019-03-26T09:20:41.000Z</time>
      </trkpt>
      <trkpt lat="42.553689" lon="-0.394199">
        <ele>833.0</ele>
        <time>2019-03-26T09:20:42.000Z</time>
      </trkpt>
      <trkpt lat="42.553649" lon="-0.394259">
        <ele>834.0</ele>
        <time>2019-03-26T09:20:43.000Z</time>
      </trkpt>
      <trkpt lat="42.55361" lon="-0.394316">
        <ele>834.0</ele>
        <time>2019-03-26T09:20:44.000Z</time>
      </trkpt>
      <trkpt lat="42.553572" lon="-0.394371">
        <ele>834.0</ele>
        <time>2019-03-26T09:20:45.000Z</time>
      </trkpt>
      <trkpt lat="42.553534" lon="-0.394425">
        <ele>835.0</ele>
        <time>2019-03-26T09:20:46.000Z</time>
      </trkpt>
      <trkpt lat="42.553497" lon="-0.39448">
        <ele>835.0</ele>
        <time>2019-03-26T09:20:47.000Z</time>
      </trkpt>
      <trkpt lat="42.553461" lon="-0.394536">
        <ele>835.0</ele>
        <time>2019-03-26T09:20:48.000Z</time>
      </trkpt>
      <trkpt lat="42.553426" lon="-0.394594">
        <ele>836.0</ele>
        <time>2019-03-26T09:20:49.000Z</time>
      </trkpt>
      <trkpt lat="42.553391" lon="-0.394653">
        <ele>835.0</ele>
        <time>2019-03-26T09:20:50.000Z</time>
      </trkpt>
      <trkpt lat="42.553355" lon="-0.394712">
        <ele>835.0</ele>
        <time>2019-03-26T09:20:51.000Z</time>
      </trkpt>
      <trkpt lat="42.553318" lon="-0.394771">
        <ele>835.0</ele>
        <time>2019-03-26T09:20:52.000Z</time>
      </trkpt>
      <trkpt lat="42.55328" lon="-0.394831">
        <ele>835.0</ele>
        <time>2019-03-26T09:20:53.000Z</time>
      </trkpt>
      <trkpt lat="42.553242" lon="-0.394892">
        <ele>834.0</ele>
        <time>2019-03-26T09:20:54.000Z</time>
      </trkpt>
      <trkpt lat="42.553203" lon="-0.394952">
        <ele>834.0</ele>
        <time>2019-03-26T09:20:55.000Z</time>
      </trkpt>
      <trkpt lat="42.553164" lon="-0.395014">
        <ele>834.0</ele>
        <time>2019-03-26T09:20:56.000Z</time>
      </trkpt>
      <trkpt lat="42.553124" lon="-0.395076">
        <ele>834.0</ele>
        <time>2019-03-26T09:20:57.000Z</time>
      </trkpt>
      <trkpt lat="42.553083" lon="-0.395138">
        <ele>834.0</ele>
        <time>2019-03-26T09:20:58.000Z</time>
      </trkpt>
      <trkpt lat="42.553043" lon="-0.395202">
        <ele>833.0</ele>
        <time>2019-03-26T09:20:59.000Z</time>
      </trkpt>
      <trkpt lat="42.553002" lon="-0.395266">
        <ele>833.0</ele>
        <time>2019-03-26T09:21:00.000Z</time>
      </trkpt>
      <trkpt lat="42.55296" lon="-0.395332">
        <ele>833.0</ele>
        <time>2019-03-26T09:21:01.000Z</time>
      </trkpt>
      <trkpt lat="42.552919" lon="-0.395398">
        <ele>833.0</ele>
        <time>2019-03-26T09:21:02.000Z</time>
      </trkpt>
      <trkpt lat="42.552877" lon="-0.395466">
        <ele>833.0</ele>
        <time>2019-03-26T09:21:03.000Z</time>
      </trkpt>
      <trkpt lat="42.552836" lon="-0.395534">
        <ele>833.0</ele>
        <time>2019-03-26T09:21:04.000Z</time>
      </trkpt>
      <trkpt lat="42.552794" lon="-0.395604">
        <ele>833.0</ele>
        <time>2019-03-26T09:21:05.000Z</time>
      </trkpt>
      <trkpt lat="42.552753" lon="-0.395675">
        <ele>833.0</ele>
        <time>2019-03-26T09:21:06.000Z</time>
      </trkpt>
      <trkpt lat="42.552711" lon="-0.395746">
        <ele>833.0</ele>
        <time>2019-03-26T09:21:07.000Z</time>
      </trkpt>
      <trkpt lat="42.55267" lon="-0.395819">
        <ele>832.0</ele>
        <time>2019-03-26T09:21:08.000Z</time>
      </trkpt>
      <trkpt lat="42.55263" lon="-0.395891">
        <ele>832.0</ele>
        <time>2019-03-26T09:21:09.000Z</time>
      </trkpt>
      <trkpt lat="42.552589" lon="-0.395965">
        <ele>832.0</ele>
        <time>2019-03-26T09:21:10.000Z</time>
      </trkpt>
      <trkpt lat="42.552549" lon="-0.396038">
        <ele>831.0</ele>
        <time>2019-03-26T09:21:11.000Z</time>
      </trkpt>
      <trkpt lat="42.55251" lon="-0.396111">
        <ele>831.0</ele>
        <time>2019-03-26T09:21:12.000Z</time>
      </trkpt>
      <trkpt lat="42.552471" lon="-0.396184">
        <ele>831.0</ele>
        <time>2019-03-26T09:21:13.000Z</time>
      </trkpt>
      <trkpt lat="42.552433" lon="-0.396257">
        <ele>831.0</ele>
        <time>2019-03-26T09:21:14.000Z</time>
      </trkpt>
      <trkpt lat="42.552395" lon="-0.396329">
        <ele>830.0</ele>
        <time>2019-03-26T09:21:15.000Z</time>
      </trkpt>
      <trkpt lat="42.552358" lon="-0.396401">
        <ele>830.0</ele>
        <time>2019-03-26T09:21:16.000Z</time>
      </trkpt>
      <trkpt lat="42.552323" lon="-0.396471">
        <ele>831.0</ele>
        <time>2019-03-26T09:21:17.000Z</time>
      </trkpt>
      <trkpt lat="42.552288" lon="-0.396541">
        <ele>831.0</ele>
        <time>2019-03-26T09:21:18.000Z</time>
      </trkpt>
      <trkpt lat="42.552254" lon="-0.396609">
        <ele>831.0</ele>
        <time>2019-03-26T09:21:19.000Z</time>
      </trkpt>
      <trkpt lat="42.552221" lon="-0.396676">
        <ele>832.0</ele>
        <time>2019-03-26T09:21:20.000Z</time>
      </trkpt>
      <trkpt lat="42.552188" lon="-0.396742">
        <ele>832.0</ele>
        <time>2019-03-26T09:21:21.000Z</time>
      </trkpt>
      <trkpt lat="42.552157" lon="-0.396807">
        <ele>832.0</ele>
        <time>2019-03-26T09:21:22.000Z</time>
      </trkpt>
      <trkpt lat="42.552126" lon="-0.396872">
        <ele>831.0</ele>
        <time>2019-03-26T09:21:23.000Z</time>
      </trkpt>
      <trkpt lat="42.552095" lon="-0.396935">
        <ele>831.0</ele>
        <time>2019-03-26T09:21:24.000Z</time>
      </trkpt>
      <trkpt lat="42.552065" lon="-0.396998">
        <ele>831.0</ele>
        <time>2019-03-26T09:21:25.000Z</time>
      </trkpt>
      <trkpt lat="42.552036" lon="-0.39706">
        <ele>831.0</ele>
        <time>2019-03-26T09:21:26.000Z</time>
      </trkpt>
      <trkpt lat="42.552006" lon="-0.397122">
        <ele>831.0</ele>
        <time>2019-03-26T09:21:27.000Z</time>
      </trkpt>
      <trkpt lat="42.551977" lon="-0.397183">
        <ele>831.0</ele>
        <time>2019-03-26T09:21:28.000Z</time>
      </trkpt>
      <trkpt lat="42.551948" lon="-0.397245">
        <ele>831.0</ele>
        <time>2019-03-26T09:21:29.000Z</time>
      </trkpt>
      <trkpt lat="42.551919" lon="-0.397306">
        <ele>831.0</ele>
        <time>2019-03-26T09:21:30.000Z</time>
      </trkpt>
      <trkpt lat="42.55189" lon="-0.397366">
        <ele>832.0</ele>
        <time>2019-03-26T09:21:31.000Z</time>
      </trkpt>
      <trkpt lat="42.55186" lon="-0.397427">
        <ele>832.0</ele>
        <time>2019-03-26T09:21:32.000Z</time>
      </trkpt>
      <trkpt lat="42.55183" lon="-0.397488">
        <ele>832.0</ele>
        <time>2019-03-26T09:21:33.000Z</time>
      </trkpt>
      <trkpt lat="42.5518" lon="-0.397549">
        <ele>832.0</ele>
        <time>2019-03-26T09:21:34.000Z</time>
      </trkpt>
      <trkpt lat="42.55177" lon="-0.39761">
        <ele>832.0</ele>
        <time>2019-03-26T09:21:35.000Z</time>
      </trkpt>
      <trkpt lat="42.551741" lon="-0.397671">
        <ele>832.0</ele>
        <time>2019-03-26T09:21:36.000Z</time>
      </trkpt>
      <trkpt lat="42.551711" lon="-0.397731">
        <ele>832.0</ele>
        <time>2019-03-26T09:21:37.000Z</time>
      </trkpt>
      <trkpt lat="42.551682" lon="-0.397791">
        <ele>832.0</ele>
        <time>2019-03-26T09:21:38.000Z</time>
      </trkpt>
      <trkpt lat="42.551654" lon="-0.39785">
        <ele>832.0</ele>
        <time>2019-03-26T09:21:39.000Z</time>
      </trkpt>
      <trkpt lat="42.551626" lon="-0.397909">
        <ele>832.0</ele>
        <time>2019-03-26T09:21:40.000Z</time>
      </trkpt>
      <trkpt lat="42.5516" lon="-0.397967">
        <ele>832.0</ele>
        <time>2019-03-26T09:21:41.000Z</time>
      </trkpt>
      <trkpt lat="42.551574" lon="-0.398024">
        <ele>832.0</ele>
        <time>2019-03-26T09:21:42.000Z</time>
      </trkpt>
      <trkpt lat="42.55155" lon="-0.39808">
        <ele>832.0</ele>
        <time>2019-03-26T09:21:43.000Z</time>
      </trkpt>
      <trkpt lat="42.551527" lon="-0.398136">
        <ele>832.0</ele>
        <time>2019-03-26T09:21:44.000Z</time>
      </trkpt>
      <trkpt lat="42.551505" lon="-0.39819">
        <ele>832.0</ele>
        <time>2019-03-26T09:21:45.000Z</time>
      </trkpt>
      <trkpt lat="42.551485" lon="-0.398242">
        <ele>833.0</ele>
        <time>2019-03-26T09:21:46.000Z</time>
      </trkpt>
      <trkpt lat="42.551468" lon="-0.398294">
        <ele>833.0</ele>
        <time>2019-03-26T09:21:47.000Z</time>
      </trkpt>
      <trkpt lat="42.551452" lon="-0.398343">
        <ele>833.0</ele>
        <time>2019-03-26T09:21:48.000Z</time>
      </trkpt>
      <trkpt lat="42.551439" lon="-0.39839">
        <ele>833.0</ele>
        <time>2019-03-26T09:21:49.000Z</time>
      </trkpt>
      <trkpt lat="42.55143" lon="-0.398435">
        <ele>834.0</ele>
        <time>2019-03-26T09:21:50.000Z</time>
      </trkpt>
      <trkpt lat="42.55143" lon="-0.398481">
        <ele>834.0</ele>
        <time>2019-03-26T09:21:51.000Z</time>
      </trkpt>
      <trkpt lat="42.551443" lon="-0.398526">
        <ele>834.0</ele>
        <time>2019-03-26T09:21:52.000Z</time>
      </trkpt>
      <trkpt lat="42.55146" lon="-0.398567">
        <ele>834.0</ele>
        <time>2019-03-26T09:21:53.000Z</time>
      </trkpt>
      <trkpt lat="42.55148" lon="-0.398601">
        <ele>834.0</ele>
        <time>2019-03-26T09:21:54.000Z</time>
      </trkpt>
      <trkpt lat="42.551502" lon="-0.398631">
        <ele>834.0</ele>
        <time>2019-03-26T09:21:55.000Z</time>
      </trkpt>
      <trkpt lat="42.551525" lon="-0.398658">
        <ele>834.0</ele>
        <time>2019-03-26T09:21:56.000Z</time>
      </trkpt>
      <trkpt lat="42.551549" lon="-0.398681">
        <ele>835.0</ele>
        <time>2019-03-26T09:21:57.000Z</time>
      </trkpt>
      <trkpt lat="42.551575" lon="-0.398703">
        <ele>835.0</ele>
        <time>2019-03-26T09:21:58.000Z</time>
      </trkpt>
      <trkpt lat="42.551601" lon="-0.398725">
        <ele>835.0</ele>
        <time>2019-03-26T09:21:59.000Z</time>
      </trkpt>
      <trkpt lat="42.551627" lon="-0.398748">
        <ele>835.0</ele>
        <time>2019-03-26T09:22:00.000Z</time>
      </trkpt>
      <trkpt lat="42.551654" lon="-0.398771">
        <ele>835.0</ele>
        <time>2019-03-26T09:22:01.000Z</time>
      </trkpt>
      <trkpt lat="42.551681" lon="-0.398794">
        <ele>835.0</ele>
        <time>2019-03-26T09:22:02.000Z</time>
      </trkpt>
      <trkpt lat="42.551708" lon="-0.398818">
        <ele>836.0</ele>
        <time>2019-03-26T09:22:03.000Z</time>
      </trkpt>
      <trkpt lat="42.551734" lon="-0.398841">
        <ele>836.0</ele>
        <time>2019-03-26T09:22:04.000Z</time>
      </trkpt>
      <trkpt lat="42.551761" lon="-0.398864">
        <ele>836.0</ele>
        <time>2019-03-26T09:22:05.000Z</time>
      </trkpt>
      <trkpt lat="42.551786" lon="-0.398886">
        <ele>836.0</ele>
        <time>2019-03-26T09:22:06.000Z</time>
      </trkpt>
      <trkpt lat="42.551811" lon="-0.398908">
        <ele>836.0</ele>
        <time>2019-03-26T09:22:07.000Z</time>
      </trkpt>
      <trkpt lat="42.551836" lon="-0.398928">
        <ele>836.0</ele>
        <time>2019-03-26T09:22:08.000Z</time>
      </trkpt>
      <trkpt lat="42.551859" lon="-0.398948">
        <ele>836.0</ele>
        <time>2019-03-26T09:22:09.000Z</time>
      </trkpt>
      <trkpt lat="42.551882" lon="-0.398968">
        <ele>837.0</ele>
        <time>2019-03-26T09:22:10.000Z</time>
      </trkpt>
      <trkpt lat="42.551905" lon="-0.398986">
        <ele>837.0</ele>
        <time>2019-03-26T09:22:11.000Z</time>
      </trkpt>
      <trkpt lat="42.551927" lon="-0.399004">
        <ele>837.0</ele>
        <time>2019-03-26T09:22:12.000Z</time>
      </trkpt>
      <trkpt lat="42.551948" lon="-0.399021">
        <ele>837.0</ele>
        <time>2019-03-26T09:22:13.000Z</time>
      </trkpt>
      <trkpt lat="42.551969" lon="-0.399037">
        <ele>838.0</ele>
        <time>2019-03-26T09:22:14.000Z</time>
      </trkpt>
      <trkpt lat="42.551989" lon="-0.399052">
        <ele>838.0</ele>
        <time>2019-03-26T09:22:15.000Z</time>
      </trkpt>
      <trkpt lat="42.552009" lon="-0.399067">
        <ele>838.0</ele>
        <time>2019-03-26T09:22:16.000Z</time>
      </trkpt>
      <trkpt lat="42.552028" lon="-0.399082">
        <ele>838.0</ele>
        <time>2019-03-26T09:22:17.000Z</time>
      </trkpt>
      <trkpt lat="42.552047" lon="-0.399096">
        <ele>839.0</ele>
        <time>2019-03-26T09:22:18.000Z</time>
      </trkpt>
      <trkpt lat="42.552066" lon="-0.399109">
        <ele>839.0</ele>
        <time>2019-03-26T09:22:19.000Z</time>
      </trkpt>
      <trkpt lat="42.552085" lon="-0.399122">
        <ele>840.0</ele>
        <time>2019-03-26T09:22:20.000Z</time>
      </trkpt>
      <trkpt lat="42.552104" lon="-0.399135">
        <ele>840.0</ele>
        <time>2019-03-26T09:22:21.000Z</time>
      </trkpt>
      <trkpt lat="42.552123" lon="-0.399148">
        <ele>840.0</ele>
        <time>2019-03-26T09:22:22.000Z</time>
      </trkpt>
      <trkpt lat="42.552142" lon="-0.39916">
        <ele>840.0</ele>
        <time>2019-03-26T09:22:23.000Z</time>
      </trkpt>
      <trkpt lat="42.552161" lon="-0.399172">
        <ele>841.0</ele>
        <time>2019-03-26T09:22:24.000Z</time>
      </trkpt>
      <trkpt lat="42.552181" lon="-0.399184">
        <ele>841.0</ele>
        <time>2019-03-26T09:22:25.000Z</time>
      </trkpt>
      <trkpt lat="42.5522" lon="-0.399196">
        <ele>841.0</ele>
        <time>2019-03-26T09:22:26.000Z</time>
      </trkpt>
      <trkpt lat="42.55222" lon="-0.399209">
        <ele>842.0</ele>
        <time>2019-03-26T09:22:27.000Z</time>
      </trkpt>
      <trkpt lat="42.552241" lon="-0.399221">
        <ele>842.0</ele>
        <time>2019-03-26T09:22:28.000Z</time>
      </trkpt>
      <trkpt lat="42.552262" lon="-0.399234">
        <ele>842.0</ele>
        <time>2019-03-26T09:22:29.000Z</time>
      </trkpt>
      <trkpt lat="42.552283" lon="-0.399246">
        <ele>843.0</ele>
        <time>2019-03-26T09:22:30.000Z</time>
      </trkpt>
      <trkpt lat="42.552304" lon="-0.39926">
        <ele>843.0</ele>
        <time>2019-03-26T09:22:31.000Z</time>
      </trkpt>
      <trkpt lat="42.552325" lon="-0.399273">
        <ele>843.0</ele>
        <time>2019-03-26T09:22:32.000Z</time>
      </trkpt>
      <trkpt lat="42.552347" lon="-0.399287">
        <ele>843.0</ele>
        <time>2019-03-26T09:22:33.000Z</time>
      </trkpt>
      <trkpt lat="42.552368" lon="-0.399302">
        <ele>843.0</ele>
        <time>2019-03-26T09:22:34.000Z</time>
      </trkpt>
      <trkpt lat="42.552389" lon="-0.399317">
        <ele>844.0</ele>
        <time>2019-03-26T09:22:35.000Z</time>
      </trkpt>
      <trkpt lat="42.55241" lon="-0.399333">
        <ele>844.0</ele>
        <time>2019-03-26T09:22:36.000Z</time>
      </trkpt>
      <trkpt lat="42.552431" lon="-0.39935">
        <ele>844.0</ele>
        <time>2019-03-26T09:22:37.000Z</time>
      </trkpt>
      <trkpt lat="42.552452" lon="-0.399368">
        <ele>844.0</ele>
        <time>2019-03-26T09:22:38.000Z</time>
      </trkpt>
      <trkpt lat="42.552471" lon="-0.399386">
        <ele>844.0</ele>
        <time>2019-03-26T09:22:39.000Z</time>
      </trkpt>
      <trkpt lat="42.552491" lon="-0.399406">
        <ele>844.0</ele>
        <time>2019-03-26T09:22:40.000Z</time>
      </trkpt>
      <trkpt lat="42.55251" lon="-0.399427">
        <ele>845.0</ele>
        <time>2019-03-26T09:22:41.000Z</time>
      </trkpt>
      <trkpt lat="42.552528" lon="-0.399448">
        <ele>845.0</ele>
        <time>2019-03-26T09:22:42.000Z</time>
      </trkpt>
      <trkpt lat="42.552545" lon="-0.399471">
        <ele>845.0</ele>
        <time>2019-03-26T09:22:43.000Z</time>
      </trkpt>
      <trkpt lat="42.552562" lon="-0.399494">
        <ele>845.0</ele>
        <time>2019-03-26T09:22:44.000Z</time>
      </trkpt>
      <trkpt lat="42.552578" lon="-0.399518">
        <ele>845.0</ele>
        <time>2019-03-26T09:22:45.000Z</time>
      </trkpt>
      <trkpt lat="42.552594" lon="-0.399543">
        <ele>846.0</ele>
        <time>2019-03-26T09:22:46.000Z</time>
      </trkpt>
      <trkpt lat="42.552608" lon="-0.399567">
        <ele>846.0</ele>
        <time>2019-03-26T09:22:47.000Z</time>
      </trkpt>
      <trkpt lat="42.552623" lon="-0.399592">
        <ele>846.0</ele>
        <time>2019-03-26T09:22:48.000Z</time>
      </trkpt>
      <trkpt lat="42.552636" lon="-0.399618">
        <ele>846.0</ele>
        <time>2019-03-26T09:22:49.000Z</time>
      </trkpt>
      <trkpt lat="42.55265" lon="-0.399643">
        <ele>846.0</ele>
        <time>2019-03-26T09:22:50.000Z</time>
      </trkpt>
      <trkpt lat="42.552663" lon="-0.399668">
        <ele>846.0</ele>
        <time>2019-03-26T09:22:51.000Z</time>
      </trkpt>
      <trkpt lat="42.552676" lon="-0.399693">
        <ele>846.0</ele>
        <time>2019-03-26T09:22:52.000Z</time>
      </trkpt>
      <trkpt lat="42.552689" lon="-0.399718">
        <ele>847.0</ele>
        <time>2019-03-26T09:22:53.000Z</time>
      </trkpt>
      <trkpt lat="42.552703" lon="-0.399743">
        <ele>847.0</ele>
        <time>2019-03-26T09:22:54.000Z</time>
      </trkpt>
      <trkpt lat="42.552717" lon="-0.399767">
        <ele>847.0</ele>
        <time>2019-03-26T09:22:55.000Z</time>
      </trkpt>
      <trkpt lat="42.552731" lon="-0.399791">
        <ele>847.0</ele>
        <time>2019-03-26T09:22:56.000Z</time>
      </trkpt>
      <trkpt lat="42.552746" lon="-0.399814">
        <ele>847.0</ele>
        <time>2019-03-26T09:22:57.000Z</time>
      </trkpt>
      <trkpt lat="42.552762" lon="-0.399837">
        <ele>847.0</ele>
        <time>2019-03-26T09:22:58.000Z</time>
      </trkpt>
      <trkpt lat="42.552777" lon="-0.399859">
        <ele>847.0</ele>
        <time>2019-03-26T09:22:59.000Z</time>
      </trkpt>
      <trkpt lat="42.552793" lon="-0.399882">
        <ele>848.0</ele>
        <time>2019-03-26T09:23:00.000Z</time>
      </trkpt>
      <trkpt lat="42.552809" lon="-0.399903">
        <ele>848.0</ele>
        <time>2019-03-26T09:23:01.000Z</time>
      </trkpt>
      <trkpt lat="42.552826" lon="-0.399925">
        <ele>848.0</ele>
        <time>2019-03-26T09:23:02.000Z</time>
      </trkpt>
      <trkpt lat="42.552843" lon="-0.399946">
        <ele>848.0</ele>
        <time>2019-03-26T09:23:03.000Z</time>
      </trkpt>
      <trkpt lat="42.55286" lon="-0.399967">
        <ele>848.0</ele>
        <time>2019-03-26T09:23:04.000Z</time>
      </trkpt>
      <trkpt lat="42.552878" lon="-0.399988">
        <ele>848.0</ele>
        <time>2019-03-26T09:23:05.000Z</time>
      </trkpt>
      <trkpt lat="42.552896" lon="-0.400009">
        <ele>848.0</ele>
        <time>2019-03-26T09:23:06.000Z</time>
      </trkpt>
      <trkpt lat="42.552914" lon="-0.400029">
        <ele>849.0</ele>
        <time>2019-03-26T09:23:07.000Z</time>
      </trkpt>
      <trkpt lat="42.552932" lon="-0.400049">
        <ele>849.0</ele>
        <time>2019-03-26T09:23:08.000Z</time>
      </trkpt>
      <trkpt lat="42.55295" lon="-0.400069">
        <ele>849.0</ele>
        <time>2019-03-26T09:23:09.000Z</time>
      </trkpt>
      <trkpt lat="42.552969" lon="-0.400089">
        <ele>849.0</ele>
        <time>2019-03-26T09:23:10.000Z</time>
      </trkpt>
      <trkpt lat="42.552988" lon="-0.400109">
        <ele>849.0</ele>
        <time>2019-03-26T09:23:11.000Z</time>
      </trkpt>
      <trkpt lat="42.553007" lon="-0.400128">
        <ele>849.0</ele>
        <time>2019-03-26T09:23:12.000Z</time>
      </trkpt>
      <trkpt lat="42.553026" lon="-0.400148">
        <ele>849.0</ele>
        <time>2019-03-26T09:23:13.000Z</time>
      </trkpt>
      <trkpt lat="42.553045" lon="-0.400167">
        <ele>849.0</ele>
        <time>2019-03-26T09:23:14.000Z</time>
      </trkpt>
      <trkpt lat="42.553064" lon="-0.400186">
        <ele>850.0</ele>
        <time>2019-03-26T09:23:15.000Z</time>
      </trkpt>
      <trkpt lat="42.553084" lon="-0.400205">
        <ele>850.0</ele>
        <time>2019-03-26T09:23:16.000Z</time>
      </trkpt>
      <trkpt lat="42.553103" lon="-0.400224">
        <ele>850.0</ele>
        <time>2019-03-26T09:23:17.000Z</time>
      </trkpt>
      <trkpt lat="42.553123" lon="-0.400243">
        <ele>850.0</ele>
        <time>2019-03-26T09:23:18.000Z</time>
      </trkpt>
      <trkpt lat="42.553143" lon="-0.400262">
        <ele>850.0</ele>
        <time>2019-03-26T09:23:19.000Z</time>
      </trkpt>
      <trkpt lat="42.553163" lon="-0.400281">
        <ele>850.0</ele>
        <time>2019-03-26T09:23:20.000Z</time>
      </trkpt>
      <trkpt lat="42.553183" lon="-0.4003">
        <ele>851.0</ele>
        <time>2019-03-26T09:23:21.000Z</time>
      </trkpt>
      <trkpt lat="42.553203" lon="-0.400319">
        <ele>851.0</ele>
        <time>2019-03-26T09:23:22.000Z</time>
      </trkpt>
      <trkpt lat="42.553223" lon="-0.400337">
        <ele>851.0</ele>
        <time>2019-03-26T09:23:23.000Z</time>
      </trkpt>
      <trkpt lat="42.553244" lon="-0.400356">
        <ele>851.0</ele>
        <time>2019-03-26T09:23:24.000Z</time>
      </trkpt>
      <trkpt lat="42.553264" lon="-0.400375">
        <ele>851.0</ele>
        <time>2019-03-26T09:23:25.000Z</time>
      </trkpt>
      <trkpt lat="42.553284" lon="-0.400393">
        <ele>851.0</ele>
        <time>2019-03-26T09:23:26.000Z</time>
      </trkpt>
      <trkpt lat="42.553305" lon="-0.400412">
        <ele>851.0</ele>
        <time>2019-03-26T09:23:27.000Z</time>
      </trkpt>
      <trkpt lat="42.553325" lon="-0.40043">
        <ele>851.0</ele>
        <time>2019-03-26T09:23:28.000Z</time>
      </trkpt>
      <trkpt lat="42.553346" lon="-0.400448">
        <ele>851.0</ele>
        <time>2019-03-26T09:23:29.000Z</time>
      </trkpt>
      <trkpt lat="42.553367" lon="-0.400466">
        <ele>851.0</ele>
        <time>2019-03-26T09:23:30.000Z</time>
      </trkpt>
      <trkpt lat="42.553388" lon="-0.400484">
        <ele>851.0</ele>
        <time>2019-03-26T09:23:31.000Z</time>
      </trkpt>
      <trkpt lat="42.553409" lon="-0.400502">
        <ele>851.0</ele>
        <time>2019-03-26T09:23:32.000Z</time>
      </trkpt>
      <trkpt lat="42.553431" lon="-0.400521">
        <ele>852.0</ele>
        <time>2019-03-26T09:23:33.000Z</time>
      </trkpt>
      <trkpt lat="42.553454" lon="-0.40054">
        <ele>852.0</ele>
        <time>2019-03-26T09:23:34.000Z</time>
      </trkpt>
      <trkpt lat="42.553477" lon="-0.40056">
        <ele>852.0</ele>
        <time>2019-03-26T09:23:35.000Z</time>
      </trkpt>
      <trkpt lat="42.553502" lon="-0.400581">
        <ele>852.0</ele>
        <time>2019-03-26T09:23:36.000Z</time>
      </trkpt>
      <trkpt lat="42.553527" lon="-0.400603">
        <ele>852.0</ele>
        <time>2019-03-26T09:23:37.000Z</time>
      </trkpt>
      <trkpt lat="42.553553" lon="-0.400626">
        <ele>852.0</ele>
        <time>2019-03-26T09:23:38.000Z</time>
      </trkpt>
      <trkpt lat="42.553581" lon="-0.400649">
        <ele>852.0</ele>
        <time>2019-03-26T09:23:39.000Z</time>
      </trkpt>
      <trkpt lat="42.553609" lon="-0.400674">
        <ele>852.0</ele>
        <time>2019-03-26T09:23:40.000Z</time>
      </trkpt>
      <trkpt lat="42.553638" lon="-0.4007">
        <ele>851.0</ele>
        <time>2019-03-26T09:23:41.000Z</time>
      </trkpt>
      <trkpt lat="42.553668" lon="-0.400726">
        <ele>851.0</ele>
        <time>2019-03-26T09:23:42.000Z</time>
      </trkpt>
      <trkpt lat="42.553699" lon="-0.400752">
        <ele>851.0</ele>
        <time>2019-03-26T09:23:43.000Z</time>
      </trkpt>
      <trkpt lat="42.55373" lon="-0.400779">
        <ele>851.0</ele>
        <time>2019-03-26T09:23:44.000Z</time>
      </trkpt>
      <trkpt lat="42.553762" lon="-0.400806">
        <ele>851.0</ele>
        <time>2019-03-26T09:23:45.000Z</time>
      </trkpt>
      <trkpt lat="42.553794" lon="-0.400834">
        <ele>851.0</ele>
        <time>2019-03-26T09:23:46.000Z</time>
      </trkpt>
      <trkpt lat="42.553826" lon="-0.400861">
        <ele>851.0</ele>
        <time>2019-03-26T09:23:47.000Z</time>
      </trkpt>
      <trkpt lat="42.553858" lon="-0.400889">
        <ele>851.0</ele>
        <time>2019-03-26T09:23:48.000Z</time>
      </trkpt>
      <trkpt lat="42.553891" lon="-0.400916">
        <ele>851.0</ele>
        <time>2019-03-26T09:23:49.000Z</time>
      </trkpt>
      <trkpt lat="42.553922" lon="-0.400944">
        <ele>851.0</ele>
        <time>2019-03-26T09:23:50.000Z</time>
      </trkpt>
      <trkpt lat="42.553954" lon="-0.400971">
        <ele>851.0</ele>
        <time>2019-03-26T09:23:51.000Z</time>
      </trkpt>
      <trkpt lat="42.553984" lon="-0.400998">
        <ele>851.0</ele>
        <time>2019-03-26T09:23:52.000Z</time>
      </trkpt>
      <trkpt lat="42.554015" lon="-0.401025">
        <ele>851.0</ele>
        <time>2019-03-26T09:23:53.000Z</time>
      </trkpt>
      <trkpt lat="42.554045" lon="-0.401051">
        <ele>851.0</ele>
        <time>2019-03-26T09:23:54.000Z</time>
      </trkpt>
      <trkpt lat="42.554074" lon="-0.401078">
        <ele>851.0</ele>
        <time>2019-03-26T09:23:55.000Z</time>
      </trkpt>
      <trkpt lat="42.554103" lon="-0.401104">
        <ele>851.0</ele>
        <time>2019-03-26T09:23:56.000Z</time>
      </trkpt>
      <trkpt lat="42.554131" lon="-0.40113">
        <ele>851.0</ele>
        <time>2019-03-26T09:23:57.000Z</time>
      </trkpt>
      <trkpt lat="42.554159" lon="-0.401155">
        <ele>852.0</ele>
        <time>2019-03-26T09:23:58.000Z</time>
      </trkpt>
      <trkpt lat="42.554187" lon="-0.401181">
        <ele>852.0</ele>
        <time>2019-03-26T09:23:59.000Z</time>
      </trkpt>
      <trkpt lat="42.554214" lon="-0.401206">
        <ele>852.0</ele>
        <time>2019-03-26T09:24:00.000Z</time>
      </trkpt>
      <trkpt lat="42.554241" lon="-0.401231">
        <ele>852.0</ele>
        <time>2019-03-26T09:24:01.000Z</time>
      </trkpt>
      <trkpt lat="42.554268" lon="-0.401255">
        <ele>852.0</ele>
        <time>2019-03-26T09:24:02.000Z</time>
      </trkpt>
      <trkpt lat="42.554295" lon="-0.40128">
        <ele>852.0</ele>
        <time>2019-03-26T09:24:03.000Z</time>
      </trkpt>
      <trkpt lat="42.554321" lon="-0.401304">
        <ele>852.0</ele>
        <time>2019-03-26T09:24:04.000Z</time>
      </trkpt>
      <trkpt lat="42.554347" lon="-0.401327">
        <ele>852.0</ele>
        <time>2019-03-26T09:24:05.000Z</time>
      </trkpt>
      <trkpt lat="42.554372" lon="-0.401351">
        <ele>852.0</ele>
        <time>2019-03-26T09:24:06.000Z</time>
      </trkpt>
      <trkpt lat="42.554398" lon="-0.401374">
        <ele>852.0</ele>
        <time>2019-03-26T09:24:07.000Z</time>
      </trkpt>
      <trkpt lat="42.554423" lon="-0.401397">
        <ele>852.0</ele>
        <time>2019-03-26T09:24:08.000Z</time>
      </trkpt>
      <trkpt lat="42.554448" lon="-0.401419">
        <ele>852.0</ele>
        <time>2019-03-26T09:24:09.000Z</time>
      </trkpt>
      <trkpt lat="42.554473" lon="-0.401442">
        <ele>852.0</ele>
        <time>2019-03-26T09:24:10.000Z</time>
      </trkpt>
      <trkpt lat="42.554497" lon="-0.401464">
        <ele>852.0</ele>
        <time>2019-03-26T09:24:11.000Z</time>
      </trkpt>
      <trkpt lat="42.554522" lon="-0.401487">
        <ele>853.0</ele>
        <time>2019-03-26T09:24:12.000Z</time>
      </trkpt>
      <trkpt lat="42.554546" lon="-0.401509">
        <ele>853.0</ele>
        <time>2019-03-26T09:24:13.000Z</time>
      </trkpt>
      <trkpt lat="42.554571" lon="-0.401531">
        <ele>853.0</ele>
        <time>2019-03-26T09:24:14.000Z</time>
      </trkpt>
      <trkpt lat="42.554595" lon="-0.401553">
        <ele>853.0</ele>
        <time>2019-03-26T09:24:15.000Z</time>
      </trkpt>
      <trkpt lat="42.554619" lon="-0.401575">
        <ele>853.0</ele>
        <time>2019-03-26T09:24:16.000Z</time>
      </trkpt>
      <trkpt lat="42.554643" lon="-0.401597">
        <ele>853.0</ele>
        <time>2019-03-26T09:24:17.000Z</time>
      </trkpt>
      <trkpt lat="42.554667" lon="-0.401619">
        <ele>853.0</ele>
        <time>2019-03-26T09:24:18.000Z</time>
      </trkpt>
      <trkpt lat="42.554691" lon="-0.401641">
        <ele>853.0</ele>
        <time>2019-03-26T09:24:19.000Z</time>
      </trkpt>
      <trkpt lat="42.554715" lon="-0.401663">
        <ele>853.0</ele>
        <time>2019-03-26T09:24:20.000Z</time>
      </trkpt>
      <trkpt lat="42.554739" lon="-0.401685">
        <ele>854.0</ele>
        <time>2019-03-26T09:24:21.000Z</time>
      </trkpt>
      <trkpt lat="42.554763" lon="-0.401707">
        <ele>854.0</ele>
        <time>2019-03-26T09:24:22.000Z</time>
      </trkpt>
      <trkpt lat="42.554786" lon="-0.401729">
        <ele>854.0</ele>
        <time>2019-03-26T09:24:23.000Z</time>
      </trkpt>
      <trkpt lat="42.55481" lon="-0.401751">
        <ele>854.0</ele>
        <time>2019-03-26T09:24:24.000Z</time>
      </trkpt>
      <trkpt lat="42.554833" lon="-0.401773">
        <ele>854.0</ele>
        <time>2019-03-26T09:24:25.000Z</time>
      </trkpt>
      <trkpt lat="42.554857" lon="-0.401795">
        <ele>854.0</ele>
        <time>2019-03-26T09:24:26.000Z</time>
      </trkpt>
      <trkpt lat="42.55488" lon="-0.401817">
        <ele>854.0</ele>
        <time>2019-03-26T09:24:27.000Z</time>
      </trkpt>
      <trkpt lat="42.554903" lon="-0.401839">
        <ele>854.0</ele>
        <time>2019-03-26T09:24:28.000Z</time>
      </trkpt>
      <trkpt lat="42.554925" lon="-0.401861">
        <ele>854.0</ele>
        <time>2019-03-26T09:24:29.000Z</time>
      </trkpt>
      <trkpt lat="42.554948" lon="-0.401883">
        <ele>854.0</ele>
        <time>2019-03-26T09:24:30.000Z</time>
      </trkpt>
      <trkpt lat="42.55497" lon="-0.401905">
        <ele>855.0</ele>
        <time>2019-03-26T09:24:31.000Z</time>
      </trkpt>
      <trkpt lat="42.554992" lon="-0.401926">
        <ele>855.0</ele>
        <time>2019-03-26T09:24:32.000Z</time>
      </trkpt>
      <trkpt lat="42.555013" lon="-0.401947">
        <ele>855.0</ele>
        <time>2019-03-26T09:24:33.000Z</time>
      </trkpt>
      <trkpt lat="42.555035" lon="-0.401969">
        <ele>855.0</ele>
        <time>2019-03-26T09:24:34.000Z</time>
      </trkpt>
      <trkpt lat="42.555056" lon="-0.40199">
        <ele>855.0</ele>
        <time>2019-03-26T09:24:35.000Z</time>
      </trkpt>
      <trkpt lat="42.555077" lon="-0.402011">
        <ele>855.0</ele>
        <time>2019-03-26T09:24:36.000Z</time>
      </trkpt>
      <trkpt lat="42.555098" lon="-0.402031">
        <ele>855.0</ele>
        <time>2019-03-26T09:24:37.000Z</time>
      </trkpt>
      <trkpt lat="42.555119" lon="-0.402052">
        <ele>855.0</ele>
        <time>2019-03-26T09:24:38.000Z</time>
      </trkpt>
      <trkpt lat="42.55514" lon="-0.402072">
        <ele>856.0</ele>
        <time>2019-03-26T09:24:39.000Z</time>
      </trkpt>
      <trkpt lat="42.555161" lon="-0.402092">
        <ele>856.0</ele>
        <time>2019-03-26T09:24:40.000Z</time>
      </trkpt>
      <trkpt lat="42.555181" lon="-0.402113">
        <ele>856.0</ele>
        <time>2019-03-26T09:24:41.000Z</time>
      </trkpt>
      <trkpt lat="42.555202" lon="-0.402133">
        <ele>856.0</ele>
        <time>2019-03-26T09:24:42.000Z</time>
      </trkpt>
      <trkpt lat="42.555223" lon="-0.402154">
        <ele>856.0</ele>
        <time>2019-03-26T09:24:43.000Z</time>
      </trkpt>
      <trkpt lat="42.555243" lon="-0.402175">
        <ele>856.0</ele>
        <time>2019-03-26T09:24:44.000Z</time>
      </trkpt>
      <trkpt lat="42.555264" lon="-0.402196">
        <ele>856.0</ele>
        <time>2019-03-26T09:24:45.000Z</time>
      </trkpt>
      <trkpt lat="42.555284" lon="-0.402218">
        <ele>856.0</ele>
        <time>2019-03-26T09:24:46.000Z</time>
      </trkpt>
      <trkpt lat="42.555305" lon="-0.402241">
        <ele>857.0</ele>
        <time>2019-03-26T09:24:47.000Z</time>
      </trkpt>
      <trkpt lat="42.555325" lon="-0.402264">
        <ele>857.0</ele>
        <time>2019-03-26T09:24:48.000Z</time>
      </trkpt>
      <trkpt lat="42.555345" lon="-0.402287">
        <ele>857.0</ele>
        <time>2019-03-26T09:24:49.000Z</time>
      </trkpt>
      <trkpt lat="42.555365" lon="-0.402311">
        <ele>857.0</ele>
        <time>2019-03-26T09:24:50.000Z</time>
      </trkpt>
      <trkpt lat="42.555385" lon="-0.402335">
        <ele>857.0</ele>
        <time>2019-03-26T09:24:51.000Z</time>
      </trkpt>
      <trkpt lat="42.555404" lon="-0.402359">
        <ele>857.0</ele>
        <time>2019-03-26T09:24:52.000Z</time>
      </trkpt>
      <trkpt lat="42.555424" lon="-0.402383">
        <ele>857.0</ele>
        <time>2019-03-26T09:24:53.000Z</time>
      </trkpt>
      <trkpt lat="42.555443" lon="-0.402408">
        <ele>857.0</ele>
        <time>2019-03-26T09:24:54.000Z</time>
      </trkpt>
      <trkpt lat="42.555463" lon="-0.402432">
        <ele>857.0</ele>
        <time>2019-03-26T09:24:55.000Z</time>
      </trkpt>
      <trkpt lat="42.555482" lon="-0.402456">
        <ele>857.0</ele>
        <time>2019-03-26T09:24:56.000Z</time>
      </trkpt>
      <trkpt lat="42.555501" lon="-0.402481">
        <ele>857.0</ele>
        <time>2019-03-26T09:24:57.000Z</time>
      </trkpt>
      <trkpt lat="42.555519" lon="-0.402504">
        <ele>858.0</ele>
        <time>2019-03-26T09:24:58.000Z</time>
      </trkpt>
      <trkpt lat="42.555538" lon="-0.402528">
        <ele>858.0</ele>
        <time>2019-03-26T09:24:59.000Z</time>
      </trkpt>
      <trkpt lat="42.555556" lon="-0.402552">
        <ele>858.0</ele>
        <time>2019-03-26T09:25:00.000Z</time>
      </trkpt>
      <trkpt lat="42.555575" lon="-0.402575">
        <ele>858.0</ele>
        <time>2019-03-26T09:25:01.000Z</time>
      </trkpt>
      <trkpt lat="42.555593" lon="-0.402598">
        <ele>858.0</ele>
        <time>2019-03-26T09:25:02.000Z</time>
      </trkpt>
      <trkpt lat="42.55561" lon="-0.40262">
        <ele>858.0</ele>
        <time>2019-03-26T09:25:03.000Z</time>
      </trkpt>
      <trkpt lat="42.555628" lon="-0.402643">
        <ele>859.0</ele>
        <time>2019-03-26T09:25:04.000Z</time>
      </trkpt>
      <trkpt lat="42.555645" lon="-0.402666">
        <ele>859.0</ele>
        <time>2019-03-26T09:25:05.000Z</time>
      </trkpt>
      <trkpt lat="42.555663" lon="-0.402689">
        <ele>859.0</ele>
        <time>2019-03-26T09:25:06.000Z</time>
      </trkpt>
      <trkpt lat="42.555679" lon="-0.402712">
        <ele>859.0</ele>
        <time>2019-03-26T09:25:07.000Z</time>
      </trkpt>
      <trkpt lat="42.555696" lon="-0.402735">
        <ele>859.0</ele>
        <time>2019-03-26T09:25:08.000Z</time>
      </trkpt>
      <trkpt lat="42.555712" lon="-0.402759">
        <ele>859.0</ele>
        <time>2019-03-26T09:25:09.000Z</time>
      </trkpt>
      <trkpt lat="42.555728" lon="-0.402783">
        <ele>860.0</ele>
        <time>2019-03-26T09:25:10.000Z</time>
      </trkpt>
      <trkpt lat="42.555744" lon="-0.402807">
        <ele>860.0</ele>
        <time>2019-03-26T09:25:11.000Z</time>
      </trkpt>
      <trkpt lat="42.555759" lon="-0.402832">
        <ele>860.0</ele>
        <time>2019-03-26T09:25:12.000Z</time>
      </trkpt>
      <trkpt lat="42.555774" lon="-0.402857">
        <ele>860.0</ele>
        <time>2019-03-26T09:25:13.000Z</time>
      </trkpt>
      <trkpt lat="42.555789" lon="-0.402883">
        <ele>861.0</ele>
        <time>2019-03-26T09:25:14.000Z</time>
      </trkpt>
      <trkpt lat="42.555803" lon="-0.40291">
        <ele>861.0</ele>
        <time>2019-03-26T09:25:15.000Z</time>
      </trkpt>
      <trkpt lat="42.555818" lon="-0.402937">
        <ele>861.0</ele>
        <time>2019-03-26T09:25:16.000Z</time>
      </trkpt>
      <trkpt lat="42.555831" lon="-0.402965">
        <ele>861.0</ele>
        <time>2019-03-26T09:25:17.000Z</time>
      </trkpt>
      <trkpt lat="42.555845" lon="-0.402993">
        <ele>861.0</ele>
        <time>2019-03-26T09:25:18.000Z</time>
      </trkpt>
      <trkpt lat="42.555858" lon="-0.403022">
        <ele>861.0</ele>
        <time>2019-03-26T09:25:19.000Z</time>
      </trkpt>
      <trkpt lat="42.555872" lon="-0.403051">
        <ele>862.0</ele>
        <time>2019-03-26T09:25:20.000Z</time>
      </trkpt>
      <trkpt lat="42.555885" lon="-0.403081">
        <ele>862.0</ele>
        <time>2019-03-26T09:25:21.000Z</time>
      </trkpt>
      <trkpt lat="42.555898" lon="-0.40311">
        <ele>862.0</ele>
        <time>2019-03-26T09:25:22.000Z</time>
      </trkpt>
      <trkpt lat="42.55591" lon="-0.403141">
        <ele>862.0</ele>
        <time>2019-03-26T09:25:23.000Z</time>
      </trkpt>
      <trkpt lat="42.555923" lon="-0.403171">
        <ele>862.0</ele>
        <time>2019-03-26T09:25:24.000Z</time>
      </trkpt>
      <trkpt lat="42.555935" lon="-0.403202">
        <ele>862.0</ele>
        <time>2019-03-26T09:25:25.000Z</time>
      </trkpt>
      <trkpt lat="42.555948" lon="-0.403233">
        <ele>862.0</ele>
        <time>2019-03-26T09:25:26.000Z</time>
      </trkpt>
      <trkpt lat="42.55596" lon="-0.403264">
        <ele>862.0</ele>
        <time>2019-03-26T09:25:27.000Z</time>
      </trkpt>
      <trkpt lat="42.555973" lon="-0.403295">
        <ele>862.0</ele>
        <time>2019-03-26T09:25:28.000Z</time>
      </trkpt>
      <trkpt lat="42.555985" lon="-0.403326">
        <ele>863.0</ele>
        <time>2019-03-26T09:25:29.000Z</time>
      </trkpt>
      <trkpt lat="42.555997" lon="-0.403357">
        <ele>863.0</ele>
        <time>2019-03-26T09:25:30.000Z</time>
      </trkpt>
      <trkpt lat="42.556009" lon="-0.403388">
        <ele>863.0</ele>
        <time>2019-03-26T09:25:31.000Z</time>
      </trkpt>
      <trkpt lat="42.556021" lon="-0.403418">
        <ele>863.0</ele>
        <time>2019-03-26T09:25:32.000Z</time>
      </trkpt>
      <trkpt lat="42.556033" lon="-0.403447">
        <ele>863.0</ele>
        <time>2019-03-26T09:25:33.000Z</time>
      </trkpt>
      <trkpt lat="42.556044" lon="-0.403476">
        <ele>863.0</ele>
        <time>2019-03-26T09:25:34.000Z</time>
      </trkpt>
      <trkpt lat="42.556055" lon="-0.403505">
        <ele>863.0</ele>
        <time>2019-03-26T09:25:35.000Z</time>
      </trkpt>
      <trkpt lat="42.556066" lon="-0.403533">
        <ele>864.0</ele>
        <time>2019-03-26T09:25:36.000Z</time>
      </trkpt>
      <trkpt lat="42.556077" lon="-0.403561">
        <ele>864.0</ele>
        <time>2019-03-26T09:25:37.000Z</time>
      </trkpt>
      <trkpt lat="42.556088" lon="-0.403588">
        <ele>864.0</ele>
        <time>2019-03-26T09:25:38.000Z</time>
      </trkpt>
      <trkpt lat="42.556099" lon="-0.403616">
        <ele>864.0</ele>
        <time>2019-03-26T09:25:39.000Z</time>
      </trkpt>
      <trkpt lat="42.556111" lon="-0.403643">
        <ele>864.0</ele>
        <time>2019-03-26T09:25:40.000Z</time>
      </trkpt>
      <trkpt lat="42.556122" lon="-0.403671">
        <ele>865.0</ele>
        <time>2019-03-26T09:25:41.000Z</time>
      </trkpt>
      <trkpt lat="42.556134" lon="-0.403699">
        <ele>865.0</ele>
        <time>2019-03-26T09:25:42.000Z</time>
      </trkpt>
      <trkpt lat="42.556146" lon="-0.403728">
        <ele>865.0</ele>
        <time>2019-03-26T09:25:43.000Z</time>
      </trkpt>
      <trkpt lat="42.556158" lon="-0.403756">
        <ele>865.0</ele>
        <time>2019-03-26T09:25:44.000Z</time>
      </trkpt>
      <trkpt lat="42.55617" lon="-0.403786">
        <ele>865.0</ele>
        <time>2019-03-26T09:25:45.000Z</time>
      </trkpt>
      <trkpt lat="42.556182" lon="-0.403815">
        <ele>866.0</ele>
        <time>2019-03-26T09:25:46.000Z</time>
      </trkpt>
      <trkpt lat="42.556193" lon="-0.403846">
        <ele>866.0</ele>
        <time>2019-03-26T09:25:47.000Z</time>
      </trkpt>
      <trkpt lat="42.556204" lon="-0.403877">
        <ele>866.0</ele>
        <time>2019-03-26T09:25:48.000Z</time>
      </trkpt>
      <trkpt lat="42.556215" lon="-0.403909">
        <ele>866.0</ele>
        <time>2019-03-26T09:25:49.000Z</time>
      </trkpt>
      <trkpt lat="42.556225" lon="-0.403942">
        <ele>866.0</ele>
        <time>2019-03-26T09:25:50.000Z</time>
      </trkpt>
      <trkpt lat="42.556235" lon="-0.403974">
        <ele>866.0</ele>
        <time>2019-03-26T09:25:51.000Z</time>
      </trkpt>
      <trkpt lat="42.556244" lon="-0.404008">
        <ele>866.0</ele>
        <time>2019-03-26T09:25:52.000Z</time>
      </trkpt>
      <trkpt lat="42.556253" lon="-0.404041">
        <ele>867.0</ele>
        <time>2019-03-26T09:25:53.000Z</time>
      </trkpt>
      <trkpt lat="42.556261" lon="-0.404074">
        <ele>867.0</ele>
        <time>2019-03-26T09:25:54.000Z</time>
      </trkpt>
      <trkpt lat="42.556269" lon="-0.404108">
        <ele>867.0</ele>
        <time>2019-03-26T09:25:55.000Z</time>
      </trkpt>
      <trkpt lat="42.556277" lon="-0.404141">
        <ele>867.0</ele>
        <time>2019-03-26T09:25:56.000Z</time>
      </trkpt>
      <trkpt lat="42.556284" lon="-0.404174">
        <ele>867.0</ele>
        <time>2019-03-26T09:25:57.000Z</time>
      </trkpt>
      <trkpt lat="42.55629" lon="-0.404207">
        <ele>867.0</ele>
        <time>2019-03-26T09:25:58.000Z</time>
      </trkpt>
      <trkpt lat="42.556296" lon="-0.40424">
        <ele>867.0</ele>
        <time>2019-03-26T09:25:59.000Z</time>
      </trkpt>
      <trkpt lat="42.556302" lon="-0.404273">
        <ele>867.0</ele>
        <time>2019-03-26T09:26:00.000Z</time>
      </trkpt>
      <trkpt lat="42.556307" lon="-0.404305">
        <ele>868.0</ele>
        <time>2019-03-26T09:26:01.000Z</time>
      </trkpt>
      <trkpt lat="42.556312" lon="-0.404336">
        <ele>868.0</ele>
        <time>2019-03-26T09:26:02.000Z</time>
      </trkpt>
      <trkpt lat="42.556316" lon="-0.404368">
        <ele>868.0</ele>
        <time>2019-03-26T09:26:03.000Z</time>
      </trkpt>
      <trkpt lat="42.55632" lon="-0.404399">
        <ele>868.0</ele>
        <time>2019-03-26T09:26:04.000Z</time>
      </trkpt>
      <trkpt lat="42.556324" lon="-0.40443">
        <ele>869.0</ele>
        <time>2019-03-26T09:26:05.000Z</time>
      </trkpt>
      <trkpt lat="42.556326" lon="-0.404461">
        <ele>869.0</ele>
        <time>2019-03-26T09:26:06.000Z</time>
      </trkpt>
      <trkpt lat="42.556328" lon="-0.404492">
        <ele>869.0</ele>
        <time>2019-03-26T09:26:07.000Z</time>
      </trkpt>
      <trkpt lat="42.556328" lon="-0.404524">
        <ele>870.0</ele>
        <time>2019-03-26T09:26:08.000Z</time>
      </trkpt>
      <trkpt lat="42.556328" lon="-0.404555">
        <ele>870.0</ele>
        <time>2019-03-26T09:26:09.000Z</time>
      </trkpt>
      <trkpt lat="42.556326" lon="-0.404587">
        <ele>870.0</ele>
        <time>2019-03-26T09:26:10.000Z</time>
      </trkpt>
      <trkpt lat="42.556323" lon="-0.404619">
        <ele>871.0</ele>
        <time>2019-03-26T09:26:11.000Z</time>
      </trkpt>
      <trkpt lat="42.556318" lon="-0.404651">
        <ele>871.0</ele>
        <time>2019-03-26T09:26:12.000Z</time>
      </trkpt>
      <trkpt lat="42.556311" lon="-0.404683">
        <ele>871.0</ele>
        <time>2019-03-26T09:26:13.000Z</time>
      </trkpt>
      <trkpt lat="42.556303" lon="-0.404714">
        <ele>871.0</ele>
        <time>2019-03-26T09:26:14.000Z</time>
      </trkpt>
      <trkpt lat="42.556292" lon="-0.404745">
        <ele>871.0</ele>
        <time>2019-03-26T09:26:15.000Z</time>
      </trkpt>
      <trkpt lat="42.55628" lon="-0.404775">
        <ele>871.0</ele>
        <time>2019-03-26T09:26:16.000Z</time>
      </trkpt>
      <trkpt lat="42.556265" lon="-0.404803">
        <ele>872.0</ele>
        <time>2019-03-26T09:26:17.000Z</time>
      </trkpt>
      <trkpt lat="42.556249" lon="-0.40483">
        <ele>872.0</ele>
        <time>2019-03-26T09:26:18.000Z</time>
      </trkpt>
      <trkpt lat="42.556231" lon="-0.404854">
        <ele>872.0</ele>
        <time>2019-03-26T09:26:19.000Z</time>
      </trkpt>
      <trkpt lat="42.556212" lon="-0.404876">
        <ele>872.0</ele>
        <time>2019-03-26T09:26:20.000Z</time>
      </trkpt>
      <trkpt lat="42.556192" lon="-0.404894">
        <ele>872.0</ele>
        <time>2019-03-26T09:26:21.000Z</time>
      </trkpt>
      <trkpt lat="42.556171" lon="-0.404908">
        <ele>872.0</ele>
        <time>2019-03-26T09:26:22.000Z</time>
      </trkpt>
      <trkpt lat="42.556149" lon="-0.404919">
        <ele>872.0</ele>
        <time>2019-03-26T09:26:23.000Z</time>
      </trkpt>
      <trkpt lat="42.556128" lon="-0.404928">
        <ele>873.0</ele>
        <time>2019-03-26T09:26:24.000Z</time>
      </trkpt>
      <trkpt lat="42.556107" lon="-0.404937">
        <ele>873.0</ele>
        <time>2019-03-26T09:26:25.000Z</time>
      </trkpt>
      <trkpt lat="42.556087" lon="-0.404948">
        <ele>873.0</ele>
        <time>2019-03-26T09:26:26.000Z</time>
      </trkpt>
      <trkpt lat="42.556068" lon="-0.40496">
        <ele>873.0</ele>
        <time>2019-03-26T09:26:27.000Z</time>
      </trkpt>
      <trkpt lat="42.556051" lon="-0.404977">
        <ele>874.0</ele>
        <time>2019-03-26T09:26:28.000Z</time>
      </trkpt>
      <trkpt lat="42.556036" lon="-0.404998">
        <ele>874.0</ele>
        <time>2019-03-26T09:26:29.000Z</time>
      </trkpt>
      <trkpt lat="42.556025" lon="-0.405022">
        <ele>874.0</ele>
        <time>2019-03-26T09:26:30.000Z</time>
      </trkpt>
      <trkpt lat="42.556017" lon="-0.405048">
        <ele>874.0</ele>
        <time>2019-03-26T09:26:31.000Z</time>
      </trkpt>
      <trkpt lat="42.556016" lon="-0.405074">
        <ele>874.0</ele>
        <time>2019-03-26T09:26:32.000Z</time>
      </trkpt>
      <trkpt lat="42.556021" lon="-0.405099">
        <ele>875.0</ele>
        <time>2019-03-26T09:26:33.000Z</time>
      </trkpt>
      <trkpt lat="42.556031" lon="-0.40512">
        <ele>875.0</ele>
        <time>2019-03-26T09:26:34.000Z</time>
      </trkpt>
      <trkpt lat="42.556044" lon="-0.405137">
        <ele>875.0</ele>
        <time>2019-03-26T09:26:35.000Z</time>
      </trkpt>
      <trkpt lat="42.556059" lon="-0.405147">
        <ele>875.0</ele>
        <time>2019-03-26T09:26:36.000Z</time>
      </trkpt>
      <trkpt lat="42.556074" lon="-0.405154">
        <ele>875.0</ele>
        <time>2019-03-26T09:26:37.000Z</time>
      </trkpt>
      <trkpt lat="42.55609" lon="-0.40516">
        <ele>875.0</ele>
        <time>2019-03-26T09:26:38.000Z</time>
      </trkpt>
      <trkpt lat="42.556105" lon="-0.405167">
        <ele>875.0</ele>
        <time>2019-03-26T09:26:39.000Z</time>
      </trkpt>
      <trkpt lat="42.556119" lon="-0.405178">
        <ele>876.0</ele>
        <time>2019-03-26T09:26:40.000Z</time>
      </trkpt>
      <trkpt lat="42.556132" lon="-0.405193">
        <ele>876.0</ele>
        <time>2019-03-26T09:26:41.000Z</time>
      </trkpt>
      <trkpt lat="42.556144" lon="-0.40521">
        <ele>876.0</ele>
        <time>2019-03-26T09:26:42.000Z</time>
      </trkpt>
      <trkpt lat="42.556154" lon="-0.40523">
        <ele>876.0</ele>
        <time>2019-03-26T09:26:43.000Z</time>
      </trkpt>
      <trkpt lat="42.556165" lon="-0.40525">
        <ele>877.0</ele>
        <time>2019-03-26T09:26:44.000Z</time>
      </trkpt>
      <trkpt lat="42.556175" lon="-0.40527">
        <ele>877.0</ele>
        <time>2019-03-26T09:26:45.000Z</time>
      </trkpt>
      <trkpt lat="42.556186" lon="-0.405288">
        <ele>877.0</ele>
        <time>2019-03-26T09:26:46.000Z</time>
      </trkpt>
      <trkpt lat="42.556199" lon="-0.405302">
        <ele>877.0</ele>
        <time>2019-03-26T09:26:47.000Z</time>
      </trkpt>
      <trkpt lat="42.556213" lon="-0.405315">
        <ele>878.0</ele>
        <time>2019-03-26T09:26:48.000Z</time>
      </trkpt>
      <trkpt lat="42.556228" lon="-0.405326">
        <ele>878.0</ele>
        <time>2019-03-26T09:26:49.000Z</time>
      </trkpt>
      <trkpt lat="42.556243" lon="-0.405337">
        <ele>878.0</ele>
        <time>2019-03-26T09:26:50.000Z</time>
      </trkpt>
      <trkpt lat="42.556258" lon="-0.405348">
        <ele>878.0</ele>
        <time>2019-03-26T09:26:51.000Z</time>
      </trkpt>
      <trkpt lat="42.556274" lon="-0.405358">
        <ele>878.0</ele>
        <time>2019-03-26T09:26:52.000Z</time>
      </trkpt>
      <trkpt lat="42.556289" lon="-0.405369">
        <ele>879.0</ele>
        <time>2019-03-26T09:26:53.000Z</time>
      </trkpt>
      <trkpt lat="42.556305" lon="-0.405379">
        <ele>879.0</ele>
        <time>2019-03-26T09:26:54.000Z</time>
      </trkpt>
      <trkpt lat="42.556321" lon="-0.405389">
        <ele>879.0</ele>
        <time>2019-03-26T09:26:55.000Z</time>
      </trkpt>
      <trkpt lat="42.556337" lon="-0.405398">
        <ele>879.0</ele>
        <time>2019-03-26T09:26:56.000Z</time>
      </trkpt>
      <trkpt lat="42.556353" lon="-0.405408">
        <ele>879.0</ele>
        <time>2019-03-26T09:26:57.000Z</time>
      </trkpt>
      <trkpt lat="42.556369" lon="-0.405418">
        <ele>880.0</ele>
        <time>2019-03-26T09:26:58.000Z</time>
      </trkpt>
      <trkpt lat="42.556385" lon="-0.405428">
        <ele>880.0</ele>
        <time>2019-03-26T09:26:59.000Z</time>
      </trkpt>
      <trkpt lat="42.556401" lon="-0.405438">
        <ele>880.0</ele>
        <time>2019-03-26T09:27:00.000Z</time>
      </trkpt>
      <trkpt lat="42.556417" lon="-0.405448">
        <ele>880.0</ele>
        <time>2019-03-26T09:27:01.000Z</time>
      </trkpt>
      <trkpt lat="42.556434" lon="-0.405458">
        <ele>881.0</ele>
        <time>2019-03-26T09:27:02.000Z</time>
      </trkpt>
      <trkpt lat="42.55645" lon="-0.405468">
        <ele>881.0</ele>
        <time>2019-03-26T09:27:03.000Z</time>
      </trkpt>
      <trkpt lat="42.556466" lon="-0.405479">
        <ele>881.0</ele>
        <time>2019-03-26T09:27:04.000Z</time>
      </trkpt>
      <trkpt lat="42.556483" lon="-0.40549">
        <ele>881.0</ele>
        <time>2019-03-26T09:27:05.000Z</time>
      </trkpt>
      <trkpt lat="42.556499" lon="-0.405501">
        <ele>882.0</ele>
        <time>2019-03-26T09:27:06.000Z</time>
      </trkpt>
      <trkpt lat="42.556515" lon="-0.405512">
        <ele>882.0</ele>
        <time>2019-03-26T09:27:07.000Z</time>
      </trkpt>
      <trkpt lat="42.556531" lon="-0.405524">
        <ele>882.0</ele>
        <time>2019-03-26T09:27:08.000Z</time>
      </trkpt>
      <trkpt lat="42.556548" lon="-0.405536">
        <ele>882.0</ele>
        <time>2019-03-26T09:27:09.000Z</time>
      </trkpt>
      <trkpt lat="42.556564" lon="-0.405548">
        <ele>883.0</ele>
        <time>2019-03-26T09:27:10.000Z</time>
      </trkpt>
      <trkpt lat="42.55658" lon="-0.405561">
        <ele>883.0</ele>
        <time>2019-03-26T09:27:11.000Z</time>
      </trkpt>
      <trkpt lat="42.556596" lon="-0.405574">
        <ele>883.0</ele>
        <time>2019-03-26T09:27:12.000Z</time>
      </trkpt>
      <trkpt lat="42.556611" lon="-0.405588">
        <ele>883.0</ele>
        <time>2019-03-26T09:27:13.000Z</time>
      </trkpt>
      <trkpt lat="42.556627" lon="-0.405602">
        <ele>884.0</ele>
        <time>2019-03-26T09:27:14.000Z</time>
      </trkpt>
      <trkpt lat="42.556643" lon="-0.405617">
        <ele>884.0</ele>
        <time>2019-03-26T09:27:15.000Z</time>
      </trkpt>
      <trkpt lat="42.556658" lon="-0.405633">
        <ele>884.0</ele>
        <time>2019-03-26T09:27:16.000Z</time>
      </trkpt>
      <trkpt lat="42.556674" lon="-0.405649">
        <ele>884.0</ele>
        <time>2019-03-26T09:27:17.000Z</time>
      </trkpt>
      <trkpt lat="42.556689" lon="-0.405666">
        <ele>885.0</ele>
        <time>2019-03-26T09:27:18.000Z</time>
      </trkpt>
      <trkpt lat="42.556704" lon="-0.405683">
        <ele>885.0</ele>
        <time>2019-03-26T09:27:19.000Z</time>
      </trkpt>
      <trkpt lat="42.556718" lon="-0.405701">
        <ele>885.0</ele>
        <time>2019-03-26T09:27:20.000Z</time>
      </trkpt>
      <trkpt lat="42.556733" lon="-0.405719">
        <ele>885.0</ele>
        <time>2019-03-26T09:27:21.000Z</time>
      </trkpt>
      <trkpt lat="42.556747" lon="-0.405738">
        <ele>885.0</ele>
        <time>2019-03-26T09:27:22.000Z</time>
      </trkpt>
      <trkpt lat="42.556761" lon="-0.405757">
        <ele>886.0</ele>
        <time>2019-03-26T09:27:23.000Z</time>
      </trkpt>
      <trkpt lat="42.556774" lon="-0.405776">
        <ele>886.0</ele>
        <time>2019-03-26T09:27:24.000Z</time>
      </trkpt>
      <trkpt lat="42.556787" lon="-0.405795">
        <ele>886.0</ele>
        <time>2019-03-26T09:27:25.000Z</time>
      </trkpt>
      <trkpt lat="42.556799" lon="-0.405816">
        <ele>886.0</ele>
        <time>2019-03-26T09:27:26.000Z</time>
      </trkpt>
      <trkpt lat="42.556812" lon="-0.405838">
        <ele>886.0</ele>
        <time>2019-03-26T09:27:27.000Z</time>
      </trkpt>
      <trkpt lat="42.556824" lon="-0.405861">
        <ele>886.0</ele>
        <time>2019-03-26T09:27:28.000Z</time>
      </trkpt>
      <trkpt lat="42.556835" lon="-0.405887">
        <ele>886.0</ele>
        <time>2019-03-26T09:27:29.000Z</time>
      </trkpt>
      <trkpt lat="42.556846" lon="-0.405915">
        <ele>886.0</ele>
        <time>2019-03-26T09:27:30.000Z</time>
      </trkpt>
      <trkpt lat="42.556857" lon="-0.405945">
        <ele>886.0</ele>
        <time>2019-03-26T09:27:31.000Z</time>
      </trkpt>
      <trkpt lat="42.556868" lon="-0.405978">
        <ele>885.0</ele>
        <time>2019-03-26T09:27:32.000Z</time>
      </trkpt>
      <trkpt lat="42.556878" lon="-0.406015">
        <ele>885.0</ele>
        <time>2019-03-26T09:27:33.000Z</time>
      </trkpt>
      <trkpt lat="42.556888" lon="-0.406055">
        <ele>885.0</ele>
        <time>2019-03-26T09:27:34.000Z</time>
      </trkpt>
      <trkpt lat="42.556897" lon="-0.406099">
        <ele>884.0</ele>
        <time>2019-03-26T09:27:35.000Z</time>
      </trkpt>
      <trkpt lat="42.556906" lon="-0.406148">
        <ele>883.0</ele>
        <time>2019-03-26T09:27:36.000Z</time>
      </trkpt>
      <trkpt lat="42.556914" lon="-0.406201">
        <ele>883.0</ele>
        <time>2019-03-26T09:27:37.000Z</time>
      </trkpt>
      <trkpt lat="42.556922" lon="-0.406259">
        <ele>883.0</ele>
        <time>2019-03-26T09:27:38.000Z</time>
      </trkpt>
      <trkpt lat="42.556929" lon="-0.406322">
        <ele>882.0</ele>
        <time>2019-03-26T09:27:39.000Z</time>
      </trkpt>
      <trkpt lat="42.556933" lon="-0.406387">
        <ele>881.0</ele>
        <time>2019-03-26T09:27:40.000Z</time>
      </trkpt>
      <trkpt lat="42.556933" lon="-0.406456">
        <ele>880.0</ele>
        <time>2019-03-26T09:27:41.000Z</time>
      </trkpt>
      <trkpt lat="42.556929" lon="-0.406527">
        <ele>880.0</ele>
        <time>2019-03-26T09:27:42.000Z</time>
      </trkpt>
      <trkpt lat="42.55692" lon="-0.406599">
        <ele>879.0</ele>
        <time>2019-03-26T09:27:43.000Z</time>
      </trkpt>
      <trkpt lat="42.556904" lon="-0.406672">
        <ele>878.0</ele>
        <time>2019-03-26T09:27:44.000Z</time>
      </trkpt>
      <trkpt lat="42.556881" lon="-0.406745">
        <ele>877.0</ele>
        <time>2019-03-26T09:27:45.000Z</time>
      </trkpt>
      <trkpt lat="42.556854" lon="-0.406817">
        <ele>877.0</ele>
        <time>2019-03-26T09:27:46.000Z</time>
      </trkpt>
      <trkpt lat="42.556826" lon="-0.40689">
        <ele>876.0</ele>
        <time>2019-03-26T09:27:47.000Z</time>
      </trkpt>
      <trkpt lat="42.556802" lon="-0.406962">
        <ele>875.0</ele>
        <time>2019-03-26T09:27:48.000Z</time>
      </trkpt>
      <trkpt lat="42.556783" lon="-0.407033">
        <ele>874.0</ele>
        <time>2019-03-26T09:27:49.000Z</time>
      </trkpt>
      <trkpt lat="42.556769" lon="-0.407103">
        <ele>873.0</ele>
        <time>2019-03-26T09:27:50.000Z</time>
      </trkpt>
      <trkpt lat="42.55676" lon="-0.407173">
        <ele>873.0</ele>
        <time>2019-03-26T09:27:51.000Z</time>
      </trkpt>
      <trkpt lat="42.556755" lon="-0.407242">
        <ele>873.0</ele>
        <time>2019-03-26T09:27:52.000Z</time>
      </trkpt>
      <trkpt lat="42.556753" lon="-0.407309">
        <ele>872.0</ele>
        <time>2019-03-26T09:27:53.000Z</time>
      </trkpt>
      <trkpt lat="42.556753" lon="-0.407375">
        <ele>872.0</ele>
        <time>2019-03-26T09:27:54.000Z</time>
      </trkpt>
      <trkpt lat="42.556754" lon="-0.407439">
        <ele>872.0</ele>
        <time>2019-03-26T09:27:55.000Z</time>
      </trkpt>
      <trkpt lat="42.556755" lon="-0.407502">
        <ele>872.0</ele>
        <time>2019-03-26T09:27:56.000Z</time>
      </trkpt>
      <trkpt lat="42.556758" lon="-0.407563">
        <ele>872.0</ele>
        <time>2019-03-26T09:27:57.000Z</time>
      </trkpt>
      <trkpt lat="42.556764" lon="-0.407625">
        <ele>871.0</ele>
        <time>2019-03-26T09:27:58.000Z</time>
      </trkpt>
      <trkpt lat="42.556773" lon="-0.407688">
        <ele>871.0</ele>
        <time>2019-03-26T09:27:59.000Z</time>
      </trkpt>
      <trkpt lat="42.556785" lon="-0.407753">
        <ele>871.0</ele>
        <time>2019-03-26T09:28:00.000Z</time>
      </trkpt>
      <trkpt lat="42.556798" lon="-0.407818">
        <ele>870.0</ele>
        <time>2019-03-26T09:28:01.000Z</time>
      </trkpt>
      <trkpt lat="42.556811" lon="-0.407886">
        <ele>870.0</ele>
        <time>2019-03-26T09:28:02.000Z</time>
      </trkpt>
      <trkpt lat="42.556822" lon="-0.407954">
        <ele>870.0</ele>
        <time>2019-03-26T09:28:03.000Z</time>
      </trkpt>
      <trkpt lat="42.556832" lon="-0.408023">
        <ele>869.0</ele>
        <time>2019-03-26T09:28:04.000Z</time>
      </trkpt>
      <trkpt lat="42.556841" lon="-0.408092">
        <ele>869.0</ele>
        <time>2019-03-26T09:28:05.000Z</time>
      </trkpt>
      <trkpt lat="42.55685" lon="-0.40816">
        <ele>869.0</ele>
        <time>2019-03-26T09:28:06.000Z</time>
      </trkpt>
      <trkpt lat="42.556858" lon="-0.408227">
        <ele>869.0</ele>
        <time>2019-03-26T09:28:07.000Z</time>
      </trkpt>
      <trkpt lat="42.556866" lon="-0.408291">
        <ele>868.0</ele>
        <time>2019-03-26T09:28:08.000Z</time>
      </trkpt>
      <trkpt lat="42.556872" lon="-0.408352">
        <ele>868.0</ele>
        <time>2019-03-26T09:28:09.000Z</time>
      </trkpt>
      <trkpt lat="42.556878" lon="-0.408411">
        <ele>868.0</ele>
        <time>2019-03-26T09:28:10.000Z</time>
      </trkpt>
      <trkpt lat="42.556884" lon="-0.40847">
        <ele>867.0</ele>
        <time>2019-03-26T09:28:11.000Z</time>
      </trkpt>
      <trkpt lat="42.556891" lon="-0.408529">
        <ele>867.0</ele>
        <time>2019-03-26T09:28:12.000Z</time>
      </trkpt>
      <trkpt lat="42.556898" lon="-0.408588">
        <ele>867.0</ele>
        <time>2019-03-26T09:28:13.000Z</time>
      </trkpt>
      <trkpt lat="42.556906" lon="-0.408648">
        <ele>866.0</ele>
        <time>2019-03-26T09:28:14.000Z</time>
      </trkpt>
      <trkpt lat="42.556914" lon="-0.408709">
        <ele>866.0</ele>
        <time>2019-03-26T09:28:15.000Z</time>
      </trkpt>
      <trkpt lat="42.556922" lon="-0.408769">
        <ele>866.0</ele>
        <time>2019-03-26T09:28:16.000Z</time>
      </trkpt>
      <trkpt lat="42.556929" lon="-0.408829">
        <ele>865.0</ele>
        <time>2019-03-26T09:28:17.000Z</time>
      </trkpt>
      <trkpt lat="42.556935" lon="-0.408888">
        <ele>865.0</ele>
        <time>2019-03-26T09:28:18.000Z</time>
      </trkpt>
      <trkpt lat="42.55694" lon="-0.408946">
        <ele>864.0</ele>
        <time>2019-03-26T09:28:19.000Z</time>
      </trkpt>
      <trkpt lat="42.556945" lon="-0.409005">
        <ele>864.0</ele>
        <time>2019-03-26T09:28:20.000Z</time>
      </trkpt>
      <trkpt lat="42.556951" lon="-0.409065">
        <ele>864.0</ele>
        <time>2019-03-26T09:28:21.000Z</time>
      </trkpt>
      <trkpt lat="42.556959" lon="-0.409127">
        <ele>863.0</ele>
        <time>2019-03-26T09:28:22.000Z</time>
      </trkpt>
      <trkpt lat="42.556969" lon="-0.409193">
        <ele>863.0</ele>
        <time>2019-03-26T09:28:23.000Z</time>
      </trkpt>
      <trkpt lat="42.55698" lon="-0.40926">
        <ele>862.0</ele>
        <time>2019-03-26T09:28:24.000Z</time>
      </trkpt>
      <trkpt lat="42.55699" lon="-0.409329">
        <ele>862.0</ele>
        <time>2019-03-26T09:28:25.000Z</time>
      </trkpt>
      <trkpt lat="42.556997" lon="-0.409396">
        <ele>862.0</ele>
        <time>2019-03-26T09:28:26.000Z</time>
      </trkpt>
      <trkpt lat="42.557001" lon="-0.409462">
        <ele>862.0</ele>
        <time>2019-03-26T09:28:27.000Z</time>
      </trkpt>
      <trkpt lat="42.557001" lon="-0.409525">
        <ele>862.0</ele>
        <time>2019-03-26T09:28:28.000Z</time>
      </trkpt>
      <trkpt lat="42.556997" lon="-0.409585">
        <ele>862.0</ele>
        <time>2019-03-26T09:28:29.000Z</time>
      </trkpt>
      <trkpt lat="42.556989" lon="-0.409642">
        <ele>862.0</ele>
        <time>2019-03-26T09:28:30.000Z</time>
      </trkpt>
      <trkpt lat="42.556978" lon="-0.409695">
        <ele>862.0</ele>
        <time>2019-03-26T09:28:31.000Z</time>
      </trkpt>
      <trkpt lat="42.556967" lon="-0.409748">
        <ele>862.0</ele>
        <time>2019-03-26T09:28:32.000Z</time>
      </trkpt>
      <trkpt lat="42.556955" lon="-0.409801">
        <ele>862.0</ele>
        <time>2019-03-26T09:28:33.000Z</time>
      </trkpt>
      <trkpt lat="42.556943" lon="-0.409854">
        <ele>861.0</ele>
        <time>2019-03-26T09:28:34.000Z</time>
      </trkpt>
      <trkpt lat="42.55693" lon="-0.409907">
        <ele>861.0</ele>
        <time>2019-03-26T09:28:35.000Z</time>
      </trkpt>
      <trkpt lat="42.556916" lon="-0.40996">
        <ele>861.0</ele>
        <time>2019-03-26T09:28:36.000Z</time>
      </trkpt>
      <trkpt lat="42.5569" lon="-0.410013">
        <ele>861.0</ele>
        <time>2019-03-26T09:28:37.000Z</time>
      </trkpt>
      <trkpt lat="42.556883" lon="-0.410065">
        <ele>861.0</ele>
        <time>2019-03-26T09:28:38.000Z</time>
      </trkpt>
      <trkpt lat="42.556867" lon="-0.410113">
        <ele>861.0</ele>
        <time>2019-03-26T09:28:39.000Z</time>
      </trkpt>
      <trkpt lat="42.556853" lon="-0.410157">
        <ele>861.0</ele>
        <time>2019-03-26T09:28:40.000Z</time>
      </trkpt>
      <trkpt lat="42.55684" lon="-0.410197">
        <ele>861.0</ele>
        <time>2019-03-26T09:28:41.000Z</time>
      </trkpt>
      <trkpt lat="42.55683" lon="-0.410234">
        <ele>862.0</ele>
        <time>2019-03-26T09:28:42.000Z</time>
      </trkpt>
      <trkpt lat="42.55682" lon="-0.410268">
        <ele>862.0</ele>
        <time>2019-03-26T09:28:43.000Z</time>
      </trkpt>
      <trkpt lat="42.556812" lon="-0.410299">
        <ele>862.0</ele>
        <time>2019-03-26T09:28:44.000Z</time>
      </trkpt>
      <trkpt lat="42.556804" lon="-0.410328">
        <ele>862.0</ele>
        <time>2019-03-26T09:28:45.000Z</time>
      </trkpt>
      <trkpt lat="42.556796" lon="-0.410355">
        <ele>862.0</ele>
        <time>2019-03-26T09:28:46.000Z</time>
      </trkpt>
      <trkpt lat="42.556788" lon="-0.410381">
        <ele>862.0</ele>
        <time>2019-03-26T09:28:47.000Z</time>
      </trkpt>
      <trkpt lat="42.55678" lon="-0.410407">
        <ele>863.0</ele>
        <time>2019-03-26T09:28:48.000Z</time>
      </trkpt>
      <trkpt lat="42.556773" lon="-0.410432">
        <ele>863.0</ele>
        <time>2019-03-26T09:28:49.000Z</time>
      </trkpt>
      <trkpt lat="42.556765" lon="-0.410457">
        <ele>863.0</ele>
        <time>2019-03-26T09:28:50.000Z</time>
      </trkpt>
      <trkpt lat="42.556757" lon="-0.410482">
        <ele>863.0</ele>
        <time>2019-03-26T09:28:51.000Z</time>
      </trkpt>
      <trkpt lat="42.55675" lon="-0.410506">
        <ele>864.0</ele>
        <time>2019-03-26T09:28:52.000Z</time>
      </trkpt>
      <trkpt lat="42.556742" lon="-0.410532">
        <ele>864.0</ele>
        <time>2019-03-26T09:28:53.000Z</time>
      </trkpt>
      <trkpt lat="42.556735" lon="-0.410558">
        <ele>864.0</ele>
        <time>2019-03-26T09:28:54.000Z</time>
      </trkpt>
      <trkpt lat="42.556729" lon="-0.410584">
        <ele>864.0</ele>
        <time>2019-03-26T09:28:55.000Z</time>
      </trkpt>
      <trkpt lat="42.556723" lon="-0.410612">
        <ele>864.0</ele>
        <time>2019-03-26T09:28:56.000Z</time>
      </trkpt>
      <trkpt lat="42.556718" lon="-0.410639">
        <ele>865.0</ele>
        <time>2019-03-26T09:28:57.000Z</time>
      </trkpt>
      <trkpt lat="42.556714" lon="-0.410667">
        <ele>865.0</ele>
        <time>2019-03-26T09:28:58.000Z</time>
      </trkpt>
      <trkpt lat="42.556711" lon="-0.410694">
        <ele>865.0</ele>
        <time>2019-03-26T09:28:59.000Z</time>
      </trkpt>
      <trkpt lat="42.55671" lon="-0.410722">
        <ele>865.0</ele>
        <time>2019-03-26T09:29:00.000Z</time>
      </trkpt>
      <trkpt lat="42.556711" lon="-0.41075">
        <ele>865.0</ele>
        <time>2019-03-26T09:29:01.000Z</time>
      </trkpt>
      <trkpt lat="42.556713" lon="-0.410778">
        <ele>865.0</ele>
        <time>2019-03-26T09:29:02.000Z</time>
      </trkpt>
      <trkpt lat="42.556716" lon="-0.410805">
        <ele>866.0</ele>
        <time>2019-03-26T09:29:03.000Z</time>
      </trkpt>
      <trkpt lat="42.556721" lon="-0.410832">
        <ele>866.0</ele>
        <time>2019-03-26T09:29:04.000Z</time>
      </trkpt>
      <trkpt lat="42.556726" lon="-0.410859">
        <ele>866.0</ele>
        <time>2019-03-26T09:29:05.000Z</time>
      </trkpt>
      <trkpt lat="42.556732" lon="-0.410886">
        <ele>866.0</ele>
        <time>2019-03-26T09:29:06.000Z</time>
      </trkpt>
      <trkpt lat="42.556738" lon="-0.410912">
        <ele>867.0</ele>
        <time>2019-03-26T09:29:07.000Z</time>
      </trkpt>
      <trkpt lat="42.556744" lon="-0.410938">
        <ele>867.0</ele>
        <time>2019-03-26T09:29:08.000Z</time>
      </trkpt>
      <trkpt lat="42.55675" lon="-0.410964">
        <ele>867.0</ele>
        <time>2019-03-26T09:29:09.000Z</time>
      </trkpt>
      <trkpt lat="42.556757" lon="-0.410989">
        <ele>868.0</ele>
        <time>2019-03-26T09:29:10.000Z</time>
      </trkpt>
      <trkpt lat="42.556764" lon="-0.411015">
        <ele>868.0</ele>
        <time>2019-03-26T09:29:11.000Z</time>
      </trkpt>
      <trkpt lat="42.556771" lon="-0.41104">
        <ele>868.0</ele>
        <time>2019-03-26T09:29:12.000Z</time>
      </trkpt>
      <trkpt lat="42.556778" lon="-0.411064">
        <ele>868.0</ele>
        <time>2019-03-26T09:29:13.000Z</time>
      </trkpt>
      <trkpt lat="42.556785" lon="-0.411089">
        <ele>868.0</ele>
        <time>2019-03-26T09:29:14.000Z</time>
      </trkpt>
      <trkpt lat="42.556792" lon="-0.411114">
        <ele>868.0</ele>
        <time>2019-03-26T09:29:15.000Z</time>
      </trkpt>
      <trkpt lat="42.5568" lon="-0.411139">
        <ele>868.0</ele>
        <time>2019-03-26T09:29:16.000Z</time>
      </trkpt>
      <trkpt lat="42.556807" lon="-0.411163">
        <ele>869.0</ele>
        <time>2019-03-26T09:29:17.000Z</time>
      </trkpt>
      <trkpt lat="42.556815" lon="-0.411188">
        <ele>869.0</ele>
        <time>2019-03-26T09:29:18.000Z</time>
      </trkpt>
      <trkpt lat="42.556823" lon="-0.411213">
        <ele>869.0</ele>
        <time>2019-03-26T09:29:19.000Z</time>
      </trkpt>
      <trkpt lat="42.55683" lon="-0.411238">
        <ele>869.0</ele>
        <time>2019-03-26T09:29:20.000Z</time>
      </trkpt>
      <trkpt lat="42.556838" lon="-0.411263">
        <ele>869.0</ele>
        <time>2019-03-26T09:29:21.000Z</time>
      </trkpt>
      <trkpt lat="42.556846" lon="-0.411288">
        <ele>870.0</ele>
        <time>2019-03-26T09:29:22.000Z</time>
      </trkpt>
      <trkpt lat="42.556854" lon="-0.411313">
        <ele>870.0</ele>
        <time>2019-03-26T09:29:23.000Z</time>
      </trkpt>
      <trkpt lat="42.556861" lon="-0.411339">
        <ele>870.0</ele>
        <time>2019-03-26T09:29:24.000Z</time>
      </trkpt>
      <trkpt lat="42.556869" lon="-0.411365">
        <ele>871.0</ele>
        <time>2019-03-26T09:29:25.000Z</time>
      </trkpt>
      <trkpt lat="42.556877" lon="-0.41139">
        <ele>871.0</ele>
        <time>2019-03-26T09:29:26.000Z</time>
      </trkpt>
      <trkpt lat="42.556884" lon="-0.411416">
        <ele>871.0</ele>
        <time>2019-03-26T09:29:27.000Z</time>
      </trkpt>
      <trkpt lat="42.556891" lon="-0.411442">
        <ele>871.0</ele>
        <time>2019-03-26T09:29:28.000Z</time>
      </trkpt>
      <trkpt lat="42.556898" lon="-0.411468">
        <ele>871.0</ele>
        <time>2019-03-26T09:29:29.000Z</time>
      </trkpt>
      <trkpt lat="42.556905" lon="-0.411494">
        <ele>871.0</ele>
        <time>2019-03-26T09:29:30.000Z</time>
      </trkpt>
      <trkpt lat="42.556912" lon="-0.411521">
        <ele>871.0</ele>
        <time>2019-03-26T09:29:31.000Z</time>
      </trkpt>
      <trkpt lat="42.556919" lon="-0.411547">
        <ele>871.0</ele>
        <time>2019-03-26T09:29:32.000Z</time>
      </trkpt>
      <trkpt lat="42.556925" lon="-0.411573">
        <ele>871.0</ele>
        <time>2019-03-26T09:29:33.000Z</time>
      </trkpt>
      <trkpt lat="42.556931" lon="-0.4116">
        <ele>871.0</ele>
        <time>2019-03-26T09:29:34.000Z</time>
      </trkpt>
      <trkpt lat="42.556937" lon="-0.411626">
        <ele>872.0</ele>
        <time>2019-03-26T09:29:35.000Z</time>
      </trkpt>
      <trkpt lat="42.556942" lon="-0.411653">
        <ele>871.0</ele>
        <time>2019-03-26T09:29:36.000Z</time>
      </trkpt>
      <trkpt lat="42.556947" lon="-0.411679">
        <ele>872.0</ele>
        <time>2019-03-26T09:29:37.000Z</time>
      </trkpt>
      <trkpt lat="42.556952" lon="-0.411706">
        <ele>872.0</ele>
        <time>2019-03-26T09:29:38.000Z</time>
      </trkpt>
      <trkpt lat="42.556957" lon="-0.411732">
        <ele>872.0</ele>
        <time>2019-03-26T09:29:39.000Z</time>
      </trkpt>
      <trkpt lat="42.556962" lon="-0.411759">
        <ele>872.0</ele>
        <time>2019-03-26T09:29:40.000Z</time>
      </trkpt>
      <trkpt lat="42.556967" lon="-0.411786">
        <ele>872.0</ele>
        <time>2019-03-26T09:29:41.000Z</time>
      </trkpt>
      <trkpt lat="42.556971" lon="-0.411813">
        <ele>873.0</ele>
        <time>2019-03-26T09:29:42.000Z</time>
      </trkpt>
      <trkpt lat="42.556976" lon="-0.41184">
        <ele>873.0</ele>
        <time>2019-03-26T09:29:43.000Z</time>
      </trkpt>
      <trkpt lat="42.55698" lon="-0.411866">
        <ele>873.0</ele>
        <time>2019-03-26T09:29:44.000Z</time>
      </trkpt>
      <trkpt lat="42.556985" lon="-0.411893">
        <ele>873.0</ele>
        <time>2019-03-26T09:29:45.000Z</time>
      </trkpt>
      <trkpt lat="42.55699" lon="-0.411921">
        <ele>873.0</ele>
        <time>2019-03-26T09:29:46.000Z</time>
      </trkpt>
      <trkpt lat="42.556995" lon="-0.411948">
        <ele>873.0</ele>
        <time>2019-03-26T09:29:47.000Z</time>
      </trkpt>
      <trkpt lat="42.557" lon="-0.411975">
        <ele>873.0</ele>
        <time>2019-03-26T09:29:48.000Z</time>
      </trkpt>
      <trkpt lat="42.557005" lon="-0.412002">
        <ele>873.0</ele>
        <time>2019-03-26T09:29:49.000Z</time>
      </trkpt>
      <trkpt lat="42.557011" lon="-0.412029">
        <ele>873.0</ele>
        <time>2019-03-26T09:29:50.000Z</time>
      </trkpt>
      <trkpt lat="42.557017" lon="-0.412057">
        <ele>873.0</ele>
        <time>2019-03-26T09:29:51.000Z</time>
      </trkpt>
      <trkpt lat="42.557022" lon="-0.412084">
        <ele>874.0</ele>
        <time>2019-03-26T09:29:52.000Z</time>
      </trkpt>
      <trkpt lat="42.557028" lon="-0.412112">
        <ele>874.0</ele>
        <time>2019-03-26T09:29:53.000Z</time>
      </trkpt>
      <trkpt lat="42.557034" lon="-0.412139">
        <ele>874.0</ele>
        <time>2019-03-26T09:29:54.000Z</time>
      </trkpt>
      <trkpt lat="42.55704" lon="-0.412167">
        <ele>874.0</ele>
        <time>2019-03-26T09:29:55.000Z</time>
      </trkpt>
      <trkpt lat="42.557047" lon="-0.412195">
        <ele>874.0</ele>
        <time>2019-03-26T09:29:56.000Z</time>
      </trkpt>
      <trkpt lat="42.557053" lon="-0.412222">
        <ele>874.0</ele>
        <time>2019-03-26T09:29:57.000Z</time>
      </trkpt>
      <trkpt lat="42.557059" lon="-0.41225">
        <ele>874.0</ele>
        <time>2019-03-26T09:29:58.000Z</time>
      </trkpt>
      <trkpt lat="42.557065" lon="-0.412278">
        <ele>874.0</ele>
        <time>2019-03-26T09:29:59.000Z</time>
      </trkpt>
      <trkpt lat="42.557072" lon="-0.412306">
        <ele>874.0</ele>
        <time>2019-03-26T09:30:00.000Z</time>
      </trkpt>
      <trkpt lat="42.557078" lon="-0.412333">
        <ele>875.0</ele>
        <time>2019-03-26T09:30:01.000Z</time>
      </trkpt>
      <trkpt lat="42.557084" lon="-0.412361">
        <ele>875.0</ele>
        <time>2019-03-26T09:30:02.000Z</time>
      </trkpt>
      <trkpt lat="42.55709" lon="-0.412389">
        <ele>875.0</ele>
        <time>2019-03-26T09:30:03.000Z</time>
      </trkpt>
      <trkpt lat="42.557096" lon="-0.412417">
        <ele>875.0</ele>
        <time>2019-03-26T09:30:04.000Z</time>
      </trkpt>
      <trkpt lat="42.557102" lon="-0.412445">
        <ele>875.0</ele>
        <time>2019-03-26T09:30:05.000Z</time>
      </trkpt>
      <trkpt lat="42.557108" lon="-0.412472">
        <ele>875.0</ele>
        <time>2019-03-26T09:30:06.000Z</time>
      </trkpt>
      <trkpt lat="42.557114" lon="-0.4125">
        <ele>875.0</ele>
        <time>2019-03-26T09:30:07.000Z</time>
      </trkpt>
      <trkpt lat="42.55712" lon="-0.412528">
        <ele>875.0</ele>
        <time>2019-03-26T09:30:08.000Z</time>
      </trkpt>
      <trkpt lat="42.557125" lon="-0.412556">
        <ele>875.0</ele>
        <time>2019-03-26T09:30:09.000Z</time>
      </trkpt>
      <trkpt lat="42.557131" lon="-0.412584">
        <ele>875.0</ele>
        <time>2019-03-26T09:30:10.000Z</time>
      </trkpt>
      <trkpt lat="42.557137" lon="-0.412611">
        <ele>875.0</ele>
        <time>2019-03-26T09:30:11.000Z</time>
      </trkpt>
      <trkpt lat="42.557143" lon="-0.412639">
        <ele>876.0</ele>
        <time>2019-03-26T09:30:12.000Z</time>
      </trkpt>
      <trkpt lat="42.557149" lon="-0.412667">
        <ele>876.0</ele>
        <time>2019-03-26T09:30:13.000Z</time>
      </trkpt>
      <trkpt lat="42.557155" lon="-0.412695">
        <ele>876.0</ele>
        <time>2019-03-26T09:30:14.000Z</time>
      </trkpt>
      <trkpt lat="42.557161" lon="-0.412722">
        <ele>876.0</ele>
        <time>2019-03-26T09:30:15.000Z</time>
      </trkpt>
      <trkpt lat="42.557167" lon="-0.41275">
        <ele>876.0</ele>
        <time>2019-03-26T09:30:16.000Z</time>
      </trkpt>
      <trkpt lat="42.557173" lon="-0.412777">
        <ele>876.0</ele>
        <time>2019-03-26T09:30:17.000Z</time>
      </trkpt>
      <trkpt lat="42.557179" lon="-0.412805">
        <ele>876.0</ele>
        <time>2019-03-26T09:30:18.000Z</time>
      </trkpt>
      <trkpt lat="42.557185" lon="-0.412833">
        <ele>876.0</ele>
        <time>2019-03-26T09:30:19.000Z</time>
      </trkpt>
      <trkpt lat="42.557191" lon="-0.41286">
        <ele>876.0</ele>
        <time>2019-03-26T09:30:20.000Z</time>
      </trkpt>
      <trkpt lat="42.557197" lon="-0.412888">
        <ele>876.0</ele>
        <time>2019-03-26T09:30:21.000Z</time>
      </trkpt>
      <trkpt lat="42.557204" lon="-0.412915">
        <ele>877.0</ele>
        <time>2019-03-26T09:30:22.000Z</time>
      </trkpt>
      <trkpt lat="42.55721" lon="-0.412943">
        <ele>877.0</ele>
        <time>2019-03-26T09:30:23.000Z</time>
      </trkpt>
      <trkpt lat="42.557216" lon="-0.41297">
        <ele>877.0</ele>
        <time>2019-03-26T09:30:24.000Z</time>
      </trkpt>
      <trkpt lat="42.557222" lon="-0.412998">
        <ele>877.0</ele>
        <time>2019-03-26T09:30:25.000Z</time>
      </trkpt>
      <trkpt lat="42.557229" lon="-0.413025">
        <ele>877.0</ele>
        <time>2019-03-26T09:30:26.000Z</time>
      </trkpt>
      <trkpt lat="42.557235" lon="-0.413053">
        <ele>877.0</ele>
        <time>2019-03-26T09:30:27.000Z</time>
      </trkpt>
      <trkpt lat="42.557242" lon="-0.41308">
        <ele>877.0</ele>
        <time>2019-03-26T09:30:28.000Z</time>
      </trkpt>
      <trkpt lat="42.557248" lon="-0.413108">
        <ele>877.0</ele>
        <time>2019-03-26T09:30:29.000Z</time>
      </trkpt>
      <trkpt lat="42.557255" lon="-0.413135">
        <ele>877.0</ele>
        <time>2019-03-26T09:30:30.000Z</time>
      </trkpt>
      <trkpt lat="42.557261" lon="-0.413163">
        <ele>878.0</ele>
        <time>2019-03-26T09:30:31.000Z</time>
      </trkpt>
      <trkpt lat="42.557268" lon="-0.41319">
        <ele>878.0</ele>
        <time>2019-03-26T09:30:32.000Z</time>
      </trkpt>
      <trkpt lat="42.557274" lon="-0.413218">
        <ele>878.0</ele>
        <time>2019-03-26T09:30:33.000Z</time>
      </trkpt>
      <trkpt lat="42.557281" lon="-0.413245">
        <ele>878.0</ele>
        <time>2019-03-26T09:30:34.000Z</time>
      </trkpt>
      <trkpt lat="42.557288" lon="-0.413273">
        <ele>878.0</ele>
        <time>2019-03-26T09:30:35.000Z</time>
      </trkpt>
      <trkpt lat="42.557294" lon="-0.413301">
        <ele>878.0</ele>
        <time>2019-03-26T09:30:36.000Z</time>
      </trkpt>
      <trkpt lat="42.557301" lon="-0.413328">
        <ele>878.0</ele>
        <time>2019-03-26T09:30:37.000Z</time>
      </trkpt>
      <trkpt lat="42.557308" lon="-0.413356">
        <ele>879.0</ele>
        <time>2019-03-26T09:30:38.000Z</time>
      </trkpt>
      <trkpt lat="42.557315" lon="-0.413384">
        <ele>879.0</ele>
        <time>2019-03-26T09:30:39.000Z</time>
      </trkpt>
      <trkpt lat="42.557322" lon="-0.413412">
        <ele>879.0</ele>
        <time>2019-03-26T09:30:40.000Z</time>
      </trkpt>
      <trkpt lat="42.557328" lon="-0.413439">
        <ele>879.0</ele>
        <time>2019-03-26T09:30:41.000Z</time>
      </trkpt>
      <trkpt lat="42.557335" lon="-0.413467">
        <ele>879.0</ele>
        <time>2019-03-26T09:30:42.000Z</time>
      </trkpt>
      <trkpt lat="42.557342" lon="-0.413495">
        <ele>879.0</ele>
        <time>2019-03-26T09:30:43.000Z</time>
      </trkpt>
      <trkpt lat="42.557349" lon="-0.413523">
        <ele>879.0</ele>
        <time>2019-03-26T09:30:44.000Z</time>
      </trkpt>
      <trkpt lat="42.557356" lon="-0.41355">
        <ele>879.0</ele>
        <time>2019-03-26T09:30:45.000Z</time>
      </trkpt>
      <trkpt lat="42.557363" lon="-0.413578">
        <ele>879.0</ele>
        <time>2019-03-26T09:30:46.000Z</time>
      </trkpt>
      <trkpt lat="42.55737" lon="-0.413606">
        <ele>879.0</ele>
        <time>2019-03-26T09:30:47.000Z</time>
      </trkpt>
      <trkpt lat="42.557377" lon="-0.413634">
        <ele>880.0</ele>
        <time>2019-03-26T09:30:48.000Z</time>
      </trkpt>
      <trkpt lat="42.557384" lon="-0.413662">
        <ele>880.0</ele>
        <time>2019-03-26T09:30:49.000Z</time>
      </trkpt>
      <trkpt lat="42.557392" lon="-0.41369">
        <ele>880.0</ele>
        <time>2019-03-26T09:30:50.000Z</time>
      </trkpt>
      <trkpt lat="42.557399" lon="-0.413718">
        <ele>880.0</ele>
        <time>2019-03-26T09:30:51.000Z</time>
      </trkpt>
      <trkpt lat="42.557406" lon="-0.413746">
        <ele>880.0</ele>
        <time>2019-03-26T09:30:52.000Z</time>
      </trkpt>
      <trkpt lat="42.557413" lon="-0.413774">
        <ele>880.0</ele>
        <time>2019-03-26T09:30:53.000Z</time>
      </trkpt>
      <trkpt lat="42.55742" lon="-0.413802">
        <ele>880.0</ele>
        <time>2019-03-26T09:30:54.000Z</time>
      </trkpt>
      <trkpt lat="42.557427" lon="-0.41383">
        <ele>880.0</ele>
        <time>2019-03-26T09:30:55.000Z</time>
      </trkpt>
      <trkpt lat="42.557435" lon="-0.413858">
        <ele>880.0</ele>
        <time>2019-03-26T09:30:56.000Z</time>
      </trkpt>
      <trkpt lat="42.557442" lon="-0.413886">
        <ele>880.0</ele>
        <time>2019-03-26T09:30:57.000Z</time>
      </trkpt>
      <trkpt lat="42.557449" lon="-0.413914">
        <ele>880.0</ele>
        <time>2019-03-26T09:30:58.000Z</time>
      </trkpt>
      <trkpt lat="42.557457" lon="-0.413942">
        <ele>881.0</ele>
        <time>2019-03-26T09:30:59.000Z</time>
      </trkpt>
      <trkpt lat="42.557464" lon="-0.41397">
        <ele>881.0</ele>
        <time>2019-03-26T09:31:00.000Z</time>
      </trkpt>
      <trkpt lat="42.557471" lon="-0.413999">
        <ele>881.0</ele>
        <time>2019-03-26T09:31:01.000Z</time>
      </trkpt>
      <trkpt lat="42.557478" lon="-0.414027">
        <ele>881.0</ele>
        <time>2019-03-26T09:31:02.000Z</time>
      </trkpt>
      <trkpt lat="42.557486" lon="-0.414055">
        <ele>881.0</ele>
        <time>2019-03-26T09:31:03.000Z</time>
      </trkpt>
      <trkpt lat="42.557493" lon="-0.414082">
        <ele>881.0</ele>
        <time>2019-03-26T09:31:04.000Z</time>
      </trkpt>
      <trkpt lat="42.5575" lon="-0.41411">
        <ele>881.0</ele>
        <time>2019-03-26T09:31:05.000Z</time>
      </trkpt>
      <trkpt lat="42.557507" lon="-0.414138">
        <ele>881.0</ele>
        <time>2019-03-26T09:31:06.000Z</time>
      </trkpt>
      <trkpt lat="42.557514" lon="-0.414165">
        <ele>882.0</ele>
        <time>2019-03-26T09:31:07.000Z</time>
      </trkpt>
      <trkpt lat="42.557522" lon="-0.414193">
        <ele>882.0</ele>
        <time>2019-03-26T09:31:08.000Z</time>
      </trkpt>
      <trkpt lat="42.557529" lon="-0.41422">
        <ele>882.0</ele>
        <time>2019-03-26T09:31:09.000Z</time>
      </trkpt>
      <trkpt lat="42.557536" lon="-0.414247">
        <ele>882.0</ele>
        <time>2019-03-26T09:31:10.000Z</time>
      </trkpt>
      <trkpt lat="42.557542" lon="-0.414273">
        <ele>882.0</ele>
        <time>2019-03-26T09:31:11.000Z</time>
      </trkpt>
      <trkpt lat="42.557549" lon="-0.4143">
        <ele>882.0</ele>
        <time>2019-03-26T09:31:12.000Z</time>
      </trkpt>
      <trkpt lat="42.557556" lon="-0.414326">
        <ele>882.0</ele>
        <time>2019-03-26T09:31:13.000Z</time>
      </trkpt>
      <trkpt lat="42.557563" lon="-0.414353">
        <ele>882.0</ele>
        <time>2019-03-26T09:31:14.000Z</time>
      </trkpt>
      <trkpt lat="42.557569" lon="-0.414379">
        <ele>882.0</ele>
        <time>2019-03-26T09:31:15.000Z</time>
      </trkpt>
      <trkpt lat="42.557576" lon="-0.414405">
        <ele>882.0</ele>
        <time>2019-03-26T09:31:16.000Z</time>
      </trkpt>
      <trkpt lat="42.557583" lon="-0.414431">
        <ele>882.0</ele>
        <time>2019-03-26T09:31:17.000Z</time>
      </trkpt>
      <trkpt lat="42.557589" lon="-0.414458">
        <ele>882.0</ele>
        <time>2019-03-26T09:31:18.000Z</time>
      </trkpt>
      <trkpt lat="42.557596" lon="-0.414485">
        <ele>882.0</ele>
        <time>2019-03-26T09:31:19.000Z</time>
      </trkpt>
      <trkpt lat="42.557603" lon="-0.414512">
        <ele>883.0</ele>
        <time>2019-03-26T09:31:20.000Z</time>
      </trkpt>
      <trkpt lat="42.55761" lon="-0.414539">
        <ele>883.0</ele>
        <time>2019-03-26T09:31:21.000Z</time>
      </trkpt>
      <trkpt lat="42.557617" lon="-0.414567">
        <ele>883.0</ele>
        <time>2019-03-26T09:31:22.000Z</time>
      </trkpt>
      <trkpt lat="42.557624" lon="-0.414595">
        <ele>883.0</ele>
        <time>2019-03-26T09:31:23.000Z</time>
      </trkpt>
      <trkpt lat="42.557631" lon="-0.414624">
        <ele>883.0</ele>
        <time>2019-03-26T09:31:24.000Z</time>
      </trkpt>
      <trkpt lat="42.557639" lon="-0.414654">
        <ele>883.0</ele>
        <time>2019-03-26T09:31:25.000Z</time>
      </trkpt>
      <trkpt lat="42.557646" lon="-0.414684">
        <ele>883.0</ele>
        <time>2019-03-26T09:31:26.000Z</time>
      </trkpt>
      <trkpt lat="42.557654" lon="-0.414715">
        <ele>883.0</ele>
        <time>2019-03-26T09:31:27.000Z</time>
      </trkpt>
      <trkpt lat="42.557661" lon="-0.414745">
        <ele>883.0</ele>
        <time>2019-03-26T09:31:28.000Z</time>
      </trkpt>
      <trkpt lat="42.557669" lon="-0.414776">
        <ele>884.0</ele>
        <time>2019-03-26T09:31:29.000Z</time>
      </trkpt>
      <trkpt lat="42.557676" lon="-0.414806">
        <ele>884.0</ele>
        <time>2019-03-26T09:31:30.000Z</time>
      </trkpt>
      <trkpt lat="42.557683" lon="-0.414835">
        <ele>884.0</ele>
        <time>2019-03-26T09:31:31.000Z</time>
      </trkpt>
      <trkpt lat="42.55769" lon="-0.414862">
        <ele>884.0</ele>
        <time>2019-03-26T09:31:32.000Z</time>
      </trkpt>
      <trkpt lat="42.557697" lon="-0.414889">
        <ele>884.0</ele>
        <time>2019-03-26T09:31:33.000Z</time>
      </trkpt>
      <trkpt lat="42.557703" lon="-0.414915">
        <ele>884.0</ele>
        <time>2019-03-26T09:31:34.000Z</time>
      </trkpt>
      <trkpt lat="42.557709" lon="-0.414941">
        <ele>884.0</ele>
        <time>2019-03-26T09:31:35.000Z</time>
      </trkpt>
      <trkpt lat="42.557716" lon="-0.414968">
        <ele>884.0</ele>
        <time>2019-03-26T09:31:36.000Z</time>
      </trkpt>
      <trkpt lat="42.557723" lon="-0.414996">
        <ele>884.0</ele>
        <time>2019-03-26T09:31:37.000Z</time>
      </trkpt>
      <trkpt lat="42.55773" lon="-0.415024">
        <ele>885.0</ele>
        <time>2019-03-26T09:31:38.000Z</time>
      </trkpt>
      <trkpt lat="42.557736" lon="-0.415051">
        <ele>885.0</ele>
        <time>2019-03-26T09:31:39.000Z</time>
      </trkpt>
      <trkpt lat="42.557741" lon="-0.415074">
        <ele>884.0</ele>
        <time>2019-03-26T09:31:40.000Z</time>
      </trkpt>
      <trkpt lat="42.557745" lon="-0.415093">
        <ele>885.0</ele>
        <time>2019-03-26T09:31:41.000Z</time>
      </trkpt>
      <trkpt lat="42.557747" lon="-0.415107">
        <ele>885.0</ele>
        <time>2019-03-26T09:31:42.000Z</time>
      </trkpt>
      <trkpt lat="42.557749" lon="-0.415115">
        <ele>885.0</ele>
        <time>2019-03-26T09:31:43.000Z</time>
      </trkpt>
      <trkpt lat="42.557749" lon="-0.415117">
        <ele>885.0</ele>
        <time>2019-03-26T09:31:44.000Z</time>
      </trkpt>
      <trkpt lat="42.557749" lon="-0.415117">
        <ele>885.0</ele>
        <time>2019-03-26T09:31:45.000Z</time>
      </trkpt>
      <trkpt lat="42.55775" lon="-0.41512">
        <ele>885.0</ele>
        <time>2019-03-26T09:31:46.000Z</time>
      </trkpt>
      <trkpt lat="42.557752" lon="-0.41513">
        <ele>884.0</ele>
        <time>2019-03-26T09:31:47.000Z</time>
      </trkpt>
      <trkpt lat="42.557756" lon="-0.415147">
        <ele>885.0</ele>
        <time>2019-03-26T09:31:48.000Z</time>
      </trkpt>
      <trkpt lat="42.55776" lon="-0.415169">
        <ele>885.0</ele>
        <time>2019-03-26T09:31:49.000Z</time>
      </trkpt>
      <trkpt lat="42.557766" lon="-0.415195">
        <ele>885.0</ele>
        <time>2019-03-26T09:31:50.000Z</time>
      </trkpt>
      <trkpt lat="42.557772" lon="-0.415223">
        <ele>885.0</ele>
        <time>2019-03-26T09:31:51.000Z</time>
      </trkpt>
      <trkpt lat="42.557778" lon="-0.415252">
        <ele>885.0</ele>
        <time>2019-03-26T09:31:52.000Z</time>
      </trkpt>
      <trkpt lat="42.557784" lon="-0.415281">
        <ele>885.0</ele>
        <time>2019-03-26T09:31:53.000Z</time>
      </trkpt>
      <trkpt lat="42.55779" lon="-0.41531">
        <ele>885.0</ele>
        <time>2019-03-26T09:31:54.000Z</time>
      </trkpt>
      <trkpt lat="42.557796" lon="-0.415339">
        <ele>885.0</ele>
        <time>2019-03-26T09:31:55.000Z</time>
      </trkpt>
      <trkpt lat="42.557801" lon="-0.415367">
        <ele>885.0</ele>
        <time>2019-03-26T09:31:56.000Z</time>
      </trkpt>
      <trkpt lat="42.557807" lon="-0.415395">
        <ele>886.0</ele>
        <time>2019-03-26T09:31:57.000Z</time>
      </trkpt>
      <trkpt lat="42.557812" lon="-0.415423">
        <ele>886.0</ele>
        <time>2019-03-26T09:31:58.000Z</time>
      </trkpt>
      <trkpt lat="42.557817" lon="-0.415451">
        <ele>886.0</ele>
        <time>2019-03-26T09:31:59.000Z</time>
      </trkpt>
      <trkpt lat="42.557822" lon="-0.415479">
        <ele>886.0</ele>
        <time>2019-03-26T09:32:00.000Z</time>
      </trkpt>
      <trkpt lat="42.557827" lon="-0.415506">
        <ele>886.0</ele>
        <time>2019-03-26T09:32:01.000Z</time>
      </trkpt>
      <trkpt lat="42.557832" lon="-0.415534">
        <ele>886.0</ele>
        <time>2019-03-26T09:32:02.000Z</time>
      </trkpt>
      <trkpt lat="42.557837" lon="-0.415562">
        <ele>886.0</ele>
        <time>2019-03-26T09:32:03.000Z</time>
      </trkpt>
      <trkpt lat="42.557842" lon="-0.41559">
        <ele>886.0</ele>
        <time>2019-03-26T09:32:04.000Z</time>
      </trkpt>
      <trkpt lat="42.557847" lon="-0.415619">
        <ele>887.0</ele>
        <time>2019-03-26T09:32:05.000Z</time>
      </trkpt>
      <trkpt lat="42.557852" lon="-0.415647">
        <ele>887.0</ele>
        <time>2019-03-26T09:32:06.000Z</time>
      </trkpt>
      <trkpt lat="42.557857" lon="-0.415676">
        <ele>887.0</ele>
        <time>2019-03-26T09:32:07.000Z</time>
      </trkpt>
      <trkpt lat="42.557861" lon="-0.415705">
        <ele>887.0</ele>
        <time>2019-03-26T09:32:08.000Z</time>
      </trkpt>
      <trkpt lat="42.557866" lon="-0.415734">
        <ele>887.0</ele>
        <time>2019-03-26T09:32:09.000Z</time>
      </trkpt>
      <trkpt lat="42.557871" lon="-0.415764">
        <ele>887.0</ele>
        <time>2019-03-26T09:32:10.000Z</time>
      </trkpt>
      <trkpt lat="42.557876" lon="-0.415793">
        <ele>887.0</ele>
        <time>2019-03-26T09:32:11.000Z</time>
      </trkpt>
      <trkpt lat="42.557881" lon="-0.415823">
        <ele>887.0</ele>
        <time>2019-03-26T09:32:12.000Z</time>
      </trkpt>
      <trkpt lat="42.557887" lon="-0.415852">
        <ele>887.0</ele>
        <time>2019-03-26T09:32:13.000Z</time>
      </trkpt>
      <trkpt lat="42.557892" lon="-0.415881">
        <ele>887.0</ele>
        <time>2019-03-26T09:32:14.000Z</time>
      </trkpt>
      <trkpt lat="42.557898" lon="-0.41591">
        <ele>887.0</ele>
        <time>2019-03-26T09:32:15.000Z</time>
      </trkpt>
      <trkpt lat="42.557905" lon="-0.415939">
        <ele>887.0</ele>
        <time>2019-03-26T09:32:16.000Z</time>
      </trkpt>
      <trkpt lat="42.557912" lon="-0.415968">
        <ele>888.0</ele>
        <time>2019-03-26T09:32:17.000Z</time>
      </trkpt>
      <trkpt lat="42.557919" lon="-0.415996">
        <ele>888.0</ele>
        <time>2019-03-26T09:32:18.000Z</time>
      </trkpt>
      <trkpt lat="42.557926" lon="-0.416024">
        <ele>888.0</ele>
        <time>2019-03-26T09:32:19.000Z</time>
      </trkpt>
      <trkpt lat="42.557935" lon="-0.416052">
        <ele>888.0</ele>
        <time>2019-03-26T09:32:20.000Z</time>
      </trkpt>
      <trkpt lat="42.557944" lon="-0.416078">
        <ele>888.0</ele>
        <time>2019-03-26T09:32:21.000Z</time>
      </trkpt>
      <trkpt lat="42.557953" lon="-0.416105">
        <ele>889.0</ele>
        <time>2019-03-26T09:32:22.000Z</time>
      </trkpt>
      <trkpt lat="42.557963" lon="-0.416131">
        <ele>889.0</ele>
        <time>2019-03-26T09:32:23.000Z</time>
      </trkpt>
      <trkpt lat="42.557974" lon="-0.416156">
        <ele>889.0</ele>
        <time>2019-03-26T09:32:24.000Z</time>
      </trkpt>
      <trkpt lat="42.557986" lon="-0.416181">
        <ele>889.0</ele>
        <time>2019-03-26T09:32:25.000Z</time>
      </trkpt>
      <trkpt lat="42.558" lon="-0.416205">
        <ele>889.0</ele>
        <time>2019-03-26T09:32:26.000Z</time>
      </trkpt>
      <trkpt lat="42.558014" lon="-0.416228">
        <ele>889.0</ele>
        <time>2019-03-26T09:32:27.000Z</time>
      </trkpt>
      <trkpt lat="42.558029" lon="-0.416251">
        <ele>889.0</ele>
        <time>2019-03-26T09:32:28.000Z</time>
      </trkpt>
      <trkpt lat="42.558046" lon="-0.416272">
        <ele>890.0</ele>
        <time>2019-03-26T09:32:29.000Z</time>
      </trkpt>
      <trkpt lat="42.558064" lon="-0.416293">
        <ele>890.0</ele>
        <time>2019-03-26T09:32:30.000Z</time>
      </trkpt>
      <trkpt lat="42.558083" lon="-0.416311">
        <ele>890.0</ele>
        <time>2019-03-26T09:32:31.000Z</time>
      </trkpt>
      <trkpt lat="42.558102" lon="-0.416328">
        <ele>890.0</ele>
        <time>2019-03-26T09:32:32.000Z</time>
      </trkpt>
      <trkpt lat="42.558123" lon="-0.416342">
        <ele>890.0</ele>
        <time>2019-03-26T09:32:33.000Z</time>
      </trkpt>
      <trkpt lat="42.558144" lon="-0.416354">
        <ele>891.0</ele>
        <time>2019-03-26T09:32:34.000Z</time>
      </trkpt>
      <trkpt lat="42.558166" lon="-0.416363">
        <ele>891.0</ele>
        <time>2019-03-26T09:32:35.000Z</time>
      </trkpt>
      <trkpt lat="42.558188" lon="-0.416369">
        <ele>891.0</ele>
        <time>2019-03-26T09:32:36.000Z</time>
      </trkpt>
      <trkpt lat="42.55821" lon="-0.416374">
        <ele>891.0</ele>
        <time>2019-03-26T09:32:37.000Z</time>
      </trkpt>
      <trkpt lat="42.558233" lon="-0.416377">
        <ele>891.0</ele>
        <time>2019-03-26T09:32:38.000Z</time>
      </trkpt>
      <trkpt lat="42.558256" lon="-0.416378">
        <ele>891.0</ele>
        <time>2019-03-26T09:32:39.000Z</time>
      </trkpt>
      <trkpt lat="42.558278" lon="-0.416379">
        <ele>891.0</ele>
        <time>2019-03-26T09:32:40.000Z</time>
      </trkpt>
      <trkpt lat="42.5583" lon="-0.41638">
        <ele>892.0</ele>
        <time>2019-03-26T09:32:41.000Z</time>
      </trkpt>
      <trkpt lat="42.558322" lon="-0.416381">
        <ele>892.0</ele>
        <time>2019-03-26T09:32:42.000Z</time>
      </trkpt>
      <trkpt lat="42.558344" lon="-0.416382">
        <ele>892.0</ele>
        <time>2019-03-26T09:32:43.000Z</time>
      </trkpt>
      <trkpt lat="42.558365" lon="-0.416384">
        <ele>892.0</ele>
        <time>2019-03-26T09:32:44.000Z</time>
      </trkpt>
      <trkpt lat="42.558387" lon="-0.416387">
        <ele>892.0</ele>
        <time>2019-03-26T09:32:45.000Z</time>
      </trkpt>
      <trkpt lat="42.558409" lon="-0.416391">
        <ele>892.0</ele>
        <time>2019-03-26T09:32:46.000Z</time>
      </trkpt>
      <trkpt lat="42.558432" lon="-0.416395">
        <ele>892.0</ele>
        <time>2019-03-26T09:32:47.000Z</time>
      </trkpt>
      <trkpt lat="42.558457" lon="-0.416401">
        <ele>892.0</ele>
        <time>2019-03-26T09:32:48.000Z</time>
      </trkpt>
      <trkpt lat="42.558482" lon="-0.416408">
        <ele>892.0</ele>
        <time>2019-03-26T09:32:49.000Z</time>
      </trkpt>
      <trkpt lat="42.558508" lon="-0.416416">
        <ele>892.0</ele>
        <time>2019-03-26T09:32:50.000Z</time>
      </trkpt>
      <trkpt lat="42.558535" lon="-0.416424">
        <ele>891.0</ele>
        <time>2019-03-26T09:32:51.000Z</time>
      </trkpt>
      <trkpt lat="42.558563" lon="-0.416434">
        <ele>891.0</ele>
        <time>2019-03-26T09:32:52.000Z</time>
      </trkpt>
      <trkpt lat="42.558592" lon="-0.416445">
        <ele>891.0</ele>
        <time>2019-03-26T09:32:53.000Z</time>
      </trkpt>
      <trkpt lat="42.558622" lon="-0.416457">
        <ele>890.0</ele>
        <time>2019-03-26T09:32:54.000Z</time>
      </trkpt>
      <trkpt lat="42.558653" lon="-0.416469">
        <ele>890.0</ele>
        <time>2019-03-26T09:32:55.000Z</time>
      </trkpt>
      <trkpt lat="42.558684" lon="-0.416482">
        <ele>890.0</ele>
        <time>2019-03-26T09:32:56.000Z</time>
      </trkpt>
      <trkpt lat="42.558716" lon="-0.416496">
        <ele>890.0</ele>
        <time>2019-03-26T09:32:57.000Z</time>
      </trkpt>
      <trkpt lat="42.558749" lon="-0.416511">
        <ele>890.0</ele>
        <time>2019-03-26T09:32:58.000Z</time>
      </trkpt>
      <trkpt lat="42.558783" lon="-0.416526">
        <ele>889.0</ele>
        <time>2019-03-26T09:32:59.000Z</time>
      </trkpt>
      <trkpt lat="42.558817" lon="-0.416542">
        <ele>889.0</ele>
        <time>2019-03-26T09:33:00.000Z</time>
      </trkpt>
      <trkpt lat="42.558852" lon="-0.416558">
        <ele>888.0</ele>
        <time>2019-03-26T09:33:01.000Z</time>
      </trkpt>
      <trkpt lat="42.558888" lon="-0.416575">
        <ele>888.0</ele>
        <time>2019-03-26T09:33:02.000Z</time>
      </trkpt>
      <trkpt lat="42.558924" lon="-0.416593">
        <ele>887.0</ele>
        <time>2019-03-26T09:33:03.000Z</time>
      </trkpt>
      <trkpt lat="42.558961" lon="-0.41661">
        <ele>887.0</ele>
        <time>2019-03-26T09:33:04.000Z</time>
      </trkpt>
      <trkpt lat="42.558998" lon="-0.416628">
        <ele>887.0</ele>
        <time>2019-03-26T09:33:05.000Z</time>
      </trkpt>
      <trkpt lat="42.559035" lon="-0.416647">
        <ele>886.0</ele>
        <time>2019-03-26T09:33:06.000Z</time>
      </trkpt>
      <trkpt lat="42.559074" lon="-0.416665">
        <ele>886.0</ele>
        <time>2019-03-26T09:33:07.000Z</time>
      </trkpt>
      <trkpt lat="42.559112" lon="-0.416684">
        <ele>886.0</ele>
        <time>2019-03-26T09:33:08.000Z</time>
      </trkpt>
      <trkpt lat="42.559151" lon="-0.416703">
        <ele>886.0</ele>
        <time>2019-03-26T09:33:09.000Z</time>
      </trkpt>
      <trkpt lat="42.55919" lon="-0.416722">
        <ele>885.0</ele>
        <time>2019-03-26T09:33:10.000Z</time>
      </trkpt>
      <trkpt lat="42.55923" lon="-0.416741">
        <ele>885.0</ele>
        <time>2019-03-26T09:33:11.000Z</time>
      </trkpt>
      <trkpt lat="42.559269" lon="-0.41676">
        <ele>884.0</ele>
        <time>2019-03-26T09:33:12.000Z</time>
      </trkpt>
      <trkpt lat="42.559309" lon="-0.416779">
        <ele>884.0</ele>
        <time>2019-03-26T09:33:13.000Z</time>
      </trkpt>
      <trkpt lat="42.55935" lon="-0.416798">
        <ele>884.0</ele>
        <time>2019-03-26T09:33:14.000Z</time>
      </trkpt>
      <trkpt lat="42.55939" lon="-0.416817">
        <ele>883.0</ele>
        <time>2019-03-26T09:33:15.000Z</time>
      </trkpt>
      <trkpt lat="42.55943" lon="-0.416836">
        <ele>883.0</ele>
        <time>2019-03-26T09:33:16.000Z</time>
      </trkpt>
      <trkpt lat="42.559467" lon="-0.416858">
        <ele>883.0</ele>
        <time>2019-03-26T09:33:17.000Z</time>
      </trkpt>
      <trkpt lat="42.559497" lon="-0.416885">
        <ele>882.0</ele>
        <time>2019-03-26T09:33:18.000Z</time>
      </trkpt>
      <trkpt lat="42.559516" lon="-0.41692">
        <ele>882.0</ele>
        <time>2019-03-26T09:33:19.000Z</time>
      </trkpt>
      <trkpt lat="42.559523" lon="-0.416965">
        <ele>881.0</ele>
        <time>2019-03-26T09:33:20.000Z</time>
      </trkpt>
      <trkpt lat="42.559516" lon="-0.417013">
        <ele>881.0</ele>
        <time>2019-03-26T09:33:21.000Z</time>
      </trkpt>
      <trkpt lat="42.559495" lon="-0.417059">
        <ele>880.0</ele>
        <time>2019-03-26T09:33:22.000Z</time>
      </trkpt>
      <trkpt lat="42.559461" lon="-0.417098">
        <ele>880.0</ele>
        <time>2019-03-26T09:33:23.000Z</time>
      </trkpt>
      <trkpt lat="42.55942" lon="-0.41713">
        <ele>879.0</ele>
        <time>2019-03-26T09:33:24.000Z</time>
      </trkpt>
      <trkpt lat="42.559379" lon="-0.417158">
        <ele>879.0</ele>
        <time>2019-03-26T09:33:25.000Z</time>
      </trkpt>
      <trkpt lat="42.559339" lon="-0.417185">
        <ele>879.0</ele>
        <time>2019-03-26T09:33:26.000Z</time>
      </trkpt>
      <trkpt lat="42.559301" lon="-0.417212">
        <ele>878.0</ele>
        <time>2019-03-26T09:33:27.000Z</time>
      </trkpt>
      <trkpt lat="42.559263" lon="-0.417237">
        <ele>878.0</ele>
        <time>2019-03-26T09:33:28.000Z</time>
      </trkpt>
      <trkpt lat="42.559226" lon="-0.417261">
        <ele>877.0</ele>
        <time>2019-03-26T09:33:29.000Z</time>
      </trkpt>
      <trkpt lat="42.559188" lon="-0.417283">
        <ele>877.0</ele>
        <time>2019-03-26T09:33:30.000Z</time>
      </trkpt>
      <trkpt lat="42.55915" lon="-0.417305">
        <ele>877.0</ele>
        <time>2019-03-26T09:33:31.000Z</time>
      </trkpt>
      <trkpt lat="42.559111" lon="-0.417329">
        <ele>876.0</ele>
        <time>2019-03-26T09:33:32.000Z</time>
      </trkpt>
      <trkpt lat="42.559074" lon="-0.41736">
        <ele>875.0</ele>
        <time>2019-03-26T09:33:33.000Z</time>
      </trkpt>
      <trkpt lat="42.559038" lon="-0.417398">
        <ele>875.0</ele>
        <time>2019-03-26T09:33:34.000Z</time>
      </trkpt>
      <trkpt lat="42.559004" lon="-0.417444">
        <ele>874.0</ele>
        <time>2019-03-26T09:33:35.000Z</time>
      </trkpt>
      <trkpt lat="42.558974" lon="-0.417494">
        <ele>873.0</ele>
        <time>2019-03-26T09:33:36.000Z</time>
      </trkpt>
      <trkpt lat="42.558947" lon="-0.417547">
        <ele>873.0</ele>
        <time>2019-03-26T09:33:37.000Z</time>
      </trkpt>
      <trkpt lat="42.558925" lon="-0.417603">
        <ele>872.0</ele>
        <time>2019-03-26T09:33:38.000Z</time>
      </trkpt>
      <trkpt lat="42.558906" lon="-0.417662">
        <ele>872.0</ele>
        <time>2019-03-26T09:33:39.000Z</time>
      </trkpt>
      <trkpt lat="42.558891" lon="-0.417722">
        <ele>872.0</ele>
        <time>2019-03-26T09:33:40.000Z</time>
      </trkpt>
      <trkpt lat="42.558879" lon="-0.417784">
        <ele>871.0</ele>
        <time>2019-03-26T09:33:41.000Z</time>
      </trkpt>
      <trkpt lat="42.558871" lon="-0.417847">
        <ele>871.0</ele>
        <time>2019-03-26T09:33:42.000Z</time>
      </trkpt>
      <trkpt lat="42.558867" lon="-0.417911">
        <ele>871.0</ele>
        <time>2019-03-26T09:33:43.000Z</time>
      </trkpt>
      <trkpt lat="42.558863" lon="-0.417975">
        <ele>870.0</ele>
        <time>2019-03-26T09:33:44.000Z</time>
      </trkpt>
      <trkpt lat="42.55886" lon="-0.418041">
        <ele>870.0</ele>
        <time>2019-03-26T09:33:45.000Z</time>
      </trkpt>
      <trkpt lat="42.558855" lon="-0.418106">
        <ele>870.0</ele>
        <time>2019-03-26T09:33:46.000Z</time>
      </trkpt>
      <trkpt lat="42.558846" lon="-0.418172">
        <ele>869.0</ele>
        <time>2019-03-26T09:33:47.000Z</time>
      </trkpt>
      <trkpt lat="42.558836" lon="-0.418239">
        <ele>869.0</ele>
        <time>2019-03-26T09:33:48.000Z</time>
      </trkpt>
      <trkpt lat="42.558827" lon="-0.418306">
        <ele>868.0</ele>
        <time>2019-03-26T09:33:49.000Z</time>
      </trkpt>
      <trkpt lat="42.558819" lon="-0.418375">
        <ele>868.0</ele>
        <time>2019-03-26T09:33:50.000Z</time>
      </trkpt>
      <trkpt lat="42.558814" lon="-0.418444">
        <ele>867.0</ele>
        <time>2019-03-26T09:33:51.000Z</time>
      </trkpt>
      <trkpt lat="42.558809" lon="-0.418514">
        <ele>867.0</ele>
        <time>2019-03-26T09:33:52.000Z</time>
      </trkpt>
      <trkpt lat="42.558805" lon="-0.418584">
        <ele>867.0</ele>
        <time>2019-03-26T09:33:53.000Z</time>
      </trkpt>
      <trkpt lat="42.5588" lon="-0.418655">
        <ele>867.0</ele>
        <time>2019-03-26T09:33:54.000Z</time>
      </trkpt>
      <trkpt lat="42.558797" lon="-0.418725">
        <ele>866.0</ele>
        <time>2019-03-26T09:33:55.000Z</time>
      </trkpt>
      <trkpt lat="42.558796" lon="-0.418795">
        <ele>866.0</ele>
        <time>2019-03-26T09:33:56.000Z</time>
      </trkpt>
      <trkpt lat="42.558798" lon="-0.418864">
        <ele>866.0</ele>
        <time>2019-03-26T09:33:57.000Z</time>
      </trkpt>
      <trkpt lat="42.5588" lon="-0.418935">
        <ele>866.0</ele>
        <time>2019-03-26T09:33:58.000Z</time>
      </trkpt>
      <trkpt lat="42.558799" lon="-0.419008">
        <ele>865.0</ele>
        <time>2019-03-26T09:33:59.000Z</time>
      </trkpt>
      <trkpt lat="42.558794" lon="-0.41908">
        <ele>865.0</ele>
        <time>2019-03-26T09:34:00.000Z</time>
      </trkpt>
      <trkpt lat="42.558786" lon="-0.419147">
        <ele>865.0</ele>
        <time>2019-03-26T09:34:01.000Z</time>
      </trkpt>
      <trkpt lat="42.558776" lon="-0.419211">
        <ele>865.0</ele>
        <time>2019-03-26T09:34:02.000Z</time>
      </trkpt>
      <trkpt lat="42.558764" lon="-0.419276">
        <ele>865.0</ele>
        <time>2019-03-26T09:34:03.000Z</time>
      </trkpt>
      <trkpt lat="42.558754" lon="-0.419344">
        <ele>864.0</ele>
        <time>2019-03-26T09:34:04.000Z</time>
      </trkpt>
      <trkpt lat="42.558746" lon="-0.419407">
        <ele>864.0</ele>
        <time>2019-03-26T09:34:05.000Z</time>
      </trkpt>
      <trkpt lat="42.558741" lon="-0.419463">
        <ele>864.0</ele>
        <time>2019-03-26T09:34:06.000Z</time>
      </trkpt>
      <trkpt lat="42.55874" lon="-0.419513">
        <ele>863.0</ele>
        <time>2019-03-26T09:34:07.000Z</time>
      </trkpt>
      <trkpt lat="42.558744" lon="-0.419564">
        <ele>863.0</ele>
        <time>2019-03-26T09:34:08.000Z</time>
      </trkpt>
      <trkpt lat="42.55875" lon="-0.419617">
        <ele>862.0</ele>
        <time>2019-03-26T09:34:09.000Z</time>
      </trkpt>
      <trkpt lat="42.558757" lon="-0.419672">
        <ele>862.0</ele>
        <time>2019-03-26T09:34:10.000Z</time>
      </trkpt>
      <trkpt lat="42.558764" lon="-0.419729">
        <ele>862.0</ele>
        <time>2019-03-26T09:34:11.000Z</time>
      </trkpt>
      <trkpt lat="42.558769" lon="-0.419789">
        <ele>861.0</ele>
        <time>2019-03-26T09:34:12.000Z</time>
      </trkpt>
      <trkpt lat="42.558772" lon="-0.419852">
        <ele>861.0</ele>
        <time>2019-03-26T09:34:13.000Z</time>
      </trkpt>
      <trkpt lat="42.558775" lon="-0.419917">
        <ele>860.0</ele>
        <time>2019-03-26T09:34:14.000Z</time>
      </trkpt>
      <trkpt lat="42.558776" lon="-0.419984">
        <ele>860.0</ele>
        <time>2019-03-26T09:34:15.000Z</time>
      </trkpt>
      <trkpt lat="42.558776" lon="-0.420052">
        <ele>859.0</ele>
        <time>2019-03-26T09:34:16.000Z</time>
      </trkpt>
      <trkpt lat="42.558775" lon="-0.420118">
        <ele>859.0</ele>
        <time>2019-03-26T09:34:17.000Z</time>
      </trkpt>
      <trkpt lat="42.558772" lon="-0.420181">
        <ele>859.0</ele>
        <time>2019-03-26T09:34:18.000Z</time>
      </trkpt>
      <trkpt lat="42.558768" lon="-0.42024">
        <ele>859.0</ele>
        <time>2019-03-26T09:34:19.000Z</time>
      </trkpt>
      <trkpt lat="42.558763" lon="-0.420294">
        <ele>859.0</ele>
        <time>2019-03-26T09:34:20.000Z</time>
      </trkpt>
      <trkpt lat="42.558757" lon="-0.420343">
        <ele>860.0</ele>
        <time>2019-03-26T09:34:21.000Z</time>
      </trkpt>
      <trkpt lat="42.558752" lon="-0.420387">
        <ele>860.0</ele>
        <time>2019-03-26T09:34:22.000Z</time>
      </trkpt>
      <trkpt lat="42.558747" lon="-0.420427">
        <ele>860.0</ele>
        <time>2019-03-26T09:34:23.000Z</time>
      </trkpt>
      <trkpt lat="42.558742" lon="-0.420466">
        <ele>861.0</ele>
        <time>2019-03-26T09:34:24.000Z</time>
      </trkpt>
      <trkpt lat="42.558737" lon="-0.420505">
        <ele>861.0</ele>
        <time>2019-03-26T09:34:25.000Z</time>
      </trkpt>
      <trkpt lat="42.558733" lon="-0.420543">
        <ele>861.0</ele>
        <time>2019-03-26T09:34:26.000Z</time>
      </trkpt>
      <trkpt lat="42.558729" lon="-0.420582">
        <ele>861.0</ele>
        <time>2019-03-26T09:34:27.000Z</time>
      </trkpt>
      <trkpt lat="42.558726" lon="-0.420621">
        <ele>862.0</ele>
        <time>2019-03-26T09:34:28.000Z</time>
      </trkpt>
      <trkpt lat="42.558722" lon="-0.420659">
        <ele>862.0</ele>
        <time>2019-03-26T09:34:29.000Z</time>
      </trkpt>
      <trkpt lat="42.55872" lon="-0.420697">
        <ele>862.0</ele>
        <time>2019-03-26T09:34:30.000Z</time>
      </trkpt>
      <trkpt lat="42.558717" lon="-0.420735">
        <ele>862.0</ele>
        <time>2019-03-26T09:34:31.000Z</time>
      </trkpt>
      <trkpt lat="42.558715" lon="-0.420773">
        <ele>862.0</ele>
        <time>2019-03-26T09:34:32.000Z</time>
      </trkpt>
      <trkpt lat="42.558713" lon="-0.42081">
        <ele>863.0</ele>
        <time>2019-03-26T09:34:33.000Z</time>
      </trkpt>
      <trkpt lat="42.558712" lon="-0.420847">
        <ele>863.0</ele>
        <time>2019-03-26T09:34:34.000Z</time>
      </trkpt>
      <trkpt lat="42.558711" lon="-0.420883">
        <ele>863.0</ele>
        <time>2019-03-26T09:34:35.000Z</time>
      </trkpt>
      <trkpt lat="42.55871" lon="-0.420919">
        <ele>863.0</ele>
        <time>2019-03-26T09:34:36.000Z</time>
      </trkpt>
      <trkpt lat="42.55871" lon="-0.420954">
        <ele>864.0</ele>
        <time>2019-03-26T09:34:37.000Z</time>
      </trkpt>
      <trkpt lat="42.55871" lon="-0.420988">
        <ele>864.0</ele>
        <time>2019-03-26T09:34:38.000Z</time>
      </trkpt>
      <trkpt lat="42.55871" lon="-0.421022">
        <ele>864.0</ele>
        <time>2019-03-26T09:34:39.000Z</time>
      </trkpt>
      <trkpt lat="42.558711" lon="-0.421057">
        <ele>864.0</ele>
        <time>2019-03-26T09:34:40.000Z</time>
      </trkpt>
      <trkpt lat="42.558711" lon="-0.421091">
        <ele>864.0</ele>
        <time>2019-03-26T09:34:41.000Z</time>
      </trkpt>
      <trkpt lat="42.558712" lon="-0.421127">
        <ele>865.0</ele>
        <time>2019-03-26T09:34:42.000Z</time>
      </trkpt>
      <trkpt lat="42.558713" lon="-0.421163">
        <ele>865.0</ele>
        <time>2019-03-26T09:34:43.000Z</time>
      </trkpt>
      <trkpt lat="42.558714" lon="-0.421201">
        <ele>865.0</ele>
        <time>2019-03-26T09:34:44.000Z</time>
      </trkpt>
      <trkpt lat="42.558716" lon="-0.421241">
        <ele>865.0</ele>
        <time>2019-03-26T09:34:45.000Z</time>
      </trkpt>
      <trkpt lat="42.558717" lon="-0.421283">
        <ele>865.0</ele>
        <time>2019-03-26T09:34:46.000Z</time>
      </trkpt>
      <trkpt lat="42.558718" lon="-0.421326">
        <ele>865.0</ele>
        <time>2019-03-26T09:34:47.000Z</time>
      </trkpt>
      <trkpt lat="42.55872" lon="-0.421371">
        <ele>865.0</ele>
        <time>2019-03-26T09:34:48.000Z</time>
      </trkpt>
      <trkpt lat="42.558721" lon="-0.421416">
        <ele>865.0</ele>
        <time>2019-03-26T09:34:49.000Z</time>
      </trkpt>
      <trkpt lat="42.558723" lon="-0.421462">
        <ele>865.0</ele>
        <time>2019-03-26T09:34:50.000Z</time>
      </trkpt>
      <trkpt lat="42.558725" lon="-0.421509">
        <ele>865.0</ele>
        <time>2019-03-26T09:34:51.000Z</time>
      </trkpt>
      <trkpt lat="42.558727" lon="-0.421555">
        <ele>865.0</ele>
        <time>2019-03-26T09:34:52.000Z</time>
      </trkpt>
      <trkpt lat="42.558729" lon="-0.421602">
        <ele>865.0</ele>
        <time>2019-03-26T09:34:53.000Z</time>
      </trkpt>
      <trkpt lat="42.558732" lon="-0.42165">
        <ele>865.0</ele>
        <time>2019-03-26T09:34:54.000Z</time>
      </trkpt>
      <trkpt lat="42.558735" lon="-0.421697">
        <ele>864.0</ele>
        <time>2019-03-26T09:34:55.000Z</time>
      </trkpt>
      <trkpt lat="42.558738" lon="-0.421745">
        <ele>865.0</ele>
        <time>2019-03-26T09:34:56.000Z</time>
      </trkpt>
      <trkpt lat="42.558741" lon="-0.421793">
        <ele>864.0</ele>
        <time>2019-03-26T09:34:57.000Z</time>
      </trkpt>
      <trkpt lat="42.558744" lon="-0.421842">
        <ele>864.0</ele>
        <time>2019-03-26T09:34:58.000Z</time>
      </trkpt>
      <trkpt lat="42.558747" lon="-0.42189">
        <ele>864.0</ele>
        <time>2019-03-26T09:34:59.000Z</time>
      </trkpt>
      <trkpt lat="42.558751" lon="-0.42194">
        <ele>864.0</ele>
        <time>2019-03-26T09:35:00.000Z</time>
      </trkpt>
      <trkpt lat="42.558754" lon="-0.421989">
        <ele>864.0</ele>
        <time>2019-03-26T09:35:01.000Z</time>
      </trkpt>
      <trkpt lat="42.558758" lon="-0.422039">
        <ele>864.0</ele>
        <time>2019-03-26T09:35:02.000Z</time>
      </trkpt>
      <trkpt lat="42.558762" lon="-0.42209">
        <ele>864.0</ele>
        <time>2019-03-26T09:35:03.000Z</time>
      </trkpt>
      <trkpt lat="42.558765" lon="-0.422141">
        <ele>864.0</ele>
        <time>2019-03-26T09:35:04.000Z</time>
      </trkpt>
      <trkpt lat="42.558769" lon="-0.422192">
        <ele>864.0</ele>
        <time>2019-03-26T09:35:05.000Z</time>
      </trkpt>
      <trkpt lat="42.558773" lon="-0.422244">
        <ele>864.0</ele>
        <time>2019-03-26T09:35:06.000Z</time>
      </trkpt>
      <trkpt lat="42.558776" lon="-0.422296">
        <ele>863.0</ele>
        <time>2019-03-26T09:35:07.000Z</time>
      </trkpt>
      <trkpt lat="42.55878" lon="-0.422349">
        <ele>863.0</ele>
        <time>2019-03-26T09:35:08.000Z</time>
      </trkpt>
      <trkpt lat="42.558784" lon="-0.422403">
        <ele>863.0</ele>
        <time>2019-03-26T09:35:09.000Z</time>
      </trkpt>
      <trkpt lat="42.558787" lon="-0.422457">
        <ele>863.0</ele>
        <time>2019-03-26T09:35:10.000Z</time>
      </trkpt>
      <trkpt lat="42.558791" lon="-0.422512">
        <ele>863.0</ele>
        <time>2019-03-26T09:35:11.000Z</time>
      </trkpt>
      <trkpt lat="42.558794" lon="-0.422568">
        <ele>863.0</ele>
        <time>2019-03-26T09:35:12.000Z</time>
      </trkpt>
      <trkpt lat="42.558798" lon="-0.422625">
        <ele>863.0</ele>
        <time>2019-03-26T09:35:13.000Z</time>
      </trkpt>
      <trkpt lat="42.558802" lon="-0.422682">
        <ele>863.0</ele>
        <time>2019-03-26T09:35:14.000Z</time>
      </trkpt>
      <trkpt lat="42.558805" lon="-0.42274">
        <ele>863.0</ele>
        <time>2019-03-26T09:35:15.000Z</time>
      </trkpt>
      <trkpt lat="42.558808" lon="-0.4228">
        <ele>863.0</ele>
        <time>2019-03-26T09:35:16.000Z</time>
      </trkpt>
      <trkpt lat="42.558812" lon="-0.42286">
        <ele>863.0</ele>
        <time>2019-03-26T09:35:17.000Z</time>
      </trkpt>
      <trkpt lat="42.558815" lon="-0.422921">
        <ele>862.0</ele>
        <time>2019-03-26T09:35:18.000Z</time>
      </trkpt>
      <trkpt lat="42.558819" lon="-0.422983">
        <ele>862.0</ele>
        <time>2019-03-26T09:35:19.000Z</time>
      </trkpt>
      <trkpt lat="42.558822" lon="-0.423046">
        <ele>861.0</ele>
        <time>2019-03-26T09:35:20.000Z</time>
      </trkpt>
      <trkpt lat="42.558825" lon="-0.42311">
        <ele>861.0</ele>
        <time>2019-03-26T09:35:21.000Z</time>
      </trkpt>
      <trkpt lat="42.558828" lon="-0.423175">
        <ele>861.0</ele>
        <time>2019-03-26T09:35:22.000Z</time>
      </trkpt>
      <trkpt lat="42.558831" lon="-0.42324">
        <ele>861.0</ele>
        <time>2019-03-26T09:35:23.000Z</time>
      </trkpt>
      <trkpt lat="42.558835" lon="-0.423306">
        <ele>861.0</ele>
        <time>2019-03-26T09:35:24.000Z</time>
      </trkpt>
      <trkpt lat="42.558838" lon="-0.423371">
        <ele>861.0</ele>
        <time>2019-03-26T09:35:25.000Z</time>
      </trkpt>
      <trkpt lat="42.558841" lon="-0.423437">
        <ele>861.0</ele>
        <time>2019-03-26T09:35:26.000Z</time>
      </trkpt>
      <trkpt lat="42.558844" lon="-0.423502">
        <ele>861.0</ele>
        <time>2019-03-26T09:35:27.000Z</time>
      </trkpt>
      <trkpt lat="42.558848" lon="-0.423566">
        <ele>861.0</ele>
        <time>2019-03-26T09:35:28.000Z</time>
      </trkpt>
      <trkpt lat="42.558851" lon="-0.42363">
        <ele>860.0</ele>
        <time>2019-03-26T09:35:29.000Z</time>
      </trkpt>
      <trkpt lat="42.558855" lon="-0.423692">
        <ele>860.0</ele>
        <time>2019-03-26T09:35:30.000Z</time>
      </trkpt>
      <trkpt lat="42.558859" lon="-0.423754">
        <ele>860.0</ele>
        <time>2019-03-26T09:35:31.000Z</time>
      </trkpt>
      <trkpt lat="42.558863" lon="-0.423814">
        <ele>860.0</ele>
        <time>2019-03-26T09:35:32.000Z</time>
      </trkpt>
      <trkpt lat="42.558867" lon="-0.423872">
        <ele>860.0</ele>
        <time>2019-03-26T09:35:33.000Z</time>
      </trkpt>
      <trkpt lat="42.558871" lon="-0.42393">
        <ele>860.0</ele>
        <time>2019-03-26T09:35:34.000Z</time>
      </trkpt>
      <trkpt lat="42.558875" lon="-0.423987">
        <ele>860.0</ele>
        <time>2019-03-26T09:35:35.000Z</time>
      </trkpt>
      <trkpt lat="42.558879" lon="-0.424044">
        <ele>860.0</ele>
        <time>2019-03-26T09:35:36.000Z</time>
      </trkpt>
      <trkpt lat="42.558883" lon="-0.424102">
        <ele>860.0</ele>
        <time>2019-03-26T09:35:37.000Z</time>
      </trkpt>
      <trkpt lat="42.558887" lon="-0.42416">
        <ele>860.0</ele>
        <time>2019-03-26T09:35:38.000Z</time>
      </trkpt>
      <trkpt lat="42.558891" lon="-0.424221">
        <ele>860.0</ele>
        <time>2019-03-26T09:35:39.000Z</time>
      </trkpt>
      <trkpt lat="42.558895" lon="-0.424283">
        <ele>860.0</ele>
        <time>2019-03-26T09:35:40.000Z</time>
      </trkpt>
      <trkpt lat="42.558898" lon="-0.424348">
        <ele>860.0</ele>
        <time>2019-03-26T09:35:41.000Z</time>
      </trkpt>
      <trkpt lat="42.558901" lon="-0.424413">
        <ele>860.0</ele>
        <time>2019-03-26T09:35:42.000Z</time>
      </trkpt>
      <trkpt lat="42.558904" lon="-0.424481">
        <ele>859.0</ele>
        <time>2019-03-26T09:35:43.000Z</time>
      </trkpt>
      <trkpt lat="42.558908" lon="-0.424548">
        <ele>859.0</ele>
        <time>2019-03-26T09:35:44.000Z</time>
      </trkpt>
      <trkpt lat="42.558911" lon="-0.424617">
        <ele>859.0</ele>
        <time>2019-03-26T09:35:45.000Z</time>
      </trkpt>
      <trkpt lat="42.558915" lon="-0.424685">
        <ele>859.0</ele>
        <time>2019-03-26T09:35:46.000Z</time>
      </trkpt>
      <trkpt lat="42.558919" lon="-0.424753">
        <ele>858.0</ele>
        <time>2019-03-26T09:35:47.000Z</time>
      </trkpt>
      <trkpt lat="42.558924" lon="-0.424821">
        <ele>858.0</ele>
        <time>2019-03-26T09:35:48.000Z</time>
      </trkpt>
      <trkpt lat="42.558928" lon="-0.424886">
        <ele>858.0</ele>
        <time>2019-03-26T09:35:49.000Z</time>
      </trkpt>
      <trkpt lat="42.558933" lon="-0.42495">
        <ele>858.0</ele>
        <time>2019-03-26T09:35:50.000Z</time>
      </trkpt>
      <trkpt lat="42.558938" lon="-0.42501">
        <ele>859.0</ele>
        <time>2019-03-26T09:35:51.000Z</time>
      </trkpt>
      <trkpt lat="42.558943" lon="-0.425068">
        <ele>859.0</ele>
        <time>2019-03-26T09:35:52.000Z</time>
      </trkpt>
      <trkpt lat="42.558947" lon="-0.425121">
        <ele>859.0</ele>
        <time>2019-03-26T09:35:53.000Z</time>
      </trkpt>
      <trkpt lat="42.558951" lon="-0.425169">
        <ele>860.0</ele>
        <time>2019-03-26T09:35:54.000Z</time>
      </trkpt>
      <trkpt lat="42.558956" lon="-0.425214">
        <ele>860.0</ele>
        <time>2019-03-26T09:35:55.000Z</time>
      </trkpt>
      <trkpt lat="42.558959" lon="-0.425255">
        <ele>860.0</ele>
        <time>2019-03-26T09:35:56.000Z</time>
      </trkpt>
      <trkpt lat="42.558963" lon="-0.425293">
        <ele>861.0</ele>
        <time>2019-03-26T09:35:57.000Z</time>
      </trkpt>
      <trkpt lat="42.558967" lon="-0.42533">
        <ele>861.0</ele>
        <time>2019-03-26T09:35:58.000Z</time>
      </trkpt>
      <trkpt lat="42.55897" lon="-0.425365">
        <ele>861.0</ele>
        <time>2019-03-26T09:35:59.000Z</time>
      </trkpt>
      <trkpt lat="42.558974" lon="-0.4254">
        <ele>862.0</ele>
        <time>2019-03-26T09:36:00.000Z</time>
      </trkpt>
      <trkpt lat="42.558978" lon="-0.425435">
        <ele>862.0</ele>
        <time>2019-03-26T09:36:01.000Z</time>
      </trkpt>
      <trkpt lat="42.558981" lon="-0.42547">
        <ele>862.0</ele>
        <time>2019-03-26T09:36:02.000Z</time>
      </trkpt>
      <trkpt lat="42.558985" lon="-0.425505">
        <ele>862.0</ele>
        <time>2019-03-26T09:36:03.000Z</time>
      </trkpt>
      <trkpt lat="42.558988" lon="-0.425539">
        <ele>863.0</ele>
        <time>2019-03-26T09:36:04.000Z</time>
      </trkpt>
      <trkpt lat="42.558991" lon="-0.425572">
        <ele>863.0</ele>
        <time>2019-03-26T09:36:05.000Z</time>
      </trkpt>
      <trkpt lat="42.558994" lon="-0.425603">
        <ele>863.0</ele>
        <time>2019-03-26T09:36:06.000Z</time>
      </trkpt>
      <trkpt lat="42.558996" lon="-0.425634">
        <ele>864.0</ele>
        <time>2019-03-26T09:36:07.000Z</time>
      </trkpt>
      <trkpt lat="42.558998" lon="-0.425662">
        <ele>864.0</ele>
        <time>2019-03-26T09:36:08.000Z</time>
      </trkpt>
      <trkpt lat="42.558999" lon="-0.425689">
        <ele>865.0</ele>
        <time>2019-03-26T09:36:09.000Z</time>
      </trkpt>
      <trkpt lat="42.559" lon="-0.425715">
        <ele>865.0</ele>
        <time>2019-03-26T09:36:10.000Z</time>
      </trkpt>
      <trkpt lat="42.559001" lon="-0.42574">
        <ele>865.0</ele>
        <time>2019-03-26T09:36:11.000Z</time>
      </trkpt>
      <trkpt lat="42.559003" lon="-0.425764">
        <ele>866.0</ele>
        <time>2019-03-26T09:36:12.000Z</time>
      </trkpt>
      <trkpt lat="42.559004" lon="-0.425787">
        <ele>866.0</ele>
        <time>2019-03-26T09:36:13.000Z</time>
      </trkpt>
      <trkpt lat="42.559007" lon="-0.42581">
        <ele>866.0</ele>
        <time>2019-03-26T09:36:14.000Z</time>
      </trkpt>
      <trkpt lat="42.559009" lon="-0.425832">
        <ele>866.0</ele>
        <time>2019-03-26T09:36:15.000Z</time>
      </trkpt>
      <trkpt lat="42.559012" lon="-0.425855">
        <ele>867.0</ele>
        <time>2019-03-26T09:36:16.000Z</time>
      </trkpt>
      <trkpt lat="42.559016" lon="-0.425877">
        <ele>867.0</ele>
        <time>2019-03-26T09:36:17.000Z</time>
      </trkpt>
      <trkpt lat="42.559019" lon="-0.4259">
        <ele>867.0</ele>
        <time>2019-03-26T09:36:18.000Z</time>
      </trkpt>
      <trkpt lat="42.559022" lon="-0.425923">
        <ele>867.0</ele>
        <time>2019-03-26T09:36:19.000Z</time>
      </trkpt>
      <trkpt lat="42.559025" lon="-0.425945">
        <ele>868.0</ele>
        <time>2019-03-26T09:36:20.000Z</time>
      </trkpt>
      <trkpt lat="42.559027" lon="-0.425969">
        <ele>868.0</ele>
        <time>2019-03-26T09:36:21.000Z</time>
      </trkpt>
      <trkpt lat="42.559029" lon="-0.425992">
        <ele>868.0</ele>
        <time>2019-03-26T09:36:22.000Z</time>
      </trkpt>
      <trkpt lat="42.559029" lon="-0.426016">
        <ele>869.0</ele>
        <time>2019-03-26T09:36:23.000Z</time>
      </trkpt>
      <trkpt lat="42.55903" lon="-0.42604">
        <ele>869.0</ele>
        <time>2019-03-26T09:36:24.000Z</time>
      </trkpt>
      <trkpt lat="42.55903" lon="-0.426064">
        <ele>869.0</ele>
        <time>2019-03-26T09:36:25.000Z</time>
      </trkpt>
      <trkpt lat="42.559029" lon="-0.426089">
        <ele>869.0</ele>
        <time>2019-03-26T09:36:26.000Z</time>
      </trkpt>
      <trkpt lat="42.559029" lon="-0.426114">
        <ele>869.0</ele>
        <time>2019-03-26T09:36:27.000Z</time>
      </trkpt>
      <trkpt lat="42.559028" lon="-0.426139">
        <ele>870.0</ele>
        <time>2019-03-26T09:36:28.000Z</time>
      </trkpt>
      <trkpt lat="42.559027" lon="-0.426164">
        <ele>870.0</ele>
        <time>2019-03-26T09:36:29.000Z</time>
      </trkpt>
      <trkpt lat="42.559027" lon="-0.426189">
        <ele>870.0</ele>
        <time>2019-03-26T09:36:30.000Z</time>
      </trkpt>
      <trkpt lat="42.559026" lon="-0.426215">
        <ele>870.0</ele>
        <time>2019-03-26T09:36:31.000Z</time>
      </trkpt>
      <trkpt lat="42.559026" lon="-0.426241">
        <ele>871.0</ele>
        <time>2019-03-26T09:36:32.000Z</time>
      </trkpt>
      <trkpt lat="42.559025" lon="-0.426267">
        <ele>871.0</ele>
        <time>2019-03-26T09:36:33.000Z</time>
      </trkpt>
      <trkpt lat="42.559025" lon="-0.426293">
        <ele>871.0</ele>
        <time>2019-03-26T09:36:34.000Z</time>
      </trkpt>
      <trkpt lat="42.559025" lon="-0.426319">
        <ele>871.0</ele>
        <time>2019-03-26T09:36:35.000Z</time>
      </trkpt>
      <trkpt lat="42.559026" lon="-0.426345">
        <ele>872.0</ele>
        <time>2019-03-26T09:36:36.000Z</time>
      </trkpt>
      <trkpt lat="42.559026" lon="-0.426372">
        <ele>872.0</ele>
        <time>2019-03-26T09:36:37.000Z</time>
      </trkpt>
      <trkpt lat="42.559027" lon="-0.426398">
        <ele>872.0</ele>
        <time>2019-03-26T09:36:38.000Z</time>
      </trkpt>
      <trkpt lat="42.559028" lon="-0.426425">
        <ele>872.0</ele>
        <time>2019-03-26T09:36:39.000Z</time>
      </trkpt>
      <trkpt lat="42.55903" lon="-0.426452">
        <ele>873.0</ele>
        <time>2019-03-26T09:36:40.000Z</time>
      </trkpt>
      <trkpt lat="42.559032" lon="-0.426479">
        <ele>873.0</ele>
        <time>2019-03-26T09:36:41.000Z</time>
      </trkpt>
      <trkpt lat="42.559035" lon="-0.426506">
        <ele>873.0</ele>
        <time>2019-03-26T09:36:42.000Z</time>
      </trkpt>
      <trkpt lat="42.559037" lon="-0.426533">
        <ele>873.0</ele>
        <time>2019-03-26T09:36:43.000Z</time>
      </trkpt>
      <trkpt lat="42.55904" lon="-0.42656">
        <ele>874.0</ele>
        <time>2019-03-26T09:36:44.000Z</time>
      </trkpt>
      <trkpt lat="42.559043" lon="-0.426586">
        <ele>874.0</ele>
        <time>2019-03-26T09:36:45.000Z</time>
      </trkpt>
      <trkpt lat="42.559046" lon="-0.426613">
        <ele>874.0</ele>
        <time>2019-03-26T09:36:46.000Z</time>
      </trkpt>
      <trkpt lat="42.559048" lon="-0.426638">
        <ele>874.0</ele>
        <time>2019-03-26T09:36:47.000Z</time>
      </trkpt>
      <trkpt lat="42.559049" lon="-0.426663">
        <ele>874.0</ele>
        <time>2019-03-26T09:36:48.000Z</time>
      </trkpt>
      <trkpt lat="42.55905" lon="-0.426687">
        <ele>875.0</ele>
        <time>2019-03-26T09:36:49.000Z</time>
      </trkpt>
      <trkpt lat="42.559051" lon="-0.42671">
        <ele>875.0</ele>
        <time>2019-03-26T09:36:50.000Z</time>
      </trkpt>
      <trkpt lat="42.559051" lon="-0.426733">
        <ele>875.0</ele>
        <time>2019-03-26T09:36:51.000Z</time>
      </trkpt>
      <trkpt lat="42.559052" lon="-0.426756">
        <ele>876.0</ele>
        <time>2019-03-26T09:36:52.000Z</time>
      </trkpt>
      <trkpt lat="42.559054" lon="-0.426779">
        <ele>876.0</ele>
        <time>2019-03-26T09:36:53.000Z</time>
      </trkpt>
      <trkpt lat="42.559056" lon="-0.426802">
        <ele>876.0</ele>
        <time>2019-03-26T09:36:54.000Z</time>
      </trkpt>
      <trkpt lat="42.559059" lon="-0.426826">
        <ele>876.0</ele>
        <time>2019-03-26T09:36:55.000Z</time>
      </trkpt>
      <trkpt lat="42.559061" lon="-0.42685">
        <ele>876.0</ele>
        <time>2019-03-26T09:36:56.000Z</time>
      </trkpt>
      <trkpt lat="42.559063" lon="-0.426875">
        <ele>876.0</ele>
        <time>2019-03-26T09:36:57.000Z</time>
      </trkpt>
      <trkpt lat="42.559065" lon="-0.426899">
        <ele>876.0</ele>
        <time>2019-03-26T09:36:58.000Z</time>
      </trkpt>
      <trkpt lat="42.559067" lon="-0.426924">
        <ele>877.0</ele>
        <time>2019-03-26T09:36:59.000Z</time>
      </trkpt>
      <trkpt lat="42.559069" lon="-0.426949">
        <ele>877.0</ele>
        <time>2019-03-26T09:37:00.000Z</time>
      </trkpt>
      <trkpt lat="42.559071" lon="-0.426975">
        <ele>877.0</ele>
        <time>2019-03-26T09:37:01.000Z</time>
      </trkpt>
      <trkpt lat="42.559073" lon="-0.427">
        <ele>877.0</ele>
        <time>2019-03-26T09:37:02.000Z</time>
      </trkpt>
      <trkpt lat="42.559074" lon="-0.427026">
        <ele>877.0</ele>
        <time>2019-03-26T09:37:03.000Z</time>
      </trkpt>
      <trkpt lat="42.559076" lon="-0.427052">
        <ele>878.0</ele>
        <time>2019-03-26T09:37:04.000Z</time>
      </trkpt>
      <trkpt lat="42.559077" lon="-0.427079">
        <ele>878.0</ele>
        <time>2019-03-26T09:37:05.000Z</time>
      </trkpt>
      <trkpt lat="42.559079" lon="-0.427105">
        <ele>878.0</ele>
        <time>2019-03-26T09:37:06.000Z</time>
      </trkpt>
      <trkpt lat="42.55908" lon="-0.427132">
        <ele>878.0</ele>
        <time>2019-03-26T09:37:07.000Z</time>
      </trkpt>
      <trkpt lat="42.559082" lon="-0.427158">
        <ele>879.0</ele>
        <time>2019-03-26T09:37:08.000Z</time>
      </trkpt>
      <trkpt lat="42.559084" lon="-0.427185">
        <ele>878.0</ele>
        <time>2019-03-26T09:37:09.000Z</time>
      </trkpt>
      <trkpt lat="42.559086" lon="-0.427212">
        <ele>878.0</ele>
        <time>2019-03-26T09:37:10.000Z</time>
      </trkpt>
      <trkpt lat="42.559087" lon="-0.42724">
        <ele>878.0</ele>
        <time>2019-03-26T09:37:11.000Z</time>
      </trkpt>
      <trkpt lat="42.559089" lon="-0.427267">
        <ele>878.0</ele>
        <time>2019-03-26T09:37:12.000Z</time>
      </trkpt>
      <trkpt lat="42.559091" lon="-0.427295">
        <ele>878.0</ele>
        <time>2019-03-26T09:37:13.000Z</time>
      </trkpt>
      <trkpt lat="42.559093" lon="-0.427323">
        <ele>878.0</ele>
        <time>2019-03-26T09:37:14.000Z</time>
      </trkpt>
      <trkpt lat="42.559095" lon="-0.427351">
        <ele>878.0</ele>
        <time>2019-03-26T09:37:15.000Z</time>
      </trkpt>
      <trkpt lat="42.559096" lon="-0.427379">
        <ele>878.0</ele>
        <time>2019-03-26T09:37:16.000Z</time>
      </trkpt>
      <trkpt lat="42.559098" lon="-0.427408">
        <ele>878.0</ele>
        <time>2019-03-26T09:37:17.000Z</time>
      </trkpt>
      <trkpt lat="42.5591" lon="-0.427438">
        <ele>878.0</ele>
        <time>2019-03-26T09:37:18.000Z</time>
      </trkpt>
      <trkpt lat="42.559102" lon="-0.427468">
        <ele>878.0</ele>
        <time>2019-03-26T09:37:19.000Z</time>
      </trkpt>
      <trkpt lat="42.559103" lon="-0.427499">
        <ele>878.0</ele>
        <time>2019-03-26T09:37:20.000Z</time>
      </trkpt>
      <trkpt lat="42.559104" lon="-0.42753">
        <ele>878.0</ele>
        <time>2019-03-26T09:37:21.000Z</time>
      </trkpt>
      <trkpt lat="42.559106" lon="-0.427561">
        <ele>878.0</ele>
        <time>2019-03-26T09:37:22.000Z</time>
      </trkpt>
      <trkpt lat="42.559107" lon="-0.427594">
        <ele>878.0</ele>
        <time>2019-03-26T09:37:23.000Z</time>
      </trkpt>
      <trkpt lat="42.559108" lon="-0.427627">
        <ele>878.0</ele>
        <time>2019-03-26T09:37:24.000Z</time>
      </trkpt>
      <trkpt lat="42.559109" lon="-0.427661">
        <ele>878.0</ele>
        <time>2019-03-26T09:37:25.000Z</time>
      </trkpt>
      <trkpt lat="42.55911" lon="-0.427695">
        <ele>878.0</ele>
        <time>2019-03-26T09:37:26.000Z</time>
      </trkpt>
      <trkpt lat="42.55911" lon="-0.42773">
        <ele>878.0</ele>
        <time>2019-03-26T09:37:27.000Z</time>
      </trkpt>
      <trkpt lat="42.559111" lon="-0.427765">
        <ele>878.0</ele>
        <time>2019-03-26T09:37:28.000Z</time>
      </trkpt>
      <trkpt lat="42.559112" lon="-0.427801">
        <ele>878.0</ele>
        <time>2019-03-26T09:37:29.000Z</time>
      </trkpt>
      <trkpt lat="42.559113" lon="-0.427837">
        <ele>878.0</ele>
        <time>2019-03-26T09:37:30.000Z</time>
      </trkpt>
      <trkpt lat="42.559114" lon="-0.427874">
        <ele>878.0</ele>
        <time>2019-03-26T09:37:31.000Z</time>
      </trkpt>
      <trkpt lat="42.559115" lon="-0.427912">
        <ele>878.0</ele>
        <time>2019-03-26T09:37:32.000Z</time>
      </trkpt>
      <trkpt lat="42.559116" lon="-0.427949">
        <ele>878.0</ele>
        <time>2019-03-26T09:37:33.000Z</time>
      </trkpt>
      <trkpt lat="42.559117" lon="-0.427988">
        <ele>878.0</ele>
        <time>2019-03-26T09:37:34.000Z</time>
      </trkpt>
      <trkpt lat="42.559119" lon="-0.428026">
        <ele>877.0</ele>
        <time>2019-03-26T09:37:35.000Z</time>
      </trkpt>
      <trkpt lat="42.55912" lon="-0.428065">
        <ele>877.0</ele>
        <time>2019-03-26T09:37:36.000Z</time>
      </trkpt>
      <trkpt lat="42.559122" lon="-0.428104">
        <ele>877.0</ele>
        <time>2019-03-26T09:37:37.000Z</time>
      </trkpt>
      <trkpt lat="42.559124" lon="-0.428144">
        <ele>877.0</ele>
        <time>2019-03-26T09:37:38.000Z</time>
      </trkpt>
      <trkpt lat="42.559127" lon="-0.428184">
        <ele>877.0</ele>
        <time>2019-03-26T09:37:39.000Z</time>
      </trkpt>
      <trkpt lat="42.559129" lon="-0.428224">
        <ele>877.0</ele>
        <time>2019-03-26T09:37:40.000Z</time>
      </trkpt>
      <trkpt lat="42.559132" lon="-0.428265">
        <ele>877.0</ele>
        <time>2019-03-26T09:37:41.000Z</time>
      </trkpt>
      <trkpt lat="42.559134" lon="-0.428306">
        <ele>878.0</ele>
        <time>2019-03-26T09:37:42.000Z</time>
      </trkpt>
      <trkpt lat="42.559137" lon="-0.428347">
        <ele>878.0</ele>
        <time>2019-03-26T09:37:43.000Z</time>
      </trkpt>
      <trkpt lat="42.55914" lon="-0.428389">
        <ele>877.0</ele>
        <time>2019-03-26T09:37:44.000Z</time>
      </trkpt>
      <trkpt lat="42.559142" lon="-0.428431">
        <ele>877.0</ele>
        <time>2019-03-26T09:37:45.000Z</time>
      </trkpt>
      <trkpt lat="42.559145" lon="-0.428474">
        <ele>877.0</ele>
        <time>2019-03-26T09:37:46.000Z</time>
      </trkpt>
      <trkpt lat="42.559147" lon="-0.428517">
        <ele>877.0</ele>
        <time>2019-03-26T09:37:47.000Z</time>
      </trkpt>
      <trkpt lat="42.55915" lon="-0.42856">
        <ele>877.0</ele>
        <time>2019-03-26T09:37:48.000Z</time>
      </trkpt>
      <trkpt lat="42.559152" lon="-0.428603">
        <ele>877.0</ele>
        <time>2019-03-26T09:37:49.000Z</time>
      </trkpt>
      <trkpt lat="42.559154" lon="-0.428647">
        <ele>877.0</ele>
        <time>2019-03-26T09:37:50.000Z</time>
      </trkpt>
      <trkpt lat="42.559155" lon="-0.428691">
        <ele>876.0</ele>
        <time>2019-03-26T09:37:51.000Z</time>
      </trkpt>
      <trkpt lat="42.559157" lon="-0.428736">
        <ele>876.0</ele>
        <time>2019-03-26T09:37:52.000Z</time>
      </trkpt>
      <trkpt lat="42.559158" lon="-0.42878">
        <ele>877.0</ele>
        <time>2019-03-26T09:37:53.000Z</time>
      </trkpt>
      <trkpt lat="42.55916" lon="-0.428825">
        <ele>877.0</ele>
        <time>2019-03-26T09:37:54.000Z</time>
      </trkpt>
      <trkpt lat="42.559162" lon="-0.428869">
        <ele>876.0</ele>
        <time>2019-03-26T09:37:55.000Z</time>
      </trkpt>
      <trkpt lat="42.559164" lon="-0.428913">
        <ele>876.0</ele>
        <time>2019-03-26T09:37:56.000Z</time>
      </trkpt>
      <trkpt lat="42.559166" lon="-0.428956">
        <ele>876.0</ele>
        <time>2019-03-26T09:37:57.000Z</time>
      </trkpt>
      <trkpt lat="42.559168" lon="-0.428999">
        <ele>876.0</ele>
        <time>2019-03-26T09:37:58.000Z</time>
      </trkpt>
      <trkpt lat="42.559171" lon="-0.429042">
        <ele>876.0</ele>
        <time>2019-03-26T09:37:59.000Z</time>
      </trkpt>
      <trkpt lat="42.559173" lon="-0.429085">
        <ele>877.0</ele>
        <time>2019-03-26T09:38:00.000Z</time>
      </trkpt>
      <trkpt lat="42.559174" lon="-0.429127">
        <ele>876.0</ele>
        <time>2019-03-26T09:38:01.000Z</time>
      </trkpt>
      <trkpt lat="42.559175" lon="-0.42917">
        <ele>876.0</ele>
        <time>2019-03-26T09:38:02.000Z</time>
      </trkpt>
      <trkpt lat="42.559177" lon="-0.429211">
        <ele>876.0</ele>
        <time>2019-03-26T09:38:03.000Z</time>
      </trkpt>
      <trkpt lat="42.559182" lon="-0.429248">
        <ele>876.0</ele>
        <time>2019-03-26T09:38:04.000Z</time>
      </trkpt>
      <trkpt lat="42.559193" lon="-0.429281">
        <ele>876.0</ele>
        <time>2019-03-26T09:38:05.000Z</time>
      </trkpt>
      <trkpt lat="42.559208" lon="-0.429308">
        <ele>877.0</ele>
        <time>2019-03-26T09:38:06.000Z</time>
      </trkpt>
      <trkpt lat="42.559229" lon="-0.429328">
        <ele>877.0</ele>
        <time>2019-03-26T09:38:07.000Z</time>
      </trkpt>
      <trkpt lat="42.559252" lon="-0.429342">
        <ele>877.0</ele>
        <time>2019-03-26T09:38:08.000Z</time>
      </trkpt>
      <trkpt lat="42.559277" lon="-0.429349">
        <ele>877.0</ele>
        <time>2019-03-26T09:38:09.000Z</time>
      </trkpt>
      <trkpt lat="42.559304" lon="-0.429352">
        <ele>878.0</ele>
        <time>2019-03-26T09:38:10.000Z</time>
      </trkpt>
      <trkpt lat="42.559332" lon="-0.429353">
        <ele>878.0</ele>
        <time>2019-03-26T09:38:11.000Z</time>
      </trkpt>
      <trkpt lat="42.559359" lon="-0.429354">
        <ele>878.0</ele>
        <time>2019-03-26T09:38:12.000Z</time>
      </trkpt>
      <trkpt lat="42.559386" lon="-0.429356">
        <ele>878.0</ele>
        <time>2019-03-26T09:38:13.000Z</time>
      </trkpt>
      <trkpt lat="42.559413" lon="-0.429358">
        <ele>878.0</ele>
        <time>2019-03-26T09:38:14.000Z</time>
      </trkpt>
      <trkpt lat="42.559439" lon="-0.429361">
        <ele>878.0</ele>
        <time>2019-03-26T09:38:15.000Z</time>
      </trkpt>
      <trkpt lat="42.559465" lon="-0.429365">
        <ele>878.0</ele>
        <time>2019-03-26T09:38:16.000Z</time>
      </trkpt>
      <trkpt lat="42.559491" lon="-0.429368">
        <ele>879.0</ele>
        <time>2019-03-26T09:38:17.000Z</time>
      </trkpt>
      <trkpt lat="42.559516" lon="-0.429371">
        <ele>879.0</ele>
        <time>2019-03-26T09:38:18.000Z</time>
      </trkpt>
      <trkpt lat="42.559541" lon="-0.429374">
        <ele>879.0</ele>
        <time>2019-03-26T09:38:19.000Z</time>
      </trkpt>
      <trkpt lat="42.559567" lon="-0.429377">
        <ele>879.0</ele>
        <time>2019-03-26T09:38:20.000Z</time>
      </trkpt>
      <trkpt lat="42.559592" lon="-0.42938">
        <ele>879.0</ele>
        <time>2019-03-26T09:38:21.000Z</time>
      </trkpt>
      <trkpt lat="42.559616" lon="-0.429382">
        <ele>879.0</ele>
        <time>2019-03-26T09:38:22.000Z</time>
      </trkpt>
      <trkpt lat="42.559641" lon="-0.429385">
        <ele>879.0</ele>
        <time>2019-03-26T09:38:23.000Z</time>
      </trkpt>
      <trkpt lat="42.559666" lon="-0.429387">
        <ele>879.0</ele>
        <time>2019-03-26T09:38:24.000Z</time>
      </trkpt>
      <trkpt lat="42.55969" lon="-0.429389">
        <ele>879.0</ele>
        <time>2019-03-26T09:38:25.000Z</time>
      </trkpt>
      <trkpt lat="42.559715" lon="-0.429391">
        <ele>880.0</ele>
        <time>2019-03-26T09:38:26.000Z</time>
      </trkpt>
      <trkpt lat="42.559739" lon="-0.429393">
        <ele>880.0</ele>
        <time>2019-03-26T09:38:27.000Z</time>
      </trkpt>
      <trkpt lat="42.559764" lon="-0.429395">
        <ele>880.0</ele>
        <time>2019-03-26T09:38:28.000Z</time>
      </trkpt>
      <trkpt lat="42.559788" lon="-0.429397">
        <ele>880.0</ele>
        <time>2019-03-26T09:38:29.000Z</time>
      </trkpt>
      <trkpt lat="42.559813" lon="-0.4294">
        <ele>880.0</ele>
        <time>2019-03-26T09:38:30.000Z</time>
      </trkpt>
      <trkpt lat="42.559838" lon="-0.429402">
        <ele>880.0</ele>
        <time>2019-03-26T09:38:31.000Z</time>
      </trkpt>
      <trkpt lat="42.559862" lon="-0.429405">
        <ele>880.0</ele>
        <time>2019-03-26T09:38:32.000Z</time>
      </trkpt>
      <trkpt lat="42.559887" lon="-0.429407">
        <ele>881.0</ele>
        <time>2019-03-26T09:38:33.000Z</time>
      </trkpt>
      <trkpt lat="42.559912" lon="-0.42941">
        <ele>881.0</ele>
        <time>2019-03-26T09:38:34.000Z</time>
      </trkpt>
      <trkpt lat="42.559937" lon="-0.429413">
        <ele>881.0</ele>
        <time>2019-03-26T09:38:35.000Z</time>
      </trkpt>
      <trkpt lat="42.559962" lon="-0.429416">
        <ele>881.0</ele>
        <time>2019-03-26T09:38:36.000Z</time>
      </trkpt>
      <trkpt lat="42.559987" lon="-0.429419">
        <ele>881.0</ele>
        <time>2019-03-26T09:38:37.000Z</time>
      </trkpt>
      <trkpt lat="42.560012" lon="-0.429422">
        <ele>881.0</ele>
        <time>2019-03-26T09:38:38.000Z</time>
      </trkpt>
      <trkpt lat="42.560037" lon="-0.429425">
        <ele>881.0</ele>
        <time>2019-03-26T09:38:39.000Z</time>
      </trkpt>
      <trkpt lat="42.560062" lon="-0.429429">
        <ele>881.0</ele>
        <time>2019-03-26T09:38:40.000Z</time>
      </trkpt>
      <trkpt lat="42.560088" lon="-0.429432">
        <ele>882.0</ele>
        <time>2019-03-26T09:38:41.000Z</time>
      </trkpt>
      <trkpt lat="42.560113" lon="-0.429435">
        <ele>882.0</ele>
        <time>2019-03-26T09:38:42.000Z</time>
      </trkpt>
      <trkpt lat="42.560138" lon="-0.429439">
        <ele>882.0</ele>
        <time>2019-03-26T09:38:43.000Z</time>
      </trkpt>
      <trkpt lat="42.560163" lon="-0.429442">
        <ele>882.0</ele>
        <time>2019-03-26T09:38:44.000Z</time>
      </trkpt>
      <trkpt lat="42.560188" lon="-0.429446">
        <ele>882.0</ele>
        <time>2019-03-26T09:38:45.000Z</time>
      </trkpt>
      <trkpt lat="42.560213" lon="-0.429449">
        <ele>883.0</ele>
        <time>2019-03-26T09:38:46.000Z</time>
      </trkpt>
      <trkpt lat="42.560238" lon="-0.429452">
        <ele>883.0</ele>
        <time>2019-03-26T09:38:47.000Z</time>
      </trkpt>
      <trkpt lat="42.560262" lon="-0.429456">
        <ele>883.0</ele>
        <time>2019-03-26T09:38:48.000Z</time>
      </trkpt>
      <trkpt lat="42.560287" lon="-0.429459">
        <ele>883.0</ele>
        <time>2019-03-26T09:38:49.000Z</time>
      </trkpt>
      <trkpt lat="42.560312" lon="-0.429462">
        <ele>883.0</ele>
        <time>2019-03-26T09:38:50.000Z</time>
      </trkpt>
      <trkpt lat="42.560336" lon="-0.429466">
        <ele>883.0</ele>
        <time>2019-03-26T09:38:51.000Z</time>
      </trkpt>
      <trkpt lat="42.560361" lon="-0.429469">
        <ele>884.0</ele>
        <time>2019-03-26T09:38:52.000Z</time>
      </trkpt>
      <trkpt lat="42.560385" lon="-0.429472">
        <ele>884.0</ele>
        <time>2019-03-26T09:38:53.000Z</time>
      </trkpt>
      <trkpt lat="42.560409" lon="-0.429475">
        <ele>884.0</ele>
        <time>2019-03-26T09:38:54.000Z</time>
      </trkpt>
      <trkpt lat="42.560433" lon="-0.429478">
        <ele>884.0</ele>
        <time>2019-03-26T09:38:55.000Z</time>
      </trkpt>
      <trkpt lat="42.560457" lon="-0.429481">
        <ele>884.0</ele>
        <time>2019-03-26T09:38:56.000Z</time>
      </trkpt>
      <trkpt lat="42.560481" lon="-0.429484">
        <ele>884.0</ele>
        <time>2019-03-26T09:38:57.000Z</time>
      </trkpt>
      <trkpt lat="42.560504" lon="-0.429487">
        <ele>885.0</ele>
        <time>2019-03-26T09:38:58.000Z</time>
      </trkpt>
      <trkpt lat="42.560528" lon="-0.42949">
        <ele>885.0</ele>
        <time>2019-03-26T09:38:59.000Z</time>
      </trkpt>
      <trkpt lat="42.560551" lon="-0.429493">
        <ele>885.0</ele>
        <time>2019-03-26T09:39:00.000Z</time>
      </trkpt>
      <trkpt lat="42.560574" lon="-0.429496">
        <ele>885.0</ele>
        <time>2019-03-26T09:39:01.000Z</time>
      </trkpt>
      <trkpt lat="42.560597" lon="-0.429499">
        <ele>885.0</ele>
        <time>2019-03-26T09:39:02.000Z</time>
      </trkpt>
      <trkpt lat="42.56062" lon="-0.429501">
        <ele>886.0</ele>
        <time>2019-03-26T09:39:03.000Z</time>
      </trkpt>
      <trkpt lat="42.560642" lon="-0.429504">
        <ele>886.0</ele>
        <time>2019-03-26T09:39:04.000Z</time>
      </trkpt>
      <trkpt lat="42.560664" lon="-0.429507">
        <ele>886.0</ele>
        <time>2019-03-26T09:39:05.000Z</time>
      </trkpt>
      <trkpt lat="42.560686" lon="-0.42951">
        <ele>886.0</ele>
        <time>2019-03-26T09:39:06.000Z</time>
      </trkpt>
      <trkpt lat="42.560708" lon="-0.429513">
        <ele>887.0</ele>
        <time>2019-03-26T09:39:07.000Z</time>
      </trkpt>
      <trkpt lat="42.560729" lon="-0.429516">
        <ele>887.0</ele>
        <time>2019-03-26T09:39:08.000Z</time>
      </trkpt>
      <trkpt lat="42.560749" lon="-0.429519">
        <ele>887.0</ele>
        <time>2019-03-26T09:39:09.000Z</time>
      </trkpt>
      <trkpt lat="42.560769" lon="-0.429523">
        <ele>887.0</ele>
        <time>2019-03-26T09:39:10.000Z</time>
      </trkpt>
      <trkpt lat="42.560789" lon="-0.429526">
        <ele>887.0</ele>
        <time>2019-03-26T09:39:11.000Z</time>
      </trkpt>
      <trkpt lat="42.560808" lon="-0.429529">
        <ele>887.0</ele>
        <time>2019-03-26T09:39:12.000Z</time>
      </trkpt>
      <trkpt lat="42.560827" lon="-0.429533">
        <ele>888.0</ele>
        <time>2019-03-26T09:39:13.000Z</time>
      </trkpt>
      <trkpt lat="42.560845" lon="-0.429537">
        <ele>888.0</ele>
        <time>2019-03-26T09:39:14.000Z</time>
      </trkpt>
      <trkpt lat="42.560862" lon="-0.429541">
        <ele>888.0</ele>
        <time>2019-03-26T09:39:15.000Z</time>
      </trkpt>
      <trkpt lat="42.560879" lon="-0.429546">
        <ele>888.0</ele>
        <time>2019-03-26T09:39:16.000Z</time>
      </trkpt>
      <trkpt lat="42.560896" lon="-0.42955">
        <ele>889.0</ele>
        <time>2019-03-26T09:39:17.000Z</time>
      </trkpt>
      <trkpt lat="42.560913" lon="-0.429555">
        <ele>889.0</ele>
        <time>2019-03-26T09:39:18.000Z</time>
      </trkpt>
      <trkpt lat="42.560929" lon="-0.429561">
        <ele>889.0</ele>
        <time>2019-03-26T09:39:19.000Z</time>
      </trkpt>
      <trkpt lat="42.560946" lon="-0.429567">
        <ele>889.0</ele>
        <time>2019-03-26T09:39:20.000Z</time>
      </trkpt>
      <trkpt lat="42.560964" lon="-0.429574">
        <ele>889.0</ele>
        <time>2019-03-26T09:39:21.000Z</time>
      </trkpt>
      <trkpt lat="42.560981" lon="-0.429581">
        <ele>890.0</ele>
        <time>2019-03-26T09:39:22.000Z</time>
      </trkpt>
      <trkpt lat="42.560998" lon="-0.429589">
        <ele>890.0</ele>
        <time>2019-03-26T09:39:23.000Z</time>
      </trkpt>
      <trkpt lat="42.561014" lon="-0.429598">
        <ele>890.0</ele>
        <time>2019-03-26T09:39:24.000Z</time>
      </trkpt>
      <trkpt lat="42.56103" lon="-0.429608">
        <ele>890.0</ele>
        <time>2019-03-26T09:39:25.000Z</time>
      </trkpt>
      <trkpt lat="42.561045" lon="-0.42962">
        <ele>890.0</ele>
        <time>2019-03-26T09:39:26.000Z</time>
      </trkpt>
      <trkpt lat="42.561059" lon="-0.429633">
        <ele>891.0</ele>
        <time>2019-03-26T09:39:27.000Z</time>
      </trkpt>
      <trkpt lat="42.561071" lon="-0.429647">
        <ele>891.0</ele>
        <time>2019-03-26T09:39:28.000Z</time>
      </trkpt>
      <trkpt lat="42.561082" lon="-0.429662">
        <ele>891.0</ele>
        <time>2019-03-26T09:39:29.000Z</time>
      </trkpt>
      <trkpt lat="42.561091" lon="-0.429679">
        <ele>891.0</ele>
        <time>2019-03-26T09:39:30.000Z</time>
      </trkpt>
      <trkpt lat="42.5611" lon="-0.429697">
        <ele>891.0</ele>
        <time>2019-03-26T09:39:31.000Z</time>
      </trkpt>
      <trkpt lat="42.561108" lon="-0.429715">
        <ele>892.0</ele>
        <time>2019-03-26T09:39:32.000Z</time>
      </trkpt>
      <trkpt lat="42.561115" lon="-0.429735">
        <ele>892.0</ele>
        <time>2019-03-26T09:39:33.000Z</time>
      </trkpt>
      <trkpt lat="42.561122" lon="-0.429755">
        <ele>892.0</ele>
        <time>2019-03-26T09:39:34.000Z</time>
      </trkpt>
      <trkpt lat="42.561128" lon="-0.429776">
        <ele>892.0</ele>
        <time>2019-03-26T09:39:35.000Z</time>
      </trkpt>
      <trkpt lat="42.561135" lon="-0.429798">
        <ele>892.0</ele>
        <time>2019-03-26T09:39:36.000Z</time>
      </trkpt>
      <trkpt lat="42.561141" lon="-0.429819">
        <ele>893.0</ele>
        <time>2019-03-26T09:39:37.000Z</time>
      </trkpt>
      <trkpt lat="42.561147" lon="-0.429841">
        <ele>893.0</ele>
        <time>2019-03-26T09:39:38.000Z</time>
      </trkpt>
      <trkpt lat="42.561153" lon="-0.429863">
        <ele>893.0</ele>
        <time>2019-03-26T09:39:39.000Z</time>
      </trkpt>
      <trkpt lat="42.56116" lon="-0.429884">
        <ele>893.0</ele>
        <time>2019-03-26T09:39:40.000Z</time>
      </trkpt>
      <trkpt lat="42.561167" lon="-0.429905">
        <ele>893.0</ele>
        <time>2019-03-26T09:39:41.000Z</time>
      </trkpt>
      <trkpt lat="42.561174" lon="-0.429926">
        <ele>894.0</ele>
        <time>2019-03-26T09:39:42.000Z</time>
      </trkpt>
      <trkpt lat="42.561182" lon="-0.429946">
        <ele>894.0</ele>
        <time>2019-03-26T09:39:43.000Z</time>
      </trkpt>
      <trkpt lat="42.561191" lon="-0.429966">
        <ele>894.0</ele>
        <time>2019-03-26T09:39:44.000Z</time>
      </trkpt>
      <trkpt lat="42.5612" lon="-0.429986">
        <ele>894.0</ele>
        <time>2019-03-26T09:39:45.000Z</time>
      </trkpt>
      <trkpt lat="42.561209" lon="-0.430005">
        <ele>895.0</ele>
        <time>2019-03-26T09:39:46.000Z</time>
      </trkpt>
      <trkpt lat="42.561218" lon="-0.430024">
        <ele>895.0</ele>
        <time>2019-03-26T09:39:47.000Z</time>
      </trkpt>
      <trkpt lat="42.561228" lon="-0.430042">
        <ele>895.0</ele>
        <time>2019-03-26T09:39:48.000Z</time>
      </trkpt>
      <trkpt lat="42.561238" lon="-0.430061">
        <ele>895.0</ele>
        <time>2019-03-26T09:39:49.000Z</time>
      </trkpt>
      <trkpt lat="42.561248" lon="-0.430079">
        <ele>896.0</ele>
        <time>2019-03-26T09:39:50.000Z</time>
      </trkpt>
      <trkpt lat="42.561258" lon="-0.430098">
        <ele>896.0</ele>
        <time>2019-03-26T09:39:51.000Z</time>
      </trkpt>
      <trkpt lat="42.561269" lon="-0.430116">
        <ele>896.0</ele>
        <time>2019-03-26T09:39:52.000Z</time>
      </trkpt>
      <trkpt lat="42.561279" lon="-0.430135">
        <ele>896.0</ele>
        <time>2019-03-26T09:39:53.000Z</time>
      </trkpt>
      <trkpt lat="42.56129" lon="-0.430153">
        <ele>896.0</ele>
        <time>2019-03-26T09:39:54.000Z</time>
      </trkpt>
      <trkpt lat="42.5613" lon="-0.430172">
        <ele>897.0</ele>
        <time>2019-03-26T09:39:55.000Z</time>
      </trkpt>
      <trkpt lat="42.56131" lon="-0.430191">
        <ele>897.0</ele>
        <time>2019-03-26T09:39:56.000Z</time>
      </trkpt>
      <trkpt lat="42.56132" lon="-0.43021">
        <ele>897.0</ele>
        <time>2019-03-26T09:39:57.000Z</time>
      </trkpt>
      <trkpt lat="42.56133" lon="-0.430229">
        <ele>897.0</ele>
        <time>2019-03-26T09:39:58.000Z</time>
      </trkpt>
      <trkpt lat="42.56134" lon="-0.430248">
        <ele>898.0</ele>
        <time>2019-03-26T09:39:59.000Z</time>
      </trkpt>
      <trkpt lat="42.56135" lon="-0.430267">
        <ele>898.0</ele>
        <time>2019-03-26T09:40:00.000Z</time>
      </trkpt>
      <trkpt lat="42.56136" lon="-0.430286">
        <ele>898.0</ele>
        <time>2019-03-26T09:40:01.000Z</time>
      </trkpt>
      <trkpt lat="42.56137" lon="-0.430305">
        <ele>898.0</ele>
        <time>2019-03-26T09:40:02.000Z</time>
      </trkpt>
      <trkpt lat="42.56138" lon="-0.430324">
        <ele>898.0</ele>
        <time>2019-03-26T09:40:03.000Z</time>
      </trkpt>
      <trkpt lat="42.561391" lon="-0.430343">
        <ele>899.0</ele>
        <time>2019-03-26T09:40:04.000Z</time>
      </trkpt>
      <trkpt lat="42.561401" lon="-0.430361">
        <ele>899.0</ele>
        <time>2019-03-26T09:40:05.000Z</time>
      </trkpt>
      <trkpt lat="42.561411" lon="-0.43038">
        <ele>899.0</ele>
        <time>2019-03-26T09:40:06.000Z</time>
      </trkpt>
      <trkpt lat="42.561422" lon="-0.430398">
        <ele>899.0</ele>
        <time>2019-03-26T09:40:07.000Z</time>
      </trkpt>
      <trkpt lat="42.561433" lon="-0.430415">
        <ele>899.0</ele>
        <time>2019-03-26T09:40:08.000Z</time>
      </trkpt>
      <trkpt lat="42.561444" lon="-0.430432">
        <ele>899.0</ele>
        <time>2019-03-26T09:40:09.000Z</time>
      </trkpt>
      <trkpt lat="42.561455" lon="-0.430449">
        <ele>900.0</ele>
        <time>2019-03-26T09:40:10.000Z</time>
      </trkpt>
      <trkpt lat="42.561466" lon="-0.430466">
        <ele>900.0</ele>
        <time>2019-03-26T09:40:11.000Z</time>
      </trkpt>
      <trkpt lat="42.561477" lon="-0.430484">
        <ele>900.0</ele>
        <time>2019-03-26T09:40:12.000Z</time>
      </trkpt>
      <trkpt lat="42.561488" lon="-0.430501">
        <ele>900.0</ele>
        <time>2019-03-26T09:40:13.000Z</time>
      </trkpt>
      <trkpt lat="42.561499" lon="-0.430519">
        <ele>901.0</ele>
        <time>2019-03-26T09:40:14.000Z</time>
      </trkpt>
      <trkpt lat="42.561509" lon="-0.430538">
        <ele>901.0</ele>
        <time>2019-03-26T09:40:15.000Z</time>
      </trkpt>
      <trkpt lat="42.561519" lon="-0.430557">
        <ele>901.0</ele>
        <time>2019-03-26T09:40:16.000Z</time>
      </trkpt>
      <trkpt lat="42.561529" lon="-0.430577">
        <ele>901.0</ele>
        <time>2019-03-26T09:40:17.000Z</time>
      </trkpt>
      <trkpt lat="42.561539" lon="-0.430596">
        <ele>901.0</ele>
        <time>2019-03-26T09:40:18.000Z</time>
      </trkpt>
      <trkpt lat="42.56155" lon="-0.430615">
        <ele>901.0</ele>
        <time>2019-03-26T09:40:19.000Z</time>
      </trkpt>
      <trkpt lat="42.561562" lon="-0.430631">
        <ele>902.0</ele>
        <time>2019-03-26T09:40:20.000Z</time>
      </trkpt>
      <trkpt lat="42.561574" lon="-0.430646">
        <ele>902.0</ele>
        <time>2019-03-26T09:40:21.000Z</time>
      </trkpt>
      <trkpt lat="42.561589" lon="-0.430658">
        <ele>902.0</ele>
        <time>2019-03-26T09:40:22.000Z</time>
      </trkpt>
      <trkpt lat="42.561605" lon="-0.430666">
        <ele>902.0</ele>
        <time>2019-03-26T09:40:23.000Z</time>
      </trkpt>
      <trkpt lat="42.561621" lon="-0.430672">
        <ele>903.0</ele>
        <time>2019-03-26T09:40:24.000Z</time>
      </trkpt>
      <trkpt lat="42.561635" lon="-0.430676">
        <ele>903.0</ele>
        <time>2019-03-26T09:40:25.000Z</time>
      </trkpt>
      <trkpt lat="42.561645" lon="-0.430679">
        <ele>903.0</ele>
        <time>2019-03-26T09:40:26.000Z</time>
      </trkpt>
      <trkpt lat="42.561649" lon="-0.430681">
        <ele>903.0</ele>
        <time>2019-03-26T09:40:27.000Z</time>
      </trkpt>
      <trkpt lat="42.561651" lon="-0.430682">
        <ele>904.0</ele>
        <time>2019-03-26T09:40:28.000Z</time>
      </trkpt>
      <trkpt lat="42.561653" lon="-0.430678">
        <ele>904.0</ele>
        <time>2019-03-26T09:40:29.000Z</time>
      </trkpt>
      <trkpt lat="42.561659" lon="-0.43067">
        <ele>904.0</ele>
        <time>2019-03-26T09:40:30.000Z</time>
      </trkpt>
      <trkpt lat="42.561666" lon="-0.430656">
        <ele>904.0</ele>
        <time>2019-03-26T09:40:31.000Z</time>
      </trkpt>
      <trkpt lat="42.561675" lon="-0.430638">
        <ele>905.0</ele>
        <time>2019-03-26T09:40:32.000Z</time>
      </trkpt>
      <trkpt lat="42.561684" lon="-0.430618">
        <ele>905.0</ele>
        <time>2019-03-26T09:40:33.000Z</time>
      </trkpt>
      <trkpt lat="42.561692" lon="-0.430595">
        <ele>905.0</ele>
        <time>2019-03-26T09:40:34.000Z</time>
      </trkpt>
      <trkpt lat="42.561698" lon="-0.430571">
        <ele>905.0</ele>
        <time>2019-03-26T09:40:35.000Z</time>
      </trkpt>
      <trkpt lat="42.5617" lon="-0.430547">
        <ele>905.0</ele>
        <time>2019-03-26T09:40:36.000Z</time>
      </trkpt>
      <trkpt lat="42.561699" lon="-0.430523">
        <ele>906.0</ele>
        <time>2019-03-26T09:40:37.000Z</time>
      </trkpt>
      <trkpt lat="42.561696" lon="-0.4305">
        <ele>906.0</ele>
        <time>2019-03-26T09:40:38.000Z</time>
      </trkpt>
      <trkpt lat="42.561693" lon="-0.430477">
        <ele>906.0</ele>
        <time>2019-03-26T09:40:39.000Z</time>
      </trkpt>
      <trkpt lat="42.561691" lon="-0.430453">
        <ele>906.0</ele>
        <time>2019-03-26T09:40:40.000Z</time>
      </trkpt>
      <trkpt lat="42.561693" lon="-0.430429">
        <ele>907.0</ele>
        <time>2019-03-26T09:40:41.000Z</time>
      </trkpt>
      <trkpt lat="42.561697" lon="-0.430405">
        <ele>907.0</ele>
        <time>2019-03-26T09:40:42.000Z</time>
      </trkpt>
      <trkpt lat="42.561702" lon="-0.43038">
        <ele>907.0</ele>
        <time>2019-03-26T09:40:43.000Z</time>
      </trkpt>
      <trkpt lat="42.561705" lon="-0.430356">
        <ele>907.0</ele>
        <time>2019-03-26T09:40:44.000Z</time>
      </trkpt>
      <trkpt lat="42.561707" lon="-0.430331">
        <ele>907.0</ele>
        <time>2019-03-26T09:40:45.000Z</time>
      </trkpt>
      <trkpt lat="42.561709" lon="-0.430306">
        <ele>908.0</ele>
        <time>2019-03-26T09:40:46.000Z</time>
      </trkpt>
      <trkpt lat="42.56171" lon="-0.430282">
        <ele>908.0</ele>
        <time>2019-03-26T09:40:47.000Z</time>
      </trkpt>
      <trkpt lat="42.561711" lon="-0.430257">
        <ele>908.0</ele>
        <time>2019-03-26T09:40:48.000Z</time>
      </trkpt>
      <trkpt lat="42.561714" lon="-0.430233">
        <ele>908.0</ele>
        <time>2019-03-26T09:40:49.000Z</time>
      </trkpt>
      <trkpt lat="42.561717" lon="-0.430208">
        <ele>908.0</ele>
        <time>2019-03-26T09:40:50.000Z</time>
      </trkpt>
      <trkpt lat="42.561722" lon="-0.430184">
        <ele>909.0</ele>
        <time>2019-03-26T09:40:51.000Z</time>
      </trkpt>
      <trkpt lat="42.561728" lon="-0.430159">
        <ele>909.0</ele>
        <time>2019-03-26T09:40:52.000Z</time>
      </trkpt>
      <trkpt lat="42.561735" lon="-0.430135">
        <ele>909.0</ele>
        <time>2019-03-26T09:40:53.000Z</time>
      </trkpt>
      <trkpt lat="42.561743" lon="-0.430111">
        <ele>909.0</ele>
        <time>2019-03-26T09:40:54.000Z</time>
      </trkpt>
      <trkpt lat="42.561752" lon="-0.430087">
        <ele>909.0</ele>
        <time>2019-03-26T09:40:55.000Z</time>
      </trkpt>
      <trkpt lat="42.561761" lon="-0.430064">
        <ele>909.0</ele>
        <time>2019-03-26T09:40:56.000Z</time>
      </trkpt>
      <trkpt lat="42.56177" lon="-0.430042">
        <ele>909.0</ele>
        <time>2019-03-26T09:40:57.000Z</time>
      </trkpt>
      <trkpt lat="42.561779" lon="-0.43002">
        <ele>910.0</ele>
        <time>2019-03-26T09:40:58.000Z</time>
      </trkpt>
      <trkpt lat="42.561787" lon="-0.429999">
        <ele>910.0</ele>
        <time>2019-03-26T09:40:59.000Z</time>
      </trkpt>
      <trkpt lat="42.561795" lon="-0.429979">
        <ele>910.0</ele>
        <time>2019-03-26T09:41:00.000Z</time>
      </trkpt>
      <trkpt lat="42.561803" lon="-0.429959">
        <ele>910.0</ele>
        <time>2019-03-26T09:41:01.000Z</time>
      </trkpt>
      <trkpt lat="42.561812" lon="-0.429939">
        <ele>910.0</ele>
        <time>2019-03-26T09:41:02.000Z</time>
      </trkpt>
      <trkpt lat="42.56182" lon="-0.429918">
        <ele>910.0</ele>
        <time>2019-03-26T09:41:03.000Z</time>
      </trkpt>
      <trkpt lat="42.561828" lon="-0.429898">
        <ele>911.0</ele>
        <time>2019-03-26T09:41:04.000Z</time>
      </trkpt>
      <trkpt lat="42.561837" lon="-0.429877">
        <ele>911.0</ele>
        <time>2019-03-26T09:41:05.000Z</time>
      </trkpt>
      <trkpt lat="42.561845" lon="-0.429857">
        <ele>911.0</ele>
        <time>2019-03-26T09:41:06.000Z</time>
      </trkpt>
      <trkpt lat="42.561854" lon="-0.429836">
        <ele>911.0</ele>
        <time>2019-03-26T09:41:07.000Z</time>
      </trkpt>
      <trkpt lat="42.561862" lon="-0.429814">
        <ele>911.0</ele>
        <time>2019-03-26T09:41:08.000Z</time>
      </trkpt>
      <trkpt lat="42.561871" lon="-0.429793">
        <ele>912.0</ele>
        <time>2019-03-26T09:41:09.000Z</time>
      </trkpt>
      <trkpt lat="42.561879" lon="-0.429771">
        <ele>912.0</ele>
        <time>2019-03-26T09:41:10.000Z</time>
      </trkpt>
      <trkpt lat="42.561888" lon="-0.42975">
        <ele>912.0</ele>
        <time>2019-03-26T09:41:11.000Z</time>
      </trkpt>
      <trkpt lat="42.561897" lon="-0.429728">
        <ele>912.0</ele>
        <time>2019-03-26T09:41:12.000Z</time>
      </trkpt>
      <trkpt lat="42.561905" lon="-0.429706">
        <ele>912.0</ele>
        <time>2019-03-26T09:41:13.000Z</time>
      </trkpt>
      <trkpt lat="42.561913" lon="-0.429684">
        <ele>913.0</ele>
        <time>2019-03-26T09:41:14.000Z</time>
      </trkpt>
      <trkpt lat="42.561922" lon="-0.429661">
        <ele>913.0</ele>
        <time>2019-03-26T09:41:15.000Z</time>
      </trkpt>
      <trkpt lat="42.56193" lon="-0.429639">
        <ele>913.0</ele>
        <time>2019-03-26T09:41:16.000Z</time>
      </trkpt>
      <trkpt lat="42.561938" lon="-0.429617">
        <ele>913.0</ele>
        <time>2019-03-26T09:41:17.000Z</time>
      </trkpt>
      <trkpt lat="42.561945" lon="-0.429594">
        <ele>913.0</ele>
        <time>2019-03-26T09:41:18.000Z</time>
      </trkpt>
      <trkpt lat="42.561953" lon="-0.429572">
        <ele>913.0</ele>
        <time>2019-03-26T09:41:19.000Z</time>
      </trkpt>
      <trkpt lat="42.561961" lon="-0.429549">
        <ele>914.0</ele>
        <time>2019-03-26T09:41:20.000Z</time>
      </trkpt>
      <trkpt lat="42.561968" lon="-0.429527">
        <ele>914.0</ele>
        <time>2019-03-26T09:41:21.000Z</time>
      </trkpt>
      <trkpt lat="42.561976" lon="-0.429505">
        <ele>914.0</ele>
        <time>2019-03-26T09:41:22.000Z</time>
      </trkpt>
      <trkpt lat="42.561983" lon="-0.429483">
        <ele>914.0</ele>
        <time>2019-03-26T09:41:23.000Z</time>
      </trkpt>
      <trkpt lat="42.561991" lon="-0.429461">
        <ele>914.0</ele>
        <time>2019-03-26T09:41:24.000Z</time>
      </trkpt>
      <trkpt lat="42.561999" lon="-0.429439">
        <ele>915.0</ele>
        <time>2019-03-26T09:41:25.000Z</time>
      </trkpt>
      <trkpt lat="42.562007" lon="-0.429418">
        <ele>915.0</ele>
        <time>2019-03-26T09:41:26.000Z</time>
      </trkpt>
      <trkpt lat="42.562015" lon="-0.429397">
        <ele>915.0</ele>
        <time>2019-03-26T09:41:27.000Z</time>
      </trkpt>
      <trkpt lat="42.562024" lon="-0.429376">
        <ele>915.0</ele>
        <time>2019-03-26T09:41:28.000Z</time>
      </trkpt>
      <trkpt lat="42.562033" lon="-0.429356">
        <ele>916.0</ele>
        <time>2019-03-26T09:41:29.000Z</time>
      </trkpt>
      <trkpt lat="42.562042" lon="-0.429336">
        <ele>916.0</ele>
        <time>2019-03-26T09:41:30.000Z</time>
      </trkpt>
      <trkpt lat="42.562052" lon="-0.429317">
        <ele>916.0</ele>
        <time>2019-03-26T09:41:31.000Z</time>
      </trkpt>
      <trkpt lat="42.562063" lon="-0.429298">
        <ele>916.0</ele>
        <time>2019-03-26T09:41:32.000Z</time>
      </trkpt>
      <trkpt lat="42.562073" lon="-0.42928">
        <ele>916.0</ele>
        <time>2019-03-26T09:41:33.000Z</time>
      </trkpt>
      <trkpt lat="42.562085" lon="-0.429263">
        <ele>917.0</ele>
        <time>2019-03-26T09:41:34.000Z</time>
      </trkpt>
      <trkpt lat="42.562096" lon="-0.429246">
        <ele>917.0</ele>
        <time>2019-03-26T09:41:35.000Z</time>
      </trkpt>
      <trkpt lat="42.562108" lon="-0.429229">
        <ele>917.0</ele>
        <time>2019-03-26T09:41:36.000Z</time>
      </trkpt>
      <trkpt lat="42.562121" lon="-0.429213">
        <ele>917.0</ele>
        <time>2019-03-26T09:41:37.000Z</time>
      </trkpt>
      <trkpt lat="42.562133" lon="-0.429197">
        <ele>917.0</ele>
        <time>2019-03-26T09:41:38.000Z</time>
      </trkpt>
      <trkpt lat="42.562146" lon="-0.429182">
        <ele>918.0</ele>
        <time>2019-03-26T09:41:39.000Z</time>
      </trkpt>
      <trkpt lat="42.562159" lon="-0.429167">
        <ele>918.0</ele>
        <time>2019-03-26T09:41:40.000Z</time>
      </trkpt>
      <trkpt lat="42.562172" lon="-0.429152">
        <ele>918.0</ele>
        <time>2019-03-26T09:41:41.000Z</time>
      </trkpt>
      <trkpt lat="42.562185" lon="-0.429137">
        <ele>918.0</ele>
        <time>2019-03-26T09:41:42.000Z</time>
      </trkpt>
      <trkpt lat="42.562198" lon="-0.429123">
        <ele>918.0</ele>
        <time>2019-03-26T09:41:43.000Z</time>
      </trkpt>
      <trkpt lat="42.562211" lon="-0.429109">
        <ele>918.0</ele>
        <time>2019-03-26T09:41:44.000Z</time>
      </trkpt>
      <trkpt lat="42.562224" lon="-0.429096">
        <ele>919.0</ele>
        <time>2019-03-26T09:41:45.000Z</time>
      </trkpt>
      <trkpt lat="42.562237" lon="-0.429082">
        <ele>919.0</ele>
        <time>2019-03-26T09:41:46.000Z</time>
      </trkpt>
      <trkpt lat="42.56225" lon="-0.429069">
        <ele>919.0</ele>
        <time>2019-03-26T09:41:47.000Z</time>
      </trkpt>
      <trkpt lat="42.562263" lon="-0.429056">
        <ele>919.0</ele>
        <time>2019-03-26T09:41:48.000Z</time>
      </trkpt>
      <trkpt lat="42.562276" lon="-0.429043">
        <ele>919.0</ele>
        <time>2019-03-26T09:41:49.000Z</time>
      </trkpt>
      <trkpt lat="42.562289" lon="-0.42903">
        <ele>920.0</ele>
        <time>2019-03-26T09:41:50.000Z</time>
      </trkpt>
      <trkpt lat="42.562302" lon="-0.429018">
        <ele>920.0</ele>
        <time>2019-03-26T09:41:51.000Z</time>
      </trkpt>
      <trkpt lat="42.562316" lon="-0.429006">
        <ele>920.0</ele>
        <time>2019-03-26T09:41:52.000Z</time>
      </trkpt>
      <trkpt lat="42.56233" lon="-0.428994">
        <ele>920.0</ele>
        <time>2019-03-26T09:41:53.000Z</time>
      </trkpt>
      <trkpt lat="42.562344" lon="-0.428988">
        <ele>921.0</ele>
        <time>2019-03-26T09:41:54.000Z</time>
      </trkpt>
      <trkpt lat="42.562358" lon="-0.428992">
        <ele>921.0</ele>
        <time>2019-03-26T09:41:55.000Z</time>
      </trkpt>
      <trkpt lat="42.562372" lon="-0.429009">
        <ele>921.0</ele>
        <time>2019-03-26T09:41:56.000Z</time>
      </trkpt>
      <trkpt lat="42.562384" lon="-0.429035">
        <ele>921.0</ele>
        <time>2019-03-26T09:41:57.000Z</time>
      </trkpt>
      <trkpt lat="42.562392" lon="-0.429065">
        <ele>922.0</ele>
        <time>2019-03-26T09:41:58.000Z</time>
      </trkpt>
      <trkpt lat="42.562395" lon="-0.429094">
        <ele>922.0</ele>
        <time>2019-03-26T09:41:59.000Z</time>
      </trkpt>
      <trkpt lat="42.562394" lon="-0.429121">
        <ele>922.0</ele>
        <time>2019-03-26T09:42:00.000Z</time>
      </trkpt>
      <trkpt lat="42.562389" lon="-0.429147">
        <ele>922.0</ele>
        <time>2019-03-26T09:42:01.000Z</time>
      </trkpt>
      <trkpt lat="42.562383" lon="-0.429171">
        <ele>922.0</ele>
        <time>2019-03-26T09:42:02.000Z</time>
      </trkpt>
      <trkpt lat="42.562376" lon="-0.429195">
        <ele>922.0</ele>
        <time>2019-03-26T09:42:03.000Z</time>
      </trkpt>
      <trkpt lat="42.562369" lon="-0.429218">
        <ele>922.0</ele>
        <time>2019-03-26T09:42:04.000Z</time>
      </trkpt>
      <trkpt lat="42.562365" lon="-0.42924">
        <ele>923.0</ele>
        <time>2019-03-26T09:42:05.000Z</time>
      </trkpt>
      <trkpt lat="42.562363" lon="-0.429262">
        <ele>923.0</ele>
        <time>2019-03-26T09:42:06.000Z</time>
      </trkpt>
      <trkpt lat="42.562363" lon="-0.429285">
        <ele>923.0</ele>
        <time>2019-03-26T09:42:07.000Z</time>
      </trkpt>
      <trkpt lat="42.562366" lon="-0.429306">
        <ele>923.0</ele>
        <time>2019-03-26T09:42:08.000Z</time>
      </trkpt>
      <trkpt lat="42.56237" lon="-0.429328">
        <ele>924.0</ele>
        <time>2019-03-26T09:42:09.000Z</time>
      </trkpt>
      <trkpt lat="42.562376" lon="-0.429349">
        <ele>924.0</ele>
        <time>2019-03-26T09:42:10.000Z</time>
      </trkpt>
      <trkpt lat="42.562383" lon="-0.42937">
        <ele>924.0</ele>
        <time>2019-03-26T09:42:11.000Z</time>
      </trkpt>
      <trkpt lat="42.56239" lon="-0.429391">
        <ele>924.0</ele>
        <time>2019-03-26T09:42:12.000Z</time>
      </trkpt>
      <trkpt lat="42.562398" lon="-0.429411">
        <ele>924.0</ele>
        <time>2019-03-26T09:42:13.000Z</time>
      </trkpt>
      <trkpt lat="42.562405" lon="-0.429431">
        <ele>925.0</ele>
        <time>2019-03-26T09:42:14.000Z</time>
      </trkpt>
      <trkpt lat="42.562412" lon="-0.42945">
        <ele>925.0</ele>
        <time>2019-03-26T09:42:15.000Z</time>
      </trkpt>
      <trkpt lat="42.562419" lon="-0.42947">
        <ele>925.0</ele>
        <time>2019-03-26T09:42:16.000Z</time>
      </trkpt>
      <trkpt lat="42.562425" lon="-0.42949">
        <ele>925.0</ele>
        <time>2019-03-26T09:42:17.000Z</time>
      </trkpt>
      <trkpt lat="42.56243" lon="-0.429509">
        <ele>926.0</ele>
        <time>2019-03-26T09:42:18.000Z</time>
      </trkpt>
      <trkpt lat="42.562434" lon="-0.42953">
        <ele>926.0</ele>
        <time>2019-03-26T09:42:19.000Z</time>
      </trkpt>
      <trkpt lat="42.562437" lon="-0.42955">
        <ele>926.0</ele>
        <time>2019-03-26T09:42:20.000Z</time>
      </trkpt>
      <trkpt lat="42.56244" lon="-0.429571">
        <ele>927.0</ele>
        <time>2019-03-26T09:42:21.000Z</time>
      </trkpt>
      <trkpt lat="42.562443" lon="-0.429591">
        <ele>927.0</ele>
        <time>2019-03-26T09:42:22.000Z</time>
      </trkpt>
      <trkpt lat="42.562448" lon="-0.429611">
        <ele>927.0</ele>
        <time>2019-03-26T09:42:23.000Z</time>
      </trkpt>
      <trkpt lat="42.562454" lon="-0.42963">
        <ele>927.0</ele>
        <time>2019-03-26T09:42:24.000Z</time>
      </trkpt>
      <trkpt lat="42.56246" lon="-0.429649">
        <ele>927.0</ele>
        <time>2019-03-26T09:42:25.000Z</time>
      </trkpt>
      <trkpt lat="42.562466" lon="-0.429667">
        <ele>928.0</ele>
        <time>2019-03-26T09:42:26.000Z</time>
      </trkpt>
      <trkpt lat="42.56247" lon="-0.429686">
        <ele>928.0</ele>
        <time>2019-03-26T09:42:27.000Z</time>
      </trkpt>
      <trkpt lat="42.562472" lon="-0.429705">
        <ele>928.0</ele>
        <time>2019-03-26T09:42:28.000Z</time>
      </trkpt>
      <trkpt lat="42.562472" lon="-0.429725">
        <ele>928.0</ele>
        <time>2019-03-26T09:42:29.000Z</time>
      </trkpt>
      <trkpt lat="42.562471" lon="-0.429745">
        <ele>929.0</ele>
        <time>2019-03-26T09:42:30.000Z</time>
      </trkpt>
      <trkpt lat="42.562468" lon="-0.429766">
        <ele>929.0</ele>
        <time>2019-03-26T09:42:31.000Z</time>
      </trkpt>
      <trkpt lat="42.562464" lon="-0.429788">
        <ele>929.0</ele>
        <time>2019-03-26T09:42:32.000Z</time>
      </trkpt>
      <trkpt lat="42.56246" lon="-0.429811">
        <ele>930.0</ele>
        <time>2019-03-26T09:42:33.000Z</time>
      </trkpt>
      <trkpt lat="42.562456" lon="-0.429835">
        <ele>930.0</ele>
        <time>2019-03-26T09:42:34.000Z</time>
      </trkpt>
      <trkpt lat="42.562452" lon="-0.429859">
        <ele>930.0</ele>
        <time>2019-03-26T09:42:35.000Z</time>
      </trkpt>
      <trkpt lat="42.562448" lon="-0.429884">
        <ele>930.0</ele>
        <time>2019-03-26T09:42:36.000Z</time>
      </trkpt>
      <trkpt lat="42.562446" lon="-0.429908">
        <ele>930.0</ele>
        <time>2019-03-26T09:42:37.000Z</time>
      </trkpt>
      <trkpt lat="42.562444" lon="-0.429931">
        <ele>930.0</ele>
        <time>2019-03-26T09:42:38.000Z</time>
      </trkpt>
      <trkpt lat="42.562445" lon="-0.429953">
        <ele>931.0</ele>
        <time>2019-03-26T09:42:39.000Z</time>
      </trkpt>
      <trkpt lat="42.562448" lon="-0.429973">
        <ele>931.0</ele>
        <time>2019-03-26T09:42:40.000Z</time>
      </trkpt>
      <trkpt lat="42.562454" lon="-0.429991">
        <ele>931.0</ele>
        <time>2019-03-26T09:42:41.000Z</time>
      </trkpt>
      <trkpt lat="42.562462" lon="-0.430008">
        <ele>931.0</ele>
        <time>2019-03-26T09:42:42.000Z</time>
      </trkpt>
      <trkpt lat="42.562472" lon="-0.430022">
        <ele>931.0</ele>
        <time>2019-03-26T09:42:43.000Z</time>
      </trkpt>
      <trkpt lat="42.562483" lon="-0.430036">
        <ele>932.0</ele>
        <time>2019-03-26T09:42:44.000Z</time>
      </trkpt>
      <trkpt lat="42.562496" lon="-0.430048">
        <ele>932.0</ele>
        <time>2019-03-26T09:42:45.000Z</time>
      </trkpt>
      <trkpt lat="42.562508" lon="-0.430061">
        <ele>932.0</ele>
        <time>2019-03-26T09:42:46.000Z</time>
      </trkpt>
      <trkpt lat="42.562521" lon="-0.430073">
        <ele>932.0</ele>
        <time>2019-03-26T09:42:47.000Z</time>
      </trkpt>
      <trkpt lat="42.562534" lon="-0.430085">
        <ele>932.0</ele>
        <time>2019-03-26T09:42:48.000Z</time>
      </trkpt>
      <trkpt lat="42.562546" lon="-0.430098">
        <ele>932.0</ele>
        <time>2019-03-26T09:42:49.000Z</time>
      </trkpt>
      <trkpt lat="42.562558" lon="-0.430112">
        <ele>933.0</ele>
        <time>2019-03-26T09:42:50.000Z</time>
      </trkpt>
      <trkpt lat="42.562569" lon="-0.430126">
        <ele>933.0</ele>
        <time>2019-03-26T09:42:51.000Z</time>
      </trkpt>
      <trkpt lat="42.562579" lon="-0.430141">
        <ele>933.0</ele>
        <time>2019-03-26T09:42:52.000Z</time>
      </trkpt>
      <trkpt lat="42.562589" lon="-0.430158">
        <ele>933.0</ele>
        <time>2019-03-26T09:42:53.000Z</time>
      </trkpt>
      <trkpt lat="42.562597" lon="-0.430176">
        <ele>933.0</ele>
        <time>2019-03-26T09:42:54.000Z</time>
      </trkpt>
      <trkpt lat="42.562605" lon="-0.430194">
        <ele>933.0</ele>
        <time>2019-03-26T09:42:55.000Z</time>
      </trkpt>
      <trkpt lat="42.562611" lon="-0.430212">
        <ele>934.0</ele>
        <time>2019-03-26T09:42:56.000Z</time>
      </trkpt>
      <trkpt lat="42.562617" lon="-0.430229">
        <ele>934.0</ele>
        <time>2019-03-26T09:42:57.000Z</time>
      </trkpt>
      <trkpt lat="42.562622" lon="-0.430244">
        <ele>934.0</ele>
        <time>2019-03-26T09:42:58.000Z</time>
      </trkpt>
      <trkpt lat="42.562625" lon="-0.430257">
        <ele>934.0</ele>
        <time>2019-03-26T09:42:59.000Z</time>
      </trkpt>
      <trkpt lat="42.562628" lon="-0.430266">
        <ele>934.0</ele>
        <time>2019-03-26T09:43:00.000Z</time>
      </trkpt>
      <trkpt lat="42.56263" lon="-0.430271">
        <ele>934.0</ele>
        <time>2019-03-26T09:45:51.000Z</time>
      </trkpt>
      <trkpt lat="42.562631" lon="-0.430274">
        <ele>934.0</ele>
        <time>2019-03-26T09:45:52.000Z</time>
      </trkpt>
      <trkpt lat="42.562632" lon="-0.430274">
        <ele>934.0</ele>
        <time>2019-03-26T09:45:53.000Z</time>
      </trkpt>
      <trkpt lat="42.562633" lon="-0.430274">
        <ele>934.0</ele>
        <time>2019-03-26T09:45:54.000Z</time>
      </trkpt>
      <trkpt lat="42.562634" lon="-0.430274">
        <ele>934.0</ele>
        <time>2019-03-26T09:45:55.000Z</time>
      </trkpt>
      <trkpt lat="42.562636" lon="-0.430277">
        <ele>934.0</ele>
        <time>2019-03-26T09:45:56.000Z</time>
      </trkpt>
      <trkpt lat="42.562638" lon="-0.430282">
        <ele>935.0</ele>
        <time>2019-03-26T09:45:57.000Z</time>
      </trkpt>
      <trkpt lat="42.562644" lon="-0.430288">
        <ele>935.0</ele>
        <time>2019-03-26T09:45:58.000Z</time>
      </trkpt>
      <trkpt lat="42.56266" lon="-0.430283">
        <ele>935.0</ele>
        <time>2019-03-26T09:45:59.000Z</time>
      </trkpt>
      <trkpt lat="42.562678" lon="-0.430287">
        <ele>935.0</ele>
        <time>2019-03-26T09:46:00.000Z</time>
      </trkpt>
      <trkpt lat="42.562694" lon="-0.4303">
        <ele>936.0</ele>
        <time>2019-03-26T09:46:01.000Z</time>
      </trkpt>
      <trkpt lat="42.562705" lon="-0.430319">
        <ele>936.0</ele>
        <time>2019-03-26T09:46:02.000Z</time>
      </trkpt>
      <trkpt lat="42.562713" lon="-0.43034">
        <ele>936.0</ele>
        <time>2019-03-26T09:46:03.000Z</time>
      </trkpt>
      <trkpt lat="42.56272" lon="-0.430363">
        <ele>936.0</ele>
        <time>2019-03-26T09:46:04.000Z</time>
      </trkpt>
      <trkpt lat="42.562726" lon="-0.430386">
        <ele>937.0</ele>
        <time>2019-03-26T09:46:05.000Z</time>
      </trkpt>
      <trkpt lat="42.562733" lon="-0.430409">
        <ele>937.0</ele>
        <time>2019-03-26T09:46:06.000Z</time>
      </trkpt>
      <trkpt lat="42.562741" lon="-0.430432">
        <ele>937.0</ele>
        <time>2019-03-26T09:46:07.000Z</time>
      </trkpt>
      <trkpt lat="42.562748" lon="-0.430455">
        <ele>937.0</ele>
        <time>2019-03-26T09:46:08.000Z</time>
      </trkpt>
      <trkpt lat="42.562755" lon="-0.430479">
        <ele>938.0</ele>
        <time>2019-03-26T09:46:09.000Z</time>
      </trkpt>
      <trkpt lat="42.562763" lon="-0.430502">
        <ele>938.0</ele>
        <time>2019-03-26T09:46:10.000Z</time>
      </trkpt>
      <trkpt lat="42.56277" lon="-0.430525">
        <ele>938.0</ele>
        <time>2019-03-26T09:46:11.000Z</time>
      </trkpt>
      <trkpt lat="42.562777" lon="-0.430547">
        <ele>938.0</ele>
        <time>2019-03-26T09:46:12.000Z</time>
      </trkpt>
      <trkpt lat="42.562784" lon="-0.43057">
        <ele>938.0</ele>
        <time>2019-03-26T09:46:13.000Z</time>
      </trkpt>
      <trkpt lat="42.562791" lon="-0.430592">
        <ele>939.0</ele>
        <time>2019-03-26T09:46:14.000Z</time>
      </trkpt>
      <trkpt lat="42.562797" lon="-0.430614">
        <ele>939.0</ele>
        <time>2019-03-26T09:46:15.000Z</time>
      </trkpt>
      <trkpt lat="42.562804" lon="-0.430635">
        <ele>939.0</ele>
        <time>2019-03-26T09:46:16.000Z</time>
      </trkpt>
      <trkpt lat="42.562811" lon="-0.430656">
        <ele>939.0</ele>
        <time>2019-03-26T09:46:17.000Z</time>
      </trkpt>
      <trkpt lat="42.562818" lon="-0.430677">
        <ele>940.0</ele>
        <time>2019-03-26T09:46:18.000Z</time>
      </trkpt>
      <trkpt lat="42.562825" lon="-0.430696">
        <ele>940.0</ele>
        <time>2019-03-26T09:46:19.000Z</time>
      </trkpt>
      <trkpt lat="42.562832" lon="-0.430714">
        <ele>940.0</ele>
        <time>2019-03-26T09:46:20.000Z</time>
      </trkpt>
      <trkpt lat="42.562838" lon="-0.430728">
        <ele>940.0</ele>
        <time>2019-03-26T09:46:21.000Z</time>
      </trkpt>
      <trkpt lat="42.562841" lon="-0.430738">
        <ele>940.0</ele>
        <time>2019-03-26T09:46:22.000Z</time>
      </trkpt>
      <trkpt lat="42.562843" lon="-0.430741">
        <ele>940.0</ele>
        <time>2019-03-26T09:46:23.000Z</time>
      </trkpt>
      <trkpt lat="42.562843" lon="-0.430741">
        <ele>940.0</ele>
        <time>2019-03-26T09:46:24.000Z</time>
      </trkpt>
      <trkpt lat="42.562842" lon="-0.430741">
        <ele>940.0</ele>
        <time>2019-03-26T09:46:25.000Z</time>
      </trkpt>
      <trkpt lat="42.562842" lon="-0.430743">
        <ele>940.0</ele>
        <time>2019-03-26T09:46:26.000Z</time>
      </trkpt>
      <trkpt lat="42.562843" lon="-0.430748">
        <ele>940.0</ele>
        <time>2019-03-26T09:46:27.000Z</time>
      </trkpt>
      <trkpt lat="42.562846" lon="-0.430756">
        <ele>940.0</ele>
        <time>2019-03-26T09:46:28.000Z</time>
      </trkpt>
      <trkpt lat="42.562853" lon="-0.430766">
        <ele>940.0</ele>
        <time>2019-03-26T09:46:29.000Z</time>
      </trkpt>
      <trkpt lat="42.562864" lon="-0.43078">
        <ele>940.0</ele>
        <time>2019-03-26T09:46:30.000Z</time>
      </trkpt>
      <trkpt lat="42.562879" lon="-0.430794">
        <ele>940.0</ele>
        <time>2019-03-26T09:46:31.000Z</time>
      </trkpt>
      <trkpt lat="42.562895" lon="-0.430808">
        <ele>940.0</ele>
        <time>2019-03-26T09:46:32.000Z</time>
      </trkpt>
      <trkpt lat="42.562912" lon="-0.430821">
        <ele>941.0</ele>
        <time>2019-03-26T09:46:33.000Z</time>
      </trkpt>
      <trkpt lat="42.562929" lon="-0.430832">
        <ele>941.0</ele>
        <time>2019-03-26T09:46:34.000Z</time>
      </trkpt>
      <trkpt lat="42.562946" lon="-0.430842">
        <ele>941.0</ele>
        <time>2019-03-26T09:46:35.000Z</time>
      </trkpt>
      <trkpt lat="42.562963" lon="-0.430852">
        <ele>941.0</ele>
        <time>2019-03-26T09:46:36.000Z</time>
      </trkpt>
      <trkpt lat="42.562979" lon="-0.430862">
        <ele>941.0</ele>
        <time>2019-03-26T09:46:37.000Z</time>
      </trkpt>
      <trkpt lat="42.562995" lon="-0.430874">
        <ele>941.0</ele>
        <time>2019-03-26T09:46:38.000Z</time>
      </trkpt>
      <trkpt lat="42.56301" lon="-0.430887">
        <ele>941.0</ele>
        <time>2019-03-26T09:46:39.000Z</time>
      </trkpt>
      <trkpt lat="42.563024" lon="-0.430902">
        <ele>941.0</ele>
        <time>2019-03-26T09:46:40.000Z</time>
      </trkpt>
      <trkpt lat="42.563037" lon="-0.430919">
        <ele>941.0</ele>
        <time>2019-03-26T09:46:41.000Z</time>
      </trkpt>
      <trkpt lat="42.56305" lon="-0.430937">
        <ele>941.0</ele>
        <time>2019-03-26T09:46:42.000Z</time>
      </trkpt>
      <trkpt lat="42.563062" lon="-0.430956">
        <ele>942.0</ele>
        <time>2019-03-26T09:46:43.000Z</time>
      </trkpt>
      <trkpt lat="42.563073" lon="-0.430975">
        <ele>942.0</ele>
        <time>2019-03-26T09:46:44.000Z</time>
      </trkpt>
      <trkpt lat="42.563084" lon="-0.430996">
        <ele>942.0</ele>
        <time>2019-03-26T09:46:45.000Z</time>
      </trkpt>
      <trkpt lat="42.563094" lon="-0.431017">
        <ele>942.0</ele>
        <time>2019-03-26T09:46:46.000Z</time>
      </trkpt>
      <trkpt lat="42.563104" lon="-0.431039">
        <ele>942.0</ele>
        <time>2019-03-26T09:46:47.000Z</time>
      </trkpt>
      <trkpt lat="42.563114" lon="-0.431061">
        <ele>942.0</ele>
        <time>2019-03-26T09:46:48.000Z</time>
      </trkpt>
      <trkpt lat="42.563123" lon="-0.431083">
        <ele>942.0</ele>
        <time>2019-03-26T09:46:49.000Z</time>
      </trkpt>
      <trkpt lat="42.563132" lon="-0.431105">
        <ele>942.0</ele>
        <time>2019-03-26T09:46:50.000Z</time>
      </trkpt>
      <trkpt lat="42.563141" lon="-0.431126">
        <ele>942.0</ele>
        <time>2019-03-26T09:46:51.000Z</time>
      </trkpt>
      <trkpt lat="42.563149" lon="-0.431147">
        <ele>943.0</ele>
        <time>2019-03-26T09:46:52.000Z</time>
      </trkpt>
      <trkpt lat="42.563157" lon="-0.431168">
        <ele>943.0</ele>
        <time>2019-03-26T09:46:53.000Z</time>
      </trkpt>
      <trkpt lat="42.563166" lon="-0.431188">
        <ele>943.0</ele>
        <time>2019-03-26T09:46:54.000Z</time>
      </trkpt>
      <trkpt lat="42.563174" lon="-0.431207">
        <ele>943.0</ele>
        <time>2019-03-26T09:46:55.000Z</time>
      </trkpt>
      <trkpt lat="42.563182" lon="-0.431226">
        <ele>943.0</ele>
        <time>2019-03-26T09:46:56.000Z</time>
      </trkpt>
      <trkpt lat="42.563189" lon="-0.431245">
        <ele>943.0</ele>
        <time>2019-03-26T09:46:57.000Z</time>
      </trkpt>
      <trkpt lat="42.563196" lon="-0.431265">
        <ele>944.0</ele>
        <time>2019-03-26T09:46:58.000Z</time>
      </trkpt>
      <trkpt lat="42.563203" lon="-0.431284">
        <ele>944.0</ele>
        <time>2019-03-26T09:46:59.000Z</time>
      </trkpt>
      <trkpt lat="42.56321" lon="-0.431303">
        <ele>944.0</ele>
        <time>2019-03-26T09:47:00.000Z</time>
      </trkpt>
      <trkpt lat="42.563217" lon="-0.431323">
        <ele>944.0</ele>
        <time>2019-03-26T09:47:01.000Z</time>
      </trkpt>
      <trkpt lat="42.563224" lon="-0.431343">
        <ele>944.0</ele>
        <time>2019-03-26T09:47:02.000Z</time>
      </trkpt>
      <trkpt lat="42.56323" lon="-0.431362">
        <ele>945.0</ele>
        <time>2019-03-26T09:47:03.000Z</time>
      </trkpt>
      <trkpt lat="42.563237" lon="-0.431382">
        <ele>945.0</ele>
        <time>2019-03-26T09:47:04.000Z</time>
      </trkpt>
      <trkpt lat="42.563245" lon="-0.4314">
        <ele>945.0</ele>
        <time>2019-03-26T09:47:05.000Z</time>
      </trkpt>
      <trkpt lat="42.563252" lon="-0.431419">
        <ele>945.0</ele>
        <time>2019-03-26T09:47:06.000Z</time>
      </trkpt>
      <trkpt lat="42.563261" lon="-0.431436">
        <ele>945.0</ele>
        <time>2019-03-26T09:47:07.000Z</time>
      </trkpt>
      <trkpt lat="42.56327" lon="-0.431453">
        <ele>946.0</ele>
        <time>2019-03-26T09:47:08.000Z</time>
      </trkpt>
      <trkpt lat="42.56328" lon="-0.431469">
        <ele>946.0</ele>
        <time>2019-03-26T09:47:09.000Z</time>
      </trkpt>
      <trkpt lat="42.56329" lon="-0.431485">
        <ele>946.0</ele>
        <time>2019-03-26T09:47:10.000Z</time>
      </trkpt>
      <trkpt lat="42.563301" lon="-0.4315">
        <ele>946.0</ele>
        <time>2019-03-26T09:47:11.000Z</time>
      </trkpt>
      <trkpt lat="42.563312" lon="-0.431515">
        <ele>946.0</ele>
        <time>2019-03-26T09:47:12.000Z</time>
      </trkpt>
      <trkpt lat="42.563323" lon="-0.43153">
        <ele>947.0</ele>
        <time>2019-03-26T09:47:13.000Z</time>
      </trkpt>
      <trkpt lat="42.563335" lon="-0.431545">
        <ele>947.0</ele>
        <time>2019-03-26T09:47:14.000Z</time>
      </trkpt>
      <trkpt lat="42.563347" lon="-0.431559">
        <ele>947.0</ele>
        <time>2019-03-26T09:47:15.000Z</time>
      </trkpt>
      <trkpt lat="42.563359" lon="-0.431573">
        <ele>947.0</ele>
        <time>2019-03-26T09:47:16.000Z</time>
      </trkpt>
      <trkpt lat="42.563372" lon="-0.431588">
        <ele>947.0</ele>
        <time>2019-03-26T09:47:17.000Z</time>
      </trkpt>
      <trkpt lat="42.563385" lon="-0.431602">
        <ele>948.0</ele>
        <time>2019-03-26T09:47:18.000Z</time>
      </trkpt>
      <trkpt lat="42.563397" lon="-0.431617">
        <ele>948.0</ele>
        <time>2019-03-26T09:47:19.000Z</time>
      </trkpt>
      <trkpt lat="42.56341" lon="-0.431632">
        <ele>948.0</ele>
        <time>2019-03-26T09:47:20.000Z</time>
      </trkpt>
      <trkpt lat="42.563422" lon="-0.431647">
        <ele>948.0</ele>
        <time>2019-03-26T09:47:21.000Z</time>
      </trkpt>
      <trkpt lat="42.563435" lon="-0.431662">
        <ele>948.0</ele>
        <time>2019-03-26T09:47:22.000Z</time>
      </trkpt>
      <trkpt lat="42.563448" lon="-0.431678">
        <ele>948.0</ele>
        <time>2019-03-26T09:47:23.000Z</time>
      </trkpt>
      <trkpt lat="42.56346" lon="-0.431694">
        <ele>948.0</ele>
        <time>2019-03-26T09:47:24.000Z</time>
      </trkpt>
      <trkpt lat="42.563473" lon="-0.431709">
        <ele>949.0</ele>
        <time>2019-03-26T09:47:25.000Z</time>
      </trkpt>
      <trkpt lat="42.563486" lon="-0.431725">
        <ele>949.0</ele>
        <time>2019-03-26T09:47:26.000Z</time>
      </trkpt>
      <trkpt lat="42.563499" lon="-0.43174">
        <ele>949.0</ele>
        <time>2019-03-26T09:47:27.000Z</time>
      </trkpt>
      <trkpt lat="42.563512" lon="-0.431755">
        <ele>949.0</ele>
        <time>2019-03-26T09:47:28.000Z</time>
      </trkpt>
      <trkpt lat="42.563525" lon="-0.43177">
        <ele>950.0</ele>
        <time>2019-03-26T09:47:29.000Z</time>
      </trkpt>
      <trkpt lat="42.563538" lon="-0.431784">
        <ele>950.0</ele>
        <time>2019-03-26T09:47:30.000Z</time>
      </trkpt>
      <trkpt lat="42.563551" lon="-0.431798">
        <ele>950.0</ele>
        <time>2019-03-26T09:47:31.000Z</time>
      </trkpt>
      <trkpt lat="42.563565" lon="-0.431811">
        <ele>950.0</ele>
        <time>2019-03-26T09:47:32.000Z</time>
      </trkpt>
      <trkpt lat="42.563579" lon="-0.431823">
        <ele>950.0</ele>
        <time>2019-03-26T09:47:33.000Z</time>
      </trkpt>
      <trkpt lat="42.563593" lon="-0.431835">
        <ele>951.0</ele>
        <time>2019-03-26T09:47:34.000Z</time>
      </trkpt>
      <trkpt lat="42.563607" lon="-0.431845">
        <ele>951.0</ele>
        <time>2019-03-26T09:47:35.000Z</time>
      </trkpt>
      <trkpt lat="42.563621" lon="-0.431855">
        <ele>951.0</ele>
        <time>2019-03-26T09:47:36.000Z</time>
      </trkpt>
      <trkpt lat="42.563635" lon="-0.431865">
        <ele>951.0</ele>
        <time>2019-03-26T09:47:37.000Z</time>
      </trkpt>
      <trkpt lat="42.56365" lon="-0.431873">
        <ele>951.0</ele>
        <time>2019-03-26T09:47:38.000Z</time>
      </trkpt>
      <trkpt lat="42.563664" lon="-0.431881">
        <ele>952.0</ele>
        <time>2019-03-26T09:47:39.000Z</time>
      </trkpt>
      <trkpt lat="42.563679" lon="-0.431889">
        <ele>952.0</ele>
        <time>2019-03-26T09:47:40.000Z</time>
      </trkpt>
      <trkpt lat="42.563693" lon="-0.431896">
        <ele>952.0</ele>
        <time>2019-03-26T09:47:41.000Z</time>
      </trkpt>
      <trkpt lat="42.563708" lon="-0.431903">
        <ele>952.0</ele>
        <time>2019-03-26T09:47:42.000Z</time>
      </trkpt>
      <trkpt lat="42.563722" lon="-0.431909">
        <ele>953.0</ele>
        <time>2019-03-26T09:47:43.000Z</time>
      </trkpt>
      <trkpt lat="42.563736" lon="-0.431916">
        <ele>953.0</ele>
        <time>2019-03-26T09:47:44.000Z</time>
      </trkpt>
      <trkpt lat="42.56375" lon="-0.431922">
        <ele>953.0</ele>
        <time>2019-03-26T09:47:45.000Z</time>
      </trkpt>
      <trkpt lat="42.563764" lon="-0.431928">
        <ele>953.0</ele>
        <time>2019-03-26T09:47:46.000Z</time>
      </trkpt>
      <trkpt lat="42.563778" lon="-0.431933">
        <ele>953.0</ele>
        <time>2019-03-26T09:47:47.000Z</time>
      </trkpt>
      <trkpt lat="42.563792" lon="-0.431939">
        <ele>953.0</ele>
        <time>2019-03-26T09:47:48.000Z</time>
      </trkpt>
      <trkpt lat="42.563805" lon="-0.431945">
        <ele>954.0</ele>
        <time>2019-03-26T09:47:49.000Z</time>
      </trkpt>
      <trkpt lat="42.563818" lon="-0.43195">
        <ele>954.0</ele>
        <time>2019-03-26T09:47:50.000Z</time>
      </trkpt>
      <trkpt lat="42.563831" lon="-0.431956">
        <ele>954.0</ele>
        <time>2019-03-26T09:47:51.000Z</time>
      </trkpt>
      <trkpt lat="42.563845" lon="-0.431961">
        <ele>954.0</ele>
        <time>2019-03-26T09:47:52.000Z</time>
      </trkpt>
      <trkpt lat="42.563858" lon="-0.431966">
        <ele>955.0</ele>
        <time>2019-03-26T09:47:53.000Z</time>
      </trkpt>
      <trkpt lat="42.563872" lon="-0.431971">
        <ele>955.0</ele>
        <time>2019-03-26T09:47:54.000Z</time>
      </trkpt>
      <trkpt lat="42.563887" lon="-0.431976">
        <ele>955.0</ele>
        <time>2019-03-26T09:47:55.000Z</time>
      </trkpt>
      <trkpt lat="42.563901" lon="-0.431981">
        <ele>955.0</ele>
        <time>2019-03-26T09:47:56.000Z</time>
      </trkpt>
      <trkpt lat="42.563916" lon="-0.431985">
        <ele>955.0</ele>
        <time>2019-03-26T09:47:57.000Z</time>
      </trkpt>
      <trkpt lat="42.563931" lon="-0.431989">
        <ele>955.0</ele>
        <time>2019-03-26T09:47:58.000Z</time>
      </trkpt>
      <trkpt lat="42.563946" lon="-0.431993">
        <ele>956.0</ele>
        <time>2019-03-26T09:47:59.000Z</time>
      </trkpt>
      <trkpt lat="42.563961" lon="-0.431997">
        <ele>956.0</ele>
        <time>2019-03-26T09:48:00.000Z</time>
      </trkpt>
      <trkpt lat="42.563975" lon="-0.432001">
        <ele>956.0</ele>
        <time>2019-03-26T09:48:01.000Z</time>
      </trkpt>
      <trkpt lat="42.56399" lon="-0.432005">
        <ele>956.0</ele>
        <time>2019-03-26T09:48:02.000Z</time>
      </trkpt>
      <trkpt lat="42.564005" lon="-0.432008">
        <ele>956.0</ele>
        <time>2019-03-26T09:48:03.000Z</time>
      </trkpt>
      <trkpt lat="42.564019" lon="-0.432011">
        <ele>957.0</ele>
        <time>2019-03-26T09:48:04.000Z</time>
      </trkpt>
      <trkpt lat="42.564033" lon="-0.432015">
        <ele>957.0</ele>
        <time>2019-03-26T09:48:05.000Z</time>
      </trkpt>
      <trkpt lat="42.564047" lon="-0.432018">
        <ele>957.0</ele>
        <time>2019-03-26T09:48:06.000Z</time>
      </trkpt>
      <trkpt lat="42.564061" lon="-0.432021">
        <ele>957.0</ele>
        <time>2019-03-26T09:48:07.000Z</time>
      </trkpt>
      <trkpt lat="42.564075" lon="-0.432024">
        <ele>957.0</ele>
        <time>2019-03-26T09:48:08.000Z</time>
      </trkpt>
      <trkpt lat="42.564089" lon="-0.432028">
        <ele>957.0</ele>
        <time>2019-03-26T09:48:09.000Z</time>
      </trkpt>
      <trkpt lat="42.564103" lon="-0.432031">
        <ele>958.0</ele>
        <time>2019-03-26T09:48:10.000Z</time>
      </trkpt>
      <trkpt lat="42.564118" lon="-0.432034">
        <ele>958.0</ele>
        <time>2019-03-26T09:48:11.000Z</time>
      </trkpt>
      <trkpt lat="42.564132" lon="-0.432038">
        <ele>958.0</ele>
        <time>2019-03-26T09:48:12.000Z</time>
      </trkpt>
      <trkpt lat="42.564146" lon="-0.432042">
        <ele>958.0</ele>
        <time>2019-03-26T09:48:13.000Z</time>
      </trkpt>
      <trkpt lat="42.56416" lon="-0.432046">
        <ele>958.0</ele>
        <time>2019-03-26T09:48:14.000Z</time>
      </trkpt>
      <trkpt lat="42.564175" lon="-0.432051">
        <ele>959.0</ele>
        <time>2019-03-26T09:48:15.000Z</time>
      </trkpt>
      <trkpt lat="42.56419" lon="-0.432055">
        <ele>959.0</ele>
        <time>2019-03-26T09:48:16.000Z</time>
      </trkpt>
      <trkpt lat="42.564205" lon="-0.43206">
        <ele>959.0</ele>
        <time>2019-03-26T09:48:17.000Z</time>
      </trkpt>
      <trkpt lat="42.56422" lon="-0.432065">
        <ele>959.0</ele>
        <time>2019-03-26T09:48:18.000Z</time>
      </trkpt>
      <trkpt lat="42.564235" lon="-0.432071">
        <ele>959.0</ele>
        <time>2019-03-26T09:48:19.000Z</time>
      </trkpt>
      <trkpt lat="42.56425" lon="-0.432076">
        <ele>960.0</ele>
        <time>2019-03-26T09:48:20.000Z</time>
      </trkpt>
      <trkpt lat="42.564265" lon="-0.432082">
        <ele>960.0</ele>
        <time>2019-03-26T09:48:21.000Z</time>
      </trkpt>
      <trkpt lat="42.564281" lon="-0.432087">
        <ele>960.0</ele>
        <time>2019-03-26T09:48:22.000Z</time>
      </trkpt>
      <trkpt lat="42.564296" lon="-0.432093">
        <ele>960.0</ele>
        <time>2019-03-26T09:48:23.000Z</time>
      </trkpt>
      <trkpt lat="42.564312" lon="-0.432099">
        <ele>961.0</ele>
        <time>2019-03-26T09:48:24.000Z</time>
      </trkpt>
      <trkpt lat="42.564327" lon="-0.432105">
        <ele>961.0</ele>
        <time>2019-03-26T09:48:25.000Z</time>
      </trkpt>
      <trkpt lat="42.564342" lon="-0.432111">
        <ele>961.0</ele>
        <time>2019-03-26T09:48:26.000Z</time>
      </trkpt>
      <trkpt lat="42.564358" lon="-0.432116">
        <ele>961.0</ele>
        <time>2019-03-26T09:48:27.000Z</time>
      </trkpt>
      <trkpt lat="42.564373" lon="-0.432122">
        <ele>962.0</ele>
        <time>2019-03-26T09:48:28.000Z</time>
      </trkpt>
      <trkpt lat="42.564388" lon="-0.432127">
        <ele>962.0</ele>
        <time>2019-03-26T09:48:29.000Z</time>
      </trkpt>
      <trkpt lat="42.564403" lon="-0.432133">
        <ele>962.0</ele>
        <time>2019-03-26T09:48:30.000Z</time>
      </trkpt>
      <trkpt lat="42.564418" lon="-0.432138">
        <ele>962.0</ele>
        <time>2019-03-26T09:48:31.000Z</time>
      </trkpt>
      <trkpt lat="42.564432" lon="-0.432143">
        <ele>962.0</ele>
        <time>2019-03-26T09:48:32.000Z</time>
      </trkpt>
      <trkpt lat="42.564447" lon="-0.432148">
        <ele>962.0</ele>
        <time>2019-03-26T09:48:33.000Z</time>
      </trkpt>
      <trkpt lat="42.564462" lon="-0.432153">
        <ele>962.0</ele>
        <time>2019-03-26T09:48:34.000Z</time>
      </trkpt>
      <trkpt lat="42.564477" lon="-0.432158">
        <ele>963.0</ele>
        <time>2019-03-26T09:48:35.000Z</time>
      </trkpt>
      <trkpt lat="42.564492" lon="-0.432163">
        <ele>963.0</ele>
        <time>2019-03-26T09:48:36.000Z</time>
      </trkpt>
      <trkpt lat="42.564508" lon="-0.432168">
        <ele>963.0</ele>
        <time>2019-03-26T09:48:37.000Z</time>
      </trkpt>
      <trkpt lat="42.564523" lon="-0.432172">
        <ele>963.0</ele>
        <time>2019-03-26T09:48:38.000Z</time>
      </trkpt>
      <trkpt lat="42.564539" lon="-0.432177">
        <ele>963.0</ele>
        <time>2019-03-26T09:48:39.000Z</time>
      </trkpt>
      <trkpt lat="42.564555" lon="-0.432182">
        <ele>963.0</ele>
        <time>2019-03-26T09:48:40.000Z</time>
      </trkpt>
      <trkpt lat="42.564572" lon="-0.432186">
        <ele>964.0</ele>
        <time>2019-03-26T09:48:41.000Z</time>
      </trkpt>
      <trkpt lat="42.564589" lon="-0.432191">
        <ele>964.0</ele>
        <time>2019-03-26T09:48:42.000Z</time>
      </trkpt>
      <trkpt lat="42.564607" lon="-0.432196">
        <ele>964.0</ele>
        <time>2019-03-26T09:48:43.000Z</time>
      </trkpt>
      <trkpt lat="42.564625" lon="-0.432201">
        <ele>964.0</ele>
        <time>2019-03-26T09:48:44.000Z</time>
      </trkpt>
      <trkpt lat="42.564644" lon="-0.432206">
        <ele>964.0</ele>
        <time>2019-03-26T09:48:45.000Z</time>
      </trkpt>
      <trkpt lat="42.564664" lon="-0.432211">
        <ele>964.0</ele>
        <time>2019-03-26T09:48:46.000Z</time>
      </trkpt>
      <trkpt lat="42.564685" lon="-0.432217">
        <ele>964.0</ele>
        <time>2019-03-26T09:48:47.000Z</time>
      </trkpt>
      <trkpt lat="42.564706" lon="-0.432222">
        <ele>964.0</ele>
        <time>2019-03-26T09:48:48.000Z</time>
      </trkpt>
      <trkpt lat="42.564729" lon="-0.432228">
        <ele>964.0</ele>
        <time>2019-03-26T09:48:49.000Z</time>
      </trkpt>
      <trkpt lat="42.564753" lon="-0.432235">
        <ele>964.0</ele>
        <time>2019-03-26T09:48:50.000Z</time>
      </trkpt>
      <trkpt lat="42.564778" lon="-0.432241">
        <ele>964.0</ele>
        <time>2019-03-26T09:48:51.000Z</time>
      </trkpt>
      <trkpt lat="42.564804" lon="-0.432248">
        <ele>964.0</ele>
        <time>2019-03-26T09:48:52.000Z</time>
      </trkpt>
      <trkpt lat="42.564832" lon="-0.432256">
        <ele>964.0</ele>
        <time>2019-03-26T09:48:53.000Z</time>
      </trkpt>
      <trkpt lat="42.564862" lon="-0.432264">
        <ele>964.0</ele>
        <time>2019-03-26T09:48:54.000Z</time>
      </trkpt>
      <trkpt lat="42.564893" lon="-0.432273">
        <ele>963.0</ele>
        <time>2019-03-26T09:48:55.000Z</time>
      </trkpt>
      <trkpt lat="42.564926" lon="-0.432282">
        <ele>963.0</ele>
        <time>2019-03-26T09:48:56.000Z</time>
      </trkpt>
      <trkpt lat="42.564961" lon="-0.432292">
        <ele>963.0</ele>
        <time>2019-03-26T09:48:57.000Z</time>
      </trkpt>
      <trkpt lat="42.564998" lon="-0.432302">
        <ele>963.0</ele>
        <time>2019-03-26T09:48:58.000Z</time>
      </trkpt>
      <trkpt lat="42.565036" lon="-0.432313">
        <ele>963.0</ele>
        <time>2019-03-26T09:48:59.000Z</time>
      </trkpt>
      <trkpt lat="42.565077" lon="-0.432325">
        <ele>962.0</ele>
        <time>2019-03-26T09:49:00.000Z</time>
      </trkpt>
      <trkpt lat="42.565119" lon="-0.432338">
        <ele>962.0</ele>
        <time>2019-03-26T09:49:01.000Z</time>
      </trkpt>
      <trkpt lat="42.565163" lon="-0.432351">
        <ele>962.0</ele>
        <time>2019-03-26T09:49:02.000Z</time>
      </trkpt>
      <trkpt lat="42.565209" lon="-0.432365">
        <ele>962.0</ele>
        <time>2019-03-26T09:49:03.000Z</time>
      </trkpt>
      <trkpt lat="42.565256" lon="-0.432379">
        <ele>961.0</ele>
        <time>2019-03-26T09:49:04.000Z</time>
      </trkpt>
      <trkpt lat="42.565305" lon="-0.432394">
        <ele>961.0</ele>
        <time>2019-03-26T09:49:05.000Z</time>
      </trkpt>
      <trkpt lat="42.565354" lon="-0.432409">
        <ele>961.0</ele>
        <time>2019-03-26T09:49:06.000Z</time>
      </trkpt>
      <trkpt lat="42.565405" lon="-0.432425">
        <ele>961.0</ele>
        <time>2019-03-26T09:49:07.000Z</time>
      </trkpt>
      <trkpt lat="42.565456" lon="-0.43244">
        <ele>960.0</ele>
        <time>2019-03-26T09:49:08.000Z</time>
      </trkpt>
      <trkpt lat="42.565507" lon="-0.432456">
        <ele>960.0</ele>
        <time>2019-03-26T09:49:09.000Z</time>
      </trkpt>
      <trkpt lat="42.565558" lon="-0.432473">
        <ele>960.0</ele>
        <time>2019-03-26T09:49:10.000Z</time>
      </trkpt>
      <trkpt lat="42.565608" lon="-0.432489">
        <ele>960.0</ele>
        <time>2019-03-26T09:49:11.000Z</time>
      </trkpt>
      <trkpt lat="42.565657" lon="-0.432504">
        <ele>960.0</ele>
        <time>2019-03-26T09:49:12.000Z</time>
      </trkpt>
      <trkpt lat="42.565706" lon="-0.43252">
        <ele>960.0</ele>
        <time>2019-03-26T09:49:13.000Z</time>
      </trkpt>
      <trkpt lat="42.565754" lon="-0.432536">
        <ele>960.0</ele>
        <time>2019-03-26T09:49:14.000Z</time>
      </trkpt>
      <trkpt lat="42.565801" lon="-0.432551">
        <ele>960.0</ele>
        <time>2019-03-26T09:49:15.000Z</time>
      </trkpt>
      <trkpt lat="42.565847" lon="-0.432566">
        <ele>960.0</ele>
        <time>2019-03-26T09:49:16.000Z</time>
      </trkpt>
      <trkpt lat="42.565893" lon="-0.432581">
        <ele>960.0</ele>
        <time>2019-03-26T09:49:17.000Z</time>
      </trkpt>
      <trkpt lat="42.565938" lon="-0.432596">
        <ele>960.0</ele>
        <time>2019-03-26T09:49:18.000Z</time>
      </trkpt>
      <trkpt lat="42.565983" lon="-0.432611">
        <ele>960.0</ele>
        <time>2019-03-26T09:49:19.000Z</time>
      </trkpt>
      <trkpt lat="42.566027" lon="-0.432626">
        <ele>960.0</ele>
        <time>2019-03-26T09:49:20.000Z</time>
      </trkpt>
      <trkpt lat="42.566071" lon="-0.43264">
        <ele>960.0</ele>
        <time>2019-03-26T09:49:21.000Z</time>
      </trkpt>
      <trkpt lat="42.566115" lon="-0.432654">
        <ele>960.0</ele>
        <time>2019-03-26T09:49:22.000Z</time>
      </trkpt>
      <trkpt lat="42.566159" lon="-0.432668">
        <ele>960.0</ele>
        <time>2019-03-26T09:49:23.000Z</time>
      </trkpt>
      <trkpt lat="42.566203" lon="-0.432682">
        <ele>960.0</ele>
        <time>2019-03-26T09:49:24.000Z</time>
      </trkpt>
      <trkpt lat="42.566246" lon="-0.432696">
        <ele>960.0</ele>
        <time>2019-03-26T09:49:25.000Z</time>
      </trkpt>
      <trkpt lat="42.566289" lon="-0.43271">
        <ele>960.0</ele>
        <time>2019-03-26T09:49:26.000Z</time>
      </trkpt>
      <trkpt lat="42.566333" lon="-0.432723">
        <ele>960.0</ele>
        <time>2019-03-26T09:49:27.000Z</time>
      </trkpt>
      <trkpt lat="42.566376" lon="-0.432737">
        <ele>960.0</ele>
        <time>2019-03-26T09:49:28.000Z</time>
      </trkpt>
      <trkpt lat="42.56642" lon="-0.43275">
        <ele>960.0</ele>
        <time>2019-03-26T09:49:29.000Z</time>
      </trkpt>
      <trkpt lat="42.566464" lon="-0.432764">
        <ele>960.0</ele>
        <time>2019-03-26T09:49:30.000Z</time>
      </trkpt>
      <trkpt lat="42.566508" lon="-0.432777">
        <ele>959.0</ele>
        <time>2019-03-26T09:49:31.000Z</time>
      </trkpt>
      <trkpt lat="42.566552" lon="-0.43279">
        <ele>959.0</ele>
        <time>2019-03-26T09:49:32.000Z</time>
      </trkpt>
      <trkpt lat="42.566596" lon="-0.432804">
        <ele>959.0</ele>
        <time>2019-03-26T09:49:33.000Z</time>
      </trkpt>
      <trkpt lat="42.566641" lon="-0.432817">
        <ele>959.0</ele>
        <time>2019-03-26T09:49:34.000Z</time>
      </trkpt>
      <trkpt lat="42.566686" lon="-0.432831">
        <ele>959.0</ele>
        <time>2019-03-26T09:49:35.000Z</time>
      </trkpt>
      <trkpt lat="42.566732" lon="-0.432844">
        <ele>959.0</ele>
        <time>2019-03-26T09:49:36.000Z</time>
      </trkpt>
      <trkpt lat="42.566778" lon="-0.432858">
        <ele>959.0</ele>
        <time>2019-03-26T09:49:37.000Z</time>
      </trkpt>
      <trkpt lat="42.566824" lon="-0.432872">
        <ele>958.0</ele>
        <time>2019-03-26T09:49:38.000Z</time>
      </trkpt>
      <trkpt lat="42.566871" lon="-0.432886">
        <ele>958.0</ele>
        <time>2019-03-26T09:49:39.000Z</time>
      </trkpt>
      <trkpt lat="42.566919" lon="-0.4329">
        <ele>958.0</ele>
        <time>2019-03-26T09:49:40.000Z</time>
      </trkpt>
      <trkpt lat="42.566966" lon="-0.432914">
        <ele>958.0</ele>
        <time>2019-03-26T09:49:41.000Z</time>
      </trkpt>
      <trkpt lat="42.567014" lon="-0.432928">
        <ele>958.0</ele>
        <time>2019-03-26T09:49:42.000Z</time>
      </trkpt>
      <trkpt lat="42.567062" lon="-0.432943">
        <ele>958.0</ele>
        <time>2019-03-26T09:49:43.000Z</time>
      </trkpt>
      <trkpt lat="42.56711" lon="-0.432957">
        <ele>958.0</ele>
        <time>2019-03-26T09:49:44.000Z</time>
      </trkpt>
      <trkpt lat="42.567158" lon="-0.432971">
        <ele>958.0</ele>
        <time>2019-03-26T09:49:45.000Z</time>
      </trkpt>
      <trkpt lat="42.567205" lon="-0.432986">
        <ele>958.0</ele>
        <time>2019-03-26T09:49:46.000Z</time>
      </trkpt>
      <trkpt lat="42.567252" lon="-0.433">
        <ele>958.0</ele>
        <time>2019-03-26T09:49:47.000Z</time>
      </trkpt>
      <trkpt lat="42.567299" lon="-0.433014">
        <ele>958.0</ele>
        <time>2019-03-26T09:49:48.000Z</time>
      </trkpt>
      <trkpt lat="42.567344" lon="-0.433028">
        <ele>958.0</ele>
        <time>2019-03-26T09:49:49.000Z</time>
      </trkpt>
      <trkpt lat="42.567389" lon="-0.433042">
        <ele>958.0</ele>
        <time>2019-03-26T09:49:50.000Z</time>
      </trkpt>
      <trkpt lat="42.567434" lon="-0.433056">
        <ele>958.0</ele>
        <time>2019-03-26T09:49:51.000Z</time>
      </trkpt>
      <trkpt lat="42.567477" lon="-0.43307">
        <ele>958.0</ele>
        <time>2019-03-26T09:49:52.000Z</time>
      </trkpt>
      <trkpt lat="42.567519" lon="-0.433083">
        <ele>958.0</ele>
        <time>2019-03-26T09:49:53.000Z</time>
      </trkpt>
      <trkpt lat="42.56756" lon="-0.433096">
        <ele>958.0</ele>
        <time>2019-03-26T09:49:54.000Z</time>
      </trkpt>
      <trkpt lat="42.567601" lon="-0.43311">
        <ele>958.0</ele>
        <time>2019-03-26T09:49:55.000Z</time>
      </trkpt>
      <trkpt lat="42.567641" lon="-0.433123">
        <ele>958.0</ele>
        <time>2019-03-26T09:49:56.000Z</time>
      </trkpt>
      <trkpt lat="42.56768" lon="-0.433136">
        <ele>958.0</ele>
        <time>2019-03-26T09:49:57.000Z</time>
      </trkpt>
      <trkpt lat="42.567719" lon="-0.433149">
        <ele>958.0</ele>
        <time>2019-03-26T09:49:58.000Z</time>
      </trkpt>
      <trkpt lat="42.567758" lon="-0.433162">
        <ele>958.0</ele>
        <time>2019-03-26T09:49:59.000Z</time>
      </trkpt>
      <trkpt lat="42.567796" lon="-0.433175">
        <ele>958.0</ele>
        <time>2019-03-26T09:50:00.000Z</time>
      </trkpt>
      <trkpt lat="42.567835" lon="-0.433188">
        <ele>958.0</ele>
        <time>2019-03-26T09:50:01.000Z</time>
      </trkpt>
      <trkpt lat="42.567873" lon="-0.433201">
        <ele>958.0</ele>
        <time>2019-03-26T09:50:02.000Z</time>
      </trkpt>
      <trkpt lat="42.567912" lon="-0.433214">
        <ele>958.0</ele>
        <time>2019-03-26T09:50:03.000Z</time>
      </trkpt>
      <trkpt lat="42.56795" lon="-0.433227">
        <ele>958.0</ele>
        <time>2019-03-26T09:50:04.000Z</time>
      </trkpt>
      <trkpt lat="42.567988" lon="-0.433239">
        <ele>958.0</ele>
        <time>2019-03-26T09:50:05.000Z</time>
      </trkpt>
      <trkpt lat="42.568026" lon="-0.433251">
        <ele>959.0</ele>
        <time>2019-03-26T09:50:06.000Z</time>
      </trkpt>
      <trkpt lat="42.568064" lon="-0.433263">
        <ele>959.0</ele>
        <time>2019-03-26T09:50:07.000Z</time>
      </trkpt>
      <trkpt lat="42.568101" lon="-0.433274">
        <ele>959.0</ele>
        <time>2019-03-26T09:50:08.000Z</time>
      </trkpt>
      <trkpt lat="42.568138" lon="-0.433285">
        <ele>959.0</ele>
        <time>2019-03-26T09:50:09.000Z</time>
      </trkpt>
      <trkpt lat="42.568175" lon="-0.433296">
        <ele>959.0</ele>
        <time>2019-03-26T09:50:10.000Z</time>
      </trkpt>
      <trkpt lat="42.568212" lon="-0.433306">
        <ele>959.0</ele>
        <time>2019-03-26T09:50:11.000Z</time>
      </trkpt>
      <trkpt lat="42.568248" lon="-0.433317">
        <ele>959.0</ele>
        <time>2019-03-26T09:50:12.000Z</time>
      </trkpt>
      <trkpt lat="42.568284" lon="-0.433328">
        <ele>959.0</ele>
        <time>2019-03-26T09:50:13.000Z</time>
      </trkpt>
      <trkpt lat="42.568321" lon="-0.433338">
        <ele>959.0</ele>
        <time>2019-03-26T09:50:14.000Z</time>
      </trkpt>
      <trkpt lat="42.568356" lon="-0.433349">
        <ele>959.0</ele>
        <time>2019-03-26T09:50:15.000Z</time>
      </trkpt>
      <trkpt lat="42.568392" lon="-0.433361">
        <ele>960.0</ele>
        <time>2019-03-26T09:50:16.000Z</time>
      </trkpt>
      <trkpt lat="42.568428" lon="-0.433373">
        <ele>960.0</ele>
        <time>2019-03-26T09:50:17.000Z</time>
      </trkpt>
      <trkpt lat="42.568463" lon="-0.433385">
        <ele>960.0</ele>
        <time>2019-03-26T09:50:18.000Z</time>
      </trkpt>
      <trkpt lat="42.568499" lon="-0.433398">
        <ele>960.0</ele>
        <time>2019-03-26T09:50:19.000Z</time>
      </trkpt>
      <trkpt lat="42.568534" lon="-0.433411">
        <ele>960.0</ele>
        <time>2019-03-26T09:50:20.000Z</time>
      </trkpt>
      <trkpt lat="42.568569" lon="-0.433426">
        <ele>960.0</ele>
        <time>2019-03-26T09:50:21.000Z</time>
      </trkpt>
      <trkpt lat="42.568603" lon="-0.43344">
        <ele>960.0</ele>
        <time>2019-03-26T09:50:22.000Z</time>
      </trkpt>
      <trkpt lat="42.568637" lon="-0.433456">
        <ele>960.0</ele>
        <time>2019-03-26T09:50:23.000Z</time>
      </trkpt>
      <trkpt lat="42.568669" lon="-0.433472">
        <ele>960.0</ele>
        <time>2019-03-26T09:50:24.000Z</time>
      </trkpt>
      <trkpt lat="42.568701" lon="-0.433489">
        <ele>960.0</ele>
        <time>2019-03-26T09:50:25.000Z</time>
      </trkpt>
      <trkpt lat="42.568731" lon="-0.433506">
        <ele>960.0</ele>
        <time>2019-03-26T09:50:26.000Z</time>
      </trkpt>
      <trkpt lat="42.568759" lon="-0.433524">
        <ele>960.0</ele>
        <time>2019-03-26T09:50:27.000Z</time>
      </trkpt>
      <trkpt lat="42.568786" lon="-0.433542">
        <ele>960.0</ele>
        <time>2019-03-26T09:50:28.000Z</time>
      </trkpt>
      <trkpt lat="42.568811" lon="-0.433561">
        <ele>961.0</ele>
        <time>2019-03-26T09:50:29.000Z</time>
      </trkpt>
      <trkpt lat="42.568835" lon="-0.43358">
        <ele>961.0</ele>
        <time>2019-03-26T09:50:30.000Z</time>
      </trkpt>
      <trkpt lat="42.568858" lon="-0.433599">
        <ele>961.0</ele>
        <time>2019-03-26T09:50:31.000Z</time>
      </trkpt>
      <trkpt lat="42.56888" lon="-0.433619">
        <ele>961.0</ele>
        <time>2019-03-26T09:50:32.000Z</time>
      </trkpt>
      <trkpt lat="42.568901" lon="-0.433639">
        <ele>961.0</ele>
        <time>2019-03-26T09:50:33.000Z</time>
      </trkpt>
      <trkpt lat="42.568922" lon="-0.433659">
        <ele>962.0</ele>
        <time>2019-03-26T09:50:34.000Z</time>
      </trkpt>
      <trkpt lat="42.568941" lon="-0.433679">
        <ele>962.0</ele>
        <time>2019-03-26T09:50:35.000Z</time>
      </trkpt>
      <trkpt lat="42.568961" lon="-0.433699">
        <ele>962.0</ele>
        <time>2019-03-26T09:50:36.000Z</time>
      </trkpt>
      <trkpt lat="42.56898" lon="-0.433719">
        <ele>962.0</ele>
        <time>2019-03-26T09:50:37.000Z</time>
      </trkpt>
      <trkpt lat="42.568999" lon="-0.433738">
        <ele>962.0</ele>
        <time>2019-03-26T09:50:38.000Z</time>
      </trkpt>
      <trkpt lat="42.569018" lon="-0.433756">
        <ele>963.0</ele>
        <time>2019-03-26T09:50:39.000Z</time>
      </trkpt>
      <trkpt lat="42.569037" lon="-0.433773">
        <ele>963.0</ele>
        <time>2019-03-26T09:50:40.000Z</time>
      </trkpt>
      <trkpt lat="42.569057" lon="-0.43379">
        <ele>963.0</ele>
        <time>2019-03-26T09:50:41.000Z</time>
      </trkpt>
      <trkpt lat="42.569076" lon="-0.433805">
        <ele>963.0</ele>
        <time>2019-03-26T09:50:42.000Z</time>
      </trkpt>
      <trkpt lat="42.569096" lon="-0.433819">
        <ele>963.0</ele>
        <time>2019-03-26T09:50:43.000Z</time>
      </trkpt>
      <trkpt lat="42.569116" lon="-0.433833">
        <ele>963.0</ele>
        <time>2019-03-26T09:50:44.000Z</time>
      </trkpt>
      <trkpt lat="42.569136" lon="-0.433846">
        <ele>964.0</ele>
        <time>2019-03-26T09:50:45.000Z</time>
      </trkpt>
      <trkpt lat="42.569156" lon="-0.433859">
        <ele>964.0</ele>
        <time>2019-03-26T09:50:46.000Z</time>
      </trkpt>
      <trkpt lat="42.569176" lon="-0.433872">
        <ele>964.0</ele>
        <time>2019-03-26T09:50:47.000Z</time>
      </trkpt>
      <trkpt lat="42.569196" lon="-0.433885">
        <ele>964.0</ele>
        <time>2019-03-26T09:50:48.000Z</time>
      </trkpt>
      <trkpt lat="42.569216" lon="-0.433898">
        <ele>965.0</ele>
        <time>2019-03-26T09:50:49.000Z</time>
      </trkpt>
      <trkpt lat="42.569236" lon="-0.433912">
        <ele>965.0</ele>
        <time>2019-03-26T09:50:50.000Z</time>
      </trkpt>
      <trkpt lat="42.569256" lon="-0.433925">
        <ele>965.0</ele>
        <time>2019-03-26T09:50:51.000Z</time>
      </trkpt>
      <trkpt lat="42.569276" lon="-0.433938">
        <ele>965.0</ele>
        <time>2019-03-26T09:50:52.000Z</time>
      </trkpt>
      <trkpt lat="42.569296" lon="-0.433951">
        <ele>965.0</ele>
        <time>2019-03-26T09:50:53.000Z</time>
      </trkpt>
      <trkpt lat="42.569316" lon="-0.433964">
        <ele>965.0</ele>
        <time>2019-03-26T09:50:54.000Z</time>
      </trkpt>
      <trkpt lat="42.569336" lon="-0.433977">
        <ele>966.0</ele>
        <time>2019-03-26T09:50:55.000Z</time>
      </trkpt>
      <trkpt lat="42.569357" lon="-0.433989">
        <ele>966.0</ele>
        <time>2019-03-26T09:50:56.000Z</time>
      </trkpt>
      <trkpt lat="42.569377" lon="-0.434001">
        <ele>966.0</ele>
        <time>2019-03-26T09:50:57.000Z</time>
      </trkpt>
      <trkpt lat="42.569397" lon="-0.434013">
        <ele>966.0</ele>
        <time>2019-03-26T09:50:58.000Z</time>
      </trkpt>
      <trkpt lat="42.569417" lon="-0.434024">
        <ele>966.0</ele>
        <time>2019-03-26T09:50:59.000Z</time>
      </trkpt>
      <trkpt lat="42.569437" lon="-0.434035">
        <ele>966.0</ele>
        <time>2019-03-26T09:51:00.000Z</time>
      </trkpt>
      <trkpt lat="42.569457" lon="-0.434045">
        <ele>966.0</ele>
        <time>2019-03-26T09:51:01.000Z</time>
      </trkpt>
      <trkpt lat="42.569477" lon="-0.434055">
        <ele>966.0</ele>
        <time>2019-03-26T09:51:02.000Z</time>
      </trkpt>
      <trkpt lat="42.569497" lon="-0.434064">
        <ele>967.0</ele>
        <time>2019-03-26T09:51:03.000Z</time>
      </trkpt>
      <trkpt lat="42.569517" lon="-0.434072">
        <ele>967.0</ele>
        <time>2019-03-26T09:51:04.000Z</time>
      </trkpt>
      <trkpt lat="42.569538" lon="-0.43408">
        <ele>967.0</ele>
        <time>2019-03-26T09:51:05.000Z</time>
      </trkpt>
      <trkpt lat="42.569558" lon="-0.434087">
        <ele>967.0</ele>
        <time>2019-03-26T09:51:06.000Z</time>
      </trkpt>
      <trkpt lat="42.569578" lon="-0.434093">
        <ele>967.0</ele>
        <time>2019-03-26T09:51:07.000Z</time>
      </trkpt>
      <trkpt lat="42.569598" lon="-0.434098">
        <ele>967.0</ele>
        <time>2019-03-26T09:51:08.000Z</time>
      </trkpt>
      <trkpt lat="42.569618" lon="-0.434103">
        <ele>968.0</ele>
        <time>2019-03-26T09:51:09.000Z</time>
      </trkpt>
      <trkpt lat="42.569639" lon="-0.434107">
        <ele>968.0</ele>
        <time>2019-03-26T09:51:10.000Z</time>
      </trkpt>
      <trkpt lat="42.569659" lon="-0.43411">
        <ele>968.0</ele>
        <time>2019-03-26T09:51:11.000Z</time>
      </trkpt>
      <trkpt lat="42.56968" lon="-0.434113">
        <ele>968.0</ele>
        <time>2019-03-26T09:51:12.000Z</time>
      </trkpt>
      <trkpt lat="42.5697" lon="-0.434115">
        <ele>969.0</ele>
        <time>2019-03-26T09:51:13.000Z</time>
      </trkpt>
      <trkpt lat="42.569721" lon="-0.434115">
        <ele>969.0</ele>
        <time>2019-03-26T09:51:14.000Z</time>
      </trkpt>
      <trkpt lat="42.569742" lon="-0.434116">
        <ele>969.0</ele>
        <time>2019-03-26T09:51:15.000Z</time>
      </trkpt>
      <trkpt lat="42.569763" lon="-0.434115">
        <ele>969.0</ele>
        <time>2019-03-26T09:51:16.000Z</time>
      </trkpt>
      <trkpt lat="42.569784" lon="-0.434114">
        <ele>969.0</ele>
        <time>2019-03-26T09:51:17.000Z</time>
      </trkpt>
      <trkpt lat="42.569806" lon="-0.434112">
        <ele>969.0</ele>
        <time>2019-03-26T09:51:18.000Z</time>
      </trkpt>
      <trkpt lat="42.569828" lon="-0.434109">
        <ele>970.0</ele>
        <time>2019-03-26T09:51:19.000Z</time>
      </trkpt>
      <trkpt lat="42.569851" lon="-0.434107">
        <ele>970.0</ele>
        <time>2019-03-26T09:51:20.000Z</time>
      </trkpt>
      <trkpt lat="42.569874" lon="-0.434104">
        <ele>970.0</ele>
        <time>2019-03-26T09:51:21.000Z</time>
      </trkpt>
      <trkpt lat="42.569897" lon="-0.434101">
        <ele>970.0</ele>
        <time>2019-03-26T09:51:22.000Z</time>
      </trkpt>
      <trkpt lat="42.569922" lon="-0.434098">
        <ele>970.0</ele>
        <time>2019-03-26T09:51:23.000Z</time>
      </trkpt>
      <trkpt lat="42.569948" lon="-0.434094">
        <ele>970.0</ele>
        <time>2019-03-26T09:51:24.000Z</time>
      </trkpt>
      <trkpt lat="42.569976" lon="-0.434091">
        <ele>970.0</ele>
        <time>2019-03-26T09:51:25.000Z</time>
      </trkpt>
      <trkpt lat="42.570007" lon="-0.434087">
        <ele>970.0</ele>
        <time>2019-03-26T09:51:26.000Z</time>
      </trkpt>
      <trkpt lat="42.57004" lon="-0.434083">
        <ele>970.0</ele>
        <time>2019-03-26T09:51:27.000Z</time>
      </trkpt>
      <trkpt lat="42.570076" lon="-0.434079">
        <ele>970.0</ele>
        <time>2019-03-26T09:51:28.000Z</time>
      </trkpt>
      <trkpt lat="42.570115" lon="-0.434074">
        <ele>970.0</ele>
        <time>2019-03-26T09:51:29.000Z</time>
      </trkpt>
      <trkpt lat="42.570158" lon="-0.434069">
        <ele>969.0</ele>
        <time>2019-03-26T09:51:30.000Z</time>
      </trkpt>
      <trkpt lat="42.570204" lon="-0.434064">
        <ele>969.0</ele>
        <time>2019-03-26T09:51:31.000Z</time>
      </trkpt>
      <trkpt lat="42.570254" lon="-0.43406">
        <ele>969.0</ele>
        <time>2019-03-26T09:51:32.000Z</time>
      </trkpt>
      <trkpt lat="42.570307" lon="-0.434056">
        <ele>968.0</ele>
        <time>2019-03-26T09:51:33.000Z</time>
      </trkpt>
      <trkpt lat="42.570364" lon="-0.434052">
        <ele>968.0</ele>
        <time>2019-03-26T09:51:34.000Z</time>
      </trkpt>
      <trkpt lat="42.570425" lon="-0.43405">
        <ele>968.0</ele>
        <time>2019-03-26T09:51:35.000Z</time>
      </trkpt>
      <trkpt lat="42.570489" lon="-0.434048">
        <ele>967.0</ele>
        <time>2019-03-26T09:51:36.000Z</time>
      </trkpt>
      <trkpt lat="42.570555" lon="-0.434047">
        <ele>967.0</ele>
        <time>2019-03-26T09:51:37.000Z</time>
      </trkpt>
      <trkpt lat="42.57062" lon="-0.434048">
        <ele>967.0</ele>
        <time>2019-03-26T09:51:38.000Z</time>
      </trkpt>
      <trkpt lat="42.570683" lon="-0.434049">
        <ele>967.0</ele>
        <time>2019-03-26T09:51:39.000Z</time>
      </trkpt>
      <trkpt lat="42.570742" lon="-0.434052">
        <ele>967.0</ele>
        <time>2019-03-26T09:51:40.000Z</time>
      </trkpt>
      <trkpt lat="42.570798" lon="-0.434055">
        <ele>967.0</ele>
        <time>2019-03-26T09:51:41.000Z</time>
      </trkpt>
      <trkpt lat="42.570851" lon="-0.434059">
        <ele>967.0</ele>
        <time>2019-03-26T09:51:42.000Z</time>
      </trkpt>
      <trkpt lat="42.570901" lon="-0.434063">
        <ele>967.0</ele>
        <time>2019-03-26T09:51:43.000Z</time>
      </trkpt>
      <trkpt lat="42.570949" lon="-0.434068">
        <ele>967.0</ele>
        <time>2019-03-26T09:51:44.000Z</time>
      </trkpt>
      <trkpt lat="42.570996" lon="-0.434072">
        <ele>967.0</ele>
        <time>2019-03-26T09:51:45.000Z</time>
      </trkpt>
      <trkpt lat="42.571041" lon="-0.434077">
        <ele>967.0</ele>
        <time>2019-03-26T09:51:46.000Z</time>
      </trkpt>
      <trkpt lat="42.571085" lon="-0.434082">
        <ele>967.0</ele>
        <time>2019-03-26T09:51:47.000Z</time>
      </trkpt>
      <trkpt lat="42.571127" lon="-0.434087">
        <ele>967.0</ele>
        <time>2019-03-26T09:51:48.000Z</time>
      </trkpt>
      <trkpt lat="42.57117" lon="-0.434092">
        <ele>967.0</ele>
        <time>2019-03-26T09:51:49.000Z</time>
      </trkpt>
      <trkpt lat="42.571211" lon="-0.434097">
        <ele>967.0</ele>
        <time>2019-03-26T09:51:50.000Z</time>
      </trkpt>
      <trkpt lat="42.571252" lon="-0.434101">
        <ele>967.0</ele>
        <time>2019-03-26T09:51:51.000Z</time>
      </trkpt>
      <trkpt lat="42.571293" lon="-0.434106">
        <ele>967.0</ele>
        <time>2019-03-26T09:51:52.000Z</time>
      </trkpt>
      <trkpt lat="42.571334" lon="-0.43411">
        <ele>967.0</ele>
        <time>2019-03-26T09:51:53.000Z</time>
      </trkpt>
      <trkpt lat="42.571375" lon="-0.434114">
        <ele>967.0</ele>
        <time>2019-03-26T09:51:54.000Z</time>
      </trkpt>
      <trkpt lat="42.571415" lon="-0.434118">
        <ele>967.0</ele>
        <time>2019-03-26T09:51:55.000Z</time>
      </trkpt>
      <trkpt lat="42.571456" lon="-0.434123">
        <ele>968.0</ele>
        <time>2019-03-26T09:51:56.000Z</time>
      </trkpt>
      <trkpt lat="42.571497" lon="-0.434127">
        <ele>968.0</ele>
        <time>2019-03-26T09:51:57.000Z</time>
      </trkpt>
      <trkpt lat="42.571538" lon="-0.434131">
        <ele>968.0</ele>
        <time>2019-03-26T09:51:58.000Z</time>
      </trkpt>
      <trkpt lat="42.571579" lon="-0.434134">
        <ele>968.0</ele>
        <time>2019-03-26T09:51:59.000Z</time>
      </trkpt>
      <trkpt lat="42.571619" lon="-0.434138">
        <ele>968.0</ele>
        <time>2019-03-26T09:52:00.000Z</time>
      </trkpt>
      <trkpt lat="42.57166" lon="-0.434142">
        <ele>968.0</ele>
        <time>2019-03-26T09:52:01.000Z</time>
      </trkpt>
      <trkpt lat="42.5717" lon="-0.434146">
        <ele>968.0</ele>
        <time>2019-03-26T09:52:02.000Z</time>
      </trkpt>
      <trkpt lat="42.571739" lon="-0.43415">
        <ele>968.0</ele>
        <time>2019-03-26T09:52:03.000Z</time>
      </trkpt>
      <trkpt lat="42.571778" lon="-0.434155">
        <ele>968.0</ele>
        <time>2019-03-26T09:52:04.000Z</time>
      </trkpt>
      <trkpt lat="42.571816" lon="-0.434159">
        <ele>968.0</ele>
        <time>2019-03-26T09:52:05.000Z</time>
      </trkpt>
      <trkpt lat="42.571853" lon="-0.434163">
        <ele>968.0</ele>
        <time>2019-03-26T09:52:06.000Z</time>
      </trkpt>
      <trkpt lat="42.571889" lon="-0.434168">
        <ele>968.0</ele>
        <time>2019-03-26T09:52:07.000Z</time>
      </trkpt>
      <trkpt lat="42.571924" lon="-0.434172">
        <ele>969.0</ele>
        <time>2019-03-26T09:52:08.000Z</time>
      </trkpt>
      <trkpt lat="42.571958" lon="-0.434177">
        <ele>969.0</ele>
        <time>2019-03-26T09:52:09.000Z</time>
      </trkpt>
      <trkpt lat="42.571991" lon="-0.434182">
        <ele>969.0</ele>
        <time>2019-03-26T09:52:10.000Z</time>
      </trkpt>
      <trkpt lat="42.572022" lon="-0.434187">
        <ele>969.0</ele>
        <time>2019-03-26T09:52:11.000Z</time>
      </trkpt>
      <trkpt lat="42.572051" lon="-0.434193">
        <ele>969.0</ele>
        <time>2019-03-26T09:52:12.000Z</time>
      </trkpt>
      <trkpt lat="42.57208" lon="-0.434197">
        <ele>969.0</ele>
        <time>2019-03-26T09:52:13.000Z</time>
      </trkpt>
      <trkpt lat="42.572107" lon="-0.434201">
        <ele>970.0</ele>
        <time>2019-03-26T09:52:14.000Z</time>
      </trkpt>
      <trkpt lat="42.572133" lon="-0.434204">
        <ele>970.0</ele>
        <time>2019-03-26T09:52:15.000Z</time>
      </trkpt>
      <trkpt lat="42.572158" lon="-0.434206">
        <ele>970.0</ele>
        <time>2019-03-26T09:52:16.000Z</time>
      </trkpt>
      <trkpt lat="42.572182" lon="-0.434206">
        <ele>970.0</ele>
        <time>2019-03-26T09:52:17.000Z</time>
      </trkpt>
      <trkpt lat="42.572206" lon="-0.434204">
        <ele>970.0</ele>
        <time>2019-03-26T09:52:18.000Z</time>
      </trkpt>
      <trkpt lat="42.572229" lon="-0.434202">
        <ele>971.0</ele>
        <time>2019-03-26T09:52:19.000Z</time>
      </trkpt>
      <trkpt lat="42.572251" lon="-0.4342">
        <ele>971.0</ele>
        <time>2019-03-26T09:52:20.000Z</time>
      </trkpt>
      <trkpt lat="42.572274" lon="-0.434199">
        <ele>971.0</ele>
        <time>2019-03-26T09:52:21.000Z</time>
      </trkpt>
      <trkpt lat="42.572297" lon="-0.4342">
        <ele>971.0</ele>
        <time>2019-03-26T09:52:22.000Z</time>
      </trkpt>
      <trkpt lat="42.572321" lon="-0.434204">
        <ele>971.0</ele>
        <time>2019-03-26T09:52:23.000Z</time>
      </trkpt>
      <trkpt lat="42.572344" lon="-0.434208">
        <ele>971.0</ele>
        <time>2019-03-26T09:52:24.000Z</time>
      </trkpt>
      <trkpt lat="42.572367" lon="-0.434212">
        <ele>972.0</ele>
        <time>2019-03-26T09:52:25.000Z</time>
      </trkpt>
      <trkpt lat="42.57239" lon="-0.434216">
        <ele>972.0</ele>
        <time>2019-03-26T09:52:26.000Z</time>
      </trkpt>
      <trkpt lat="42.572413" lon="-0.434219">
        <ele>972.0</ele>
        <time>2019-03-26T09:52:27.000Z</time>
      </trkpt>
      <trkpt lat="42.572436" lon="-0.434223">
        <ele>972.0</ele>
        <time>2019-03-26T09:52:28.000Z</time>
      </trkpt>
      <trkpt lat="42.572459" lon="-0.434226">
        <ele>972.0</ele>
        <time>2019-03-26T09:52:29.000Z</time>
      </trkpt>
      <trkpt lat="42.572482" lon="-0.43423">
        <ele>972.0</ele>
        <time>2019-03-26T09:52:30.000Z</time>
      </trkpt>
      <trkpt lat="42.572505" lon="-0.434233">
        <ele>973.0</ele>
        <time>2019-03-26T09:52:31.000Z</time>
      </trkpt>
      <trkpt lat="42.572528" lon="-0.434236">
        <ele>973.0</ele>
        <time>2019-03-26T09:52:32.000Z</time>
      </trkpt>
      <trkpt lat="42.572551" lon="-0.434239">
        <ele>973.0</ele>
        <time>2019-03-26T09:52:33.000Z</time>
      </trkpt>
      <trkpt lat="42.572574" lon="-0.434243">
        <ele>973.0</ele>
        <time>2019-03-26T09:52:34.000Z</time>
      </trkpt>
      <trkpt lat="42.572597" lon="-0.434246">
        <ele>973.0</ele>
        <time>2019-03-26T09:52:35.000Z</time>
      </trkpt>
      <trkpt lat="42.57262" lon="-0.434249">
        <ele>974.0</ele>
        <time>2019-03-26T09:52:36.000Z</time>
      </trkpt>
      <trkpt lat="42.572643" lon="-0.434252">
        <ele>974.0</ele>
        <time>2019-03-26T09:52:37.000Z</time>
      </trkpt>
      <trkpt lat="42.572666" lon="-0.434255">
        <ele>974.0</ele>
        <time>2019-03-26T09:52:38.000Z</time>
      </trkpt>
      <trkpt lat="42.572689" lon="-0.434258">
        <ele>974.0</ele>
        <time>2019-03-26T09:52:39.000Z</time>
      </trkpt>
      <trkpt lat="42.572713" lon="-0.434262">
        <ele>974.0</ele>
        <time>2019-03-26T09:52:40.000Z</time>
      </trkpt>
      <trkpt lat="42.572736" lon="-0.434265">
        <ele>974.0</ele>
        <time>2019-03-26T09:52:41.000Z</time>
      </trkpt>
      <trkpt lat="42.572759" lon="-0.434268">
        <ele>974.0</ele>
        <time>2019-03-26T09:52:42.000Z</time>
      </trkpt>
      <trkpt lat="42.572782" lon="-0.434272">
        <ele>974.0</ele>
        <time>2019-03-26T09:52:43.000Z</time>
      </trkpt>
      <trkpt lat="42.572806" lon="-0.434275">
        <ele>975.0</ele>
        <time>2019-03-26T09:52:44.000Z</time>
      </trkpt>
      <trkpt lat="42.572829" lon="-0.434278">
        <ele>975.0</ele>
        <time>2019-03-26T09:52:45.000Z</time>
      </trkpt>
      <trkpt lat="42.572852" lon="-0.434281">
        <ele>975.0</ele>
        <time>2019-03-26T09:52:46.000Z</time>
      </trkpt>
      <trkpt lat="42.572876" lon="-0.434284">
        <ele>975.0</ele>
        <time>2019-03-26T09:52:47.000Z</time>
      </trkpt>
      <trkpt lat="42.572899" lon="-0.434288">
        <ele>975.0</ele>
        <time>2019-03-26T09:52:48.000Z</time>
      </trkpt>
      <trkpt lat="42.572922" lon="-0.434291">
        <ele>975.0</ele>
        <time>2019-03-26T09:52:49.000Z</time>
      </trkpt>
      <trkpt lat="42.572945" lon="-0.434294">
        <ele>976.0</ele>
        <time>2019-03-26T09:52:50.000Z</time>
      </trkpt>
      <trkpt lat="42.572969" lon="-0.434296">
        <ele>976.0</ele>
        <time>2019-03-26T09:52:51.000Z</time>
      </trkpt>
      <trkpt lat="42.572992" lon="-0.434299">
        <ele>976.0</ele>
        <time>2019-03-26T09:52:52.000Z</time>
      </trkpt>
      <trkpt lat="42.573015" lon="-0.434302">
        <ele>976.0</ele>
        <time>2019-03-26T09:52:53.000Z</time>
      </trkpt>
      <trkpt lat="42.573038" lon="-0.434304">
        <ele>976.0</ele>
        <time>2019-03-26T09:52:54.000Z</time>
      </trkpt>
      <trkpt lat="42.573061" lon="-0.434307">
        <ele>976.0</ele>
        <time>2019-03-26T09:52:55.000Z</time>
      </trkpt>
      <trkpt lat="42.573083" lon="-0.434309">
        <ele>976.0</ele>
        <time>2019-03-26T09:52:56.000Z</time>
      </trkpt>
      <trkpt lat="42.573106" lon="-0.434311">
        <ele>976.0</ele>
        <time>2019-03-26T09:52:57.000Z</time>
      </trkpt>
      <trkpt lat="42.573128" lon="-0.434313">
        <ele>977.0</ele>
        <time>2019-03-26T09:52:58.000Z</time>
      </trkpt>
      <trkpt lat="42.57315" lon="-0.434315">
        <ele>977.0</ele>
        <time>2019-03-26T09:52:59.000Z</time>
      </trkpt>
      <trkpt lat="42.573172" lon="-0.434317">
        <ele>977.0</ele>
        <time>2019-03-26T09:53:00.000Z</time>
      </trkpt>
      <trkpt lat="42.573193" lon="-0.434319">
        <ele>977.0</ele>
        <time>2019-03-26T09:53:01.000Z</time>
      </trkpt>
      <trkpt lat="42.573214" lon="-0.43432">
        <ele>977.0</ele>
        <time>2019-03-26T09:53:02.000Z</time>
      </trkpt>
      <trkpt lat="42.573235" lon="-0.434322">
        <ele>978.0</ele>
        <time>2019-03-26T09:53:03.000Z</time>
      </trkpt>
      <trkpt lat="42.573255" lon="-0.434324">
        <ele>978.0</ele>
        <time>2019-03-26T09:53:04.000Z</time>
      </trkpt>
      <trkpt lat="42.573274" lon="-0.434325">
        <ele>978.0</ele>
        <time>2019-03-26T09:53:05.000Z</time>
      </trkpt>
      <trkpt lat="42.573294" lon="-0.434327">
        <ele>978.0</ele>
        <time>2019-03-26T09:53:06.000Z</time>
      </trkpt>
      <trkpt lat="42.573312" lon="-0.434328">
        <ele>978.0</ele>
        <time>2019-03-26T09:53:07.000Z</time>
      </trkpt>
      <trkpt lat="42.573331" lon="-0.43433">
        <ele>979.0</ele>
        <time>2019-03-26T09:53:08.000Z</time>
      </trkpt>
      <trkpt lat="42.573349" lon="-0.434331">
        <ele>979.0</ele>
        <time>2019-03-26T09:53:09.000Z</time>
      </trkpt>
      <trkpt lat="42.573366" lon="-0.434333">
        <ele>979.0</ele>
        <time>2019-03-26T09:53:10.000Z</time>
      </trkpt>
      <trkpt lat="42.573383" lon="-0.434335">
        <ele>979.0</ele>
        <time>2019-03-26T09:53:11.000Z</time>
      </trkpt>
      <trkpt lat="42.5734" lon="-0.434336">
        <ele>979.0</ele>
        <time>2019-03-26T09:53:12.000Z</time>
      </trkpt>
      <trkpt lat="42.573417" lon="-0.434338">
        <ele>979.0</ele>
        <time>2019-03-26T09:53:13.000Z</time>
      </trkpt>
      <trkpt lat="42.573433" lon="-0.434339">
        <ele>980.0</ele>
        <time>2019-03-26T09:53:14.000Z</time>
      </trkpt>
      <trkpt lat="42.573449" lon="-0.434341">
        <ele>980.0</ele>
        <time>2019-03-26T09:53:15.000Z</time>
      </trkpt>
      <trkpt lat="42.573465" lon="-0.434343">
        <ele>980.0</ele>
        <time>2019-03-26T09:53:16.000Z</time>
      </trkpt>
      <trkpt lat="42.57348" lon="-0.434345">
        <ele>980.0</ele>
        <time>2019-03-26T09:53:17.000Z</time>
      </trkpt>
      <trkpt lat="42.573496" lon="-0.434347">
        <ele>980.0</ele>
        <time>2019-03-26T09:53:18.000Z</time>
      </trkpt>
      <trkpt lat="42.573511" lon="-0.434349">
        <ele>980.0</ele>
        <time>2019-03-26T09:53:19.000Z</time>
      </trkpt>
      <trkpt lat="42.573526" lon="-0.434351">
        <ele>980.0</ele>
        <time>2019-03-26T09:53:20.000Z</time>
      </trkpt>
      <trkpt lat="42.573542" lon="-0.434354">
        <ele>981.0</ele>
        <time>2019-03-26T09:53:21.000Z</time>
      </trkpt>
      <trkpt lat="42.573557" lon="-0.434356">
        <ele>981.0</ele>
        <time>2019-03-26T09:53:22.000Z</time>
      </trkpt>
      <trkpt lat="42.573572" lon="-0.434359">
        <ele>981.0</ele>
        <time>2019-03-26T09:53:23.000Z</time>
      </trkpt>
      <trkpt lat="42.573587" lon="-0.434361">
        <ele>981.0</ele>
        <time>2019-03-26T09:53:24.000Z</time>
      </trkpt>
      <trkpt lat="42.573602" lon="-0.434364">
        <ele>981.0</ele>
        <time>2019-03-26T09:53:25.000Z</time>
      </trkpt>
      <trkpt lat="42.573616" lon="-0.434367">
        <ele>982.0</ele>
        <time>2019-03-26T09:53:26.000Z</time>
      </trkpt>
      <trkpt lat="42.573631" lon="-0.43437">
        <ele>982.0</ele>
        <time>2019-03-26T09:53:27.000Z</time>
      </trkpt>
      <trkpt lat="42.573646" lon="-0.434372">
        <ele>982.0</ele>
        <time>2019-03-26T09:53:28.000Z</time>
      </trkpt>
      <trkpt lat="42.573661" lon="-0.434375">
        <ele>982.0</ele>
        <time>2019-03-26T09:53:29.000Z</time>
      </trkpt>
      <trkpt lat="42.573676" lon="-0.434378">
        <ele>982.0</ele>
        <time>2019-03-26T09:53:30.000Z</time>
      </trkpt>
      <trkpt lat="42.573691" lon="-0.434381">
        <ele>983.0</ele>
        <time>2019-03-26T09:53:31.000Z</time>
      </trkpt>
      <trkpt lat="42.573706" lon="-0.434384">
        <ele>983.0</ele>
        <time>2019-03-26T09:53:32.000Z</time>
      </trkpt>
      <trkpt lat="42.573722" lon="-0.434387">
        <ele>983.0</ele>
        <time>2019-03-26T09:53:33.000Z</time>
      </trkpt>
      <trkpt lat="42.573737" lon="-0.43439">
        <ele>983.0</ele>
        <time>2019-03-26T09:53:34.000Z</time>
      </trkpt>
      <trkpt lat="42.573752" lon="-0.434393">
        <ele>983.0</ele>
        <time>2019-03-26T09:53:35.000Z</time>
      </trkpt>
      <trkpt lat="42.573768" lon="-0.434396">
        <ele>983.0</ele>
        <time>2019-03-26T09:53:36.000Z</time>
      </trkpt>
      <trkpt lat="42.573783" lon="-0.434398">
        <ele>983.0</ele>
        <time>2019-03-26T09:53:37.000Z</time>
      </trkpt>
      <trkpt lat="42.573799" lon="-0.434401">
        <ele>984.0</ele>
        <time>2019-03-26T09:53:38.000Z</time>
      </trkpt>
      <trkpt lat="42.573815" lon="-0.434404">
        <ele>984.0</ele>
        <time>2019-03-26T09:53:39.000Z</time>
      </trkpt>
      <trkpt lat="42.57383" lon="-0.434406">
        <ele>984.0</ele>
        <time>2019-03-26T09:53:40.000Z</time>
      </trkpt>
      <trkpt lat="42.573846" lon="-0.434409">
        <ele>984.0</ele>
        <time>2019-03-26T09:53:41.000Z</time>
      </trkpt>
      <trkpt lat="42.573862" lon="-0.434411">
        <ele>984.0</ele>
        <time>2019-03-26T09:53:42.000Z</time>
      </trkpt>
      <trkpt lat="42.573877" lon="-0.434414">
        <ele>985.0</ele>
        <time>2019-03-26T09:53:43.000Z</time>
      </trkpt>
      <trkpt lat="42.573893" lon="-0.434416">
        <ele>985.0</ele>
        <time>2019-03-26T09:53:44.000Z</time>
      </trkpt>
      <trkpt lat="42.573909" lon="-0.434418">
        <ele>985.0</ele>
        <time>2019-03-26T09:53:45.000Z</time>
      </trkpt>
      <trkpt lat="42.573924" lon="-0.43442">
        <ele>985.0</ele>
        <time>2019-03-26T09:53:46.000Z</time>
      </trkpt>
      <trkpt lat="42.57394" lon="-0.434422">
        <ele>985.0</ele>
        <time>2019-03-26T09:53:47.000Z</time>
      </trkpt>
      <trkpt lat="42.573956" lon="-0.434424">
        <ele>986.0</ele>
        <time>2019-03-26T09:53:48.000Z</time>
      </trkpt>
      <trkpt lat="42.573971" lon="-0.434426">
        <ele>986.0</ele>
        <time>2019-03-26T09:53:49.000Z</time>
      </trkpt>
      <trkpt lat="42.573987" lon="-0.434427">
        <ele>986.0</ele>
        <time>2019-03-26T09:53:50.000Z</time>
      </trkpt>
      <trkpt lat="42.574002" lon="-0.434429">
        <ele>986.0</ele>
        <time>2019-03-26T09:53:51.000Z</time>
      </trkpt>
      <trkpt lat="42.574017" lon="-0.434431">
        <ele>987.0</ele>
        <time>2019-03-26T09:53:52.000Z</time>
      </trkpt>
      <trkpt lat="42.574033" lon="-0.434432">
        <ele>987.0</ele>
        <time>2019-03-26T09:53:53.000Z</time>
      </trkpt>
      <trkpt lat="42.574048" lon="-0.434434">
        <ele>987.0</ele>
        <time>2019-03-26T09:53:54.000Z</time>
      </trkpt>
      <trkpt lat="42.574064" lon="-0.434436">
        <ele>987.0</ele>
        <time>2019-03-26T09:53:55.000Z</time>
      </trkpt>
      <trkpt lat="42.574079" lon="-0.434438">
        <ele>988.0</ele>
        <time>2019-03-26T09:53:56.000Z</time>
      </trkpt>
      <trkpt lat="42.574094" lon="-0.43444">
        <ele>988.0</ele>
        <time>2019-03-26T09:53:57.000Z</time>
      </trkpt>
      <trkpt lat="42.574109" lon="-0.434442">
        <ele>988.0</ele>
        <time>2019-03-26T09:53:58.000Z</time>
      </trkpt>
      <trkpt lat="42.574125" lon="-0.434444">
        <ele>988.0</ele>
        <time>2019-03-26T09:53:59.000Z</time>
      </trkpt>
      <trkpt lat="42.57414" lon="-0.434446">
        <ele>989.0</ele>
        <time>2019-03-26T09:54:00.000Z</time>
      </trkpt>
      <trkpt lat="42.574155" lon="-0.434449">
        <ele>989.0</ele>
        <time>2019-03-26T09:54:01.000Z</time>
      </trkpt>
      <trkpt lat="42.57417" lon="-0.434451">
        <ele>989.0</ele>
        <time>2019-03-26T09:54:02.000Z</time>
      </trkpt>
      <trkpt lat="42.574186" lon="-0.434454">
        <ele>989.0</ele>
        <time>2019-03-26T09:54:03.000Z</time>
      </trkpt>
      <trkpt lat="42.574201" lon="-0.434457">
        <ele>990.0</ele>
        <time>2019-03-26T09:54:04.000Z</time>
      </trkpt>
      <trkpt lat="42.574217" lon="-0.43446">
        <ele>990.0</ele>
        <time>2019-03-26T09:54:05.000Z</time>
      </trkpt>
      <trkpt lat="42.574232" lon="-0.434463">
        <ele>990.0</ele>
        <time>2019-03-26T09:54:06.000Z</time>
      </trkpt>
      <trkpt lat="42.574248" lon="-0.434465">
        <ele>990.0</ele>
        <time>2019-03-26T09:54:07.000Z</time>
      </trkpt>
      <trkpt lat="42.574264" lon="-0.434468">
        <ele>990.0</ele>
        <time>2019-03-26T09:54:08.000Z</time>
      </trkpt>
      <trkpt lat="42.574281" lon="-0.434471">
        <ele>990.0</ele>
        <time>2019-03-26T09:54:09.000Z</time>
      </trkpt>
      <trkpt lat="42.574298" lon="-0.434473">
        <ele>991.0</ele>
        <time>2019-03-26T09:54:10.000Z</time>
      </trkpt>
      <trkpt lat="42.574315" lon="-0.434475">
        <ele>991.0</ele>
        <time>2019-03-26T09:54:11.000Z</time>
      </trkpt>
      <trkpt lat="42.574332" lon="-0.434477">
        <ele>991.0</ele>
        <time>2019-03-26T09:54:12.000Z</time>
      </trkpt>
      <trkpt lat="42.57435" lon="-0.434479">
        <ele>991.0</ele>
        <time>2019-03-26T09:54:13.000Z</time>
      </trkpt>
      <trkpt lat="42.574369" lon="-0.43448">
        <ele>991.0</ele>
        <time>2019-03-26T09:54:14.000Z</time>
      </trkpt>
      <trkpt lat="42.574388" lon="-0.43448">
        <ele>992.0</ele>
        <time>2019-03-26T09:54:15.000Z</time>
      </trkpt>
      <trkpt lat="42.574407" lon="-0.434481">
        <ele>992.0</ele>
        <time>2019-03-26T09:54:16.000Z</time>
      </trkpt>
      <trkpt lat="42.574427" lon="-0.434481">
        <ele>992.0</ele>
        <time>2019-03-26T09:54:17.000Z</time>
      </trkpt>
      <trkpt lat="42.574447" lon="-0.434481">
        <ele>992.0</ele>
        <time>2019-03-26T09:54:18.000Z</time>
      </trkpt>
      <trkpt lat="42.574468" lon="-0.434481">
        <ele>992.0</ele>
        <time>2019-03-26T09:54:19.000Z</time>
      </trkpt>
      <trkpt lat="42.574488" lon="-0.434481">
        <ele>992.0</ele>
        <time>2019-03-26T09:54:20.000Z</time>
      </trkpt>
      <trkpt lat="42.574509" lon="-0.434481">
        <ele>992.0</ele>
        <time>2019-03-26T09:54:21.000Z</time>
      </trkpt>
      <trkpt lat="42.574531" lon="-0.434481">
        <ele>992.0</ele>
        <time>2019-03-26T09:54:22.000Z</time>
      </trkpt>
      <trkpt lat="42.574552" lon="-0.434482">
        <ele>992.0</ele>
        <time>2019-03-26T09:54:23.000Z</time>
      </trkpt>
      <trkpt lat="42.574573" lon="-0.434482">
        <ele>992.0</ele>
        <time>2019-03-26T09:54:24.000Z</time>
      </trkpt>
      <trkpt lat="42.574595" lon="-0.434483">
        <ele>993.0</ele>
        <time>2019-03-26T09:54:25.000Z</time>
      </trkpt>
      <trkpt lat="42.574616" lon="-0.434485">
        <ele>993.0</ele>
        <time>2019-03-26T09:54:26.000Z</time>
      </trkpt>
      <trkpt lat="42.574637" lon="-0.434487">
        <ele>993.0</ele>
        <time>2019-03-26T09:54:27.000Z</time>
      </trkpt>
      <trkpt lat="42.574659" lon="-0.43449">
        <ele>993.0</ele>
        <time>2019-03-26T09:54:28.000Z</time>
      </trkpt>
      <trkpt lat="42.57468" lon="-0.434493">
        <ele>993.0</ele>
        <time>2019-03-26T09:54:29.000Z</time>
      </trkpt>
      <trkpt lat="42.574701" lon="-0.434497">
        <ele>993.0</ele>
        <time>2019-03-26T09:54:30.000Z</time>
      </trkpt>
      <trkpt lat="42.574721" lon="-0.434502">
        <ele>993.0</ele>
        <time>2019-03-26T09:54:31.000Z</time>
      </trkpt>
      <trkpt lat="42.574742" lon="-0.434506">
        <ele>993.0</ele>
        <time>2019-03-26T09:54:32.000Z</time>
      </trkpt>
      <trkpt lat="42.574762" lon="-0.434511">
        <ele>993.0</ele>
        <time>2019-03-26T09:54:33.000Z</time>
      </trkpt>
      <trkpt lat="42.574783" lon="-0.434515">
        <ele>993.0</ele>
        <time>2019-03-26T09:54:34.000Z</time>
      </trkpt>
      <trkpt lat="42.574803" lon="-0.434519">
        <ele>994.0</ele>
        <time>2019-03-26T09:54:35.000Z</time>
      </trkpt>
      <trkpt lat="42.574823" lon="-0.434522">
        <ele>994.0</ele>
        <time>2019-03-26T09:54:36.000Z</time>
      </trkpt>
      <trkpt lat="42.574843" lon="-0.434525">
        <ele>994.0</ele>
        <time>2019-03-26T09:54:37.000Z</time>
      </trkpt>
      <trkpt lat="42.574862" lon="-0.434527">
        <ele>994.0</ele>
        <time>2019-03-26T09:54:38.000Z</time>
      </trkpt>
      <trkpt lat="42.574882" lon="-0.434528">
        <ele>994.0</ele>
        <time>2019-03-26T09:54:39.000Z</time>
      </trkpt>
      <trkpt lat="42.574901" lon="-0.434528">
        <ele>994.0</ele>
        <time>2019-03-26T09:54:40.000Z</time>
      </trkpt>
      <trkpt lat="42.57492" lon="-0.434527">
        <ele>994.0</ele>
        <time>2019-03-26T09:54:41.000Z</time>
      </trkpt>
      <trkpt lat="42.57494" lon="-0.434523">
        <ele>994.0</ele>
        <time>2019-03-26T09:54:42.000Z</time>
      </trkpt>
      <trkpt lat="42.574959" lon="-0.434519">
        <ele>995.0</ele>
        <time>2019-03-26T09:54:43.000Z</time>
      </trkpt>
      <trkpt lat="42.574978" lon="-0.434511">
        <ele>995.0</ele>
        <time>2019-03-26T09:54:44.000Z</time>
      </trkpt>
      <trkpt lat="42.574997" lon="-0.434502">
        <ele>995.0</ele>
        <time>2019-03-26T09:54:45.000Z</time>
      </trkpt>
      <trkpt lat="42.575016" lon="-0.434489">
        <ele>995.0</ele>
        <time>2019-03-26T09:54:46.000Z</time>
      </trkpt>
      <trkpt lat="42.575037" lon="-0.434473">
        <ele>995.0</ele>
        <time>2019-03-26T09:54:47.000Z</time>
      </trkpt>
      <trkpt lat="42.575057" lon="-0.434453">
        <ele>995.0</ele>
        <time>2019-03-26T09:54:48.000Z</time>
      </trkpt>
      <trkpt lat="42.575079" lon="-0.434428">
        <ele>995.0</ele>
        <time>2019-03-26T09:54:49.000Z</time>
      </trkpt>
      <trkpt lat="42.575102" lon="-0.434399">
        <ele>995.0</ele>
        <time>2019-03-26T09:54:50.000Z</time>
      </trkpt>
      <trkpt lat="42.575124" lon="-0.434367">
        <ele>994.0</ele>
        <time>2019-03-26T09:54:51.000Z</time>
      </trkpt>
      <trkpt lat="42.575147" lon="-0.434334">
        <ele>994.0</ele>
        <time>2019-03-26T09:54:52.000Z</time>
      </trkpt>
      <trkpt lat="42.575167" lon="-0.434301">
        <ele>994.0</ele>
        <time>2019-03-26T09:54:53.000Z</time>
      </trkpt>
      <trkpt lat="42.575185" lon="-0.43427">
        <ele>994.0</ele>
        <time>2019-03-26T09:54:54.000Z</time>
      </trkpt>
      <trkpt lat="42.5752" lon="-0.434244">
        <ele>994.0</ele>
        <time>2019-03-26T09:54:55.000Z</time>
      </trkpt>
      <trkpt lat="42.575212" lon="-0.434222">
        <ele>994.0</ele>
        <time>2019-03-26T09:54:56.000Z</time>
      </trkpt>
      <trkpt lat="42.57522" lon="-0.434202">
        <ele>994.0</ele>
        <time>2019-03-26T09:54:57.000Z</time>
      </trkpt>
      <trkpt lat="42.575225" lon="-0.434182">
        <ele>993.0</ele>
        <time>2019-03-26T09:54:58.000Z</time>
      </trkpt>
      <trkpt lat="42.575229" lon="-0.434157">
        <ele>993.0</ele>
        <time>2019-03-26T09:54:59.000Z</time>
      </trkpt>
      <trkpt lat="42.575232" lon="-0.434126">
        <ele>993.0</ele>
        <time>2019-03-26T09:55:00.000Z</time>
      </trkpt>
      <trkpt lat="42.575235" lon="-0.434088">
        <ele>993.0</ele>
        <time>2019-03-26T09:55:01.000Z</time>
      </trkpt>
      <trkpt lat="42.575239" lon="-0.434042">
        <ele>992.0</ele>
        <time>2019-03-26T09:55:02.000Z</time>
      </trkpt>
      <trkpt lat="42.575244" lon="-0.433988">
        <ele>992.0</ele>
        <time>2019-03-26T09:55:03.000Z</time>
      </trkpt>
      <trkpt lat="42.575249" lon="-0.433927">
        <ele>992.0</ele>
        <time>2019-03-26T09:55:04.000Z</time>
      </trkpt>
      <trkpt lat="42.575255" lon="-0.433861">
        <ele>991.0</ele>
        <time>2019-03-26T09:55:05.000Z</time>
      </trkpt>
      <trkpt lat="42.575261" lon="-0.433788">
        <ele>990.0</ele>
        <time>2019-03-26T09:55:06.000Z</time>
      </trkpt>
      <trkpt lat="42.575267" lon="-0.433711">
        <ele>990.0</ele>
        <time>2019-03-26T09:55:07.000Z</time>
      </trkpt>
      <trkpt lat="42.575272" lon="-0.43363">
        <ele>989.0</ele>
        <time>2019-03-26T09:55:08.000Z</time>
      </trkpt>
      <trkpt lat="42.575277" lon="-0.433545">
        <ele>988.0</ele>
        <time>2019-03-26T09:55:09.000Z</time>
      </trkpt>
      <trkpt lat="42.57528" lon="-0.433457">
        <ele>988.0</ele>
        <time>2019-03-26T09:55:10.000Z</time>
      </trkpt>
      <trkpt lat="42.575283" lon="-0.433369">
        <ele>987.0</ele>
        <time>2019-03-26T09:55:11.000Z</time>
      </trkpt>
      <trkpt lat="42.57529" lon="-0.433281">
        <ele>987.0</ele>
        <time>2019-03-26T09:55:12.000Z</time>
      </trkpt>
      <trkpt lat="42.575301" lon="-0.433194">
        <ele>986.0</ele>
        <time>2019-03-26T09:55:13.000Z</time>
      </trkpt>
      <trkpt lat="42.575318" lon="-0.433112">
        <ele>985.0</ele>
        <time>2019-03-26T09:55:14.000Z</time>
      </trkpt>
      <trkpt lat="42.575342" lon="-0.433033">
        <ele>985.0</ele>
        <time>2019-03-26T09:55:15.000Z</time>
      </trkpt>
      <trkpt lat="42.575372" lon="-0.432961">
        <ele>985.0</ele>
        <time>2019-03-26T09:55:16.000Z</time>
      </trkpt>
      <trkpt lat="42.575408" lon="-0.432894">
        <ele>984.0</ele>
        <time>2019-03-26T09:55:17.000Z</time>
      </trkpt>
      <trkpt lat="42.575449" lon="-0.432832">
        <ele>984.0</ele>
        <time>2019-03-26T09:55:18.000Z</time>
      </trkpt>
      <trkpt lat="42.575491" lon="-0.432773">
        <ele>984.0</ele>
        <time>2019-03-26T09:55:19.000Z</time>
      </trkpt>
      <trkpt lat="42.57553" lon="-0.432714">
        <ele>984.0</ele>
        <time>2019-03-26T09:55:20.000Z</time>
      </trkpt>
      <trkpt lat="42.57556" lon="-0.432652">
        <ele>983.0</ele>
        <time>2019-03-26T09:55:21.000Z</time>
      </trkpt>
      <trkpt lat="42.575579" lon="-0.43259">
        <ele>983.0</ele>
        <time>2019-03-26T09:55:22.000Z</time>
      </trkpt>
      <trkpt lat="42.575583" lon="-0.432531">
        <ele>983.0</ele>
        <time>2019-03-26T09:55:23.000Z</time>
      </trkpt>
      <trkpt lat="42.575574" lon="-0.432479">
        <ele>983.0</ele>
        <time>2019-03-26T09:55:24.000Z</time>
      </trkpt>
      <trkpt lat="42.57556" lon="-0.432436">
        <ele>982.0</ele>
        <time>2019-03-26T09:55:25.000Z</time>
      </trkpt>
      <trkpt lat="42.575553" lon="-0.432401">
        <ele>982.0</ele>
        <time>2019-03-26T09:55:26.000Z</time>
      </trkpt>
      <trkpt lat="42.575551" lon="-0.432366">
        <ele>982.0</ele>
        <time>2019-03-26T09:55:27.000Z</time>
      </trkpt>
      <trkpt lat="42.575554" lon="-0.432321">
        <ele>981.0</ele>
        <time>2019-03-26T09:55:28.000Z</time>
      </trkpt>
      <trkpt lat="42.575562" lon="-0.432268">
        <ele>981.0</ele>
        <time>2019-03-26T09:55:29.000Z</time>
      </trkpt>
      <trkpt lat="42.575575" lon="-0.432213">
        <ele>981.0</ele>
        <time>2019-03-26T09:55:30.000Z</time>
      </trkpt>
      <trkpt lat="42.575592" lon="-0.432166">
        <ele>980.0</ele>
        <time>2019-03-26T09:55:31.000Z</time>
      </trkpt>
      <trkpt lat="42.575611" lon="-0.43213">
        <ele>980.0</ele>
        <time>2019-03-26T09:55:32.000Z</time>
      </trkpt>
      <trkpt lat="42.575631" lon="-0.4321">
        <ele>980.0</ele>
        <time>2019-03-26T09:55:33.000Z</time>
      </trkpt>
      <trkpt lat="42.575649" lon="-0.432076">
        <ele>980.0</ele>
        <time>2019-03-26T09:55:34.000Z</time>
      </trkpt>
      <trkpt lat="42.575664" lon="-0.432056">
        <ele>981.0</ele>
        <time>2019-03-26T09:55:35.000Z</time>
      </trkpt>
      <trkpt lat="42.575676" lon="-0.432037">
        <ele>981.0</ele>
        <time>2019-03-26T09:55:36.000Z</time>
      </trkpt>
      <trkpt lat="42.575686" lon="-0.43202">
        <ele>981.0</ele>
        <time>2019-03-26T09:55:37.000Z</time>
      </trkpt>
      <trkpt lat="42.575696" lon="-0.432002">
        <ele>981.0</ele>
        <time>2019-03-26T09:55:38.000Z</time>
      </trkpt>
      <trkpt lat="42.575705" lon="-0.431984">
        <ele>982.0</ele>
        <time>2019-03-26T09:55:39.000Z</time>
      </trkpt>
      <trkpt lat="42.575712" lon="-0.431966">
        <ele>982.0</ele>
        <time>2019-03-26T09:55:40.000Z</time>
      </trkpt>
      <trkpt lat="42.575719" lon="-0.431948">
        <ele>982.0</ele>
        <time>2019-03-26T09:55:41.000Z</time>
      </trkpt>
      <trkpt lat="42.575726" lon="-0.431929">
        <ele>983.0</ele>
        <time>2019-03-26T09:55:42.000Z</time>
      </trkpt>
      <trkpt lat="42.575731" lon="-0.431911">
        <ele>983.0</ele>
        <time>2019-03-26T09:55:43.000Z</time>
      </trkpt>
      <trkpt lat="42.575736" lon="-0.431892">
        <ele>983.0</ele>
        <time>2019-03-26T09:55:44.000Z</time>
      </trkpt>
      <trkpt lat="42.575741" lon="-0.431873">
        <ele>984.0</ele>
        <time>2019-03-26T09:55:45.000Z</time>
      </trkpt>
      <trkpt lat="42.575745" lon="-0.431854">
        <ele>984.0</ele>
        <time>2019-03-26T09:55:46.000Z</time>
      </trkpt>
      <trkpt lat="42.575749" lon="-0.431836">
        <ele>984.0</ele>
        <time>2019-03-26T09:55:47.000Z</time>
      </trkpt>
      <trkpt lat="42.575752" lon="-0.431817">
        <ele>984.0</ele>
        <time>2019-03-26T09:55:48.000Z</time>
      </trkpt>
      <trkpt lat="42.575756" lon="-0.431798">
        <ele>985.0</ele>
        <time>2019-03-26T09:55:49.000Z</time>
      </trkpt>
      <trkpt lat="42.575758" lon="-0.431779">
        <ele>985.0</ele>
        <time>2019-03-26T09:55:50.000Z</time>
      </trkpt>
      <trkpt lat="42.575761" lon="-0.431761">
        <ele>985.0</ele>
        <time>2019-03-26T09:55:51.000Z</time>
      </trkpt>
      <trkpt lat="42.575764" lon="-0.431742">
        <ele>986.0</ele>
        <time>2019-03-26T09:55:52.000Z</time>
      </trkpt>
      <trkpt lat="42.575767" lon="-0.431724">
        <ele>986.0</ele>
        <time>2019-03-26T09:55:53.000Z</time>
      </trkpt>
      <trkpt lat="42.575769" lon="-0.431706">
        <ele>986.0</ele>
        <time>2019-03-26T09:55:54.000Z</time>
      </trkpt>
      <trkpt lat="42.575771" lon="-0.431687">
        <ele>986.0</ele>
        <time>2019-03-26T09:55:55.000Z</time>
      </trkpt>
      <trkpt lat="42.575773" lon="-0.431669">
        <ele>987.0</ele>
        <time>2019-03-26T09:55:56.000Z</time>
      </trkpt>
      <trkpt lat="42.575775" lon="-0.43165">
        <ele>987.0</ele>
        <time>2019-03-26T09:55:57.000Z</time>
      </trkpt>
      <trkpt lat="42.575776" lon="-0.431632">
        <ele>987.0</ele>
        <time>2019-03-26T09:55:58.000Z</time>
      </trkpt>
      <trkpt lat="42.575777" lon="-0.431613">
        <ele>987.0</ele>
        <time>2019-03-26T09:55:59.000Z</time>
      </trkpt>
      <trkpt lat="42.575778" lon="-0.431594">
        <ele>988.0</ele>
        <time>2019-03-26T09:56:00.000Z</time>
      </trkpt>
      <trkpt lat="42.575777" lon="-0.431575">
        <ele>988.0</ele>
        <time>2019-03-26T09:56:01.000Z</time>
      </trkpt>
      <trkpt lat="42.575777" lon="-0.431556">
        <ele>988.0</ele>
        <time>2019-03-26T09:56:02.000Z</time>
      </trkpt>
      <trkpt lat="42.575775" lon="-0.431536">
        <ele>988.0</ele>
        <time>2019-03-26T09:56:03.000Z</time>
      </trkpt>
      <trkpt lat="42.575773" lon="-0.431516">
        <ele>988.0</ele>
        <time>2019-03-26T09:56:04.000Z</time>
      </trkpt>
      <trkpt lat="42.575771" lon="-0.431495">
        <ele>988.0</ele>
        <time>2019-03-26T09:56:05.000Z</time>
      </trkpt>
      <trkpt lat="42.575767" lon="-0.431475">
        <ele>989.0</ele>
        <time>2019-03-26T09:56:06.000Z</time>
      </trkpt>
      <trkpt lat="42.575763" lon="-0.431454">
        <ele>989.0</ele>
        <time>2019-03-26T09:56:07.000Z</time>
      </trkpt>
      <trkpt lat="42.57576" lon="-0.431433">
        <ele>989.0</ele>
        <time>2019-03-26T09:56:08.000Z</time>
      </trkpt>
      <trkpt lat="42.575756" lon="-0.431414">
        <ele>989.0</ele>
        <time>2019-03-26T09:56:09.000Z</time>
      </trkpt>
      <trkpt lat="42.575754" lon="-0.431396">
        <ele>989.0</ele>
        <time>2019-03-26T09:56:10.000Z</time>
      </trkpt>
      <trkpt lat="42.575752" lon="-0.431378">
        <ele>990.0</ele>
        <time>2019-03-26T09:56:11.000Z</time>
      </trkpt>
      <trkpt lat="42.57575" lon="-0.431361">
        <ele>990.0</ele>
        <time>2019-03-26T09:56:12.000Z</time>
      </trkpt>
      <trkpt lat="42.575748" lon="-0.431344">
        <ele>990.0</ele>
        <time>2019-03-26T09:56:13.000Z</time>
      </trkpt>
      <trkpt lat="42.575745" lon="-0.431327">
        <ele>990.0</ele>
        <time>2019-03-26T09:56:14.000Z</time>
      </trkpt>
      <trkpt lat="42.575742" lon="-0.431311">
        <ele>991.0</ele>
        <time>2019-03-26T09:56:15.000Z</time>
      </trkpt>
      <trkpt lat="42.575738" lon="-0.431294">
        <ele>991.0</ele>
        <time>2019-03-26T09:56:16.000Z</time>
      </trkpt>
      <trkpt lat="42.575734" lon="-0.431277">
        <ele>991.0</ele>
        <time>2019-03-26T09:56:17.000Z</time>
      </trkpt>
      <trkpt lat="42.57573" lon="-0.431261">
        <ele>992.0</ele>
        <time>2019-03-26T09:56:18.000Z</time>
      </trkpt>
      <trkpt lat="42.575725" lon="-0.431244">
        <ele>992.0</ele>
        <time>2019-03-26T09:56:19.000Z</time>
      </trkpt>
      <trkpt lat="42.575721" lon="-0.431228">
        <ele>992.0</ele>
        <time>2019-03-26T09:56:20.000Z</time>
      </trkpt>
      <trkpt lat="42.575717" lon="-0.431211">
        <ele>992.0</ele>
        <time>2019-03-26T09:56:21.000Z</time>
      </trkpt>
      <trkpt lat="42.575713" lon="-0.431195">
        <ele>992.0</ele>
        <time>2019-03-26T09:56:22.000Z</time>
      </trkpt>
      <trkpt lat="42.575709" lon="-0.431179">
        <ele>993.0</ele>
        <time>2019-03-26T09:56:23.000Z</time>
      </trkpt>
      <trkpt lat="42.575705" lon="-0.431163">
        <ele>993.0</ele>
        <time>2019-03-26T09:56:24.000Z</time>
      </trkpt>
      <trkpt lat="42.575701" lon="-0.431147">
        <ele>993.0</ele>
        <time>2019-03-26T09:56:25.000Z</time>
      </trkpt>
      <trkpt lat="42.575697" lon="-0.431131">
        <ele>993.0</ele>
        <time>2019-03-26T09:56:26.000Z</time>
      </trkpt>
      <trkpt lat="42.575693" lon="-0.431115">
        <ele>993.0</ele>
        <time>2019-03-26T09:56:27.000Z</time>
      </trkpt>
      <trkpt lat="42.575689" lon="-0.431099">
        <ele>993.0</ele>
        <time>2019-03-26T09:56:28.000Z</time>
      </trkpt>
      <trkpt lat="42.575685" lon="-0.431084">
        <ele>993.0</ele>
        <time>2019-03-26T09:56:29.000Z</time>
      </trkpt>
      <trkpt lat="42.575681" lon="-0.431068">
        <ele>994.0</ele>
        <time>2019-03-26T09:56:30.000Z</time>
      </trkpt>
      <trkpt lat="42.575677" lon="-0.431052">
        <ele>994.0</ele>
        <time>2019-03-26T09:56:31.000Z</time>
      </trkpt>
      <trkpt lat="42.575673" lon="-0.431036">
        <ele>994.0</ele>
        <time>2019-03-26T09:56:32.000Z</time>
      </trkpt>
      <trkpt lat="42.575669" lon="-0.431021">
        <ele>994.0</ele>
        <time>2019-03-26T09:56:33.000Z</time>
      </trkpt>
      <trkpt lat="42.575666" lon="-0.431005">
        <ele>994.0</ele>
        <time>2019-03-26T09:56:34.000Z</time>
      </trkpt>
      <trkpt lat="42.575662" lon="-0.430989">
        <ele>995.0</ele>
        <time>2019-03-26T09:56:35.000Z</time>
      </trkpt>
      <trkpt lat="42.575658" lon="-0.430973">
        <ele>995.0</ele>
        <time>2019-03-26T09:56:36.000Z</time>
      </trkpt>
      <trkpt lat="42.575654" lon="-0.430958">
        <ele>995.0</ele>
        <time>2019-03-26T09:56:37.000Z</time>
      </trkpt>
      <trkpt lat="42.57565" lon="-0.430942">
        <ele>995.0</ele>
        <time>2019-03-26T09:56:38.000Z</time>
      </trkpt>
      <trkpt lat="42.575646" lon="-0.430926">
        <ele>996.0</ele>
        <time>2019-03-26T09:56:39.000Z</time>
      </trkpt>
      <trkpt lat="42.575642" lon="-0.43091">
        <ele>996.0</ele>
        <time>2019-03-26T09:56:40.000Z</time>
      </trkpt>
      <trkpt lat="42.575638" lon="-0.430894">
        <ele>996.0</ele>
        <time>2019-03-26T09:56:41.000Z</time>
      </trkpt>
      <trkpt lat="42.575633" lon="-0.430879">
        <ele>996.0</ele>
        <time>2019-03-26T09:56:42.000Z</time>
      </trkpt>
      <trkpt lat="42.575628" lon="-0.430863">
        <ele>996.0</ele>
        <time>2019-03-26T09:56:43.000Z</time>
      </trkpt>
      <trkpt lat="42.575624" lon="-0.430847">
        <ele>997.0</ele>
        <time>2019-03-26T09:56:44.000Z</time>
      </trkpt>
      <trkpt lat="42.575619" lon="-0.430831">
        <ele>997.0</ele>
        <time>2019-03-26T09:56:45.000Z</time>
      </trkpt>
      <trkpt lat="42.575613" lon="-0.430815">
        <ele>997.0</ele>
        <time>2019-03-26T09:56:46.000Z</time>
      </trkpt>
      <trkpt lat="42.575608" lon="-0.430799">
        <ele>997.0</ele>
        <time>2019-03-26T09:56:47.000Z</time>
      </trkpt>
      <trkpt lat="42.575602" lon="-0.430783">
        <ele>998.0</ele>
        <time>2019-03-26T09:56:48.000Z</time>
      </trkpt>
      <trkpt lat="42.575596" lon="-0.430768">
        <ele>998.0</ele>
        <time>2019-03-26T09:56:49.000Z</time>
      </trkpt>
      <trkpt lat="42.57559" lon="-0.430752">
        <ele>998.0</ele>
        <time>2019-03-26T09:56:50.000Z</time>
      </trkpt>
      <trkpt lat="42.575583" lon="-0.430736">
        <ele>998.0</ele>
        <time>2019-03-26T09:56:51.000Z</time>
      </trkpt>
      <trkpt lat="42.575577" lon="-0.430721">
        <ele>998.0</ele>
        <time>2019-03-26T09:56:52.000Z</time>
      </trkpt>
      <trkpt lat="42.57557" lon="-0.430705">
        <ele>998.0</ele>
        <time>2019-03-26T09:56:53.000Z</time>
      </trkpt>
      <trkpt lat="42.575563" lon="-0.43069">
        <ele>999.0</ele>
        <time>2019-03-26T09:56:54.000Z</time>
      </trkpt>
      <trkpt lat="42.575556" lon="-0.430675">
        <ele>999.0</ele>
        <time>2019-03-26T09:56:55.000Z</time>
      </trkpt>
      <trkpt lat="42.575549" lon="-0.43066">
        <ele>999.0</ele>
        <time>2019-03-26T09:56:56.000Z</time>
      </trkpt>
      <trkpt lat="42.575542" lon="-0.430645">
        <ele>999.0</ele>
        <time>2019-03-26T09:56:57.000Z</time>
      </trkpt>
      <trkpt lat="42.575534" lon="-0.430631">
        <ele>999.0</ele>
        <time>2019-03-26T09:56:58.000Z</time>
      </trkpt>
      <trkpt lat="42.575527" lon="-0.430616">
        <ele>1000.0</ele>
        <time>2019-03-26T09:56:59.000Z</time>
      </trkpt>
      <trkpt lat="42.57552" lon="-0.430603">
        <ele>1000.0</ele>
        <time>2019-03-26T09:57:00.000Z</time>
      </trkpt>
      <trkpt lat="42.575512" lon="-0.430589">
        <ele>1000.0</ele>
        <time>2019-03-26T09:57:01.000Z</time>
      </trkpt>
      <trkpt lat="42.575505" lon="-0.430576">
        <ele>1000.0</ele>
        <time>2019-03-26T09:57:02.000Z</time>
      </trkpt>
      <trkpt lat="42.575498" lon="-0.430562">
        <ele>1001.0</ele>
        <time>2019-03-26T09:57:03.000Z</time>
      </trkpt>
      <trkpt lat="42.57549" lon="-0.430549">
        <ele>1001.0</ele>
        <time>2019-03-26T09:57:04.000Z</time>
      </trkpt>
      <trkpt lat="42.575483" lon="-0.430536">
        <ele>1001.0</ele>
        <time>2019-03-26T09:57:05.000Z</time>
      </trkpt>
      <trkpt lat="42.575476" lon="-0.430523">
        <ele>1001.0</ele>
        <time>2019-03-26T09:57:06.000Z</time>
      </trkpt>
      <trkpt lat="42.575468" lon="-0.43051">
        <ele>1001.0</ele>
        <time>2019-03-26T09:57:07.000Z</time>
      </trkpt>
      <trkpt lat="42.575461" lon="-0.430497">
        <ele>1002.0</ele>
        <time>2019-03-26T09:57:08.000Z</time>
      </trkpt>
      <trkpt lat="42.575453" lon="-0.430483">
        <ele>1002.0</ele>
        <time>2019-03-26T09:57:09.000Z</time>
      </trkpt>
      <trkpt lat="42.575445" lon="-0.43047">
        <ele>1002.0</ele>
        <time>2019-03-26T09:57:10.000Z</time>
      </trkpt>
      <trkpt lat="42.575438" lon="-0.430456">
        <ele>1002.0</ele>
        <time>2019-03-26T09:57:11.000Z</time>
      </trkpt>
      <trkpt lat="42.57543" lon="-0.430441">
        <ele>1002.0</ele>
        <time>2019-03-26T09:57:12.000Z</time>
      </trkpt>
      <trkpt lat="42.575422" lon="-0.430427">
        <ele>1002.0</ele>
        <time>2019-03-26T09:57:13.000Z</time>
      </trkpt>
      <trkpt lat="42.575414" lon="-0.430411">
        <ele>1003.0</ele>
        <time>2019-03-26T09:57:14.000Z</time>
      </trkpt>
      <trkpt lat="42.575406" lon="-0.430396">
        <ele>1003.0</ele>
        <time>2019-03-26T09:57:15.000Z</time>
      </trkpt>
      <trkpt lat="42.575398" lon="-0.43038">
        <ele>1003.0</ele>
        <time>2019-03-26T09:57:16.000Z</time>
      </trkpt>
      <trkpt lat="42.57539" lon="-0.430364">
        <ele>1003.0</ele>
        <time>2019-03-26T09:57:17.000Z</time>
      </trkpt>
      <trkpt lat="42.575382" lon="-0.430349">
        <ele>1004.0</ele>
        <time>2019-03-26T09:57:18.000Z</time>
      </trkpt>
      <trkpt lat="42.575376" lon="-0.430336">
        <ele>1004.0</ele>
        <time>2019-03-26T09:57:19.000Z</time>
      </trkpt>
      <trkpt lat="42.57537" lon="-0.430324">
        <ele>1004.0</ele>
        <time>2019-03-26T09:57:20.000Z</time>
      </trkpt>
      <trkpt lat="42.575365" lon="-0.430314">
        <ele>1004.0</ele>
        <time>2019-03-26T09:57:21.000Z</time>
      </trkpt>
      <trkpt lat="42.575361" lon="-0.430306">
        <ele>1004.0</ele>
        <time>2019-03-26T09:57:22.000Z</time>
      </trkpt>
      <trkpt lat="42.575359" lon="-0.430301">
        <ele>1004.0</ele>
        <time>2019-03-26T09:57:23.000Z</time>
      </trkpt>
      <trkpt lat="42.575357" lon="-0.430297">
        <ele>1005.0</ele>
        <time>2019-03-26T09:57:24.000Z</time>
      </trkpt>
      <trkpt lat="42.575356" lon="-0.430295">
        <ele>1005.0</ele>
        <time>2019-03-26T09:57:25.000Z</time>
      </trkpt>
      <trkpt lat="42.575355" lon="-0.430294">
        <ele>1005.0</ele>
        <time>2019-03-26T09:57:26.000Z</time>
      </trkpt>
      <trkpt lat="42.575355" lon="-0.430293">
        <ele>1005.0</ele>
        <time>2019-03-26T09:57:27.000Z</time>
      </trkpt>
      <trkpt lat="42.575355" lon="-0.430293">
        <ele>1005.0</ele>
        <time>2019-03-26T09:57:28.000Z</time>
      </trkpt>
      <trkpt lat="42.575355" lon="-0.430293">
        <ele>1005.0</ele>
        <time>2019-03-26T09:57:29.000Z</time>
      </trkpt>
      <trkpt lat="42.575355" lon="-0.430293">
        <ele>1005.0</ele>
        <time>2019-03-26T09:57:30.000Z</time>
      </trkpt>
      <trkpt lat="42.575355" lon="-0.430293">
        <ele>1005.0</ele>
        <time>2019-03-26T09:57:31.000Z</time>
      </trkpt>
      <trkpt lat="42.575355" lon="-0.430293">
        <ele>1005.0</ele>
        <time>2019-03-26T09:57:32.000Z</time>
      </trkpt>
      <trkpt lat="42.575355" lon="-0.430293">
        <ele>1005.0</ele>
        <time>2019-03-26T09:57:33.000Z</time>
      </trkpt>
      <trkpt lat="42.575355" lon="-0.430293">
        <ele>1005.0</ele>
        <time>2019-03-26T09:57:34.000Z</time>
      </trkpt>
      <trkpt lat="42.575355" lon="-0.430293">
        <ele>1004.0</ele>
        <time>2019-03-26T09:57:35.000Z</time>
      </trkpt>
      <trkpt lat="42.575355" lon="-0.430293">
        <ele>1004.0</ele>
        <time>2019-03-26T09:57:36.000Z</time>
      </trkpt>
      <trkpt lat="42.575355" lon="-0.430293">
        <ele>1004.0</ele>
        <time>2019-03-26T09:57:37.000Z</time>
      </trkpt>
      <trkpt lat="42.575355" lon="-0.430293">
        <ele>1004.0</ele>
        <time>2019-03-26T09:57:38.000Z</time>
      </trkpt>
      <trkpt lat="42.575355" lon="-0.430293">
        <ele>1004.0</ele>
        <time>2019-03-26T09:57:39.000Z</time>
      </trkpt>
      <trkpt lat="42.575355" lon="-0.430293">
        <ele>1004.0</ele>
        <time>2019-03-26T09:57:40.000Z</time>
      </trkpt>
      <trkpt lat="42.575355" lon="-0.430293">
        <ele>1004.0</ele>
        <time>2019-03-26T09:57:41.000Z</time>
      </trkpt>
      <trkpt lat="42.575355" lon="-0.430293">
        <ele>1004.0</ele>
        <time>2019-03-26T09:57:42.000Z</time>
      </trkpt>
      <trkpt lat="42.575355" lon="-0.430293">
        <ele>1004.0</ele>
        <time>2019-03-26T09:57:43.000Z</time>
      </trkpt>
      <trkpt lat="42.575355" lon="-0.430293">
        <ele>1004.0</ele>
        <time>2019-03-26T09:57:44.000Z</time>
      </trkpt>
      <trkpt lat="42.575355" lon="-0.430293">
        <ele>1004.0</ele>
        <time>2019-03-26T09:57:45.000Z</time>
      </trkpt>
      <trkpt lat="42.575355" lon="-0.430293">
        <ele>1004.0</ele>
        <time>2019-03-26T09:57:46.000Z</time>
      </trkpt>
      <trkpt lat="42.575355" lon="-0.430293">
        <ele>1004.0</ele>
        <time>2019-03-26T09:57:47.000Z</time>
      </trkpt>
      <trkpt lat="42.575355" lon="-0.430293">
        <ele>1004.0</ele>
        <time>2019-03-26T09:57:48.000Z</time>
      </trkpt>
      <trkpt lat="42.575355" lon="-0.430293">
        <ele>1004.0</ele>
        <time>2019-03-26T09:57:49.000Z</time>
      </trkpt>
      <trkpt lat="42.575355" lon="-0.430293">
        <ele>1004.0</ele>
        <time>2019-03-26T09:57:50.000Z</time>
      </trkpt>
      <trkpt lat="42.575355" lon="-0.430293">
        <ele>1004.0</ele>
        <time>2019-03-26T09:57:51.000Z</time>
      </trkpt>
      <trkpt lat="42.575355" lon="-0.430293">
        <ele>1004.0</ele>
        <time>2019-03-26T09:57:52.000Z</time>
      </trkpt>
      <trkpt lat="42.575355" lon="-0.430293">
        <ele>1004.0</ele>
        <time>2019-03-26T09:57:53.000Z</time>
      </trkpt>
      <trkpt lat="42.575355" lon="-0.430293">
        <ele>1004.0</ele>
        <time>2019-03-26T09:57:54.000Z</time>
      </trkpt>
      <trkpt lat="42.575355" lon="-0.430293">
        <ele>1004.0</ele>
        <time>2019-03-26T09:57:55.000Z</time>
      </trkpt>
      <trkpt lat="42.575355" lon="-0.430293">
        <ele>1004.0</ele>
        <time>2019-03-26T09:57:56.000Z</time>
      </trkpt>
      <trkpt lat="42.575354" lon="-0.430292">
        <ele>1005.0</ele>
        <time>2019-03-26T09:57:57.000Z</time>
      </trkpt>
      <trkpt lat="42.575351" lon="-0.430289">
        <ele>1005.0</ele>
        <time>2019-03-26T09:57:58.000Z</time>
      </trkpt>
      <trkpt lat="42.575345" lon="-0.430284">
        <ele>1005.0</ele>
        <time>2019-03-26T09:57:59.000Z</time>
      </trkpt>
      <trkpt lat="42.575336" lon="-0.430275">
        <ele>1005.0</ele>
        <time>2019-03-26T09:58:00.000Z</time>
      </trkpt>
      <trkpt lat="42.575325" lon="-0.430264">
        <ele>1006.0</ele>
        <time>2019-03-26T09:58:01.000Z</time>
      </trkpt>
      <trkpt lat="42.575314" lon="-0.430251">
        <ele>1006.0</ele>
        <time>2019-03-26T09:58:02.000Z</time>
      </trkpt>
      <trkpt lat="42.575304" lon="-0.430236">
        <ele>1006.0</ele>
        <time>2019-03-26T09:58:03.000Z</time>
      </trkpt>
      <trkpt lat="42.575295" lon="-0.430221">
        <ele>1006.0</ele>
        <time>2019-03-26T09:58:04.000Z</time>
      </trkpt>
      <trkpt lat="42.575287" lon="-0.430208">
        <ele>1007.0</ele>
        <time>2019-03-26T09:58:05.000Z</time>
      </trkpt>
      <trkpt lat="42.575281" lon="-0.430197">
        <ele>1007.0</ele>
        <time>2019-03-26T09:58:06.000Z</time>
      </trkpt>
      <trkpt lat="42.575276" lon="-0.430191">
        <ele>1007.0</ele>
        <time>2019-03-26T09:58:07.000Z</time>
      </trkpt>
      <trkpt lat="42.575273" lon="-0.430188">
        <ele>1007.0</ele>
        <time>2019-03-26T09:58:08.000Z</time>
      </trkpt>
      <trkpt lat="42.575272" lon="-0.430187">
        <ele>1007.0</ele>
        <time>2019-03-26T09:58:09.000Z</time>
      </trkpt>
      <trkpt lat="42.575272" lon="-0.430187">
        <ele>1007.0</ele>
        <time>2019-03-26T09:58:10.000Z</time>
      </trkpt>
      <trkpt lat="42.575268" lon="-0.430184">
        <ele>1007.0</ele>
        <time>2019-03-26T09:58:11.000Z</time>
      </trkpt>
      <trkpt lat="42.575257" lon="-0.430174">
        <ele>1007.0</ele>
        <time>2019-03-26T09:58:12.000Z</time>
      </trkpt>
      <trkpt lat="42.575241" lon="-0.430163">
        <ele>1007.0</ele>
        <time>2019-03-26T09:58:13.000Z</time>
      </trkpt>
      <trkpt lat="42.575225" lon="-0.430156">
        <ele>1008.0</ele>
        <time>2019-03-26T09:58:14.000Z</time>
      </trkpt>
      <trkpt lat="42.57521" lon="-0.430154">
        <ele>1008.0</ele>
        <time>2019-03-26T09:58:15.000Z</time>
      </trkpt>
      <trkpt lat="42.575196" lon="-0.430154">
        <ele>1008.0</ele>
        <time>2019-03-26T09:58:16.000Z</time>
      </trkpt>
      <trkpt lat="42.57518" lon="-0.430154">
        <ele>1008.0</ele>
        <time>2019-03-26T09:58:17.000Z</time>
      </trkpt>
      <trkpt lat="42.575165" lon="-0.430155">
        <ele>1008.0</ele>
        <time>2019-03-26T09:58:18.000Z</time>
      </trkpt>
      <trkpt lat="42.575149" lon="-0.430156">
        <ele>1009.0</ele>
        <time>2019-03-26T09:58:19.000Z</time>
      </trkpt>
      <trkpt lat="42.575134" lon="-0.430155">
        <ele>1009.0</ele>
        <time>2019-03-26T09:58:20.000Z</time>
      </trkpt>
      <trkpt lat="42.57512" lon="-0.430152">
        <ele>1009.0</ele>
        <time>2019-03-26T09:58:21.000Z</time>
      </trkpt>
      <trkpt lat="42.575107" lon="-0.430147">
        <ele>1010.0</ele>
        <time>2019-03-26T09:58:22.000Z</time>
      </trkpt>
      <trkpt lat="42.575094" lon="-0.430139">
        <ele>1010.0</ele>
        <time>2019-03-26T09:58:23.000Z</time>
      </trkpt>
      <trkpt lat="42.575084" lon="-0.430128">
        <ele>1010.0</ele>
        <time>2019-03-26T09:58:24.000Z</time>
      </trkpt>
      <trkpt lat="42.575074" lon="-0.430114">
        <ele>1010.0</ele>
        <time>2019-03-26T09:58:25.000Z</time>
      </trkpt>
      <trkpt lat="42.575066" lon="-0.430097">
        <ele>1011.0</ele>
        <time>2019-03-26T09:58:26.000Z</time>
      </trkpt>
      <trkpt lat="42.57506" lon="-0.430079">
        <ele>1011.0</ele>
        <time>2019-03-26T09:58:27.000Z</time>
      </trkpt>
      <trkpt lat="42.575054" lon="-0.43006">
        <ele>1011.0</ele>
        <time>2019-03-26T09:58:28.000Z</time>
      </trkpt>
      <trkpt lat="42.57505" lon="-0.43004">
        <ele>1011.0</ele>
        <time>2019-03-26T09:58:29.000Z</time>
      </trkpt>
      <trkpt lat="42.575046" lon="-0.43002">
        <ele>1011.0</ele>
        <time>2019-03-26T09:58:30.000Z</time>
      </trkpt>
      <trkpt lat="42.575044" lon="-0.430001">
        <ele>1012.0</ele>
        <time>2019-03-26T09:58:31.000Z</time>
      </trkpt>
      <trkpt lat="42.575042" lon="-0.429983">
        <ele>1012.0</ele>
        <time>2019-03-26T09:58:32.000Z</time>
      </trkpt>
      <trkpt lat="42.575041" lon="-0.429964">
        <ele>1012.0</ele>
        <time>2019-03-26T09:58:33.000Z</time>
      </trkpt>
      <trkpt lat="42.57504" lon="-0.429946">
        <ele>1012.0</ele>
        <time>2019-03-26T09:58:34.000Z</time>
      </trkpt>
      <trkpt lat="42.575039" lon="-0.429927">
        <ele>1013.0</ele>
        <time>2019-03-26T09:58:35.000Z</time>
      </trkpt>
      <trkpt lat="42.575038" lon="-0.429908">
        <ele>1013.0</ele>
        <time>2019-03-26T09:58:36.000Z</time>
      </trkpt>
      <trkpt lat="42.575036" lon="-0.429888">
        <ele>1013.0</ele>
        <time>2019-03-26T09:58:37.000Z</time>
      </trkpt>
      <trkpt lat="42.575034" lon="-0.429867">
        <ele>1013.0</ele>
        <time>2019-03-26T09:58:38.000Z</time>
      </trkpt>
      <trkpt lat="42.575031" lon="-0.429846">
        <ele>1013.0</ele>
        <time>2019-03-26T09:58:39.000Z</time>
      </trkpt>
      <trkpt lat="42.575028" lon="-0.429824">
        <ele>1013.0</ele>
        <time>2019-03-26T09:58:40.000Z</time>
      </trkpt>
      <trkpt lat="42.575025" lon="-0.429801">
        <ele>1014.0</ele>
        <time>2019-03-26T09:58:41.000Z</time>
      </trkpt>
      <trkpt lat="42.575021" lon="-0.429778">
        <ele>1014.0</ele>
        <time>2019-03-26T09:58:42.000Z</time>
      </trkpt>
      <trkpt lat="42.575017" lon="-0.429755">
        <ele>1014.0</ele>
        <time>2019-03-26T09:58:43.000Z</time>
      </trkpt>
      <trkpt lat="42.575012" lon="-0.429731">
        <ele>1014.0</ele>
        <time>2019-03-26T09:58:44.000Z</time>
      </trkpt>
      <trkpt lat="42.575008" lon="-0.429707">
        <ele>1014.0</ele>
        <time>2019-03-26T09:58:45.000Z</time>
      </trkpt>
      <trkpt lat="42.575003" lon="-0.429683">
        <ele>1014.0</ele>
        <time>2019-03-26T09:58:46.000Z</time>
      </trkpt>
      <trkpt lat="42.574998" lon="-0.429659">
        <ele>1014.0</ele>
        <time>2019-03-26T09:58:47.000Z</time>
      </trkpt>
      <trkpt lat="42.574992" lon="-0.429634">
        <ele>1014.0</ele>
        <time>2019-03-26T09:58:48.000Z</time>
      </trkpt>
      <trkpt lat="42.574987" lon="-0.42961">
        <ele>1014.0</ele>
        <time>2019-03-26T09:58:49.000Z</time>
      </trkpt>
      <trkpt lat="42.574981" lon="-0.429586">
        <ele>1015.0</ele>
        <time>2019-03-26T09:58:50.000Z</time>
      </trkpt>
      <trkpt lat="42.574976" lon="-0.429561">
        <ele>1015.0</ele>
        <time>2019-03-26T09:58:51.000Z</time>
      </trkpt>
      <trkpt lat="42.57497" lon="-0.429537">
        <ele>1015.0</ele>
        <time>2019-03-26T09:58:52.000Z</time>
      </trkpt>
      <trkpt lat="42.574964" lon="-0.429514">
        <ele>1015.0</ele>
        <time>2019-03-26T09:58:53.000Z</time>
      </trkpt>
      <trkpt lat="42.574959" lon="-0.42949">
        <ele>1015.0</ele>
        <time>2019-03-26T09:58:54.000Z</time>
      </trkpt>
      <trkpt lat="42.574953" lon="-0.429466">
        <ele>1015.0</ele>
        <time>2019-03-26T09:58:55.000Z</time>
      </trkpt>
      <trkpt lat="42.574947" lon="-0.429443">
        <ele>1016.0</ele>
        <time>2019-03-26T09:58:56.000Z</time>
      </trkpt>
      <trkpt lat="42.574942" lon="-0.42942">
        <ele>1016.0</ele>
        <time>2019-03-26T09:58:57.000Z</time>
      </trkpt>
      <trkpt lat="42.574936" lon="-0.429397">
        <ele>1016.0</ele>
        <time>2019-03-26T09:58:58.000Z</time>
      </trkpt>
      <trkpt lat="42.574931" lon="-0.429374">
        <ele>1016.0</ele>
        <time>2019-03-26T09:58:59.000Z</time>
      </trkpt>
      <trkpt lat="42.574926" lon="-0.429352">
        <ele>1016.0</ele>
        <time>2019-03-26T09:59:00.000Z</time>
      </trkpt>
      <trkpt lat="42.574921" lon="-0.429329">
        <ele>1016.0</ele>
        <time>2019-03-26T09:59:01.000Z</time>
      </trkpt>
      <trkpt lat="42.574917" lon="-0.429307">
        <ele>1016.0</ele>
        <time>2019-03-26T09:59:02.000Z</time>
      </trkpt>
      <trkpt lat="42.574912" lon="-0.429285">
        <ele>1016.0</ele>
        <time>2019-03-26T09:59:03.000Z</time>
      </trkpt>
      <trkpt lat="42.574908" lon="-0.429263">
        <ele>1017.0</ele>
        <time>2019-03-26T09:59:04.000Z</time>
      </trkpt>
      <trkpt lat="42.574904" lon="-0.429242">
        <ele>1017.0</ele>
        <time>2019-03-26T09:59:05.000Z</time>
      </trkpt>
      <trkpt lat="42.574901" lon="-0.429221">
        <ele>1017.0</ele>
        <time>2019-03-26T09:59:06.000Z</time>
      </trkpt>
      <trkpt lat="42.574898" lon="-0.429199">
        <ele>1017.0</ele>
        <time>2019-03-26T09:59:07.000Z</time>
      </trkpt>
      <trkpt lat="42.574894" lon="-0.429178">
        <ele>1017.0</ele>
        <time>2019-03-26T09:59:08.000Z</time>
      </trkpt>
      <trkpt lat="42.574891" lon="-0.429157">
        <ele>1017.0</ele>
        <time>2019-03-26T09:59:09.000Z</time>
      </trkpt>
      <trkpt lat="42.574888" lon="-0.429135">
        <ele>1018.0</ele>
        <time>2019-03-26T09:59:10.000Z</time>
      </trkpt>
      <trkpt lat="42.574884" lon="-0.429114">
        <ele>1018.0</ele>
        <time>2019-03-26T09:59:11.000Z</time>
      </trkpt>
      <trkpt lat="42.574881" lon="-0.429092">
        <ele>1018.0</ele>
        <time>2019-03-26T09:59:12.000Z</time>
      </trkpt>
      <trkpt lat="42.574877" lon="-0.42907">
        <ele>1018.0</ele>
        <time>2019-03-26T09:59:13.000Z</time>
      </trkpt>
      <trkpt lat="42.574874" lon="-0.429048">
        <ele>1018.0</ele>
        <time>2019-03-26T09:59:14.000Z</time>
      </trkpt>
      <trkpt lat="42.574871" lon="-0.429026">
        <ele>1018.0</ele>
        <time>2019-03-26T09:59:15.000Z</time>
      </trkpt>
      <trkpt lat="42.574869" lon="-0.429004">
        <ele>1019.0</ele>
        <time>2019-03-26T09:59:16.000Z</time>
      </trkpt>
      <trkpt lat="42.574868" lon="-0.428982">
        <ele>1019.0</ele>
        <time>2019-03-26T09:59:17.000Z</time>
      </trkpt>
      <trkpt lat="42.574868" lon="-0.42896">
        <ele>1019.0</ele>
        <time>2019-03-26T09:59:18.000Z</time>
      </trkpt>
      <trkpt lat="42.57487" lon="-0.428938">
        <ele>1019.0</ele>
        <time>2019-03-26T09:59:19.000Z</time>
      </trkpt>
      <trkpt lat="42.574873" lon="-0.428917">
        <ele>1019.0</ele>
        <time>2019-03-26T09:59:20.000Z</time>
      </trkpt>
      <trkpt lat="42.574877" lon="-0.428895">
        <ele>1019.0</ele>
        <time>2019-03-26T09:59:21.000Z</time>
      </trkpt>
      <trkpt lat="42.574882" lon="-0.428874">
        <ele>1020.0</ele>
        <time>2019-03-26T09:59:22.000Z</time>
      </trkpt>
      <trkpt lat="42.574888" lon="-0.428852">
        <ele>1020.0</ele>
        <time>2019-03-26T09:59:23.000Z</time>
      </trkpt>
      <trkpt lat="42.574895" lon="-0.428831">
        <ele>1020.0</ele>
        <time>2019-03-26T09:59:24.000Z</time>
      </trkpt>
      <trkpt lat="42.574902" lon="-0.42881">
        <ele>1020.0</ele>
        <time>2019-03-26T09:59:25.000Z</time>
      </trkpt>
      <trkpt lat="42.574908" lon="-0.428788">
        <ele>1020.0</ele>
        <time>2019-03-26T09:59:26.000Z</time>
      </trkpt>
      <trkpt lat="42.574915" lon="-0.428766">
        <ele>1020.0</ele>
        <time>2019-03-26T09:59:27.000Z</time>
      </trkpt>
      <trkpt lat="42.574922" lon="-0.428745">
        <ele>1020.0</ele>
        <time>2019-03-26T09:59:28.000Z</time>
      </trkpt>
      <trkpt lat="42.574928" lon="-0.428723">
        <ele>1020.0</ele>
        <time>2019-03-26T09:59:29.000Z</time>
      </trkpt>
      <trkpt lat="42.574934" lon="-0.4287">
        <ele>1021.0</ele>
        <time>2019-03-26T09:59:30.000Z</time>
      </trkpt>
      <trkpt lat="42.574939" lon="-0.428678">
        <ele>1021.0</ele>
        <time>2019-03-26T09:59:31.000Z</time>
      </trkpt>
      <trkpt lat="42.574943" lon="-0.428655">
        <ele>1021.0</ele>
        <time>2019-03-26T09:59:32.000Z</time>
      </trkpt>
      <trkpt lat="42.574945" lon="-0.428632">
        <ele>1021.0</ele>
        <time>2019-03-26T09:59:33.000Z</time>
      </trkpt>
      <trkpt lat="42.574947" lon="-0.428609">
        <ele>1021.0</ele>
        <time>2019-03-26T09:59:34.000Z</time>
      </trkpt>
      <trkpt lat="42.574948" lon="-0.428587">
        <ele>1021.0</ele>
        <time>2019-03-26T09:59:35.000Z</time>
      </trkpt>
      <trkpt lat="42.574948" lon="-0.428566">
        <ele>1021.0</ele>
        <time>2019-03-26T09:59:36.000Z</time>
      </trkpt>
      <trkpt lat="42.574947" lon="-0.428545">
        <ele>1021.0</ele>
        <time>2019-03-26T09:59:37.000Z</time>
      </trkpt>
      <trkpt lat="42.574944" lon="-0.428526">
        <ele>1022.0</ele>
        <time>2019-03-26T09:59:38.000Z</time>
      </trkpt>
      <trkpt lat="42.574941" lon="-0.428508">
        <ele>1022.0</ele>
        <time>2019-03-26T09:59:39.000Z</time>
      </trkpt>
      <trkpt lat="42.574937" lon="-0.428492">
        <ele>1022.0</ele>
        <time>2019-03-26T09:59:40.000Z</time>
      </trkpt>
      <trkpt lat="42.574932" lon="-0.428477">
        <ele>1022.0</ele>
        <time>2019-03-26T09:59:41.000Z</time>
      </trkpt>
      <trkpt lat="42.574926" lon="-0.428462">
        <ele>1023.0</ele>
        <time>2019-03-26T09:59:42.000Z</time>
      </trkpt>
      <trkpt lat="42.574921" lon="-0.428448">
        <ele>1023.0</ele>
        <time>2019-03-26T09:59:43.000Z</time>
      </trkpt>
      <trkpt lat="42.574915" lon="-0.428435">
        <ele>1023.0</ele>
        <time>2019-03-26T09:59:44.000Z</time>
      </trkpt>
      <trkpt lat="42.57491" lon="-0.428421">
        <ele>1023.0</ele>
        <time>2019-03-26T09:59:45.000Z</time>
      </trkpt>
      <trkpt lat="42.574905" lon="-0.428408">
        <ele>1024.0</ele>
        <time>2019-03-26T09:59:46.000Z</time>
      </trkpt>
      <trkpt lat="42.5749" lon="-0.428394">
        <ele>1024.0</ele>
        <time>2019-03-26T09:59:47.000Z</time>
      </trkpt>
      <trkpt lat="42.574896" lon="-0.42838">
        <ele>1024.0</ele>
        <time>2019-03-26T09:59:48.000Z</time>
      </trkpt>
      <trkpt lat="42.574892" lon="-0.428366">
        <ele>1024.0</ele>
        <time>2019-03-26T09:59:49.000Z</time>
      </trkpt>
      <trkpt lat="42.574889" lon="-0.428351">
        <ele>1025.0</ele>
        <time>2019-03-26T09:59:50.000Z</time>
      </trkpt>
      <trkpt lat="42.574886" lon="-0.428337">
        <ele>1025.0</ele>
        <time>2019-03-26T09:59:51.000Z</time>
      </trkpt>
      <trkpt lat="42.574884" lon="-0.428322">
        <ele>1025.0</ele>
        <time>2019-03-26T09:59:52.000Z</time>
      </trkpt>
      <trkpt lat="42.574883" lon="-0.428306">
        <ele>1025.0</ele>
        <time>2019-03-26T09:59:53.000Z</time>
      </trkpt>
      <trkpt lat="42.574882" lon="-0.428291">
        <ele>1025.0</ele>
        <time>2019-03-26T09:59:54.000Z</time>
      </trkpt>
      <trkpt lat="42.574882" lon="-0.428275">
        <ele>1026.0</ele>
        <time>2019-03-26T09:59:55.000Z</time>
      </trkpt>
      <trkpt lat="42.574883" lon="-0.428259">
        <ele>1026.0</ele>
        <time>2019-03-26T09:59:56.000Z</time>
      </trkpt>
      <trkpt lat="42.574884" lon="-0.428243">
        <ele>1026.0</ele>
        <time>2019-03-26T09:59:57.000Z</time>
      </trkpt>
      <trkpt lat="42.574885" lon="-0.428227">
        <ele>1026.0</ele>
        <time>2019-03-26T09:59:58.000Z</time>
      </trkpt>
      <trkpt lat="42.574887" lon="-0.428211">
        <ele>1027.0</ele>
        <time>2019-03-26T09:59:59.000Z</time>
      </trkpt>
      <trkpt lat="42.574889" lon="-0.428196">
        <ele>1027.0</ele>
        <time>2019-03-26T10:00:00.000Z</time>
      </trkpt>
      <trkpt lat="42.574891" lon="-0.42818">
        <ele>1027.0</ele>
        <time>2019-03-26T10:00:01.000Z</time>
      </trkpt>
      <trkpt lat="42.574894" lon="-0.428165">
        <ele>1027.0</ele>
        <time>2019-03-26T10:00:02.000Z</time>
      </trkpt>
      <trkpt lat="42.574897" lon="-0.42815">
        <ele>1027.0</ele>
        <time>2019-03-26T10:00:03.000Z</time>
      </trkpt>
      <trkpt lat="42.5749" lon="-0.428135">
        <ele>1028.0</ele>
        <time>2019-03-26T10:00:04.000Z</time>
      </trkpt>
      <trkpt lat="42.574903" lon="-0.42812">
        <ele>1028.0</ele>
        <time>2019-03-26T10:00:05.000Z</time>
      </trkpt>
      <trkpt lat="42.574906" lon="-0.428105">
        <ele>1028.0</ele>
        <time>2019-03-26T10:00:06.000Z</time>
      </trkpt>
      <trkpt lat="42.574909" lon="-0.42809">
        <ele>1028.0</ele>
        <time>2019-03-26T10:00:07.000Z</time>
      </trkpt>
      <trkpt lat="42.574912" lon="-0.428076">
        <ele>1028.0</ele>
        <time>2019-03-26T10:00:08.000Z</time>
      </trkpt>
      <trkpt lat="42.574916" lon="-0.428061">
        <ele>1029.0</ele>
        <time>2019-03-26T10:00:09.000Z</time>
      </trkpt>
      <trkpt lat="42.574919" lon="-0.428047">
        <ele>1029.0</ele>
        <time>2019-03-26T10:00:10.000Z</time>
      </trkpt>
      <trkpt lat="42.574922" lon="-0.428032">
        <ele>1029.0</ele>
        <time>2019-03-26T10:00:11.000Z</time>
      </trkpt>
      <trkpt lat="42.574925" lon="-0.428018">
        <ele>1029.0</ele>
        <time>2019-03-26T10:00:12.000Z</time>
      </trkpt>
      <trkpt lat="42.574929" lon="-0.428004">
        <ele>1029.0</ele>
        <time>2019-03-26T10:00:13.000Z</time>
      </trkpt>
      <trkpt lat="42.574932" lon="-0.42799">
        <ele>1029.0</ele>
        <time>2019-03-26T10:00:14.000Z</time>
      </trkpt>
      <trkpt lat="42.574934" lon="-0.427976">
        <ele>1030.0</ele>
        <time>2019-03-26T10:00:15.000Z</time>
      </trkpt>
      <trkpt lat="42.574937" lon="-0.427962">
        <ele>1030.0</ele>
        <time>2019-03-26T10:00:16.000Z</time>
      </trkpt>
      <trkpt lat="42.57494" lon="-0.427948">
        <ele>1030.0</ele>
        <time>2019-03-26T10:00:17.000Z</time>
      </trkpt>
      <trkpt lat="42.574943" lon="-0.427934">
        <ele>1030.0</ele>
        <time>2019-03-26T10:00:18.000Z</time>
      </trkpt>
      <trkpt lat="42.574945" lon="-0.42792">
        <ele>1030.0</ele>
        <time>2019-03-26T10:00:19.000Z</time>
      </trkpt>
      <trkpt lat="42.574948" lon="-0.427906">
        <ele>1031.0</ele>
        <time>2019-03-26T10:00:20.000Z</time>
      </trkpt>
      <trkpt lat="42.574951" lon="-0.427892">
        <ele>1031.0</ele>
        <time>2019-03-26T10:00:21.000Z</time>
      </trkpt>
      <trkpt lat="42.574954" lon="-0.427878">
        <ele>1031.0</ele>
        <time>2019-03-26T10:00:22.000Z</time>
      </trkpt>
      <trkpt lat="42.574957" lon="-0.427864">
        <ele>1032.0</ele>
        <time>2019-03-26T10:00:23.000Z</time>
      </trkpt>
      <trkpt lat="42.57496" lon="-0.42785">
        <ele>1032.0</ele>
        <time>2019-03-26T10:00:24.000Z</time>
      </trkpt>
      <trkpt lat="42.574964" lon="-0.427835">
        <ele>1032.0</ele>
        <time>2019-03-26T10:00:25.000Z</time>
      </trkpt>
      <trkpt lat="42.574967" lon="-0.42782">
        <ele>1032.0</ele>
        <time>2019-03-26T10:00:26.000Z</time>
      </trkpt>
      <trkpt lat="42.574971" lon="-0.427806">
        <ele>1032.0</ele>
        <time>2019-03-26T10:00:27.000Z</time>
      </trkpt>
      <trkpt lat="42.574974" lon="-0.427792">
        <ele>1032.0</ele>
        <time>2019-03-26T10:00:28.000Z</time>
      </trkpt>
      <trkpt lat="42.574977" lon="-0.427782">
        <ele>1033.0</ele>
        <time>2019-03-26T10:00:29.000Z</time>
      </trkpt>
      <trkpt lat="42.574978" lon="-0.427777">
        <ele>1033.0</ele>
        <time>2019-03-26T10:00:30.000Z</time>
      </trkpt>
      <trkpt lat="42.574978" lon="-0.427777">
        <ele>1033.0</ele>
        <time>2019-03-26T10:00:31.000Z</time>
      </trkpt>
      <trkpt lat="42.574979" lon="-0.427774">
        <ele>1033.0</ele>
        <time>2019-03-26T10:00:32.000Z</time>
      </trkpt>
      <trkpt lat="42.574982" lon="-0.427758">
        <ele>1033.0</ele>
        <time>2019-03-26T10:00:33.000Z</time>
      </trkpt>
      <trkpt lat="42.574987" lon="-0.42774">
        <ele>1033.0</ele>
        <time>2019-03-26T10:00:34.000Z</time>
      </trkpt>
      <trkpt lat="42.574992" lon="-0.427723">
        <ele>1034.0</ele>
        <time>2019-03-26T10:00:35.000Z</time>
      </trkpt>
      <trkpt lat="42.574997" lon="-0.427708">
        <ele>1034.0</ele>
        <time>2019-03-26T10:00:36.000Z</time>
      </trkpt>
      <trkpt lat="42.575002" lon="-0.427693">
        <ele>1034.0</ele>
        <time>2019-03-26T10:00:37.000Z</time>
      </trkpt>
      <trkpt lat="42.575008" lon="-0.427679">
        <ele>1034.0</ele>
        <time>2019-03-26T10:00:38.000Z</time>
      </trkpt>
      <trkpt lat="42.575013" lon="-0.427664">
        <ele>1034.0</ele>
        <time>2019-03-26T10:00:39.000Z</time>
      </trkpt>
      <trkpt lat="42.575019" lon="-0.427649">
        <ele>1035.0</ele>
        <time>2019-03-26T10:00:40.000Z</time>
      </trkpt>
      <trkpt lat="42.575023" lon="-0.427634">
        <ele>1035.0</ele>
        <time>2019-03-26T10:00:41.000Z</time>
      </trkpt>
      <trkpt lat="42.575027" lon="-0.42762">
        <ele>1035.0</ele>
        <time>2019-03-26T10:00:42.000Z</time>
      </trkpt>
      <trkpt lat="42.575031" lon="-0.427605">
        <ele>1035.0</ele>
        <time>2019-03-26T10:00:43.000Z</time>
      </trkpt>
      <trkpt lat="42.575034" lon="-0.42759">
        <ele>1035.0</ele>
        <time>2019-03-26T10:00:44.000Z</time>
      </trkpt>
      <trkpt lat="42.575037" lon="-0.427575">
        <ele>1035.0</ele>
        <time>2019-03-26T10:00:45.000Z</time>
      </trkpt>
      <trkpt lat="42.57504" lon="-0.42756">
        <ele>1036.0</ele>
        <time>2019-03-26T10:00:46.000Z</time>
      </trkpt>
      <trkpt lat="42.575044" lon="-0.427545">
        <ele>1036.0</ele>
        <time>2019-03-26T10:00:47.000Z</time>
      </trkpt>
      <trkpt lat="42.575048" lon="-0.42753">
        <ele>1036.0</ele>
        <time>2019-03-26T10:00:48.000Z</time>
      </trkpt>
      <trkpt lat="42.575053" lon="-0.427515">
        <ele>1036.0</ele>
        <time>2019-03-26T10:00:49.000Z</time>
      </trkpt>
      <trkpt lat="42.575057" lon="-0.427499">
        <ele>1037.0</ele>
        <time>2019-03-26T10:00:50.000Z</time>
      </trkpt>
      <trkpt lat="42.575062" lon="-0.427483">
        <ele>1037.0</ele>
        <time>2019-03-26T10:00:51.000Z</time>
      </trkpt>
      <trkpt lat="42.575066" lon="-0.427466">
        <ele>1037.0</ele>
        <time>2019-03-26T10:00:52.000Z</time>
      </trkpt>
      <trkpt lat="42.575069" lon="-0.42745">
        <ele>1037.0</ele>
        <time>2019-03-26T10:00:53.000Z</time>
      </trkpt>
      <trkpt lat="42.575071" lon="-0.427432">
        <ele>1037.0</ele>
        <time>2019-03-26T10:00:54.000Z</time>
      </trkpt>
      <trkpt lat="42.575072" lon="-0.427415">
        <ele>1038.0</ele>
        <time>2019-03-26T10:00:55.000Z</time>
      </trkpt>
      <trkpt lat="42.575072" lon="-0.427397">
        <ele>1038.0</ele>
        <time>2019-03-26T10:00:56.000Z</time>
      </trkpt>
      <trkpt lat="42.575072" lon="-0.427379">
        <ele>1038.0</ele>
        <time>2019-03-26T10:00:57.000Z</time>
      </trkpt>
      <trkpt lat="42.575073" lon="-0.427362">
        <ele>1038.0</ele>
        <time>2019-03-26T10:00:58.000Z</time>
      </trkpt>
      <trkpt lat="42.575075" lon="-0.427346">
        <ele>1038.0</ele>
        <time>2019-03-26T10:00:59.000Z</time>
      </trkpt>
      <trkpt lat="42.575077" lon="-0.427333">
        <ele>1039.0</ele>
        <time>2019-03-26T10:01:00.000Z</time>
      </trkpt>
      <trkpt lat="42.575078" lon="-0.427323">
        <ele>1039.0</ele>
        <time>2019-03-26T10:01:01.000Z</time>
      </trkpt>
      <trkpt lat="42.575079" lon="-0.427318">
        <ele>1039.0</ele>
        <time>2019-03-26T10:01:02.000Z</time>
      </trkpt>
      <trkpt lat="42.575079" lon="-0.427317">
        <ele>1039.0</ele>
        <time>2019-03-26T10:01:03.000Z</time>
      </trkpt>
      <trkpt lat="42.575078" lon="-0.427317">
        <ele>1040.0</ele>
        <time>2019-03-26T10:01:04.000Z</time>
      </trkpt>
      <trkpt lat="42.575078" lon="-0.427315">
        <ele>1040.0</ele>
        <time>2019-03-26T10:01:05.000Z</time>
      </trkpt>
      <trkpt lat="42.575078" lon="-0.427308">
        <ele>1040.0</ele>
        <time>2019-03-26T10:01:06.000Z</time>
      </trkpt>
      <trkpt lat="42.575082" lon="-0.42729">
        <ele>1040.0</ele>
        <time>2019-03-26T10:01:07.000Z</time>
      </trkpt>
      <trkpt lat="42.575086" lon="-0.427274">
        <ele>1040.0</ele>
        <time>2019-03-26T10:01:08.000Z</time>
      </trkpt>
      <trkpt lat="42.57509" lon="-0.427259">
        <ele>1041.0</ele>
        <time>2019-03-26T10:01:09.000Z</time>
      </trkpt>
      <trkpt lat="42.575094" lon="-0.427243">
        <ele>1041.0</ele>
        <time>2019-03-26T10:01:10.000Z</time>
      </trkpt>
      <trkpt lat="42.575099" lon="-0.427226">
        <ele>1041.0</ele>
        <time>2019-03-26T10:01:11.000Z</time>
      </trkpt>
      <trkpt lat="42.575103" lon="-0.427209">
        <ele>1041.0</ele>
        <time>2019-03-26T10:01:12.000Z</time>
      </trkpt>
      <trkpt lat="42.575107" lon="-0.427192">
        <ele>1041.0</ele>
        <time>2019-03-26T10:01:13.000Z</time>
      </trkpt>
      <trkpt lat="42.575112" lon="-0.427174">
        <ele>1042.0</ele>
        <time>2019-03-26T10:01:14.000Z</time>
      </trkpt>
      <trkpt lat="42.575117" lon="-0.427156">
        <ele>1042.0</ele>
        <time>2019-03-26T10:01:15.000Z</time>
      </trkpt>
      <trkpt lat="42.575121" lon="-0.427138">
        <ele>1042.0</ele>
        <time>2019-03-26T10:01:16.000Z</time>
      </trkpt>
      <trkpt lat="42.575126" lon="-0.42712">
        <ele>1042.0</ele>
        <time>2019-03-26T10:01:17.000Z</time>
      </trkpt>
      <trkpt lat="42.57513" lon="-0.427102">
        <ele>1043.0</ele>
        <time>2019-03-26T10:01:18.000Z</time>
      </trkpt>
      <trkpt lat="42.575134" lon="-0.427084">
        <ele>1043.0</ele>
        <time>2019-03-26T10:01:19.000Z</time>
      </trkpt>
      <trkpt lat="42.575138" lon="-0.427066">
        <ele>1043.0</ele>
        <time>2019-03-26T10:01:20.000Z</time>
      </trkpt>
      <trkpt lat="42.575142" lon="-0.427049">
        <ele>1043.0</ele>
        <time>2019-03-26T10:01:21.000Z</time>
      </trkpt>
      <trkpt lat="42.575146" lon="-0.427032">
        <ele>1043.0</ele>
        <time>2019-03-26T10:01:22.000Z</time>
      </trkpt>
      <trkpt lat="42.575149" lon="-0.427015">
        <ele>1043.0</ele>
        <time>2019-03-26T10:01:23.000Z</time>
      </trkpt>
      <trkpt lat="42.575153" lon="-0.426999">
        <ele>1044.0</ele>
        <time>2019-03-26T10:01:24.000Z</time>
      </trkpt>
      <trkpt lat="42.575156" lon="-0.426982">
        <ele>1044.0</ele>
        <time>2019-03-26T10:01:25.000Z</time>
      </trkpt>
      <trkpt lat="42.575159" lon="-0.426966">
        <ele>1044.0</ele>
        <time>2019-03-26T10:01:26.000Z</time>
      </trkpt>
      <trkpt lat="42.575161" lon="-0.426949">
        <ele>1044.0</ele>
        <time>2019-03-26T10:01:27.000Z</time>
      </trkpt>
      <trkpt lat="42.575164" lon="-0.426933">
        <ele>1044.0</ele>
        <time>2019-03-26T10:01:28.000Z</time>
      </trkpt>
      <trkpt lat="42.575167" lon="-0.426916">
        <ele>1044.0</ele>
        <time>2019-03-26T10:01:29.000Z</time>
      </trkpt>
      <trkpt lat="42.57517" lon="-0.426899">
        <ele>1045.0</ele>
        <time>2019-03-26T10:01:30.000Z</time>
      </trkpt>
      <trkpt lat="42.575172" lon="-0.426881">
        <ele>1045.0</ele>
        <time>2019-03-26T10:01:31.000Z</time>
      </trkpt>
      <trkpt lat="42.575175" lon="-0.426863">
        <ele>1045.0</ele>
        <time>2019-03-26T10:01:32.000Z</time>
      </trkpt>
      <trkpt lat="42.575177" lon="-0.426845">
        <ele>1045.0</ele>
        <time>2019-03-26T10:01:33.000Z</time>
      </trkpt>
      <trkpt lat="42.57518" lon="-0.426827">
        <ele>1045.0</ele>
        <time>2019-03-26T10:01:34.000Z</time>
      </trkpt>
      <trkpt lat="42.575182" lon="-0.426808">
        <ele>1046.0</ele>
        <time>2019-03-26T10:01:35.000Z</time>
      </trkpt>
      <trkpt lat="42.575184" lon="-0.426789">
        <ele>1046.0</ele>
        <time>2019-03-26T10:01:36.000Z</time>
      </trkpt>
      <trkpt lat="42.575187" lon="-0.42677">
        <ele>1046.0</ele>
        <time>2019-03-26T10:01:37.000Z</time>
      </trkpt>
      <trkpt lat="42.575191" lon="-0.426753">
        <ele>1046.0</ele>
        <time>2019-03-26T10:01:38.000Z</time>
      </trkpt>
      <trkpt lat="42.575195" lon="-0.426738">
        <ele>1046.0</ele>
        <time>2019-03-26T10:01:39.000Z</time>
      </trkpt>
      <trkpt lat="42.575202" lon="-0.426726">
        <ele>1046.0</ele>
        <time>2019-03-26T10:01:40.000Z</time>
      </trkpt>
      <trkpt lat="42.57521" lon="-0.426717">
        <ele>1046.0</ele>
        <time>2019-03-26T10:01:41.000Z</time>
      </trkpt>
      <trkpt lat="42.57522" lon="-0.42671">
        <ele>1047.0</ele>
        <time>2019-03-26T10:01:42.000Z</time>
      </trkpt>
      <trkpt lat="42.575231" lon="-0.426706">
        <ele>1047.0</ele>
        <time>2019-03-26T10:01:43.000Z</time>
      </trkpt>
      <trkpt lat="42.575242" lon="-0.426704">
        <ele>1047.0</ele>
        <time>2019-03-26T10:01:44.000Z</time>
      </trkpt>
      <trkpt lat="42.575253" lon="-0.426706">
        <ele>1047.0</ele>
        <time>2019-03-26T10:01:45.000Z</time>
      </trkpt>
      <trkpt lat="42.575264" lon="-0.42671">
        <ele>1047.0</ele>
        <time>2019-03-26T10:01:46.000Z</time>
      </trkpt>
      <trkpt lat="42.575273" lon="-0.426717">
        <ele>1048.0</ele>
        <time>2019-03-26T10:01:47.000Z</time>
      </trkpt>
      <trkpt lat="42.575282" lon="-0.426727">
        <ele>1048.0</ele>
        <time>2019-03-26T10:01:48.000Z</time>
      </trkpt>
      <trkpt lat="42.57529" lon="-0.426737">
        <ele>1048.0</ele>
        <time>2019-03-26T10:01:49.000Z</time>
      </trkpt>
      <trkpt lat="42.575299" lon="-0.426748">
        <ele>1048.0</ele>
        <time>2019-03-26T10:01:50.000Z</time>
      </trkpt>
      <trkpt lat="42.575308" lon="-0.426759">
        <ele>1048.0</ele>
        <time>2019-03-26T10:01:51.000Z</time>
      </trkpt>
      <trkpt lat="42.575317" lon="-0.42677">
        <ele>1049.0</ele>
        <time>2019-03-26T10:01:52.000Z</time>
      </trkpt>
      <trkpt lat="42.575327" lon="-0.426781">
        <ele>1049.0</ele>
        <time>2019-03-26T10:01:53.000Z</time>
      </trkpt>
      <trkpt lat="42.575337" lon="-0.426791">
        <ele>1049.0</ele>
        <time>2019-03-26T10:01:54.000Z</time>
      </trkpt>
      <trkpt lat="42.575348" lon="-0.426801">
        <ele>1049.0</ele>
        <time>2019-03-26T10:01:55.000Z</time>
      </trkpt>
      <trkpt lat="42.575359" lon="-0.42681">
        <ele>1049.0</ele>
        <time>2019-03-26T10:01:56.000Z</time>
      </trkpt>
      <trkpt lat="42.575371" lon="-0.426819">
        <ele>1049.0</ele>
        <time>2019-03-26T10:01:57.000Z</time>
      </trkpt>
      <trkpt lat="42.575383" lon="-0.426826">
        <ele>1050.0</ele>
        <time>2019-03-26T10:01:58.000Z</time>
      </trkpt>
      <trkpt lat="42.575395" lon="-0.426834">
        <ele>1050.0</ele>
        <time>2019-03-26T10:01:59.000Z</time>
      </trkpt>
      <trkpt lat="42.575408" lon="-0.42684">
        <ele>1050.0</ele>
        <time>2019-03-26T10:02:00.000Z</time>
      </trkpt>
      <trkpt lat="42.575421" lon="-0.426847">
        <ele>1050.0</ele>
        <time>2019-03-26T10:02:01.000Z</time>
      </trkpt>
      <trkpt lat="42.575433" lon="-0.426852">
        <ele>1050.0</ele>
        <time>2019-03-26T10:02:02.000Z</time>
      </trkpt>
      <trkpt lat="42.575446" lon="-0.426858">
        <ele>1050.0</ele>
        <time>2019-03-26T10:02:03.000Z</time>
      </trkpt>
      <trkpt lat="42.575458" lon="-0.426863">
        <ele>1050.0</ele>
        <time>2019-03-26T10:02:04.000Z</time>
      </trkpt>
      <trkpt lat="42.57547" lon="-0.426868">
        <ele>1051.0</ele>
        <time>2019-03-26T10:02:05.000Z</time>
      </trkpt>
      <trkpt lat="42.575482" lon="-0.426872">
        <ele>1051.0</ele>
        <time>2019-03-26T10:02:06.000Z</time>
      </trkpt>
      <trkpt lat="42.575494" lon="-0.426877">
        <ele>1051.0</ele>
        <time>2019-03-26T10:02:07.000Z</time>
      </trkpt>
      <trkpt lat="42.575505" lon="-0.426881">
        <ele>1051.0</ele>
        <time>2019-03-26T10:02:08.000Z</time>
      </trkpt>
      <trkpt lat="42.575517" lon="-0.426884">
        <ele>1051.0</ele>
        <time>2019-03-26T10:02:09.000Z</time>
      </trkpt>
      <trkpt lat="42.575528" lon="-0.426888">
        <ele>1051.0</ele>
        <time>2019-03-26T10:02:10.000Z</time>
      </trkpt>
      <trkpt lat="42.57554" lon="-0.426891">
        <ele>1052.0</ele>
        <time>2019-03-26T10:02:11.000Z</time>
      </trkpt>
      <trkpt lat="42.575551" lon="-0.426895">
        <ele>1052.0</ele>
        <time>2019-03-26T10:02:12.000Z</time>
      </trkpt>
      <trkpt lat="42.575563" lon="-0.426898">
        <ele>1052.0</ele>
        <time>2019-03-26T10:02:13.000Z</time>
      </trkpt>
      <trkpt lat="42.575575" lon="-0.426901">
        <ele>1052.0</ele>
        <time>2019-03-26T10:02:14.000Z</time>
      </trkpt>
      <trkpt lat="42.575587" lon="-0.426904">
        <ele>1052.0</ele>
        <time>2019-03-26T10:02:15.000Z</time>
      </trkpt>
      <trkpt lat="42.575599" lon="-0.426906">
        <ele>1052.0</ele>
        <time>2019-03-26T10:02:16.000Z</time>
      </trkpt>
      <trkpt lat="42.575611" lon="-0.426909">
        <ele>1052.0</ele>
        <time>2019-03-26T10:02:17.000Z</time>
      </trkpt>
      <trkpt lat="42.575624" lon="-0.426911">
        <ele>1053.0</ele>
        <time>2019-03-26T10:02:18.000Z</time>
      </trkpt>
      <trkpt lat="42.575637" lon="-0.426914">
        <ele>1053.0</ele>
        <time>2019-03-26T10:02:19.000Z</time>
      </trkpt>
      <trkpt lat="42.57565" lon="-0.426916">
        <ele>1053.0</ele>
        <time>2019-03-26T10:02:20.000Z</time>
      </trkpt>
      <trkpt lat="42.575663" lon="-0.426918">
        <ele>1053.0</ele>
        <time>2019-03-26T10:02:21.000Z</time>
      </trkpt>
      <trkpt lat="42.575677" lon="-0.426921">
        <ele>1053.0</ele>
        <time>2019-03-26T10:02:22.000Z</time>
      </trkpt>
      <trkpt lat="42.575691" lon="-0.426923">
        <ele>1053.0</ele>
        <time>2019-03-26T10:02:23.000Z</time>
      </trkpt>
      <trkpt lat="42.575704" lon="-0.426925">
        <ele>1053.0</ele>
        <time>2019-03-26T10:02:24.000Z</time>
      </trkpt>
      <trkpt lat="42.575718" lon="-0.426926">
        <ele>1054.0</ele>
        <time>2019-03-26T10:02:25.000Z</time>
      </trkpt>
      <trkpt lat="42.575732" lon="-0.426928">
        <ele>1054.0</ele>
        <time>2019-03-26T10:02:26.000Z</time>
      </trkpt>
      <trkpt lat="42.575746" lon="-0.42693">
        <ele>1054.0</ele>
        <time>2019-03-26T10:02:27.000Z</time>
      </trkpt>
      <trkpt lat="42.575759" lon="-0.426931">
        <ele>1054.0</ele>
        <time>2019-03-26T10:02:28.000Z</time>
      </trkpt>
      <trkpt lat="42.575773" lon="-0.426933">
        <ele>1054.0</ele>
        <time>2019-03-26T10:02:29.000Z</time>
      </trkpt>
      <trkpt lat="42.575787" lon="-0.426934">
        <ele>1054.0</ele>
        <time>2019-03-26T10:02:30.000Z</time>
      </trkpt>
      <trkpt lat="42.575801" lon="-0.426935">
        <ele>1054.0</ele>
        <time>2019-03-26T10:02:31.000Z</time>
      </trkpt>
      <trkpt lat="42.575814" lon="-0.426936">
        <ele>1054.0</ele>
        <time>2019-03-26T10:02:32.000Z</time>
      </trkpt>
      <trkpt lat="42.575828" lon="-0.426938">
        <ele>1055.0</ele>
        <time>2019-03-26T10:02:33.000Z</time>
      </trkpt>
      <trkpt lat="42.575842" lon="-0.426938">
        <ele>1055.0</ele>
        <time>2019-03-26T10:02:34.000Z</time>
      </trkpt>
      <trkpt lat="42.575855" lon="-0.426939">
        <ele>1055.0</ele>
        <time>2019-03-26T10:02:35.000Z</time>
      </trkpt>
      <trkpt lat="42.575869" lon="-0.42694">
        <ele>1055.0</ele>
        <time>2019-03-26T10:02:36.000Z</time>
      </trkpt>
      <trkpt lat="42.575882" lon="-0.426941">
        <ele>1055.0</ele>
        <time>2019-03-26T10:02:37.000Z</time>
      </trkpt>
      <trkpt lat="42.575896" lon="-0.426942">
        <ele>1055.0</ele>
        <time>2019-03-26T10:02:38.000Z</time>
      </trkpt>
      <trkpt lat="42.57591" lon="-0.426942">
        <ele>1055.0</ele>
        <time>2019-03-26T10:02:39.000Z</time>
      </trkpt>
      <trkpt lat="42.575924" lon="-0.426943">
        <ele>1056.0</ele>
        <time>2019-03-26T10:02:40.000Z</time>
      </trkpt>
      <trkpt lat="42.575938" lon="-0.426943">
        <ele>1056.0</ele>
        <time>2019-03-26T10:02:41.000Z</time>
      </trkpt>
      <trkpt lat="42.575953" lon="-0.426944">
        <ele>1056.0</ele>
        <time>2019-03-26T10:02:42.000Z</time>
      </trkpt>
      <trkpt lat="42.575967" lon="-0.426945">
        <ele>1056.0</ele>
        <time>2019-03-26T10:02:43.000Z</time>
      </trkpt>
      <trkpt lat="42.575982" lon="-0.426945">
        <ele>1056.0</ele>
        <time>2019-03-26T10:02:44.000Z</time>
      </trkpt>
      <trkpt lat="42.575997" lon="-0.426946">
        <ele>1056.0</ele>
        <time>2019-03-26T10:02:45.000Z</time>
      </trkpt>
      <trkpt lat="42.576012" lon="-0.426946">
        <ele>1056.0</ele>
        <time>2019-03-26T10:02:46.000Z</time>
      </trkpt>
      <trkpt lat="42.576027" lon="-0.426946">
        <ele>1056.0</ele>
        <time>2019-03-26T10:02:47.000Z</time>
      </trkpt>
      <trkpt lat="42.576042" lon="-0.426946">
        <ele>1057.0</ele>
        <time>2019-03-26T10:02:48.000Z</time>
      </trkpt>
      <trkpt lat="42.576056" lon="-0.426946">
        <ele>1057.0</ele>
        <time>2019-03-26T10:02:49.000Z</time>
      </trkpt>
      <trkpt lat="42.576071" lon="-0.426945">
        <ele>1057.0</ele>
        <time>2019-03-26T10:02:50.000Z</time>
      </trkpt>
      <trkpt lat="42.576085" lon="-0.426943">
        <ele>1057.0</ele>
        <time>2019-03-26T10:02:51.000Z</time>
      </trkpt>
      <trkpt lat="42.576098" lon="-0.426941">
        <ele>1057.0</ele>
        <time>2019-03-26T10:02:52.000Z</time>
      </trkpt>
      <trkpt lat="42.57611" lon="-0.426939">
        <ele>1057.0</ele>
        <time>2019-03-26T10:02:53.000Z</time>
      </trkpt>
      <trkpt lat="42.576123" lon="-0.426936">
        <ele>1057.0</ele>
        <time>2019-03-26T10:02:54.000Z</time>
      </trkpt>
      <trkpt lat="42.576134" lon="-0.426934">
        <ele>1057.0</ele>
        <time>2019-03-26T10:02:55.000Z</time>
      </trkpt>
      <trkpt lat="42.576146" lon="-0.426932">
        <ele>1058.0</ele>
        <time>2019-03-26T10:02:56.000Z</time>
      </trkpt>
      <trkpt lat="42.576157" lon="-0.42693">
        <ele>1058.0</ele>
        <time>2019-03-26T10:02:57.000Z</time>
      </trkpt>
      <trkpt lat="42.576168" lon="-0.426929">
        <ele>1058.0</ele>
        <time>2019-03-26T10:02:58.000Z</time>
      </trkpt>
      <trkpt lat="42.576179" lon="-0.426929">
        <ele>1058.0</ele>
        <time>2019-03-26T10:02:59.000Z</time>
      </trkpt>
      <trkpt lat="42.576189" lon="-0.426929">
        <ele>1058.0</ele>
        <time>2019-03-26T10:03:00.000Z</time>
      </trkpt>
      <trkpt lat="42.576199" lon="-0.42693">
        <ele>1058.0</ele>
        <time>2019-03-26T10:03:01.000Z</time>
      </trkpt>
      <trkpt lat="42.576207" lon="-0.426932">
        <ele>1058.0</ele>
        <time>2019-03-26T10:03:02.000Z</time>
      </trkpt>
      <trkpt lat="42.576213" lon="-0.426933">
        <ele>1058.0</ele>
        <time>2019-03-26T10:03:03.000Z</time>
      </trkpt>
      <trkpt lat="42.576217" lon="-0.426934">
        <ele>1059.0</ele>
        <time>2019-03-26T10:03:04.000Z</time>
      </trkpt>
      <trkpt lat="42.576219" lon="-0.426935">
        <ele>1059.0</ele>
        <time>2019-03-26T10:03:05.000Z</time>
      </trkpt>
      <trkpt lat="42.576219" lon="-0.426935">
        <ele>1059.0</ele>
        <time>2019-03-26T10:03:06.000Z</time>
      </trkpt>
      <trkpt lat="42.57622" lon="-0.426935">
        <ele>1059.0</ele>
        <time>2019-03-26T10:03:07.000Z</time>
      </trkpt>
      <trkpt lat="42.576232" lon="-0.426938">
        <ele>1059.0</ele>
        <time>2019-03-26T10:03:08.000Z</time>
      </trkpt>
      <trkpt lat="42.576291" lon="-0.426943">
        <ele>1059.0</ele>
        <time>2019-03-26T10:03:09.000Z</time>
      </trkpt>
      <trkpt lat="42.576318" lon="-0.426945">
        <ele>1059.0</ele>
        <time>2019-03-26T10:03:10.000Z</time>
      </trkpt>
      <trkpt lat="42.576318" lon="-0.426945">
        <ele>1060.0</ele>
        <time>2019-03-26T10:03:11.000Z</time>
      </trkpt>
      <trkpt lat="42.576321" lon="-0.426945">
        <ele>1060.0</ele>
        <time>2019-03-26T10:03:12.000Z</time>
      </trkpt>
      <trkpt lat="42.576322" lon="-0.426945">
        <ele>1060.0</ele>
        <time>2019-03-26T10:03:13.000Z</time>
      </trkpt>
      <trkpt lat="42.576322" lon="-0.426945">
        <ele>1060.0</ele>
        <time>2019-03-26T10:03:14.000Z</time>
      </trkpt>
      <trkpt lat="42.576323" lon="-0.426944">
        <ele>1060.0</ele>
        <time>2019-03-26T10:03:15.000Z</time>
      </trkpt>
      <trkpt lat="42.576323" lon="-0.426944">
        <ele>1060.0</ele>
        <time>2019-03-26T10:03:16.000Z</time>
      </trkpt>
      <trkpt lat="42.576323" lon="-0.426944">
        <ele>1061.0</ele>
        <time>2019-03-26T10:03:17.000Z</time>
      </trkpt>
      <trkpt lat="42.576327" lon="-0.426941">
        <ele>1061.0</ele>
        <time>2019-03-26T10:03:18.000Z</time>
      </trkpt>
      <trkpt lat="42.576342" lon="-0.426929">
        <ele>1061.0</ele>
        <time>2019-03-26T10:03:19.000Z</time>
      </trkpt>
      <trkpt lat="42.576376" lon="-0.426908">
        <ele>1061.0</ele>
        <time>2019-03-26T10:03:20.000Z</time>
      </trkpt>
      <trkpt lat="42.576397" lon="-0.42688">
        <ele>1061.0</ele>
        <time>2019-03-26T10:03:21.000Z</time>
      </trkpt>
      <trkpt lat="42.576401" lon="-0.426858">
        <ele>1061.0</ele>
        <time>2019-03-26T10:03:22.000Z</time>
      </trkpt>
      <trkpt lat="42.576397" lon="-0.426842">
        <ele>1062.0</ele>
        <time>2019-03-26T10:03:23.000Z</time>
      </trkpt>
      <trkpt lat="42.57639" lon="-0.426829">
        <ele>1062.0</ele>
        <time>2019-03-26T10:03:24.000Z</time>
      </trkpt>
      <trkpt lat="42.576382" lon="-0.426817">
        <ele>1062.0</ele>
        <time>2019-03-26T10:03:25.000Z</time>
      </trkpt>
      <trkpt lat="42.576374" lon="-0.426807">
        <ele>1062.0</ele>
        <time>2019-03-26T10:03:26.000Z</time>
      </trkpt>
      <trkpt lat="42.576365" lon="-0.426796">
        <ele>1062.0</ele>
        <time>2019-03-26T10:03:27.000Z</time>
      </trkpt>
      <trkpt lat="42.576355" lon="-0.426786">
        <ele>1062.0</ele>
        <time>2019-03-26T10:03:28.000Z</time>
      </trkpt>
      <trkpt lat="42.576346" lon="-0.426776">
        <ele>1063.0</ele>
        <time>2019-03-26T10:03:29.000Z</time>
      </trkpt>
      <trkpt lat="42.576336" lon="-0.426766">
        <ele>1063.0</ele>
        <time>2019-03-26T10:03:30.000Z</time>
      </trkpt>
      <trkpt lat="42.576327" lon="-0.426755">
        <ele>1063.0</ele>
        <time>2019-03-26T10:03:31.000Z</time>
      </trkpt>
      <trkpt lat="42.576318" lon="-0.426744">
        <ele>1063.0</ele>
        <time>2019-03-26T10:03:32.000Z</time>
      </trkpt>
      <trkpt lat="42.57631" lon="-0.426733">
        <ele>1063.0</ele>
        <time>2019-03-26T10:03:33.000Z</time>
      </trkpt>
      <trkpt lat="42.576302" lon="-0.426721">
        <ele>1064.0</ele>
        <time>2019-03-26T10:03:34.000Z</time>
      </trkpt>
      <trkpt lat="42.576295" lon="-0.426708">
        <ele>1064.0</ele>
        <time>2019-03-26T10:03:35.000Z</time>
      </trkpt>
      <trkpt lat="42.576289" lon="-0.426695">
        <ele>1064.0</ele>
        <time>2019-03-26T10:03:36.000Z</time>
      </trkpt>
      <trkpt lat="42.576283" lon="-0.426682">
        <ele>1064.0</ele>
        <time>2019-03-26T10:03:37.000Z</time>
      </trkpt>
      <trkpt lat="42.576277" lon="-0.426669">
        <ele>1064.0</ele>
        <time>2019-03-26T10:03:38.000Z</time>
      </trkpt>
      <trkpt lat="42.576271" lon="-0.426655">
        <ele>1064.0</ele>
        <time>2019-03-26T10:03:39.000Z</time>
      </trkpt>
      <trkpt lat="42.576264" lon="-0.426642">
        <ele>1064.0</ele>
        <time>2019-03-26T10:03:40.000Z</time>
      </trkpt>
      <trkpt lat="42.576257" lon="-0.42663">
        <ele>1065.0</ele>
        <time>2019-03-26T10:03:41.000Z</time>
      </trkpt>
      <trkpt lat="42.576249" lon="-0.426617">
        <ele>1065.0</ele>
        <time>2019-03-26T10:03:42.000Z</time>
      </trkpt>
      <trkpt lat="42.576241" lon="-0.426605">
        <ele>1065.0</ele>
        <time>2019-03-26T10:03:43.000Z</time>
      </trkpt>
      <trkpt lat="42.576232" lon="-0.426592">
        <ele>1065.0</ele>
        <time>2019-03-26T10:03:44.000Z</time>
      </trkpt>
      <trkpt lat="42.576223" lon="-0.42658">
        <ele>1065.0</ele>
        <time>2019-03-26T10:03:45.000Z</time>
      </trkpt>
      <trkpt lat="42.576214" lon="-0.426568">
        <ele>1065.0</ele>
        <time>2019-03-26T10:03:46.000Z</time>
      </trkpt>
      <trkpt lat="42.576205" lon="-0.426555">
        <ele>1066.0</ele>
        <time>2019-03-26T10:03:47.000Z</time>
      </trkpt>
      <trkpt lat="42.576196" lon="-0.426543">
        <ele>1066.0</ele>
        <time>2019-03-26T10:03:48.000Z</time>
      </trkpt>
      <trkpt lat="42.576187" lon="-0.42653">
        <ele>1066.0</ele>
        <time>2019-03-26T10:03:49.000Z</time>
      </trkpt>
      <trkpt lat="42.576178" lon="-0.426517">
        <ele>1066.0</ele>
        <time>2019-03-26T10:03:50.000Z</time>
      </trkpt>
      <trkpt lat="42.576169" lon="-0.426504">
        <ele>1066.0</ele>
        <time>2019-03-26T10:03:51.000Z</time>
      </trkpt>
      <trkpt lat="42.57616" lon="-0.42649">
        <ele>1066.0</ele>
        <time>2019-03-26T10:03:52.000Z</time>
      </trkpt>
      <trkpt lat="42.576152" lon="-0.426476">
        <ele>1066.0</ele>
        <time>2019-03-26T10:03:53.000Z</time>
      </trkpt>
      <trkpt lat="42.576144" lon="-0.426462">
        <ele>1067.0</ele>
        <time>2019-03-26T10:03:54.000Z</time>
      </trkpt>
      <trkpt lat="42.576137" lon="-0.426447">
        <ele>1067.0</ele>
        <time>2019-03-26T10:03:55.000Z</time>
      </trkpt>
      <trkpt lat="42.57613" lon="-0.426432">
        <ele>1067.0</ele>
        <time>2019-03-26T10:03:56.000Z</time>
      </trkpt>
      <trkpt lat="42.576123" lon="-0.426416">
        <ele>1067.0</ele>
        <time>2019-03-26T10:03:57.000Z</time>
      </trkpt>
      <trkpt lat="42.576117" lon="-0.4264">
        <ele>1067.0</ele>
        <time>2019-03-26T10:03:58.000Z</time>
      </trkpt>
      <trkpt lat="42.576111" lon="-0.426384">
        <ele>1067.0</ele>
        <time>2019-03-26T10:03:59.000Z</time>
      </trkpt>
      <trkpt lat="42.576106" lon="-0.426367">
        <ele>1067.0</ele>
        <time>2019-03-26T10:04:00.000Z</time>
      </trkpt>
      <trkpt lat="42.5761" lon="-0.42635">
        <ele>1067.0</ele>
        <time>2019-03-26T10:04:01.000Z</time>
      </trkpt>
      <trkpt lat="42.576095" lon="-0.426332">
        <ele>1067.0</ele>
        <time>2019-03-26T10:04:02.000Z</time>
      </trkpt>
      <trkpt lat="42.57609" lon="-0.426314">
        <ele>1068.0</ele>
        <time>2019-03-26T10:04:03.000Z</time>
      </trkpt>
      <trkpt lat="42.576085" lon="-0.426296">
        <ele>1068.0</ele>
        <time>2019-03-26T10:04:04.000Z</time>
      </trkpt>
      <trkpt lat="42.57608" lon="-0.426277">
        <ele>1068.0</ele>
        <time>2019-03-26T10:04:05.000Z</time>
      </trkpt>
      <trkpt lat="42.576075" lon="-0.426259">
        <ele>1068.0</ele>
        <time>2019-03-26T10:04:06.000Z</time>
      </trkpt>
      <trkpt lat="42.576069" lon="-0.426239">
        <ele>1068.0</ele>
        <time>2019-03-26T10:04:07.000Z</time>
      </trkpt>
      <trkpt lat="42.576064" lon="-0.42622">
        <ele>1068.0</ele>
        <time>2019-03-26T10:04:08.000Z</time>
      </trkpt>
      <trkpt lat="42.576059" lon="-0.426201">
        <ele>1068.0</ele>
        <time>2019-03-26T10:04:09.000Z</time>
      </trkpt>
      <trkpt lat="42.576054" lon="-0.426181">
        <ele>1068.0</ele>
        <time>2019-03-26T10:04:10.000Z</time>
      </trkpt>
      <trkpt lat="42.57605" lon="-0.426161">
        <ele>1069.0</ele>
        <time>2019-03-26T10:04:11.000Z</time>
      </trkpt>
      <trkpt lat="42.576046" lon="-0.426141">
        <ele>1069.0</ele>
        <time>2019-03-26T10:04:12.000Z</time>
      </trkpt>
      <trkpt lat="42.576043" lon="-0.426122">
        <ele>1069.0</ele>
        <time>2019-03-26T10:04:13.000Z</time>
      </trkpt>
      <trkpt lat="42.576041" lon="-0.426102">
        <ele>1069.0</ele>
        <time>2019-03-26T10:04:14.000Z</time>
      </trkpt>
      <trkpt lat="42.57604" lon="-0.426082">
        <ele>1069.0</ele>
        <time>2019-03-26T10:04:15.000Z</time>
      </trkpt>
      <trkpt lat="42.576041" lon="-0.426063">
        <ele>1069.0</ele>
        <time>2019-03-26T10:04:16.000Z</time>
      </trkpt>
      <trkpt lat="42.576043" lon="-0.426045">
        <ele>1069.0</ele>
        <time>2019-03-26T10:04:17.000Z</time>
      </trkpt>
      <trkpt lat="42.576046" lon="-0.426027">
        <ele>1069.0</ele>
        <time>2019-03-26T10:04:18.000Z</time>
      </trkpt>
      <trkpt lat="42.576051" lon="-0.42601">
        <ele>1070.0</ele>
        <time>2019-03-26T10:04:19.000Z</time>
      </trkpt>
      <trkpt lat="42.576057" lon="-0.425995">
        <ele>1070.0</ele>
        <time>2019-03-26T10:04:20.000Z</time>
      </trkpt>
      <trkpt lat="42.576064" lon="-0.42598">
        <ele>1070.0</ele>
        <time>2019-03-26T10:04:21.000Z</time>
      </trkpt>
      <trkpt lat="42.576073" lon="-0.425967">
        <ele>1070.0</ele>
        <time>2019-03-26T10:04:22.000Z</time>
      </trkpt>
      <trkpt lat="42.576082" lon="-0.425957">
        <ele>1070.0</ele>
        <time>2019-03-26T10:04:23.000Z</time>
      </trkpt>
      <trkpt lat="42.576089" lon="-0.42595">
        <ele>1070.0</ele>
        <time>2019-03-26T10:04:24.000Z</time>
      </trkpt>
      <trkpt lat="42.576093" lon="-0.425946">
        <ele>1071.0</ele>
        <time>2019-03-26T10:04:25.000Z</time>
      </trkpt>
      <trkpt lat="42.576094" lon="-0.425945">
        <ele>1071.0</ele>
        <time>2019-03-26T10:04:26.000Z</time>
      </trkpt>
      <trkpt lat="42.576094" lon="-0.425945">
        <ele>1071.0</ele>
        <time>2019-03-26T10:04:27.000Z</time>
      </trkpt>
      <trkpt lat="42.576098" lon="-0.425944">
        <ele>1071.0</ele>
        <time>2019-03-26T10:04:28.000Z</time>
      </trkpt>
      <trkpt lat="42.576107" lon="-0.425941">
        <ele>1071.0</ele>
        <time>2019-03-26T10:04:29.000Z</time>
      </trkpt>
      <trkpt lat="42.576122" lon="-0.425937">
        <ele>1072.0</ele>
        <time>2019-03-26T10:04:30.000Z</time>
      </trkpt>
      <trkpt lat="42.576139" lon="-0.425935">
        <ele>1072.0</ele>
        <time>2019-03-26T10:04:31.000Z</time>
      </trkpt>
      <trkpt lat="42.576157" lon="-0.425935">
        <ele>1072.0</ele>
        <time>2019-03-26T10:04:32.000Z</time>
      </trkpt>
      <trkpt lat="42.576172" lon="-0.42594">
        <ele>1072.0</ele>
        <time>2019-03-26T10:04:33.000Z</time>
      </trkpt>
      <trkpt lat="42.576185" lon="-0.425949">
        <ele>1072.0</ele>
        <time>2019-03-26T10:04:34.000Z</time>
      </trkpt>
      <trkpt lat="42.576198" lon="-0.425958">
        <ele>1073.0</ele>
        <time>2019-03-26T10:04:35.000Z</time>
      </trkpt>
      <trkpt lat="42.576211" lon="-0.425968">
        <ele>1073.0</ele>
        <time>2019-03-26T10:04:36.000Z</time>
      </trkpt>
      <trkpt lat="42.576223" lon="-0.425977">
        <ele>1073.0</ele>
        <time>2019-03-26T10:04:37.000Z</time>
      </trkpt>
      <trkpt lat="42.576236" lon="-0.425986">
        <ele>1073.0</ele>
        <time>2019-03-26T10:04:38.000Z</time>
      </trkpt>
      <trkpt lat="42.576248" lon="-0.425995">
        <ele>1073.0</ele>
        <time>2019-03-26T10:04:39.000Z</time>
      </trkpt>
      <trkpt lat="42.576261" lon="-0.426003">
        <ele>1073.0</ele>
        <time>2019-03-26T10:04:40.000Z</time>
      </trkpt>
      <trkpt lat="42.576274" lon="-0.426011">
        <ele>1074.0</ele>
        <time>2019-03-26T10:04:41.000Z</time>
      </trkpt>
      <trkpt lat="42.576286" lon="-0.426019">
        <ele>1074.0</ele>
        <time>2019-03-26T10:04:42.000Z</time>
      </trkpt>
      <trkpt lat="42.576299" lon="-0.426026">
        <ele>1074.0</ele>
        <time>2019-03-26T10:04:43.000Z</time>
      </trkpt>
      <trkpt lat="42.576312" lon="-0.426033">
        <ele>1074.0</ele>
        <time>2019-03-26T10:04:44.000Z</time>
      </trkpt>
      <trkpt lat="42.576325" lon="-0.42604">
        <ele>1074.0</ele>
        <time>2019-03-26T10:04:45.000Z</time>
      </trkpt>
      <trkpt lat="42.576338" lon="-0.426046">
        <ele>1074.0</ele>
        <time>2019-03-26T10:04:46.000Z</time>
      </trkpt>
      <trkpt lat="42.576351" lon="-0.426052">
        <ele>1074.0</ele>
        <time>2019-03-26T10:04:47.000Z</time>
      </trkpt>
      <trkpt lat="42.576364" lon="-0.426058">
        <ele>1075.0</ele>
        <time>2019-03-26T10:04:48.000Z</time>
      </trkpt>
      <trkpt lat="42.576377" lon="-0.426064">
        <ele>1075.0</ele>
        <time>2019-03-26T10:04:49.000Z</time>
      </trkpt>
      <trkpt lat="42.576391" lon="-0.426069">
        <ele>1075.0</ele>
        <time>2019-03-26T10:04:50.000Z</time>
      </trkpt>
      <trkpt lat="42.576404" lon="-0.426074">
        <ele>1075.0</ele>
        <time>2019-03-26T10:04:51.000Z</time>
      </trkpt>
      <trkpt lat="42.576418" lon="-0.426079">
        <ele>1075.0</ele>
        <time>2019-03-26T10:04:52.000Z</time>
      </trkpt>
      <trkpt lat="42.576432" lon="-0.426084">
        <ele>1075.0</ele>
        <time>2019-03-26T10:04:53.000Z</time>
      </trkpt>
      <trkpt lat="42.576446" lon="-0.426088">
        <ele>1075.0</ele>
        <time>2019-03-26T10:04:54.000Z</time>
      </trkpt>
      <trkpt lat="42.57646" lon="-0.426092">
        <ele>1076.0</ele>
        <time>2019-03-26T10:04:55.000Z</time>
      </trkpt>
      <trkpt lat="42.576475" lon="-0.426096">
        <ele>1076.0</ele>
        <time>2019-03-26T10:04:56.000Z</time>
      </trkpt>
      <trkpt lat="42.57649" lon="-0.4261">
        <ele>1076.0</ele>
        <time>2019-03-26T10:04:57.000Z</time>
      </trkpt>
      <trkpt lat="42.576505" lon="-0.426104">
        <ele>1076.0</ele>
        <time>2019-03-26T10:04:58.000Z</time>
      </trkpt>
      <trkpt lat="42.57652" lon="-0.426108">
        <ele>1076.0</ele>
        <time>2019-03-26T10:04:59.000Z</time>
      </trkpt>
      <trkpt lat="42.576536" lon="-0.426112">
        <ele>1076.0</ele>
        <time>2019-03-26T10:05:00.000Z</time>
      </trkpt>
      <trkpt lat="42.576552" lon="-0.426115">
        <ele>1076.0</ele>
        <time>2019-03-26T10:05:01.000Z</time>
      </trkpt>
      <trkpt lat="42.576568" lon="-0.426119">
        <ele>1076.0</ele>
        <time>2019-03-26T10:05:02.000Z</time>
      </trkpt>
      <trkpt lat="42.576585" lon="-0.426122">
        <ele>1077.0</ele>
        <time>2019-03-26T10:05:03.000Z</time>
      </trkpt>
      <trkpt lat="42.576602" lon="-0.426126">
        <ele>1077.0</ele>
        <time>2019-03-26T10:05:04.000Z</time>
      </trkpt>
      <trkpt lat="42.576618" lon="-0.426129">
        <ele>1077.0</ele>
        <time>2019-03-26T10:05:05.000Z</time>
      </trkpt>
      <trkpt lat="42.576633" lon="-0.426133">
        <ele>1077.0</ele>
        <time>2019-03-26T10:05:06.000Z</time>
      </trkpt>
      <trkpt lat="42.576648" lon="-0.426137">
        <ele>1077.0</ele>
        <time>2019-03-26T10:05:07.000Z</time>
      </trkpt>
      <trkpt lat="42.576661" lon="-0.426141">
        <ele>1077.0</ele>
        <time>2019-03-26T10:05:08.000Z</time>
      </trkpt>
      <trkpt lat="42.576672" lon="-0.426145">
        <ele>1077.0</ele>
        <time>2019-03-26T10:05:09.000Z</time>
      </trkpt>
      <trkpt lat="42.576681" lon="-0.426149">
        <ele>1077.0</ele>
        <time>2019-03-26T10:05:10.000Z</time>
      </trkpt>
      <trkpt lat="42.576687" lon="-0.426152">
        <ele>1077.0</ele>
        <time>2019-03-26T10:05:11.000Z</time>
      </trkpt>
      <trkpt lat="42.576688" lon="-0.426153">
        <ele>1078.0</ele>
        <time>2019-03-26T10:05:12.000Z</time>
      </trkpt>
      <trkpt lat="42.576688" lon="-0.426153">
        <ele>1078.0</ele>
        <time>2019-03-26T10:05:13.000Z</time>
      </trkpt>
      <trkpt lat="42.57669" lon="-0.426154">
        <ele>1078.0</ele>
        <time>2019-03-26T10:05:14.000Z</time>
      </trkpt>
      <trkpt lat="42.576696" lon="-0.426156">
        <ele>1078.0</ele>
        <time>2019-03-26T10:05:15.000Z</time>
      </trkpt>
      <trkpt lat="42.576709" lon="-0.426161">
        <ele>1078.0</ele>
        <time>2019-03-26T10:05:16.000Z</time>
      </trkpt>
      <trkpt lat="42.576735" lon="-0.42617">
        <ele>1078.0</ele>
        <time>2019-03-26T10:05:17.000Z</time>
      </trkpt>
      <trkpt lat="42.576777" lon="-0.426187">
        <ele>1078.0</ele>
        <time>2019-03-26T10:05:18.000Z</time>
      </trkpt>
      <trkpt lat="42.576801" lon="-0.4262">
        <ele>1078.0</ele>
        <time>2019-03-26T10:05:19.000Z</time>
      </trkpt>
      <trkpt lat="42.57681" lon="-0.426209">
        <ele>1078.0</ele>
        <time>2019-03-26T10:05:20.000Z</time>
      </trkpt>
      <trkpt lat="42.576819" lon="-0.42622">
        <ele>1078.0</ele>
        <time>2019-03-26T10:05:21.000Z</time>
      </trkpt>
      <trkpt lat="42.57683" lon="-0.426231">
        <ele>1079.0</ele>
        <time>2019-03-26T10:05:22.000Z</time>
      </trkpt>
      <trkpt lat="42.576842" lon="-0.426242">
        <ele>1079.0</ele>
        <time>2019-03-26T10:05:23.000Z</time>
      </trkpt>
      <trkpt lat="42.576854" lon="-0.426252">
        <ele>1079.0</ele>
        <time>2019-03-26T10:05:24.000Z</time>
      </trkpt>
      <trkpt lat="42.576866" lon="-0.42626">
        <ele>1079.0</ele>
        <time>2019-03-26T10:05:25.000Z</time>
      </trkpt>
      <trkpt lat="42.576878" lon="-0.426268">
        <ele>1079.0</ele>
        <time>2019-03-26T10:05:26.000Z</time>
      </trkpt>
      <trkpt lat="42.576891" lon="-0.426276">
        <ele>1079.0</ele>
        <time>2019-03-26T10:05:27.000Z</time>
      </trkpt>
      <trkpt lat="42.576903" lon="-0.426286">
        <ele>1079.0</ele>
        <time>2019-03-26T10:05:28.000Z</time>
      </trkpt>
      <trkpt lat="42.576916" lon="-0.426297">
        <ele>1079.0</ele>
        <time>2019-03-26T10:05:29.000Z</time>
      </trkpt>
      <trkpt lat="42.576928" lon="-0.426311">
        <ele>1079.0</ele>
        <time>2019-03-26T10:05:30.000Z</time>
      </trkpt>
      <trkpt lat="42.576941" lon="-0.426328">
        <ele>1079.0</ele>
        <time>2019-03-26T10:05:31.000Z</time>
      </trkpt>
      <trkpt lat="42.576953" lon="-0.426348">
        <ele>1079.0</ele>
        <time>2019-03-26T10:05:32.000Z</time>
      </trkpt>
      <trkpt lat="42.576965" lon="-0.426369">
        <ele>1079.0</ele>
        <time>2019-03-26T10:05:33.000Z</time>
      </trkpt>
      <trkpt lat="42.576976" lon="-0.426392">
        <ele>1079.0</ele>
        <time>2019-03-26T10:05:34.000Z</time>
      </trkpt>
      <trkpt lat="42.576987" lon="-0.426416">
        <ele>1079.0</ele>
        <time>2019-03-26T10:05:35.000Z</time>
      </trkpt>
      <trkpt lat="42.576996" lon="-0.42644">
        <ele>1079.0</ele>
        <time>2019-03-26T10:05:36.000Z</time>
      </trkpt>
      <trkpt lat="42.577005" lon="-0.426463">
        <ele>1080.0</ele>
        <time>2019-03-26T10:05:37.000Z</time>
      </trkpt>
      <trkpt lat="42.577013" lon="-0.426485">
        <ele>1080.0</ele>
        <time>2019-03-26T10:05:38.000Z</time>
      </trkpt>
      <trkpt lat="42.57702" lon="-0.426506">
        <ele>1080.0</ele>
        <time>2019-03-26T10:05:39.000Z</time>
      </trkpt>
      <trkpt lat="42.577026" lon="-0.426526">
        <ele>1080.0</ele>
        <time>2019-03-26T10:05:40.000Z</time>
      </trkpt>
      <trkpt lat="42.577031" lon="-0.426544">
        <ele>1080.0</ele>
        <time>2019-03-26T10:05:41.000Z</time>
      </trkpt>
      <trkpt lat="42.577037" lon="-0.426562">
        <ele>1080.0</ele>
        <time>2019-03-26T10:05:42.000Z</time>
      </trkpt>
      <trkpt lat="42.577042" lon="-0.42658">
        <ele>1080.0</ele>
        <time>2019-03-26T10:05:43.000Z</time>
      </trkpt>
      <trkpt lat="42.577047" lon="-0.426597">
        <ele>1081.0</ele>
        <time>2019-03-26T10:05:44.000Z</time>
      </trkpt>
      <trkpt lat="42.577053" lon="-0.426614">
        <ele>1081.0</ele>
        <time>2019-03-26T10:05:45.000Z</time>
      </trkpt>
      <trkpt lat="42.577059" lon="-0.426631">
        <ele>1081.0</ele>
        <time>2019-03-26T10:05:46.000Z</time>
      </trkpt>
      <trkpt lat="42.577065" lon="-0.426648">
        <ele>1081.0</ele>
        <time>2019-03-26T10:05:47.000Z</time>
      </trkpt>
      <trkpt lat="42.577071" lon="-0.426664">
        <ele>1081.0</ele>
        <time>2019-03-26T10:05:48.000Z</time>
      </trkpt>
      <trkpt lat="42.577078" lon="-0.426681">
        <ele>1081.0</ele>
        <time>2019-03-26T10:05:49.000Z</time>
      </trkpt>
      <trkpt lat="42.577084" lon="-0.426697">
        <ele>1081.0</ele>
        <time>2019-03-26T10:05:50.000Z</time>
      </trkpt>
      <trkpt lat="42.577091" lon="-0.426713">
        <ele>1081.0</ele>
        <time>2019-03-26T10:05:51.000Z</time>
      </trkpt>
      <trkpt lat="42.577097" lon="-0.42673">
        <ele>1082.0</ele>
        <time>2019-03-26T10:05:52.000Z</time>
      </trkpt>
      <trkpt lat="42.577104" lon="-0.426746">
        <ele>1082.0</ele>
        <time>2019-03-26T10:05:53.000Z</time>
      </trkpt>
      <trkpt lat="42.57711" lon="-0.426762">
        <ele>1082.0</ele>
        <time>2019-03-26T10:05:54.000Z</time>
      </trkpt>
      <trkpt lat="42.577116" lon="-0.426779">
        <ele>1082.0</ele>
        <time>2019-03-26T10:05:55.000Z</time>
      </trkpt>
      <trkpt lat="42.577122" lon="-0.426795">
        <ele>1082.0</ele>
        <time>2019-03-26T10:05:56.000Z</time>
      </trkpt>
      <trkpt lat="42.577128" lon="-0.426812">
        <ele>1082.0</ele>
        <time>2019-03-26T10:05:57.000Z</time>
      </trkpt>
      <trkpt lat="42.577133" lon="-0.426829">
        <ele>1082.0</ele>
        <time>2019-03-26T10:05:58.000Z</time>
      </trkpt>
      <trkpt lat="42.577139" lon="-0.426846">
        <ele>1082.0</ele>
        <time>2019-03-26T10:05:59.000Z</time>
      </trkpt>
      <trkpt lat="42.577144" lon="-0.426863">
        <ele>1082.0</ele>
        <time>2019-03-26T10:06:00.000Z</time>
      </trkpt>
      <trkpt lat="42.57715" lon="-0.426879">
        <ele>1083.0</ele>
        <time>2019-03-26T10:06:01.000Z</time>
      </trkpt>
      <trkpt lat="42.577155" lon="-0.426896">
        <ele>1083.0</ele>
        <time>2019-03-26T10:06:02.000Z</time>
      </trkpt>
      <trkpt lat="42.577161" lon="-0.426913">
        <ele>1083.0</ele>
        <time>2019-03-26T10:06:03.000Z</time>
      </trkpt>
      <trkpt lat="42.577167" lon="-0.426929">
        <ele>1083.0</ele>
        <time>2019-03-26T10:06:04.000Z</time>
      </trkpt>
      <trkpt lat="42.577174" lon="-0.426945">
        <ele>1083.0</ele>
        <time>2019-03-26T10:06:05.000Z</time>
      </trkpt>
      <trkpt lat="42.577181" lon="-0.426961">
        <ele>1083.0</ele>
        <time>2019-03-26T10:06:06.000Z</time>
      </trkpt>
      <trkpt lat="42.577189" lon="-0.426977">
        <ele>1083.0</ele>
        <time>2019-03-26T10:06:07.000Z</time>
      </trkpt>
      <trkpt lat="42.577196" lon="-0.426992">
        <ele>1083.0</ele>
        <time>2019-03-26T10:06:08.000Z</time>
      </trkpt>
      <trkpt lat="42.577204" lon="-0.427008">
        <ele>1083.0</ele>
        <time>2019-03-26T10:06:09.000Z</time>
      </trkpt>
      <trkpt lat="42.577211" lon="-0.427023">
        <ele>1083.0</ele>
        <time>2019-03-26T10:06:10.000Z</time>
      </trkpt>
      <trkpt lat="42.577218" lon="-0.427038">
        <ele>1084.0</ele>
        <time>2019-03-26T10:06:11.000Z</time>
      </trkpt>
      <trkpt lat="42.577224" lon="-0.427054">
        <ele>1084.0</ele>
        <time>2019-03-26T10:06:12.000Z</time>
      </trkpt>
      <trkpt lat="42.57723" lon="-0.427069">
        <ele>1084.0</ele>
        <time>2019-03-26T10:06:13.000Z</time>
      </trkpt>
      <trkpt lat="42.577235" lon="-0.427085">
        <ele>1084.0</ele>
        <time>2019-03-26T10:06:14.000Z</time>
      </trkpt>
      <trkpt lat="42.57724" lon="-0.427101">
        <ele>1084.0</ele>
        <time>2019-03-26T10:06:15.000Z</time>
      </trkpt>
      <trkpt lat="42.577245" lon="-0.427117">
        <ele>1084.0</ele>
        <time>2019-03-26T10:06:16.000Z</time>
      </trkpt>
      <trkpt lat="42.57725" lon="-0.427134">
        <ele>1084.0</ele>
        <time>2019-03-26T10:06:17.000Z</time>
      </trkpt>
      <trkpt lat="42.577254" lon="-0.427152">
        <ele>1084.0</ele>
        <time>2019-03-26T10:06:18.000Z</time>
      </trkpt>
      <trkpt lat="42.577258" lon="-0.42717">
        <ele>1084.0</ele>
        <time>2019-03-26T10:06:19.000Z</time>
      </trkpt>
      <trkpt lat="42.577263" lon="-0.427189">
        <ele>1084.0</ele>
        <time>2019-03-26T10:06:20.000Z</time>
      </trkpt>
      <trkpt lat="42.577267" lon="-0.427208">
        <ele>1084.0</ele>
        <time>2019-03-26T10:06:21.000Z</time>
      </trkpt>
      <trkpt lat="42.577271" lon="-0.427228">
        <ele>1085.0</ele>
        <time>2019-03-26T10:06:22.000Z</time>
      </trkpt>
      <trkpt lat="42.577275" lon="-0.427248">
        <ele>1085.0</ele>
        <time>2019-03-26T10:06:23.000Z</time>
      </trkpt>
      <trkpt lat="42.577279" lon="-0.427268">
        <ele>1085.0</ele>
        <time>2019-03-26T10:06:24.000Z</time>
      </trkpt>
      <trkpt lat="42.577283" lon="-0.427288">
        <ele>1085.0</ele>
        <time>2019-03-26T10:06:25.000Z</time>
      </trkpt>
      <trkpt lat="42.577287" lon="-0.427308">
        <ele>1085.0</ele>
        <time>2019-03-26T10:06:26.000Z</time>
      </trkpt>
      <trkpt lat="42.577291" lon="-0.427328">
        <ele>1085.0</ele>
        <time>2019-03-26T10:06:27.000Z</time>
      </trkpt>
      <trkpt lat="42.577295" lon="-0.427348">
        <ele>1085.0</ele>
        <time>2019-03-26T10:06:28.000Z</time>
      </trkpt>
      <trkpt lat="42.577299" lon="-0.427368">
        <ele>1086.0</ele>
        <time>2019-03-26T10:06:29.000Z</time>
      </trkpt>
      <trkpt lat="42.577303" lon="-0.427388">
        <ele>1086.0</ele>
        <time>2019-03-26T10:06:30.000Z</time>
      </trkpt>
      <trkpt lat="42.577307" lon="-0.427408">
        <ele>1086.0</ele>
        <time>2019-03-26T10:06:31.000Z</time>
      </trkpt>
      <trkpt lat="42.577311" lon="-0.427428">
        <ele>1086.0</ele>
        <time>2019-03-26T10:06:32.000Z</time>
      </trkpt>
      <trkpt lat="42.577315" lon="-0.427447">
        <ele>1086.0</ele>
        <time>2019-03-26T10:06:33.000Z</time>
      </trkpt>
      <trkpt lat="42.577319" lon="-0.427467">
        <ele>1086.0</ele>
        <time>2019-03-26T10:06:34.000Z</time>
      </trkpt>
      <trkpt lat="42.577323" lon="-0.427486">
        <ele>1086.0</ele>
        <time>2019-03-26T10:06:35.000Z</time>
      </trkpt>
      <trkpt lat="42.577328" lon="-0.427506">
        <ele>1086.0</ele>
        <time>2019-03-26T10:06:36.000Z</time>
      </trkpt>
      <trkpt lat="42.577332" lon="-0.427525">
        <ele>1086.0</ele>
        <time>2019-03-26T10:06:37.000Z</time>
      </trkpt>
      <trkpt lat="42.577336" lon="-0.427544">
        <ele>1086.0</ele>
        <time>2019-03-26T10:06:38.000Z</time>
      </trkpt>
      <trkpt lat="42.577341" lon="-0.427562">
        <ele>1086.0</ele>
        <time>2019-03-26T10:06:39.000Z</time>
      </trkpt>
      <trkpt lat="42.577345" lon="-0.427581">
        <ele>1087.0</ele>
        <time>2019-03-26T10:06:40.000Z</time>
      </trkpt>
      <trkpt lat="42.57735" lon="-0.427599">
        <ele>1087.0</ele>
        <time>2019-03-26T10:06:41.000Z</time>
      </trkpt>
      <trkpt lat="42.577355" lon="-0.427617">
        <ele>1087.0</ele>
        <time>2019-03-26T10:06:42.000Z</time>
      </trkpt>
      <trkpt lat="42.57736" lon="-0.427635">
        <ele>1087.0</ele>
        <time>2019-03-26T10:06:43.000Z</time>
      </trkpt>
      <trkpt lat="42.577366" lon="-0.427652">
        <ele>1087.0</ele>
        <time>2019-03-26T10:06:44.000Z</time>
      </trkpt>
      <trkpt lat="42.577372" lon="-0.427669">
        <ele>1087.0</ele>
        <time>2019-03-26T10:06:45.000Z</time>
      </trkpt>
      <trkpt lat="42.577379" lon="-0.427685">
        <ele>1087.0</ele>
        <time>2019-03-26T10:06:46.000Z</time>
      </trkpt>
      <trkpt lat="42.577386" lon="-0.427701">
        <ele>1087.0</ele>
        <time>2019-03-26T10:06:47.000Z</time>
      </trkpt>
      <trkpt lat="42.577394" lon="-0.427715">
        <ele>1087.0</ele>
        <time>2019-03-26T10:06:48.000Z</time>
      </trkpt>
      <trkpt lat="42.577402" lon="-0.427728">
        <ele>1088.0</ele>
        <time>2019-03-26T10:06:49.000Z</time>
      </trkpt>
      <trkpt lat="42.577411" lon="-0.427739">
        <ele>1088.0</ele>
        <time>2019-03-26T10:06:50.000Z</time>
      </trkpt>
      <trkpt lat="42.57742" lon="-0.427747">
        <ele>1088.0</ele>
        <time>2019-03-26T10:06:51.000Z</time>
      </trkpt>
      <trkpt lat="42.57743" lon="-0.427752">
        <ele>1088.0</ele>
        <time>2019-03-26T10:06:52.000Z</time>
      </trkpt>
      <trkpt lat="42.57744" lon="-0.427754">
        <ele>1088.0</ele>
        <time>2019-03-26T10:06:53.000Z</time>
      </trkpt>
      <trkpt lat="42.57745" lon="-0.427752">
        <ele>1089.0</ele>
        <time>2019-03-26T10:06:54.000Z</time>
      </trkpt>
      <trkpt lat="42.577458" lon="-0.427746">
        <ele>1089.0</ele>
        <time>2019-03-26T10:06:55.000Z</time>
      </trkpt>
      <trkpt lat="42.577463" lon="-0.427738">
        <ele>1089.0</ele>
        <time>2019-03-26T10:06:56.000Z</time>
      </trkpt>
      <trkpt lat="42.577466" lon="-0.427726">
        <ele>1089.0</ele>
        <time>2019-03-26T10:06:57.000Z</time>
      </trkpt>
      <trkpt lat="42.577466" lon="-0.427712">
        <ele>1089.0</ele>
        <time>2019-03-26T10:06:58.000Z</time>
      </trkpt>
      <trkpt lat="42.577464" lon="-0.427697">
        <ele>1089.0</ele>
        <time>2019-03-26T10:06:59.000Z</time>
      </trkpt>
      <trkpt lat="42.577462" lon="-0.427681">
        <ele>1090.0</ele>
        <time>2019-03-26T10:07:00.000Z</time>
      </trkpt>
      <trkpt lat="42.57746" lon="-0.427665">
        <ele>1090.0</ele>
        <time>2019-03-26T10:07:01.000Z</time>
      </trkpt>
      <trkpt lat="42.577458" lon="-0.427648">
        <ele>1090.0</ele>
        <time>2019-03-26T10:07:02.000Z</time>
      </trkpt>
      <trkpt lat="42.577455" lon="-0.427632">
        <ele>1090.0</ele>
        <time>2019-03-26T10:07:03.000Z</time>
      </trkpt>
      <trkpt lat="42.577453" lon="-0.427615">
        <ele>1090.0</ele>
        <time>2019-03-26T10:07:04.000Z</time>
      </trkpt>
      <trkpt lat="42.57745" lon="-0.427599">
        <ele>1091.0</ele>
        <time>2019-03-26T10:07:05.000Z</time>
      </trkpt>
      <trkpt lat="42.577448" lon="-0.427582">
        <ele>1091.0</ele>
        <time>2019-03-26T10:07:06.000Z</time>
      </trkpt>
      <trkpt lat="42.577446" lon="-0.427565">
        <ele>1091.0</ele>
        <time>2019-03-26T10:07:07.000Z</time>
      </trkpt>
      <trkpt lat="42.577444" lon="-0.427549">
        <ele>1091.0</ele>
        <time>2019-03-26T10:07:08.000Z</time>
      </trkpt>
      <trkpt lat="42.577442" lon="-0.427532">
        <ele>1091.0</ele>
        <time>2019-03-26T10:07:09.000Z</time>
      </trkpt>
      <trkpt lat="42.577441" lon="-0.427517">
        <ele>1091.0</ele>
        <time>2019-03-26T10:07:10.000Z</time>
      </trkpt>
      <trkpt lat="42.577441" lon="-0.427501">
        <ele>1091.0</ele>
        <time>2019-03-26T10:07:11.000Z</time>
      </trkpt>
      <trkpt lat="42.577441" lon="-0.427487">
        <ele>1092.0</ele>
        <time>2019-03-26T10:07:12.000Z</time>
      </trkpt>
      <trkpt lat="42.577443" lon="-0.427473">
        <ele>1092.0</ele>
        <time>2019-03-26T10:07:13.000Z</time>
      </trkpt>
      <trkpt lat="42.577445" lon="-0.427461">
        <ele>1092.0</ele>
        <time>2019-03-26T10:07:14.000Z</time>
      </trkpt>
      <trkpt lat="42.577447" lon="-0.42745">
        <ele>1092.0</ele>
        <time>2019-03-26T10:07:15.000Z</time>
      </trkpt>
      <trkpt lat="42.57745" lon="-0.427442">
        <ele>1092.0</ele>
        <time>2019-03-26T10:07:16.000Z</time>
      </trkpt>
      <trkpt lat="42.577451" lon="-0.427438">
        <ele>1092.0</ele>
        <time>2019-03-26T10:07:17.000Z</time>
      </trkpt>
      <trkpt lat="42.577451" lon="-0.427438">
        <ele>1092.0</ele>
        <time>2019-03-26T10:07:18.000Z</time>
      </trkpt>
      <trkpt lat="42.577451" lon="-0.427438">
        <ele>1092.0</ele>
        <time>2019-03-26T10:07:19.000Z</time>
      </trkpt>
      <trkpt lat="42.577452" lon="-0.427434">
        <ele>1092.0</ele>
        <time>2019-03-26T10:07:20.000Z</time>
      </trkpt>
      <trkpt lat="42.577456" lon="-0.427422">
        <ele>1092.0</ele>
        <time>2019-03-26T10:07:21.000Z</time>
      </trkpt>
      <trkpt lat="42.577463" lon="-0.427398">
        <ele>1093.0</ele>
        <time>2019-03-26T10:07:22.000Z</time>
      </trkpt>
      <trkpt lat="42.577472" lon="-0.427372">
        <ele>1093.0</ele>
        <time>2019-03-26T10:07:23.000Z</time>
      </trkpt>
      <trkpt lat="42.577481" lon="-0.427347">
        <ele>1093.0</ele>
        <time>2019-03-26T10:07:24.000Z</time>
      </trkpt>
      <trkpt lat="42.577484" lon="-0.427323">
        <ele>1093.0</ele>
        <time>2019-03-26T10:07:25.000Z</time>
      </trkpt>
      <trkpt lat="42.577483" lon="-0.4273">
        <ele>1093.0</ele>
        <time>2019-03-26T10:07:26.000Z</time>
      </trkpt>
      <trkpt lat="42.577481" lon="-0.427279">
        <ele>1093.0</ele>
        <time>2019-03-26T10:07:27.000Z</time>
      </trkpt>
      <trkpt lat="42.577478" lon="-0.427261">
        <ele>1093.0</ele>
        <time>2019-03-26T10:07:28.000Z</time>
      </trkpt>
      <trkpt lat="42.577476" lon="-0.427245">
        <ele>1093.0</ele>
        <time>2019-03-26T10:07:29.000Z</time>
      </trkpt>
      <trkpt lat="42.577474" lon="-0.427229">
        <ele>1093.0</ele>
        <time>2019-03-26T10:07:30.000Z</time>
      </trkpt>
      <trkpt lat="42.577472" lon="-0.427212">
        <ele>1093.0</ele>
        <time>2019-03-26T10:07:31.000Z</time>
      </trkpt>
      <trkpt lat="42.577471" lon="-0.427192">
        <ele>1093.0</ele>
        <time>2019-03-26T10:07:32.000Z</time>
      </trkpt>
      <trkpt lat="42.57747" lon="-0.42717">
        <ele>1094.0</ele>
        <time>2019-03-26T10:07:33.000Z</time>
      </trkpt>
      <trkpt lat="42.577471" lon="-0.42715">
        <ele>1094.0</ele>
        <time>2019-03-26T10:07:34.000Z</time>
      </trkpt>
      <trkpt lat="42.577473" lon="-0.427133">
        <ele>1094.0</ele>
        <time>2019-03-26T10:07:35.000Z</time>
      </trkpt>
      <trkpt lat="42.577476" lon="-0.427118">
        <ele>1094.0</ele>
        <time>2019-03-26T10:07:36.000Z</time>
      </trkpt>
      <trkpt lat="42.577479" lon="-0.427104">
        <ele>1094.0</ele>
        <time>2019-03-26T10:07:37.000Z</time>
      </trkpt>
      <trkpt lat="42.577481" lon="-0.42709">
        <ele>1094.0</ele>
        <time>2019-03-26T10:07:38.000Z</time>
      </trkpt>
      <trkpt lat="42.577482" lon="-0.427075">
        <ele>1095.0</ele>
        <time>2019-03-26T10:07:39.000Z</time>
      </trkpt>
      <trkpt lat="42.577482" lon="-0.427059">
        <ele>1095.0</ele>
        <time>2019-03-26T10:07:40.000Z</time>
      </trkpt>
      <trkpt lat="42.577481" lon="-0.427041">
        <ele>1095.0</ele>
        <time>2019-03-26T10:07:41.000Z</time>
      </trkpt>
      <trkpt lat="42.57748" lon="-0.427024">
        <ele>1095.0</ele>
        <time>2019-03-26T10:07:42.000Z</time>
      </trkpt>
      <trkpt lat="42.577479" lon="-0.427006">
        <ele>1095.0</ele>
        <time>2019-03-26T10:07:43.000Z</time>
      </trkpt>
      <trkpt lat="42.577479" lon="-0.426988">
        <ele>1095.0</ele>
        <time>2019-03-26T10:07:44.000Z</time>
      </trkpt>
      <trkpt lat="42.57748" lon="-0.426969">
        <ele>1095.0</ele>
        <time>2019-03-26T10:07:45.000Z</time>
      </trkpt>
      <trkpt lat="42.577483" lon="-0.426952">
        <ele>1096.0</ele>
        <time>2019-03-26T10:07:46.000Z</time>
      </trkpt>
      <trkpt lat="42.577487" lon="-0.426934">
        <ele>1096.0</ele>
        <time>2019-03-26T10:07:47.000Z</time>
      </trkpt>
      <trkpt lat="42.577493" lon="-0.426917">
        <ele>1096.0</ele>
        <time>2019-03-26T10:07:48.000Z</time>
      </trkpt>
      <trkpt lat="42.5775" lon="-0.426901">
        <ele>1096.0</ele>
        <time>2019-03-26T10:07:49.000Z</time>
      </trkpt>
      <trkpt lat="42.577507" lon="-0.426889">
        <ele>1096.0</ele>
        <time>2019-03-26T10:07:50.000Z</time>
      </trkpt>
      <trkpt lat="42.577513" lon="-0.42688">
        <ele>1096.0</ele>
        <time>2019-03-26T10:07:51.000Z</time>
      </trkpt>
      <trkpt lat="42.577515" lon="-0.426875">
        <ele>1097.0</ele>
        <time>2019-03-26T10:07:52.000Z</time>
      </trkpt>
      <trkpt lat="42.577517" lon="-0.426874">
        <ele>1097.0</ele>
        <time>2019-03-26T10:07:53.000Z</time>
      </trkpt>
      <trkpt lat="42.577517" lon="-0.426874">
        <ele>1097.0</ele>
        <time>2019-03-26T10:07:54.000Z</time>
      </trkpt>
      <trkpt lat="42.577517" lon="-0.426874">
        <ele>1097.0</ele>
        <time>2019-03-26T10:07:55.000Z</time>
      </trkpt>
      <trkpt lat="42.577517" lon="-0.426874">
        <ele>1097.0</ele>
        <time>2019-03-26T10:07:56.000Z</time>
      </trkpt>
      <trkpt lat="42.577517" lon="-0.426873">
        <ele>1097.0</ele>
        <time>2019-03-26T10:07:57.000Z</time>
      </trkpt>
      <trkpt lat="42.577518" lon="-0.426873">
        <ele>1097.0</ele>
        <time>2019-03-26T10:07:58.000Z</time>
      </trkpt>
      <trkpt lat="42.577519" lon="-0.426873">
        <ele>1097.0</ele>
        <time>2019-03-26T10:07:59.000Z</time>
      </trkpt>
      <trkpt lat="42.577521" lon="-0.426873">
        <ele>1098.0</ele>
        <time>2019-03-26T10:08:00.000Z</time>
      </trkpt>
      <trkpt lat="42.577523" lon="-0.426873">
        <ele>1098.0</ele>
        <time>2019-03-26T10:08:01.000Z</time>
      </trkpt>
      <trkpt lat="42.577528" lon="-0.42687">
        <ele>1098.0</ele>
        <time>2019-03-26T10:08:02.000Z</time>
      </trkpt>
      <trkpt lat="42.577544" lon="-0.426857">
        <ele>1098.0</ele>
        <time>2019-03-26T10:08:03.000Z</time>
      </trkpt>
      <trkpt lat="42.577561" lon="-0.426856">
        <ele>1098.0</ele>
        <time>2019-03-26T10:08:04.000Z</time>
      </trkpt>
      <trkpt lat="42.57758" lon="-0.426866">
        <ele>1099.0</ele>
        <time>2019-03-26T10:08:05.000Z</time>
      </trkpt>
      <trkpt lat="42.577589" lon="-0.426878">
        <ele>1099.0</ele>
        <time>2019-03-26T10:08:06.000Z</time>
      </trkpt>
      <trkpt lat="42.577591" lon="-0.426891">
        <ele>1099.0</ele>
        <time>2019-03-26T10:08:07.000Z</time>
      </trkpt>
      <trkpt lat="42.57759" lon="-0.426905">
        <ele>1099.0</ele>
        <time>2019-03-26T10:08:08.000Z</time>
      </trkpt>
      <trkpt lat="42.57759" lon="-0.426919">
        <ele>1100.0</ele>
        <time>2019-03-26T10:08:09.000Z</time>
      </trkpt>
      <trkpt lat="42.577593" lon="-0.426935">
        <ele>1100.0</ele>
        <time>2019-03-26T10:08:10.000Z</time>
      </trkpt>
      <trkpt lat="42.577597" lon="-0.42695">
        <ele>1100.0</ele>
        <time>2019-03-26T10:08:11.000Z</time>
      </trkpt>
      <trkpt lat="42.577602" lon="-0.426967">
        <ele>1100.0</ele>
        <time>2019-03-26T10:08:12.000Z</time>
      </trkpt>
      <trkpt lat="42.577608" lon="-0.426984">
        <ele>1100.0</ele>
        <time>2019-03-26T10:08:13.000Z</time>
      </trkpt>
      <trkpt lat="42.577615" lon="-0.427001">
        <ele>1100.0</ele>
        <time>2019-03-26T10:08:14.000Z</time>
      </trkpt>
      <trkpt lat="42.577622" lon="-0.427018">
        <ele>1101.0</ele>
        <time>2019-03-26T10:08:15.000Z</time>
      </trkpt>
      <trkpt lat="42.577628" lon="-0.427036">
        <ele>1101.0</ele>
        <time>2019-03-26T10:08:16.000Z</time>
      </trkpt>
      <trkpt lat="42.577635" lon="-0.427053">
        <ele>1101.0</ele>
        <time>2019-03-26T10:08:17.000Z</time>
      </trkpt>
      <trkpt lat="42.577641" lon="-0.427071">
        <ele>1101.0</ele>
        <time>2019-03-26T10:08:18.000Z</time>
      </trkpt>
      <trkpt lat="42.577647" lon="-0.427088">
        <ele>1101.0</ele>
        <time>2019-03-26T10:08:19.000Z</time>
      </trkpt>
      <trkpt lat="42.577653" lon="-0.427105">
        <ele>1101.0</ele>
        <time>2019-03-26T10:08:20.000Z</time>
      </trkpt>
      <trkpt lat="42.577659" lon="-0.427122">
        <ele>1101.0</ele>
        <time>2019-03-26T10:08:21.000Z</time>
      </trkpt>
      <trkpt lat="42.577665" lon="-0.427139">
        <ele>1101.0</ele>
        <time>2019-03-26T10:08:22.000Z</time>
      </trkpt>
      <trkpt lat="42.57767" lon="-0.427156">
        <ele>1101.0</ele>
        <time>2019-03-26T10:08:23.000Z</time>
      </trkpt>
      <trkpt lat="42.577675" lon="-0.427173">
        <ele>1101.0</ele>
        <time>2019-03-26T10:08:24.000Z</time>
      </trkpt>
      <trkpt lat="42.57768" lon="-0.427189">
        <ele>1102.0</ele>
        <time>2019-03-26T10:08:25.000Z</time>
      </trkpt>
      <trkpt lat="42.577686" lon="-0.427205">
        <ele>1102.0</ele>
        <time>2019-03-26T10:08:26.000Z</time>
      </trkpt>
      <trkpt lat="42.577691" lon="-0.427221">
        <ele>1102.0</ele>
        <time>2019-03-26T10:08:27.000Z</time>
      </trkpt>
      <trkpt lat="42.577696" lon="-0.427237">
        <ele>1102.0</ele>
        <time>2019-03-26T10:08:28.000Z</time>
      </trkpt>
      <trkpt lat="42.5777" lon="-0.427252">
        <ele>1102.0</ele>
        <time>2019-03-26T10:08:29.000Z</time>
      </trkpt>
      <trkpt lat="42.577705" lon="-0.427267">
        <ele>1102.0</ele>
        <time>2019-03-26T10:08:30.000Z</time>
      </trkpt>
      <trkpt lat="42.57771" lon="-0.427282">
        <ele>1102.0</ele>
        <time>2019-03-26T10:08:31.000Z</time>
      </trkpt>
      <trkpt lat="42.577715" lon="-0.427296">
        <ele>1102.0</ele>
        <time>2019-03-26T10:08:32.000Z</time>
      </trkpt>
      <trkpt lat="42.577719" lon="-0.427311">
        <ele>1103.0</ele>
        <time>2019-03-26T10:08:33.000Z</time>
      </trkpt>
      <trkpt lat="42.577724" lon="-0.427326">
        <ele>1103.0</ele>
        <time>2019-03-26T10:08:34.000Z</time>
      </trkpt>
      <trkpt lat="42.577728" lon="-0.427342">
        <ele>1103.0</ele>
        <time>2019-03-26T10:08:35.000Z</time>
      </trkpt>
      <trkpt lat="42.577732" lon="-0.427358">
        <ele>1103.0</ele>
        <time>2019-03-26T10:08:36.000Z</time>
      </trkpt>
      <trkpt lat="42.577735" lon="-0.427375">
        <ele>1103.0</ele>
        <time>2019-03-26T10:08:37.000Z</time>
      </trkpt>
      <trkpt lat="42.577739" lon="-0.427393">
        <ele>1103.0</ele>
        <time>2019-03-26T10:08:38.000Z</time>
      </trkpt>
      <trkpt lat="42.577743" lon="-0.42741">
        <ele>1103.0</ele>
        <time>2019-03-26T10:08:39.000Z</time>
      </trkpt>
      <trkpt lat="42.577747" lon="-0.427427">
        <ele>1103.0</ele>
        <time>2019-03-26T10:08:40.000Z</time>
      </trkpt>
      <trkpt lat="42.577752" lon="-0.427442">
        <ele>1103.0</ele>
        <time>2019-03-26T10:08:41.000Z</time>
      </trkpt>
      <trkpt lat="42.577757" lon="-0.427456">
        <ele>1103.0</ele>
        <time>2019-03-26T10:08:42.000Z</time>
      </trkpt>
      <trkpt lat="42.577764" lon="-0.427468">
        <ele>1103.0</ele>
        <time>2019-03-26T10:08:43.000Z</time>
      </trkpt>
      <trkpt lat="42.577771" lon="-0.427479">
        <ele>1104.0</ele>
        <time>2019-03-26T10:08:44.000Z</time>
      </trkpt>
      <trkpt lat="42.577777" lon="-0.427487">
        <ele>1104.0</ele>
        <time>2019-03-26T10:08:45.000Z</time>
      </trkpt>
      <trkpt lat="42.577784" lon="-0.427494">
        <ele>1104.0</ele>
        <time>2019-03-26T10:08:46.000Z</time>
      </trkpt>
      <trkpt lat="42.577789" lon="-0.427498">
        <ele>1104.0</ele>
        <time>2019-03-26T10:08:47.000Z</time>
      </trkpt>
      <trkpt lat="42.577793" lon="-0.427501">
        <ele>1104.0</ele>
        <time>2019-03-26T10:08:48.000Z</time>
      </trkpt>
      <trkpt lat="42.577794" lon="-0.427502">
        <ele>1104.0</ele>
        <time>2019-03-26T10:08:49.000Z</time>
      </trkpt>
      <trkpt lat="42.577794" lon="-0.427502">
        <ele>1104.0</ele>
        <time>2019-03-26T10:08:50.000Z</time>
      </trkpt>
      <trkpt lat="42.577797" lon="-0.427504">
        <ele>1104.0</ele>
        <time>2019-03-26T10:08:51.000Z</time>
      </trkpt>
      <trkpt lat="42.577808" lon="-0.427511">
        <ele>1104.0</ele>
        <time>2019-03-26T10:08:52.000Z</time>
      </trkpt>
      <trkpt lat="42.577832" lon="-0.427529">
        <ele>1104.0</ele>
        <time>2019-03-26T10:08:53.000Z</time>
      </trkpt>
      <trkpt lat="42.577854" lon="-0.427547">
        <ele>1104.0</ele>
        <time>2019-03-26T10:08:54.000Z</time>
      </trkpt>
      <trkpt lat="42.577873" lon="-0.427561">
        <ele>1104.0</ele>
        <time>2019-03-26T10:08:55.000Z</time>
      </trkpt>
      <trkpt lat="42.577889" lon="-0.427569">
        <ele>1104.0</ele>
        <time>2019-03-26T10:08:56.000Z</time>
      </trkpt>
      <trkpt lat="42.577901" lon="-0.427574">
        <ele>1104.0</ele>
        <time>2019-03-26T10:08:57.000Z</time>
      </trkpt>
      <trkpt lat="42.57791" lon="-0.427577">
        <ele>1105.0</ele>
        <time>2019-03-26T10:08:58.000Z</time>
      </trkpt>
      <trkpt lat="42.577917" lon="-0.427578">
        <ele>1105.0</ele>
        <time>2019-03-26T10:08:59.000Z</time>
      </trkpt>
      <trkpt lat="42.577922" lon="-0.427578">
        <ele>1105.0</ele>
        <time>2019-03-26T10:09:00.000Z</time>
      </trkpt>
      <trkpt lat="42.577926" lon="-0.427577">
        <ele>1105.0</ele>
        <time>2019-03-26T10:09:01.000Z</time>
      </trkpt>
      <trkpt lat="42.57793" lon="-0.427577">
        <ele>1105.0</ele>
        <time>2019-03-26T10:09:02.000Z</time>
      </trkpt>
      <trkpt lat="42.577935" lon="-0.427576">
        <ele>1105.0</ele>
        <time>2019-03-26T10:09:03.000Z</time>
      </trkpt>
      <trkpt lat="42.57794" lon="-0.427576">
        <ele>1106.0</ele>
        <time>2019-03-26T10:09:04.000Z</time>
      </trkpt>
      <trkpt lat="42.577945" lon="-0.427575">
        <ele>1106.0</ele>
        <time>2019-03-26T10:09:05.000Z</time>
      </trkpt>
      <trkpt lat="42.577974" lon="-0.427573">
        <ele>1106.0</ele>
        <time>2019-03-26T10:09:06.000Z</time>
      </trkpt>
      <trkpt lat="42.578002" lon="-0.427567">
        <ele>1106.0</ele>
        <time>2019-03-26T10:09:07.000Z</time>
      </trkpt>
      <trkpt lat="42.578015" lon="-0.427564">
        <ele>1106.0</ele>
        <time>2019-03-26T10:09:08.000Z</time>
      </trkpt>
      <trkpt lat="42.578017" lon="-0.427563">
        <ele>1106.0</ele>
        <time>2019-03-26T10:09:09.000Z</time>
      </trkpt>
      <trkpt lat="42.578017" lon="-0.427563">
        <ele>1107.0</ele>
        <time>2019-03-26T10:09:10.000Z</time>
      </trkpt>
      <trkpt lat="42.578022" lon="-0.427561">
        <ele>1107.0</ele>
        <time>2019-03-26T10:09:11.000Z</time>
      </trkpt>
      <trkpt lat="42.578029" lon="-0.427554">
        <ele>1107.0</ele>
        <time>2019-03-26T10:09:12.000Z</time>
      </trkpt>
      <trkpt lat="42.578033" lon="-0.427538">
        <ele>1107.0</ele>
        <time>2019-03-26T10:09:13.000Z</time>
      </trkpt>
      <trkpt lat="42.578035" lon="-0.427519">
        <ele>1107.0</ele>
        <time>2019-03-26T10:09:14.000Z</time>
      </trkpt>
      <trkpt lat="42.578032" lon="-0.427503">
        <ele>1108.0</ele>
        <time>2019-03-26T10:09:15.000Z</time>
      </trkpt>
      <trkpt lat="42.578026" lon="-0.427489">
        <ele>1108.0</ele>
        <time>2019-03-26T10:09:16.000Z</time>
      </trkpt>
      <trkpt lat="42.578019" lon="-0.427478">
        <ele>1108.0</ele>
        <time>2019-03-26T10:09:17.000Z</time>
      </trkpt>
      <trkpt lat="42.57801" lon="-0.427468">
        <ele>1108.0</ele>
        <time>2019-03-26T10:09:18.000Z</time>
      </trkpt>
      <trkpt lat="42.578001" lon="-0.427459">
        <ele>1108.0</ele>
        <time>2019-03-26T10:09:19.000Z</time>
      </trkpt>
      <trkpt lat="42.577993" lon="-0.427451">
        <ele>1109.0</ele>
        <time>2019-03-26T10:09:20.000Z</time>
      </trkpt>
      <trkpt lat="42.577984" lon="-0.427444">
        <ele>1109.0</ele>
        <time>2019-03-26T10:09:21.000Z</time>
      </trkpt>
      <trkpt lat="42.577978" lon="-0.427437">
        <ele>1109.0</ele>
        <time>2019-03-26T10:09:22.000Z</time>
      </trkpt>
      <trkpt lat="42.577972" lon="-0.42743">
        <ele>1109.0</ele>
        <time>2019-03-26T10:09:23.000Z</time>
      </trkpt>
      <trkpt lat="42.57797" lon="-0.427424">
        <ele>1109.0</ele>
        <time>2019-03-26T10:09:24.000Z</time>
      </trkpt>
      <trkpt lat="42.57797" lon="-0.427418">
        <ele>1110.0</ele>
        <time>2019-03-26T10:09:25.000Z</time>
      </trkpt>
      <trkpt lat="42.577971" lon="-0.427412">
        <ele>1110.0</ele>
        <time>2019-03-26T10:09:26.000Z</time>
      </trkpt>
      <trkpt lat="42.577974" lon="-0.427407">
        <ele>1110.0</ele>
        <time>2019-03-26T10:09:27.000Z</time>
      </trkpt>
      <trkpt lat="42.577975" lon="-0.427402">
        <ele>1110.0</ele>
        <time>2019-03-26T10:09:28.000Z</time>
      </trkpt>
      <trkpt lat="42.577976" lon="-0.427399">
        <ele>1110.0</ele>
        <time>2019-03-26T10:09:29.000Z</time>
      </trkpt>
      <trkpt lat="42.577975" lon="-0.427397">
        <ele>1110.0</ele>
        <time>2019-03-26T10:09:30.000Z</time>
      </trkpt>
      <trkpt lat="42.577976" lon="-0.427397">
        <ele>1110.0</ele>
        <time>2019-03-26T10:09:31.000Z</time>
      </trkpt>
      <trkpt lat="42.577976" lon="-0.427395">
        <ele>1111.0</ele>
        <time>2019-03-26T10:09:32.000Z</time>
      </trkpt>
      <trkpt lat="42.57797" lon="-0.427382">
        <ele>1111.0</ele>
        <time>2019-03-26T10:09:33.000Z</time>
      </trkpt>
      <trkpt lat="42.577964" lon="-0.427368">
        <ele>1111.0</ele>
        <time>2019-03-26T10:09:34.000Z</time>
      </trkpt>
      <trkpt lat="42.57796" lon="-0.427352">
        <ele>1111.0</ele>
        <time>2019-03-26T10:09:35.000Z</time>
      </trkpt>
      <trkpt lat="42.577958" lon="-0.427336">
        <ele>1111.0</ele>
        <time>2019-03-26T10:09:36.000Z</time>
      </trkpt>
      <trkpt lat="42.577958" lon="-0.427318">
        <ele>1111.0</ele>
        <time>2019-03-26T10:09:37.000Z</time>
      </trkpt>
      <trkpt lat="42.577959" lon="-0.427299">
        <ele>1111.0</ele>
        <time>2019-03-26T10:09:38.000Z</time>
      </trkpt>
      <trkpt lat="42.577961" lon="-0.427279">
        <ele>1112.0</ele>
        <time>2019-03-26T10:09:39.000Z</time>
      </trkpt>
      <trkpt lat="42.577963" lon="-0.427259">
        <ele>1112.0</ele>
        <time>2019-03-26T10:09:40.000Z</time>
      </trkpt>
      <trkpt lat="42.577966" lon="-0.427239">
        <ele>1112.0</ele>
        <time>2019-03-26T10:09:41.000Z</time>
      </trkpt>
      <trkpt lat="42.577969" lon="-0.427219">
        <ele>1112.0</ele>
        <time>2019-03-26T10:09:42.000Z</time>
      </trkpt>
      <trkpt lat="42.577973" lon="-0.4272">
        <ele>1112.0</ele>
        <time>2019-03-26T10:09:43.000Z</time>
      </trkpt>
      <trkpt lat="42.577976" lon="-0.427182">
        <ele>1112.0</ele>
        <time>2019-03-26T10:09:44.000Z</time>
      </trkpt>
      <trkpt lat="42.57798" lon="-0.427165">
        <ele>1112.0</ele>
        <time>2019-03-26T10:09:45.000Z</time>
      </trkpt>
      <trkpt lat="42.577983" lon="-0.427149">
        <ele>1113.0</ele>
        <time>2019-03-26T10:09:46.000Z</time>
      </trkpt>
      <trkpt lat="42.577986" lon="-0.427135">
        <ele>1113.0</ele>
        <time>2019-03-26T10:09:47.000Z</time>
      </trkpt>
      <trkpt lat="42.577989" lon="-0.427124">
        <ele>1113.0</ele>
        <time>2019-03-26T10:09:48.000Z</time>
      </trkpt>
      <trkpt lat="42.577991" lon="-0.427115">
        <ele>1113.0</ele>
        <time>2019-03-26T10:09:49.000Z</time>
      </trkpt>
      <trkpt lat="42.577993" lon="-0.427109">
        <ele>1113.0</ele>
        <time>2019-03-26T10:09:50.000Z</time>
      </trkpt>
      <trkpt lat="42.577994" lon="-0.427106">
        <ele>1113.0</ele>
        <time>2019-03-26T10:09:51.000Z</time>
      </trkpt>
      <trkpt lat="42.577994" lon="-0.427106">
        <ele>1113.0</ele>
        <time>2019-03-26T10:09:52.000Z</time>
      </trkpt>
      <trkpt lat="42.577995" lon="-0.427105">
        <ele>1113.0</ele>
        <time>2019-03-26T10:09:53.000Z</time>
      </trkpt>
      <trkpt lat="42.577998" lon="-0.4271">
        <ele>1113.0</ele>
        <time>2019-03-26T10:09:54.000Z</time>
      </trkpt>
      <trkpt lat="42.578004" lon="-0.427093">
        <ele>1114.0</ele>
        <time>2019-03-26T10:09:55.000Z</time>
      </trkpt>
      <trkpt lat="42.578015" lon="-0.427076">
        <ele>1114.0</ele>
        <time>2019-03-26T10:09:56.000Z</time>
      </trkpt>
      <trkpt lat="42.57803" lon="-0.42707">
        <ele>1114.0</ele>
        <time>2019-03-26T10:09:57.000Z</time>
      </trkpt>
      <trkpt lat="42.578042" lon="-0.427075">
        <ele>1114.0</ele>
        <time>2019-03-26T10:09:58.000Z</time>
      </trkpt>
      <trkpt lat="42.578054" lon="-0.427082">
        <ele>1114.0</ele>
        <time>2019-03-26T10:09:59.000Z</time>
      </trkpt>
      <trkpt lat="42.578065" lon="-0.427089">
        <ele>1115.0</ele>
        <time>2019-03-26T10:10:00.000Z</time>
      </trkpt>
      <trkpt lat="42.578076" lon="-0.427096">
        <ele>1115.0</ele>
        <time>2019-03-26T10:10:01.000Z</time>
      </trkpt>
      <trkpt lat="42.578088" lon="-0.427102">
        <ele>1115.0</ele>
        <time>2019-03-26T10:10:02.000Z</time>
      </trkpt>
      <trkpt lat="42.578099" lon="-0.427107">
        <ele>1115.0</ele>
        <time>2019-03-26T10:10:03.000Z</time>
      </trkpt>
      <trkpt lat="42.578111" lon="-0.42711">
        <ele>1115.0</ele>
        <time>2019-03-26T10:10:04.000Z</time>
      </trkpt>
      <trkpt lat="42.578123" lon="-0.427111">
        <ele>1116.0</ele>
        <time>2019-03-26T10:10:05.000Z</time>
      </trkpt>
      <trkpt lat="42.578136" lon="-0.42711">
        <ele>1116.0</ele>
        <time>2019-03-26T10:10:06.000Z</time>
      </trkpt>
      <trkpt lat="42.578149" lon="-0.427108">
        <ele>1116.0</ele>
        <time>2019-03-26T10:10:07.000Z</time>
      </trkpt>
      <trkpt lat="42.578162" lon="-0.427105">
        <ele>1116.0</ele>
        <time>2019-03-26T10:10:08.000Z</time>
      </trkpt>
      <trkpt lat="42.578174" lon="-0.427102">
        <ele>1116.0</ele>
        <time>2019-03-26T10:10:09.000Z</time>
      </trkpt>
      <trkpt lat="42.578184" lon="-0.427098">
        <ele>1117.0</ele>
        <time>2019-03-26T10:10:10.000Z</time>
      </trkpt>
      <trkpt lat="42.578192" lon="-0.427095">
        <ele>1117.0</ele>
        <time>2019-03-26T10:10:11.000Z</time>
      </trkpt>
      <trkpt lat="42.578196" lon="-0.427093">
        <ele>1117.0</ele>
        <time>2019-03-26T10:10:12.000Z</time>
      </trkpt>
      <trkpt lat="42.578198" lon="-0.427092">
        <ele>1117.0</ele>
        <time>2019-03-26T10:10:13.000Z</time>
      </trkpt>
      <trkpt lat="42.578198" lon="-0.427092">
        <ele>1117.0</ele>
        <time>2019-03-26T10:10:14.000Z</time>
      </trkpt>
      <trkpt lat="42.578198" lon="-0.427092">
        <ele>1117.0</ele>
        <time>2019-03-26T10:10:15.000Z</time>
      </trkpt>
      <trkpt lat="42.5782" lon="-0.427091">
        <ele>1118.0</ele>
        <time>2019-03-26T10:10:16.000Z</time>
      </trkpt>
      <trkpt lat="42.578204" lon="-0.427088">
        <ele>1118.0</ele>
        <time>2019-03-26T10:10:17.000Z</time>
      </trkpt>
      <trkpt lat="42.578216" lon="-0.427083">
        <ele>1118.0</ele>
        <time>2019-03-26T10:10:18.000Z</time>
      </trkpt>
      <trkpt lat="42.578237" lon="-0.427076">
        <ele>1118.0</ele>
        <time>2019-03-26T10:10:19.000Z</time>
      </trkpt>
      <trkpt lat="42.578258" lon="-0.427072">
        <ele>1118.0</ele>
        <time>2019-03-26T10:10:20.000Z</time>
      </trkpt>
      <trkpt lat="42.578275" lon="-0.427069">
        <ele>1119.0</ele>
        <time>2019-03-26T10:10:21.000Z</time>
      </trkpt>
      <trkpt lat="42.578291" lon="-0.427067">
        <ele>1119.0</ele>
        <time>2019-03-26T10:10:22.000Z</time>
      </trkpt>
      <trkpt lat="42.578305" lon="-0.427067">
        <ele>1119.0</ele>
        <time>2019-03-26T10:10:23.000Z</time>
      </trkpt>
      <trkpt lat="42.578319" lon="-0.427068">
        <ele>1119.0</ele>
        <time>2019-03-26T10:10:24.000Z</time>
      </trkpt>
      <trkpt lat="42.578332" lon="-0.427069">
        <ele>1119.0</ele>
        <time>2019-03-26T10:10:25.000Z</time>
      </trkpt>
      <trkpt lat="42.578346" lon="-0.42707">
        <ele>1119.0</ele>
        <time>2019-03-26T10:10:26.000Z</time>
      </trkpt>
      <trkpt lat="42.578361" lon="-0.427071">
        <ele>1119.0</ele>
        <time>2019-03-26T10:10:27.000Z</time>
      </trkpt>
      <trkpt lat="42.578376" lon="-0.427071">
        <ele>1120.0</ele>
        <time>2019-03-26T10:10:28.000Z</time>
      </trkpt>
      <trkpt lat="42.578392" lon="-0.42707">
        <ele>1120.0</ele>
        <time>2019-03-26T10:10:29.000Z</time>
      </trkpt>
      <trkpt lat="42.578407" lon="-0.427068">
        <ele>1120.0</ele>
        <time>2019-03-26T10:10:30.000Z</time>
      </trkpt>
      <trkpt lat="42.578423" lon="-0.427065">
        <ele>1120.0</ele>
        <time>2019-03-26T10:10:31.000Z</time>
      </trkpt>
      <trkpt lat="42.578438" lon="-0.42706">
        <ele>1120.0</ele>
        <time>2019-03-26T10:10:32.000Z</time>
      </trkpt>
      <trkpt lat="42.578451" lon="-0.427053">
        <ele>1121.0</ele>
        <time>2019-03-26T10:10:33.000Z</time>
      </trkpt>
      <trkpt lat="42.578464" lon="-0.427045">
        <ele>1121.0</ele>
        <time>2019-03-26T10:10:34.000Z</time>
      </trkpt>
      <trkpt lat="42.578476" lon="-0.427035">
        <ele>1121.0</ele>
        <time>2019-03-26T10:10:35.000Z</time>
      </trkpt>
      <trkpt lat="42.578487" lon="-0.427023">
        <ele>1121.0</ele>
        <time>2019-03-26T10:10:36.000Z</time>
      </trkpt>
      <trkpt lat="42.578498" lon="-0.42701">
        <ele>1121.0</ele>
        <time>2019-03-26T10:10:37.000Z</time>
      </trkpt>
      <trkpt lat="42.578509" lon="-0.426997">
        <ele>1121.0</ele>
        <time>2019-03-26T10:10:38.000Z</time>
      </trkpt>
      <trkpt lat="42.578519" lon="-0.426982">
        <ele>1122.0</ele>
        <time>2019-03-26T10:10:39.000Z</time>
      </trkpt>
      <trkpt lat="42.578531" lon="-0.426968">
        <ele>1122.0</ele>
        <time>2019-03-26T10:10:40.000Z</time>
      </trkpt>
      <trkpt lat="42.578543" lon="-0.426954">
        <ele>1122.0</ele>
        <time>2019-03-26T10:10:41.000Z</time>
      </trkpt>
      <trkpt lat="42.578555" lon="-0.426939">
        <ele>1122.0</ele>
        <time>2019-03-26T10:10:42.000Z</time>
      </trkpt>
      <trkpt lat="42.578568" lon="-0.426925">
        <ele>1122.0</ele>
        <time>2019-03-26T10:10:43.000Z</time>
      </trkpt>
      <trkpt lat="42.57858" lon="-0.426911">
        <ele>1122.0</ele>
        <time>2019-03-26T10:10:44.000Z</time>
      </trkpt>
      <trkpt lat="42.578592" lon="-0.426897">
        <ele>1122.0</ele>
        <time>2019-03-26T10:10:45.000Z</time>
      </trkpt>
      <trkpt lat="42.578603" lon="-0.426883">
        <ele>1122.0</ele>
        <time>2019-03-26T10:10:46.000Z</time>
      </trkpt>
      <trkpt lat="42.578613" lon="-0.426868">
        <ele>1123.0</ele>
        <time>2019-03-26T10:10:47.000Z</time>
      </trkpt>
      <trkpt lat="42.578621" lon="-0.426854">
        <ele>1123.0</ele>
        <time>2019-03-26T10:10:48.000Z</time>
      </trkpt>
      <trkpt lat="42.578629" lon="-0.42684">
        <ele>1123.0</ele>
        <time>2019-03-26T10:10:49.000Z</time>
      </trkpt>
      <trkpt lat="42.578636" lon="-0.426825">
        <ele>1123.0</ele>
        <time>2019-03-26T10:10:50.000Z</time>
      </trkpt>
      <trkpt lat="42.578642" lon="-0.42681">
        <ele>1123.0</ele>
        <time>2019-03-26T10:10:51.000Z</time>
      </trkpt>
      <trkpt lat="42.578647" lon="-0.426795">
        <ele>1123.0</ele>
        <time>2019-03-26T10:10:52.000Z</time>
      </trkpt>
      <trkpt lat="42.578653" lon="-0.426779">
        <ele>1123.0</ele>
        <time>2019-03-26T10:10:53.000Z</time>
      </trkpt>
      <trkpt lat="42.578658" lon="-0.426762">
        <ele>1123.0</ele>
        <time>2019-03-26T10:10:54.000Z</time>
      </trkpt>
      <trkpt lat="42.578664" lon="-0.426744">
        <ele>1124.0</ele>
        <time>2019-03-26T10:10:55.000Z</time>
      </trkpt>
      <trkpt lat="42.578671" lon="-0.426725">
        <ele>1124.0</ele>
        <time>2019-03-26T10:10:56.000Z</time>
      </trkpt>
      <trkpt lat="42.578677" lon="-0.426706">
        <ele>1124.0</ele>
        <time>2019-03-26T10:10:57.000Z</time>
      </trkpt>
      <trkpt lat="42.578684" lon="-0.426687">
        <ele>1124.0</ele>
        <time>2019-03-26T10:10:58.000Z</time>
      </trkpt>
      <trkpt lat="42.57869" lon="-0.426668">
        <ele>1124.0</ele>
        <time>2019-03-26T10:10:59.000Z</time>
      </trkpt>
      <trkpt lat="42.578697" lon="-0.426648">
        <ele>1124.0</ele>
        <time>2019-03-26T10:11:00.000Z</time>
      </trkpt>
      <trkpt lat="42.578704" lon="-0.426629">
        <ele>1124.0</ele>
        <time>2019-03-26T10:11:01.000Z</time>
      </trkpt>
      <trkpt lat="42.57871" lon="-0.426611">
        <ele>1124.0</ele>
        <time>2019-03-26T10:11:02.000Z</time>
      </trkpt>
      <trkpt lat="42.578716" lon="-0.426593">
        <ele>1125.0</ele>
        <time>2019-03-26T10:11:03.000Z</time>
      </trkpt>
      <trkpt lat="42.578723" lon="-0.426575">
        <ele>1125.0</ele>
        <time>2019-03-26T10:11:04.000Z</time>
      </trkpt>
      <trkpt lat="42.578729" lon="-0.426557">
        <ele>1125.0</ele>
        <time>2019-03-26T10:11:05.000Z</time>
      </trkpt>
      <trkpt lat="42.578734" lon="-0.42654">
        <ele>1125.0</ele>
        <time>2019-03-26T10:11:06.000Z</time>
      </trkpt>
      <trkpt lat="42.57874" lon="-0.426522">
        <ele>1125.0</ele>
        <time>2019-03-26T10:11:07.000Z</time>
      </trkpt>
      <trkpt lat="42.578746" lon="-0.426505">
        <ele>1125.0</ele>
        <time>2019-03-26T10:11:08.000Z</time>
      </trkpt>
      <trkpt lat="42.578751" lon="-0.426487">
        <ele>1125.0</ele>
        <time>2019-03-26T10:11:09.000Z</time>
      </trkpt>
      <trkpt lat="42.578756" lon="-0.42647">
        <ele>1125.0</ele>
        <time>2019-03-26T10:11:10.000Z</time>
      </trkpt>
      <trkpt lat="42.578761" lon="-0.426451">
        <ele>1125.0</ele>
        <time>2019-03-26T10:11:11.000Z</time>
      </trkpt>
      <trkpt lat="42.578766" lon="-0.426433">
        <ele>1125.0</ele>
        <time>2019-03-26T10:11:12.000Z</time>
      </trkpt>
      <trkpt lat="42.578771" lon="-0.426414">
        <ele>1125.0</ele>
        <time>2019-03-26T10:11:13.000Z</time>
      </trkpt>
      <trkpt lat="42.578775" lon="-0.426394">
        <ele>1125.0</ele>
        <time>2019-03-26T10:11:14.000Z</time>
      </trkpt>
      <trkpt lat="42.57878" lon="-0.426374">
        <ele>1125.0</ele>
        <time>2019-03-26T10:11:15.000Z</time>
      </trkpt>
      <trkpt lat="42.578784" lon="-0.426354">
        <ele>1125.0</ele>
        <time>2019-03-26T10:11:16.000Z</time>
      </trkpt>
      <trkpt lat="42.578788" lon="-0.426334">
        <ele>1125.0</ele>
        <time>2019-03-26T10:11:17.000Z</time>
      </trkpt>
      <trkpt lat="42.578792" lon="-0.426316">
        <ele>1125.0</ele>
        <time>2019-03-26T10:11:18.000Z</time>
      </trkpt>
      <trkpt lat="42.578795" lon="-0.426302">
        <ele>1125.0</ele>
        <time>2019-03-26T10:11:19.000Z</time>
      </trkpt>
      <trkpt lat="42.578799" lon="-0.426292">
        <ele>1126.0</ele>
        <time>2019-03-26T10:11:20.000Z</time>
      </trkpt>
      <trkpt lat="42.578804" lon="-0.426282">
        <ele>1126.0</ele>
        <time>2019-03-26T10:11:21.000Z</time>
      </trkpt>
      <trkpt lat="42.57881" lon="-0.426267">
        <ele>1126.0</ele>
        <time>2019-03-26T10:11:22.000Z</time>
      </trkpt>
      <trkpt lat="42.578816" lon="-0.426242">
        <ele>1126.0</ele>
        <time>2019-03-26T10:11:23.000Z</time>
      </trkpt>
      <trkpt lat="42.578824" lon="-0.426216">
        <ele>1126.0</ele>
        <time>2019-03-26T10:11:24.000Z</time>
      </trkpt>
      <trkpt lat="42.578831" lon="-0.426194">
        <ele>1127.0</ele>
        <time>2019-03-26T10:11:25.000Z</time>
      </trkpt>
      <trkpt lat="42.578839" lon="-0.426173">
        <ele>1127.0</ele>
        <time>2019-03-26T10:11:26.000Z</time>
      </trkpt>
      <trkpt lat="42.578846" lon="-0.426154">
        <ele>1127.0</ele>
        <time>2019-03-26T10:11:27.000Z</time>
      </trkpt>
      <trkpt lat="42.578852" lon="-0.426136">
        <ele>1127.0</ele>
        <time>2019-03-26T10:11:28.000Z</time>
      </trkpt>
      <trkpt lat="42.578857" lon="-0.426119">
        <ele>1127.0</ele>
        <time>2019-03-26T10:11:29.000Z</time>
      </trkpt>
      <trkpt lat="42.578861" lon="-0.426104">
        <ele>1127.0</ele>
        <time>2019-03-26T10:11:30.000Z</time>
      </trkpt>
      <trkpt lat="42.578865" lon="-0.426089">
        <ele>1127.0</ele>
        <time>2019-03-26T10:11:31.000Z</time>
      </trkpt>
      <trkpt lat="42.578869" lon="-0.426075">
        <ele>1128.0</ele>
        <time>2019-03-26T10:11:32.000Z</time>
      </trkpt>
      <trkpt lat="42.578873" lon="-0.426061">
        <ele>1128.0</ele>
        <time>2019-03-26T10:11:33.000Z</time>
      </trkpt>
      <trkpt lat="42.578878" lon="-0.426047">
        <ele>1128.0</ele>
        <time>2019-03-26T10:11:34.000Z</time>
      </trkpt>
      <trkpt lat="42.578884" lon="-0.426032">
        <ele>1128.0</ele>
        <time>2019-03-26T10:11:35.000Z</time>
      </trkpt>
      <trkpt lat="42.578891" lon="-0.426015">
        <ele>1128.0</ele>
        <time>2019-03-26T10:11:36.000Z</time>
      </trkpt>
      <trkpt lat="42.578899" lon="-0.425994">
        <ele>1128.0</ele>
        <time>2019-03-26T10:11:37.000Z</time>
      </trkpt>
      <trkpt lat="42.578905" lon="-0.425967">
        <ele>1128.0</ele>
        <time>2019-03-26T10:11:38.000Z</time>
      </trkpt>
      <trkpt lat="42.578911" lon="-0.425939">
        <ele>1128.0</ele>
        <time>2019-03-26T10:11:39.000Z</time>
      </trkpt>
      <trkpt lat="42.578915" lon="-0.425916">
        <ele>1129.0</ele>
        <time>2019-03-26T10:11:40.000Z</time>
      </trkpt>
      <trkpt lat="42.578918" lon="-0.425899">
        <ele>1129.0</ele>
        <time>2019-03-26T10:11:41.000Z</time>
      </trkpt>
      <trkpt lat="42.57892" lon="-0.425888">
        <ele>1129.0</ele>
        <time>2019-03-26T10:11:42.000Z</time>
      </trkpt>
      <trkpt lat="42.578921" lon="-0.425884">
        <ele>1129.0</ele>
        <time>2019-03-26T10:11:43.000Z</time>
      </trkpt>
      <trkpt lat="42.578921" lon="-0.425884">
        <ele>1129.0</ele>
        <time>2019-03-26T10:11:44.000Z</time>
      </trkpt>
      <trkpt lat="42.578921" lon="-0.425884">
        <ele>1129.0</ele>
        <time>2019-03-26T10:11:45.000Z</time>
      </trkpt>
      <trkpt lat="42.578922" lon="-0.42588">
        <ele>1129.0</ele>
        <time>2019-03-26T10:11:46.000Z</time>
      </trkpt>
      <trkpt lat="42.578925" lon="-0.425868">
        <ele>1130.0</ele>
        <time>2019-03-26T10:11:47.000Z</time>
      </trkpt>
      <trkpt lat="42.578935" lon="-0.425836">
        <ele>1130.0</ele>
        <time>2019-03-26T10:11:48.000Z</time>
      </trkpt>
      <trkpt lat="42.57895" lon="-0.425788">
        <ele>1130.0</ele>
        <time>2019-03-26T10:11:49.000Z</time>
      </trkpt>
      <trkpt lat="42.578953" lon="-0.425764">
        <ele>1130.0</ele>
        <time>2019-03-26T10:11:50.000Z</time>
      </trkpt>
      <trkpt lat="42.578953" lon="-0.425743">
        <ele>1130.0</ele>
        <time>2019-03-26T10:11:51.000Z</time>
      </trkpt>
      <trkpt lat="42.578955" lon="-0.425727">
        <ele>1130.0</ele>
        <time>2019-03-26T10:11:52.000Z</time>
      </trkpt>
      <trkpt lat="42.578957" lon="-0.425719">
        <ele>1130.0</ele>
        <time>2019-03-26T10:11:53.000Z</time>
      </trkpt>
      <trkpt lat="42.578958" lon="-0.425715">
        <ele>1130.0</ele>
        <time>2019-03-26T10:11:54.000Z</time>
      </trkpt>
      <trkpt lat="42.578958" lon="-0.425715">
        <ele>1131.0</ele>
        <time>2019-03-26T10:11:55.000Z</time>
      </trkpt>
      <trkpt lat="42.578958" lon="-0.425715">
        <ele>1131.0</ele>
        <time>2019-03-26T10:11:56.000Z</time>
      </trkpt>
      <trkpt lat="42.578958" lon="-0.425713">
        <ele>1131.0</ele>
        <time>2019-03-26T10:11:57.000Z</time>
      </trkpt>
      <trkpt lat="42.57896" lon="-0.42571">
        <ele>1131.0</ele>
        <time>2019-03-26T10:11:58.000Z</time>
      </trkpt>
      <trkpt lat="42.578964" lon="-0.425702">
        <ele>1131.0</ele>
        <time>2019-03-26T10:11:59.000Z</time>
      </trkpt>
      <trkpt lat="42.578972" lon="-0.425679">
        <ele>1131.0</ele>
        <time>2019-03-26T10:12:00.000Z</time>
      </trkpt>
      <trkpt lat="42.578983" lon="-0.425639">
        <ele>1131.0</ele>
        <time>2019-03-26T10:12:01.000Z</time>
      </trkpt>
      <trkpt lat="42.578987" lon="-0.425607">
        <ele>1132.0</ele>
        <time>2019-03-26T10:12:02.000Z</time>
      </trkpt>
      <trkpt lat="42.578994" lon="-0.42558">
        <ele>1132.0</ele>
        <time>2019-03-26T10:12:03.000Z</time>
      </trkpt>
      <trkpt lat="42.579002" lon="-0.425555">
        <ele>1132.0</ele>
        <time>2019-03-26T10:12:04.000Z</time>
      </trkpt>
      <trkpt lat="42.579009" lon="-0.425531">
        <ele>1132.0</ele>
        <time>2019-03-26T10:12:05.000Z</time>
      </trkpt>
      <trkpt lat="42.579014" lon="-0.425507">
        <ele>1132.0</ele>
        <time>2019-03-26T10:12:06.000Z</time>
      </trkpt>
      <trkpt lat="42.579019" lon="-0.425484">
        <ele>1132.0</ele>
        <time>2019-03-26T10:12:07.000Z</time>
      </trkpt>
      <trkpt lat="42.579024" lon="-0.425462">
        <ele>1132.0</ele>
        <time>2019-03-26T10:12:08.000Z</time>
      </trkpt>
      <trkpt lat="42.579027" lon="-0.42544">
        <ele>1132.0</ele>
        <time>2019-03-26T10:12:09.000Z</time>
      </trkpt>
      <trkpt lat="42.579031" lon="-0.425418">
        <ele>1132.0</ele>
        <time>2019-03-26T10:12:10.000Z</time>
      </trkpt>
      <trkpt lat="42.579035" lon="-0.425397">
        <ele>1133.0</ele>
        <time>2019-03-26T10:12:11.000Z</time>
      </trkpt>
      <trkpt lat="42.579038" lon="-0.425377">
        <ele>1133.0</ele>
        <time>2019-03-26T10:12:12.000Z</time>
      </trkpt>
      <trkpt lat="42.579042" lon="-0.425357">
        <ele>1133.0</ele>
        <time>2019-03-26T10:12:13.000Z</time>
      </trkpt>
      <trkpt lat="42.579046" lon="-0.425338">
        <ele>1133.0</ele>
        <time>2019-03-26T10:12:14.000Z</time>
      </trkpt>
      <trkpt lat="42.579049" lon="-0.425319">
        <ele>1133.0</ele>
        <time>2019-03-26T10:12:15.000Z</time>
      </trkpt>
      <trkpt lat="42.579053" lon="-0.4253">
        <ele>1133.0</ele>
        <time>2019-03-26T10:12:16.000Z</time>
      </trkpt>
      <trkpt lat="42.579056" lon="-0.425283">
        <ele>1133.0</ele>
        <time>2019-03-26T10:12:17.000Z</time>
      </trkpt>
      <trkpt lat="42.57906" lon="-0.425266">
        <ele>1133.0</ele>
        <time>2019-03-26T10:12:18.000Z</time>
      </trkpt>
      <trkpt lat="42.579063" lon="-0.425249">
        <ele>1133.0</ele>
        <time>2019-03-26T10:12:19.000Z</time>
      </trkpt>
      <trkpt lat="42.579066" lon="-0.425233">
        <ele>1133.0</ele>
        <time>2019-03-26T10:12:20.000Z</time>
      </trkpt>
      <trkpt lat="42.579068" lon="-0.425217">
        <ele>1134.0</ele>
        <time>2019-03-26T10:12:21.000Z</time>
      </trkpt>
      <trkpt lat="42.579068" lon="-0.425202">
        <ele>1134.0</ele>
        <time>2019-03-26T10:12:22.000Z</time>
      </trkpt>
      <trkpt lat="42.579068" lon="-0.425186">
        <ele>1134.0</ele>
        <time>2019-03-26T10:12:23.000Z</time>
      </trkpt>
      <trkpt lat="42.579066" lon="-0.42517">
        <ele>1134.0</ele>
        <time>2019-03-26T10:12:24.000Z</time>
      </trkpt>
      <trkpt lat="42.579063" lon="-0.425155">
        <ele>1134.0</ele>
        <time>2019-03-26T10:12:25.000Z</time>
      </trkpt>
      <trkpt lat="42.579059" lon="-0.425139">
        <ele>1134.0</ele>
        <time>2019-03-26T10:12:26.000Z</time>
      </trkpt>
      <trkpt lat="42.579055" lon="-0.425123">
        <ele>1134.0</ele>
        <time>2019-03-26T10:12:27.000Z</time>
      </trkpt>
      <trkpt lat="42.57905" lon="-0.425106">
        <ele>1134.0</ele>
        <time>2019-03-26T10:12:28.000Z</time>
      </trkpt>
      <trkpt lat="42.579046" lon="-0.42509">
        <ele>1135.0</ele>
        <time>2019-03-26T10:12:29.000Z</time>
      </trkpt>
      <trkpt lat="42.579042" lon="-0.425073">
        <ele>1135.0</ele>
        <time>2019-03-26T10:12:30.000Z</time>
      </trkpt>
      <trkpt lat="42.579038" lon="-0.425056">
        <ele>1135.0</ele>
        <time>2019-03-26T10:12:31.000Z</time>
      </trkpt>
      <trkpt lat="42.579035" lon="-0.425038">
        <ele>1135.0</ele>
        <time>2019-03-26T10:12:32.000Z</time>
      </trkpt>
      <trkpt lat="42.579033" lon="-0.425021">
        <ele>1135.0</ele>
        <time>2019-03-26T10:12:33.000Z</time>
      </trkpt>
      <trkpt lat="42.57903" lon="-0.425003">
        <ele>1135.0</ele>
        <time>2019-03-26T10:12:34.000Z</time>
      </trkpt>
      <trkpt lat="42.579028" lon="-0.424985">
        <ele>1135.0</ele>
        <time>2019-03-26T10:12:35.000Z</time>
      </trkpt>
      <trkpt lat="42.579025" lon="-0.424968">
        <ele>1136.0</ele>
        <time>2019-03-26T10:12:36.000Z</time>
      </trkpt>
      <trkpt lat="42.579022" lon="-0.424951">
        <ele>1136.0</ele>
        <time>2019-03-26T10:12:37.000Z</time>
      </trkpt>
      <trkpt lat="42.579019" lon="-0.424935">
        <ele>1136.0</ele>
        <time>2019-03-26T10:12:38.000Z</time>
      </trkpt>
      <trkpt lat="42.579015" lon="-0.424919">
        <ele>1136.0</ele>
        <time>2019-03-26T10:12:39.000Z</time>
      </trkpt>
      <trkpt lat="42.57901" lon="-0.424903">
        <ele>1136.0</ele>
        <time>2019-03-26T10:12:40.000Z</time>
      </trkpt>
      <trkpt lat="42.579005" lon="-0.424887">
        <ele>1136.0</ele>
        <time>2019-03-26T10:12:41.000Z</time>
      </trkpt>
      <trkpt lat="42.579" lon="-0.424872">
        <ele>1137.0</ele>
        <time>2019-03-26T10:12:42.000Z</time>
      </trkpt>
      <trkpt lat="42.578994" lon="-0.424856">
        <ele>1137.0</ele>
        <time>2019-03-26T10:12:43.000Z</time>
      </trkpt>
      <trkpt lat="42.578989" lon="-0.424841">
        <ele>1137.0</ele>
        <time>2019-03-26T10:12:44.000Z</time>
      </trkpt>
      <trkpt lat="42.578983" lon="-0.424826">
        <ele>1137.0</ele>
        <time>2019-03-26T10:12:45.000Z</time>
      </trkpt>
      <trkpt lat="42.578978" lon="-0.42481">
        <ele>1137.0</ele>
        <time>2019-03-26T10:12:46.000Z</time>
      </trkpt>
      <trkpt lat="42.578972" lon="-0.424794">
        <ele>1137.0</ele>
        <time>2019-03-26T10:12:47.000Z</time>
      </trkpt>
      <trkpt lat="42.578967" lon="-0.424778">
        <ele>1137.0</ele>
        <time>2019-03-26T10:12:48.000Z</time>
      </trkpt>
      <trkpt lat="42.578961" lon="-0.424761">
        <ele>1138.0</ele>
        <time>2019-03-26T10:12:49.000Z</time>
      </trkpt>
      <trkpt lat="42.578957" lon="-0.424744">
        <ele>1138.0</ele>
        <time>2019-03-26T10:12:50.000Z</time>
      </trkpt>
      <trkpt lat="42.578952" lon="-0.424727">
        <ele>1138.0</ele>
        <time>2019-03-26T10:12:51.000Z</time>
      </trkpt>
      <trkpt lat="42.578948" lon="-0.424708">
        <ele>1138.0</ele>
        <time>2019-03-26T10:12:52.000Z</time>
      </trkpt>
      <trkpt lat="42.578945" lon="-0.42469">
        <ele>1138.0</ele>
        <time>2019-03-26T10:12:53.000Z</time>
      </trkpt>
      <trkpt lat="42.578942" lon="-0.424671">
        <ele>1138.0</ele>
        <time>2019-03-26T10:12:54.000Z</time>
      </trkpt>
      <trkpt lat="42.578939" lon="-0.424652">
        <ele>1139.0</ele>
        <time>2019-03-26T10:12:55.000Z</time>
      </trkpt>
      <trkpt lat="42.578937" lon="-0.424634">
        <ele>1139.0</ele>
        <time>2019-03-26T10:12:56.000Z</time>
      </trkpt>
      <trkpt lat="42.578935" lon="-0.424616">
        <ele>1139.0</ele>
        <time>2019-03-26T10:12:57.000Z</time>
      </trkpt>
      <trkpt lat="42.578934" lon="-0.424599">
        <ele>1139.0</ele>
        <time>2019-03-26T10:12:58.000Z</time>
      </trkpt>
      <trkpt lat="42.578933" lon="-0.424583">
        <ele>1139.0</ele>
        <time>2019-03-26T10:12:59.000Z</time>
      </trkpt>
      <trkpt lat="42.578933" lon="-0.424568">
        <ele>1139.0</ele>
        <time>2019-03-26T10:13:00.000Z</time>
      </trkpt>
      <trkpt lat="42.578933" lon="-0.424555">
        <ele>1140.0</ele>
        <time>2019-03-26T10:13:01.000Z</time>
      </trkpt>
      <trkpt lat="42.578933" lon="-0.424544">
        <ele>1140.0</ele>
        <time>2019-03-26T10:13:02.000Z</time>
      </trkpt>
      <trkpt lat="42.578934" lon="-0.424534">
        <ele>1140.0</ele>
        <time>2019-03-26T10:13:03.000Z</time>
      </trkpt>
      <trkpt lat="42.578935" lon="-0.424527">
        <ele>1140.0</ele>
        <time>2019-03-26T10:13:04.000Z</time>
      </trkpt>
      <trkpt lat="42.578937" lon="-0.424522">
        <ele>1140.0</ele>
        <time>2019-03-26T10:13:05.000Z</time>
      </trkpt>
      <trkpt lat="42.578939" lon="-0.42452">
        <ele>1140.0</ele>
        <time>2019-03-26T10:13:06.000Z</time>
      </trkpt>
      <trkpt lat="42.578941" lon="-0.424519">
        <ele>1141.0</ele>
        <time>2019-03-26T10:13:07.000Z</time>
      </trkpt>
      <trkpt lat="42.578943" lon="-0.424519">
        <ele>1141.0</ele>
        <time>2019-03-26T10:13:08.000Z</time>
      </trkpt>
      <trkpt lat="42.578945" lon="-0.424519">
        <ele>1141.0</ele>
        <time>2019-03-26T10:13:09.000Z</time>
      </trkpt>
      <trkpt lat="42.578947" lon="-0.424518">
        <ele>1141.0</ele>
        <time>2019-03-26T10:13:10.000Z</time>
      </trkpt>
      <trkpt lat="42.57895" lon="-0.424514">
        <ele>1141.0</ele>
        <time>2019-03-26T10:13:11.000Z</time>
      </trkpt>
      <trkpt lat="42.578958" lon="-0.424505">
        <ele>1142.0</ele>
        <time>2019-03-26T10:13:12.000Z</time>
      </trkpt>
      <trkpt lat="42.578969" lon="-0.424491">
        <ele>1142.0</ele>
        <time>2019-03-26T10:13:13.000Z</time>
      </trkpt>
      <trkpt lat="42.57898" lon="-0.424477">
        <ele>1142.0</ele>
        <time>2019-03-26T10:13:14.000Z</time>
      </trkpt>
      <trkpt lat="42.578994" lon="-0.42447">
        <ele>1142.0</ele>
        <time>2019-03-26T10:13:15.000Z</time>
      </trkpt>
      <trkpt lat="42.57901" lon="-0.424469">
        <ele>1142.0</ele>
        <time>2019-03-26T10:13:16.000Z</time>
      </trkpt>
      <trkpt lat="42.579026" lon="-0.424472">
        <ele>1142.0</ele>
        <time>2019-03-26T10:13:17.000Z</time>
      </trkpt>
      <trkpt lat="42.579042" lon="-0.424477">
        <ele>1143.0</ele>
        <time>2019-03-26T10:13:18.000Z</time>
      </trkpt>
      <trkpt lat="42.579058" lon="-0.424482">
        <ele>1143.0</ele>
        <time>2019-03-26T10:13:19.000Z</time>
      </trkpt>
      <trkpt lat="42.579073" lon="-0.424487">
        <ele>1143.0</ele>
        <time>2019-03-26T10:13:20.000Z</time>
      </trkpt>
      <trkpt lat="42.579087" lon="-0.42449">
        <ele>1143.0</ele>
        <time>2019-03-26T10:13:21.000Z</time>
      </trkpt>
      <trkpt lat="42.5791" lon="-0.424493">
        <ele>1143.0</ele>
        <time>2019-03-26T10:13:22.000Z</time>
      </trkpt>
      <trkpt lat="42.57911" lon="-0.424496">
        <ele>1144.0</ele>
        <time>2019-03-26T10:13:23.000Z</time>
      </trkpt>
      <trkpt lat="42.579118" lon="-0.424498">
        <ele>1144.0</ele>
        <time>2019-03-26T10:13:24.000Z</time>
      </trkpt>
      <trkpt lat="42.579123" lon="-0.424499">
        <ele>1144.0</ele>
        <time>2019-03-26T10:13:25.000Z</time>
      </trkpt>
      <trkpt lat="42.579124" lon="-0.424499">
        <ele>1144.0</ele>
        <time>2019-03-26T10:13:26.000Z</time>
      </trkpt>
      <trkpt lat="42.579124" lon="-0.424499">
        <ele>1144.0</ele>
        <time>2019-03-26T10:13:27.000Z</time>
      </trkpt>
      <trkpt lat="42.579125" lon="-0.424499">
        <ele>1145.0</ele>
        <time>2019-03-26T10:13:28.000Z</time>
      </trkpt>
      <trkpt lat="42.579127" lon="-0.4245">
        <ele>1145.0</ele>
        <time>2019-03-26T10:13:29.000Z</time>
      </trkpt>
      <trkpt lat="42.579133" lon="-0.424502">
        <ele>1145.0</ele>
        <time>2019-03-26T10:13:30.000Z</time>
      </trkpt>
      <trkpt lat="42.579142" lon="-0.424505">
        <ele>1145.0</ele>
        <time>2019-03-26T10:13:31.000Z</time>
      </trkpt>
      <trkpt lat="42.579152" lon="-0.424508">
        <ele>1146.0</ele>
        <time>2019-03-26T10:13:32.000Z</time>
      </trkpt>
      <trkpt lat="42.579163" lon="-0.424516">
        <ele>1146.0</ele>
        <time>2019-03-26T10:13:33.000Z</time>
      </trkpt>
      <trkpt lat="42.579175" lon="-0.424528">
        <ele>1146.0</ele>
        <time>2019-03-26T10:13:34.000Z</time>
      </trkpt>
      <trkpt lat="42.579184" lon="-0.424539">
        <ele>1146.0</ele>
        <time>2019-03-26T10:13:35.000Z</time>
      </trkpt>
      <trkpt lat="42.579192" lon="-0.42455">
        <ele>1146.0</ele>
        <time>2019-03-26T10:13:36.000Z</time>
      </trkpt>
      <trkpt lat="42.579202" lon="-0.424564">
        <ele>1147.0</ele>
        <time>2019-03-26T10:13:37.000Z</time>
      </trkpt>
      <trkpt lat="42.579213" lon="-0.42458">
        <ele>1147.0</ele>
        <time>2019-03-26T10:13:38.000Z</time>
      </trkpt>
      <trkpt lat="42.579223" lon="-0.424597">
        <ele>1147.0</ele>
        <time>2019-03-26T10:13:39.000Z</time>
      </trkpt>
      <trkpt lat="42.57923" lon="-0.424612">
        <ele>1147.0</ele>
        <time>2019-03-26T10:13:40.000Z</time>
      </trkpt>
      <trkpt lat="42.579235" lon="-0.424627">
        <ele>1148.0</ele>
        <time>2019-03-26T10:13:41.000Z</time>
      </trkpt>
      <trkpt lat="42.579237" lon="-0.424642">
        <ele>1148.0</ele>
        <time>2019-03-26T10:13:42.000Z</time>
      </trkpt>
      <trkpt lat="42.579238" lon="-0.424656">
        <ele>1148.0</ele>
        <time>2019-03-26T10:13:43.000Z</time>
      </trkpt>
      <trkpt lat="42.579237" lon="-0.42467">
        <ele>1148.0</ele>
        <time>2019-03-26T10:13:44.000Z</time>
      </trkpt>
      <trkpt lat="42.579235" lon="-0.424685">
        <ele>1148.0</ele>
        <time>2019-03-26T10:13:45.000Z</time>
      </trkpt>
      <trkpt lat="42.579232" lon="-0.4247">
        <ele>1149.0</ele>
        <time>2019-03-26T10:13:46.000Z</time>
      </trkpt>
      <trkpt lat="42.579228" lon="-0.424717">
        <ele>1149.0</ele>
        <time>2019-03-26T10:13:47.000Z</time>
      </trkpt>
      <trkpt lat="42.579223" lon="-0.424735">
        <ele>1149.0</ele>
        <time>2019-03-26T10:13:48.000Z</time>
      </trkpt>
      <trkpt lat="42.579219" lon="-0.424754">
        <ele>1149.0</ele>
        <time>2019-03-26T10:13:49.000Z</time>
      </trkpt>
      <trkpt lat="42.579215" lon="-0.424774">
        <ele>1149.0</ele>
        <time>2019-03-26T10:13:50.000Z</time>
      </trkpt>
      <trkpt lat="42.579213" lon="-0.424794">
        <ele>1149.0</ele>
        <time>2019-03-26T10:13:51.000Z</time>
      </trkpt>
      <trkpt lat="42.579212" lon="-0.424815">
        <ele>1149.0</ele>
        <time>2019-03-26T10:13:52.000Z</time>
      </trkpt>
      <trkpt lat="42.579213" lon="-0.424836">
        <ele>1149.0</ele>
        <time>2019-03-26T10:13:53.000Z</time>
      </trkpt>
      <trkpt lat="42.579216" lon="-0.424857">
        <ele>1149.0</ele>
        <time>2019-03-26T10:13:54.000Z</time>
      </trkpt>
      <trkpt lat="42.579221" lon="-0.424878">
        <ele>1149.0</ele>
        <time>2019-03-26T10:13:55.000Z</time>
      </trkpt>
      <trkpt lat="42.579228" lon="-0.424899">
        <ele>1149.0</ele>
        <time>2019-03-26T10:13:56.000Z</time>
      </trkpt>
      <trkpt lat="42.579236" lon="-0.424921">
        <ele>1149.0</ele>
        <time>2019-03-26T10:13:57.000Z</time>
      </trkpt>
      <trkpt lat="42.579245" lon="-0.424944">
        <ele>1149.0</ele>
        <time>2019-03-26T10:13:58.000Z</time>
      </trkpt>
      <trkpt lat="42.579254" lon="-0.424967">
        <ele>1149.0</ele>
        <time>2019-03-26T10:13:59.000Z</time>
      </trkpt>
      <trkpt lat="42.579263" lon="-0.424991">
        <ele>1149.0</ele>
        <time>2019-03-26T10:14:00.000Z</time>
      </trkpt>
      <trkpt lat="42.579272" lon="-0.425016">
        <ele>1149.0</ele>
        <time>2019-03-26T10:14:01.000Z</time>
      </trkpt>
      <trkpt lat="42.579281" lon="-0.425041">
        <ele>1149.0</ele>
        <time>2019-03-26T10:14:02.000Z</time>
      </trkpt>
      <trkpt lat="42.579289" lon="-0.425068">
        <ele>1150.0</ele>
        <time>2019-03-26T10:14:03.000Z</time>
      </trkpt>
      <trkpt lat="42.579297" lon="-0.425095">
        <ele>1150.0</ele>
        <time>2019-03-26T10:14:04.000Z</time>
      </trkpt>
      <trkpt lat="42.579303" lon="-0.425123">
        <ele>1150.0</ele>
        <time>2019-03-26T10:14:05.000Z</time>
      </trkpt>
      <trkpt lat="42.57931" lon="-0.425152">
        <ele>1149.0</ele>
        <time>2019-03-26T10:14:06.000Z</time>
      </trkpt>
      <trkpt lat="42.579315" lon="-0.425182">
        <ele>1149.0</ele>
        <time>2019-03-26T10:14:07.000Z</time>
      </trkpt>
      <trkpt lat="42.57932" lon="-0.425213">
        <ele>1149.0</ele>
        <time>2019-03-26T10:14:08.000Z</time>
      </trkpt>
      <trkpt lat="42.579324" lon="-0.425244">
        <ele>1149.0</ele>
        <time>2019-03-26T10:14:09.000Z</time>
      </trkpt>
      <trkpt lat="42.579327" lon="-0.425277">
        <ele>1149.0</ele>
        <time>2019-03-26T10:14:10.000Z</time>
      </trkpt>
      <trkpt lat="42.579329" lon="-0.42531">
        <ele>1149.0</ele>
        <time>2019-03-26T10:14:11.000Z</time>
      </trkpt>
      <trkpt lat="42.579331" lon="-0.425344">
        <ele>1149.0</ele>
        <time>2019-03-26T10:14:12.000Z</time>
      </trkpt>
      <trkpt lat="42.579331" lon="-0.425379">
        <ele>1149.0</ele>
        <time>2019-03-26T10:14:13.000Z</time>
      </trkpt>
      <trkpt lat="42.57933" lon="-0.425414">
        <ele>1149.0</ele>
        <time>2019-03-26T10:14:14.000Z</time>
      </trkpt>
      <trkpt lat="42.579328" lon="-0.42545">
        <ele>1149.0</ele>
        <time>2019-03-26T10:14:15.000Z</time>
      </trkpt>
      <trkpt lat="42.579325" lon="-0.425487">
        <ele>1149.0</ele>
        <time>2019-03-26T10:14:16.000Z</time>
      </trkpt>
      <trkpt lat="42.579321" lon="-0.425524">
        <ele>1149.0</ele>
        <time>2019-03-26T10:14:17.000Z</time>
      </trkpt>
      <trkpt lat="42.579317" lon="-0.425561">
        <ele>1149.0</ele>
        <time>2019-03-26T10:14:18.000Z</time>
      </trkpt>
      <trkpt lat="42.579313" lon="-0.425597">
        <ele>1149.0</ele>
        <time>2019-03-26T10:14:19.000Z</time>
      </trkpt>
      <trkpt lat="42.579309" lon="-0.425634">
        <ele>1149.0</ele>
        <time>2019-03-26T10:14:20.000Z</time>
      </trkpt>
      <trkpt lat="42.579305" lon="-0.42567">
        <ele>1149.0</ele>
        <time>2019-03-26T10:14:21.000Z</time>
      </trkpt>
      <trkpt lat="42.579303" lon="-0.425705">
        <ele>1148.0</ele>
        <time>2019-03-26T10:14:22.000Z</time>
      </trkpt>
      <trkpt lat="42.579304" lon="-0.425739">
        <ele>1148.0</ele>
        <time>2019-03-26T10:14:23.000Z</time>
      </trkpt>
      <trkpt lat="42.579305" lon="-0.425778">
        <ele>1148.0</ele>
        <time>2019-03-26T10:14:24.000Z</time>
      </trkpt>
      <trkpt lat="42.5793" lon="-0.425824">
        <ele>1148.0</ele>
        <time>2019-03-26T10:14:25.000Z</time>
      </trkpt>
      <trkpt lat="42.57929" lon="-0.425877">
        <ele>1148.0</ele>
        <time>2019-03-26T10:14:26.000Z</time>
      </trkpt>
      <trkpt lat="42.579278" lon="-0.42593">
        <ele>1148.0</ele>
        <time>2019-03-26T10:14:27.000Z</time>
      </trkpt>
      <trkpt lat="42.579264" lon="-0.425982">
        <ele>1148.0</ele>
        <time>2019-03-26T10:14:28.000Z</time>
      </trkpt>
      <trkpt lat="42.57925" lon="-0.426032">
        <ele>1148.0</ele>
        <time>2019-03-26T10:14:29.000Z</time>
      </trkpt>
      <trkpt lat="42.579236" lon="-0.426079">
        <ele>1148.0</ele>
        <time>2019-03-26T10:14:30.000Z</time>
      </trkpt>
      <trkpt lat="42.579221" lon="-0.426124">
        <ele>1148.0</ele>
        <time>2019-03-26T10:14:31.000Z</time>
      </trkpt>
      <trkpt lat="42.579208" lon="-0.426167">
        <ele>1148.0</ele>
        <time>2019-03-26T10:14:32.000Z</time>
      </trkpt>
      <trkpt lat="42.579195" lon="-0.426207">
        <ele>1148.0</ele>
        <time>2019-03-26T10:14:33.000Z</time>
      </trkpt>
      <trkpt lat="42.579184" lon="-0.426245">
        <ele>1148.0</ele>
        <time>2019-03-26T10:14:34.000Z</time>
      </trkpt>
      <trkpt lat="42.579175" lon="-0.426281">
        <ele>1148.0</ele>
        <time>2019-03-26T10:14:35.000Z</time>
      </trkpt>
      <trkpt lat="42.579167" lon="-0.426314">
        <ele>1148.0</ele>
        <time>2019-03-26T10:14:36.000Z</time>
      </trkpt>
      <trkpt lat="42.579161" lon="-0.426346">
        <ele>1148.0</ele>
        <time>2019-03-26T10:14:37.000Z</time>
      </trkpt>
      <trkpt lat="42.579155" lon="-0.426377">
        <ele>1148.0</ele>
        <time>2019-03-26T10:14:38.000Z</time>
      </trkpt>
      <trkpt lat="42.579151" lon="-0.426406">
        <ele>1148.0</ele>
        <time>2019-03-26T10:14:39.000Z</time>
      </trkpt>
      <trkpt lat="42.579147" lon="-0.426435">
        <ele>1148.0</ele>
        <time>2019-03-26T10:14:40.000Z</time>
      </trkpt>
      <trkpt lat="42.579144" lon="-0.426463">
        <ele>1148.0</ele>
        <time>2019-03-26T10:14:41.000Z</time>
      </trkpt>
      <trkpt lat="42.57914" lon="-0.426491">
        <ele>1148.0</ele>
        <time>2019-03-26T10:14:42.000Z</time>
      </trkpt>
      <trkpt lat="42.579137" lon="-0.426519">
        <ele>1148.0</ele>
        <time>2019-03-26T10:14:43.000Z</time>
      </trkpt>
      <trkpt lat="42.579134" lon="-0.426547">
        <ele>1148.0</ele>
        <time>2019-03-26T10:14:44.000Z</time>
      </trkpt>
      <trkpt lat="42.579131" lon="-0.426575">
        <ele>1148.0</ele>
        <time>2019-03-26T10:14:45.000Z</time>
      </trkpt>
      <trkpt lat="42.579128" lon="-0.426603">
        <ele>1149.0</ele>
        <time>2019-03-26T10:14:46.000Z</time>
      </trkpt>
      <trkpt lat="42.579126" lon="-0.426631">
        <ele>1149.0</ele>
        <time>2019-03-26T10:14:47.000Z</time>
      </trkpt>
      <trkpt lat="42.579123" lon="-0.426659">
        <ele>1149.0</ele>
        <time>2019-03-26T10:14:48.000Z</time>
      </trkpt>
      <trkpt lat="42.579122" lon="-0.426686">
        <ele>1149.0</ele>
        <time>2019-03-26T10:14:49.000Z</time>
      </trkpt>
      <trkpt lat="42.57912" lon="-0.426714">
        <ele>1149.0</ele>
        <time>2019-03-26T10:14:50.000Z</time>
      </trkpt>
      <trkpt lat="42.579119" lon="-0.426742">
        <ele>1149.0</ele>
        <time>2019-03-26T10:14:51.000Z</time>
      </trkpt>
      <trkpt lat="42.579118" lon="-0.426769">
        <ele>1149.0</ele>
        <time>2019-03-26T10:14:52.000Z</time>
      </trkpt>
      <trkpt lat="42.579118" lon="-0.426797">
        <ele>1149.0</ele>
        <time>2019-03-26T10:14:53.000Z</time>
      </trkpt>
      <trkpt lat="42.579119" lon="-0.426824">
        <ele>1150.0</ele>
        <time>2019-03-26T10:14:54.000Z</time>
      </trkpt>
      <trkpt lat="42.57912" lon="-0.426852">
        <ele>1150.0</ele>
        <time>2019-03-26T10:14:55.000Z</time>
      </trkpt>
      <trkpt lat="42.579121" lon="-0.426879">
        <ele>1150.0</ele>
        <time>2019-03-26T10:14:56.000Z</time>
      </trkpt>
      <trkpt lat="42.579123" lon="-0.426907">
        <ele>1150.0</ele>
        <time>2019-03-26T10:14:57.000Z</time>
      </trkpt>
      <trkpt lat="42.579126" lon="-0.426934">
        <ele>1150.0</ele>
        <time>2019-03-26T10:14:58.000Z</time>
      </trkpt>
      <trkpt lat="42.57913" lon="-0.426962">
        <ele>1150.0</ele>
        <time>2019-03-26T10:14:59.000Z</time>
      </trkpt>
      <trkpt lat="42.579134" lon="-0.426989">
        <ele>1150.0</ele>
        <time>2019-03-26T10:15:00.000Z</time>
      </trkpt>
      <trkpt lat="42.579139" lon="-0.427016">
        <ele>1150.0</ele>
        <time>2019-03-26T10:15:01.000Z</time>
      </trkpt>
      <trkpt lat="42.579144" lon="-0.427043">
        <ele>1150.0</ele>
        <time>2019-03-26T10:15:02.000Z</time>
      </trkpt>
      <trkpt lat="42.57915" lon="-0.42707">
        <ele>1150.0</ele>
        <time>2019-03-26T10:15:03.000Z</time>
      </trkpt>
      <trkpt lat="42.579156" lon="-0.427096">
        <ele>1150.0</ele>
        <time>2019-03-26T10:15:04.000Z</time>
      </trkpt>
      <trkpt lat="42.579163" lon="-0.427122">
        <ele>1150.0</ele>
        <time>2019-03-26T10:15:05.000Z</time>
      </trkpt>
      <trkpt lat="42.579171" lon="-0.427148">
        <ele>1151.0</ele>
        <time>2019-03-26T10:15:06.000Z</time>
      </trkpt>
      <trkpt lat="42.579179" lon="-0.427174">
        <ele>1151.0</ele>
        <time>2019-03-26T10:15:07.000Z</time>
      </trkpt>
      <trkpt lat="42.579188" lon="-0.427199">
        <ele>1151.0</ele>
        <time>2019-03-26T10:15:08.000Z</time>
      </trkpt>
      <trkpt lat="42.579198" lon="-0.427225">
        <ele>1151.0</ele>
        <time>2019-03-26T10:15:09.000Z</time>
      </trkpt>
      <trkpt lat="42.579208" lon="-0.42725">
        <ele>1151.0</ele>
        <time>2019-03-26T10:15:10.000Z</time>
      </trkpt>
      <trkpt lat="42.57922" lon="-0.427278">
        <ele>1151.0</ele>
        <time>2019-03-26T10:15:11.000Z</time>
      </trkpt>
      <trkpt lat="42.579233" lon="-0.427307">
        <ele>1151.0</ele>
        <time>2019-03-26T10:15:12.000Z</time>
      </trkpt>
      <trkpt lat="42.579248" lon="-0.427339">
        <ele>1150.0</ele>
        <time>2019-03-26T10:15:13.000Z</time>
      </trkpt>
      <trkpt lat="42.579265" lon="-0.427376">
        <ele>1150.0</ele>
        <time>2019-03-26T10:15:14.000Z</time>
      </trkpt>
      <trkpt lat="42.579284" lon="-0.427417">
        <ele>1150.0</ele>
        <time>2019-03-26T10:15:15.000Z</time>
      </trkpt>
      <trkpt lat="42.579307" lon="-0.427463">
        <ele>1149.0</ele>
        <time>2019-03-26T10:15:16.000Z</time>
      </trkpt>
      <trkpt lat="42.579331" lon="-0.427513">
        <ele>1149.0</ele>
        <time>2019-03-26T10:15:17.000Z</time>
      </trkpt>
      <trkpt lat="42.579357" lon="-0.427565">
        <ele>1149.0</ele>
        <time>2019-03-26T10:15:18.000Z</time>
      </trkpt>
      <trkpt lat="42.579384" lon="-0.427619">
        <ele>1148.0</ele>
        <time>2019-03-26T10:15:19.000Z</time>
      </trkpt>
      <trkpt lat="42.579411" lon="-0.427671">
        <ele>1148.0</ele>
        <time>2019-03-26T10:15:20.000Z</time>
      </trkpt>
      <trkpt lat="42.579438" lon="-0.42772">
        <ele>1148.0</ele>
        <time>2019-03-26T10:15:21.000Z</time>
      </trkpt>
      <trkpt lat="42.579464" lon="-0.427766">
        <ele>1149.0</ele>
        <time>2019-03-26T10:15:22.000Z</time>
      </trkpt>
      <trkpt lat="42.579488" lon="-0.427806">
        <ele>1149.0</ele>
        <time>2019-03-26T10:15:23.000Z</time>
      </trkpt>
      <trkpt lat="42.579511" lon="-0.427841">
        <ele>1149.0</ele>
        <time>2019-03-26T10:15:24.000Z</time>
      </trkpt>
      <trkpt lat="42.579532" lon="-0.427871">
        <ele>1149.0</ele>
        <time>2019-03-26T10:15:25.000Z</time>
      </trkpt>
      <trkpt lat="42.579551" lon="-0.427898">
        <ele>1149.0</ele>
        <time>2019-03-26T10:15:26.000Z</time>
      </trkpt>
      <trkpt lat="42.579569" lon="-0.427922">
        <ele>1149.0</ele>
        <time>2019-03-26T10:15:27.000Z</time>
      </trkpt>
      <trkpt lat="42.579585" lon="-0.427943">
        <ele>1149.0</ele>
        <time>2019-03-26T10:15:28.000Z</time>
      </trkpt>
      <trkpt lat="42.579599" lon="-0.427963">
        <ele>1149.0</ele>
        <time>2019-03-26T10:15:29.000Z</time>
      </trkpt>
      <trkpt lat="42.579612" lon="-0.427982">
        <ele>1150.0</ele>
        <time>2019-03-26T10:15:30.000Z</time>
      </trkpt>
      <trkpt lat="42.579624" lon="-0.428001">
        <ele>1150.0</ele>
        <time>2019-03-26T10:15:31.000Z</time>
      </trkpt>
      <trkpt lat="42.579634" lon="-0.428019">
        <ele>1150.0</ele>
        <time>2019-03-26T10:15:32.000Z</time>
      </trkpt>
      <trkpt lat="42.579643" lon="-0.428037">
        <ele>1150.0</ele>
        <time>2019-03-26T10:15:33.000Z</time>
      </trkpt>
      <trkpt lat="42.579651" lon="-0.428054">
        <ele>1150.0</ele>
        <time>2019-03-26T10:15:34.000Z</time>
      </trkpt>
      <trkpt lat="42.579659" lon="-0.428071">
        <ele>1150.0</ele>
        <time>2019-03-26T10:15:35.000Z</time>
      </trkpt>
      <trkpt lat="42.579666" lon="-0.428088">
        <ele>1151.0</ele>
        <time>2019-03-26T10:15:36.000Z</time>
      </trkpt>
      <trkpt lat="42.579672" lon="-0.428105">
        <ele>1151.0</ele>
        <time>2019-03-26T10:15:37.000Z</time>
      </trkpt>
      <trkpt lat="42.579678" lon="-0.428122">
        <ele>1151.0</ele>
        <time>2019-03-26T10:15:38.000Z</time>
      </trkpt>
      <trkpt lat="42.579684" lon="-0.428139">
        <ele>1151.0</ele>
        <time>2019-03-26T10:15:39.000Z</time>
      </trkpt>
      <trkpt lat="42.579689" lon="-0.428156">
        <ele>1151.0</ele>
        <time>2019-03-26T10:15:40.000Z</time>
      </trkpt>
      <trkpt lat="42.579695" lon="-0.428173">
        <ele>1151.0</ele>
        <time>2019-03-26T10:15:41.000Z</time>
      </trkpt>
      <trkpt lat="42.5797" lon="-0.428189">
        <ele>1152.0</ele>
        <time>2019-03-26T10:15:42.000Z</time>
      </trkpt>
      <trkpt lat="42.579705" lon="-0.428206">
        <ele>1152.0</ele>
        <time>2019-03-26T10:15:43.000Z</time>
      </trkpt>
      <trkpt lat="42.57971" lon="-0.428222">
        <ele>1152.0</ele>
        <time>2019-03-26T10:15:44.000Z</time>
      </trkpt>
      <trkpt lat="42.579715" lon="-0.428238">
        <ele>1152.0</ele>
        <time>2019-03-26T10:15:45.000Z</time>
      </trkpt>
      <trkpt lat="42.579719" lon="-0.428253">
        <ele>1152.0</ele>
        <time>2019-03-26T10:15:46.000Z</time>
      </trkpt>
      <trkpt lat="42.579724" lon="-0.428269">
        <ele>1152.0</ele>
        <time>2019-03-26T10:15:47.000Z</time>
      </trkpt>
      <trkpt lat="42.579729" lon="-0.428283">
        <ele>1153.0</ele>
        <time>2019-03-26T10:15:48.000Z</time>
      </trkpt>
      <trkpt lat="42.579735" lon="-0.428298">
        <ele>1153.0</ele>
        <time>2019-03-26T10:15:49.000Z</time>
      </trkpt>
      <trkpt lat="42.57974" lon="-0.428312">
        <ele>1153.0</ele>
        <time>2019-03-26T10:15:50.000Z</time>
      </trkpt>
      <trkpt lat="42.579746" lon="-0.428326">
        <ele>1153.0</ele>
        <time>2019-03-26T10:15:51.000Z</time>
      </trkpt>
      <trkpt lat="42.579751" lon="-0.428339">
        <ele>1154.0</ele>
        <time>2019-03-26T10:15:52.000Z</time>
      </trkpt>
      <trkpt lat="42.579757" lon="-0.428351">
        <ele>1154.0</ele>
        <time>2019-03-26T10:15:53.000Z</time>
      </trkpt>
      <trkpt lat="42.579764" lon="-0.428364">
        <ele>1154.0</ele>
        <time>2019-03-26T10:15:54.000Z</time>
      </trkpt>
      <trkpt lat="42.57977" lon="-0.428376">
        <ele>1154.0</ele>
        <time>2019-03-26T10:15:55.000Z</time>
      </trkpt>
      <trkpt lat="42.579776" lon="-0.428388">
        <ele>1154.0</ele>
        <time>2019-03-26T10:15:56.000Z</time>
      </trkpt>
      <trkpt lat="42.579783" lon="-0.4284">
        <ele>1154.0</ele>
        <time>2019-03-26T10:15:57.000Z</time>
      </trkpt>
      <trkpt lat="42.579789" lon="-0.428412">
        <ele>1155.0</ele>
        <time>2019-03-26T10:15:58.000Z</time>
      </trkpt>
      <trkpt lat="42.579795" lon="-0.428424">
        <ele>1155.0</ele>
        <time>2019-03-26T10:15:59.000Z</time>
      </trkpt>
      <trkpt lat="42.579801" lon="-0.428436">
        <ele>1155.0</ele>
        <time>2019-03-26T10:16:00.000Z</time>
      </trkpt>
      <trkpt lat="42.579808" lon="-0.428449">
        <ele>1155.0</ele>
        <time>2019-03-26T10:16:01.000Z</time>
      </trkpt>
      <trkpt lat="42.579813" lon="-0.428461">
        <ele>1156.0</ele>
        <time>2019-03-26T10:16:02.000Z</time>
      </trkpt>
      <trkpt lat="42.579819" lon="-0.428473">
        <ele>1156.0</ele>
        <time>2019-03-26T10:16:03.000Z</time>
      </trkpt>
      <trkpt lat="42.579825" lon="-0.428486">
        <ele>1156.0</ele>
        <time>2019-03-26T10:16:04.000Z</time>
      </trkpt>
      <trkpt lat="42.57983" lon="-0.428499">
        <ele>1156.0</ele>
        <time>2019-03-26T10:16:05.000Z</time>
      </trkpt>
      <trkpt lat="42.579835" lon="-0.428513">
        <ele>1157.0</ele>
        <time>2019-03-26T10:16:06.000Z</time>
      </trkpt>
      <trkpt lat="42.57984" lon="-0.428526">
        <ele>1157.0</ele>
        <time>2019-03-26T10:16:07.000Z</time>
      </trkpt>
      <trkpt lat="42.579845" lon="-0.42854">
        <ele>1157.0</ele>
        <time>2019-03-26T10:16:08.000Z</time>
      </trkpt>
      <trkpt lat="42.57985" lon="-0.428554">
        <ele>1157.0</ele>
        <time>2019-03-26T10:16:09.000Z</time>
      </trkpt>
      <trkpt lat="42.579854" lon="-0.428568">
        <ele>1158.0</ele>
        <time>2019-03-26T10:16:10.000Z</time>
      </trkpt>
      <trkpt lat="42.579859" lon="-0.428582">
        <ele>1158.0</ele>
        <time>2019-03-26T10:16:11.000Z</time>
      </trkpt>
      <trkpt lat="42.579864" lon="-0.428595">
        <ele>1158.0</ele>
        <time>2019-03-26T10:16:12.000Z</time>
      </trkpt>
      <trkpt lat="42.579869" lon="-0.428609">
        <ele>1158.0</ele>
        <time>2019-03-26T10:16:13.000Z</time>
      </trkpt>
      <trkpt lat="42.579874" lon="-0.428623">
        <ele>1158.0</ele>
        <time>2019-03-26T10:16:14.000Z</time>
      </trkpt>
      <trkpt lat="42.57988" lon="-0.428636">
        <ele>1159.0</ele>
        <time>2019-03-26T10:16:15.000Z</time>
      </trkpt>
      <trkpt lat="42.579885" lon="-0.42865">
        <ele>1159.0</ele>
        <time>2019-03-26T10:16:16.000Z</time>
      </trkpt>
      <trkpt lat="42.579891" lon="-0.428663">
        <ele>1159.0</ele>
        <time>2019-03-26T10:16:17.000Z</time>
      </trkpt>
      <trkpt lat="42.579897" lon="-0.428676">
        <ele>1159.0</ele>
        <time>2019-03-26T10:16:18.000Z</time>
      </trkpt>
      <trkpt lat="42.579903" lon="-0.428688">
        <ele>1159.0</ele>
        <time>2019-03-26T10:16:19.000Z</time>
      </trkpt>
      <trkpt lat="42.57991" lon="-0.428701">
        <ele>1160.0</ele>
        <time>2019-03-26T10:16:20.000Z</time>
      </trkpt>
      <trkpt lat="42.579917" lon="-0.428713">
        <ele>1160.0</ele>
        <time>2019-03-26T10:16:21.000Z</time>
      </trkpt>
      <trkpt lat="42.579924" lon="-0.428725">
        <ele>1160.0</ele>
        <time>2019-03-26T10:16:22.000Z</time>
      </trkpt>
      <trkpt lat="42.579932" lon="-0.428737">
        <ele>1160.0</ele>
        <time>2019-03-26T10:16:23.000Z</time>
      </trkpt>
      <trkpt lat="42.579941" lon="-0.428749">
        <ele>1160.0</ele>
        <time>2019-03-26T10:16:24.000Z</time>
      </trkpt>
      <trkpt lat="42.579949" lon="-0.428761">
        <ele>1161.0</ele>
        <time>2019-03-26T10:16:25.000Z</time>
      </trkpt>
      <trkpt lat="42.579956" lon="-0.428769">
        <ele>1161.0</ele>
        <time>2019-03-26T10:16:26.000Z</time>
      </trkpt>
      <trkpt lat="42.579958" lon="-0.428772">
        <ele>1161.0</ele>
        <time>2019-03-26T10:16:27.000Z</time>
      </trkpt>
      <trkpt lat="42.579958" lon="-0.428772">
        <ele>1161.0</ele>
        <time>2019-03-26T10:16:28.000Z</time>
      </trkpt>
      <trkpt lat="42.579958" lon="-0.428773">
        <ele>1161.0</ele>
        <time>2019-03-26T10:16:29.000Z</time>
      </trkpt>
      <trkpt lat="42.579962" lon="-0.428778">
        <ele>1161.0</ele>
        <time>2019-03-26T10:16:30.000Z</time>
      </trkpt>
      <trkpt lat="42.579971" lon="-0.42879">
        <ele>1162.0</ele>
        <time>2019-03-26T10:16:31.000Z</time>
      </trkpt>
      <trkpt lat="42.579982" lon="-0.428801">
        <ele>1162.0</ele>
        <time>2019-03-26T10:16:32.000Z</time>
      </trkpt>
      <trkpt lat="42.579993" lon="-0.428812">
        <ele>1162.0</ele>
        <time>2019-03-26T10:16:33.000Z</time>
      </trkpt>
      <trkpt lat="42.580004" lon="-0.428822">
        <ele>1162.0</ele>
        <time>2019-03-26T10:16:34.000Z</time>
      </trkpt>
      <trkpt lat="42.580015" lon="-0.428833">
        <ele>1162.0</ele>
        <time>2019-03-26T10:16:35.000Z</time>
      </trkpt>
      <trkpt lat="42.580024" lon="-0.428844">
        <ele>1163.0</ele>
        <time>2019-03-26T10:16:36.000Z</time>
      </trkpt>
      <trkpt lat="42.580033" lon="-0.428855">
        <ele>1163.0</ele>
        <time>2019-03-26T10:16:37.000Z</time>
      </trkpt>
      <trkpt lat="42.580043" lon="-0.428866">
        <ele>1163.0</ele>
        <time>2019-03-26T10:16:38.000Z</time>
      </trkpt>
      <trkpt lat="42.580052" lon="-0.428876">
        <ele>1163.0</ele>
        <time>2019-03-26T10:16:39.000Z</time>
      </trkpt>
      <trkpt lat="42.580063" lon="-0.428885">
        <ele>1163.0</ele>
        <time>2019-03-26T10:16:40.000Z</time>
      </trkpt>
      <trkpt lat="42.580073" lon="-0.428894">
        <ele>1163.0</ele>
        <time>2019-03-26T10:16:41.000Z</time>
      </trkpt>
      <trkpt lat="42.580084" lon="-0.428903">
        <ele>1164.0</ele>
        <time>2019-03-26T10:16:42.000Z</time>
      </trkpt>
      <trkpt lat="42.580095" lon="-0.428911">
        <ele>1164.0</ele>
        <time>2019-03-26T10:16:43.000Z</time>
      </trkpt>
      <trkpt lat="42.580106" lon="-0.42892">
        <ele>1164.0</ele>
        <time>2019-03-26T10:16:44.000Z</time>
      </trkpt>
      <trkpt lat="42.580117" lon="-0.428929">
        <ele>1164.0</ele>
        <time>2019-03-26T10:16:45.000Z</time>
      </trkpt>
      <trkpt lat="42.580128" lon="-0.428938">
        <ele>1164.0</ele>
        <time>2019-03-26T10:16:46.000Z</time>
      </trkpt>
      <trkpt lat="42.580139" lon="-0.428947">
        <ele>1164.0</ele>
        <time>2019-03-26T10:16:47.000Z</time>
      </trkpt>
      <trkpt lat="42.58015" lon="-0.428957">
        <ele>1164.0</ele>
        <time>2019-03-26T10:16:48.000Z</time>
      </trkpt>
      <trkpt lat="42.580161" lon="-0.428966">
        <ele>1164.0</ele>
        <time>2019-03-26T10:16:49.000Z</time>
      </trkpt>
      <trkpt lat="42.580173" lon="-0.428974">
        <ele>1164.0</ele>
        <time>2019-03-26T10:16:50.000Z</time>
      </trkpt>
      <trkpt lat="42.580184" lon="-0.428982">
        <ele>1165.0</ele>
        <time>2019-03-26T10:16:51.000Z</time>
      </trkpt>
      <trkpt lat="42.580196" lon="-0.428989">
        <ele>1165.0</ele>
        <time>2019-03-26T10:16:52.000Z</time>
      </trkpt>
      <trkpt lat="42.580208" lon="-0.428995">
        <ele>1165.0</ele>
        <time>2019-03-26T10:16:53.000Z</time>
      </trkpt>
      <trkpt lat="42.580221" lon="-0.429">
        <ele>1165.0</ele>
        <time>2019-03-26T10:16:54.000Z</time>
      </trkpt>
      <trkpt lat="42.580233" lon="-0.429004">
        <ele>1165.0</ele>
        <time>2019-03-26T10:16:55.000Z</time>
      </trkpt>
      <trkpt lat="42.580246" lon="-0.429009">
        <ele>1165.0</ele>
        <time>2019-03-26T10:16:56.000Z</time>
      </trkpt>
      <trkpt lat="42.580258" lon="-0.429014">
        <ele>1165.0</ele>
        <time>2019-03-26T10:16:57.000Z</time>
      </trkpt>
      <trkpt lat="42.580271" lon="-0.42902">
        <ele>1165.0</ele>
        <time>2019-03-26T10:16:58.000Z</time>
      </trkpt>
      <trkpt lat="42.580283" lon="-0.429027">
        <ele>1166.0</ele>
        <time>2019-03-26T10:16:59.000Z</time>
      </trkpt>
      <trkpt lat="42.580295" lon="-0.429035">
        <ele>1166.0</ele>
        <time>2019-03-26T10:17:00.000Z</time>
      </trkpt>
      <trkpt lat="42.580307" lon="-0.429044">
        <ele>1166.0</ele>
        <time>2019-03-26T10:17:01.000Z</time>
      </trkpt>
      <trkpt lat="42.580319" lon="-0.429055">
        <ele>1166.0</ele>
        <time>2019-03-26T10:17:02.000Z</time>
      </trkpt>
      <trkpt lat="42.580331" lon="-0.429066">
        <ele>1166.0</ele>
        <time>2019-03-26T10:17:03.000Z</time>
      </trkpt>
      <trkpt lat="42.580342" lon="-0.429077">
        <ele>1166.0</ele>
        <time>2019-03-26T10:17:04.000Z</time>
      </trkpt>
      <trkpt lat="42.580354" lon="-0.429089">
        <ele>1166.0</ele>
        <time>2019-03-26T10:17:05.000Z</time>
      </trkpt>
      <trkpt lat="42.580365" lon="-0.429102">
        <ele>1166.0</ele>
        <time>2019-03-26T10:17:06.000Z</time>
      </trkpt>
      <trkpt lat="42.580376" lon="-0.429115">
        <ele>1166.0</ele>
        <time>2019-03-26T10:17:07.000Z</time>
      </trkpt>
      <trkpt lat="42.580387" lon="-0.429129">
        <ele>1166.0</ele>
        <time>2019-03-26T10:17:08.000Z</time>
      </trkpt>
      <trkpt lat="42.580398" lon="-0.429142">
        <ele>1167.0</ele>
        <time>2019-03-26T10:17:09.000Z</time>
      </trkpt>
      <trkpt lat="42.58041" lon="-0.429156">
        <ele>1167.0</ele>
        <time>2019-03-26T10:17:10.000Z</time>
      </trkpt>
      <trkpt lat="42.580421" lon="-0.42917">
        <ele>1167.0</ele>
        <time>2019-03-26T10:17:11.000Z</time>
      </trkpt>
      <trkpt lat="42.580432" lon="-0.429183">
        <ele>1167.0</ele>
        <time>2019-03-26T10:17:12.000Z</time>
      </trkpt>
      <trkpt lat="42.580443" lon="-0.429196">
        <ele>1167.0</ele>
        <time>2019-03-26T10:17:13.000Z</time>
      </trkpt>
      <trkpt lat="42.580455" lon="-0.42921">
        <ele>1167.0</ele>
        <time>2019-03-26T10:17:14.000Z</time>
      </trkpt>
      <trkpt lat="42.580466" lon="-0.429223">
        <ele>1167.0</ele>
        <time>2019-03-26T10:17:15.000Z</time>
      </trkpt>
      <trkpt lat="42.580477" lon="-0.429236">
        <ele>1167.0</ele>
        <time>2019-03-26T10:17:16.000Z</time>
      </trkpt>
      <trkpt lat="42.580489" lon="-0.429249">
        <ele>1167.0</ele>
        <time>2019-03-26T10:17:17.000Z</time>
      </trkpt>
      <trkpt lat="42.5805" lon="-0.429262">
        <ele>1167.0</ele>
        <time>2019-03-26T10:17:18.000Z</time>
      </trkpt>
      <trkpt lat="42.580511" lon="-0.429275">
        <ele>1167.0</ele>
        <time>2019-03-26T10:17:19.000Z</time>
      </trkpt>
      <trkpt lat="42.580522" lon="-0.429289">
        <ele>1168.0</ele>
        <time>2019-03-26T10:17:20.000Z</time>
      </trkpt>
      <trkpt lat="42.580533" lon="-0.429303">
        <ele>1168.0</ele>
        <time>2019-03-26T10:17:21.000Z</time>
      </trkpt>
      <trkpt lat="42.580543" lon="-0.429318">
        <ele>1168.0</ele>
        <time>2019-03-26T10:17:22.000Z</time>
      </trkpt>
      <trkpt lat="42.580554" lon="-0.429333">
        <ele>1168.0</ele>
        <time>2019-03-26T10:17:23.000Z</time>
      </trkpt>
      <trkpt lat="42.580564" lon="-0.429349">
        <ele>1168.0</ele>
        <time>2019-03-26T10:17:24.000Z</time>
      </trkpt>
      <trkpt lat="42.580574" lon="-0.429366">
        <ele>1168.0</ele>
        <time>2019-03-26T10:17:25.000Z</time>
      </trkpt>
      <trkpt lat="42.580584" lon="-0.429383">
        <ele>1168.0</ele>
        <time>2019-03-26T10:17:26.000Z</time>
      </trkpt>
      <trkpt lat="42.580594" lon="-0.429401">
        <ele>1168.0</ele>
        <time>2019-03-26T10:17:27.000Z</time>
      </trkpt>
      <trkpt lat="42.580604" lon="-0.42942">
        <ele>1168.0</ele>
        <time>2019-03-26T10:17:28.000Z</time>
      </trkpt>
      <trkpt lat="42.580613" lon="-0.429438">
        <ele>1168.0</ele>
        <time>2019-03-26T10:17:29.000Z</time>
      </trkpt>
      <trkpt lat="42.580623" lon="-0.429457">
        <ele>1168.0</ele>
        <time>2019-03-26T10:17:30.000Z</time>
      </trkpt>
      <trkpt lat="42.580634" lon="-0.429474">
        <ele>1168.0</ele>
        <time>2019-03-26T10:17:31.000Z</time>
      </trkpt>
      <trkpt lat="42.580645" lon="-0.429489">
        <ele>1169.0</ele>
        <time>2019-03-26T10:17:32.000Z</time>
      </trkpt>
      <trkpt lat="42.580657" lon="-0.429503">
        <ele>1169.0</ele>
        <time>2019-03-26T10:17:33.000Z</time>
      </trkpt>
      <trkpt lat="42.580669" lon="-0.429515">
        <ele>1169.0</ele>
        <time>2019-03-26T10:17:34.000Z</time>
      </trkpt>
      <trkpt lat="42.580683" lon="-0.429524">
        <ele>1169.0</ele>
        <time>2019-03-26T10:17:35.000Z</time>
      </trkpt>
      <trkpt lat="42.580697" lon="-0.429532">
        <ele>1169.0</ele>
        <time>2019-03-26T10:17:36.000Z</time>
      </trkpt>
      <trkpt lat="42.580712" lon="-0.429539">
        <ele>1169.0</ele>
        <time>2019-03-26T10:17:37.000Z</time>
      </trkpt>
      <trkpt lat="42.580727" lon="-0.429545">
        <ele>1169.0</ele>
        <time>2019-03-26T10:17:38.000Z</time>
      </trkpt>
      <trkpt lat="42.580742" lon="-0.42955">
        <ele>1169.0</ele>
        <time>2019-03-26T10:17:39.000Z</time>
      </trkpt>
      <trkpt lat="42.580757" lon="-0.429555">
        <ele>1169.0</ele>
        <time>2019-03-26T10:17:40.000Z</time>
      </trkpt>
      <trkpt lat="42.580772" lon="-0.42956">
        <ele>1169.0</ele>
        <time>2019-03-26T10:17:41.000Z</time>
      </trkpt>
      <trkpt lat="42.580787" lon="-0.429565">
        <ele>1169.0</ele>
        <time>2019-03-26T10:17:42.000Z</time>
      </trkpt>
      <trkpt lat="42.580801" lon="-0.429572">
        <ele>1169.0</ele>
        <time>2019-03-26T10:17:43.000Z</time>
      </trkpt>
      <trkpt lat="42.580816" lon="-0.429581">
        <ele>1169.0</ele>
        <time>2019-03-26T10:17:44.000Z</time>
      </trkpt>
      <trkpt lat="42.580832" lon="-0.429591">
        <ele>1169.0</ele>
        <time>2019-03-26T10:17:45.000Z</time>
      </trkpt>
      <trkpt lat="42.580848" lon="-0.429601">
        <ele>1169.0</ele>
        <time>2019-03-26T10:17:46.000Z</time>
      </trkpt>
      <trkpt lat="42.580864" lon="-0.429608">
        <ele>1169.0</ele>
        <time>2019-03-26T10:17:47.000Z</time>
      </trkpt>
      <trkpt lat="42.580881" lon="-0.429611">
        <ele>1169.0</ele>
        <time>2019-03-26T10:17:48.000Z</time>
      </trkpt>
      <trkpt lat="42.580897" lon="-0.429609">
        <ele>1169.0</ele>
        <time>2019-03-26T10:17:49.000Z</time>
      </trkpt>
      <trkpt lat="42.580914" lon="-0.429604">
        <ele>1169.0</ele>
        <time>2019-03-26T10:17:50.000Z</time>
      </trkpt>
      <trkpt lat="42.580931" lon="-0.429596">
        <ele>1169.0</ele>
        <time>2019-03-26T10:17:51.000Z</time>
      </trkpt>
      <trkpt lat="42.580948" lon="-0.429586">
        <ele>1169.0</ele>
        <time>2019-03-26T10:17:52.000Z</time>
      </trkpt>
      <trkpt lat="42.580965" lon="-0.429575">
        <ele>1169.0</ele>
        <time>2019-03-26T10:17:53.000Z</time>
      </trkpt>
      <trkpt lat="42.580982" lon="-0.429562">
        <ele>1169.0</ele>
        <time>2019-03-26T10:17:54.000Z</time>
      </trkpt>
      <trkpt lat="42.580998" lon="-0.42955">
        <ele>1169.0</ele>
        <time>2019-03-26T10:17:55.000Z</time>
      </trkpt>
      <trkpt lat="42.581014" lon="-0.429538">
        <ele>1169.0</ele>
        <time>2019-03-26T10:17:56.000Z</time>
      </trkpt>
      <trkpt lat="42.58103" lon="-0.429525">
        <ele>1169.0</ele>
        <time>2019-03-26T10:17:57.000Z</time>
      </trkpt>
      <trkpt lat="42.581046" lon="-0.429513">
        <ele>1169.0</ele>
        <time>2019-03-26T10:17:58.000Z</time>
      </trkpt>
      <trkpt lat="42.581061" lon="-0.4295">
        <ele>1169.0</ele>
        <time>2019-03-26T10:17:59.000Z</time>
      </trkpt>
      <trkpt lat="42.581076" lon="-0.429488">
        <ele>1169.0</ele>
        <time>2019-03-26T10:18:00.000Z</time>
      </trkpt>
      <trkpt lat="42.581092" lon="-0.429475">
        <ele>1169.0</ele>
        <time>2019-03-26T10:18:01.000Z</time>
      </trkpt>
      <trkpt lat="42.581107" lon="-0.429463">
        <ele>1169.0</ele>
        <time>2019-03-26T10:18:02.000Z</time>
      </trkpt>
      <trkpt lat="42.581122" lon="-0.429451">
        <ele>1169.0</ele>
        <time>2019-03-26T10:18:03.000Z</time>
      </trkpt>
      <trkpt lat="42.581137" lon="-0.429439">
        <ele>1169.0</ele>
        <time>2019-03-26T10:18:04.000Z</time>
      </trkpt>
      <trkpt lat="42.581152" lon="-0.429427">
        <ele>1169.0</ele>
        <time>2019-03-26T10:18:05.000Z</time>
      </trkpt>
      <trkpt lat="42.581167" lon="-0.429415">
        <ele>1169.0</ele>
        <time>2019-03-26T10:18:06.000Z</time>
      </trkpt>
      <trkpt lat="42.581182" lon="-0.429404">
        <ele>1169.0</ele>
        <time>2019-03-26T10:18:07.000Z</time>
      </trkpt>
      <trkpt lat="42.581198" lon="-0.429392">
        <ele>1169.0</ele>
        <time>2019-03-26T10:18:08.000Z</time>
      </trkpt>
      <trkpt lat="42.581213" lon="-0.429381">
        <ele>1169.0</ele>
        <time>2019-03-26T10:18:09.000Z</time>
      </trkpt>
      <trkpt lat="42.581228" lon="-0.42937">
        <ele>1169.0</ele>
        <time>2019-03-26T10:18:10.000Z</time>
      </trkpt>
      <trkpt lat="42.581244" lon="-0.42936">
        <ele>1169.0</ele>
        <time>2019-03-26T10:18:11.000Z</time>
      </trkpt>
      <trkpt lat="42.58126" lon="-0.429349">
        <ele>1169.0</ele>
        <time>2019-03-26T10:18:12.000Z</time>
      </trkpt>
      <trkpt lat="42.581276" lon="-0.429339">
        <ele>1169.0</ele>
        <time>2019-03-26T10:18:13.000Z</time>
      </trkpt>
      <trkpt lat="42.581292" lon="-0.42933">
        <ele>1169.0</ele>
        <time>2019-03-26T10:18:14.000Z</time>
      </trkpt>
      <trkpt lat="42.581309" lon="-0.42932">
        <ele>1169.0</ele>
        <time>2019-03-26T10:18:15.000Z</time>
      </trkpt>
      <trkpt lat="42.581325" lon="-0.429312">
        <ele>1169.0</ele>
        <time>2019-03-26T10:18:16.000Z</time>
      </trkpt>
      <trkpt lat="42.581343" lon="-0.429303">
        <ele>1169.0</ele>
        <time>2019-03-26T10:18:17.000Z</time>
      </trkpt>
      <trkpt lat="42.58136" lon="-0.429295">
        <ele>1169.0</ele>
        <time>2019-03-26T10:18:18.000Z</time>
      </trkpt>
      <trkpt lat="42.581378" lon="-0.429287">
        <ele>1169.0</ele>
        <time>2019-03-26T10:18:19.000Z</time>
      </trkpt>
      <trkpt lat="42.581396" lon="-0.42928">
        <ele>1169.0</ele>
        <time>2019-03-26T10:18:20.000Z</time>
      </trkpt>
      <trkpt lat="42.581415" lon="-0.429273">
        <ele>1169.0</ele>
        <time>2019-03-26T10:18:21.000Z</time>
      </trkpt>
      <trkpt lat="42.581434" lon="-0.429267">
        <ele>1169.0</ele>
        <time>2019-03-26T10:18:22.000Z</time>
      </trkpt>
      <trkpt lat="42.581454" lon="-0.429261">
        <ele>1169.0</ele>
        <time>2019-03-26T10:18:23.000Z</time>
      </trkpt>
      <trkpt lat="42.581474" lon="-0.429256">
        <ele>1169.0</ele>
        <time>2019-03-26T10:18:24.000Z</time>
      </trkpt>
      <trkpt lat="42.581494" lon="-0.429251">
        <ele>1168.0</ele>
        <time>2019-03-26T10:18:25.000Z</time>
      </trkpt>
      <trkpt lat="42.581514" lon="-0.429247">
        <ele>1168.0</ele>
        <time>2019-03-26T10:18:26.000Z</time>
      </trkpt>
      <trkpt lat="42.581533" lon="-0.429244">
        <ele>1168.0</ele>
        <time>2019-03-26T10:18:27.000Z</time>
      </trkpt>
      <trkpt lat="42.581552" lon="-0.429241">
        <ele>1168.0</ele>
        <time>2019-03-26T10:18:28.000Z</time>
      </trkpt>
      <trkpt lat="42.58157" lon="-0.429238">
        <ele>1168.0</ele>
        <time>2019-03-26T10:18:29.000Z</time>
      </trkpt>
      <trkpt lat="42.581587" lon="-0.429236">
        <ele>1168.0</ele>
        <time>2019-03-26T10:18:30.000Z</time>
      </trkpt>
      <trkpt lat="42.581604" lon="-0.429235">
        <ele>1168.0</ele>
        <time>2019-03-26T10:18:31.000Z</time>
      </trkpt>
      <trkpt lat="42.58162" lon="-0.429234">
        <ele>1167.0</ele>
        <time>2019-03-26T10:18:32.000Z</time>
      </trkpt>
      <trkpt lat="42.581636" lon="-0.429233">
        <ele>1167.0</ele>
        <time>2019-03-26T10:18:33.000Z</time>
      </trkpt>
      <trkpt lat="42.581653" lon="-0.429233">
        <ele>1167.0</ele>
        <time>2019-03-26T10:18:34.000Z</time>
      </trkpt>
      <trkpt lat="42.581671" lon="-0.429233">
        <ele>1167.0</ele>
        <time>2019-03-26T10:18:35.000Z</time>
      </trkpt>
      <trkpt lat="42.58169" lon="-0.429233">
        <ele>1167.0</ele>
        <time>2019-03-26T10:18:36.000Z</time>
      </trkpt>
      <trkpt lat="42.58171" lon="-0.429233">
        <ele>1167.0</ele>
        <time>2019-03-26T10:18:37.000Z</time>
      </trkpt>
      <trkpt lat="42.581733" lon="-0.429232">
        <ele>1166.0</ele>
        <time>2019-03-26T10:18:38.000Z</time>
      </trkpt>
      <trkpt lat="42.581756" lon="-0.429232">
        <ele>1166.0</ele>
        <time>2019-03-26T10:18:39.000Z</time>
      </trkpt>
      <trkpt lat="42.581781" lon="-0.429231">
        <ele>1166.0</ele>
        <time>2019-03-26T10:18:40.000Z</time>
      </trkpt>
      <trkpt lat="42.581806" lon="-0.42923">
        <ele>1166.0</ele>
        <time>2019-03-26T10:18:41.000Z</time>
      </trkpt>
      <trkpt lat="42.581832" lon="-0.429228">
        <ele>1166.0</ele>
        <time>2019-03-26T10:18:42.000Z</time>
      </trkpt>
      <trkpt lat="42.581858" lon="-0.429225">
        <ele>1165.0</ele>
        <time>2019-03-26T10:18:43.000Z</time>
      </trkpt>
      <trkpt lat="42.581884" lon="-0.429222">
        <ele>1165.0</ele>
        <time>2019-03-26T10:18:44.000Z</time>
      </trkpt>
      <trkpt lat="42.581911" lon="-0.429218">
        <ele>1165.0</ele>
        <time>2019-03-26T10:18:45.000Z</time>
      </trkpt>
      <trkpt lat="42.581937" lon="-0.429215">
        <ele>1165.0</ele>
        <time>2019-03-26T10:18:46.000Z</time>
      </trkpt>
      <trkpt lat="42.581963" lon="-0.429212">
        <ele>1165.0</ele>
        <time>2019-03-26T10:18:47.000Z</time>
      </trkpt>
      <trkpt lat="42.581989" lon="-0.429209">
        <ele>1164.0</ele>
        <time>2019-03-26T10:18:48.000Z</time>
      </trkpt>
      <trkpt lat="42.582014" lon="-0.429209">
        <ele>1164.0</ele>
        <time>2019-03-26T10:18:49.000Z</time>
      </trkpt>
      <trkpt lat="42.582038" lon="-0.429209">
        <ele>1164.0</ele>
        <time>2019-03-26T10:18:50.000Z</time>
      </trkpt>
      <trkpt lat="42.582062" lon="-0.429211">
        <ele>1164.0</ele>
        <time>2019-03-26T10:18:51.000Z</time>
      </trkpt>
      <trkpt lat="42.582084" lon="-0.429213">
        <ele>1164.0</ele>
        <time>2019-03-26T10:18:52.000Z</time>
      </trkpt>
      <trkpt lat="42.582106" lon="-0.429213">
        <ele>1164.0</ele>
        <time>2019-03-26T10:18:53.000Z</time>
      </trkpt>
      <trkpt lat="42.582126" lon="-0.429211">
        <ele>1163.0</ele>
        <time>2019-03-26T10:18:54.000Z</time>
      </trkpt>
      <trkpt lat="42.582144" lon="-0.429209">
        <ele>1163.0</ele>
        <time>2019-03-26T10:18:55.000Z</time>
      </trkpt>
      <trkpt lat="42.58216" lon="-0.429207">
        <ele>1163.0</ele>
        <time>2019-03-26T10:18:56.000Z</time>
      </trkpt>
      <trkpt lat="42.582173" lon="-0.429206">
        <ele>1163.0</ele>
        <time>2019-03-26T10:18:57.000Z</time>
      </trkpt>
      <trkpt lat="42.582185" lon="-0.429207">
        <ele>1163.0</ele>
        <time>2019-03-26T10:18:58.000Z</time>
      </trkpt>
      <trkpt lat="42.582196" lon="-0.429207">
        <ele>1164.0</ele>
        <time>2019-03-26T10:18:59.000Z</time>
      </trkpt>
      <trkpt lat="42.582208" lon="-0.429205">
        <ele>1164.0</ele>
        <time>2019-03-26T10:19:00.000Z</time>
      </trkpt>
      <trkpt lat="42.582221" lon="-0.429201">
        <ele>1164.0</ele>
        <time>2019-03-26T10:19:01.000Z</time>
      </trkpt>
      <trkpt lat="42.582236" lon="-0.429196">
        <ele>1164.0</ele>
        <time>2019-03-26T10:19:02.000Z</time>
      </trkpt>
      <trkpt lat="42.582251" lon="-0.429189">
        <ele>1164.0</ele>
        <time>2019-03-26T10:19:03.000Z</time>
      </trkpt>
      <trkpt lat="42.582265" lon="-0.429183">
        <ele>1164.0</ele>
        <time>2019-03-26T10:19:04.000Z</time>
      </trkpt>
      <trkpt lat="42.58228" lon="-0.429178">
        <ele>1164.0</ele>
        <time>2019-03-26T10:19:05.000Z</time>
      </trkpt>
      <trkpt lat="42.582294" lon="-0.429173">
        <ele>1165.0</ele>
        <time>2019-03-26T10:19:06.000Z</time>
      </trkpt>
      <trkpt lat="42.582307" lon="-0.429168">
        <ele>1165.0</ele>
        <time>2019-03-26T10:19:07.000Z</time>
      </trkpt>
      <trkpt lat="42.582321" lon="-0.429163">
        <ele>1165.0</ele>
        <time>2019-03-26T10:19:08.000Z</time>
      </trkpt>
      <trkpt lat="42.582334" lon="-0.429158">
        <ele>1165.0</ele>
        <time>2019-03-26T10:19:09.000Z</time>
      </trkpt>
      <trkpt lat="42.582347" lon="-0.429153">
        <ele>1165.0</ele>
        <time>2019-03-26T10:19:10.000Z</time>
      </trkpt>
      <trkpt lat="42.582359" lon="-0.429149">
        <ele>1165.0</ele>
        <time>2019-03-26T10:19:11.000Z</time>
      </trkpt>
      <trkpt lat="42.582371" lon="-0.429144">
        <ele>1165.0</ele>
        <time>2019-03-26T10:19:12.000Z</time>
      </trkpt>
      <trkpt lat="42.582384" lon="-0.429139">
        <ele>1165.0</ele>
        <time>2019-03-26T10:19:13.000Z</time>
      </trkpt>
      <trkpt lat="42.582396" lon="-0.429134">
        <ele>1165.0</ele>
        <time>2019-03-26T10:19:14.000Z</time>
      </trkpt>
      <trkpt lat="42.582407" lon="-0.429129">
        <ele>1165.0</ele>
        <time>2019-03-26T10:19:15.000Z</time>
      </trkpt>
      <trkpt lat="42.582419" lon="-0.429124">
        <ele>1165.0</ele>
        <time>2019-03-26T10:19:16.000Z</time>
      </trkpt>
      <trkpt lat="42.582431" lon="-0.429118">
        <ele>1165.0</ele>
        <time>2019-03-26T10:19:17.000Z</time>
      </trkpt>
      <trkpt lat="42.582442" lon="-0.429111">
        <ele>1166.0</ele>
        <time>2019-03-26T10:19:18.000Z</time>
      </trkpt>
      <trkpt lat="42.582453" lon="-0.429105">
        <ele>1166.0</ele>
        <time>2019-03-26T10:19:19.000Z</time>
      </trkpt>
      <trkpt lat="42.582465" lon="-0.429097">
        <ele>1166.0</ele>
        <time>2019-03-26T10:19:20.000Z</time>
      </trkpt>
      <trkpt lat="42.582476" lon="-0.42909">
        <ele>1166.0</ele>
        <time>2019-03-26T10:19:21.000Z</time>
      </trkpt>
      <trkpt lat="42.582487" lon="-0.429082">
        <ele>1166.0</ele>
        <time>2019-03-26T10:19:22.000Z</time>
      </trkpt>
      <trkpt lat="42.582499" lon="-0.429075">
        <ele>1166.0</ele>
        <time>2019-03-26T10:19:23.000Z</time>
      </trkpt>
      <trkpt lat="42.58251" lon="-0.429067">
        <ele>1166.0</ele>
        <time>2019-03-26T10:19:24.000Z</time>
      </trkpt>
      <trkpt lat="42.582522" lon="-0.429059">
        <ele>1166.0</ele>
        <time>2019-03-26T10:19:25.000Z</time>
      </trkpt>
      <trkpt lat="42.582533" lon="-0.429051">
        <ele>1167.0</ele>
        <time>2019-03-26T10:19:26.000Z</time>
      </trkpt>
      <trkpt lat="42.582545" lon="-0.429044">
        <ele>1167.0</ele>
        <time>2019-03-26T10:19:27.000Z</time>
      </trkpt>
      <trkpt lat="42.582557" lon="-0.429036">
        <ele>1167.0</ele>
        <time>2019-03-26T10:19:28.000Z</time>
      </trkpt>
      <trkpt lat="42.582569" lon="-0.429029">
        <ele>1167.0</ele>
        <time>2019-03-26T10:19:29.000Z</time>
      </trkpt>
      <trkpt lat="42.582581" lon="-0.429022">
        <ele>1167.0</ele>
        <time>2019-03-26T10:19:30.000Z</time>
      </trkpt>
      <trkpt lat="42.582594" lon="-0.429016">
        <ele>1167.0</ele>
        <time>2019-03-26T10:19:31.000Z</time>
      </trkpt>
      <trkpt lat="42.582607" lon="-0.42901">
        <ele>1167.0</ele>
        <time>2019-03-26T10:19:32.000Z</time>
      </trkpt>
      <trkpt lat="42.58262" lon="-0.429004">
        <ele>1167.0</ele>
        <time>2019-03-26T10:19:33.000Z</time>
      </trkpt>
      <trkpt lat="42.582633" lon="-0.428999">
        <ele>1168.0</ele>
        <time>2019-03-26T10:19:34.000Z</time>
      </trkpt>
      <trkpt lat="42.582646" lon="-0.428994">
        <ele>1168.0</ele>
        <time>2019-03-26T10:19:35.000Z</time>
      </trkpt>
      <trkpt lat="42.582659" lon="-0.42899">
        <ele>1168.0</ele>
        <time>2019-03-26T10:19:36.000Z</time>
      </trkpt>
      <trkpt lat="42.582673" lon="-0.428986">
        <ele>1168.0</ele>
        <time>2019-03-26T10:19:37.000Z</time>
      </trkpt>
      <trkpt lat="42.582686" lon="-0.428982">
        <ele>1168.0</ele>
        <time>2019-03-26T10:19:38.000Z</time>
      </trkpt>
      <trkpt lat="42.5827" lon="-0.428979">
        <ele>1168.0</ele>
        <time>2019-03-26T10:19:39.000Z</time>
      </trkpt>
      <trkpt lat="42.582713" lon="-0.428977">
        <ele>1168.0</ele>
        <time>2019-03-26T10:19:40.000Z</time>
      </trkpt>
      <trkpt lat="42.582726" lon="-0.428975">
        <ele>1168.0</ele>
        <time>2019-03-26T10:19:41.000Z</time>
      </trkpt>
      <trkpt lat="42.58274" lon="-0.428973">
        <ele>1169.0</ele>
        <time>2019-03-26T10:19:42.000Z</time>
      </trkpt>
      <trkpt lat="42.582753" lon="-0.428972">
        <ele>1169.0</ele>
        <time>2019-03-26T10:19:43.000Z</time>
      </trkpt>
      <trkpt lat="42.582765" lon="-0.428971">
        <ele>1169.0</ele>
        <time>2019-03-26T10:19:44.000Z</time>
      </trkpt>
      <trkpt lat="42.582778" lon="-0.428971">
        <ele>1169.0</ele>
        <time>2019-03-26T10:19:45.000Z</time>
      </trkpt>
      <trkpt lat="42.58279" lon="-0.428971">
        <ele>1170.0</ele>
        <time>2019-03-26T10:19:46.000Z</time>
      </trkpt>
      <trkpt lat="42.582802" lon="-0.428972">
        <ele>1170.0</ele>
        <time>2019-03-26T10:19:47.000Z</time>
      </trkpt>
      <trkpt lat="42.582814" lon="-0.428972">
        <ele>1170.0</ele>
        <time>2019-03-26T10:19:48.000Z</time>
      </trkpt>
      <trkpt lat="42.582826" lon="-0.428971">
        <ele>1170.0</ele>
        <time>2019-03-26T10:19:49.000Z</time>
      </trkpt>
      <trkpt lat="42.582837" lon="-0.42897">
        <ele>1170.0</ele>
        <time>2019-03-26T10:19:50.000Z</time>
      </trkpt>
      <trkpt lat="42.582849" lon="-0.428969">
        <ele>1170.0</ele>
        <time>2019-03-26T10:19:51.000Z</time>
      </trkpt>
      <trkpt lat="42.582861" lon="-0.428966">
        <ele>1171.0</ele>
        <time>2019-03-26T10:19:52.000Z</time>
      </trkpt>
      <trkpt lat="42.582873" lon="-0.428963">
        <ele>1171.0</ele>
        <time>2019-03-26T10:19:53.000Z</time>
      </trkpt>
      <trkpt lat="42.582884" lon="-0.428959">
        <ele>1171.0</ele>
        <time>2019-03-26T10:19:54.000Z</time>
      </trkpt>
      <trkpt lat="42.582896" lon="-0.428954">
        <ele>1171.0</ele>
        <time>2019-03-26T10:19:55.000Z</time>
      </trkpt>
      <trkpt lat="42.582908" lon="-0.428948">
        <ele>1171.0</ele>
        <time>2019-03-26T10:19:56.000Z</time>
      </trkpt>
      <trkpt lat="42.58292" lon="-0.428942">
        <ele>1171.0</ele>
        <time>2019-03-26T10:19:57.000Z</time>
      </trkpt>
      <trkpt lat="42.582932" lon="-0.428936">
        <ele>1171.0</ele>
        <time>2019-03-26T10:19:58.000Z</time>
      </trkpt>
      <trkpt lat="42.582943" lon="-0.428929">
        <ele>1172.0</ele>
        <time>2019-03-26T10:19:59.000Z</time>
      </trkpt>
      <trkpt lat="42.582955" lon="-0.428922">
        <ele>1172.0</ele>
        <time>2019-03-26T10:20:00.000Z</time>
      </trkpt>
      <trkpt lat="42.582966" lon="-0.428915">
        <ele>1172.0</ele>
        <time>2019-03-26T10:20:01.000Z</time>
      </trkpt>
      <trkpt lat="42.582977" lon="-0.428909">
        <ele>1172.0</ele>
        <time>2019-03-26T10:20:02.000Z</time>
      </trkpt>
      <trkpt lat="42.582987" lon="-0.428902">
        <ele>1173.0</ele>
        <time>2019-03-26T10:20:03.000Z</time>
      </trkpt>
      <trkpt lat="42.582996" lon="-0.428896">
        <ele>1173.0</ele>
        <time>2019-03-26T10:20:04.000Z</time>
      </trkpt>
      <trkpt lat="42.583005" lon="-0.42889">
        <ele>1173.0</ele>
        <time>2019-03-26T10:20:05.000Z</time>
      </trkpt>
      <trkpt lat="42.583013" lon="-0.428885">
        <ele>1173.0</ele>
        <time>2019-03-26T10:20:06.000Z</time>
      </trkpt>
      <trkpt lat="42.58302" lon="-0.428881">
        <ele>1173.0</ele>
        <time>2019-03-26T10:20:07.000Z</time>
      </trkpt>
      <trkpt lat="42.583027" lon="-0.428877">
        <ele>1173.0</ele>
        <time>2019-03-26T10:20:08.000Z</time>
      </trkpt>
      <trkpt lat="42.583035" lon="-0.428872">
        <ele>1174.0</ele>
        <time>2019-03-26T10:20:09.000Z</time>
      </trkpt>
      <trkpt lat="42.583044" lon="-0.428868">
        <ele>1174.0</ele>
        <time>2019-03-26T10:20:10.000Z</time>
      </trkpt>
      <trkpt lat="42.583054" lon="-0.428863">
        <ele>1174.0</ele>
        <time>2019-03-26T10:20:11.000Z</time>
      </trkpt>
      <trkpt lat="42.583064" lon="-0.428858">
        <ele>1174.0</ele>
        <time>2019-03-26T10:20:12.000Z</time>
      </trkpt>
      <trkpt lat="42.583075" lon="-0.428853">
        <ele>1174.0</ele>
        <time>2019-03-26T10:20:13.000Z</time>
      </trkpt>
      <trkpt lat="42.583087" lon="-0.428848">
        <ele>1174.0</ele>
        <time>2019-03-26T10:20:14.000Z</time>
      </trkpt>
      <trkpt lat="42.583099" lon="-0.428843">
        <ele>1174.0</ele>
        <time>2019-03-26T10:20:15.000Z</time>
      </trkpt>
      <trkpt lat="42.583112" lon="-0.428838">
        <ele>1175.0</ele>
        <time>2019-03-26T10:20:16.000Z</time>
      </trkpt>
      <trkpt lat="42.583125" lon="-0.428833">
        <ele>1175.0</ele>
        <time>2019-03-26T10:20:17.000Z</time>
      </trkpt>
      <trkpt lat="42.583139" lon="-0.428829">
        <ele>1175.0</ele>
        <time>2019-03-26T10:20:18.000Z</time>
      </trkpt>
      <trkpt lat="42.583153" lon="-0.428827">
        <ele>1175.0</ele>
        <time>2019-03-26T10:20:19.000Z</time>
      </trkpt>
      <trkpt lat="42.583168" lon="-0.428825">
        <ele>1175.0</ele>
        <time>2019-03-26T10:20:20.000Z</time>
      </trkpt>
      <trkpt lat="42.583183" lon="-0.428824">
        <ele>1175.0</ele>
        <time>2019-03-26T10:20:21.000Z</time>
      </trkpt>
      <trkpt lat="42.583197" lon="-0.428825">
        <ele>1175.0</ele>
        <time>2019-03-26T10:20:22.000Z</time>
      </trkpt>
      <trkpt lat="42.583211" lon="-0.428825">
        <ele>1175.0</ele>
        <time>2019-03-26T10:20:23.000Z</time>
      </trkpt>
      <trkpt lat="42.583223" lon="-0.428826">
        <ele>1175.0</ele>
        <time>2019-03-26T10:20:24.000Z</time>
      </trkpt>
      <trkpt lat="42.583232" lon="-0.428827">
        <ele>1176.0</ele>
        <time>2019-03-26T10:20:25.000Z</time>
      </trkpt>
      <trkpt lat="42.58324" lon="-0.428828">
        <ele>1176.0</ele>
        <time>2019-03-26T10:20:26.000Z</time>
      </trkpt>
      <trkpt lat="42.583245" lon="-0.428829">
        <ele>1176.0</ele>
        <time>2019-03-26T10:20:27.000Z</time>
      </trkpt>
      <trkpt lat="42.583247" lon="-0.428829">
        <ele>1176.0</ele>
        <time>2019-03-26T10:20:28.000Z</time>
      </trkpt>
      <trkpt lat="42.583248" lon="-0.42883">
        <ele>1176.0</ele>
        <time>2019-03-26T10:20:29.000Z</time>
      </trkpt>
      <trkpt lat="42.583248" lon="-0.42883">
        <ele>1176.0</ele>
        <time>2019-03-26T10:20:30.000Z</time>
      </trkpt>
      <trkpt lat="42.583248" lon="-0.42883">
        <ele>1177.0</ele>
        <time>2019-03-26T10:20:31.000Z</time>
      </trkpt>
      <trkpt lat="42.583251" lon="-0.42883">
        <ele>1177.0</ele>
        <time>2019-03-26T10:20:32.000Z</time>
      </trkpt>
      <trkpt lat="42.583259" lon="-0.428829">
        <ele>1177.0</ele>
        <time>2019-03-26T10:20:33.000Z</time>
      </trkpt>
      <trkpt lat="42.583274" lon="-0.428829">
        <ele>1177.0</ele>
        <time>2019-03-26T10:20:34.000Z</time>
      </trkpt>
      <trkpt lat="42.583298" lon="-0.42883">
        <ele>1177.0</ele>
        <time>2019-03-26T10:20:35.000Z</time>
      </trkpt>
      <trkpt lat="42.583327" lon="-0.428831">
        <ele>1177.0</ele>
        <time>2019-03-26T10:20:36.000Z</time>
      </trkpt>
      <trkpt lat="42.583349" lon="-0.428832">
        <ele>1177.0</ele>
        <time>2019-03-26T10:20:37.000Z</time>
      </trkpt>
      <trkpt lat="42.583367" lon="-0.428834">
        <ele>1177.0</ele>
        <time>2019-03-26T10:20:38.000Z</time>
      </trkpt>
      <trkpt lat="42.583385" lon="-0.428835">
        <ele>1177.0</ele>
        <time>2019-03-26T10:20:39.000Z</time>
      </trkpt>
      <trkpt lat="42.583396" lon="-0.428836">
        <ele>1178.0</ele>
        <time>2019-03-26T10:20:40.000Z</time>
      </trkpt>
      <trkpt lat="42.583401" lon="-0.428836">
        <ele>1178.0</ele>
        <time>2019-03-26T10:20:41.000Z</time>
      </trkpt>
      <trkpt lat="42.583404" lon="-0.428836">
        <ele>1178.0</ele>
        <time>2019-03-26T10:20:42.000Z</time>
      </trkpt>
      <trkpt lat="42.583412" lon="-0.428835">
        <ele>1178.0</ele>
        <time>2019-03-26T10:20:43.000Z</time>
      </trkpt>
      <trkpt lat="42.583427" lon="-0.428834">
        <ele>1178.0</ele>
        <time>2019-03-26T10:20:44.000Z</time>
      </trkpt>
      <trkpt lat="42.583448" lon="-0.428833">
        <ele>1178.0</ele>
        <time>2019-03-26T10:20:45.000Z</time>
      </trkpt>
      <trkpt lat="42.583469" lon="-0.428832">
        <ele>1178.0</ele>
        <time>2019-03-26T10:20:46.000Z</time>
      </trkpt>
      <trkpt lat="42.583489" lon="-0.428834">
        <ele>1178.0</ele>
        <time>2019-03-26T10:20:47.000Z</time>
      </trkpt>
      <trkpt lat="42.583506" lon="-0.428837">
        <ele>1178.0</ele>
        <time>2019-03-26T10:20:48.000Z</time>
      </trkpt>
      <trkpt lat="42.583521" lon="-0.428842">
        <ele>1179.0</ele>
        <time>2019-03-26T10:20:49.000Z</time>
      </trkpt>
      <trkpt lat="42.583534" lon="-0.428848">
        <ele>1179.0</ele>
        <time>2019-03-26T10:20:50.000Z</time>
      </trkpt>
      <trkpt lat="42.583546" lon="-0.428856">
        <ele>1179.0</ele>
        <time>2019-03-26T10:20:51.000Z</time>
      </trkpt>
      <trkpt lat="42.583558" lon="-0.428864">
        <ele>1179.0</ele>
        <time>2019-03-26T10:20:52.000Z</time>
      </trkpt>
      <trkpt lat="42.583568" lon="-0.428874">
        <ele>1179.0</ele>
        <time>2019-03-26T10:20:53.000Z</time>
      </trkpt>
      <trkpt lat="42.583579" lon="-0.428884">
        <ele>1179.0</ele>
        <time>2019-03-26T10:20:54.000Z</time>
      </trkpt>
      <trkpt lat="42.583589" lon="-0.428894">
        <ele>1179.0</ele>
        <time>2019-03-26T10:20:55.000Z</time>
      </trkpt>
      <trkpt lat="42.583598" lon="-0.428905">
        <ele>1180.0</ele>
        <time>2019-03-26T10:20:56.000Z</time>
      </trkpt>
      <trkpt lat="42.583606" lon="-0.428914">
        <ele>1180.0</ele>
        <time>2019-03-26T10:20:57.000Z</time>
      </trkpt>
      <trkpt lat="42.583612" lon="-0.428921">
        <ele>1180.0</ele>
        <time>2019-03-26T10:20:58.000Z</time>
      </trkpt>
      <trkpt lat="42.583617" lon="-0.428927">
        <ele>1180.0</ele>
        <time>2019-03-26T10:20:59.000Z</time>
      </trkpt>
      <trkpt lat="42.583619" lon="-0.428929">
        <ele>1180.0</ele>
        <time>2019-03-26T10:21:00.000Z</time>
      </trkpt>
      <trkpt lat="42.583619" lon="-0.428929">
        <ele>1180.0</ele>
        <time>2019-03-26T10:21:01.000Z</time>
      </trkpt>
      <trkpt lat="42.583619" lon="-0.42893">
        <ele>1180.0</ele>
        <time>2019-03-26T10:21:02.000Z</time>
      </trkpt>
      <trkpt lat="42.583622" lon="-0.428937">
        <ele>1180.0</ele>
        <time>2019-03-26T10:21:03.000Z</time>
      </trkpt>
      <trkpt lat="42.583629" lon="-0.428958">
        <ele>1181.0</ele>
        <time>2019-03-26T10:21:04.000Z</time>
      </trkpt>
      <trkpt lat="42.583638" lon="-0.428978">
        <ele>1181.0</ele>
        <time>2019-03-26T10:21:05.000Z</time>
      </trkpt>
      <trkpt lat="42.583647" lon="-0.428994">
        <ele>1181.0</ele>
        <time>2019-03-26T10:21:06.000Z</time>
      </trkpt>
      <trkpt lat="42.583658" lon="-0.429007">
        <ele>1181.0</ele>
        <time>2019-03-26T10:21:07.000Z</time>
      </trkpt>
      <trkpt lat="42.58367" lon="-0.429019">
        <ele>1181.0</ele>
        <time>2019-03-26T10:21:08.000Z</time>
      </trkpt>
      <trkpt lat="42.583682" lon="-0.42903">
        <ele>1181.0</ele>
        <time>2019-03-26T10:21:09.000Z</time>
      </trkpt>
      <trkpt lat="42.583694" lon="-0.42904">
        <ele>1181.0</ele>
        <time>2019-03-26T10:21:10.000Z</time>
      </trkpt>
      <trkpt lat="42.583706" lon="-0.429049">
        <ele>1181.0</ele>
        <time>2019-03-26T10:21:11.000Z</time>
      </trkpt>
      <trkpt lat="42.583716" lon="-0.429055">
        <ele>1181.0</ele>
        <time>2019-03-26T10:21:12.000Z</time>
      </trkpt>
      <trkpt lat="42.583723" lon="-0.429061">
        <ele>1182.0</ele>
        <time>2019-03-26T10:21:13.000Z</time>
      </trkpt>
      <trkpt lat="42.583728" lon="-0.429064">
        <ele>1182.0</ele>
        <time>2019-03-26T10:21:14.000Z</time>
      </trkpt>
      <trkpt lat="42.58373" lon="-0.429065">
        <ele>1182.0</ele>
        <time>2019-03-26T10:21:15.000Z</time>
      </trkpt>
      <trkpt lat="42.583731" lon="-0.429066">
        <ele>1182.0</ele>
        <time>2019-03-26T10:21:16.000Z</time>
      </trkpt>
      <trkpt lat="42.583735" lon="-0.429068">
        <ele>1182.0</ele>
        <time>2019-03-26T10:21:17.000Z</time>
      </trkpt>
      <trkpt lat="42.583749" lon="-0.429077">
        <ele>1182.0</ele>
        <time>2019-03-26T10:21:18.000Z</time>
      </trkpt>
      <trkpt lat="42.583773" lon="-0.429092">
        <ele>1182.0</ele>
        <time>2019-03-26T10:21:19.000Z</time>
      </trkpt>
      <trkpt lat="42.58379" lon="-0.429101">
        <ele>1182.0</ele>
        <time>2019-03-26T10:21:20.000Z</time>
      </trkpt>
      <trkpt lat="42.583805" lon="-0.429111">
        <ele>1182.0</ele>
        <time>2019-03-26T10:21:21.000Z</time>
      </trkpt>
      <trkpt lat="42.583816" lon="-0.429119">
        <ele>1182.0</ele>
        <time>2019-03-26T10:21:22.000Z</time>
      </trkpt>
      <trkpt lat="42.583823" lon="-0.429125">
        <ele>1183.0</ele>
        <time>2019-03-26T10:21:23.000Z</time>
      </trkpt>
      <trkpt lat="42.583826" lon="-0.429128">
        <ele>1183.0</ele>
        <time>2019-03-26T10:21:24.000Z</time>
      </trkpt>
      <trkpt lat="42.583828" lon="-0.429129">
        <ele>1183.0</ele>
        <time>2019-03-26T10:21:25.000Z</time>
      </trkpt>
      <trkpt lat="42.583828" lon="-0.429129">
        <ele>1183.0</ele>
        <time>2019-03-26T10:21:26.000Z</time>
      </trkpt>
      <trkpt lat="42.583828" lon="-0.429129">
        <ele>1183.0</ele>
        <time>2019-03-26T10:21:27.000Z</time>
      </trkpt>
      <trkpt lat="42.583829" lon="-0.42913">
        <ele>1183.0</ele>
        <time>2019-03-26T10:21:28.000Z</time>
      </trkpt>
      <trkpt lat="42.583833" lon="-0.429133">
        <ele>1183.0</ele>
        <time>2019-03-26T10:21:29.000Z</time>
      </trkpt>
      <trkpt lat="42.58384" lon="-0.42914">
        <ele>1183.0</ele>
        <time>2019-03-26T10:21:30.000Z</time>
      </trkpt>
      <trkpt lat="42.583858" lon="-0.429159">
        <ele>1184.0</ele>
        <time>2019-03-26T10:21:31.000Z</time>
      </trkpt>
      <trkpt lat="42.583878" lon="-0.429179">
        <ele>1184.0</ele>
        <time>2019-03-26T10:21:32.000Z</time>
      </trkpt>
      <trkpt lat="42.583892" lon="-0.429195">
        <ele>1184.0</ele>
        <time>2019-03-26T10:21:33.000Z</time>
      </trkpt>
      <trkpt lat="42.583899" lon="-0.429209">
        <ele>1184.0</ele>
        <time>2019-03-26T10:21:34.000Z</time>
      </trkpt>
      <trkpt lat="42.583911" lon="-0.429224">
        <ele>1184.0</ele>
        <time>2019-03-26T10:21:35.000Z</time>
      </trkpt>
      <trkpt lat="42.583928" lon="-0.429239">
        <ele>1184.0</ele>
        <time>2019-03-26T10:21:36.000Z</time>
      </trkpt>
      <trkpt lat="42.583948" lon="-0.429256">
        <ele>1185.0</ele>
        <time>2019-03-26T10:21:37.000Z</time>
      </trkpt>
      <trkpt lat="42.583971" lon="-0.429274">
        <ele>1185.0</ele>
        <time>2019-03-26T10:21:38.000Z</time>
      </trkpt>
      <trkpt lat="42.583993" lon="-0.429293">
        <ele>1185.0</ele>
        <time>2019-03-26T10:21:39.000Z</time>
      </trkpt>
      <trkpt lat="42.584014" lon="-0.429313">
        <ele>1185.0</ele>
        <time>2019-03-26T10:21:40.000Z</time>
      </trkpt>
      <trkpt lat="42.584032" lon="-0.429333">
        <ele>1185.0</ele>
        <time>2019-03-26T10:21:41.000Z</time>
      </trkpt>
      <trkpt lat="42.584045" lon="-0.429354">
        <ele>1185.0</ele>
        <time>2019-03-26T10:21:42.000Z</time>
      </trkpt>
      <trkpt lat="42.584053" lon="-0.429376">
        <ele>1185.0</ele>
        <time>2019-03-26T10:21:43.000Z</time>
      </trkpt>
      <trkpt lat="42.584058" lon="-0.429398">
        <ele>1185.0</ele>
        <time>2019-03-26T10:21:44.000Z</time>
      </trkpt>
      <trkpt lat="42.58406" lon="-0.429421">
        <ele>1185.0</ele>
        <time>2019-03-26T10:21:45.000Z</time>
      </trkpt>
      <trkpt lat="42.58406" lon="-0.429444">
        <ele>1185.0</ele>
        <time>2019-03-26T10:21:46.000Z</time>
      </trkpt>
      <trkpt lat="42.584059" lon="-0.429467">
        <ele>1185.0</ele>
        <time>2019-03-26T10:21:47.000Z</time>
      </trkpt>
      <trkpt lat="42.584057" lon="-0.42949">
        <ele>1185.0</ele>
        <time>2019-03-26T10:21:48.000Z</time>
      </trkpt>
      <trkpt lat="42.584055" lon="-0.429513">
        <ele>1185.0</ele>
        <time>2019-03-26T10:21:49.000Z</time>
      </trkpt>
      <trkpt lat="42.584053" lon="-0.429536">
        <ele>1185.0</ele>
        <time>2019-03-26T10:21:50.000Z</time>
      </trkpt>
      <trkpt lat="42.584051" lon="-0.429558">
        <ele>1185.0</ele>
        <time>2019-03-26T10:21:51.000Z</time>
      </trkpt>
      <trkpt lat="42.58405" lon="-0.429581">
        <ele>1185.0</ele>
        <time>2019-03-26T10:21:52.000Z</time>
      </trkpt>
      <trkpt lat="42.584049" lon="-0.429603">
        <ele>1185.0</ele>
        <time>2019-03-26T10:21:53.000Z</time>
      </trkpt>
      <trkpt lat="42.584048" lon="-0.429626">
        <ele>1185.0</ele>
        <time>2019-03-26T10:21:54.000Z</time>
      </trkpt>
      <trkpt lat="42.584047" lon="-0.429648">
        <ele>1186.0</ele>
        <time>2019-03-26T10:21:55.000Z</time>
      </trkpt>
      <trkpt lat="42.584046" lon="-0.42967">
        <ele>1186.0</ele>
        <time>2019-03-26T10:21:56.000Z</time>
      </trkpt>
      <trkpt lat="42.584046" lon="-0.429692">
        <ele>1186.0</ele>
        <time>2019-03-26T10:21:57.000Z</time>
      </trkpt>
      <trkpt lat="42.584046" lon="-0.429713">
        <ele>1186.0</ele>
        <time>2019-03-26T10:21:58.000Z</time>
      </trkpt>
      <trkpt lat="42.584046" lon="-0.429735">
        <ele>1186.0</ele>
        <time>2019-03-26T10:21:59.000Z</time>
      </trkpt>
      <trkpt lat="42.584046" lon="-0.429756">
        <ele>1186.0</ele>
        <time>2019-03-26T10:22:00.000Z</time>
      </trkpt>
      <trkpt lat="42.584047" lon="-0.429777">
        <ele>1186.0</ele>
        <time>2019-03-26T10:22:01.000Z</time>
      </trkpt>
      <trkpt lat="42.584048" lon="-0.429798">
        <ele>1186.0</ele>
        <time>2019-03-26T10:22:02.000Z</time>
      </trkpt>
      <trkpt lat="42.58405" lon="-0.429819">
        <ele>1186.0</ele>
        <time>2019-03-26T10:22:03.000Z</time>
      </trkpt>
      <trkpt lat="42.584051" lon="-0.429839">
        <ele>1186.0</ele>
        <time>2019-03-26T10:22:04.000Z</time>
      </trkpt>
      <trkpt lat="42.584053" lon="-0.429859">
        <ele>1186.0</ele>
        <time>2019-03-26T10:22:05.000Z</time>
      </trkpt>
      <trkpt lat="42.584056" lon="-0.42988">
        <ele>1186.0</ele>
        <time>2019-03-26T10:22:06.000Z</time>
      </trkpt>
      <trkpt lat="42.584058" lon="-0.4299">
        <ele>1186.0</ele>
        <time>2019-03-26T10:22:07.000Z</time>
      </trkpt>
      <trkpt lat="42.58406" lon="-0.42992">
        <ele>1186.0</ele>
        <time>2019-03-26T10:22:08.000Z</time>
      </trkpt>
      <trkpt lat="42.584063" lon="-0.429939">
        <ele>1186.0</ele>
        <time>2019-03-26T10:22:09.000Z</time>
      </trkpt>
      <trkpt lat="42.584065" lon="-0.429959">
        <ele>1186.0</ele>
        <time>2019-03-26T10:22:10.000Z</time>
      </trkpt>
      <trkpt lat="42.584067" lon="-0.429979">
        <ele>1186.0</ele>
        <time>2019-03-26T10:22:11.000Z</time>
      </trkpt>
      <trkpt lat="42.58407" lon="-0.429999">
        <ele>1186.0</ele>
        <time>2019-03-26T10:22:12.000Z</time>
      </trkpt>
      <trkpt lat="42.584072" lon="-0.430019">
        <ele>1186.0</ele>
        <time>2019-03-26T10:22:13.000Z</time>
      </trkpt>
      <trkpt lat="42.584074" lon="-0.430039">
        <ele>1186.0</ele>
        <time>2019-03-26T10:22:14.000Z</time>
      </trkpt>
      <trkpt lat="42.584076" lon="-0.430058">
        <ele>1186.0</ele>
        <time>2019-03-26T10:22:15.000Z</time>
      </trkpt>
      <trkpt lat="42.584078" lon="-0.430078">
        <ele>1186.0</ele>
        <time>2019-03-26T10:22:16.000Z</time>
      </trkpt>
      <trkpt lat="42.584079" lon="-0.430099">
        <ele>1187.0</ele>
        <time>2019-03-26T10:22:17.000Z</time>
      </trkpt>
      <trkpt lat="42.58408" lon="-0.430119">
        <ele>1187.0</ele>
        <time>2019-03-26T10:22:18.000Z</time>
      </trkpt>
      <trkpt lat="42.584081" lon="-0.430139">
        <ele>1187.0</ele>
        <time>2019-03-26T10:22:19.000Z</time>
      </trkpt>
      <trkpt lat="42.584082" lon="-0.43016">
        <ele>1187.0</ele>
        <time>2019-03-26T10:22:20.000Z</time>
      </trkpt>
      <trkpt lat="42.584083" lon="-0.43018">
        <ele>1187.0</ele>
        <time>2019-03-26T10:22:21.000Z</time>
      </trkpt>
      <trkpt lat="42.584083" lon="-0.430201">
        <ele>1187.0</ele>
        <time>2019-03-26T10:22:22.000Z</time>
      </trkpt>
      <trkpt lat="42.584084" lon="-0.430221">
        <ele>1187.0</ele>
        <time>2019-03-26T10:22:23.000Z</time>
      </trkpt>
      <trkpt lat="42.584084" lon="-0.430242">
        <ele>1187.0</ele>
        <time>2019-03-26T10:22:24.000Z</time>
      </trkpt>
      <trkpt lat="42.584085" lon="-0.430262">
        <ele>1187.0</ele>
        <time>2019-03-26T10:22:25.000Z</time>
      </trkpt>
      <trkpt lat="42.584085" lon="-0.430283">
        <ele>1187.0</ele>
        <time>2019-03-26T10:22:26.000Z</time>
      </trkpt>
      <trkpt lat="42.584086" lon="-0.430304">
        <ele>1188.0</ele>
        <time>2019-03-26T10:22:27.000Z</time>
      </trkpt>
      <trkpt lat="42.584087" lon="-0.430324">
        <ele>1188.0</ele>
        <time>2019-03-26T10:22:28.000Z</time>
      </trkpt>
      <trkpt lat="42.584087" lon="-0.430345">
        <ele>1188.0</ele>
        <time>2019-03-26T10:22:29.000Z</time>
      </trkpt>
      <trkpt lat="42.584088" lon="-0.430365">
        <ele>1188.0</ele>
        <time>2019-03-26T10:22:30.000Z</time>
      </trkpt>
      <trkpt lat="42.584089" lon="-0.430386">
        <ele>1188.0</ele>
        <time>2019-03-26T10:22:31.000Z</time>
      </trkpt>
      <trkpt lat="42.584091" lon="-0.430406">
        <ele>1188.0</ele>
        <time>2019-03-26T10:22:32.000Z</time>
      </trkpt>
      <trkpt lat="42.584092" lon="-0.430426">
        <ele>1188.0</ele>
        <time>2019-03-26T10:22:33.000Z</time>
      </trkpt>
      <trkpt lat="42.584093" lon="-0.430446">
        <ele>1188.0</ele>
        <time>2019-03-26T10:22:34.000Z</time>
      </trkpt>
      <trkpt lat="42.584095" lon="-0.430465">
        <ele>1188.0</ele>
        <time>2019-03-26T10:22:35.000Z</time>
      </trkpt>
      <trkpt lat="42.584096" lon="-0.430484">
        <ele>1188.0</ele>
        <time>2019-03-26T10:22:36.000Z</time>
      </trkpt>
      <trkpt lat="42.584098" lon="-0.430502">
        <ele>1188.0</ele>
        <time>2019-03-26T10:22:37.000Z</time>
      </trkpt>
      <trkpt lat="42.584099" lon="-0.43052">
        <ele>1188.0</ele>
        <time>2019-03-26T10:22:38.000Z</time>
      </trkpt>
      <trkpt lat="42.5841" lon="-0.430538">
        <ele>1188.0</ele>
        <time>2019-03-26T10:22:39.000Z</time>
      </trkpt>
      <trkpt lat="42.584101" lon="-0.430557">
        <ele>1188.0</ele>
        <time>2019-03-26T10:22:40.000Z</time>
      </trkpt>
      <trkpt lat="42.584101" lon="-0.430578">
        <ele>1188.0</ele>
        <time>2019-03-26T10:22:41.000Z</time>
      </trkpt>
      <trkpt lat="42.5841" lon="-0.4306">
        <ele>1188.0</ele>
        <time>2019-03-26T10:22:42.000Z</time>
      </trkpt>
      <trkpt lat="42.584099" lon="-0.430624">
        <ele>1188.0</ele>
        <time>2019-03-26T10:22:43.000Z</time>
      </trkpt>
      <trkpt lat="42.584098" lon="-0.430651">
        <ele>1188.0</ele>
        <time>2019-03-26T10:22:44.000Z</time>
      </trkpt>
      <trkpt lat="42.584097" lon="-0.430678">
        <ele>1189.0</ele>
        <time>2019-03-26T10:22:45.000Z</time>
      </trkpt>
      <trkpt lat="42.584099" lon="-0.430702">
        <ele>1189.0</ele>
        <time>2019-03-26T10:22:46.000Z</time>
      </trkpt>
      <trkpt lat="42.584104" lon="-0.430723">
        <ele>1189.0</ele>
        <time>2019-03-26T10:22:47.000Z</time>
      </trkpt>
      <trkpt lat="42.584114" lon="-0.430737">
        <ele>1189.0</ele>
        <time>2019-03-26T10:22:48.000Z</time>
      </trkpt>
      <trkpt lat="42.584126" lon="-0.430748">
        <ele>1189.0</ele>
        <time>2019-03-26T10:22:49.000Z</time>
      </trkpt>
      <trkpt lat="42.584139" lon="-0.430759">
        <ele>1189.0</ele>
        <time>2019-03-26T10:22:50.000Z</time>
      </trkpt>
      <trkpt lat="42.58415" lon="-0.430771">
        <ele>1189.0</ele>
        <time>2019-03-26T10:22:51.000Z</time>
      </trkpt>
      <trkpt lat="42.584158" lon="-0.430786">
        <ele>1189.0</ele>
        <time>2019-03-26T10:22:52.000Z</time>
      </trkpt>
      <trkpt lat="42.584165" lon="-0.430802">
        <ele>1189.0</ele>
        <time>2019-03-26T10:22:53.000Z</time>
      </trkpt>
      <trkpt lat="42.584171" lon="-0.430819">
        <ele>1189.0</ele>
        <time>2019-03-26T10:22:54.000Z</time>
      </trkpt>
      <trkpt lat="42.584175" lon="-0.430836">
        <ele>1189.0</ele>
        <time>2019-03-26T10:22:55.000Z</time>
      </trkpt>
      <trkpt lat="42.584178" lon="-0.430853">
        <ele>1189.0</ele>
        <time>2019-03-26T10:22:56.000Z</time>
      </trkpt>
      <trkpt lat="42.584181" lon="-0.43087">
        <ele>1189.0</ele>
        <time>2019-03-26T10:22:57.000Z</time>
      </trkpt>
      <trkpt lat="42.584182" lon="-0.430887">
        <ele>1190.0</ele>
        <time>2019-03-26T10:22:58.000Z</time>
      </trkpt>
      <trkpt lat="42.584182" lon="-0.430905">
        <ele>1190.0</ele>
        <time>2019-03-26T10:22:59.000Z</time>
      </trkpt>
      <trkpt lat="42.584181" lon="-0.430922">
        <ele>1190.0</ele>
        <time>2019-03-26T10:23:00.000Z</time>
      </trkpt>
      <trkpt lat="42.584181" lon="-0.43094">
        <ele>1190.0</ele>
        <time>2019-03-26T10:23:01.000Z</time>
      </trkpt>
      <trkpt lat="42.584181" lon="-0.430956">
        <ele>1190.0</ele>
        <time>2019-03-26T10:23:02.000Z</time>
      </trkpt>
      <trkpt lat="42.584182" lon="-0.430972">
        <ele>1190.0</ele>
        <time>2019-03-26T10:23:03.000Z</time>
      </trkpt>
      <trkpt lat="42.584185" lon="-0.430986">
        <ele>1190.0</ele>
        <time>2019-03-26T10:23:04.000Z</time>
      </trkpt>
      <trkpt lat="42.584189" lon="-0.430999">
        <ele>1190.0</ele>
        <time>2019-03-26T10:23:05.000Z</time>
      </trkpt>
      <trkpt lat="42.584194" lon="-0.43101">
        <ele>1190.0</ele>
        <time>2019-03-26T10:23:06.000Z</time>
      </trkpt>
      <trkpt lat="42.5842" lon="-0.431019">
        <ele>1190.0</ele>
        <time>2019-03-26T10:23:07.000Z</time>
      </trkpt>
      <trkpt lat="42.584207" lon="-0.431026">
        <ele>1191.0</ele>
        <time>2019-03-26T10:23:08.000Z</time>
      </trkpt>
      <trkpt lat="42.584213" lon="-0.43103">
        <ele>1191.0</ele>
        <time>2019-03-26T10:23:09.000Z</time>
      </trkpt>
      <trkpt lat="42.584219" lon="-0.431032">
        <ele>1191.0</ele>
        <time>2019-03-26T10:23:10.000Z</time>
      </trkpt>
      <trkpt lat="42.584223" lon="-0.43103">
        <ele>1191.0</ele>
        <time>2019-03-26T10:23:11.000Z</time>
      </trkpt>
      <trkpt lat="42.584226" lon="-0.431025">
        <ele>1191.0</ele>
        <time>2019-03-26T10:23:12.000Z</time>
      </trkpt>
      <trkpt lat="42.584228" lon="-0.431019">
        <ele>1191.0</ele>
        <time>2019-03-26T10:23:13.000Z</time>
      </trkpt>
      <trkpt lat="42.584228" lon="-0.431012">
        <ele>1191.0</ele>
        <time>2019-03-26T10:23:14.000Z</time>
      </trkpt>
      <trkpt lat="42.584228" lon="-0.431008">
        <ele>1192.0</ele>
        <time>2019-03-26T10:23:15.000Z</time>
      </trkpt>
      <trkpt lat="42.584228" lon="-0.431006">
        <ele>1192.0</ele>
        <time>2019-03-26T10:23:16.000Z</time>
      </trkpt>
      <trkpt lat="42.584228" lon="-0.431006">
        <ele>1192.0</ele>
        <time>2019-03-26T10:23:17.000Z</time>
      </trkpt>
      <trkpt lat="42.584228" lon="-0.431006">
        <ele>1192.0</ele>
        <time>2019-03-26T10:23:18.000Z</time>
      </trkpt>
      <trkpt lat="42.584228" lon="-0.431005">
        <ele>1192.0</ele>
        <time>2019-03-26T10:23:19.000Z</time>
      </trkpt>
      <trkpt lat="42.584227" lon="-0.431005">
        <ele>1192.0</ele>
        <time>2019-03-26T10:23:20.000Z</time>
      </trkpt>
      <trkpt lat="42.584227" lon="-0.431004">
        <ele>1193.0</ele>
        <time>2019-03-26T10:23:21.000Z</time>
      </trkpt>
      <trkpt lat="42.584234" lon="-0.430994">
        <ele>1193.0</ele>
        <time>2019-03-26T10:23:22.000Z</time>
      </trkpt>
      <trkpt lat="42.584238" lon="-0.430978">
        <ele>1193.0</ele>
        <time>2019-03-26T10:23:23.000Z</time>
      </trkpt>
      <trkpt lat="42.584239" lon="-0.430967">
        <ele>1193.0</ele>
        <time>2019-03-26T10:23:24.000Z</time>
      </trkpt>
      <trkpt lat="42.584239" lon="-0.430961">
        <ele>1193.0</ele>
        <time>2019-03-26T10:23:25.000Z</time>
      </trkpt>
      <trkpt lat="42.584239" lon="-0.430957">
        <ele>1193.0</ele>
        <time>2019-03-26T10:23:26.000Z</time>
      </trkpt>
      <trkpt lat="42.58424" lon="-0.430953">
        <ele>1194.0</ele>
        <time>2019-03-26T10:23:27.000Z</time>
      </trkpt>
      <trkpt lat="42.58424" lon="-0.430949">
        <ele>1194.0</ele>
        <time>2019-03-26T10:23:28.000Z</time>
      </trkpt>
      <trkpt lat="42.584242" lon="-0.430936">
        <ele>1194.0</ele>
        <time>2019-03-26T10:23:29.000Z</time>
      </trkpt>
      <trkpt lat="42.584244" lon="-0.430901">
        <ele>1194.0</ele>
        <time>2019-03-26T10:23:30.000Z</time>
      </trkpt>
      <trkpt lat="42.584243" lon="-0.430873">
        <ele>1194.0</ele>
        <time>2019-03-26T10:23:31.000Z</time>
      </trkpt>
      <trkpt lat="42.584242" lon="-0.430851">
        <ele>1194.0</ele>
        <time>2019-03-26T10:23:32.000Z</time>
      </trkpt>
      <trkpt lat="42.584242" lon="-0.430835">
        <ele>1194.0</ele>
        <time>2019-03-26T10:23:33.000Z</time>
      </trkpt>
      <trkpt lat="42.584242" lon="-0.430823">
        <ele>1194.0</ele>
        <time>2019-03-26T10:23:34.000Z</time>
      </trkpt>
      <trkpt lat="42.584243" lon="-0.430818">
        <ele>1195.0</ele>
        <time>2019-03-26T10:23:35.000Z</time>
      </trkpt>
      <trkpt lat="42.584244" lon="-0.430816">
        <ele>1195.0</ele>
        <time>2019-03-26T10:23:36.000Z</time>
      </trkpt>
      <trkpt lat="42.584245" lon="-0.430811">
        <ele>1195.0</ele>
        <time>2019-03-26T10:23:37.000Z</time>
      </trkpt>
      <trkpt lat="42.584249" lon="-0.430794">
        <ele>1195.0</ele>
        <time>2019-03-26T10:23:38.000Z</time>
      </trkpt>
      <trkpt lat="42.584256" lon="-0.430761">
        <ele>1195.0</ele>
        <time>2019-03-26T10:23:39.000Z</time>
      </trkpt>
      <trkpt lat="42.584263" lon="-0.430724">
        <ele>1195.0</ele>
        <time>2019-03-26T10:23:40.000Z</time>
      </trkpt>
      <trkpt lat="42.584268" lon="-0.430697">
        <ele>1195.0</ele>
        <time>2019-03-26T10:23:41.000Z</time>
      </trkpt>
      <trkpt lat="42.584271" lon="-0.43068">
        <ele>1195.0</ele>
        <time>2019-03-26T10:23:42.000Z</time>
      </trkpt>
      <trkpt lat="42.584273" lon="-0.43067">
        <ele>1195.0</ele>
        <time>2019-03-26T10:23:43.000Z</time>
      </trkpt>
      <trkpt lat="42.584274" lon="-0.430665">
        <ele>1195.0</ele>
        <time>2019-03-26T10:23:44.000Z</time>
      </trkpt>
      <trkpt lat="42.584275" lon="-0.430663">
        <ele>1196.0</ele>
        <time>2019-03-26T10:23:45.000Z</time>
      </trkpt>
      <trkpt lat="42.584275" lon="-0.430663">
        <ele>1196.0</ele>
        <time>2019-03-26T10:23:46.000Z</time>
      </trkpt>
      <trkpt lat="42.584275" lon="-0.430663">
        <ele>1196.0</ele>
        <time>2019-03-26T10:23:47.000Z</time>
      </trkpt>
      <trkpt lat="42.584276" lon="-0.430661">
        <ele>1196.0</ele>
        <time>2019-03-26T10:23:48.000Z</time>
      </trkpt>
      <trkpt lat="42.584276" lon="-0.430659">
        <ele>1196.0</ele>
        <time>2019-03-26T10:23:49.000Z</time>
      </trkpt>
      <trkpt lat="42.584285" lon="-0.430633">
        <ele>1196.0</ele>
        <time>2019-03-26T10:23:50.000Z</time>
      </trkpt>
      <trkpt lat="42.584326" lon="-0.430532">
        <ele>1196.0</ele>
        <time>2019-03-26T10:23:51.000Z</time>
      </trkpt>
      <trkpt lat="42.584336" lon="-0.430507">
        <ele>1196.0</ele>
        <time>2019-03-26T10:23:52.000Z</time>
      </trkpt>
      <trkpt lat="42.584336" lon="-0.430506">
        <ele>1196.0</ele>
        <time>2019-03-26T10:23:53.000Z</time>
      </trkpt>
      <trkpt lat="42.584336" lon="-0.430506">
        <ele>1197.0</ele>
        <time>2019-03-26T10:23:54.000Z</time>
      </trkpt>
      <trkpt lat="42.584336" lon="-0.430506">
        <ele>1197.0</ele>
        <time>2019-03-26T10:23:55.000Z</time>
      </trkpt>
      <trkpt lat="42.584336" lon="-0.430506">
        <ele>1197.0</ele>
        <time>2019-03-26T10:23:56.000Z</time>
      </trkpt>
      <trkpt lat="42.584337" lon="-0.430506">
        <ele>1197.0</ele>
        <time>2019-03-26T10:23:57.000Z</time>
      </trkpt>
      <trkpt lat="42.584337" lon="-0.430505">
        <ele>1197.0</ele>
        <time>2019-03-26T10:23:58.000Z</time>
      </trkpt>
      <trkpt lat="42.584338" lon="-0.430502">
        <ele>1197.0</ele>
        <time>2019-03-26T10:23:59.000Z</time>
      </trkpt>
      <trkpt lat="42.584343" lon="-0.430493">
        <ele>1197.0</ele>
        <time>2019-03-26T10:24:00.000Z</time>
      </trkpt>
      <trkpt lat="42.584357" lon="-0.43047">
        <ele>1197.0</ele>
        <time>2019-03-26T10:24:01.000Z</time>
      </trkpt>
      <trkpt lat="42.584375" lon="-0.430439">
        <ele>1197.0</ele>
        <time>2019-03-26T10:24:02.000Z</time>
      </trkpt>
      <trkpt lat="42.58439" lon="-0.430412">
        <ele>1197.0</ele>
        <time>2019-03-26T10:24:03.000Z</time>
      </trkpt>
      <trkpt lat="42.5844" lon="-0.430395">
        <ele>1198.0</ele>
        <time>2019-03-26T10:24:04.000Z</time>
      </trkpt>
      <trkpt lat="42.584405" lon="-0.430387">
        <ele>1198.0</ele>
        <time>2019-03-26T10:24:05.000Z</time>
      </trkpt>
      <trkpt lat="42.584409" lon="-0.430381">
        <ele>1198.0</ele>
        <time>2019-03-26T10:24:06.000Z</time>
      </trkpt>
      <trkpt lat="42.584413" lon="-0.430374">
        <ele>1198.0</ele>
        <time>2019-03-26T10:24:07.000Z</time>
      </trkpt>
      <trkpt lat="42.584424" lon="-0.430361">
        <ele>1198.0</ele>
        <time>2019-03-26T10:24:08.000Z</time>
      </trkpt>
      <trkpt lat="42.584443" lon="-0.430339">
        <ele>1198.0</ele>
        <time>2019-03-26T10:24:09.000Z</time>
      </trkpt>
      <trkpt lat="42.584465" lon="-0.430316">
        <ele>1198.0</ele>
        <time>2019-03-26T10:24:10.000Z</time>
      </trkpt>
      <trkpt lat="42.584483" lon="-0.430297">
        <ele>1198.0</ele>
        <time>2019-03-26T10:24:11.000Z</time>
      </trkpt>
      <trkpt lat="42.584497" lon="-0.430282">
        <ele>1198.0</ele>
        <time>2019-03-26T10:24:12.000Z</time>
      </trkpt>
      <trkpt lat="42.58451" lon="-0.430269">
        <ele>1198.0</ele>
        <time>2019-03-26T10:24:13.000Z</time>
      </trkpt>
      <trkpt lat="42.584523" lon="-0.430257">
        <ele>1198.0</ele>
        <time>2019-03-26T10:24:14.000Z</time>
      </trkpt>
      <trkpt lat="42.584536" lon="-0.430244">
        <ele>1198.0</ele>
        <time>2019-03-26T10:24:15.000Z</time>
      </trkpt>
      <trkpt lat="42.584549" lon="-0.430231">
        <ele>1199.0</ele>
        <time>2019-03-26T10:24:16.000Z</time>
      </trkpt>
      <trkpt lat="42.584562" lon="-0.430219">
        <ele>1199.0</ele>
        <time>2019-03-26T10:24:17.000Z</time>
      </trkpt>
      <trkpt lat="42.584574" lon="-0.430207">
        <ele>1199.0</ele>
        <time>2019-03-26T10:24:18.000Z</time>
      </trkpt>
      <trkpt lat="42.584585" lon="-0.430195">
        <ele>1199.0</ele>
        <time>2019-03-26T10:24:19.000Z</time>
      </trkpt>
      <trkpt lat="42.584595" lon="-0.430185">
        <ele>1199.0</ele>
        <time>2019-03-26T10:24:20.000Z</time>
      </trkpt>
      <trkpt lat="42.584603" lon="-0.430176">
        <ele>1199.0</ele>
        <time>2019-03-26T10:24:21.000Z</time>
      </trkpt>
      <trkpt lat="42.584608" lon="-0.43017">
        <ele>1199.0</ele>
        <time>2019-03-26T10:24:22.000Z</time>
      </trkpt>
      <trkpt lat="42.58461" lon="-0.430167">
        <ele>1199.0</ele>
        <time>2019-03-26T10:24:23.000Z</time>
      </trkpt>
      <trkpt lat="42.58461" lon="-0.430167">
        <ele>1199.0</ele>
        <time>2019-03-26T10:24:24.000Z</time>
      </trkpt>
      <trkpt lat="42.584619" lon="-0.430159">
        <ele>1199.0</ele>
        <time>2019-03-26T10:24:25.000Z</time>
      </trkpt>
      <trkpt lat="42.584643" lon="-0.430137">
        <ele>1199.0</ele>
        <time>2019-03-26T10:24:26.000Z</time>
      </trkpt>
      <trkpt lat="42.584666" lon="-0.430115">
        <ele>1199.0</ele>
        <time>2019-03-26T10:24:27.000Z</time>
      </trkpt>
      <trkpt lat="42.584684" lon="-0.430097">
        <ele>1199.0</ele>
        <time>2019-03-26T10:24:28.000Z</time>
      </trkpt>
      <trkpt lat="42.584698" lon="-0.430084">
        <ele>1199.0</ele>
        <time>2019-03-26T10:24:29.000Z</time>
      </trkpt>
      <trkpt lat="42.584709" lon="-0.430075">
        <ele>1199.0</ele>
        <time>2019-03-26T10:24:30.000Z</time>
      </trkpt>
      <trkpt lat="42.584717" lon="-0.430068">
        <ele>1200.0</ele>
        <time>2019-03-26T10:24:31.000Z</time>
      </trkpt>
      <trkpt lat="42.584722" lon="-0.430064">
        <ele>1200.0</ele>
        <time>2019-03-26T10:24:32.000Z</time>
      </trkpt>
      <trkpt lat="42.584725" lon="-0.430062">
        <ele>1200.0</ele>
        <time>2019-03-26T10:24:33.000Z</time>
      </trkpt>
      <trkpt lat="42.584727" lon="-0.430062">
        <ele>1200.0</ele>
        <time>2019-03-26T10:24:34.000Z</time>
      </trkpt>
      <trkpt lat="42.584727" lon="-0.430062">
        <ele>1200.0</ele>
        <time>2019-03-26T10:24:35.000Z</time>
      </trkpt>
      <trkpt lat="42.584727" lon="-0.430062">
        <ele>1201.0</ele>
        <time>2019-03-26T10:24:36.000Z</time>
      </trkpt>
      <trkpt lat="42.584734" lon="-0.430062">
        <ele>1201.0</ele>
        <time>2019-03-26T10:24:37.000Z</time>
      </trkpt>
      <trkpt lat="42.58475" lon="-0.430062">
        <ele>1201.0</ele>
        <time>2019-03-26T10:24:38.000Z</time>
      </trkpt>
      <trkpt lat="42.584764" lon="-0.430063">
        <ele>1201.0</ele>
        <time>2019-03-26T10:24:39.000Z</time>
      </trkpt>
      <trkpt lat="42.584776" lon="-0.430078">
        <ele>1202.0</ele>
        <time>2019-03-26T10:24:40.000Z</time>
      </trkpt>
      <trkpt lat="42.584784" lon="-0.430096">
        <ele>1202.0</ele>
        <time>2019-03-26T10:24:41.000Z</time>
      </trkpt>
      <trkpt lat="42.584789" lon="-0.430113">
        <ele>1202.0</ele>
        <time>2019-03-26T10:24:42.000Z</time>
      </trkpt>
      <trkpt lat="42.584792" lon="-0.43013">
        <ele>1202.0</ele>
        <time>2019-03-26T10:24:43.000Z</time>
      </trkpt>
      <trkpt lat="42.584794" lon="-0.430145">
        <ele>1202.0</ele>
        <time>2019-03-26T10:24:44.000Z</time>
      </trkpt>
      <trkpt lat="42.584795" lon="-0.430159">
        <ele>1203.0</ele>
        <time>2019-03-26T10:24:45.000Z</time>
      </trkpt>
      <trkpt lat="42.584796" lon="-0.43017">
        <ele>1203.0</ele>
        <time>2019-03-26T10:24:46.000Z</time>
      </trkpt>
      <trkpt lat="42.5848" lon="-0.430179">
        <ele>1203.0</ele>
        <time>2019-03-26T10:24:47.000Z</time>
      </trkpt>
      <trkpt lat="42.584805" lon="-0.430187">
        <ele>1203.0</ele>
        <time>2019-03-26T10:24:48.000Z</time>
      </trkpt>
      <trkpt lat="42.58481" lon="-0.430199">
        <ele>1203.0</ele>
        <time>2019-03-26T10:24:49.000Z</time>
      </trkpt>
      <trkpt lat="42.584815" lon="-0.430215">
        <ele>1203.0</ele>
        <time>2019-03-26T10:24:50.000Z</time>
      </trkpt>
      <trkpt lat="42.584817" lon="-0.430224">
        <ele>1203.0</ele>
        <time>2019-03-26T10:24:51.000Z</time>
      </trkpt>
      <trkpt lat="42.58482" lon="-0.430255">
        <ele>1203.0</ele>
        <time>2019-03-26T10:24:52.000Z</time>
      </trkpt>
      <trkpt lat="42.584818" lon="-0.430279">
        <ele>1204.0</ele>
        <time>2019-03-26T10:24:53.000Z</time>
      </trkpt>
      <trkpt lat="42.584818" lon="-0.430302">
        <ele>1204.0</ele>
        <time>2019-03-26T10:24:54.000Z</time>
      </trkpt>
      <trkpt lat="42.584819" lon="-0.430323">
        <ele>1204.0</ele>
        <time>2019-03-26T10:24:55.000Z</time>
      </trkpt>
      <trkpt lat="42.584822" lon="-0.430342">
        <ele>1204.0</ele>
        <time>2019-03-26T10:24:56.000Z</time>
      </trkpt>
      <trkpt lat="42.584825" lon="-0.430358">
        <ele>1204.0</ele>
        <time>2019-03-26T10:24:57.000Z</time>
      </trkpt>
      <trkpt lat="42.584829" lon="-0.430372">
        <ele>1204.0</ele>
        <time>2019-03-26T10:24:58.000Z</time>
      </trkpt>
      <trkpt lat="42.584832" lon="-0.430382">
        <ele>1204.0</ele>
        <time>2019-03-26T10:24:59.000Z</time>
      </trkpt>
      <trkpt lat="42.584835" lon="-0.430389">
        <ele>1204.0</ele>
        <time>2019-03-26T10:25:00.000Z</time>
      </trkpt>
      <trkpt lat="42.584837" lon="-0.430392">
        <ele>1204.0</ele>
        <time>2019-03-26T10:25:01.000Z</time>
      </trkpt>
      <trkpt lat="42.584837" lon="-0.430392">
        <ele>1205.0</ele>
        <time>2019-03-26T10:25:02.000Z</time>
      </trkpt>
      <trkpt lat="42.584836" lon="-0.430395">
        <ele>1205.0</ele>
        <time>2019-03-26T10:25:03.000Z</time>
      </trkpt>
      <trkpt lat="42.584836" lon="-0.430395">
        <ele>1205.0</ele>
        <time>2019-03-26T10:25:04.000Z</time>
      </trkpt>
      <trkpt lat="42.584837" lon="-0.430402">
        <ele>1205.0</ele>
        <time>2019-03-26T10:25:05.000Z</time>
      </trkpt>
      <trkpt lat="42.584841" lon="-0.430524">
        <ele>1205.0</ele>
        <time>2019-03-26T10:25:06.000Z</time>
      </trkpt>
      <trkpt lat="42.584849" lon="-0.430543">
        <ele>1205.0</ele>
        <time>2019-03-26T10:25:07.000Z</time>
      </trkpt>
      <trkpt lat="42.584854" lon="-0.430556">
        <ele>1205.0</ele>
        <time>2019-03-26T10:25:08.000Z</time>
      </trkpt>
      <trkpt lat="42.584857" lon="-0.430571">
        <ele>1206.0</ele>
        <time>2019-03-26T10:25:09.000Z</time>
      </trkpt>
      <trkpt lat="42.584859" lon="-0.43058">
        <ele>1206.0</ele>
        <time>2019-03-26T10:25:10.000Z</time>
      </trkpt>
      <trkpt lat="42.584859" lon="-0.430585">
        <ele>1206.0</ele>
        <time>2019-03-26T10:25:11.000Z</time>
      </trkpt>
      <trkpt lat="42.584859" lon="-0.430587">
        <ele>1206.0</ele>
        <time>2019-03-26T10:25:12.000Z</time>
      </trkpt>
      <trkpt lat="42.584859" lon="-0.430588">
        <ele>1206.0</ele>
        <time>2019-03-26T10:25:13.000Z</time>
      </trkpt>
      <trkpt lat="42.584858" lon="-0.430589">
        <ele>1206.0</ele>
        <time>2019-03-26T10:25:14.000Z</time>
      </trkpt>
      <trkpt lat="42.584859" lon="-0.430592">
        <ele>1206.0</ele>
        <time>2019-03-26T10:25:15.000Z</time>
      </trkpt>
      <trkpt lat="42.584859" lon="-0.430604">
        <ele>1207.0</ele>
        <time>2019-03-26T10:25:16.000Z</time>
      </trkpt>
      <trkpt lat="42.584858" lon="-0.430643">
        <ele>1207.0</ele>
        <time>2019-03-26T10:25:17.000Z</time>
      </trkpt>
      <trkpt lat="42.58486" lon="-0.4307">
        <ele>1207.0</ele>
        <time>2019-03-26T10:25:18.000Z</time>
      </trkpt>
      <trkpt lat="42.584863" lon="-0.430738">
        <ele>1207.0</ele>
        <time>2019-03-26T10:25:19.000Z</time>
      </trkpt>
      <trkpt lat="42.584863" lon="-0.430759">
        <ele>1207.0</ele>
        <time>2019-03-26T10:25:20.000Z</time>
      </trkpt>
      <trkpt lat="42.584863" lon="-0.430769">
        <ele>1207.0</ele>
        <time>2019-03-26T10:25:21.000Z</time>
      </trkpt>
      <trkpt lat="42.584863" lon="-0.430773">
        <ele>1207.0</ele>
        <time>2019-03-26T10:25:22.000Z</time>
      </trkpt>
      <trkpt lat="42.584863" lon="-0.430774">
        <ele>1207.0</ele>
        <time>2019-03-26T10:25:23.000Z</time>
      </trkpt>
      <trkpt lat="42.584862" lon="-0.430776">
        <ele>1207.0</ele>
        <time>2019-03-26T10:25:24.000Z</time>
      </trkpt>
      <trkpt lat="42.584861" lon="-0.430784">
        <ele>1208.0</ele>
        <time>2019-03-26T10:25:25.000Z</time>
      </trkpt>
      <trkpt lat="42.584861" lon="-0.430808">
        <ele>1208.0</ele>
        <time>2019-03-26T10:25:26.000Z</time>
      </trkpt>
      <trkpt lat="42.584863" lon="-0.430847">
        <ele>1208.0</ele>
        <time>2019-03-26T10:25:27.000Z</time>
      </trkpt>
      <trkpt lat="42.584866" lon="-0.430873">
        <ele>1208.0</ele>
        <time>2019-03-26T10:25:28.000Z</time>
      </trkpt>
      <trkpt lat="42.584869" lon="-0.430904">
        <ele>1208.0</ele>
        <time>2019-03-26T10:25:29.000Z</time>
      </trkpt>
      <trkpt lat="42.584874" lon="-0.430936">
        <ele>1208.0</ele>
        <time>2019-03-26T10:25:30.000Z</time>
      </trkpt>
      <trkpt lat="42.584881" lon="-0.430964">
        <ele>1208.0</ele>
        <time>2019-03-26T10:25:31.000Z</time>
      </trkpt>
      <trkpt lat="42.58489" lon="-0.430991">
        <ele>1208.0</ele>
        <time>2019-03-26T10:25:32.000Z</time>
      </trkpt>
      <trkpt lat="42.584899" lon="-0.431015">
        <ele>1208.0</ele>
        <time>2019-03-26T10:25:33.000Z</time>
      </trkpt>
      <trkpt lat="42.584909" lon="-0.431037">
        <ele>1208.0</ele>
        <time>2019-03-26T10:25:34.000Z</time>
      </trkpt>
      <trkpt lat="42.584918" lon="-0.431058">
        <ele>1208.0</ele>
        <time>2019-03-26T10:25:35.000Z</time>
      </trkpt>
      <trkpt lat="42.584926" lon="-0.431079">
        <ele>1209.0</ele>
        <time>2019-03-26T10:25:36.000Z</time>
      </trkpt>
      <trkpt lat="42.584933" lon="-0.431099">
        <ele>1209.0</ele>
        <time>2019-03-26T10:25:37.000Z</time>
      </trkpt>
      <trkpt lat="42.584938" lon="-0.431119">
        <ele>1209.0</ele>
        <time>2019-03-26T10:25:38.000Z</time>
      </trkpt>
      <trkpt lat="42.584942" lon="-0.431139">
        <ele>1209.0</ele>
        <time>2019-03-26T10:25:39.000Z</time>
      </trkpt>
      <trkpt lat="42.584946" lon="-0.43116">
        <ele>1209.0</ele>
        <time>2019-03-26T10:25:40.000Z</time>
      </trkpt>
      <trkpt lat="42.584949" lon="-0.43118">
        <ele>1209.0</ele>
        <time>2019-03-26T10:25:41.000Z</time>
      </trkpt>
      <trkpt lat="42.584951" lon="-0.431202">
        <ele>1209.0</ele>
        <time>2019-03-26T10:25:42.000Z</time>
      </trkpt>
      <trkpt lat="42.584954" lon="-0.431224">
        <ele>1209.0</ele>
        <time>2019-03-26T10:25:43.000Z</time>
      </trkpt>
      <trkpt lat="42.584957" lon="-0.431247">
        <ele>1209.0</ele>
        <time>2019-03-26T10:25:44.000Z</time>
      </trkpt>
      <trkpt lat="42.58496" lon="-0.431271">
        <ele>1209.0</ele>
        <time>2019-03-26T10:25:45.000Z</time>
      </trkpt>
      <trkpt lat="42.584963" lon="-0.431294">
        <ele>1209.0</ele>
        <time>2019-03-26T10:25:46.000Z</time>
      </trkpt>
      <trkpt lat="42.584968" lon="-0.431316">
        <ele>1210.0</ele>
        <time>2019-03-26T10:25:47.000Z</time>
      </trkpt>
      <trkpt lat="42.584973" lon="-0.431336">
        <ele>1210.0</ele>
        <time>2019-03-26T10:25:48.000Z</time>
      </trkpt>
      <trkpt lat="42.584979" lon="-0.431354">
        <ele>1210.0</ele>
        <time>2019-03-26T10:25:49.000Z</time>
      </trkpt>
      <trkpt lat="42.584987" lon="-0.431369">
        <ele>1210.0</ele>
        <time>2019-03-26T10:25:50.000Z</time>
      </trkpt>
      <trkpt lat="42.584995" lon="-0.43138">
        <ele>1210.0</ele>
        <time>2019-03-26T10:25:51.000Z</time>
      </trkpt>
      <trkpt lat="42.585005" lon="-0.431388">
        <ele>1210.0</ele>
        <time>2019-03-26T10:25:52.000Z</time>
      </trkpt>
      <trkpt lat="42.585015" lon="-0.431394">
        <ele>1211.0</ele>
        <time>2019-03-26T10:25:53.000Z</time>
      </trkpt>
      <trkpt lat="42.585027" lon="-0.431399">
        <ele>1211.0</ele>
        <time>2019-03-26T10:25:54.000Z</time>
      </trkpt>
      <trkpt lat="42.58504" lon="-0.431404">
        <ele>1211.0</ele>
        <time>2019-03-26T10:25:55.000Z</time>
      </trkpt>
      <trkpt lat="42.585053" lon="-0.431411">
        <ele>1211.0</ele>
        <time>2019-03-26T10:25:56.000Z</time>
      </trkpt>
      <trkpt lat="42.585067" lon="-0.431419">
        <ele>1211.0</ele>
        <time>2019-03-26T10:25:57.000Z</time>
      </trkpt>
      <trkpt lat="42.585082" lon="-0.431429">
        <ele>1211.0</ele>
        <time>2019-03-26T10:25:58.000Z</time>
      </trkpt>
      <trkpt lat="42.585096" lon="-0.431442">
        <ele>1211.0</ele>
        <time>2019-03-26T10:25:59.000Z</time>
      </trkpt>
      <trkpt lat="42.58511" lon="-0.431457">
        <ele>1211.0</ele>
        <time>2019-03-26T10:26:00.000Z</time>
      </trkpt>
      <trkpt lat="42.585123" lon="-0.431474">
        <ele>1211.0</ele>
        <time>2019-03-26T10:26:01.000Z</time>
      </trkpt>
      <trkpt lat="42.585133" lon="-0.431492">
        <ele>1211.0</ele>
        <time>2019-03-26T10:26:02.000Z</time>
      </trkpt>
      <trkpt lat="42.585141" lon="-0.43151">
        <ele>1211.0</ele>
        <time>2019-03-26T10:26:03.000Z</time>
      </trkpt>
      <trkpt lat="42.585145" lon="-0.431529">
        <ele>1211.0</ele>
        <time>2019-03-26T10:26:04.000Z</time>
      </trkpt>
      <trkpt lat="42.585145" lon="-0.431547">
        <ele>1211.0</ele>
        <time>2019-03-26T10:26:05.000Z</time>
      </trkpt>
      <trkpt lat="42.585142" lon="-0.431565">
        <ele>1212.0</ele>
        <time>2019-03-26T10:26:06.000Z</time>
      </trkpt>
      <trkpt lat="42.585136" lon="-0.431583">
        <ele>1212.0</ele>
        <time>2019-03-26T10:26:07.000Z</time>
      </trkpt>
      <trkpt lat="42.585129" lon="-0.431601">
        <ele>1212.0</ele>
        <time>2019-03-26T10:26:08.000Z</time>
      </trkpt>
      <trkpt lat="42.585122" lon="-0.43162">
        <ele>1212.0</ele>
        <time>2019-03-26T10:26:09.000Z</time>
      </trkpt>
      <trkpt lat="42.585114" lon="-0.431638">
        <ele>1212.0</ele>
        <time>2019-03-26T10:26:10.000Z</time>
      </trkpt>
      <trkpt lat="42.585108" lon="-0.431657">
        <ele>1212.0</ele>
        <time>2019-03-26T10:26:11.000Z</time>
      </trkpt>
      <trkpt lat="42.585102" lon="-0.431677">
        <ele>1212.0</ele>
        <time>2019-03-26T10:26:12.000Z</time>
      </trkpt>
      <trkpt lat="42.585098" lon="-0.431696">
        <ele>1212.0</ele>
        <time>2019-03-26T10:26:13.000Z</time>
      </trkpt>
      <trkpt lat="42.585094" lon="-0.431716">
        <ele>1212.0</ele>
        <time>2019-03-26T10:26:14.000Z</time>
      </trkpt>
      <trkpt lat="42.585091" lon="-0.431736">
        <ele>1212.0</ele>
        <time>2019-03-26T10:26:15.000Z</time>
      </trkpt>
      <trkpt lat="42.585088" lon="-0.431757">
        <ele>1212.0</ele>
        <time>2019-03-26T10:26:16.000Z</time>
      </trkpt>
      <trkpt lat="42.585087" lon="-0.431777">
        <ele>1212.0</ele>
        <time>2019-03-26T10:26:17.000Z</time>
      </trkpt>
      <trkpt lat="42.585085" lon="-0.431798">
        <ele>1213.0</ele>
        <time>2019-03-26T10:26:18.000Z</time>
      </trkpt>
      <trkpt lat="42.585084" lon="-0.431818">
        <ele>1213.0</ele>
        <time>2019-03-26T10:26:19.000Z</time>
      </trkpt>
      <trkpt lat="42.585083" lon="-0.431839">
        <ele>1213.0</ele>
        <time>2019-03-26T10:26:20.000Z</time>
      </trkpt>
      <trkpt lat="42.585083" lon="-0.43186">
        <ele>1213.0</ele>
        <time>2019-03-26T10:26:21.000Z</time>
      </trkpt>
      <trkpt lat="42.585082" lon="-0.43188">
        <ele>1213.0</ele>
        <time>2019-03-26T10:26:22.000Z</time>
      </trkpt>
      <trkpt lat="42.585082" lon="-0.431901">
        <ele>1213.0</ele>
        <time>2019-03-26T10:26:23.000Z</time>
      </trkpt>
      <trkpt lat="42.585082" lon="-0.431921">
        <ele>1213.0</ele>
        <time>2019-03-26T10:26:24.000Z</time>
      </trkpt>
      <trkpt lat="42.585081" lon="-0.431942">
        <ele>1213.0</ele>
        <time>2019-03-26T10:26:25.000Z</time>
      </trkpt>
      <trkpt lat="42.58508" lon="-0.431962">
        <ele>1213.0</ele>
        <time>2019-03-26T10:26:26.000Z</time>
      </trkpt>
      <trkpt lat="42.58508" lon="-0.431982">
        <ele>1213.0</ele>
        <time>2019-03-26T10:26:27.000Z</time>
      </trkpt>
      <trkpt lat="42.585079" lon="-0.432002">
        <ele>1214.0</ele>
        <time>2019-03-26T10:26:28.000Z</time>
      </trkpt>
      <trkpt lat="42.585078" lon="-0.432022">
        <ele>1214.0</ele>
        <time>2019-03-26T10:26:29.000Z</time>
      </trkpt>
      <trkpt lat="42.585077" lon="-0.432042">
        <ele>1214.0</ele>
        <time>2019-03-26T10:26:30.000Z</time>
      </trkpt>
      <trkpt lat="42.585076" lon="-0.432061">
        <ele>1214.0</ele>
        <time>2019-03-26T10:26:31.000Z</time>
      </trkpt>
      <trkpt lat="42.585074" lon="-0.43208">
        <ele>1214.0</ele>
        <time>2019-03-26T10:26:32.000Z</time>
      </trkpt>
      <trkpt lat="42.585073" lon="-0.432099">
        <ele>1214.0</ele>
        <time>2019-03-26T10:26:33.000Z</time>
      </trkpt>
      <trkpt lat="42.585072" lon="-0.432118">
        <ele>1214.0</ele>
        <time>2019-03-26T10:26:34.000Z</time>
      </trkpt>
      <trkpt lat="42.585071" lon="-0.432136">
        <ele>1214.0</ele>
        <time>2019-03-26T10:26:35.000Z</time>
      </trkpt>
      <trkpt lat="42.58507" lon="-0.432154">
        <ele>1214.0</ele>
        <time>2019-03-26T10:26:36.000Z</time>
      </trkpt>
      <trkpt lat="42.585069" lon="-0.432172">
        <ele>1214.0</ele>
        <time>2019-03-26T10:26:37.000Z</time>
      </trkpt>
      <trkpt lat="42.585068" lon="-0.43219">
        <ele>1215.0</ele>
        <time>2019-03-26T10:26:38.000Z</time>
      </trkpt>
      <trkpt lat="42.585067" lon="-0.432207">
        <ele>1215.0</ele>
        <time>2019-03-26T10:26:39.000Z</time>
      </trkpt>
      <trkpt lat="42.585066" lon="-0.432225">
        <ele>1215.0</ele>
        <time>2019-03-26T10:26:40.000Z</time>
      </trkpt>
      <trkpt lat="42.585063" lon="-0.432243">
        <ele>1215.0</ele>
        <time>2019-03-26T10:26:41.000Z</time>
      </trkpt>
      <trkpt lat="42.585058" lon="-0.432262">
        <ele>1215.0</ele>
        <time>2019-03-26T10:26:42.000Z</time>
      </trkpt>
      <trkpt lat="42.585051" lon="-0.432283">
        <ele>1215.0</ele>
        <time>2019-03-26T10:26:43.000Z</time>
      </trkpt>
      <trkpt lat="42.585043" lon="-0.432303">
        <ele>1215.0</ele>
        <time>2019-03-26T10:26:44.000Z</time>
      </trkpt>
      <trkpt lat="42.585035" lon="-0.432321">
        <ele>1215.0</ele>
        <time>2019-03-26T10:26:45.000Z</time>
      </trkpt>
      <trkpt lat="42.585029" lon="-0.432335">
        <ele>1215.0</ele>
        <time>2019-03-26T10:26:46.000Z</time>
      </trkpt>
      <trkpt lat="42.585024" lon="-0.432346">
        <ele>1215.0</ele>
        <time>2019-03-26T10:26:47.000Z</time>
      </trkpt>
      <trkpt lat="42.58502" lon="-0.432354">
        <ele>1216.0</ele>
        <time>2019-03-26T10:26:48.000Z</time>
      </trkpt>
      <trkpt lat="42.585017" lon="-0.432361">
        <ele>1216.0</ele>
        <time>2019-03-26T10:26:49.000Z</time>
      </trkpt>
      <trkpt lat="42.585016" lon="-0.432366">
        <ele>1216.0</ele>
        <time>2019-03-26T10:26:50.000Z</time>
      </trkpt>
      <trkpt lat="42.585014" lon="-0.43237">
        <ele>1216.0</ele>
        <time>2019-03-26T10:26:51.000Z</time>
      </trkpt>
      <trkpt lat="42.585014" lon="-0.432374">
        <ele>1216.0</ele>
        <time>2019-03-26T10:26:52.000Z</time>
      </trkpt>
      <trkpt lat="42.585013" lon="-0.432379">
        <ele>1216.0</ele>
        <time>2019-03-26T10:26:53.000Z</time>
      </trkpt>
      <trkpt lat="42.585012" lon="-0.43239">
        <ele>1216.0</ele>
        <time>2019-03-26T10:26:54.000Z</time>
      </trkpt>
      <trkpt lat="42.585008" lon="-0.432412">
        <ele>1216.0</ele>
        <time>2019-03-26T10:26:55.000Z</time>
      </trkpt>
      <trkpt lat="42.585003" lon="-0.432446">
        <ele>1217.0</ele>
        <time>2019-03-26T10:26:56.000Z</time>
      </trkpt>
      <trkpt lat="42.584998" lon="-0.43248">
        <ele>1217.0</ele>
        <time>2019-03-26T10:26:57.000Z</time>
      </trkpt>
      <trkpt lat="42.584996" lon="-0.43251">
        <ele>1217.0</ele>
        <time>2019-03-26T10:26:58.000Z</time>
      </trkpt>
      <trkpt lat="42.584998" lon="-0.432535">
        <ele>1217.0</ele>
        <time>2019-03-26T10:26:59.000Z</time>
      </trkpt>
      <trkpt lat="42.585001" lon="-0.432557">
        <ele>1217.0</ele>
        <time>2019-03-26T10:27:00.000Z</time>
      </trkpt>
      <trkpt lat="42.585004" lon="-0.432579">
        <ele>1217.0</ele>
        <time>2019-03-26T10:27:01.000Z</time>
      </trkpt>
      <trkpt lat="42.585008" lon="-0.4326">
        <ele>1217.0</ele>
        <time>2019-03-26T10:27:02.000Z</time>
      </trkpt>
      <trkpt lat="42.585013" lon="-0.432621">
        <ele>1217.0</ele>
        <time>2019-03-26T10:27:03.000Z</time>
      </trkpt>
      <trkpt lat="42.585019" lon="-0.432641">
        <ele>1217.0</ele>
        <time>2019-03-26T10:27:04.000Z</time>
      </trkpt>
      <trkpt lat="42.585024" lon="-0.43266">
        <ele>1217.0</ele>
        <time>2019-03-26T10:27:05.000Z</time>
      </trkpt>
      <trkpt lat="42.58503" lon="-0.43268">
        <ele>1217.0</ele>
        <time>2019-03-26T10:27:06.000Z</time>
      </trkpt>
      <trkpt lat="42.585037" lon="-0.4327">
        <ele>1217.0</ele>
        <time>2019-03-26T10:27:07.000Z</time>
      </trkpt>
      <trkpt lat="42.585044" lon="-0.43272">
        <ele>1218.0</ele>
        <time>2019-03-26T10:27:08.000Z</time>
      </trkpt>
      <trkpt lat="42.58505" lon="-0.432739">
        <ele>1218.0</ele>
        <time>2019-03-26T10:27:09.000Z</time>
      </trkpt>
      <trkpt lat="42.585057" lon="-0.432758">
        <ele>1218.0</ele>
        <time>2019-03-26T10:27:10.000Z</time>
      </trkpt>
      <trkpt lat="42.585064" lon="-0.432777">
        <ele>1218.0</ele>
        <time>2019-03-26T10:27:11.000Z</time>
      </trkpt>
      <trkpt lat="42.585071" lon="-0.432795">
        <ele>1218.0</ele>
        <time>2019-03-26T10:27:12.000Z</time>
      </trkpt>
      <trkpt lat="42.585078" lon="-0.432813">
        <ele>1218.0</ele>
        <time>2019-03-26T10:27:13.000Z</time>
      </trkpt>
      <trkpt lat="42.585084" lon="-0.432831">
        <ele>1218.0</ele>
        <time>2019-03-26T10:27:14.000Z</time>
      </trkpt>
      <trkpt lat="42.58509" lon="-0.432848">
        <ele>1218.0</ele>
        <time>2019-03-26T10:27:15.000Z</time>
      </trkpt>
      <trkpt lat="42.585096" lon="-0.432865">
        <ele>1218.0</ele>
        <time>2019-03-26T10:27:16.000Z</time>
      </trkpt>
      <trkpt lat="42.585101" lon="-0.432882">
        <ele>1219.0</ele>
        <time>2019-03-26T10:27:17.000Z</time>
      </trkpt>
      <trkpt lat="42.585106" lon="-0.432899">
        <ele>1219.0</ele>
        <time>2019-03-26T10:27:18.000Z</time>
      </trkpt>
      <trkpt lat="42.58511" lon="-0.432916">
        <ele>1219.0</ele>
        <time>2019-03-26T10:27:19.000Z</time>
      </trkpt>
      <trkpt lat="42.585114" lon="-0.432934">
        <ele>1219.0</ele>
        <time>2019-03-26T10:27:20.000Z</time>
      </trkpt>
      <trkpt lat="42.585118" lon="-0.432952">
        <ele>1219.0</ele>
        <time>2019-03-26T10:27:21.000Z</time>
      </trkpt>
      <trkpt lat="42.585121" lon="-0.432971">
        <ele>1219.0</ele>
        <time>2019-03-26T10:27:22.000Z</time>
      </trkpt>
      <trkpt lat="42.585125" lon="-0.432989">
        <ele>1219.0</ele>
        <time>2019-03-26T10:27:23.000Z</time>
      </trkpt>
      <trkpt lat="42.585129" lon="-0.433007">
        <ele>1219.0</ele>
        <time>2019-03-26T10:27:24.000Z</time>
      </trkpt>
      <trkpt lat="42.585134" lon="-0.433024">
        <ele>1219.0</ele>
        <time>2019-03-26T10:27:25.000Z</time>
      </trkpt>
      <trkpt lat="42.58514" lon="-0.433041">
        <ele>1220.0</ele>
        <time>2019-03-26T10:27:26.000Z</time>
      </trkpt>
      <trkpt lat="42.585147" lon="-0.433058">
        <ele>1220.0</ele>
        <time>2019-03-26T10:27:27.000Z</time>
      </trkpt>
      <trkpt lat="42.585155" lon="-0.433074">
        <ele>1220.0</ele>
        <time>2019-03-26T10:27:28.000Z</time>
      </trkpt>
      <trkpt lat="42.585164" lon="-0.433089">
        <ele>1220.0</ele>
        <time>2019-03-26T10:27:29.000Z</time>
      </trkpt>
      <trkpt lat="42.585174" lon="-0.433103">
        <ele>1220.0</ele>
        <time>2019-03-26T10:27:30.000Z</time>
      </trkpt>
      <trkpt lat="42.585184" lon="-0.433118">
        <ele>1220.0</ele>
        <time>2019-03-26T10:27:31.000Z</time>
      </trkpt>
      <trkpt lat="42.585194" lon="-0.433131">
        <ele>1220.0</ele>
        <time>2019-03-26T10:27:32.000Z</time>
      </trkpt>
      <trkpt lat="42.585205" lon="-0.433145">
        <ele>1220.0</ele>
        <time>2019-03-26T10:27:33.000Z</time>
      </trkpt>
      <trkpt lat="42.585215" lon="-0.433158">
        <ele>1220.0</ele>
        <time>2019-03-26T10:27:34.000Z</time>
      </trkpt>
      <trkpt lat="42.585226" lon="-0.433171">
        <ele>1220.0</ele>
        <time>2019-03-26T10:27:35.000Z</time>
      </trkpt>
      <trkpt lat="42.585237" lon="-0.433184">
        <ele>1221.0</ele>
        <time>2019-03-26T10:27:36.000Z</time>
      </trkpt>
      <trkpt lat="42.585247" lon="-0.433196">
        <ele>1221.0</ele>
        <time>2019-03-26T10:27:37.000Z</time>
      </trkpt>
      <trkpt lat="42.585258" lon="-0.433209">
        <ele>1221.0</ele>
        <time>2019-03-26T10:27:38.000Z</time>
      </trkpt>
      <trkpt lat="42.585268" lon="-0.433222">
        <ele>1221.0</ele>
        <time>2019-03-26T10:27:39.000Z</time>
      </trkpt>
      <trkpt lat="42.585279" lon="-0.433235">
        <ele>1221.0</ele>
        <time>2019-03-26T10:27:40.000Z</time>
      </trkpt>
      <trkpt lat="42.585289" lon="-0.433249">
        <ele>1221.0</ele>
        <time>2019-03-26T10:27:41.000Z</time>
      </trkpt>
      <trkpt lat="42.585299" lon="-0.433262">
        <ele>1221.0</ele>
        <time>2019-03-26T10:27:42.000Z</time>
      </trkpt>
      <trkpt lat="42.58531" lon="-0.433276">
        <ele>1221.0</ele>
        <time>2019-03-26T10:27:43.000Z</time>
      </trkpt>
      <trkpt lat="42.58532" lon="-0.433291">
        <ele>1222.0</ele>
        <time>2019-03-26T10:27:44.000Z</time>
      </trkpt>
      <trkpt lat="42.58533" lon="-0.433306">
        <ele>1222.0</ele>
        <time>2019-03-26T10:27:45.000Z</time>
      </trkpt>
      <trkpt lat="42.58534" lon="-0.433322">
        <ele>1222.0</ele>
        <time>2019-03-26T10:27:46.000Z</time>
      </trkpt>
      <trkpt lat="42.585349" lon="-0.433339">
        <ele>1222.0</ele>
        <time>2019-03-26T10:27:47.000Z</time>
      </trkpt>
      <trkpt lat="42.585359" lon="-0.433356">
        <ele>1222.0</ele>
        <time>2019-03-26T10:27:48.000Z</time>
      </trkpt>
      <trkpt lat="42.585368" lon="-0.433373">
        <ele>1222.0</ele>
        <time>2019-03-26T10:27:49.000Z</time>
      </trkpt>
      <trkpt lat="42.585377" lon="-0.43339">
        <ele>1222.0</ele>
        <time>2019-03-26T10:27:50.000Z</time>
      </trkpt>
      <trkpt lat="42.585384" lon="-0.433406">
        <ele>1223.0</ele>
        <time>2019-03-26T10:27:51.000Z</time>
      </trkpt>
      <trkpt lat="42.585391" lon="-0.433421">
        <ele>1223.0</ele>
        <time>2019-03-26T10:27:52.000Z</time>
      </trkpt>
      <trkpt lat="42.585396" lon="-0.433433">
        <ele>1223.0</ele>
        <time>2019-03-26T10:27:53.000Z</time>
      </trkpt>
      <trkpt lat="42.5854" lon="-0.433442">
        <ele>1223.0</ele>
        <time>2019-03-26T10:27:54.000Z</time>
      </trkpt>
      <trkpt lat="42.585402" lon="-0.433447">
        <ele>1223.0</ele>
        <time>2019-03-26T10:27:55.000Z</time>
      </trkpt>
      <trkpt lat="42.585403" lon="-0.433451">
        <ele>1223.0</ele>
        <time>2019-03-26T10:27:56.000Z</time>
      </trkpt>
      <trkpt lat="42.585403" lon="-0.433452">
        <ele>1223.0</ele>
        <time>2019-03-26T10:27:57.000Z</time>
      </trkpt>
      <trkpt lat="42.585402" lon="-0.433453">
        <ele>1223.0</ele>
        <time>2019-03-26T10:27:58.000Z</time>
      </trkpt>
      <trkpt lat="42.585402" lon="-0.433455">
        <ele>1223.0</ele>
        <time>2019-03-26T10:27:59.000Z</time>
      </trkpt>
      <trkpt lat="42.585402" lon="-0.433457">
        <ele>1223.0</ele>
        <time>2019-03-26T10:28:00.000Z</time>
      </trkpt>
      <trkpt lat="42.585403" lon="-0.433461">
        <ele>1223.0</ele>
        <time>2019-03-26T10:28:01.000Z</time>
      </trkpt>
      <trkpt lat="42.585404" lon="-0.433465">
        <ele>1223.0</ele>
        <time>2019-03-26T10:28:02.000Z</time>
      </trkpt>
      <trkpt lat="42.585404" lon="-0.433472">
        <ele>1224.0</ele>
        <time>2019-03-26T10:28:03.000Z</time>
      </trkpt>
      <trkpt lat="42.58541" lon="-0.433498">
        <ele>1224.0</ele>
        <time>2019-03-26T10:28:04.000Z</time>
      </trkpt>
      <trkpt lat="42.585418" lon="-0.433527">
        <ele>1224.0</ele>
        <time>2019-03-26T10:28:05.000Z</time>
      </trkpt>
      <trkpt lat="42.585425" lon="-0.433554">
        <ele>1224.0</ele>
        <time>2019-03-26T10:28:06.000Z</time>
      </trkpt>
      <trkpt lat="42.585432" lon="-0.43358">
        <ele>1224.0</ele>
        <time>2019-03-26T10:28:07.000Z</time>
      </trkpt>
      <trkpt lat="42.585438" lon="-0.433604">
        <ele>1224.0</ele>
        <time>2019-03-26T10:28:08.000Z</time>
      </trkpt>
      <trkpt lat="42.585443" lon="-0.433628">
        <ele>1224.0</ele>
        <time>2019-03-26T10:28:09.000Z</time>
      </trkpt>
      <trkpt lat="42.585447" lon="-0.43365">
        <ele>1224.0</ele>
        <time>2019-03-26T10:28:10.000Z</time>
      </trkpt>
      <trkpt lat="42.58545" lon="-0.433672">
        <ele>1224.0</ele>
        <time>2019-03-26T10:28:11.000Z</time>
      </trkpt>
      <trkpt lat="42.585453" lon="-0.433692">
        <ele>1224.0</ele>
        <time>2019-03-26T10:28:12.000Z</time>
      </trkpt>
      <trkpt lat="42.585455" lon="-0.433711">
        <ele>1225.0</ele>
        <time>2019-03-26T10:28:13.000Z</time>
      </trkpt>
      <trkpt lat="42.585457" lon="-0.43373">
        <ele>1225.0</ele>
        <time>2019-03-26T10:28:14.000Z</time>
      </trkpt>
      <trkpt lat="42.585459" lon="-0.433747">
        <ele>1225.0</ele>
        <time>2019-03-26T10:28:15.000Z</time>
      </trkpt>
      <trkpt lat="42.58546" lon="-0.433763">
        <ele>1225.0</ele>
        <time>2019-03-26T10:28:16.000Z</time>
      </trkpt>
      <trkpt lat="42.585461" lon="-0.433777">
        <ele>1225.0</ele>
        <time>2019-03-26T10:28:17.000Z</time>
      </trkpt>
      <trkpt lat="42.585462" lon="-0.433789">
        <ele>1225.0</ele>
        <time>2019-03-26T10:28:18.000Z</time>
      </trkpt>
      <trkpt lat="42.585463" lon="-0.433799">
        <ele>1225.0</ele>
        <time>2019-03-26T10:28:19.000Z</time>
      </trkpt>
      <trkpt lat="42.585463" lon="-0.433805">
        <ele>1225.0</ele>
        <time>2019-03-26T10:28:20.000Z</time>
      </trkpt>
      <trkpt lat="42.585464" lon="-0.433809">
        <ele>1226.0</ele>
        <time>2019-03-26T10:28:21.000Z</time>
      </trkpt>
      <trkpt lat="42.585464" lon="-0.433809">
        <ele>1226.0</ele>
        <time>2019-03-26T10:28:22.000Z</time>
      </trkpt>
      <trkpt lat="42.585463" lon="-0.433809">
        <ele>1226.0</ele>
        <time>2019-03-26T10:28:23.000Z</time>
      </trkpt>
      <trkpt lat="42.585462" lon="-0.433816">
        <ele>1226.0</ele>
        <time>2019-03-26T10:28:24.000Z</time>
      </trkpt>
      <trkpt lat="42.585459" lon="-0.433843">
        <ele>1226.0</ele>
        <time>2019-03-26T10:28:25.000Z</time>
      </trkpt>
      <trkpt lat="42.585453" lon="-0.433893">
        <ele>1226.0</ele>
        <time>2019-03-26T10:28:26.000Z</time>
      </trkpt>
      <trkpt lat="42.585451" lon="-0.43393">
        <ele>1226.0</ele>
        <time>2019-03-26T10:28:27.000Z</time>
      </trkpt>
      <trkpt lat="42.585449" lon="-0.433963">
        <ele>1226.0</ele>
        <time>2019-03-26T10:28:28.000Z</time>
      </trkpt>
      <trkpt lat="42.585447" lon="-0.433989">
        <ele>1226.0</ele>
        <time>2019-03-26T10:28:29.000Z</time>
      </trkpt>
      <trkpt lat="42.585444" lon="-0.434009">
        <ele>1226.0</ele>
        <time>2019-03-26T10:28:30.000Z</time>
      </trkpt>
      <trkpt lat="42.585443" lon="-0.434021">
        <ele>1226.0</ele>
        <time>2019-03-26T10:28:31.000Z</time>
      </trkpt>
      <trkpt lat="42.585441" lon="-0.434029">
        <ele>1226.0</ele>
        <time>2019-03-26T10:28:32.000Z</time>
      </trkpt>
      <trkpt lat="42.58544" lon="-0.434034">
        <ele>1227.0</ele>
        <time>2019-03-26T10:28:33.000Z</time>
      </trkpt>
      <trkpt lat="42.585439" lon="-0.434035">
        <ele>1227.0</ele>
        <time>2019-03-26T10:28:34.000Z</time>
      </trkpt>
      <trkpt lat="42.585439" lon="-0.434036">
        <ele>1227.0</ele>
        <time>2019-03-26T10:28:35.000Z</time>
      </trkpt>
      <trkpt lat="42.585439" lon="-0.434036">
        <ele>1227.0</ele>
        <time>2019-03-26T10:28:36.000Z</time>
      </trkpt>
      <trkpt lat="42.585438" lon="-0.434038">
        <ele>1227.0</ele>
        <time>2019-03-26T10:28:37.000Z</time>
      </trkpt>
      <trkpt lat="42.585434" lon="-0.434045">
        <ele>1227.0</ele>
        <time>2019-03-26T10:28:38.000Z</time>
      </trkpt>
      <trkpt lat="42.585425" lon="-0.434067">
        <ele>1227.0</ele>
        <time>2019-03-26T10:28:39.000Z</time>
      </trkpt>
      <trkpt lat="42.58541" lon="-0.434111">
        <ele>1227.0</ele>
        <time>2019-03-26T10:28:40.000Z</time>
      </trkpt>
      <trkpt lat="42.585394" lon="-0.434154">
        <ele>1227.0</ele>
        <time>2019-03-26T10:28:41.000Z</time>
      </trkpt>
      <trkpt lat="42.585387" lon="-0.434183">
        <ele>1227.0</ele>
        <time>2019-03-26T10:28:42.000Z</time>
      </trkpt>
      <trkpt lat="42.585381" lon="-0.434207">
        <ele>1227.0</ele>
        <time>2019-03-26T10:28:43.000Z</time>
      </trkpt>
      <trkpt lat="42.585377" lon="-0.434231">
        <ele>1227.0</ele>
        <time>2019-03-26T10:28:44.000Z</time>
      </trkpt>
      <trkpt lat="42.585372" lon="-0.434255">
        <ele>1228.0</ele>
        <time>2019-03-26T10:28:45.000Z</time>
      </trkpt>
      <trkpt lat="42.585368" lon="-0.434278">
        <ele>1228.0</ele>
        <time>2019-03-26T10:28:46.000Z</time>
      </trkpt>
      <trkpt lat="42.585365" lon="-0.4343">
        <ele>1228.0</ele>
        <time>2019-03-26T10:28:47.000Z</time>
      </trkpt>
      <trkpt lat="42.585363" lon="-0.434321">
        <ele>1228.0</ele>
        <time>2019-03-26T10:28:48.000Z</time>
      </trkpt>
      <trkpt lat="42.585363" lon="-0.434341">
        <ele>1228.0</ele>
        <time>2019-03-26T10:28:49.000Z</time>
      </trkpt>
      <trkpt lat="42.585363" lon="-0.43436">
        <ele>1228.0</ele>
        <time>2019-03-26T10:28:50.000Z</time>
      </trkpt>
      <trkpt lat="42.585364" lon="-0.434378">
        <ele>1228.0</ele>
        <time>2019-03-26T10:28:51.000Z</time>
      </trkpt>
      <trkpt lat="42.585366" lon="-0.434395">
        <ele>1228.0</ele>
        <time>2019-03-26T10:28:52.000Z</time>
      </trkpt>
      <trkpt lat="42.585368" lon="-0.434411">
        <ele>1228.0</ele>
        <time>2019-03-26T10:28:53.000Z</time>
      </trkpt>
      <trkpt lat="42.58537" lon="-0.434428">
        <ele>1229.0</ele>
        <time>2019-03-26T10:28:54.000Z</time>
      </trkpt>
      <trkpt lat="42.585372" lon="-0.434445">
        <ele>1229.0</ele>
        <time>2019-03-26T10:28:55.000Z</time>
      </trkpt>
      <trkpt lat="42.585372" lon="-0.434462">
        <ele>1229.0</ele>
        <time>2019-03-26T10:28:56.000Z</time>
      </trkpt>
      <trkpt lat="42.585373" lon="-0.434479">
        <ele>1229.0</ele>
        <time>2019-03-26T10:28:57.000Z</time>
      </trkpt>
      <trkpt lat="42.585373" lon="-0.434496">
        <ele>1229.0</ele>
        <time>2019-03-26T10:28:58.000Z</time>
      </trkpt>
      <trkpt lat="42.585373" lon="-0.434514">
        <ele>1229.0</ele>
        <time>2019-03-26T10:28:59.000Z</time>
      </trkpt>
      <trkpt lat="42.585374" lon="-0.434532">
        <ele>1229.0</ele>
        <time>2019-03-26T10:29:00.000Z</time>
      </trkpt>
      <trkpt lat="42.585376" lon="-0.43455">
        <ele>1229.0</ele>
        <time>2019-03-26T10:29:01.000Z</time>
      </trkpt>
      <trkpt lat="42.585379" lon="-0.434568">
        <ele>1229.0</ele>
        <time>2019-03-26T10:29:02.000Z</time>
      </trkpt>
      <trkpt lat="42.585384" lon="-0.434586">
        <ele>1229.0</ele>
        <time>2019-03-26T10:29:03.000Z</time>
      </trkpt>
      <trkpt lat="42.58539" lon="-0.434603">
        <ele>1230.0</ele>
        <time>2019-03-26T10:29:04.000Z</time>
      </trkpt>
      <trkpt lat="42.585397" lon="-0.434619">
        <ele>1230.0</ele>
        <time>2019-03-26T10:29:05.000Z</time>
      </trkpt>
      <trkpt lat="42.585406" lon="-0.434632">
        <ele>1230.0</ele>
        <time>2019-03-26T10:29:06.000Z</time>
      </trkpt>
      <trkpt lat="42.585415" lon="-0.434643">
        <ele>1230.0</ele>
        <time>2019-03-26T10:29:07.000Z</time>
      </trkpt>
      <trkpt lat="42.585425" lon="-0.434651">
        <ele>1230.0</ele>
        <time>2019-03-26T10:29:08.000Z</time>
      </trkpt>
      <trkpt lat="42.585435" lon="-0.434654">
        <ele>1230.0</ele>
        <time>2019-03-26T10:29:09.000Z</time>
      </trkpt>
      <trkpt lat="42.585445" lon="-0.434653">
        <ele>1230.0</ele>
        <time>2019-03-26T10:29:10.000Z</time>
      </trkpt>
      <trkpt lat="42.585455" lon="-0.434647">
        <ele>1231.0</ele>
        <time>2019-03-26T10:29:11.000Z</time>
      </trkpt>
      <trkpt lat="42.585464" lon="-0.434639">
        <ele>1231.0</ele>
        <time>2019-03-26T10:29:12.000Z</time>
      </trkpt>
      <trkpt lat="42.585472" lon="-0.434627">
        <ele>1231.0</ele>
        <time>2019-03-26T10:29:13.000Z</time>
      </trkpt>
      <trkpt lat="42.585478" lon="-0.434613">
        <ele>1231.0</ele>
        <time>2019-03-26T10:29:14.000Z</time>
      </trkpt>
      <trkpt lat="42.585483" lon="-0.434598">
        <ele>1231.0</ele>
        <time>2019-03-26T10:29:15.000Z</time>
      </trkpt>
      <trkpt lat="42.585485" lon="-0.434582">
        <ele>1231.0</ele>
        <time>2019-03-26T10:29:16.000Z</time>
      </trkpt>
      <trkpt lat="42.585484" lon="-0.434566">
        <ele>1231.0</ele>
        <time>2019-03-26T10:29:17.000Z</time>
      </trkpt>
      <trkpt lat="42.585481" lon="-0.434549">
        <ele>1231.0</ele>
        <time>2019-03-26T10:29:18.000Z</time>
      </trkpt>
      <trkpt lat="42.585477" lon="-0.434533">
        <ele>1232.0</ele>
        <time>2019-03-26T10:29:19.000Z</time>
      </trkpt>
      <trkpt lat="42.585471" lon="-0.434516">
        <ele>1232.0</ele>
        <time>2019-03-26T10:29:20.000Z</time>
      </trkpt>
      <trkpt lat="42.585466" lon="-0.4345">
        <ele>1232.0</ele>
        <time>2019-03-26T10:29:21.000Z</time>
      </trkpt>
      <trkpt lat="42.58546" lon="-0.434483">
        <ele>1232.0</ele>
        <time>2019-03-26T10:29:22.000Z</time>
      </trkpt>
      <trkpt lat="42.585456" lon="-0.434466">
        <ele>1232.0</ele>
        <time>2019-03-26T10:29:23.000Z</time>
      </trkpt>
      <trkpt lat="42.585452" lon="-0.43445">
        <ele>1232.0</ele>
        <time>2019-03-26T10:29:24.000Z</time>
      </trkpt>
      <trkpt lat="42.58545" lon="-0.434433">
        <ele>1232.0</ele>
        <time>2019-03-26T10:29:25.000Z</time>
      </trkpt>
      <trkpt lat="42.58545" lon="-0.434416">
        <ele>1233.0</ele>
        <time>2019-03-26T10:29:26.000Z</time>
      </trkpt>
      <trkpt lat="42.58545" lon="-0.434399">
        <ele>1233.0</ele>
        <time>2019-03-26T10:29:27.000Z</time>
      </trkpt>
      <trkpt lat="42.585452" lon="-0.434382">
        <ele>1233.0</ele>
        <time>2019-03-26T10:29:28.000Z</time>
      </trkpt>
      <trkpt lat="42.585454" lon="-0.434365">
        <ele>1233.0</ele>
        <time>2019-03-26T10:29:29.000Z</time>
      </trkpt>
      <trkpt lat="42.585457" lon="-0.434348">
        <ele>1233.0</ele>
        <time>2019-03-26T10:29:30.000Z</time>
      </trkpt>
      <trkpt lat="42.585461" lon="-0.434331">
        <ele>1233.0</ele>
        <time>2019-03-26T10:29:31.000Z</time>
      </trkpt>
      <trkpt lat="42.585466" lon="-0.434314">
        <ele>1233.0</ele>
        <time>2019-03-26T10:29:32.000Z</time>
      </trkpt>
      <trkpt lat="42.585471" lon="-0.434297">
        <ele>1233.0</ele>
        <time>2019-03-26T10:29:33.000Z</time>
      </trkpt>
      <trkpt lat="42.585476" lon="-0.434279">
        <ele>1233.0</ele>
        <time>2019-03-26T10:29:34.000Z</time>
      </trkpt>
      <trkpt lat="42.585482" lon="-0.434262">
        <ele>1233.0</ele>
        <time>2019-03-26T10:29:35.000Z</time>
      </trkpt>
      <trkpt lat="42.585488" lon="-0.434245">
        <ele>1233.0</ele>
        <time>2019-03-26T10:29:36.000Z</time>
      </trkpt>
      <trkpt lat="42.585494" lon="-0.434227">
        <ele>1233.0</ele>
        <time>2019-03-26T10:29:37.000Z</time>
      </trkpt>
      <trkpt lat="42.585499" lon="-0.434209">
        <ele>1233.0</ele>
        <time>2019-03-26T10:29:38.000Z</time>
      </trkpt>
      <trkpt lat="42.585505" lon="-0.434192">
        <ele>1233.0</ele>
        <time>2019-03-26T10:29:39.000Z</time>
      </trkpt>
      <trkpt lat="42.585511" lon="-0.434174">
        <ele>1233.0</ele>
        <time>2019-03-26T10:29:40.000Z</time>
      </trkpt>
      <trkpt lat="42.585517" lon="-0.434156">
        <ele>1233.0</ele>
        <time>2019-03-26T10:29:41.000Z</time>
      </trkpt>
      <trkpt lat="42.585523" lon="-0.434138">
        <ele>1233.0</ele>
        <time>2019-03-26T10:29:42.000Z</time>
      </trkpt>
      <trkpt lat="42.585529" lon="-0.434119">
        <ele>1233.0</ele>
        <time>2019-03-26T10:29:43.000Z</time>
      </trkpt>
      <trkpt lat="42.585535" lon="-0.434101">
        <ele>1233.0</ele>
        <time>2019-03-26T10:29:44.000Z</time>
      </trkpt>
      <trkpt lat="42.585541" lon="-0.434082">
        <ele>1233.0</ele>
        <time>2019-03-26T10:29:45.000Z</time>
      </trkpt>
      <trkpt lat="42.585548" lon="-0.434063">
        <ele>1233.0</ele>
        <time>2019-03-26T10:29:46.000Z</time>
      </trkpt>
      <trkpt lat="42.585554" lon="-0.434044">
        <ele>1234.0</ele>
        <time>2019-03-26T10:29:47.000Z</time>
      </trkpt>
      <trkpt lat="42.585562" lon="-0.434024">
        <ele>1234.0</ele>
        <time>2019-03-26T10:29:48.000Z</time>
      </trkpt>
      <trkpt lat="42.585569" lon="-0.434004">
        <ele>1234.0</ele>
        <time>2019-03-26T10:29:49.000Z</time>
      </trkpt>
      <trkpt lat="42.585577" lon="-0.433983">
        <ele>1234.0</ele>
        <time>2019-03-26T10:29:50.000Z</time>
      </trkpt>
      <trkpt lat="42.585585" lon="-0.433963">
        <ele>1234.0</ele>
        <time>2019-03-26T10:29:51.000Z</time>
      </trkpt>
      <trkpt lat="42.585594" lon="-0.433942">
        <ele>1234.0</ele>
        <time>2019-03-26T10:29:52.000Z</time>
      </trkpt>
      <trkpt lat="42.585603" lon="-0.433921">
        <ele>1234.0</ele>
        <time>2019-03-26T10:29:53.000Z</time>
      </trkpt>
      <trkpt lat="42.585612" lon="-0.4339">
        <ele>1234.0</ele>
        <time>2019-03-26T10:29:54.000Z</time>
      </trkpt>
      <trkpt lat="42.58562" lon="-0.433878">
        <ele>1234.0</ele>
        <time>2019-03-26T10:29:55.000Z</time>
      </trkpt>
      <trkpt lat="42.585629" lon="-0.433858">
        <ele>1234.0</ele>
        <time>2019-03-26T10:29:56.000Z</time>
      </trkpt>
      <trkpt lat="42.585638" lon="-0.433837">
        <ele>1235.0</ele>
        <time>2019-03-26T10:29:57.000Z</time>
      </trkpt>
      <trkpt lat="42.585646" lon="-0.433817">
        <ele>1235.0</ele>
        <time>2019-03-26T10:29:58.000Z</time>
      </trkpt>
      <trkpt lat="42.585654" lon="-0.433797">
        <ele>1235.0</ele>
        <time>2019-03-26T10:29:59.000Z</time>
      </trkpt>
      <trkpt lat="42.585662" lon="-0.433777">
        <ele>1235.0</ele>
        <time>2019-03-26T10:30:00.000Z</time>
      </trkpt>
      <trkpt lat="42.585669" lon="-0.433757">
        <ele>1235.0</ele>
        <time>2019-03-26T10:30:01.000Z</time>
      </trkpt>
      <trkpt lat="42.585677" lon="-0.433738">
        <ele>1235.0</ele>
        <time>2019-03-26T10:30:02.000Z</time>
      </trkpt>
      <trkpt lat="42.585686" lon="-0.433719">
        <ele>1235.0</ele>
        <time>2019-03-26T10:30:03.000Z</time>
      </trkpt>
      <trkpt lat="42.585694" lon="-0.433699">
        <ele>1235.0</ele>
        <time>2019-03-26T10:30:04.000Z</time>
      </trkpt>
      <trkpt lat="42.585703" lon="-0.433679">
        <ele>1236.0</ele>
        <time>2019-03-26T10:30:05.000Z</time>
      </trkpt>
      <trkpt lat="42.585713" lon="-0.43366">
        <ele>1236.0</ele>
        <time>2019-03-26T10:30:06.000Z</time>
      </trkpt>
      <trkpt lat="42.585722" lon="-0.43364">
        <ele>1236.0</ele>
        <time>2019-03-26T10:30:07.000Z</time>
      </trkpt>
      <trkpt lat="42.585732" lon="-0.43362">
        <ele>1236.0</ele>
        <time>2019-03-26T10:30:08.000Z</time>
      </trkpt>
      <trkpt lat="42.585742" lon="-0.4336">
        <ele>1236.0</ele>
        <time>2019-03-26T10:30:09.000Z</time>
      </trkpt>
      <trkpt lat="42.585751" lon="-0.433581">
        <ele>1236.0</ele>
        <time>2019-03-26T10:30:10.000Z</time>
      </trkpt>
      <trkpt lat="42.58576" lon="-0.433561">
        <ele>1237.0</ele>
        <time>2019-03-26T10:30:11.000Z</time>
      </trkpt>
      <trkpt lat="42.585769" lon="-0.433542">
        <ele>1237.0</ele>
        <time>2019-03-26T10:30:12.000Z</time>
      </trkpt>
      <trkpt lat="42.585776" lon="-0.433525">
        <ele>1237.0</ele>
        <time>2019-03-26T10:30:13.000Z</time>
      </trkpt>
      <trkpt lat="42.585782" lon="-0.433511">
        <ele>1237.0</ele>
        <time>2019-03-26T10:30:14.000Z</time>
      </trkpt>
      <trkpt lat="42.585785" lon="-0.433502">
        <ele>1237.0</ele>
        <time>2019-03-26T10:30:15.000Z</time>
      </trkpt>
      <trkpt lat="42.585787" lon="-0.433498">
        <ele>1237.0</ele>
        <time>2019-03-26T10:30:16.000Z</time>
      </trkpt>
      <trkpt lat="42.585788" lon="-0.433494">
        <ele>1237.0</ele>
        <time>2019-03-26T10:30:17.000Z</time>
      </trkpt>
      <trkpt lat="42.585792" lon="-0.433484">
        <ele>1237.0</ele>
        <time>2019-03-26T10:30:18.000Z</time>
      </trkpt>
      <trkpt lat="42.5858" lon="-0.433459">
        <ele>1237.0</ele>
        <time>2019-03-26T10:30:19.000Z</time>
      </trkpt>
      <trkpt lat="42.58581" lon="-0.433431">
        <ele>1237.0</ele>
        <time>2019-03-26T10:30:20.000Z</time>
      </trkpt>
      <trkpt lat="42.585818" lon="-0.43341">
        <ele>1238.0</ele>
        <time>2019-03-26T10:30:21.000Z</time>
      </trkpt>
      <trkpt lat="42.585826" lon="-0.433392">
        <ele>1238.0</ele>
        <time>2019-03-26T10:30:22.000Z</time>
      </trkpt>
      <trkpt lat="42.585833" lon="-0.43337">
        <ele>1238.0</ele>
        <time>2019-03-26T10:30:23.000Z</time>
      </trkpt>
      <trkpt lat="42.585841" lon="-0.433346">
        <ele>1238.0</ele>
        <time>2019-03-26T10:30:24.000Z</time>
      </trkpt>
      <trkpt lat="42.585849" lon="-0.433322">
        <ele>1238.0</ele>
        <time>2019-03-26T10:30:25.000Z</time>
      </trkpt>
      <trkpt lat="42.585857" lon="-0.433299">
        <ele>1238.0</ele>
        <time>2019-03-26T10:30:26.000Z</time>
      </trkpt>
      <trkpt lat="42.585864" lon="-0.433277">
        <ele>1238.0</ele>
        <time>2019-03-26T10:30:27.000Z</time>
      </trkpt>
      <trkpt lat="42.585872" lon="-0.433258">
        <ele>1238.0</ele>
        <time>2019-03-26T10:30:28.000Z</time>
      </trkpt>
      <trkpt lat="42.585879" lon="-0.433239">
        <ele>1238.0</ele>
        <time>2019-03-26T10:30:29.000Z</time>
      </trkpt>
      <trkpt lat="42.585886" lon="-0.433221">
        <ele>1238.0</ele>
        <time>2019-03-26T10:30:30.000Z</time>
      </trkpt>
      <trkpt lat="42.585893" lon="-0.433204">
        <ele>1238.0</ele>
        <time>2019-03-26T10:30:31.000Z</time>
      </trkpt>
      <trkpt lat="42.585899" lon="-0.433186">
        <ele>1239.0</ele>
        <time>2019-03-26T10:30:32.000Z</time>
      </trkpt>
      <trkpt lat="42.585905" lon="-0.433169">
        <ele>1239.0</ele>
        <time>2019-03-26T10:30:33.000Z</time>
      </trkpt>
      <trkpt lat="42.58591" lon="-0.433152">
        <ele>1239.0</ele>
        <time>2019-03-26T10:30:34.000Z</time>
      </trkpt>
      <trkpt lat="42.585915" lon="-0.433136">
        <ele>1239.0</ele>
        <time>2019-03-26T10:30:35.000Z</time>
      </trkpt>
      <trkpt lat="42.585921" lon="-0.433119">
        <ele>1239.0</ele>
        <time>2019-03-26T10:30:36.000Z</time>
      </trkpt>
      <trkpt lat="42.585928" lon="-0.433104">
        <ele>1239.0</ele>
        <time>2019-03-26T10:30:37.000Z</time>
      </trkpt>
      <trkpt lat="42.585936" lon="-0.433089">
        <ele>1239.0</ele>
        <time>2019-03-26T10:30:38.000Z</time>
      </trkpt>
      <trkpt lat="42.585945" lon="-0.433076">
        <ele>1239.0</ele>
        <time>2019-03-26T10:30:39.000Z</time>
      </trkpt>
      <trkpt lat="42.585956" lon="-0.433063">
        <ele>1240.0</ele>
        <time>2019-03-26T10:30:40.000Z</time>
      </trkpt>
      <trkpt lat="42.585969" lon="-0.433052">
        <ele>1240.0</ele>
        <time>2019-03-26T10:30:41.000Z</time>
      </trkpt>
      <trkpt lat="42.585982" lon="-0.433041">
        <ele>1240.0</ele>
        <time>2019-03-26T10:30:42.000Z</time>
      </trkpt>
      <trkpt lat="42.585996" lon="-0.433031">
        <ele>1240.0</ele>
        <time>2019-03-26T10:30:43.000Z</time>
      </trkpt>
      <trkpt lat="42.586009" lon="-0.433021">
        <ele>1240.0</ele>
        <time>2019-03-26T10:30:44.000Z</time>
      </trkpt>
      <trkpt lat="42.586022" lon="-0.433011">
        <ele>1240.0</ele>
        <time>2019-03-26T10:30:45.000Z</time>
      </trkpt>
      <trkpt lat="42.586034" lon="-0.433001">
        <ele>1240.0</ele>
        <time>2019-03-26T10:30:46.000Z</time>
      </trkpt>
      <trkpt lat="42.586045" lon="-0.43299">
        <ele>1240.0</ele>
        <time>2019-03-26T10:30:47.000Z</time>
      </trkpt>
      <trkpt lat="42.586056" lon="-0.432979">
        <ele>1241.0</ele>
        <time>2019-03-26T10:30:48.000Z</time>
      </trkpt>
      <trkpt lat="42.586065" lon="-0.432966">
        <ele>1241.0</ele>
        <time>2019-03-26T10:30:49.000Z</time>
      </trkpt>
      <trkpt lat="42.586073" lon="-0.432953">
        <ele>1241.0</ele>
        <time>2019-03-26T10:30:50.000Z</time>
      </trkpt>
      <trkpt lat="42.586081" lon="-0.432939">
        <ele>1241.0</ele>
        <time>2019-03-26T10:30:51.000Z</time>
      </trkpt>
      <trkpt lat="42.586088" lon="-0.432923">
        <ele>1241.0</ele>
        <time>2019-03-26T10:30:52.000Z</time>
      </trkpt>
      <trkpt lat="42.586095" lon="-0.432906">
        <ele>1241.0</ele>
        <time>2019-03-26T10:30:53.000Z</time>
      </trkpt>
      <trkpt lat="42.586101" lon="-0.432888">
        <ele>1241.0</ele>
        <time>2019-03-26T10:30:54.000Z</time>
      </trkpt>
      <trkpt lat="42.586107" lon="-0.43287">
        <ele>1241.0</ele>
        <time>2019-03-26T10:30:55.000Z</time>
      </trkpt>
      <trkpt lat="42.586112" lon="-0.432851">
        <ele>1242.0</ele>
        <time>2019-03-26T10:30:56.000Z</time>
      </trkpt>
      <trkpt lat="42.586117" lon="-0.432833">
        <ele>1242.0</ele>
        <time>2019-03-26T10:30:57.000Z</time>
      </trkpt>
      <trkpt lat="42.586122" lon="-0.432816">
        <ele>1242.0</ele>
        <time>2019-03-26T10:30:58.000Z</time>
      </trkpt>
      <trkpt lat="42.586127" lon="-0.4328">
        <ele>1242.0</ele>
        <time>2019-03-26T10:30:59.000Z</time>
      </trkpt>
      <trkpt lat="42.586131" lon="-0.432787">
        <ele>1242.0</ele>
        <time>2019-03-26T10:31:00.000Z</time>
      </trkpt>
      <trkpt lat="42.586135" lon="-0.432777">
        <ele>1242.0</ele>
        <time>2019-03-26T10:31:01.000Z</time>
      </trkpt>
      <trkpt lat="42.586138" lon="-0.432772">
        <ele>1242.0</ele>
        <time>2019-03-26T10:31:02.000Z</time>
      </trkpt>
      <trkpt lat="42.586139" lon="-0.432771">
        <ele>1242.0</ele>
        <time>2019-03-26T10:31:03.000Z</time>
      </trkpt>
      <trkpt lat="42.586139" lon="-0.432771">
        <ele>1242.0</ele>
        <time>2019-03-26T10:31:04.000Z</time>
      </trkpt>
      <trkpt lat="42.586143" lon="-0.432759">
        <ele>1243.0</ele>
        <time>2019-03-26T10:31:05.000Z</time>
      </trkpt>
      <trkpt lat="42.586156" lon="-0.432728">
        <ele>1243.0</ele>
        <time>2019-03-26T10:31:06.000Z</time>
      </trkpt>
      <trkpt lat="42.586168" lon="-0.432698">
        <ele>1243.0</ele>
        <time>2019-03-26T10:31:07.000Z</time>
      </trkpt>
      <trkpt lat="42.586177" lon="-0.432674">
        <ele>1243.0</ele>
        <time>2019-03-26T10:31:08.000Z</time>
      </trkpt>
      <trkpt lat="42.586183" lon="-0.432655">
        <ele>1243.0</ele>
        <time>2019-03-26T10:31:09.000Z</time>
      </trkpt>
      <trkpt lat="42.586188" lon="-0.432638">
        <ele>1243.0</ele>
        <time>2019-03-26T10:31:10.000Z</time>
      </trkpt>
      <trkpt lat="42.586192" lon="-0.432623">
        <ele>1243.0</ele>
        <time>2019-03-26T10:31:11.000Z</time>
      </trkpt>
      <trkpt lat="42.586195" lon="-0.432608">
        <ele>1244.0</ele>
        <time>2019-03-26T10:31:12.000Z</time>
      </trkpt>
      <trkpt lat="42.586199" lon="-0.432591">
        <ele>1244.0</ele>
        <time>2019-03-26T10:31:13.000Z</time>
      </trkpt>
      <trkpt lat="42.586203" lon="-0.432573">
        <ele>1244.0</ele>
        <time>2019-03-26T10:31:14.000Z</time>
      </trkpt>
      <trkpt lat="42.586209" lon="-0.432553">
        <ele>1244.0</ele>
        <time>2019-03-26T10:31:15.000Z</time>
      </trkpt>
      <trkpt lat="42.586215" lon="-0.432531">
        <ele>1244.0</ele>
        <time>2019-03-26T10:31:16.000Z</time>
      </trkpt>
      <trkpt lat="42.586221" lon="-0.43251">
        <ele>1244.0</ele>
        <time>2019-03-26T10:31:17.000Z</time>
      </trkpt>
      <trkpt lat="42.586227" lon="-0.432489">
        <ele>1244.0</ele>
        <time>2019-03-26T10:31:18.000Z</time>
      </trkpt>
      <trkpt lat="42.586233" lon="-0.432469">
        <ele>1245.0</ele>
        <time>2019-03-26T10:31:19.000Z</time>
      </trkpt>
      <trkpt lat="42.586238" lon="-0.432452">
        <ele>1245.0</ele>
        <time>2019-03-26T10:31:20.000Z</time>
      </trkpt>
      <trkpt lat="42.586242" lon="-0.432437">
        <ele>1245.0</ele>
        <time>2019-03-26T10:31:21.000Z</time>
      </trkpt>
      <trkpt lat="42.586247" lon="-0.432425">
        <ele>1245.0</ele>
        <time>2019-03-26T10:31:22.000Z</time>
      </trkpt>
      <trkpt lat="42.586253" lon="-0.432415">
        <ele>1245.0</ele>
        <time>2019-03-26T10:31:23.000Z</time>
      </trkpt>
      <trkpt lat="42.586261" lon="-0.432408">
        <ele>1245.0</ele>
        <time>2019-03-26T10:31:24.000Z</time>
      </trkpt>
      <trkpt lat="42.586272" lon="-0.432403">
        <ele>1246.0</ele>
        <time>2019-03-26T10:31:25.000Z</time>
      </trkpt>
      <trkpt lat="42.586285" lon="-0.432402">
        <ele>1246.0</ele>
        <time>2019-03-26T10:31:26.000Z</time>
      </trkpt>
      <trkpt lat="42.586298" lon="-0.432404">
        <ele>1246.0</ele>
        <time>2019-03-26T10:31:27.000Z</time>
      </trkpt>
      <trkpt lat="42.586308" lon="-0.43241">
        <ele>1246.0</ele>
        <time>2019-03-26T10:31:28.000Z</time>
      </trkpt>
      <trkpt lat="42.586315" lon="-0.432421">
        <ele>1246.0</ele>
        <time>2019-03-26T10:31:29.000Z</time>
      </trkpt>
      <trkpt lat="42.586321" lon="-0.432434">
        <ele>1246.0</ele>
        <time>2019-03-26T10:31:30.000Z</time>
      </trkpt>
      <trkpt lat="42.586325" lon="-0.43245">
        <ele>1246.0</ele>
        <time>2019-03-26T10:31:31.000Z</time>
      </trkpt>
      <trkpt lat="42.586328" lon="-0.432467">
        <ele>1246.0</ele>
        <time>2019-03-26T10:31:32.000Z</time>
      </trkpt>
      <trkpt lat="42.58633" lon="-0.432485">
        <ele>1247.0</ele>
        <time>2019-03-26T10:31:33.000Z</time>
      </trkpt>
      <trkpt lat="42.586331" lon="-0.432503">
        <ele>1247.0</ele>
        <time>2019-03-26T10:31:34.000Z</time>
      </trkpt>
      <trkpt lat="42.586332" lon="-0.432521">
        <ele>1247.0</ele>
        <time>2019-03-26T10:31:35.000Z</time>
      </trkpt>
      <trkpt lat="42.586333" lon="-0.432538">
        <ele>1247.0</ele>
        <time>2019-03-26T10:31:36.000Z</time>
      </trkpt>
      <trkpt lat="42.586334" lon="-0.432555">
        <ele>1247.0</ele>
        <time>2019-03-26T10:31:37.000Z</time>
      </trkpt>
      <trkpt lat="42.586335" lon="-0.432571">
        <ele>1247.0</ele>
        <time>2019-03-26T10:31:38.000Z</time>
      </trkpt>
      <trkpt lat="42.586335" lon="-0.432587">
        <ele>1248.0</ele>
        <time>2019-03-26T10:31:39.000Z</time>
      </trkpt>
      <trkpt lat="42.586335" lon="-0.432604">
        <ele>1248.0</ele>
        <time>2019-03-26T10:31:40.000Z</time>
      </trkpt>
      <trkpt lat="42.586336" lon="-0.43262">
        <ele>1248.0</ele>
        <time>2019-03-26T10:31:41.000Z</time>
      </trkpt>
      <trkpt lat="42.586336" lon="-0.432637">
        <ele>1248.0</ele>
        <time>2019-03-26T10:31:42.000Z</time>
      </trkpt>
      <trkpt lat="42.586336" lon="-0.432654">
        <ele>1248.0</ele>
        <time>2019-03-26T10:31:43.000Z</time>
      </trkpt>
      <trkpt lat="42.586335" lon="-0.432671">
        <ele>1248.0</ele>
        <time>2019-03-26T10:31:44.000Z</time>
      </trkpt>
      <trkpt lat="42.586335" lon="-0.432688">
        <ele>1248.0</ele>
        <time>2019-03-26T10:31:45.000Z</time>
      </trkpt>
      <trkpt lat="42.586335" lon="-0.432705">
        <ele>1249.0</ele>
        <time>2019-03-26T10:31:46.000Z</time>
      </trkpt>
      <trkpt lat="42.586335" lon="-0.432722">
        <ele>1249.0</ele>
        <time>2019-03-26T10:31:47.000Z</time>
      </trkpt>
      <trkpt lat="42.586334" lon="-0.432739">
        <ele>1249.0</ele>
        <time>2019-03-26T10:31:48.000Z</time>
      </trkpt>
      <trkpt lat="42.586334" lon="-0.432756">
        <ele>1249.0</ele>
        <time>2019-03-26T10:31:49.000Z</time>
      </trkpt>
      <trkpt lat="42.586333" lon="-0.432774">
        <ele>1249.0</ele>
        <time>2019-03-26T10:31:50.000Z</time>
      </trkpt>
      <trkpt lat="42.586333" lon="-0.432791">
        <ele>1249.0</ele>
        <time>2019-03-26T10:31:51.000Z</time>
      </trkpt>
      <trkpt lat="42.586333" lon="-0.432808">
        <ele>1249.0</ele>
        <time>2019-03-26T10:31:52.000Z</time>
      </trkpt>
      <trkpt lat="42.586332" lon="-0.432825">
        <ele>1250.0</ele>
        <time>2019-03-26T10:31:53.000Z</time>
      </trkpt>
      <trkpt lat="42.586332" lon="-0.432842">
        <ele>1250.0</ele>
        <time>2019-03-26T10:31:54.000Z</time>
      </trkpt>
      <trkpt lat="42.586332" lon="-0.432859">
        <ele>1250.0</ele>
        <time>2019-03-26T10:31:55.000Z</time>
      </trkpt>
      <trkpt lat="42.586332" lon="-0.432876">
        <ele>1250.0</ele>
        <time>2019-03-26T10:31:56.000Z</time>
      </trkpt>
      <trkpt lat="42.586331" lon="-0.432893">
        <ele>1250.0</ele>
        <time>2019-03-26T10:31:57.000Z</time>
      </trkpt>
      <trkpt lat="42.586331" lon="-0.432909">
        <ele>1250.0</ele>
        <time>2019-03-26T10:31:58.000Z</time>
      </trkpt>
      <trkpt lat="42.586331" lon="-0.432926">
        <ele>1250.0</ele>
        <time>2019-03-26T10:31:59.000Z</time>
      </trkpt>
      <trkpt lat="42.586331" lon="-0.432942">
        <ele>1250.0</ele>
        <time>2019-03-26T10:32:00.000Z</time>
      </trkpt>
      <trkpt lat="42.586331" lon="-0.432959">
        <ele>1250.0</ele>
        <time>2019-03-26T10:32:01.000Z</time>
      </trkpt>
      <trkpt lat="42.586331" lon="-0.432975">
        <ele>1250.0</ele>
        <time>2019-03-26T10:32:02.000Z</time>
      </trkpt>
      <trkpt lat="42.586331" lon="-0.432992">
        <ele>1251.0</ele>
        <time>2019-03-26T10:32:03.000Z</time>
      </trkpt>
      <trkpt lat="42.586331" lon="-0.433008">
        <ele>1251.0</ele>
        <time>2019-03-26T10:32:04.000Z</time>
      </trkpt>
      <trkpt lat="42.586331" lon="-0.433025">
        <ele>1251.0</ele>
        <time>2019-03-26T10:32:05.000Z</time>
      </trkpt>
      <trkpt lat="42.586331" lon="-0.433041">
        <ele>1251.0</ele>
        <time>2019-03-26T10:32:06.000Z</time>
      </trkpt>
      <trkpt lat="42.586331" lon="-0.433057">
        <ele>1251.0</ele>
        <time>2019-03-26T10:32:07.000Z</time>
      </trkpt>
      <trkpt lat="42.586331" lon="-0.433074">
        <ele>1251.0</ele>
        <time>2019-03-26T10:32:08.000Z</time>
      </trkpt>
      <trkpt lat="42.586331" lon="-0.43309">
        <ele>1251.0</ele>
        <time>2019-03-26T10:32:09.000Z</time>
      </trkpt>
      <trkpt lat="42.586331" lon="-0.433107">
        <ele>1251.0</ele>
        <time>2019-03-26T10:32:10.000Z</time>
      </trkpt>
      <trkpt lat="42.58633" lon="-0.433123">
        <ele>1251.0</ele>
        <time>2019-03-26T10:32:11.000Z</time>
      </trkpt>
      <trkpt lat="42.58633" lon="-0.43314">
        <ele>1252.0</ele>
        <time>2019-03-26T10:32:12.000Z</time>
      </trkpt>
      <trkpt lat="42.586329" lon="-0.433158">
        <ele>1252.0</ele>
        <time>2019-03-26T10:32:13.000Z</time>
      </trkpt>
      <trkpt lat="42.586328" lon="-0.433175">
        <ele>1252.0</ele>
        <time>2019-03-26T10:32:14.000Z</time>
      </trkpt>
      <trkpt lat="42.586327" lon="-0.433193">
        <ele>1252.0</ele>
        <time>2019-03-26T10:32:15.000Z</time>
      </trkpt>
      <trkpt lat="42.586325" lon="-0.433211">
        <ele>1252.0</ele>
        <time>2019-03-26T10:32:16.000Z</time>
      </trkpt>
      <trkpt lat="42.586324" lon="-0.43323">
        <ele>1252.0</ele>
        <time>2019-03-26T10:32:17.000Z</time>
      </trkpt>
      <trkpt lat="42.586322" lon="-0.433249">
        <ele>1252.0</ele>
        <time>2019-03-26T10:32:18.000Z</time>
      </trkpt>
      <trkpt lat="42.586319" lon="-0.433267">
        <ele>1252.0</ele>
        <time>2019-03-26T10:32:19.000Z</time>
      </trkpt>
      <trkpt lat="42.586316" lon="-0.433285">
        <ele>1252.0</ele>
        <time>2019-03-26T10:32:20.000Z</time>
      </trkpt>
      <trkpt lat="42.586313" lon="-0.433302">
        <ele>1252.0</ele>
        <time>2019-03-26T10:32:21.000Z</time>
      </trkpt>
      <trkpt lat="42.58631" lon="-0.433318">
        <ele>1252.0</ele>
        <time>2019-03-26T10:32:22.000Z</time>
      </trkpt>
      <trkpt lat="42.586306" lon="-0.433332">
        <ele>1252.0</ele>
        <time>2019-03-26T10:32:23.000Z</time>
      </trkpt>
      <trkpt lat="42.586303" lon="-0.433344">
        <ele>1252.0</ele>
        <time>2019-03-26T10:32:24.000Z</time>
      </trkpt>
      <trkpt lat="42.586301" lon="-0.433351">
        <ele>1252.0</ele>
        <time>2019-03-26T10:32:25.000Z</time>
      </trkpt>
      <trkpt lat="42.586301" lon="-0.433353">
        <ele>1252.0</ele>
        <time>2019-03-26T10:32:26.000Z</time>
      </trkpt>
      <trkpt lat="42.586301" lon="-0.433354">
        <ele>1252.0</ele>
        <time>2019-03-26T10:32:27.000Z</time>
      </trkpt>
      <trkpt lat="42.586297" lon="-0.433376">
        <ele>1253.0</ele>
        <time>2019-03-26T10:32:28.000Z</time>
      </trkpt>
      <trkpt lat="42.586294" lon="-0.433394">
        <ele>1253.0</ele>
        <time>2019-03-26T10:32:29.000Z</time>
      </trkpt>
      <trkpt lat="42.586292" lon="-0.433412">
        <ele>1253.0</ele>
        <time>2019-03-26T10:32:30.000Z</time>
      </trkpt>
      <trkpt lat="42.58629" lon="-0.433433">
        <ele>1253.0</ele>
        <time>2019-03-26T10:32:31.000Z</time>
      </trkpt>
      <trkpt lat="42.586289" lon="-0.433456">
        <ele>1253.0</ele>
        <time>2019-03-26T10:32:32.000Z</time>
      </trkpt>
      <trkpt lat="42.586289" lon="-0.433479">
        <ele>1253.0</ele>
        <time>2019-03-26T10:32:33.000Z</time>
      </trkpt>
      <trkpt lat="42.586289" lon="-0.433501">
        <ele>1253.0</ele>
        <time>2019-03-26T10:32:34.000Z</time>
      </trkpt>
      <trkpt lat="42.586289" lon="-0.433521">
        <ele>1254.0</ele>
        <time>2019-03-26T10:32:35.000Z</time>
      </trkpt>
      <trkpt lat="42.586289" lon="-0.433537">
        <ele>1254.0</ele>
        <time>2019-03-26T10:32:36.000Z</time>
      </trkpt>
      <trkpt lat="42.58629" lon="-0.433549">
        <ele>1254.0</ele>
        <time>2019-03-26T10:32:37.000Z</time>
      </trkpt>
      <trkpt lat="42.58629" lon="-0.433557">
        <ele>1254.0</ele>
        <time>2019-03-26T10:32:38.000Z</time>
      </trkpt>
      <trkpt lat="42.58629" lon="-0.433562">
        <ele>1254.0</ele>
        <time>2019-03-26T10:32:39.000Z</time>
      </trkpt>
      <trkpt lat="42.58629" lon="-0.433564">
        <ele>1254.0</ele>
        <time>2019-03-26T10:32:40.000Z</time>
      </trkpt>
      <trkpt lat="42.58629" lon="-0.433565">
        <ele>1254.0</ele>
        <time>2019-03-26T10:32:41.000Z</time>
      </trkpt>
      <trkpt lat="42.58629" lon="-0.433565">
        <ele>1254.0</ele>
        <time>2019-03-26T10:32:42.000Z</time>
      </trkpt>
      <trkpt lat="42.58629" lon="-0.433565">
        <ele>1254.0</ele>
        <time>2019-03-26T10:32:43.000Z</time>
      </trkpt>
      <trkpt lat="42.58629" lon="-0.433566">
        <ele>1254.0</ele>
        <time>2019-03-26T10:32:44.000Z</time>
      </trkpt>
      <trkpt lat="42.58629" lon="-0.433566">
        <ele>1254.0</ele>
        <time>2019-03-26T10:32:45.000Z</time>
      </trkpt>
      <trkpt lat="42.58629" lon="-0.433566">
        <ele>1254.0</ele>
        <time>2019-03-26T10:32:46.000Z</time>
      </trkpt>
      <trkpt lat="42.58629" lon="-0.433567">
        <ele>1254.0</ele>
        <time>2019-03-26T10:32:47.000Z</time>
      </trkpt>
      <trkpt lat="42.586289" lon="-0.433575">
        <ele>1255.0</ele>
        <time>2019-03-26T10:32:48.000Z</time>
      </trkpt>
      <trkpt lat="42.586285" lon="-0.433609">
        <ele>1255.0</ele>
        <time>2019-03-26T10:32:49.000Z</time>
      </trkpt>
      <trkpt lat="42.586279" lon="-0.433675">
        <ele>1255.0</ele>
        <time>2019-03-26T10:32:50.000Z</time>
      </trkpt>
      <trkpt lat="42.586276" lon="-0.433713">
        <ele>1255.0</ele>
        <time>2019-03-26T10:32:51.000Z</time>
      </trkpt>
      <trkpt lat="42.586276" lon="-0.433729">
        <ele>1255.0</ele>
        <time>2019-03-26T10:32:52.000Z</time>
      </trkpt>
      <trkpt lat="42.586275" lon="-0.433746">
        <ele>1255.0</ele>
        <time>2019-03-26T10:32:53.000Z</time>
      </trkpt>
      <trkpt lat="42.586273" lon="-0.433764">
        <ele>1255.0</ele>
        <time>2019-03-26T10:32:54.000Z</time>
      </trkpt>
      <trkpt lat="42.586269" lon="-0.433783">
        <ele>1255.0</ele>
        <time>2019-03-26T10:32:55.000Z</time>
      </trkpt>
      <trkpt lat="42.586264" lon="-0.4338">
        <ele>1256.0</ele>
        <time>2019-03-26T10:32:56.000Z</time>
      </trkpt>
      <trkpt lat="42.586259" lon="-0.433817">
        <ele>1256.0</ele>
        <time>2019-03-26T10:32:57.000Z</time>
      </trkpt>
      <trkpt lat="42.586254" lon="-0.433833">
        <ele>1256.0</ele>
        <time>2019-03-26T10:32:58.000Z</time>
      </trkpt>
      <trkpt lat="42.586249" lon="-0.433849">
        <ele>1256.0</ele>
        <time>2019-03-26T10:32:59.000Z</time>
      </trkpt>
      <trkpt lat="42.586245" lon="-0.433864">
        <ele>1256.0</ele>
        <time>2019-03-26T10:33:00.000Z</time>
      </trkpt>
      <trkpt lat="42.586242" lon="-0.433879">
        <ele>1257.0</ele>
        <time>2019-03-26T10:33:01.000Z</time>
      </trkpt>
      <trkpt lat="42.586239" lon="-0.433894">
        <ele>1257.0</ele>
        <time>2019-03-26T10:33:02.000Z</time>
      </trkpt>
      <trkpt lat="42.586237" lon="-0.433909">
        <ele>1257.0</ele>
        <time>2019-03-26T10:33:03.000Z</time>
      </trkpt>
      <trkpt lat="42.586235" lon="-0.433925">
        <ele>1257.0</ele>
        <time>2019-03-26T10:33:04.000Z</time>
      </trkpt>
      <trkpt lat="42.586234" lon="-0.433941">
        <ele>1257.0</ele>
        <time>2019-03-26T10:33:05.000Z</time>
      </trkpt>
      <trkpt lat="42.586235" lon="-0.433958">
        <ele>1257.0</ele>
        <time>2019-03-26T10:33:06.000Z</time>
      </trkpt>
      <trkpt lat="42.586236" lon="-0.433975">
        <ele>1258.0</ele>
        <time>2019-03-26T10:33:07.000Z</time>
      </trkpt>
      <trkpt lat="42.586238" lon="-0.433992">
        <ele>1258.0</ele>
        <time>2019-03-26T10:33:08.000Z</time>
      </trkpt>
      <trkpt lat="42.586242" lon="-0.434008">
        <ele>1258.0</ele>
        <time>2019-03-26T10:33:09.000Z</time>
      </trkpt>
      <trkpt lat="42.586247" lon="-0.434023">
        <ele>1258.0</ele>
        <time>2019-03-26T10:33:10.000Z</time>
      </trkpt>
      <trkpt lat="42.586253" lon="-0.434038">
        <ele>1258.0</ele>
        <time>2019-03-26T10:33:11.000Z</time>
      </trkpt>
      <trkpt lat="42.586261" lon="-0.434051">
        <ele>1258.0</ele>
        <time>2019-03-26T10:33:12.000Z</time>
      </trkpt>
      <trkpt lat="42.58627" lon="-0.434062">
        <ele>1258.0</ele>
        <time>2019-03-26T10:33:13.000Z</time>
      </trkpt>
      <trkpt lat="42.58628" lon="-0.434072">
        <ele>1258.0</ele>
        <time>2019-03-26T10:33:14.000Z</time>
      </trkpt>
      <trkpt lat="42.586292" lon="-0.43408">
        <ele>1259.0</ele>
        <time>2019-03-26T10:33:15.000Z</time>
      </trkpt>
      <trkpt lat="42.586303" lon="-0.434087">
        <ele>1259.0</ele>
        <time>2019-03-26T10:33:16.000Z</time>
      </trkpt>
      <trkpt lat="42.586316" lon="-0.434091">
        <ele>1259.0</ele>
        <time>2019-03-26T10:33:17.000Z</time>
      </trkpt>
      <trkpt lat="42.586328" lon="-0.434093">
        <ele>1259.0</ele>
        <time>2019-03-26T10:33:18.000Z</time>
      </trkpt>
      <trkpt lat="42.586341" lon="-0.434094">
        <ele>1259.0</ele>
        <time>2019-03-26T10:33:19.000Z</time>
      </trkpt>
      <trkpt lat="42.586354" lon="-0.434092">
        <ele>1259.0</ele>
        <time>2019-03-26T10:33:20.000Z</time>
      </trkpt>
      <trkpt lat="42.586367" lon="-0.434088">
        <ele>1259.0</ele>
        <time>2019-03-26T10:33:21.000Z</time>
      </trkpt>
      <trkpt lat="42.586379" lon="-0.434082">
        <ele>1259.0</ele>
        <time>2019-03-26T10:33:22.000Z</time>
      </trkpt>
      <trkpt lat="42.586392" lon="-0.434075">
        <ele>1260.0</ele>
        <time>2019-03-26T10:33:23.000Z</time>
      </trkpt>
      <trkpt lat="42.586404" lon="-0.434066">
        <ele>1260.0</ele>
        <time>2019-03-26T10:33:24.000Z</time>
      </trkpt>
      <trkpt lat="42.586416" lon="-0.434056">
        <ele>1260.0</ele>
        <time>2019-03-26T10:33:25.000Z</time>
      </trkpt>
      <trkpt lat="42.586427" lon="-0.434045">
        <ele>1260.0</ele>
        <time>2019-03-26T10:33:26.000Z</time>
      </trkpt>
      <trkpt lat="42.586437" lon="-0.434032">
        <ele>1260.0</ele>
        <time>2019-03-26T10:33:27.000Z</time>
      </trkpt>
      <trkpt lat="42.586447" lon="-0.434019">
        <ele>1260.0</ele>
        <time>2019-03-26T10:33:28.000Z</time>
      </trkpt>
      <trkpt lat="42.586457" lon="-0.434005">
        <ele>1260.0</ele>
        <time>2019-03-26T10:33:29.000Z</time>
      </trkpt>
      <trkpt lat="42.586465" lon="-0.43399">
        <ele>1260.0</ele>
        <time>2019-03-26T10:33:30.000Z</time>
      </trkpt>
      <trkpt lat="42.586473" lon="-0.433975">
        <ele>1260.0</ele>
        <time>2019-03-26T10:33:31.000Z</time>
      </trkpt>
      <trkpt lat="42.586479" lon="-0.433959">
        <ele>1260.0</ele>
        <time>2019-03-26T10:33:32.000Z</time>
      </trkpt>
      <trkpt lat="42.586485" lon="-0.433943">
        <ele>1260.0</ele>
        <time>2019-03-26T10:33:33.000Z</time>
      </trkpt>
      <trkpt lat="42.586489" lon="-0.433927">
        <ele>1261.0</ele>
        <time>2019-03-26T10:33:34.000Z</time>
      </trkpt>
      <trkpt lat="42.586493" lon="-0.43391">
        <ele>1261.0</ele>
        <time>2019-03-26T10:33:35.000Z</time>
      </trkpt>
      <trkpt lat="42.586496" lon="-0.433893">
        <ele>1261.0</ele>
        <time>2019-03-26T10:33:36.000Z</time>
      </trkpt>
      <trkpt lat="42.586499" lon="-0.433876">
        <ele>1261.0</ele>
        <time>2019-03-26T10:33:37.000Z</time>
      </trkpt>
      <trkpt lat="42.586501" lon="-0.433859">
        <ele>1261.0</ele>
        <time>2019-03-26T10:33:38.000Z</time>
      </trkpt>
      <trkpt lat="42.586502" lon="-0.433841">
        <ele>1261.0</ele>
        <time>2019-03-26T10:33:39.000Z</time>
      </trkpt>
      <trkpt lat="42.586503" lon="-0.433824">
        <ele>1261.0</ele>
        <time>2019-03-26T10:33:40.000Z</time>
      </trkpt>
      <trkpt lat="42.586504" lon="-0.433806">
        <ele>1261.0</ele>
        <time>2019-03-26T10:33:41.000Z</time>
      </trkpt>
      <trkpt lat="42.586505" lon="-0.433789">
        <ele>1262.0</ele>
        <time>2019-03-26T10:33:42.000Z</time>
      </trkpt>
      <trkpt lat="42.586505" lon="-0.433771">
        <ele>1262.0</ele>
        <time>2019-03-26T10:33:43.000Z</time>
      </trkpt>
      <trkpt lat="42.586505" lon="-0.433753">
        <ele>1262.0</ele>
        <time>2019-03-26T10:33:44.000Z</time>
      </trkpt>
      <trkpt lat="42.586505" lon="-0.433736">
        <ele>1262.0</ele>
        <time>2019-03-26T10:33:45.000Z</time>
      </trkpt>
      <trkpt lat="42.586505" lon="-0.433718">
        <ele>1262.0</ele>
        <time>2019-03-26T10:33:46.000Z</time>
      </trkpt>
      <trkpt lat="42.586505" lon="-0.433701">
        <ele>1262.0</ele>
        <time>2019-03-26T10:33:47.000Z</time>
      </trkpt>
      <trkpt lat="42.586505" lon="-0.433683">
        <ele>1262.0</ele>
        <time>2019-03-26T10:33:48.000Z</time>
      </trkpt>
      <trkpt lat="42.586505" lon="-0.433666">
        <ele>1262.0</ele>
        <time>2019-03-26T10:33:49.000Z</time>
      </trkpt>
      <trkpt lat="42.586506" lon="-0.433649">
        <ele>1262.0</ele>
        <time>2019-03-26T10:33:50.000Z</time>
      </trkpt>
      <trkpt lat="42.586506" lon="-0.433632">
        <ele>1263.0</ele>
        <time>2019-03-26T10:33:51.000Z</time>
      </trkpt>
      <trkpt lat="42.586507" lon="-0.433615">
        <ele>1263.0</ele>
        <time>2019-03-26T10:33:52.000Z</time>
      </trkpt>
      <trkpt lat="42.586507" lon="-0.433598">
        <ele>1263.0</ele>
        <time>2019-03-26T10:33:53.000Z</time>
      </trkpt>
      <trkpt lat="42.586509" lon="-0.433581">
        <ele>1263.0</ele>
        <time>2019-03-26T10:33:54.000Z</time>
      </trkpt>
      <trkpt lat="42.58651" lon="-0.433565">
        <ele>1263.0</ele>
        <time>2019-03-26T10:33:55.000Z</time>
      </trkpt>
      <trkpt lat="42.586512" lon="-0.433548">
        <ele>1263.0</ele>
        <time>2019-03-26T10:33:56.000Z</time>
      </trkpt>
      <trkpt lat="42.586513" lon="-0.433532">
        <ele>1263.0</ele>
        <time>2019-03-26T10:33:57.000Z</time>
      </trkpt>
      <trkpt lat="42.586516" lon="-0.433515">
        <ele>1263.0</ele>
        <time>2019-03-26T10:33:58.000Z</time>
      </trkpt>
      <trkpt lat="42.586518" lon="-0.433499">
        <ele>1263.0</ele>
        <time>2019-03-26T10:33:59.000Z</time>
      </trkpt>
      <trkpt lat="42.586521" lon="-0.433482">
        <ele>1263.0</ele>
        <time>2019-03-26T10:34:00.000Z</time>
      </trkpt>
      <trkpt lat="42.586524" lon="-0.433467">
        <ele>1263.0</ele>
        <time>2019-03-26T10:34:01.000Z</time>
      </trkpt>
      <trkpt lat="42.586528" lon="-0.433453">
        <ele>1264.0</ele>
        <time>2019-03-26T10:34:02.000Z</time>
      </trkpt>
      <trkpt lat="42.58653" lon="-0.433441">
        <ele>1264.0</ele>
        <time>2019-03-26T10:34:03.000Z</time>
      </trkpt>
      <trkpt lat="42.586533" lon="-0.433431">
        <ele>1264.0</ele>
        <time>2019-03-26T10:34:04.000Z</time>
      </trkpt>
      <trkpt lat="42.586534" lon="-0.433425">
        <ele>1264.0</ele>
        <time>2019-03-26T10:34:05.000Z</time>
      </trkpt>
      <trkpt lat="42.586535" lon="-0.433422">
        <ele>1264.0</ele>
        <time>2019-03-26T10:34:06.000Z</time>
      </trkpt>
      <trkpt lat="42.586535" lon="-0.433422">
        <ele>1264.0</ele>
        <time>2019-03-26T10:34:07.000Z</time>
      </trkpt>
      <trkpt lat="42.58654" lon="-0.433413">
        <ele>1264.0</ele>
        <time>2019-03-26T10:34:08.000Z</time>
      </trkpt>
      <trkpt lat="42.58655" lon="-0.433388">
        <ele>1264.0</ele>
        <time>2019-03-26T10:34:09.000Z</time>
      </trkpt>
      <trkpt lat="42.586558" lon="-0.433363">
        <ele>1265.0</ele>
        <time>2019-03-26T10:34:10.000Z</time>
      </trkpt>
      <trkpt lat="42.586563" lon="-0.433341">
        <ele>1265.0</ele>
        <time>2019-03-26T10:34:11.000Z</time>
      </trkpt>
      <trkpt lat="42.586568" lon="-0.433319">
        <ele>1265.0</ele>
        <time>2019-03-26T10:34:12.000Z</time>
      </trkpt>
      <trkpt lat="42.586572" lon="-0.433299">
        <ele>1265.0</ele>
        <time>2019-03-26T10:34:13.000Z</time>
      </trkpt>
      <trkpt lat="42.586577" lon="-0.433279">
        <ele>1265.0</ele>
        <time>2019-03-26T10:34:14.000Z</time>
      </trkpt>
      <trkpt lat="42.586582" lon="-0.433262">
        <ele>1265.0</ele>
        <time>2019-03-26T10:34:15.000Z</time>
      </trkpt>
      <trkpt lat="42.586586" lon="-0.433248">
        <ele>1266.0</ele>
        <time>2019-03-26T10:34:16.000Z</time>
      </trkpt>
      <trkpt lat="42.586589" lon="-0.433239">
        <ele>1266.0</ele>
        <time>2019-03-26T10:34:17.000Z</time>
      </trkpt>
      <trkpt lat="42.586591" lon="-0.433234">
        <ele>1266.0</ele>
        <time>2019-03-26T10:34:18.000Z</time>
      </trkpt>
      <trkpt lat="42.586591" lon="-0.433233">
        <ele>1266.0</ele>
        <time>2019-03-26T10:34:19.000Z</time>
      </trkpt>
      <trkpt lat="42.586591" lon="-0.433233">
        <ele>1266.0</ele>
        <time>2019-03-26T10:34:20.000Z</time>
      </trkpt>
      <trkpt lat="42.586592" lon="-0.433231">
        <ele>1266.0</ele>
        <time>2019-03-26T10:34:21.000Z</time>
      </trkpt>
      <trkpt lat="42.586593" lon="-0.433223">
        <ele>1266.0</ele>
        <time>2019-03-26T10:34:22.000Z</time>
      </trkpt>
      <trkpt lat="42.586597" lon="-0.433205">
        <ele>1266.0</ele>
        <time>2019-03-26T10:34:23.000Z</time>
      </trkpt>
      <trkpt lat="42.586602" lon="-0.433178">
        <ele>1267.0</ele>
        <time>2019-03-26T10:34:24.000Z</time>
      </trkpt>
      <trkpt lat="42.586605" lon="-0.433163">
        <ele>1267.0</ele>
        <time>2019-03-26T10:34:25.000Z</time>
      </trkpt>
      <trkpt lat="42.586611" lon="-0.433135">
        <ele>1267.0</ele>
        <time>2019-03-26T10:34:26.000Z</time>
      </trkpt>
      <trkpt lat="42.586618" lon="-0.433104">
        <ele>1267.0</ele>
        <time>2019-03-26T10:34:27.000Z</time>
      </trkpt>
      <trkpt lat="42.586624" lon="-0.433076">
        <ele>1267.0</ele>
        <time>2019-03-26T10:34:28.000Z</time>
      </trkpt>
      <trkpt lat="42.586628" lon="-0.433056">
        <ele>1267.0</ele>
        <time>2019-03-26T10:34:29.000Z</time>
      </trkpt>
      <trkpt lat="42.586631" lon="-0.43304">
        <ele>1267.0</ele>
        <time>2019-03-26T10:34:30.000Z</time>
      </trkpt>
      <trkpt lat="42.586634" lon="-0.433024">
        <ele>1267.0</ele>
        <time>2019-03-26T10:34:31.000Z</time>
      </trkpt>
      <trkpt lat="42.586637" lon="-0.433009">
        <ele>1267.0</ele>
        <time>2019-03-26T10:34:32.000Z</time>
      </trkpt>
      <trkpt lat="42.58664" lon="-0.432993">
        <ele>1268.0</ele>
        <time>2019-03-26T10:34:33.000Z</time>
      </trkpt>
      <trkpt lat="42.586644" lon="-0.432977">
        <ele>1268.0</ele>
        <time>2019-03-26T10:34:34.000Z</time>
      </trkpt>
      <trkpt lat="42.586647" lon="-0.43296">
        <ele>1268.0</ele>
        <time>2019-03-26T10:34:35.000Z</time>
      </trkpt>
      <trkpt lat="42.58665" lon="-0.432944">
        <ele>1268.0</ele>
        <time>2019-03-26T10:34:36.000Z</time>
      </trkpt>
      <trkpt lat="42.586654" lon="-0.432927">
        <ele>1268.0</ele>
        <time>2019-03-26T10:34:37.000Z</time>
      </trkpt>
      <trkpt lat="42.586657" lon="-0.432909">
        <ele>1268.0</ele>
        <time>2019-03-26T10:34:38.000Z</time>
      </trkpt>
      <trkpt lat="42.58666" lon="-0.432892">
        <ele>1268.0</ele>
        <time>2019-03-26T10:34:39.000Z</time>
      </trkpt>
      <trkpt lat="42.586664" lon="-0.432875">
        <ele>1268.0</ele>
        <time>2019-03-26T10:34:40.000Z</time>
      </trkpt>
      <trkpt lat="42.586667" lon="-0.432858">
        <ele>1269.0</ele>
        <time>2019-03-26T10:34:41.000Z</time>
      </trkpt>
      <trkpt lat="42.58667" lon="-0.432841">
        <ele>1269.0</ele>
        <time>2019-03-26T10:34:42.000Z</time>
      </trkpt>
      <trkpt lat="42.586674" lon="-0.432825">
        <ele>1269.0</ele>
        <time>2019-03-26T10:34:43.000Z</time>
      </trkpt>
      <trkpt lat="42.586677" lon="-0.432808">
        <ele>1269.0</ele>
        <time>2019-03-26T10:34:44.000Z</time>
      </trkpt>
      <trkpt lat="42.586681" lon="-0.432792">
        <ele>1269.0</ele>
        <time>2019-03-26T10:34:45.000Z</time>
      </trkpt>
      <trkpt lat="42.586685" lon="-0.432776">
        <ele>1269.0</ele>
        <time>2019-03-26T10:34:46.000Z</time>
      </trkpt>
      <trkpt lat="42.586689" lon="-0.43276">
        <ele>1269.0</ele>
        <time>2019-03-26T10:34:47.000Z</time>
      </trkpt>
      <trkpt lat="42.586694" lon="-0.432744">
        <ele>1270.0</ele>
        <time>2019-03-26T10:34:48.000Z</time>
      </trkpt>
      <trkpt lat="42.586699" lon="-0.432728">
        <ele>1270.0</ele>
        <time>2019-03-26T10:34:49.000Z</time>
      </trkpt>
      <trkpt lat="42.586704" lon="-0.432712">
        <ele>1270.0</ele>
        <time>2019-03-26T10:34:50.000Z</time>
      </trkpt>
      <trkpt lat="42.58671" lon="-0.432696">
        <ele>1270.0</ele>
        <time>2019-03-26T10:34:51.000Z</time>
      </trkpt>
      <trkpt lat="42.586717" lon="-0.432681">
        <ele>1270.0</ele>
        <time>2019-03-26T10:34:52.000Z</time>
      </trkpt>
      <trkpt lat="42.586724" lon="-0.432665">
        <ele>1270.0</ele>
        <time>2019-03-26T10:34:53.000Z</time>
      </trkpt>
      <trkpt lat="42.586732" lon="-0.43265">
        <ele>1270.0</ele>
        <time>2019-03-26T10:34:54.000Z</time>
      </trkpt>
      <trkpt lat="42.58674" lon="-0.432634">
        <ele>1270.0</ele>
        <time>2019-03-26T10:34:55.000Z</time>
      </trkpt>
      <trkpt lat="42.586749" lon="-0.432619">
        <ele>1271.0</ele>
        <time>2019-03-26T10:34:56.000Z</time>
      </trkpt>
      <trkpt lat="42.586757" lon="-0.432604">
        <ele>1271.0</ele>
        <time>2019-03-26T10:34:57.000Z</time>
      </trkpt>
      <trkpt lat="42.586766" lon="-0.432589">
        <ele>1271.0</ele>
        <time>2019-03-26T10:34:58.000Z</time>
      </trkpt>
      <trkpt lat="42.586774" lon="-0.432574">
        <ele>1271.0</ele>
        <time>2019-03-26T10:34:59.000Z</time>
      </trkpt>
      <trkpt lat="42.58678" lon="-0.43256">
        <ele>1271.0</ele>
        <time>2019-03-26T10:35:00.000Z</time>
      </trkpt>
      <trkpt lat="42.586786" lon="-0.432546">
        <ele>1271.0</ele>
        <time>2019-03-26T10:35:01.000Z</time>
      </trkpt>
      <trkpt lat="42.58679" lon="-0.432532">
        <ele>1271.0</ele>
        <time>2019-03-26T10:35:02.000Z</time>
      </trkpt>
      <trkpt lat="42.586793" lon="-0.432519">
        <ele>1271.0</ele>
        <time>2019-03-26T10:35:03.000Z</time>
      </trkpt>
      <trkpt lat="42.586794" lon="-0.432506">
        <ele>1271.0</ele>
        <time>2019-03-26T10:35:04.000Z</time>
      </trkpt>
      <trkpt lat="42.586794" lon="-0.432493">
        <ele>1272.0</ele>
        <time>2019-03-26T10:35:05.000Z</time>
      </trkpt>
      <trkpt lat="42.586794" lon="-0.43248">
        <ele>1272.0</ele>
        <time>2019-03-26T10:35:06.000Z</time>
      </trkpt>
      <trkpt lat="42.586793" lon="-0.432463">
        <ele>1272.0</ele>
        <time>2019-03-26T10:35:07.000Z</time>
      </trkpt>
      <trkpt lat="42.586794" lon="-0.432441">
        <ele>1272.0</ele>
        <time>2019-03-26T10:35:08.000Z</time>
      </trkpt>
      <trkpt lat="42.586795" lon="-0.43242">
        <ele>1272.0</ele>
        <time>2019-03-26T10:35:09.000Z</time>
      </trkpt>
      <trkpt lat="42.586797" lon="-0.432399">
        <ele>1272.0</ele>
        <time>2019-03-26T10:35:10.000Z</time>
      </trkpt>
      <trkpt lat="42.5868" lon="-0.43238">
        <ele>1272.0</ele>
        <time>2019-03-26T10:35:11.000Z</time>
      </trkpt>
      <trkpt lat="42.586803" lon="-0.432361">
        <ele>1273.0</ele>
        <time>2019-03-26T10:35:12.000Z</time>
      </trkpt>
      <trkpt lat="42.586806" lon="-0.432343">
        <ele>1273.0</ele>
        <time>2019-03-26T10:35:13.000Z</time>
      </trkpt>
      <trkpt lat="42.586809" lon="-0.432326">
        <ele>1273.0</ele>
        <time>2019-03-26T10:35:14.000Z</time>
      </trkpt>
      <trkpt lat="42.586812" lon="-0.432308">
        <ele>1273.0</ele>
        <time>2019-03-26T10:35:15.000Z</time>
      </trkpt>
      <trkpt lat="42.586815" lon="-0.432291">
        <ele>1273.0</ele>
        <time>2019-03-26T10:35:16.000Z</time>
      </trkpt>
      <trkpt lat="42.586818" lon="-0.432274">
        <ele>1273.0</ele>
        <time>2019-03-26T10:35:17.000Z</time>
      </trkpt>
      <trkpt lat="42.58682" lon="-0.432257">
        <ele>1273.0</ele>
        <time>2019-03-26T10:35:18.000Z</time>
      </trkpt>
      <trkpt lat="42.586823" lon="-0.43224">
        <ele>1273.0</ele>
        <time>2019-03-26T10:35:19.000Z</time>
      </trkpt>
      <trkpt lat="42.586827" lon="-0.432224">
        <ele>1274.0</ele>
        <time>2019-03-26T10:35:20.000Z</time>
      </trkpt>
      <trkpt lat="42.58683" lon="-0.432207">
        <ele>1274.0</ele>
        <time>2019-03-26T10:35:21.000Z</time>
      </trkpt>
      <trkpt lat="42.586834" lon="-0.43219">
        <ele>1274.0</ele>
        <time>2019-03-26T10:35:22.000Z</time>
      </trkpt>
      <trkpt lat="42.586839" lon="-0.432174">
        <ele>1274.0</ele>
        <time>2019-03-26T10:35:23.000Z</time>
      </trkpt>
      <trkpt lat="42.586844" lon="-0.432157">
        <ele>1274.0</ele>
        <time>2019-03-26T10:35:24.000Z</time>
      </trkpt>
      <trkpt lat="42.58685" lon="-0.432141">
        <ele>1274.0</ele>
        <time>2019-03-26T10:35:25.000Z</time>
      </trkpt>
      <trkpt lat="42.586856" lon="-0.432125">
        <ele>1274.0</ele>
        <time>2019-03-26T10:35:26.000Z</time>
      </trkpt>
      <trkpt lat="42.586862" lon="-0.432108">
        <ele>1274.0</ele>
        <time>2019-03-26T10:35:27.000Z</time>
      </trkpt>
      <trkpt lat="42.586868" lon="-0.432092">
        <ele>1274.0</ele>
        <time>2019-03-26T10:35:28.000Z</time>
      </trkpt>
      <trkpt lat="42.586875" lon="-0.432076">
        <ele>1274.0</ele>
        <time>2019-03-26T10:35:29.000Z</time>
      </trkpt>
      <trkpt lat="42.586882" lon="-0.43206">
        <ele>1275.0</ele>
        <time>2019-03-26T10:35:30.000Z</time>
      </trkpt>
      <trkpt lat="42.586888" lon="-0.432044">
        <ele>1275.0</ele>
        <time>2019-03-26T10:35:31.000Z</time>
      </trkpt>
      <trkpt lat="42.586895" lon="-0.432028">
        <ele>1275.0</ele>
        <time>2019-03-26T10:35:32.000Z</time>
      </trkpt>
      <trkpt lat="42.586902" lon="-0.432012">
        <ele>1275.0</ele>
        <time>2019-03-26T10:35:33.000Z</time>
      </trkpt>
      <trkpt lat="42.586908" lon="-0.431996">
        <ele>1275.0</ele>
        <time>2019-03-26T10:35:34.000Z</time>
      </trkpt>
      <trkpt lat="42.586915" lon="-0.43198">
        <ele>1275.0</ele>
        <time>2019-03-26T10:35:35.000Z</time>
      </trkpt>
      <trkpt lat="42.586921" lon="-0.431964">
        <ele>1275.0</ele>
        <time>2019-03-26T10:35:36.000Z</time>
      </trkpt>
      <trkpt lat="42.586927" lon="-0.431948">
        <ele>1275.0</ele>
        <time>2019-03-26T10:35:37.000Z</time>
      </trkpt>
      <trkpt lat="42.586933" lon="-0.431932">
        <ele>1276.0</ele>
        <time>2019-03-26T10:35:38.000Z</time>
      </trkpt>
      <trkpt lat="42.586938" lon="-0.431916">
        <ele>1276.0</ele>
        <time>2019-03-26T10:35:39.000Z</time>
      </trkpt>
      <trkpt lat="42.586942" lon="-0.4319">
        <ele>1276.0</ele>
        <time>2019-03-26T10:35:40.000Z</time>
      </trkpt>
      <trkpt lat="42.586947" lon="-0.431884">
        <ele>1276.0</ele>
        <time>2019-03-26T10:35:41.000Z</time>
      </trkpt>
      <trkpt lat="42.58695" lon="-0.431868">
        <ele>1276.0</ele>
        <time>2019-03-26T10:35:42.000Z</time>
      </trkpt>
      <trkpt lat="42.586953" lon="-0.431852">
        <ele>1276.0</ele>
        <time>2019-03-26T10:35:43.000Z</time>
      </trkpt>
      <trkpt lat="42.586956" lon="-0.431836">
        <ele>1276.0</ele>
        <time>2019-03-26T10:35:44.000Z</time>
      </trkpt>
      <trkpt lat="42.586957" lon="-0.43182">
        <ele>1276.0</ele>
        <time>2019-03-26T10:35:45.000Z</time>
      </trkpt>
      <trkpt lat="42.586958" lon="-0.431804">
        <ele>1276.0</ele>
        <time>2019-03-26T10:35:46.000Z</time>
      </trkpt>
      <trkpt lat="42.586958" lon="-0.431788">
        <ele>1276.0</ele>
        <time>2019-03-26T10:35:47.000Z</time>
      </trkpt>
      <trkpt lat="42.586957" lon="-0.431772">
        <ele>1277.0</ele>
        <time>2019-03-26T10:35:48.000Z</time>
      </trkpt>
      <trkpt lat="42.586955" lon="-0.431756">
        <ele>1277.0</ele>
        <time>2019-03-26T10:35:49.000Z</time>
      </trkpt>
      <trkpt lat="42.586952" lon="-0.431739">
        <ele>1277.0</ele>
        <time>2019-03-26T10:35:50.000Z</time>
      </trkpt>
      <trkpt lat="42.586949" lon="-0.431723">
        <ele>1277.0</ele>
        <time>2019-03-26T10:35:51.000Z</time>
      </trkpt>
      <trkpt lat="42.586944" lon="-0.431706">
        <ele>1277.0</ele>
        <time>2019-03-26T10:35:52.000Z</time>
      </trkpt>
      <trkpt lat="42.58694" lon="-0.431689">
        <ele>1277.0</ele>
        <time>2019-03-26T10:35:53.000Z</time>
      </trkpt>
      <trkpt lat="42.586936" lon="-0.431671">
        <ele>1277.0</ele>
        <time>2019-03-26T10:35:54.000Z</time>
      </trkpt>
      <trkpt lat="42.586932" lon="-0.431652">
        <ele>1277.0</ele>
        <time>2019-03-26T10:35:55.000Z</time>
      </trkpt>
      <trkpt lat="42.586928" lon="-0.431633">
        <ele>1277.0</ele>
        <time>2019-03-26T10:35:56.000Z</time>
      </trkpt>
      <trkpt lat="42.586925" lon="-0.431613">
        <ele>1278.0</ele>
        <time>2019-03-26T10:35:57.000Z</time>
      </trkpt>
      <trkpt lat="42.586923" lon="-0.431592">
        <ele>1278.0</ele>
        <time>2019-03-26T10:35:58.000Z</time>
      </trkpt>
      <trkpt lat="42.586921" lon="-0.431571">
        <ele>1278.0</ele>
        <time>2019-03-26T10:35:59.000Z</time>
      </trkpt>
      <trkpt lat="42.58692" lon="-0.43155">
        <ele>1278.0</ele>
        <time>2019-03-26T10:36:00.000Z</time>
      </trkpt>
      <trkpt lat="42.586919" lon="-0.431529">
        <ele>1278.0</ele>
        <time>2019-03-26T10:36:01.000Z</time>
      </trkpt>
      <trkpt lat="42.586917" lon="-0.431508">
        <ele>1278.0</ele>
        <time>2019-03-26T10:36:02.000Z</time>
      </trkpt>
      <trkpt lat="42.586916" lon="-0.431487">
        <ele>1278.0</ele>
        <time>2019-03-26T10:36:03.000Z</time>
      </trkpt>
      <trkpt lat="42.586914" lon="-0.431467">
        <ele>1278.0</ele>
        <time>2019-03-26T10:36:04.000Z</time>
      </trkpt>
      <trkpt lat="42.586911" lon="-0.431448">
        <ele>1279.0</ele>
        <time>2019-03-26T10:36:05.000Z</time>
      </trkpt>
      <trkpt lat="42.586908" lon="-0.43143">
        <ele>1279.0</ele>
        <time>2019-03-26T10:36:06.000Z</time>
      </trkpt>
      <trkpt lat="42.586905" lon="-0.431412">
        <ele>1279.0</ele>
        <time>2019-03-26T10:36:07.000Z</time>
      </trkpt>
      <trkpt lat="42.586901" lon="-0.431395">
        <ele>1279.0</ele>
        <time>2019-03-26T10:36:08.000Z</time>
      </trkpt>
      <trkpt lat="42.586897" lon="-0.431378">
        <ele>1279.0</ele>
        <time>2019-03-26T10:36:09.000Z</time>
      </trkpt>
      <trkpt lat="42.586892" lon="-0.431362">
        <ele>1279.0</ele>
        <time>2019-03-26T10:36:10.000Z</time>
      </trkpt>
      <trkpt lat="42.586887" lon="-0.431346">
        <ele>1279.0</ele>
        <time>2019-03-26T10:36:11.000Z</time>
      </trkpt>
      <trkpt lat="42.586882" lon="-0.431331">
        <ele>1279.0</ele>
        <time>2019-03-26T10:36:12.000Z</time>
      </trkpt>
      <trkpt lat="42.586877" lon="-0.431316">
        <ele>1279.0</ele>
        <time>2019-03-26T10:36:13.000Z</time>
      </trkpt>
      <trkpt lat="42.586871" lon="-0.431301">
        <ele>1280.0</ele>
        <time>2019-03-26T10:36:14.000Z</time>
      </trkpt>
      <trkpt lat="42.586866" lon="-0.431286">
        <ele>1280.0</ele>
        <time>2019-03-26T10:36:15.000Z</time>
      </trkpt>
      <trkpt lat="42.58686" lon="-0.431271">
        <ele>1280.0</ele>
        <time>2019-03-26T10:36:16.000Z</time>
      </trkpt>
      <trkpt lat="42.586854" lon="-0.431256">
        <ele>1280.0</ele>
        <time>2019-03-26T10:36:17.000Z</time>
      </trkpt>
      <trkpt lat="42.586848" lon="-0.431241">
        <ele>1280.0</ele>
        <time>2019-03-26T10:36:18.000Z</time>
      </trkpt>
      <trkpt lat="42.586842" lon="-0.431225">
        <ele>1280.0</ele>
        <time>2019-03-26T10:36:19.000Z</time>
      </trkpt>
      <trkpt lat="42.586836" lon="-0.431209">
        <ele>1280.0</ele>
        <time>2019-03-26T10:36:20.000Z</time>
      </trkpt>
      <trkpt lat="42.586831" lon="-0.431191">
        <ele>1280.0</ele>
        <time>2019-03-26T10:36:21.000Z</time>
      </trkpt>
      <trkpt lat="42.586825" lon="-0.431172">
        <ele>1280.0</ele>
        <time>2019-03-26T10:36:22.000Z</time>
      </trkpt>
      <trkpt lat="42.58682" lon="-0.431152">
        <ele>1281.0</ele>
        <time>2019-03-26T10:36:23.000Z</time>
      </trkpt>
      <trkpt lat="42.586816" lon="-0.43113">
        <ele>1281.0</ele>
        <time>2019-03-26T10:36:24.000Z</time>
      </trkpt>
      <trkpt lat="42.586812" lon="-0.431107">
        <ele>1281.0</ele>
        <time>2019-03-26T10:36:25.000Z</time>
      </trkpt>
      <trkpt lat="42.586808" lon="-0.431084">
        <ele>1280.0</ele>
        <time>2019-03-26T10:36:26.000Z</time>
      </trkpt>
      <trkpt lat="42.586805" lon="-0.431061">
        <ele>1281.0</ele>
        <time>2019-03-26T10:36:27.000Z</time>
      </trkpt>
      <trkpt lat="42.586803" lon="-0.43104">
        <ele>1281.0</ele>
        <time>2019-03-26T10:36:28.000Z</time>
      </trkpt>
      <trkpt lat="42.586801" lon="-0.43102">
        <ele>1281.0</ele>
        <time>2019-03-26T10:36:29.000Z</time>
      </trkpt>
      <trkpt lat="42.5868" lon="-0.431002">
        <ele>1281.0</ele>
        <time>2019-03-26T10:36:30.000Z</time>
      </trkpt>
      <trkpt lat="42.5868" lon="-0.430988">
        <ele>1281.0</ele>
        <time>2019-03-26T10:36:31.000Z</time>
      </trkpt>
      <trkpt lat="42.5868" lon="-0.430977">
        <ele>1281.0</ele>
        <time>2019-03-26T10:36:32.000Z</time>
      </trkpt>
      <trkpt lat="42.5868" lon="-0.430972">
        <ele>1281.0</ele>
        <time>2019-03-26T10:36:33.000Z</time>
      </trkpt>
      <trkpt lat="42.5868" lon="-0.430971">
        <ele>1281.0</ele>
        <time>2019-03-26T10:36:34.000Z</time>
      </trkpt>
      <trkpt lat="42.5868" lon="-0.430971">
        <ele>1281.0</ele>
        <time>2019-03-26T10:36:35.000Z</time>
      </trkpt>
      <trkpt lat="42.5868" lon="-0.430954">
        <ele>1281.0</ele>
        <time>2019-03-26T10:36:36.000Z</time>
      </trkpt>
      <trkpt lat="42.586799" lon="-0.430935">
        <ele>1281.0</ele>
        <time>2019-03-26T10:36:37.000Z</time>
      </trkpt>
      <trkpt lat="42.586798" lon="-0.430916">
        <ele>1281.0</ele>
        <time>2019-03-26T10:36:38.000Z</time>
      </trkpt>
      <trkpt lat="42.586798" lon="-0.430895">
        <ele>1281.0</ele>
        <time>2019-03-26T10:36:39.000Z</time>
      </trkpt>
      <trkpt lat="42.586798" lon="-0.430874">
        <ele>1282.0</ele>
        <time>2019-03-26T10:36:40.000Z</time>
      </trkpt>
      <trkpt lat="42.586799" lon="-0.430854">
        <ele>1282.0</ele>
        <time>2019-03-26T10:36:41.000Z</time>
      </trkpt>
      <trkpt lat="42.586799" lon="-0.430836">
        <ele>1282.0</ele>
        <time>2019-03-26T10:36:42.000Z</time>
      </trkpt>
      <trkpt lat="42.5868" lon="-0.430822">
        <ele>1282.0</ele>
        <time>2019-03-26T10:36:43.000Z</time>
      </trkpt>
      <trkpt lat="42.5868" lon="-0.430811">
        <ele>1282.0</ele>
        <time>2019-03-26T10:36:44.000Z</time>
      </trkpt>
      <trkpt lat="42.586801" lon="-0.430806">
        <ele>1282.0</ele>
        <time>2019-03-26T10:36:45.000Z</time>
      </trkpt>
      <trkpt lat="42.586801" lon="-0.430804">
        <ele>1282.0</ele>
        <time>2019-03-26T10:36:46.000Z</time>
      </trkpt>
      <trkpt lat="42.586801" lon="-0.430804">
        <ele>1283.0</ele>
        <time>2019-03-26T10:36:47.000Z</time>
      </trkpt>
      <trkpt lat="42.586801" lon="-0.430803">
        <ele>1283.0</ele>
        <time>2019-03-26T10:36:48.000Z</time>
      </trkpt>
      <trkpt lat="42.586802" lon="-0.430799">
        <ele>1283.0</ele>
        <time>2019-03-26T10:36:49.000Z</time>
      </trkpt>
      <trkpt lat="42.586803" lon="-0.43079">
        <ele>1283.0</ele>
        <time>2019-03-26T10:36:50.000Z</time>
      </trkpt>
      <trkpt lat="42.586806" lon="-0.430769">
        <ele>1283.0</ele>
        <time>2019-03-26T10:36:51.000Z</time>
      </trkpt>
      <trkpt lat="42.586808" lon="-0.430721">
        <ele>1283.0</ele>
        <time>2019-03-26T10:36:52.000Z</time>
      </trkpt>
      <trkpt lat="42.586809" lon="-0.430685">
        <ele>1283.0</ele>
        <time>2019-03-26T10:36:53.000Z</time>
      </trkpt>
      <trkpt lat="42.586811" lon="-0.430656">
        <ele>1283.0</ele>
        <time>2019-03-26T10:36:54.000Z</time>
      </trkpt>
      <trkpt lat="42.586812" lon="-0.430634">
        <ele>1284.0</ele>
        <time>2019-03-26T10:36:55.000Z</time>
      </trkpt>
      <trkpt lat="42.586813" lon="-0.430619">
        <ele>1284.0</ele>
        <time>2019-03-26T10:36:56.000Z</time>
      </trkpt>
      <trkpt lat="42.586813" lon="-0.430611">
        <ele>1284.0</ele>
        <time>2019-03-26T10:36:57.000Z</time>
      </trkpt>
      <trkpt lat="42.586814" lon="-0.430608">
        <ele>1284.0</ele>
        <time>2019-03-26T10:36:58.000Z</time>
      </trkpt>
      <trkpt lat="42.586814" lon="-0.430607">
        <ele>1284.0</ele>
        <time>2019-03-26T10:36:59.000Z</time>
      </trkpt>
      <trkpt lat="42.586814" lon="-0.430606">
        <ele>1284.0</ele>
        <time>2019-03-26T10:37:00.000Z</time>
      </trkpt>
      <trkpt lat="42.586814" lon="-0.430606">
        <ele>1284.0</ele>
        <time>2019-03-26T10:37:01.000Z</time>
      </trkpt>
      <trkpt lat="42.586814" lon="-0.430603">
        <ele>1284.0</ele>
        <time>2019-03-26T10:37:02.000Z</time>
      </trkpt>
      <trkpt lat="42.586815" lon="-0.430596">
        <ele>1285.0</ele>
        <time>2019-03-26T10:37:03.000Z</time>
      </trkpt>
      <trkpt lat="42.586816" lon="-0.430579">
        <ele>1285.0</ele>
        <time>2019-03-26T10:37:04.000Z</time>
      </trkpt>
      <trkpt lat="42.586817" lon="-0.430547">
        <ele>1285.0</ele>
        <time>2019-03-26T10:37:05.000Z</time>
      </trkpt>
      <trkpt lat="42.586819" lon="-0.430506">
        <ele>1285.0</ele>
        <time>2019-03-26T10:37:06.000Z</time>
      </trkpt>
      <trkpt lat="42.586819" lon="-0.430473">
        <ele>1285.0</ele>
        <time>2019-03-26T10:37:07.000Z</time>
      </trkpt>
      <trkpt lat="42.586817" lon="-0.430448">
        <ele>1286.0</ele>
        <time>2019-03-26T10:37:08.000Z</time>
      </trkpt>
      <trkpt lat="42.586813" lon="-0.430428">
        <ele>1286.0</ele>
        <time>2019-03-26T10:37:09.000Z</time>
      </trkpt>
      <trkpt lat="42.586809" lon="-0.43041">
        <ele>1286.0</ele>
        <time>2019-03-26T10:37:10.000Z</time>
      </trkpt>
      <trkpt lat="42.586804" lon="-0.430393">
        <ele>1286.0</ele>
        <time>2019-03-26T10:37:11.000Z</time>
      </trkpt>
      <trkpt lat="42.586801" lon="-0.430376">
        <ele>1286.0</ele>
        <time>2019-03-26T10:37:12.000Z</time>
      </trkpt>
      <trkpt lat="42.586799" lon="-0.43036">
        <ele>1286.0</ele>
        <time>2019-03-26T10:37:13.000Z</time>
      </trkpt>
      <trkpt lat="42.586797" lon="-0.430343">
        <ele>1286.0</ele>
        <time>2019-03-26T10:37:14.000Z</time>
      </trkpt>
      <trkpt lat="42.586796" lon="-0.430327">
        <ele>1287.0</ele>
        <time>2019-03-26T10:37:15.000Z</time>
      </trkpt>
      <trkpt lat="42.586796" lon="-0.43031">
        <ele>1287.0</ele>
        <time>2019-03-26T10:37:16.000Z</time>
      </trkpt>
      <trkpt lat="42.586796" lon="-0.430294">
        <ele>1287.0</ele>
        <time>2019-03-26T10:37:17.000Z</time>
      </trkpt>
      <trkpt lat="42.586796" lon="-0.430278">
        <ele>1287.0</ele>
        <time>2019-03-26T10:37:18.000Z</time>
      </trkpt>
      <trkpt lat="42.586797" lon="-0.430261">
        <ele>1287.0</ele>
        <time>2019-03-26T10:37:19.000Z</time>
      </trkpt>
      <trkpt lat="42.586797" lon="-0.430245">
        <ele>1287.0</ele>
        <time>2019-03-26T10:37:20.000Z</time>
      </trkpt>
      <trkpt lat="42.586798" lon="-0.430229">
        <ele>1287.0</ele>
        <time>2019-03-26T10:37:21.000Z</time>
      </trkpt>
      <trkpt lat="42.586798" lon="-0.430212">
        <ele>1288.0</ele>
        <time>2019-03-26T10:37:22.000Z</time>
      </trkpt>
      <trkpt lat="42.586798" lon="-0.430196">
        <ele>1288.0</ele>
        <time>2019-03-26T10:37:23.000Z</time>
      </trkpt>
      <trkpt lat="42.586798" lon="-0.430179">
        <ele>1288.0</ele>
        <time>2019-03-26T10:37:24.000Z</time>
      </trkpt>
      <trkpt lat="42.586797" lon="-0.430163">
        <ele>1288.0</ele>
        <time>2019-03-26T10:37:25.000Z</time>
      </trkpt>
      <trkpt lat="42.586795" lon="-0.430147">
        <ele>1288.0</ele>
        <time>2019-03-26T10:37:26.000Z</time>
      </trkpt>
      <trkpt lat="42.586793" lon="-0.43013">
        <ele>1288.0</ele>
        <time>2019-03-26T10:37:27.000Z</time>
      </trkpt>
      <trkpt lat="42.58679" lon="-0.430114">
        <ele>1288.0</ele>
        <time>2019-03-26T10:37:28.000Z</time>
      </trkpt>
      <trkpt lat="42.586787" lon="-0.430097">
        <ele>1288.0</ele>
        <time>2019-03-26T10:37:29.000Z</time>
      </trkpt>
      <trkpt lat="42.586783" lon="-0.430081">
        <ele>1288.0</ele>
        <time>2019-03-26T10:37:30.000Z</time>
      </trkpt>
      <trkpt lat="42.586779" lon="-0.430064">
        <ele>1288.0</ele>
        <time>2019-03-26T10:37:31.000Z</time>
      </trkpt>
      <trkpt lat="42.586774" lon="-0.430047">
        <ele>1289.0</ele>
        <time>2019-03-26T10:37:32.000Z</time>
      </trkpt>
      <trkpt lat="42.586769" lon="-0.430031">
        <ele>1289.0</ele>
        <time>2019-03-26T10:37:33.000Z</time>
      </trkpt>
      <trkpt lat="42.586764" lon="-0.430014">
        <ele>1289.0</ele>
        <time>2019-03-26T10:37:34.000Z</time>
      </trkpt>
      <trkpt lat="42.586759" lon="-0.429997">
        <ele>1289.0</ele>
        <time>2019-03-26T10:37:35.000Z</time>
      </trkpt>
      <trkpt lat="42.586754" lon="-0.42998">
        <ele>1289.0</ele>
        <time>2019-03-26T10:37:36.000Z</time>
      </trkpt>
      <trkpt lat="42.586749" lon="-0.429963">
        <ele>1289.0</ele>
        <time>2019-03-26T10:37:37.000Z</time>
      </trkpt>
      <trkpt lat="42.586744" lon="-0.429946">
        <ele>1289.0</ele>
        <time>2019-03-26T10:37:38.000Z</time>
      </trkpt>
      <trkpt lat="42.586739" lon="-0.429929">
        <ele>1289.0</ele>
        <time>2019-03-26T10:37:39.000Z</time>
      </trkpt>
      <trkpt lat="42.586734" lon="-0.429911">
        <ele>1289.0</ele>
        <time>2019-03-26T10:37:40.000Z</time>
      </trkpt>
      <trkpt lat="42.586729" lon="-0.429894">
        <ele>1289.0</ele>
        <time>2019-03-26T10:37:41.000Z</time>
      </trkpt>
      <trkpt lat="42.586724" lon="-0.429877">
        <ele>1290.0</ele>
        <time>2019-03-26T10:37:42.000Z</time>
      </trkpt>
      <trkpt lat="42.586719" lon="-0.429859">
        <ele>1290.0</ele>
        <time>2019-03-26T10:37:43.000Z</time>
      </trkpt>
      <trkpt lat="42.586715" lon="-0.429841">
        <ele>1290.0</ele>
        <time>2019-03-26T10:37:44.000Z</time>
      </trkpt>
      <trkpt lat="42.58671" lon="-0.429824">
        <ele>1290.0</ele>
        <time>2019-03-26T10:37:45.000Z</time>
      </trkpt>
      <trkpt lat="42.586706" lon="-0.429806">
        <ele>1290.0</ele>
        <time>2019-03-26T10:37:46.000Z</time>
      </trkpt>
      <trkpt lat="42.586701" lon="-0.429788">
        <ele>1290.0</ele>
        <time>2019-03-26T10:37:47.000Z</time>
      </trkpt>
      <trkpt lat="42.586697" lon="-0.429771">
        <ele>1290.0</ele>
        <time>2019-03-26T10:37:48.000Z</time>
      </trkpt>
      <trkpt lat="42.586692" lon="-0.429753">
        <ele>1290.0</ele>
        <time>2019-03-26T10:37:49.000Z</time>
      </trkpt>
      <trkpt lat="42.586688" lon="-0.429735">
        <ele>1290.0</ele>
        <time>2019-03-26T10:37:50.000Z</time>
      </trkpt>
      <trkpt lat="42.586683" lon="-0.429717">
        <ele>1290.0</ele>
        <time>2019-03-26T10:37:51.000Z</time>
      </trkpt>
      <trkpt lat="42.586678" lon="-0.429699">
        <ele>1290.0</ele>
        <time>2019-03-26T10:37:52.000Z</time>
      </trkpt>
      <trkpt lat="42.586673" lon="-0.429681">
        <ele>1291.0</ele>
        <time>2019-03-26T10:37:53.000Z</time>
      </trkpt>
      <trkpt lat="42.586668" lon="-0.429663">
        <ele>1290.0</ele>
        <time>2019-03-26T10:37:54.000Z</time>
      </trkpt>
      <trkpt lat="42.586663" lon="-0.429645">
        <ele>1290.0</ele>
        <time>2019-03-26T10:37:55.000Z</time>
      </trkpt>
      <trkpt lat="42.586658" lon="-0.429627">
        <ele>1291.0</ele>
        <time>2019-03-26T10:37:56.000Z</time>
      </trkpt>
      <trkpt lat="42.586653" lon="-0.429609">
        <ele>1291.0</ele>
        <time>2019-03-26T10:37:57.000Z</time>
      </trkpt>
      <trkpt lat="42.586648" lon="-0.429591">
        <ele>1291.0</ele>
        <time>2019-03-26T10:37:58.000Z</time>
      </trkpt>
      <trkpt lat="42.586643" lon="-0.429572">
        <ele>1291.0</ele>
        <time>2019-03-26T10:37:59.000Z</time>
      </trkpt>
      <trkpt lat="42.586638" lon="-0.429554">
        <ele>1291.0</ele>
        <time>2019-03-26T10:38:00.000Z</time>
      </trkpt>
      <trkpt lat="42.586633" lon="-0.429536">
        <ele>1291.0</ele>
        <time>2019-03-26T10:38:01.000Z</time>
      </trkpt>
      <trkpt lat="42.586628" lon="-0.429518">
        <ele>1291.0</ele>
        <time>2019-03-26T10:38:02.000Z</time>
      </trkpt>
      <trkpt lat="42.586623" lon="-0.4295">
        <ele>1292.0</ele>
        <time>2019-03-26T10:38:03.000Z</time>
      </trkpt>
      <trkpt lat="42.586619" lon="-0.429482">
        <ele>1292.0</ele>
        <time>2019-03-26T10:38:04.000Z</time>
      </trkpt>
      <trkpt lat="42.586614" lon="-0.429464">
        <ele>1292.0</ele>
        <time>2019-03-26T10:38:05.000Z</time>
      </trkpt>
      <trkpt lat="42.58661" lon="-0.429446">
        <ele>1292.0</ele>
        <time>2019-03-26T10:38:06.000Z</time>
      </trkpt>
      <trkpt lat="42.586605" lon="-0.429428">
        <ele>1292.0</ele>
        <time>2019-03-26T10:38:07.000Z</time>
      </trkpt>
      <trkpt lat="42.586601" lon="-0.42941">
        <ele>1292.0</ele>
        <time>2019-03-26T10:38:08.000Z</time>
      </trkpt>
      <trkpt lat="42.586598" lon="-0.429392">
        <ele>1292.0</ele>
        <time>2019-03-26T10:38:09.000Z</time>
      </trkpt>
      <trkpt lat="42.586594" lon="-0.429374">
        <ele>1292.0</ele>
        <time>2019-03-26T10:38:10.000Z</time>
      </trkpt>
      <trkpt lat="42.58659" lon="-0.429356">
        <ele>1292.0</ele>
        <time>2019-03-26T10:38:11.000Z</time>
      </trkpt>
      <trkpt lat="42.586587" lon="-0.429339">
        <ele>1293.0</ele>
        <time>2019-03-26T10:38:12.000Z</time>
      </trkpt>
      <trkpt lat="42.586584" lon="-0.429321">
        <ele>1293.0</ele>
        <time>2019-03-26T10:38:13.000Z</time>
      </trkpt>
      <trkpt lat="42.586581" lon="-0.429303">
        <ele>1293.0</ele>
        <time>2019-03-26T10:38:14.000Z</time>
      </trkpt>
      <trkpt lat="42.586578" lon="-0.429286">
        <ele>1293.0</ele>
        <time>2019-03-26T10:38:15.000Z</time>
      </trkpt>
      <trkpt lat="42.586575" lon="-0.429268">
        <ele>1293.0</ele>
        <time>2019-03-26T10:38:16.000Z</time>
      </trkpt>
      <trkpt lat="42.586571" lon="-0.429251">
        <ele>1293.0</ele>
        <time>2019-03-26T10:38:17.000Z</time>
      </trkpt>
      <trkpt lat="42.586568" lon="-0.429233">
        <ele>1293.0</ele>
        <time>2019-03-26T10:38:18.000Z</time>
      </trkpt>
      <trkpt lat="42.586565" lon="-0.429216">
        <ele>1293.0</ele>
        <time>2019-03-26T10:38:19.000Z</time>
      </trkpt>
      <trkpt lat="42.586561" lon="-0.429199">
        <ele>1294.0</ele>
        <time>2019-03-26T10:38:20.000Z</time>
      </trkpt>
      <trkpt lat="42.586557" lon="-0.429182">
        <ele>1294.0</ele>
        <time>2019-03-26T10:38:21.000Z</time>
      </trkpt>
      <trkpt lat="42.586554" lon="-0.429164">
        <ele>1294.0</ele>
        <time>2019-03-26T10:38:22.000Z</time>
      </trkpt>
      <trkpt lat="42.58655" lon="-0.429147">
        <ele>1294.0</ele>
        <time>2019-03-26T10:38:23.000Z</time>
      </trkpt>
      <trkpt lat="42.586547" lon="-0.429129">
        <ele>1294.0</ele>
        <time>2019-03-26T10:38:24.000Z</time>
      </trkpt>
      <trkpt lat="42.586545" lon="-0.429111">
        <ele>1294.0</ele>
        <time>2019-03-26T10:38:25.000Z</time>
      </trkpt>
      <trkpt lat="42.586543" lon="-0.429092">
        <ele>1294.0</ele>
        <time>2019-03-26T10:38:26.000Z</time>
      </trkpt>
      <trkpt lat="42.586543" lon="-0.429072">
        <ele>1294.0</ele>
        <time>2019-03-26T10:38:27.000Z</time>
      </trkpt>
      <trkpt lat="42.586545" lon="-0.429052">
        <ele>1294.0</ele>
        <time>2019-03-26T10:38:28.000Z</time>
      </trkpt>
      <trkpt lat="42.586547" lon="-0.429031">
        <ele>1294.0</ele>
        <time>2019-03-26T10:38:29.000Z</time>
      </trkpt>
      <trkpt lat="42.58655" lon="-0.42901">
        <ele>1295.0</ele>
        <time>2019-03-26T10:38:30.000Z</time>
      </trkpt>
      <trkpt lat="42.586554" lon="-0.428988">
        <ele>1295.0</ele>
        <time>2019-03-26T10:38:31.000Z</time>
      </trkpt>
      <trkpt lat="42.586559" lon="-0.428967">
        <ele>1295.0</ele>
        <time>2019-03-26T10:38:32.000Z</time>
      </trkpt>
      <trkpt lat="42.586563" lon="-0.428945">
        <ele>1295.0</ele>
        <time>2019-03-26T10:38:33.000Z</time>
      </trkpt>
      <trkpt lat="42.586567" lon="-0.428924">
        <ele>1295.0</ele>
        <time>2019-03-26T10:38:34.000Z</time>
      </trkpt>
      <trkpt lat="42.58657" lon="-0.428904">
        <ele>1295.0</ele>
        <time>2019-03-26T10:38:35.000Z</time>
      </trkpt>
      <trkpt lat="42.586573" lon="-0.428884">
        <ele>1295.0</ele>
        <time>2019-03-26T10:38:36.000Z</time>
      </trkpt>
      <trkpt lat="42.586575" lon="-0.428864">
        <ele>1295.0</ele>
        <time>2019-03-26T10:38:37.000Z</time>
      </trkpt>
      <trkpt lat="42.586576" lon="-0.428845">
        <ele>1295.0</ele>
        <time>2019-03-26T10:38:38.000Z</time>
      </trkpt>
      <trkpt lat="42.586578" lon="-0.428826">
        <ele>1295.0</ele>
        <time>2019-03-26T10:38:39.000Z</time>
      </trkpt>
      <trkpt lat="42.586579" lon="-0.428807">
        <ele>1295.0</ele>
        <time>2019-03-26T10:38:40.000Z</time>
      </trkpt>
      <trkpt lat="42.586579" lon="-0.428789">
        <ele>1296.0</ele>
        <time>2019-03-26T10:38:41.000Z</time>
      </trkpt>
      <trkpt lat="42.58658" lon="-0.428771">
        <ele>1296.0</ele>
        <time>2019-03-26T10:38:42.000Z</time>
      </trkpt>
      <trkpt lat="42.58658" lon="-0.428753">
        <ele>1296.0</ele>
        <time>2019-03-26T10:38:43.000Z</time>
      </trkpt>
      <trkpt lat="42.586581" lon="-0.428735">
        <ele>1296.0</ele>
        <time>2019-03-26T10:38:44.000Z</time>
      </trkpt>
      <trkpt lat="42.586581" lon="-0.428717">
        <ele>1296.0</ele>
        <time>2019-03-26T10:38:45.000Z</time>
      </trkpt>
      <trkpt lat="42.586582" lon="-0.428699">
        <ele>1296.0</ele>
        <time>2019-03-26T10:38:46.000Z</time>
      </trkpt>
      <trkpt lat="42.586583" lon="-0.428681">
        <ele>1296.0</ele>
        <time>2019-03-26T10:38:47.000Z</time>
      </trkpt>
      <trkpt lat="42.586584" lon="-0.428663">
        <ele>1296.0</ele>
        <time>2019-03-26T10:38:48.000Z</time>
      </trkpt>
      <trkpt lat="42.586586" lon="-0.428645">
        <ele>1296.0</ele>
        <time>2019-03-26T10:38:49.000Z</time>
      </trkpt>
      <trkpt lat="42.586588" lon="-0.428627">
        <ele>1296.0</ele>
        <time>2019-03-26T10:38:50.000Z</time>
      </trkpt>
      <trkpt lat="42.58659" lon="-0.428609">
        <ele>1296.0</ele>
        <time>2019-03-26T10:38:51.000Z</time>
      </trkpt>
      <trkpt lat="42.586592" lon="-0.428591">
        <ele>1297.0</ele>
        <time>2019-03-26T10:38:52.000Z</time>
      </trkpt>
      <trkpt lat="42.586595" lon="-0.428572">
        <ele>1297.0</ele>
        <time>2019-03-26T10:38:53.000Z</time>
      </trkpt>
      <trkpt lat="42.586598" lon="-0.428554">
        <ele>1297.0</ele>
        <time>2019-03-26T10:38:54.000Z</time>
      </trkpt>
      <trkpt lat="42.586601" lon="-0.428536">
        <ele>1297.0</ele>
        <time>2019-03-26T10:38:55.000Z</time>
      </trkpt>
      <trkpt lat="42.586604" lon="-0.428518">
        <ele>1297.0</ele>
        <time>2019-03-26T10:38:56.000Z</time>
      </trkpt>
      <trkpt lat="42.586607" lon="-0.428501">
        <ele>1297.0</ele>
        <time>2019-03-26T10:38:57.000Z</time>
      </trkpt>
      <trkpt lat="42.58661" lon="-0.428483">
        <ele>1297.0</ele>
        <time>2019-03-26T10:38:58.000Z</time>
      </trkpt>
      <trkpt lat="42.586613" lon="-0.428466">
        <ele>1297.0</ele>
        <time>2019-03-26T10:38:59.000Z</time>
      </trkpt>
      <trkpt lat="42.586616" lon="-0.428449">
        <ele>1297.0</ele>
        <time>2019-03-26T10:39:00.000Z</time>
      </trkpt>
      <trkpt lat="42.586619" lon="-0.428432">
        <ele>1298.0</ele>
        <time>2019-03-26T10:39:01.000Z</time>
      </trkpt>
      <trkpt lat="42.586622" lon="-0.428415">
        <ele>1298.0</ele>
        <time>2019-03-26T10:39:02.000Z</time>
      </trkpt>
      <trkpt lat="42.586625" lon="-0.428399">
        <ele>1298.0</ele>
        <time>2019-03-26T10:39:03.000Z</time>
      </trkpt>
      <trkpt lat="42.586628" lon="-0.428383">
        <ele>1298.0</ele>
        <time>2019-03-26T10:39:04.000Z</time>
      </trkpt>
      <trkpt lat="42.58663" lon="-0.428367">
        <ele>1298.0</ele>
        <time>2019-03-26T10:39:05.000Z</time>
      </trkpt>
      <trkpt lat="42.586633" lon="-0.428351">
        <ele>1298.0</ele>
        <time>2019-03-26T10:39:06.000Z</time>
      </trkpt>
      <trkpt lat="42.586635" lon="-0.428335">
        <ele>1298.0</ele>
        <time>2019-03-26T10:39:07.000Z</time>
      </trkpt>
      <trkpt lat="42.586636" lon="-0.428319">
        <ele>1299.0</ele>
        <time>2019-03-26T10:39:08.000Z</time>
      </trkpt>
      <trkpt lat="42.586638" lon="-0.428302">
        <ele>1299.0</ele>
        <time>2019-03-26T10:39:09.000Z</time>
      </trkpt>
      <trkpt lat="42.586639" lon="-0.428286">
        <ele>1299.0</ele>
        <time>2019-03-26T10:39:10.000Z</time>
      </trkpt>
      <trkpt lat="42.58664" lon="-0.428271">
        <ele>1299.0</ele>
        <time>2019-03-26T10:39:11.000Z</time>
      </trkpt>
      <trkpt lat="42.586641" lon="-0.428258">
        <ele>1299.0</ele>
        <time>2019-03-26T10:39:12.000Z</time>
      </trkpt>
      <trkpt lat="42.586642" lon="-0.428248">
        <ele>1299.0</ele>
        <time>2019-03-26T10:39:13.000Z</time>
      </trkpt>
      <trkpt lat="42.586643" lon="-0.42824">
        <ele>1299.0</ele>
        <time>2019-03-26T10:39:14.000Z</time>
      </trkpt>
      <trkpt lat="42.586643" lon="-0.428237">
        <ele>1300.0</ele>
        <time>2019-03-26T10:39:15.000Z</time>
      </trkpt>
      <trkpt lat="42.586644" lon="-0.428236">
        <ele>1300.0</ele>
        <time>2019-03-26T10:39:16.000Z</time>
      </trkpt>
      <trkpt lat="42.586646" lon="-0.428231">
        <ele>1300.0</ele>
        <time>2019-03-26T10:39:17.000Z</time>
      </trkpt>
      <trkpt lat="42.586649" lon="-0.428219">
        <ele>1300.0</ele>
        <time>2019-03-26T10:39:18.000Z</time>
      </trkpt>
      <trkpt lat="42.586654" lon="-0.428205">
        <ele>1300.0</ele>
        <time>2019-03-26T10:39:19.000Z</time>
      </trkpt>
      <trkpt lat="42.586667" lon="-0.428158">
        <ele>1300.0</ele>
        <time>2019-03-26T10:39:20.000Z</time>
      </trkpt>
      <trkpt lat="42.586674" lon="-0.428132">
        <ele>1300.0</ele>
        <time>2019-03-26T10:39:21.000Z</time>
      </trkpt>
      <trkpt lat="42.586678" lon="-0.428115">
        <ele>1300.0</ele>
        <time>2019-03-26T10:39:22.000Z</time>
      </trkpt>
      <trkpt lat="42.586685" lon="-0.428097">
        <ele>1300.0</ele>
        <time>2019-03-26T10:39:23.000Z</time>
      </trkpt>
      <trkpt lat="42.586692" lon="-0.42808">
        <ele>1300.0</ele>
        <time>2019-03-26T10:39:24.000Z</time>
      </trkpt>
      <trkpt lat="42.586699" lon="-0.428063">
        <ele>1300.0</ele>
        <time>2019-03-26T10:39:25.000Z</time>
      </trkpt>
      <trkpt lat="42.586704" lon="-0.428045">
        <ele>1301.0</ele>
        <time>2019-03-26T10:39:26.000Z</time>
      </trkpt>
      <trkpt lat="42.586707" lon="-0.428026">
        <ele>1301.0</ele>
        <time>2019-03-26T10:39:27.000Z</time>
      </trkpt>
      <trkpt lat="42.586709" lon="-0.428007">
        <ele>1301.0</ele>
        <time>2019-03-26T10:39:28.000Z</time>
      </trkpt>
      <trkpt lat="42.58671" lon="-0.427989">
        <ele>1301.0</ele>
        <time>2019-03-26T10:39:29.000Z</time>
      </trkpt>
      <trkpt lat="42.586711" lon="-0.427972">
        <ele>1301.0</ele>
        <time>2019-03-26T10:39:30.000Z</time>
      </trkpt>
      <trkpt lat="42.586711" lon="-0.427956">
        <ele>1301.0</ele>
        <time>2019-03-26T10:39:31.000Z</time>
      </trkpt>
      <trkpt lat="42.586712" lon="-0.42794">
        <ele>1301.0</ele>
        <time>2019-03-26T10:39:32.000Z</time>
      </trkpt>
      <trkpt lat="42.586714" lon="-0.427925">
        <ele>1301.0</ele>
        <time>2019-03-26T10:39:33.000Z</time>
      </trkpt>
      <trkpt lat="42.586715" lon="-0.42791">
        <ele>1301.0</ele>
        <time>2019-03-26T10:39:34.000Z</time>
      </trkpt>
      <trkpt lat="42.586716" lon="-0.427894">
        <ele>1301.0</ele>
        <time>2019-03-26T10:39:35.000Z</time>
      </trkpt>
      <trkpt lat="42.586717" lon="-0.427878">
        <ele>1302.0</ele>
        <time>2019-03-26T10:39:36.000Z</time>
      </trkpt>
      <trkpt lat="42.586718" lon="-0.427861">
        <ele>1302.0</ele>
        <time>2019-03-26T10:39:37.000Z</time>
      </trkpt>
      <trkpt lat="42.586719" lon="-0.427845">
        <ele>1302.0</ele>
        <time>2019-03-26T10:39:38.000Z</time>
      </trkpt>
      <trkpt lat="42.586719" lon="-0.427833">
        <ele>1302.0</ele>
        <time>2019-03-26T10:39:39.000Z</time>
      </trkpt>
      <trkpt lat="42.58672" lon="-0.427821">
        <ele>1302.0</ele>
        <time>2019-03-26T10:39:40.000Z</time>
      </trkpt>
      <trkpt lat="42.586722" lon="-0.427805">
        <ele>1302.0</ele>
        <time>2019-03-26T10:39:41.000Z</time>
      </trkpt>
      <trkpt lat="42.586725" lon="-0.427787">
        <ele>1302.0</ele>
        <time>2019-03-26T10:39:42.000Z</time>
      </trkpt>
      <trkpt lat="42.586727" lon="-0.427767">
        <ele>1302.0</ele>
        <time>2019-03-26T10:39:43.000Z</time>
      </trkpt>
      <trkpt lat="42.586729" lon="-0.427748">
        <ele>1303.0</ele>
        <time>2019-03-26T10:39:44.000Z</time>
      </trkpt>
      <trkpt lat="42.58673" lon="-0.42773">
        <ele>1303.0</ele>
        <time>2019-03-26T10:39:45.000Z</time>
      </trkpt>
      <trkpt lat="42.58673" lon="-0.427712">
        <ele>1303.0</ele>
        <time>2019-03-26T10:39:46.000Z</time>
      </trkpt>
      <trkpt lat="42.58673" lon="-0.427695">
        <ele>1303.0</ele>
        <time>2019-03-26T10:39:47.000Z</time>
      </trkpt>
      <trkpt lat="42.586729" lon="-0.427678">
        <ele>1303.0</ele>
        <time>2019-03-26T10:39:48.000Z</time>
      </trkpt>
      <trkpt lat="42.586728" lon="-0.427661">
        <ele>1303.0</ele>
        <time>2019-03-26T10:39:49.000Z</time>
      </trkpt>
      <trkpt lat="42.586727" lon="-0.427645">
        <ele>1303.0</ele>
        <time>2019-03-26T10:39:50.000Z</time>
      </trkpt>
      <trkpt lat="42.586725" lon="-0.427629">
        <ele>1303.0</ele>
        <time>2019-03-26T10:39:51.000Z</time>
      </trkpt>
      <trkpt lat="42.586722" lon="-0.427613">
        <ele>1303.0</ele>
        <time>2019-03-26T10:39:52.000Z</time>
      </trkpt>
      <trkpt lat="42.58672" lon="-0.427597">
        <ele>1303.0</ele>
        <time>2019-03-26T10:39:53.000Z</time>
      </trkpt>
      <trkpt lat="42.586717" lon="-0.427581">
        <ele>1304.0</ele>
        <time>2019-03-26T10:39:54.000Z</time>
      </trkpt>
      <trkpt lat="42.586714" lon="-0.427565">
        <ele>1304.0</ele>
        <time>2019-03-26T10:39:55.000Z</time>
      </trkpt>
      <trkpt lat="42.586711" lon="-0.427548">
        <ele>1304.0</ele>
        <time>2019-03-26T10:39:56.000Z</time>
      </trkpt>
      <trkpt lat="42.586708" lon="-0.427532">
        <ele>1304.0</ele>
        <time>2019-03-26T10:39:57.000Z</time>
      </trkpt>
      <trkpt lat="42.586705" lon="-0.427514">
        <ele>1304.0</ele>
        <time>2019-03-26T10:39:58.000Z</time>
      </trkpt>
      <trkpt lat="42.586702" lon="-0.427497">
        <ele>1304.0</ele>
        <time>2019-03-26T10:39:59.000Z</time>
      </trkpt>
      <trkpt lat="42.586699" lon="-0.427479">
        <ele>1304.0</ele>
        <time>2019-03-26T10:40:00.000Z</time>
      </trkpt>
      <trkpt lat="42.586696" lon="-0.427461">
        <ele>1304.0</ele>
        <time>2019-03-26T10:40:01.000Z</time>
      </trkpt>
      <trkpt lat="42.586693" lon="-0.427442">
        <ele>1304.0</ele>
        <time>2019-03-26T10:40:02.000Z</time>
      </trkpt>
      <trkpt lat="42.586689" lon="-0.427423">
        <ele>1304.0</ele>
        <time>2019-03-26T10:40:03.000Z</time>
      </trkpt>
      <trkpt lat="42.586686" lon="-0.427405">
        <ele>1304.0</ele>
        <time>2019-03-26T10:40:04.000Z</time>
      </trkpt>
      <trkpt lat="42.586682" lon="-0.427386">
        <ele>1304.0</ele>
        <time>2019-03-26T10:40:05.000Z</time>
      </trkpt>
      <trkpt lat="42.586679" lon="-0.427367">
        <ele>1304.0</ele>
        <time>2019-03-26T10:40:06.000Z</time>
      </trkpt>
      <trkpt lat="42.586675" lon="-0.427347">
        <ele>1305.0</ele>
        <time>2019-03-26T10:40:07.000Z</time>
      </trkpt>
      <trkpt lat="42.586671" lon="-0.427328">
        <ele>1305.0</ele>
        <time>2019-03-26T10:40:08.000Z</time>
      </trkpt>
      <trkpt lat="42.586667" lon="-0.427309">
        <ele>1305.0</ele>
        <time>2019-03-26T10:40:09.000Z</time>
      </trkpt>
      <trkpt lat="42.586662" lon="-0.427291">
        <ele>1305.0</ele>
        <time>2019-03-26T10:40:10.000Z</time>
      </trkpt>
      <trkpt lat="42.586658" lon="-0.427272">
        <ele>1305.0</ele>
        <time>2019-03-26T10:40:11.000Z</time>
      </trkpt>
      <trkpt lat="42.586653" lon="-0.427253">
        <ele>1305.0</ele>
        <time>2019-03-26T10:40:12.000Z</time>
      </trkpt>
      <trkpt lat="42.586648" lon="-0.427235">
        <ele>1305.0</ele>
        <time>2019-03-26T10:40:13.000Z</time>
      </trkpt>
      <trkpt lat="42.586644" lon="-0.427216">
        <ele>1305.0</ele>
        <time>2019-03-26T10:40:14.000Z</time>
      </trkpt>
      <trkpt lat="42.58664" lon="-0.427198">
        <ele>1305.0</ele>
        <time>2019-03-26T10:40:15.000Z</time>
      </trkpt>
      <trkpt lat="42.586637" lon="-0.427179">
        <ele>1305.0</ele>
        <time>2019-03-26T10:40:16.000Z</time>
      </trkpt>
      <trkpt lat="42.586636" lon="-0.42716">
        <ele>1305.0</ele>
        <time>2019-03-26T10:40:17.000Z</time>
      </trkpt>
      <trkpt lat="42.586636" lon="-0.42714">
        <ele>1306.0</ele>
        <time>2019-03-26T10:40:18.000Z</time>
      </trkpt>
      <trkpt lat="42.586638" lon="-0.42712">
        <ele>1306.0</ele>
        <time>2019-03-26T10:40:19.000Z</time>
      </trkpt>
      <trkpt lat="42.586641" lon="-0.4271">
        <ele>1306.0</ele>
        <time>2019-03-26T10:40:20.000Z</time>
      </trkpt>
      <trkpt lat="42.586645" lon="-0.427081">
        <ele>1306.0</ele>
        <time>2019-03-26T10:40:21.000Z</time>
      </trkpt>
      <trkpt lat="42.58665" lon="-0.427063">
        <ele>1306.0</ele>
        <time>2019-03-26T10:40:22.000Z</time>
      </trkpt>
      <trkpt lat="42.586656" lon="-0.427047">
        <ele>1306.0</ele>
        <time>2019-03-26T10:40:23.000Z</time>
      </trkpt>
      <trkpt lat="42.586661" lon="-0.427033">
        <ele>1306.0</ele>
        <time>2019-03-26T10:40:24.000Z</time>
      </trkpt>
      <trkpt lat="42.586665" lon="-0.427022">
        <ele>1306.0</ele>
        <time>2019-03-26T10:40:25.000Z</time>
      </trkpt>
      <trkpt lat="42.586668" lon="-0.427015">
        <ele>1306.0</ele>
        <time>2019-03-26T10:40:26.000Z</time>
      </trkpt>
      <trkpt lat="42.586671" lon="-0.427011">
        <ele>1306.0</ele>
        <time>2019-03-26T10:40:27.000Z</time>
      </trkpt>
      <trkpt lat="42.586673" lon="-0.427008">
        <ele>1307.0</ele>
        <time>2019-03-26T10:40:28.000Z</time>
      </trkpt>
      <trkpt lat="42.586674" lon="-0.427008">
        <ele>1307.0</ele>
        <time>2019-03-26T10:40:29.000Z</time>
      </trkpt>
      <trkpt lat="42.586675" lon="-0.427008">
        <ele>1307.0</ele>
        <time>2019-03-26T10:40:30.000Z</time>
      </trkpt>
      <trkpt lat="42.586675" lon="-0.427009">
        <ele>1307.0</ele>
        <time>2019-03-26T10:40:31.000Z</time>
      </trkpt>
      <trkpt lat="42.586676" lon="-0.427008">
        <ele>1307.0</ele>
        <time>2019-03-26T10:40:32.000Z</time>
      </trkpt>
      <trkpt lat="42.586677" lon="-0.427007">
        <ele>1307.0</ele>
        <time>2019-03-26T10:40:33.000Z</time>
      </trkpt>
      <trkpt lat="42.586679" lon="-0.427007">
        <ele>1308.0</ele>
        <time>2019-03-26T10:40:34.000Z</time>
      </trkpt>
      <trkpt lat="42.586685" lon="-0.427006">
        <ele>1308.0</ele>
        <time>2019-03-26T10:40:35.000Z</time>
      </trkpt>
      <trkpt lat="42.58669" lon="-0.426993">
        <ele>1308.0</ele>
        <time>2019-03-26T10:40:36.000Z</time>
      </trkpt>
      <trkpt lat="42.586704" lon="-0.426989">
        <ele>1308.0</ele>
        <time>2019-03-26T10:40:37.000Z</time>
      </trkpt>
      <trkpt lat="42.586717" lon="-0.426995">
        <ele>1308.0</ele>
        <time>2019-03-26T10:40:38.000Z</time>
      </trkpt>
      <trkpt lat="42.586722" lon="-0.427011">
        <ele>1308.0</ele>
        <time>2019-03-26T10:40:39.000Z</time>
      </trkpt>
      <trkpt lat="42.586724" lon="-0.427027">
        <ele>1309.0</ele>
        <time>2019-03-26T10:40:40.000Z</time>
      </trkpt>
      <trkpt lat="42.586726" lon="-0.427043">
        <ele>1309.0</ele>
        <time>2019-03-26T10:40:41.000Z</time>
      </trkpt>
      <trkpt lat="42.586728" lon="-0.427058">
        <ele>1309.0</ele>
        <time>2019-03-26T10:40:42.000Z</time>
      </trkpt>
      <trkpt lat="42.586731" lon="-0.427073">
        <ele>1309.0</ele>
        <time>2019-03-26T10:40:43.000Z</time>
      </trkpt>
      <trkpt lat="42.586734" lon="-0.427087">
        <ele>1309.0</ele>
        <time>2019-03-26T10:40:44.000Z</time>
      </trkpt>
      <trkpt lat="42.586737" lon="-0.427101">
        <ele>1309.0</ele>
        <time>2019-03-26T10:40:45.000Z</time>
      </trkpt>
      <trkpt lat="42.586741" lon="-0.427115">
        <ele>1309.0</ele>
        <time>2019-03-26T10:40:46.000Z</time>
      </trkpt>
      <trkpt lat="42.586745" lon="-0.427128">
        <ele>1310.0</ele>
        <time>2019-03-26T10:40:47.000Z</time>
      </trkpt>
      <trkpt lat="42.586749" lon="-0.427142">
        <ele>1310.0</ele>
        <time>2019-03-26T10:40:48.000Z</time>
      </trkpt>
      <trkpt lat="42.586754" lon="-0.427155">
        <ele>1310.0</ele>
        <time>2019-03-26T10:40:49.000Z</time>
      </trkpt>
      <trkpt lat="42.586759" lon="-0.427169">
        <ele>1310.0</ele>
        <time>2019-03-26T10:40:50.000Z</time>
      </trkpt>
      <trkpt lat="42.586765" lon="-0.427182">
        <ele>1310.0</ele>
        <time>2019-03-26T10:40:51.000Z</time>
      </trkpt>
      <trkpt lat="42.586771" lon="-0.427196">
        <ele>1310.0</ele>
        <time>2019-03-26T10:40:52.000Z</time>
      </trkpt>
      <trkpt lat="42.586777" lon="-0.42721">
        <ele>1310.0</ele>
        <time>2019-03-26T10:40:53.000Z</time>
      </trkpt>
      <trkpt lat="42.586784" lon="-0.427225">
        <ele>1310.0</ele>
        <time>2019-03-26T10:40:54.000Z</time>
      </trkpt>
      <trkpt lat="42.586791" lon="-0.427239">
        <ele>1310.0</ele>
        <time>2019-03-26T10:40:55.000Z</time>
      </trkpt>
      <trkpt lat="42.586799" lon="-0.427254">
        <ele>1310.0</ele>
        <time>2019-03-26T10:40:56.000Z</time>
      </trkpt>
      <trkpt lat="42.586807" lon="-0.427269">
        <ele>1311.0</ele>
        <time>2019-03-26T10:40:57.000Z</time>
      </trkpt>
      <trkpt lat="42.586816" lon="-0.427285">
        <ele>1311.0</ele>
        <time>2019-03-26T10:40:58.000Z</time>
      </trkpt>
      <trkpt lat="42.586825" lon="-0.4273">
        <ele>1311.0</ele>
        <time>2019-03-26T10:40:59.000Z</time>
      </trkpt>
      <trkpt lat="42.586834" lon="-0.427316">
        <ele>1311.0</ele>
        <time>2019-03-26T10:41:00.000Z</time>
      </trkpt>
      <trkpt lat="42.586843" lon="-0.427331">
        <ele>1311.0</ele>
        <time>2019-03-26T10:41:01.000Z</time>
      </trkpt>
      <trkpt lat="42.586853" lon="-0.427347">
        <ele>1311.0</ele>
        <time>2019-03-26T10:41:02.000Z</time>
      </trkpt>
      <trkpt lat="42.586863" lon="-0.427362">
        <ele>1311.0</ele>
        <time>2019-03-26T10:41:03.000Z</time>
      </trkpt>
      <trkpt lat="42.586874" lon="-0.427378">
        <ele>1311.0</ele>
        <time>2019-03-26T10:41:04.000Z</time>
      </trkpt>
      <trkpt lat="42.586884" lon="-0.427394">
        <ele>1311.0</ele>
        <time>2019-03-26T10:41:05.000Z</time>
      </trkpt>
      <trkpt lat="42.586895" lon="-0.427409">
        <ele>1311.0</ele>
        <time>2019-03-26T10:41:06.000Z</time>
      </trkpt>
      <trkpt lat="42.586906" lon="-0.427425">
        <ele>1312.0</ele>
        <time>2019-03-26T10:41:07.000Z</time>
      </trkpt>
      <trkpt lat="42.586917" lon="-0.42744">
        <ele>1312.0</ele>
        <time>2019-03-26T10:41:08.000Z</time>
      </trkpt>
      <trkpt lat="42.586928" lon="-0.427456">
        <ele>1312.0</ele>
        <time>2019-03-26T10:41:09.000Z</time>
      </trkpt>
      <trkpt lat="42.586939" lon="-0.427471">
        <ele>1312.0</ele>
        <time>2019-03-26T10:41:10.000Z</time>
      </trkpt>
      <trkpt lat="42.58695" lon="-0.427487">
        <ele>1312.0</ele>
        <time>2019-03-26T10:41:11.000Z</time>
      </trkpt>
      <trkpt lat="42.586961" lon="-0.427502">
        <ele>1312.0</ele>
        <time>2019-03-26T10:41:12.000Z</time>
      </trkpt>
      <trkpt lat="42.586972" lon="-0.427518">
        <ele>1312.0</ele>
        <time>2019-03-26T10:41:13.000Z</time>
      </trkpt>
      <trkpt lat="42.586982" lon="-0.427534">
        <ele>1312.0</ele>
        <time>2019-03-26T10:41:14.000Z</time>
      </trkpt>
      <trkpt lat="42.586992" lon="-0.42755">
        <ele>1312.0</ele>
        <time>2019-03-26T10:41:15.000Z</time>
      </trkpt>
      <trkpt lat="42.587002" lon="-0.427566">
        <ele>1312.0</ele>
        <time>2019-03-26T10:41:16.000Z</time>
      </trkpt>
      <trkpt lat="42.587011" lon="-0.427582">
        <ele>1312.0</ele>
        <time>2019-03-26T10:41:17.000Z</time>
      </trkpt>
      <trkpt lat="42.58702" lon="-0.427599">
        <ele>1312.0</ele>
        <time>2019-03-26T10:41:18.000Z</time>
      </trkpt>
      <trkpt lat="42.587028" lon="-0.427616">
        <ele>1312.0</ele>
        <time>2019-03-26T10:41:19.000Z</time>
      </trkpt>
      <trkpt lat="42.587035" lon="-0.427633">
        <ele>1313.0</ele>
        <time>2019-03-26T10:41:20.000Z</time>
      </trkpt>
      <trkpt lat="42.587042" lon="-0.42765">
        <ele>1313.0</ele>
        <time>2019-03-26T10:41:21.000Z</time>
      </trkpt>
      <trkpt lat="42.587048" lon="-0.427668">
        <ele>1313.0</ele>
        <time>2019-03-26T10:41:22.000Z</time>
      </trkpt>
      <trkpt lat="42.587053" lon="-0.427685">
        <ele>1313.0</ele>
        <time>2019-03-26T10:41:23.000Z</time>
      </trkpt>
      <trkpt lat="42.587057" lon="-0.427702">
        <ele>1313.0</ele>
        <time>2019-03-26T10:41:24.000Z</time>
      </trkpt>
      <trkpt lat="42.587061" lon="-0.427718">
        <ele>1313.0</ele>
        <time>2019-03-26T10:41:25.000Z</time>
      </trkpt>
      <trkpt lat="42.587063" lon="-0.427733">
        <ele>1313.0</ele>
        <time>2019-03-26T10:41:26.000Z</time>
      </trkpt>
      <trkpt lat="42.587065" lon="-0.427747">
        <ele>1313.0</ele>
        <time>2019-03-26T10:41:27.000Z</time>
      </trkpt>
      <trkpt lat="42.587066" lon="-0.42776">
        <ele>1313.0</ele>
        <time>2019-03-26T10:41:28.000Z</time>
      </trkpt>
      <trkpt lat="42.587067" lon="-0.427771">
        <ele>1314.0</ele>
        <time>2019-03-26T10:41:29.000Z</time>
      </trkpt>
      <trkpt lat="42.587067" lon="-0.427781">
        <ele>1314.0</ele>
        <time>2019-03-26T10:41:30.000Z</time>
      </trkpt>
      <trkpt lat="42.587067" lon="-0.427789">
        <ele>1314.0</ele>
        <time>2019-03-26T10:41:31.000Z</time>
      </trkpt>
      <trkpt lat="42.587066" lon="-0.427797">
        <ele>1314.0</ele>
        <time>2019-03-26T10:41:32.000Z</time>
      </trkpt>
      <trkpt lat="42.587066" lon="-0.427803">
        <ele>1314.0</ele>
        <time>2019-03-26T10:41:33.000Z</time>
      </trkpt>
      <trkpt lat="42.587066" lon="-0.427808">
        <ele>1314.0</ele>
        <time>2019-03-26T10:41:34.000Z</time>
      </trkpt>
      <trkpt lat="42.587066" lon="-0.427816">
        <ele>1314.0</ele>
        <time>2019-03-26T10:41:35.000Z</time>
      </trkpt>
      <trkpt lat="42.587065" lon="-0.427838">
        <ele>1314.0</ele>
        <time>2019-03-26T10:41:36.000Z</time>
      </trkpt>
      <trkpt lat="42.587064" lon="-0.427881">
        <ele>1314.0</ele>
        <time>2019-03-26T10:41:37.000Z</time>
      </trkpt>
      <trkpt lat="42.587064" lon="-0.427915">
        <ele>1315.0</ele>
        <time>2019-03-26T10:41:38.000Z</time>
      </trkpt>
      <trkpt lat="42.587064" lon="-0.427934">
        <ele>1315.0</ele>
        <time>2019-03-26T10:41:39.000Z</time>
      </trkpt>
      <trkpt lat="42.587064" lon="-0.427945">
        <ele>1315.0</ele>
        <time>2019-03-26T10:41:40.000Z</time>
      </trkpt>
      <trkpt lat="42.587063" lon="-0.427957">
        <ele>1315.0</ele>
        <time>2019-03-26T10:41:41.000Z</time>
      </trkpt>
      <trkpt lat="42.587061" lon="-0.427978">
        <ele>1315.0</ele>
        <time>2019-03-26T10:41:42.000Z</time>
      </trkpt>
      <trkpt lat="42.58706" lon="-0.428003">
        <ele>1315.0</ele>
        <time>2019-03-26T10:41:43.000Z</time>
      </trkpt>
      <trkpt lat="42.587058" lon="-0.428029">
        <ele>1315.0</ele>
        <time>2019-03-26T10:41:44.000Z</time>
      </trkpt>
      <trkpt lat="42.587057" lon="-0.42805">
        <ele>1315.0</ele>
        <time>2019-03-26T10:41:45.000Z</time>
      </trkpt>
      <trkpt lat="42.587056" lon="-0.428067">
        <ele>1315.0</ele>
        <time>2019-03-26T10:41:46.000Z</time>
      </trkpt>
      <trkpt lat="42.587054" lon="-0.428082">
        <ele>1315.0</ele>
        <time>2019-03-26T10:41:47.000Z</time>
      </trkpt>
      <trkpt lat="42.587052" lon="-0.428099">
        <ele>1316.0</ele>
        <time>2019-03-26T10:41:48.000Z</time>
      </trkpt>
      <trkpt lat="42.587049" lon="-0.428116">
        <ele>1316.0</ele>
        <time>2019-03-26T10:41:49.000Z</time>
      </trkpt>
      <trkpt lat="42.587045" lon="-0.428133">
        <ele>1316.0</ele>
        <time>2019-03-26T10:41:50.000Z</time>
      </trkpt>
      <trkpt lat="42.587043" lon="-0.428149">
        <ele>1316.0</ele>
        <time>2019-03-26T10:41:51.000Z</time>
      </trkpt>
      <trkpt lat="42.587042" lon="-0.428162">
        <ele>1316.0</ele>
        <time>2019-03-26T10:41:52.000Z</time>
      </trkpt>
      <trkpt lat="42.587041" lon="-0.428172">
        <ele>1316.0</ele>
        <time>2019-03-26T10:41:53.000Z</time>
      </trkpt>
      <trkpt lat="42.587041" lon="-0.428178">
        <ele>1316.0</ele>
        <time>2019-03-26T10:41:54.000Z</time>
      </trkpt>
      <trkpt lat="42.587041" lon="-0.428178">
        <ele>1316.0</ele>
        <time>2019-03-26T10:41:55.000Z</time>
      </trkpt>
      <trkpt lat="42.587041" lon="-0.428179">
        <ele>1316.0</ele>
        <time>2019-03-26T10:41:56.000Z</time>
      </trkpt>
      <trkpt lat="42.587041" lon="-0.428183">
        <ele>1316.0</ele>
        <time>2019-03-26T10:41:57.000Z</time>
      </trkpt>
      <trkpt lat="42.587042" lon="-0.428197">
        <ele>1316.0</ele>
        <time>2019-03-26T10:41:58.000Z</time>
      </trkpt>
      <trkpt lat="42.587043" lon="-0.428228">
        <ele>1316.0</ele>
        <time>2019-03-26T10:41:59.000Z</time>
      </trkpt>
      <trkpt lat="42.587043" lon="-0.428277">
        <ele>1316.0</ele>
        <time>2019-03-26T10:42:00.000Z</time>
      </trkpt>
      <trkpt lat="42.587041" lon="-0.428304">
        <ele>1316.0</ele>
        <time>2019-03-26T10:42:01.000Z</time>
      </trkpt>
      <trkpt lat="42.587039" lon="-0.428324">
        <ele>1317.0</ele>
        <time>2019-03-26T10:42:02.000Z</time>
      </trkpt>
      <trkpt lat="42.587038" lon="-0.428344">
        <ele>1317.0</ele>
        <time>2019-03-26T10:42:03.000Z</time>
      </trkpt>
      <trkpt lat="42.587038" lon="-0.428363">
        <ele>1317.0</ele>
        <time>2019-03-26T10:42:04.000Z</time>
      </trkpt>
      <trkpt lat="42.587038" lon="-0.428382">
        <ele>1317.0</ele>
        <time>2019-03-26T10:42:05.000Z</time>
      </trkpt>
      <trkpt lat="42.587039" lon="-0.4284">
        <ele>1317.0</ele>
        <time>2019-03-26T10:42:06.000Z</time>
      </trkpt>
      <trkpt lat="42.587041" lon="-0.428418">
        <ele>1317.0</ele>
        <time>2019-03-26T10:42:07.000Z</time>
      </trkpt>
      <trkpt lat="42.587043" lon="-0.428436">
        <ele>1317.0</ele>
        <time>2019-03-26T10:42:08.000Z</time>
      </trkpt>
      <trkpt lat="42.587046" lon="-0.428453">
        <ele>1317.0</ele>
        <time>2019-03-26T10:42:09.000Z</time>
      </trkpt>
      <trkpt lat="42.58705" lon="-0.42847">
        <ele>1317.0</ele>
        <time>2019-03-26T10:42:10.000Z</time>
      </trkpt>
      <trkpt lat="42.587053" lon="-0.428487">
        <ele>1317.0</ele>
        <time>2019-03-26T10:42:11.000Z</time>
      </trkpt>
      <trkpt lat="42.587058" lon="-0.428504">
        <ele>1317.0</ele>
        <time>2019-03-26T10:42:12.000Z</time>
      </trkpt>
      <trkpt lat="42.587063" lon="-0.42852">
        <ele>1317.0</ele>
        <time>2019-03-26T10:42:13.000Z</time>
      </trkpt>
      <trkpt lat="42.587068" lon="-0.428537">
        <ele>1317.0</ele>
        <time>2019-03-26T10:42:14.000Z</time>
      </trkpt>
      <trkpt lat="42.587073" lon="-0.428553">
        <ele>1318.0</ele>
        <time>2019-03-26T10:42:15.000Z</time>
      </trkpt>
      <trkpt lat="42.587079" lon="-0.428569">
        <ele>1318.0</ele>
        <time>2019-03-26T10:42:16.000Z</time>
      </trkpt>
      <trkpt lat="42.587086" lon="-0.428585">
        <ele>1318.0</ele>
        <time>2019-03-26T10:42:17.000Z</time>
      </trkpt>
      <trkpt lat="42.587092" lon="-0.428601">
        <ele>1318.0</ele>
        <time>2019-03-26T10:42:18.000Z</time>
      </trkpt>
      <trkpt lat="42.587099" lon="-0.428617">
        <ele>1318.0</ele>
        <time>2019-03-26T10:42:19.000Z</time>
      </trkpt>
      <trkpt lat="42.587106" lon="-0.428633">
        <ele>1318.0</ele>
        <time>2019-03-26T10:42:20.000Z</time>
      </trkpt>
      <trkpt lat="42.587114" lon="-0.428648">
        <ele>1318.0</ele>
        <time>2019-03-26T10:42:21.000Z</time>
      </trkpt>
      <trkpt lat="42.587121" lon="-0.428664">
        <ele>1318.0</ele>
        <time>2019-03-26T10:42:22.000Z</time>
      </trkpt>
      <trkpt lat="42.587129" lon="-0.428679">
        <ele>1318.0</ele>
        <time>2019-03-26T10:42:23.000Z</time>
      </trkpt>
      <trkpt lat="42.587137" lon="-0.428694">
        <ele>1318.0</ele>
        <time>2019-03-26T10:42:24.000Z</time>
      </trkpt>
      <trkpt lat="42.587145" lon="-0.428709">
        <ele>1318.0</ele>
        <time>2019-03-26T10:42:25.000Z</time>
      </trkpt>
      <trkpt lat="42.587153" lon="-0.428723">
        <ele>1319.0</ele>
        <time>2019-03-26T10:42:26.000Z</time>
      </trkpt>
      <trkpt lat="42.587161" lon="-0.428737">
        <ele>1319.0</ele>
        <time>2019-03-26T10:42:27.000Z</time>
      </trkpt>
      <trkpt lat="42.587169" lon="-0.428751">
        <ele>1319.0</ele>
        <time>2019-03-26T10:42:28.000Z</time>
      </trkpt>
      <trkpt lat="42.587177" lon="-0.428765">
        <ele>1319.0</ele>
        <time>2019-03-26T10:42:29.000Z</time>
      </trkpt>
      <trkpt lat="42.587184" lon="-0.428778">
        <ele>1319.0</ele>
        <time>2019-03-26T10:42:30.000Z</time>
      </trkpt>
      <trkpt lat="42.587192" lon="-0.428792">
        <ele>1319.0</ele>
        <time>2019-03-26T10:42:31.000Z</time>
      </trkpt>
      <trkpt lat="42.5872" lon="-0.428804">
        <ele>1319.0</ele>
        <time>2019-03-26T10:42:32.000Z</time>
      </trkpt>
      <trkpt lat="42.587208" lon="-0.428817">
        <ele>1319.0</ele>
        <time>2019-03-26T10:42:33.000Z</time>
      </trkpt>
      <trkpt lat="42.587215" lon="-0.42883">
        <ele>1320.0</ele>
        <time>2019-03-26T10:42:34.000Z</time>
      </trkpt>
      <trkpt lat="42.587223" lon="-0.428843">
        <ele>1320.0</ele>
        <time>2019-03-26T10:42:35.000Z</time>
      </trkpt>
      <trkpt lat="42.58723" lon="-0.428855">
        <ele>1320.0</ele>
        <time>2019-03-26T10:42:36.000Z</time>
      </trkpt>
      <trkpt lat="42.587238" lon="-0.428868">
        <ele>1320.0</ele>
        <time>2019-03-26T10:42:37.000Z</time>
      </trkpt>
      <trkpt lat="42.587245" lon="-0.428882">
        <ele>1320.0</ele>
        <time>2019-03-26T10:42:38.000Z</time>
      </trkpt>
      <trkpt lat="42.587252" lon="-0.428895">
        <ele>1320.0</ele>
        <time>2019-03-26T10:42:39.000Z</time>
      </trkpt>
      <trkpt lat="42.587259" lon="-0.428909">
        <ele>1320.0</ele>
        <time>2019-03-26T10:42:40.000Z</time>
      </trkpt>
      <trkpt lat="42.587266" lon="-0.428923">
        <ele>1320.0</ele>
        <time>2019-03-26T10:42:41.000Z</time>
      </trkpt>
      <trkpt lat="42.587273" lon="-0.428937">
        <ele>1320.0</ele>
        <time>2019-03-26T10:42:42.000Z</time>
      </trkpt>
      <trkpt lat="42.58728" lon="-0.428952">
        <ele>1320.0</ele>
        <time>2019-03-26T10:42:43.000Z</time>
      </trkpt>
      <trkpt lat="42.587287" lon="-0.428967">
        <ele>1320.0</ele>
        <time>2019-03-26T10:42:44.000Z</time>
      </trkpt>
      <trkpt lat="42.587294" lon="-0.428983">
        <ele>1320.0</ele>
        <time>2019-03-26T10:42:45.000Z</time>
      </trkpt>
      <trkpt lat="42.5873" lon="-0.428999">
        <ele>1320.0</ele>
        <time>2019-03-26T10:42:46.000Z</time>
      </trkpt>
      <trkpt lat="42.587306" lon="-0.429016">
        <ele>1321.0</ele>
        <time>2019-03-26T10:42:47.000Z</time>
      </trkpt>
      <trkpt lat="42.587312" lon="-0.429032">
        <ele>1321.0</ele>
        <time>2019-03-26T10:42:48.000Z</time>
      </trkpt>
      <trkpt lat="42.587318" lon="-0.429049">
        <ele>1321.0</ele>
        <time>2019-03-26T10:42:49.000Z</time>
      </trkpt>
      <trkpt lat="42.587324" lon="-0.429066">
        <ele>1321.0</ele>
        <time>2019-03-26T10:42:50.000Z</time>
      </trkpt>
      <trkpt lat="42.58733" lon="-0.429082">
        <ele>1321.0</ele>
        <time>2019-03-26T10:42:51.000Z</time>
      </trkpt>
      <trkpt lat="42.587335" lon="-0.429099">
        <ele>1321.0</ele>
        <time>2019-03-26T10:42:52.000Z</time>
      </trkpt>
      <trkpt lat="42.58734" lon="-0.429116">
        <ele>1321.0</ele>
        <time>2019-03-26T10:42:53.000Z</time>
      </trkpt>
      <trkpt lat="42.587345" lon="-0.429132">
        <ele>1321.0</ele>
        <time>2019-03-26T10:42:54.000Z</time>
      </trkpt>
      <trkpt lat="42.587349" lon="-0.429148">
        <ele>1321.0</ele>
        <time>2019-03-26T10:42:55.000Z</time>
      </trkpt>
      <trkpt lat="42.587354" lon="-0.429164">
        <ele>1321.0</ele>
        <time>2019-03-26T10:42:56.000Z</time>
      </trkpt>
      <trkpt lat="42.587358" lon="-0.42918">
        <ele>1322.0</ele>
        <time>2019-03-26T10:42:57.000Z</time>
      </trkpt>
      <trkpt lat="42.587361" lon="-0.429194">
        <ele>1322.0</ele>
        <time>2019-03-26T10:42:58.000Z</time>
      </trkpt>
      <trkpt lat="42.587365" lon="-0.429207">
        <ele>1322.0</ele>
        <time>2019-03-26T10:42:59.000Z</time>
      </trkpt>
      <trkpt lat="42.587367" lon="-0.429217">
        <ele>1322.0</ele>
        <time>2019-03-26T10:43:00.000Z</time>
      </trkpt>
      <trkpt lat="42.587369" lon="-0.429225">
        <ele>1322.0</ele>
        <time>2019-03-26T10:43:01.000Z</time>
      </trkpt>
      <trkpt lat="42.58737" lon="-0.429231">
        <ele>1322.0</ele>
        <time>2019-03-26T10:43:02.000Z</time>
      </trkpt>
      <trkpt lat="42.58737" lon="-0.429238">
        <ele>1322.0</ele>
        <time>2019-03-26T10:43:03.000Z</time>
      </trkpt>
      <trkpt lat="42.587372" lon="-0.429253">
        <ele>1322.0</ele>
        <time>2019-03-26T10:43:04.000Z</time>
      </trkpt>
      <trkpt lat="42.587379" lon="-0.429288">
        <ele>1322.0</ele>
        <time>2019-03-26T10:43:05.000Z</time>
      </trkpt>
      <trkpt lat="42.587387" lon="-0.429315">
        <ele>1322.0</ele>
        <time>2019-03-26T10:43:06.000Z</time>
      </trkpt>
      <trkpt lat="42.587393" lon="-0.429333">
        <ele>1322.0</ele>
        <time>2019-03-26T10:43:07.000Z</time>
      </trkpt>
      <trkpt lat="42.587401" lon="-0.429346">
        <ele>1322.0</ele>
        <time>2019-03-26T10:43:08.000Z</time>
      </trkpt>
      <trkpt lat="42.587408" lon="-0.429358">
        <ele>1322.0</ele>
        <time>2019-03-26T10:43:09.000Z</time>
      </trkpt>
      <trkpt lat="42.587416" lon="-0.429369">
        <ele>1323.0</ele>
        <time>2019-03-26T10:43:10.000Z</time>
      </trkpt>
      <trkpt lat="42.587424" lon="-0.42938">
        <ele>1323.0</ele>
        <time>2019-03-26T10:43:11.000Z</time>
      </trkpt>
      <trkpt lat="42.587431" lon="-0.429389">
        <ele>1323.0</ele>
        <time>2019-03-26T10:43:12.000Z</time>
      </trkpt>
      <trkpt lat="42.587437" lon="-0.429397">
        <ele>1323.0</ele>
        <time>2019-03-26T10:43:13.000Z</time>
      </trkpt>
      <trkpt lat="42.587441" lon="-0.429402">
        <ele>1323.0</ele>
        <time>2019-03-26T10:43:14.000Z</time>
      </trkpt>
      <trkpt lat="42.587442" lon="-0.429403">
        <ele>1323.0</ele>
        <time>2019-03-26T10:43:15.000Z</time>
      </trkpt>
      <trkpt lat="42.587442" lon="-0.429403">
        <ele>1324.0</ele>
        <time>2019-03-26T10:43:16.000Z</time>
      </trkpt>
      <trkpt lat="42.587443" lon="-0.429404">
        <ele>1324.0</ele>
        <time>2019-03-26T10:43:17.000Z</time>
      </trkpt>
      <trkpt lat="42.587445" lon="-0.429407">
        <ele>1324.0</ele>
        <time>2019-03-26T10:43:18.000Z</time>
      </trkpt>
      <trkpt lat="42.587446" lon="-0.42941">
        <ele>1324.0</ele>
        <time>2019-03-26T10:43:19.000Z</time>
      </trkpt>
      <trkpt lat="42.587446" lon="-0.42941">
        <ele>1324.0</ele>
        <time>2019-03-26T10:43:20.000Z</time>
      </trkpt>
      <trkpt lat="42.587449" lon="-0.429413">
        <ele>1324.0</ele>
        <time>2019-03-26T10:43:21.000Z</time>
      </trkpt>
      <trkpt lat="42.587467" lon="-0.429436">
        <ele>1324.0</ele>
        <time>2019-03-26T10:43:22.000Z</time>
      </trkpt>
      <trkpt lat="42.58749" lon="-0.429463">
        <ele>1324.0</ele>
        <time>2019-03-26T10:43:23.000Z</time>
      </trkpt>
      <trkpt lat="42.587506" lon="-0.429481">
        <ele>1324.0</ele>
        <time>2019-03-26T10:43:24.000Z</time>
      </trkpt>
      <trkpt lat="42.58752" lon="-0.429495">
        <ele>1324.0</ele>
        <time>2019-03-26T10:43:25.000Z</time>
      </trkpt>
      <trkpt lat="42.587532" lon="-0.429507">
        <ele>1325.0</ele>
        <time>2019-03-26T10:43:26.000Z</time>
      </trkpt>
      <trkpt lat="42.587544" lon="-0.429519">
        <ele>1325.0</ele>
        <time>2019-03-26T10:43:27.000Z</time>
      </trkpt>
      <trkpt lat="42.587554" lon="-0.42953">
        <ele>1325.0</ele>
        <time>2019-03-26T10:43:28.000Z</time>
      </trkpt>
      <trkpt lat="42.587564" lon="-0.42954">
        <ele>1325.0</ele>
        <time>2019-03-26T10:43:29.000Z</time>
      </trkpt>
      <trkpt lat="42.587574" lon="-0.429551">
        <ele>1325.0</ele>
        <time>2019-03-26T10:43:30.000Z</time>
      </trkpt>
      <trkpt lat="42.587584" lon="-0.429561">
        <ele>1325.0</ele>
        <time>2019-03-26T10:43:31.000Z</time>
      </trkpt>
      <trkpt lat="42.587595" lon="-0.429572">
        <ele>1325.0</ele>
        <time>2019-03-26T10:43:32.000Z</time>
      </trkpt>
      <trkpt lat="42.587606" lon="-0.429584">
        <ele>1325.0</ele>
        <time>2019-03-26T10:43:33.000Z</time>
      </trkpt>
      <trkpt lat="42.587617" lon="-0.429595">
        <ele>1325.0</ele>
        <time>2019-03-26T10:43:34.000Z</time>
      </trkpt>
      <trkpt lat="42.587629" lon="-0.429606">
        <ele>1325.0</ele>
        <time>2019-03-26T10:43:35.000Z</time>
      </trkpt>
      <trkpt lat="42.587641" lon="-0.429617">
        <ele>1325.0</ele>
        <time>2019-03-26T10:43:36.000Z</time>
      </trkpt>
      <trkpt lat="42.587652" lon="-0.429628">
        <ele>1326.0</ele>
        <time>2019-03-26T10:43:37.000Z</time>
      </trkpt>
      <trkpt lat="42.587664" lon="-0.429638">
        <ele>1326.0</ele>
        <time>2019-03-26T10:43:38.000Z</time>
      </trkpt>
      <trkpt lat="42.587675" lon="-0.429647">
        <ele>1326.0</ele>
        <time>2019-03-26T10:43:39.000Z</time>
      </trkpt>
      <trkpt lat="42.587686" lon="-0.429655">
        <ele>1326.0</ele>
        <time>2019-03-26T10:43:40.000Z</time>
      </trkpt>
      <trkpt lat="42.587697" lon="-0.429663">
        <ele>1326.0</ele>
        <time>2019-03-26T10:43:41.000Z</time>
      </trkpt>
      <trkpt lat="42.587709" lon="-0.429671">
        <ele>1326.0</ele>
        <time>2019-03-26T10:43:42.000Z</time>
      </trkpt>
      <trkpt lat="42.58772" lon="-0.429678">
        <ele>1326.0</ele>
        <time>2019-03-26T10:43:43.000Z</time>
      </trkpt>
      <trkpt lat="42.587731" lon="-0.429685">
        <ele>1326.0</ele>
        <time>2019-03-26T10:43:44.000Z</time>
      </trkpt>
      <trkpt lat="42.587742" lon="-0.429692">
        <ele>1327.0</ele>
        <time>2019-03-26T10:43:45.000Z</time>
      </trkpt>
      <trkpt lat="42.587753" lon="-0.429699">
        <ele>1327.0</ele>
        <time>2019-03-26T10:43:46.000Z</time>
      </trkpt>
      <trkpt lat="42.587764" lon="-0.429706">
        <ele>1327.0</ele>
        <time>2019-03-26T10:43:47.000Z</time>
      </trkpt>
      <trkpt lat="42.587775" lon="-0.429713">
        <ele>1327.0</ele>
        <time>2019-03-26T10:43:48.000Z</time>
      </trkpt>
      <trkpt lat="42.587786" lon="-0.429719">
        <ele>1327.0</ele>
        <time>2019-03-26T10:43:49.000Z</time>
      </trkpt>
      <trkpt lat="42.587797" lon="-0.429726">
        <ele>1327.0</ele>
        <time>2019-03-26T10:43:50.000Z</time>
      </trkpt>
      <trkpt lat="42.587808" lon="-0.429733">
        <ele>1327.0</ele>
        <time>2019-03-26T10:43:51.000Z</time>
      </trkpt>
      <trkpt lat="42.587819" lon="-0.429741">
        <ele>1327.0</ele>
        <time>2019-03-26T10:43:52.000Z</time>
      </trkpt>
      <trkpt lat="42.587831" lon="-0.429749">
        <ele>1327.0</ele>
        <time>2019-03-26T10:43:53.000Z</time>
      </trkpt>
      <trkpt lat="42.587842" lon="-0.429757">
        <ele>1327.0</ele>
        <time>2019-03-26T10:43:54.000Z</time>
      </trkpt>
      <trkpt lat="42.587854" lon="-0.429765">
        <ele>1327.0</ele>
        <time>2019-03-26T10:43:55.000Z</time>
      </trkpt>
      <trkpt lat="42.587865" lon="-0.429774">
        <ele>1327.0</ele>
        <time>2019-03-26T10:43:56.000Z</time>
      </trkpt>
      <trkpt lat="42.587876" lon="-0.429783">
        <ele>1327.0</ele>
        <time>2019-03-26T10:43:57.000Z</time>
      </trkpt>
      <trkpt lat="42.587888" lon="-0.429792">
        <ele>1328.0</ele>
        <time>2019-03-26T10:43:58.000Z</time>
      </trkpt>
      <trkpt lat="42.587899" lon="-0.429802">
        <ele>1328.0</ele>
        <time>2019-03-26T10:43:59.000Z</time>
      </trkpt>
      <trkpt lat="42.58791" lon="-0.429812">
        <ele>1328.0</ele>
        <time>2019-03-26T10:44:00.000Z</time>
      </trkpt>
      <trkpt lat="42.587921" lon="-0.429822">
        <ele>1328.0</ele>
        <time>2019-03-26T10:44:01.000Z</time>
      </trkpt>
      <trkpt lat="42.587932" lon="-0.429832">
        <ele>1328.0</ele>
        <time>2019-03-26T10:44:02.000Z</time>
      </trkpt>
      <trkpt lat="42.587942" lon="-0.429843">
        <ele>1328.0</ele>
        <time>2019-03-26T10:44:03.000Z</time>
      </trkpt>
      <trkpt lat="42.587952" lon="-0.429854">
        <ele>1328.0</ele>
        <time>2019-03-26T10:44:04.000Z</time>
      </trkpt>
      <trkpt lat="42.587962" lon="-0.429865">
        <ele>1328.0</ele>
        <time>2019-03-26T10:44:05.000Z</time>
      </trkpt>
      <trkpt lat="42.587972" lon="-0.429876">
        <ele>1328.0</ele>
        <time>2019-03-26T10:44:06.000Z</time>
      </trkpt>
      <trkpt lat="42.587981" lon="-0.429888">
        <ele>1329.0</ele>
        <time>2019-03-26T10:44:07.000Z</time>
      </trkpt>
      <trkpt lat="42.587991" lon="-0.4299">
        <ele>1329.0</ele>
        <time>2019-03-26T10:44:08.000Z</time>
      </trkpt>
      <trkpt lat="42.588" lon="-0.429911">
        <ele>1329.0</ele>
        <time>2019-03-26T10:44:09.000Z</time>
      </trkpt>
      <trkpt lat="42.588009" lon="-0.429923">
        <ele>1329.0</ele>
        <time>2019-03-26T10:44:10.000Z</time>
      </trkpt>
      <trkpt lat="42.588018" lon="-0.429936">
        <ele>1329.0</ele>
        <time>2019-03-26T10:44:11.000Z</time>
      </trkpt>
      <trkpt lat="42.588027" lon="-0.429948">
        <ele>1329.0</ele>
        <time>2019-03-26T10:44:12.000Z</time>
      </trkpt>
      <trkpt lat="42.588036" lon="-0.42996">
        <ele>1329.0</ele>
        <time>2019-03-26T10:44:13.000Z</time>
      </trkpt>
      <trkpt lat="42.588045" lon="-0.429972">
        <ele>1329.0</ele>
        <time>2019-03-26T10:44:14.000Z</time>
      </trkpt>
      <trkpt lat="42.588054" lon="-0.429984">
        <ele>1329.0</ele>
        <time>2019-03-26T10:44:15.000Z</time>
      </trkpt>
      <trkpt lat="42.588063" lon="-0.429996">
        <ele>1330.0</ele>
        <time>2019-03-26T10:44:16.000Z</time>
      </trkpt>
      <trkpt lat="42.588073" lon="-0.430007">
        <ele>1330.0</ele>
        <time>2019-03-26T10:44:17.000Z</time>
      </trkpt>
      <trkpt lat="42.588083" lon="-0.430019">
        <ele>1330.0</ele>
        <time>2019-03-26T10:44:18.000Z</time>
      </trkpt>
      <trkpt lat="42.588093" lon="-0.43003">
        <ele>1330.0</ele>
        <time>2019-03-26T10:44:19.000Z</time>
      </trkpt>
      <trkpt lat="42.588103" lon="-0.430041">
        <ele>1330.0</ele>
        <time>2019-03-26T10:44:20.000Z</time>
      </trkpt>
      <trkpt lat="42.588114" lon="-0.430052">
        <ele>1330.0</ele>
        <time>2019-03-26T10:44:21.000Z</time>
      </trkpt>
      <trkpt lat="42.588124" lon="-0.430063">
        <ele>1330.0</ele>
        <time>2019-03-26T10:44:22.000Z</time>
      </trkpt>
      <trkpt lat="42.588134" lon="-0.430075">
        <ele>1330.0</ele>
        <time>2019-03-26T10:44:23.000Z</time>
      </trkpt>
      <trkpt lat="42.588143" lon="-0.430088">
        <ele>1330.0</ele>
        <time>2019-03-26T10:44:24.000Z</time>
      </trkpt>
      <trkpt lat="42.588151" lon="-0.430102">
        <ele>1330.0</ele>
        <time>2019-03-26T10:44:25.000Z</time>
      </trkpt>
      <trkpt lat="42.588158" lon="-0.430119">
        <ele>1330.0</ele>
        <time>2019-03-26T10:44:26.000Z</time>
      </trkpt>
      <trkpt lat="42.588164" lon="-0.430136">
        <ele>1330.0</ele>
        <time>2019-03-26T10:44:27.000Z</time>
      </trkpt>
      <trkpt lat="42.588168" lon="-0.430154">
        <ele>1330.0</ele>
        <time>2019-03-26T10:44:28.000Z</time>
      </trkpt>
      <trkpt lat="42.588173" lon="-0.430171">
        <ele>1330.0</ele>
        <time>2019-03-26T10:44:29.000Z</time>
      </trkpt>
      <trkpt lat="42.588179" lon="-0.430185">
        <ele>1330.0</ele>
        <time>2019-03-26T10:44:30.000Z</time>
      </trkpt>
      <trkpt lat="42.588186" lon="-0.430197">
        <ele>1330.0</ele>
        <time>2019-03-26T10:44:31.000Z</time>
      </trkpt>
      <trkpt lat="42.588192" lon="-0.430209">
        <ele>1331.0</ele>
        <time>2019-03-26T10:44:32.000Z</time>
      </trkpt>
      <trkpt lat="42.588199" lon="-0.430223">
        <ele>1331.0</ele>
        <time>2019-03-26T10:44:33.000Z</time>
      </trkpt>
      <trkpt lat="42.588206" lon="-0.430237">
        <ele>1331.0</ele>
        <time>2019-03-26T10:44:34.000Z</time>
      </trkpt>
      <trkpt lat="42.588212" lon="-0.430253">
        <ele>1331.0</ele>
        <time>2019-03-26T10:44:35.000Z</time>
      </trkpt>
      <trkpt lat="42.588218" lon="-0.43027">
        <ele>1331.0</ele>
        <time>2019-03-26T10:44:36.000Z</time>
      </trkpt>
      <trkpt lat="42.588225" lon="-0.430288">
        <ele>1331.0</ele>
        <time>2019-03-26T10:44:37.000Z</time>
      </trkpt>
      <trkpt lat="42.58823" lon="-0.430307">
        <ele>1331.0</ele>
        <time>2019-03-26T10:44:38.000Z</time>
      </trkpt>
      <trkpt lat="42.588236" lon="-0.430326">
        <ele>1331.0</ele>
        <time>2019-03-26T10:44:39.000Z</time>
      </trkpt>
      <trkpt lat="42.588241" lon="-0.430345">
        <ele>1331.0</ele>
        <time>2019-03-26T10:44:40.000Z</time>
      </trkpt>
      <trkpt lat="42.588246" lon="-0.430365">
        <ele>1331.0</ele>
        <time>2019-03-26T10:44:41.000Z</time>
      </trkpt>
      <trkpt lat="42.588251" lon="-0.430384">
        <ele>1331.0</ele>
        <time>2019-03-26T10:44:42.000Z</time>
      </trkpt>
      <trkpt lat="42.588255" lon="-0.430404">
        <ele>1332.0</ele>
        <time>2019-03-26T10:44:43.000Z</time>
      </trkpt>
      <trkpt lat="42.588259" lon="-0.430423">
        <ele>1332.0</ele>
        <time>2019-03-26T10:44:44.000Z</time>
      </trkpt>
      <trkpt lat="42.588262" lon="-0.430441">
        <ele>1332.0</ele>
        <time>2019-03-26T10:44:45.000Z</time>
      </trkpt>
      <trkpt lat="42.588265" lon="-0.430459">
        <ele>1332.0</ele>
        <time>2019-03-26T10:44:46.000Z</time>
      </trkpt>
      <trkpt lat="42.588267" lon="-0.430477">
        <ele>1332.0</ele>
        <time>2019-03-26T10:44:47.000Z</time>
      </trkpt>
      <trkpt lat="42.588269" lon="-0.430494">
        <ele>1332.0</ele>
        <time>2019-03-26T10:44:48.000Z</time>
      </trkpt>
      <trkpt lat="42.588271" lon="-0.430511">
        <ele>1332.0</ele>
        <time>2019-03-26T10:44:49.000Z</time>
      </trkpt>
      <trkpt lat="42.588273" lon="-0.43053">
        <ele>1332.0</ele>
        <time>2019-03-26T10:44:50.000Z</time>
      </trkpt>
      <trkpt lat="42.588276" lon="-0.43055">
        <ele>1332.0</ele>
        <time>2019-03-26T10:44:51.000Z</time>
      </trkpt>
      <trkpt lat="42.58828" lon="-0.430571">
        <ele>1332.0</ele>
        <time>2019-03-26T10:44:52.000Z</time>
      </trkpt>
      <trkpt lat="42.588282" lon="-0.430591">
        <ele>1332.0</ele>
        <time>2019-03-26T10:44:53.000Z</time>
      </trkpt>
      <trkpt lat="42.588284" lon="-0.430611">
        <ele>1332.0</ele>
        <time>2019-03-26T10:44:54.000Z</time>
      </trkpt>
      <trkpt lat="42.588285" lon="-0.43063">
        <ele>1332.0</ele>
        <time>2019-03-26T10:44:55.000Z</time>
      </trkpt>
      <trkpt lat="42.588286" lon="-0.430648">
        <ele>1332.0</ele>
        <time>2019-03-26T10:44:56.000Z</time>
      </trkpt>
      <trkpt lat="42.588286" lon="-0.430666">
        <ele>1332.0</ele>
        <time>2019-03-26T10:44:57.000Z</time>
      </trkpt>
      <trkpt lat="42.588287" lon="-0.430683">
        <ele>1332.0</ele>
        <time>2019-03-26T10:44:58.000Z</time>
      </trkpt>
      <trkpt lat="42.588287" lon="-0.430701">
        <ele>1332.0</ele>
        <time>2019-03-26T10:44:59.000Z</time>
      </trkpt>
      <trkpt lat="42.588289" lon="-0.430719">
        <ele>1333.0</ele>
        <time>2019-03-26T10:45:00.000Z</time>
      </trkpt>
      <trkpt lat="42.588291" lon="-0.430737">
        <ele>1333.0</ele>
        <time>2019-03-26T10:45:01.000Z</time>
      </trkpt>
      <trkpt lat="42.588293" lon="-0.430755">
        <ele>1333.0</ele>
        <time>2019-03-26T10:45:02.000Z</time>
      </trkpt>
      <trkpt lat="42.588297" lon="-0.430773">
        <ele>1333.0</ele>
        <time>2019-03-26T10:45:03.000Z</time>
      </trkpt>
      <trkpt lat="42.5883" lon="-0.430791">
        <ele>1333.0</ele>
        <time>2019-03-26T10:45:04.000Z</time>
      </trkpt>
      <trkpt lat="42.588304" lon="-0.430809">
        <ele>1333.0</ele>
        <time>2019-03-26T10:45:05.000Z</time>
      </trkpt>
      <trkpt lat="42.588308" lon="-0.430827">
        <ele>1333.0</ele>
        <time>2019-03-26T10:45:06.000Z</time>
      </trkpt>
      <trkpt lat="42.588312" lon="-0.430844">
        <ele>1333.0</ele>
        <time>2019-03-26T10:45:07.000Z</time>
      </trkpt>
      <trkpt lat="42.588316" lon="-0.43086">
        <ele>1333.0</ele>
        <time>2019-03-26T10:45:08.000Z</time>
      </trkpt>
      <trkpt lat="42.58832" lon="-0.430875">
        <ele>1333.0</ele>
        <time>2019-03-26T10:45:09.000Z</time>
      </trkpt>
      <trkpt lat="42.588324" lon="-0.43089">
        <ele>1333.0</ele>
        <time>2019-03-26T10:45:10.000Z</time>
      </trkpt>
      <trkpt lat="42.588327" lon="-0.430903">
        <ele>1333.0</ele>
        <time>2019-03-26T10:45:11.000Z</time>
      </trkpt>
      <trkpt lat="42.58833" lon="-0.430915">
        <ele>1334.0</ele>
        <time>2019-03-26T10:45:12.000Z</time>
      </trkpt>
      <trkpt lat="42.588332" lon="-0.430925">
        <ele>1334.0</ele>
        <time>2019-03-26T10:45:13.000Z</time>
      </trkpt>
      <trkpt lat="42.588334" lon="-0.430934">
        <ele>1334.0</ele>
        <time>2019-03-26T10:45:14.000Z</time>
      </trkpt>
      <trkpt lat="42.588334" lon="-0.430942">
        <ele>1334.0</ele>
        <time>2019-03-26T10:45:15.000Z</time>
      </trkpt>
      <trkpt lat="42.588335" lon="-0.430955">
        <ele>1334.0</ele>
        <time>2019-03-26T10:45:16.000Z</time>
      </trkpt>
      <trkpt lat="42.588337" lon="-0.430976">
        <ele>1334.0</ele>
        <time>2019-03-26T10:45:17.000Z</time>
      </trkpt>
      <trkpt lat="42.588339" lon="-0.431002">
        <ele>1334.0</ele>
        <time>2019-03-26T10:45:18.000Z</time>
      </trkpt>
      <trkpt lat="42.58834" lon="-0.431022">
        <ele>1334.0</ele>
        <time>2019-03-26T10:45:19.000Z</time>
      </trkpt>
      <trkpt lat="42.588342" lon="-0.43104">
        <ele>1334.0</ele>
        <time>2019-03-26T10:45:20.000Z</time>
      </trkpt>
      <trkpt lat="42.588344" lon="-0.431061">
        <ele>1334.0</ele>
        <time>2019-03-26T10:45:21.000Z</time>
      </trkpt>
      <trkpt lat="42.588347" lon="-0.431083">
        <ele>1334.0</ele>
        <time>2019-03-26T10:45:22.000Z</time>
      </trkpt>
      <trkpt lat="42.588348" lon="-0.431104">
        <ele>1334.0</ele>
        <time>2019-03-26T10:45:23.000Z</time>
      </trkpt>
      <trkpt lat="42.588349" lon="-0.431125">
        <ele>1335.0</ele>
        <time>2019-03-26T10:45:24.000Z</time>
      </trkpt>
      <trkpt lat="42.588351" lon="-0.431146">
        <ele>1335.0</ele>
        <time>2019-03-26T10:45:25.000Z</time>
      </trkpt>
      <trkpt lat="42.588352" lon="-0.431166">
        <ele>1335.0</ele>
        <time>2019-03-26T10:45:26.000Z</time>
      </trkpt>
      <trkpt lat="42.588353" lon="-0.431187">
        <ele>1335.0</ele>
        <time>2019-03-26T10:45:27.000Z</time>
      </trkpt>
      <trkpt lat="42.588354" lon="-0.431208">
        <ele>1335.0</ele>
        <time>2019-03-26T10:45:28.000Z</time>
      </trkpt>
      <trkpt lat="42.588356" lon="-0.43123">
        <ele>1335.0</ele>
        <time>2019-03-26T10:45:29.000Z</time>
      </trkpt>
      <trkpt lat="42.588357" lon="-0.431251">
        <ele>1335.0</ele>
        <time>2019-03-26T10:45:30.000Z</time>
      </trkpt>
      <trkpt lat="42.588359" lon="-0.431273">
        <ele>1335.0</ele>
        <time>2019-03-26T10:45:31.000Z</time>
      </trkpt>
      <trkpt lat="42.588361" lon="-0.431294">
        <ele>1335.0</ele>
        <time>2019-03-26T10:45:32.000Z</time>
      </trkpt>
      <trkpt lat="42.588362" lon="-0.431316">
        <ele>1336.0</ele>
        <time>2019-03-26T10:45:33.000Z</time>
      </trkpt>
      <trkpt lat="42.588363" lon="-0.431337">
        <ele>1336.0</ele>
        <time>2019-03-26T10:45:34.000Z</time>
      </trkpt>
      <trkpt lat="42.588364" lon="-0.431359">
        <ele>1336.0</ele>
        <time>2019-03-26T10:45:35.000Z</time>
      </trkpt>
      <trkpt lat="42.588364" lon="-0.43138">
        <ele>1336.0</ele>
        <time>2019-03-26T10:45:36.000Z</time>
      </trkpt>
      <trkpt lat="42.588364" lon="-0.431401">
        <ele>1336.0</ele>
        <time>2019-03-26T10:45:37.000Z</time>
      </trkpt>
      <trkpt lat="42.588363" lon="-0.431422">
        <ele>1336.0</ele>
        <time>2019-03-26T10:45:38.000Z</time>
      </trkpt>
      <trkpt lat="42.588362" lon="-0.431442">
        <ele>1336.0</ele>
        <time>2019-03-26T10:45:39.000Z</time>
      </trkpt>
      <trkpt lat="42.588359" lon="-0.431463">
        <ele>1336.0</ele>
        <time>2019-03-26T10:45:40.000Z</time>
      </trkpt>
      <trkpt lat="42.588356" lon="-0.431483">
        <ele>1336.0</ele>
        <time>2019-03-26T10:45:41.000Z</time>
      </trkpt>
      <trkpt lat="42.588352" lon="-0.431502">
        <ele>1336.0</ele>
        <time>2019-03-26T10:45:42.000Z</time>
      </trkpt>
      <trkpt lat="42.588347" lon="-0.431521">
        <ele>1336.0</ele>
        <time>2019-03-26T10:45:43.000Z</time>
      </trkpt>
      <trkpt lat="42.588342" lon="-0.43154">
        <ele>1336.0</ele>
        <time>2019-03-26T10:45:44.000Z</time>
      </trkpt>
      <trkpt lat="42.588339" lon="-0.431558">
        <ele>1337.0</ele>
        <time>2019-03-26T10:45:45.000Z</time>
      </trkpt>
      <trkpt lat="42.588336" lon="-0.431576">
        <ele>1337.0</ele>
        <time>2019-03-26T10:45:46.000Z</time>
      </trkpt>
      <trkpt lat="42.588336" lon="-0.431594">
        <ele>1337.0</ele>
        <time>2019-03-26T10:45:47.000Z</time>
      </trkpt>
      <trkpt lat="42.588338" lon="-0.431611">
        <ele>1337.0</ele>
        <time>2019-03-26T10:45:48.000Z</time>
      </trkpt>
      <trkpt lat="42.588342" lon="-0.431628">
        <ele>1337.0</ele>
        <time>2019-03-26T10:45:49.000Z</time>
      </trkpt>
      <trkpt lat="42.588349" lon="-0.431643">
        <ele>1338.0</ele>
        <time>2019-03-26T10:45:50.000Z</time>
      </trkpt>
      <trkpt lat="42.588355" lon="-0.431656">
        <ele>1338.0</ele>
        <time>2019-03-26T10:45:51.000Z</time>
      </trkpt>
      <trkpt lat="42.588359" lon="-0.431664">
        <ele>1338.0</ele>
        <time>2019-03-26T10:45:52.000Z</time>
      </trkpt>
      <trkpt lat="42.588361" lon="-0.431668">
        <ele>1338.0</ele>
        <time>2019-03-26T10:45:53.000Z</time>
      </trkpt>
      <trkpt lat="42.588361" lon="-0.431668">
        <ele>1338.0</ele>
        <time>2019-03-26T10:45:54.000Z</time>
      </trkpt>
      <trkpt lat="42.588361" lon="-0.431667">
        <ele>1338.0</ele>
        <time>2019-03-26T10:45:55.000Z</time>
      </trkpt>
      <trkpt lat="42.58836" lon="-0.431666">
        <ele>1338.0</ele>
        <time>2019-03-26T10:45:56.000Z</time>
      </trkpt>
      <trkpt lat="42.58836" lon="-0.431665">
        <ele>1338.0</ele>
        <time>2019-03-26T10:45:57.000Z</time>
      </trkpt>
      <trkpt lat="42.588359" lon="-0.431665">
        <ele>1338.0</ele>
        <time>2019-03-26T10:45:58.000Z</time>
      </trkpt>
      <trkpt lat="42.58836" lon="-0.431665">
        <ele>1338.0</ele>
        <time>2019-03-26T10:45:59.000Z</time>
      </trkpt>
      <trkpt lat="42.58836" lon="-0.431665">
        <ele>1338.0</ele>
        <time>2019-03-26T10:46:00.000Z</time>
      </trkpt>
      <trkpt lat="42.58836" lon="-0.431665">
        <ele>1338.0</ele>
        <time>2019-03-26T10:46:01.000Z</time>
      </trkpt>
      <trkpt lat="42.58836" lon="-0.431666">
        <ele>1338.0</ele>
        <time>2019-03-26T10:46:02.000Z</time>
      </trkpt>
      <trkpt lat="42.58836" lon="-0.431666">
        <ele>1338.0</ele>
        <time>2019-03-26T10:46:03.000Z</time>
      </trkpt>
      <trkpt lat="42.58836" lon="-0.431666">
        <ele>1338.0</ele>
        <time>2019-03-26T10:46:04.000Z</time>
      </trkpt>
      <trkpt lat="42.58836" lon="-0.431666">
        <ele>1338.0</ele>
        <time>2019-03-26T10:46:05.000Z</time>
      </trkpt>
      <trkpt lat="42.58836" lon="-0.431666">
        <ele>1338.0</ele>
        <time>2019-03-26T10:46:06.000Z</time>
      </trkpt>
      <trkpt lat="42.588363" lon="-0.431665">
        <ele>1338.0</ele>
        <time>2019-03-26T10:46:07.000Z</time>
      </trkpt>
      <trkpt lat="42.588375" lon="-0.431663">
        <ele>1339.0</ele>
        <time>2019-03-26T10:46:08.000Z</time>
      </trkpt>
      <trkpt lat="42.588389" lon="-0.431658">
        <ele>1339.0</ele>
        <time>2019-03-26T10:46:09.000Z</time>
      </trkpt>
      <trkpt lat="42.588401" lon="-0.431651">
        <ele>1339.0</ele>
        <time>2019-03-26T10:46:10.000Z</time>
      </trkpt>
      <trkpt lat="42.588412" lon="-0.431641">
        <ele>1339.0</ele>
        <time>2019-03-26T10:46:11.000Z</time>
      </trkpt>
      <trkpt lat="42.58842" lon="-0.43163">
        <ele>1339.0</ele>
        <time>2019-03-26T10:46:12.000Z</time>
      </trkpt>
      <trkpt lat="42.588428" lon="-0.431617">
        <ele>1339.0</ele>
        <time>2019-03-26T10:46:13.000Z</time>
      </trkpt>
      <trkpt lat="42.588434" lon="-0.431605">
        <ele>1339.0</ele>
        <time>2019-03-26T10:46:14.000Z</time>
      </trkpt>
      <trkpt lat="42.588439" lon="-0.431592">
        <ele>1340.0</ele>
        <time>2019-03-26T10:46:15.000Z</time>
      </trkpt>
      <trkpt lat="42.588442" lon="-0.43158">
        <ele>1340.0</ele>
        <time>2019-03-26T10:46:16.000Z</time>
      </trkpt>
      <trkpt lat="42.588445" lon="-0.431569">
        <ele>1340.0</ele>
        <time>2019-03-26T10:46:17.000Z</time>
      </trkpt>
      <trkpt lat="42.588447" lon="-0.431559">
        <ele>1340.0</ele>
        <time>2019-03-26T10:46:18.000Z</time>
      </trkpt>
      <trkpt lat="42.588448" lon="-0.431552">
        <ele>1340.0</ele>
        <time>2019-03-26T10:46:19.000Z</time>
      </trkpt>
      <trkpt lat="42.588448" lon="-0.431548">
        <ele>1340.0</ele>
        <time>2019-03-26T10:46:20.000Z</time>
      </trkpt>
      <trkpt lat="42.588448" lon="-0.431547">
        <ele>1340.0</ele>
        <time>2019-03-26T10:46:21.000Z</time>
      </trkpt>
      <trkpt lat="42.588447" lon="-0.431549">
        <time>2019-03-26T10:46:22.000Z</time>
      </trkpt>
      <trkpt lat="42.588484" lon="-0.431542">
        <ele>1353.0</ele>
        <time>2019-03-26T10:52:11.000Z</time>
      </trkpt>
      <trkpt lat="42.588482" lon="-0.431547">
        <ele>1353.0</ele>
        <time>2019-03-26T10:52:12.000Z</time>
      </trkpt>
      <trkpt lat="42.588483" lon="-0.431547">
        <ele>1353.0</ele>
        <time>2019-03-26T10:52:13.000Z</time>
      </trkpt>
      <trkpt lat="42.588484" lon="-0.431543">
        <ele>1353.0</ele>
        <time>2019-03-26T10:52:14.000Z</time>
      </trkpt>
      <trkpt lat="42.588487" lon="-0.431536">
        <ele>1353.0</ele>
        <time>2019-03-26T10:52:15.000Z</time>
      </trkpt>
      <trkpt lat="42.58849" lon="-0.431526">
        <ele>1353.0</ele>
        <time>2019-03-26T10:52:16.000Z</time>
      </trkpt>
      <trkpt lat="42.588493" lon="-0.431514">
        <ele>1353.0</ele>
        <time>2019-03-26T10:52:17.000Z</time>
      </trkpt>
      <trkpt lat="42.588497" lon="-0.431502">
        <ele>1353.0</ele>
        <time>2019-03-26T10:52:18.000Z</time>
      </trkpt>
      <trkpt lat="42.588501" lon="-0.431488">
        <ele>1353.0</ele>
        <time>2019-03-26T10:52:19.000Z</time>
      </trkpt>
      <trkpt lat="42.588505" lon="-0.431475">
        <ele>1353.0</ele>
        <time>2019-03-26T10:52:20.000Z</time>
      </trkpt>
      <trkpt lat="42.588508" lon="-0.431462">
        <ele>1353.0</ele>
        <time>2019-03-26T10:52:21.000Z</time>
      </trkpt>
      <trkpt lat="42.588511" lon="-0.431449">
        <ele>1353.0</ele>
        <time>2019-03-26T10:52:22.000Z</time>
      </trkpt>
      <trkpt lat="42.588514" lon="-0.431436">
        <ele>1353.0</ele>
        <time>2019-03-26T10:52:23.000Z</time>
      </trkpt>
      <trkpt lat="42.588516" lon="-0.431422">
        <ele>1353.0</ele>
        <time>2019-03-26T10:52:24.000Z</time>
      </trkpt>
      <trkpt lat="42.588518" lon="-0.431409">
        <ele>1353.0</ele>
        <time>2019-03-26T10:52:25.000Z</time>
      </trkpt>
      <trkpt lat="42.588519" lon="-0.431395">
        <ele>1353.0</ele>
        <time>2019-03-26T10:52:26.000Z</time>
      </trkpt>
      <trkpt lat="42.58852" lon="-0.43138">
        <ele>1353.0</ele>
        <time>2019-03-26T10:52:27.000Z</time>
      </trkpt>
      <trkpt lat="42.588521" lon="-0.431365">
        <ele>1354.0</ele>
        <time>2019-03-26T10:52:28.000Z</time>
      </trkpt>
      <trkpt lat="42.588521" lon="-0.43135">
        <ele>1354.0</ele>
        <time>2019-03-26T10:52:29.000Z</time>
      </trkpt>
      <trkpt lat="42.588521" lon="-0.431334">
        <ele>1354.0</ele>
        <time>2019-03-26T10:52:30.000Z</time>
      </trkpt>
      <trkpt lat="42.588521" lon="-0.431318">
        <ele>1354.0</ele>
        <time>2019-03-26T10:52:31.000Z</time>
      </trkpt>
      <trkpt lat="42.588521" lon="-0.431302">
        <ele>1354.0</ele>
        <time>2019-03-26T10:52:32.000Z</time>
      </trkpt>
      <trkpt lat="42.58852" lon="-0.431285">
        <ele>1354.0</ele>
        <time>2019-03-26T10:52:33.000Z</time>
      </trkpt>
      <trkpt lat="42.588519" lon="-0.431268">
        <ele>1354.0</ele>
        <time>2019-03-26T10:52:34.000Z</time>
      </trkpt>
      <trkpt lat="42.588519" lon="-0.431251">
        <ele>1354.0</ele>
        <time>2019-03-26T10:52:35.000Z</time>
      </trkpt>
      <trkpt lat="42.588518" lon="-0.431233">
        <ele>1354.0</ele>
        <time>2019-03-26T10:52:36.000Z</time>
      </trkpt>
      <trkpt lat="42.588517" lon="-0.431216">
        <ele>1354.0</ele>
        <time>2019-03-26T10:52:37.000Z</time>
      </trkpt>
      <trkpt lat="42.588516" lon="-0.431198">
        <ele>1355.0</ele>
        <time>2019-03-26T10:52:38.000Z</time>
      </trkpt>
      <trkpt lat="42.588515" lon="-0.43118">
        <ele>1355.0</ele>
        <time>2019-03-26T10:52:39.000Z</time>
      </trkpt>
      <trkpt lat="42.588515" lon="-0.431162">
        <ele>1355.0</ele>
        <time>2019-03-26T10:52:40.000Z</time>
      </trkpt>
      <trkpt lat="42.588514" lon="-0.431143">
        <ele>1355.0</ele>
        <time>2019-03-26T10:52:41.000Z</time>
      </trkpt>
      <trkpt lat="42.588514" lon="-0.431125">
        <ele>1355.0</ele>
        <time>2019-03-26T10:52:42.000Z</time>
      </trkpt>
      <trkpt lat="42.588513" lon="-0.431107">
        <ele>1355.0</ele>
        <time>2019-03-26T10:52:43.000Z</time>
      </trkpt>
      <trkpt lat="42.588514" lon="-0.431088">
        <ele>1355.0</ele>
        <time>2019-03-26T10:52:44.000Z</time>
      </trkpt>
      <trkpt lat="42.588514" lon="-0.43107">
        <ele>1355.0</ele>
        <time>2019-03-26T10:52:45.000Z</time>
      </trkpt>
      <trkpt lat="42.588515" lon="-0.431051">
        <ele>1355.0</ele>
        <time>2019-03-26T10:52:46.000Z</time>
      </trkpt>
      <trkpt lat="42.588517" lon="-0.431033">
        <ele>1355.0</ele>
        <time>2019-03-26T10:52:47.000Z</time>
      </trkpt>
      <trkpt lat="42.588519" lon="-0.431014">
        <ele>1356.0</ele>
        <time>2019-03-26T10:52:48.000Z</time>
      </trkpt>
      <trkpt lat="42.588521" lon="-0.430996">
        <ele>1356.0</ele>
        <time>2019-03-26T10:52:49.000Z</time>
      </trkpt>
      <trkpt lat="42.588525" lon="-0.430978">
        <ele>1356.0</ele>
        <time>2019-03-26T10:52:50.000Z</time>
      </trkpt>
      <trkpt lat="42.588528" lon="-0.43096">
        <ele>1356.0</ele>
        <time>2019-03-26T10:52:51.000Z</time>
      </trkpt>
      <trkpt lat="42.588532" lon="-0.430942">
        <ele>1356.0</ele>
        <time>2019-03-26T10:52:52.000Z</time>
      </trkpt>
      <trkpt lat="42.588536" lon="-0.430924">
        <ele>1356.0</ele>
        <time>2019-03-26T10:52:53.000Z</time>
      </trkpt>
      <trkpt lat="42.58854" lon="-0.430906">
        <ele>1356.0</ele>
        <time>2019-03-26T10:52:54.000Z</time>
      </trkpt>
      <trkpt lat="42.588543" lon="-0.430888">
        <ele>1356.0</ele>
        <time>2019-03-26T10:52:55.000Z</time>
      </trkpt>
      <trkpt lat="42.588546" lon="-0.43087">
        <ele>1356.0</ele>
        <time>2019-03-26T10:52:56.000Z</time>
      </trkpt>
      <trkpt lat="42.588547" lon="-0.430853">
        <ele>1356.0</ele>
        <time>2019-03-26T10:52:57.000Z</time>
      </trkpt>
      <trkpt lat="42.588548" lon="-0.430835">
        <ele>1357.0</ele>
        <time>2019-03-26T10:52:58.000Z</time>
      </trkpt>
      <trkpt lat="42.588548" lon="-0.430817">
        <ele>1357.0</ele>
        <time>2019-03-26T10:52:59.000Z</time>
      </trkpt>
      <trkpt lat="42.588547" lon="-0.4308">
        <ele>1357.0</ele>
        <time>2019-03-26T10:53:00.000Z</time>
      </trkpt>
      <trkpt lat="42.588547" lon="-0.430782">
        <ele>1357.0</ele>
        <time>2019-03-26T10:53:01.000Z</time>
      </trkpt>
      <trkpt lat="42.588547" lon="-0.430763">
        <ele>1357.0</ele>
        <time>2019-03-26T10:53:02.000Z</time>
      </trkpt>
      <trkpt lat="42.588547" lon="-0.430745">
        <ele>1357.0</ele>
        <time>2019-03-26T10:53:03.000Z</time>
      </trkpt>
      <trkpt lat="42.588548" lon="-0.430726">
        <ele>1357.0</ele>
        <time>2019-03-26T10:53:04.000Z</time>
      </trkpt>
      <trkpt lat="42.588549" lon="-0.430707">
        <ele>1358.0</ele>
        <time>2019-03-26T10:53:05.000Z</time>
      </trkpt>
      <trkpt lat="42.588552" lon="-0.430688">
        <ele>1358.0</ele>
        <time>2019-03-26T10:53:06.000Z</time>
      </trkpt>
      <trkpt lat="42.588555" lon="-0.430669">
        <ele>1358.0</ele>
        <time>2019-03-26T10:53:07.000Z</time>
      </trkpt>
      <trkpt lat="42.588559" lon="-0.430651">
        <ele>1358.0</ele>
        <time>2019-03-26T10:53:08.000Z</time>
      </trkpt>
      <trkpt lat="42.588563" lon="-0.430633">
        <ele>1358.0</ele>
        <time>2019-03-26T10:53:09.000Z</time>
      </trkpt>
      <trkpt lat="42.588568" lon="-0.430615">
        <ele>1358.0</ele>
        <time>2019-03-26T10:53:10.000Z</time>
      </trkpt>
      <trkpt lat="42.588574" lon="-0.430599">
        <ele>1358.0</ele>
        <time>2019-03-26T10:53:11.000Z</time>
      </trkpt>
      <trkpt lat="42.58858" lon="-0.430584">
        <ele>1358.0</ele>
        <time>2019-03-26T10:53:12.000Z</time>
      </trkpt>
      <trkpt lat="42.588585" lon="-0.430573">
        <ele>1358.0</ele>
        <time>2019-03-26T10:53:13.000Z</time>
      </trkpt>
      <trkpt lat="42.588586" lon="-0.430566">
        <ele>1358.0</ele>
        <time>2019-03-26T10:53:14.000Z</time>
      </trkpt>
      <trkpt lat="42.588586" lon="-0.43056">
        <ele>1358.0</ele>
        <time>2019-03-26T10:53:15.000Z</time>
      </trkpt>
      <trkpt lat="42.588588" lon="-0.430551">
        <ele>1359.0</ele>
        <time>2019-03-26T10:53:16.000Z</time>
      </trkpt>
      <trkpt lat="42.588593" lon="-0.430537">
        <ele>1359.0</ele>
        <time>2019-03-26T10:53:17.000Z</time>
      </trkpt>
      <trkpt lat="42.5886" lon="-0.430521">
        <ele>1359.0</ele>
        <time>2019-03-26T10:53:18.000Z</time>
      </trkpt>
      <trkpt lat="42.588608" lon="-0.430503">
        <ele>1359.0</ele>
        <time>2019-03-26T10:53:19.000Z</time>
      </trkpt>
      <trkpt lat="42.588616" lon="-0.430486">
        <ele>1359.0</ele>
        <time>2019-03-26T10:53:20.000Z</time>
      </trkpt>
      <trkpt lat="42.588624" lon="-0.430468">
        <ele>1359.0</ele>
        <time>2019-03-26T10:53:21.000Z</time>
      </trkpt>
      <trkpt lat="42.588633" lon="-0.43045">
        <ele>1359.0</ele>
        <time>2019-03-26T10:53:22.000Z</time>
      </trkpt>
      <trkpt lat="42.588641" lon="-0.430432">
        <ele>1359.0</ele>
        <time>2019-03-26T10:53:23.000Z</time>
      </trkpt>
      <trkpt lat="42.58865" lon="-0.430415">
        <ele>1359.0</ele>
        <time>2019-03-26T10:53:24.000Z</time>
      </trkpt>
      <trkpt lat="42.588659" lon="-0.430397">
        <ele>1359.0</ele>
        <time>2019-03-26T10:53:25.000Z</time>
      </trkpt>
      <trkpt lat="42.588667" lon="-0.43038">
        <ele>1359.0</ele>
        <time>2019-03-26T10:53:26.000Z</time>
      </trkpt>
      <trkpt lat="42.588676" lon="-0.430363">
        <ele>1360.0</ele>
        <time>2019-03-26T10:53:27.000Z</time>
      </trkpt>
      <trkpt lat="42.588685" lon="-0.430346">
        <ele>1360.0</ele>
        <time>2019-03-26T10:53:28.000Z</time>
      </trkpt>
      <trkpt lat="42.588693" lon="-0.430329">
        <ele>1360.0</ele>
        <time>2019-03-26T10:53:29.000Z</time>
      </trkpt>
      <trkpt lat="42.588701" lon="-0.430313">
        <ele>1360.0</ele>
        <time>2019-03-26T10:53:30.000Z</time>
      </trkpt>
      <trkpt lat="42.588708" lon="-0.430296">
        <ele>1360.0</ele>
        <time>2019-03-26T10:53:31.000Z</time>
      </trkpt>
      <trkpt lat="42.588715" lon="-0.430278">
        <ele>1360.0</ele>
        <time>2019-03-26T10:53:32.000Z</time>
      </trkpt>
      <trkpt lat="42.58872" lon="-0.430261">
        <ele>1360.0</ele>
        <time>2019-03-26T10:53:33.000Z</time>
      </trkpt>
      <trkpt lat="42.588725" lon="-0.430243">
        <ele>1360.0</ele>
        <time>2019-03-26T10:53:34.000Z</time>
      </trkpt>
      <trkpt lat="42.588728" lon="-0.430225">
        <ele>1361.0</ele>
        <time>2019-03-26T10:53:35.000Z</time>
      </trkpt>
      <trkpt lat="42.588731" lon="-0.430207">
        <ele>1361.0</ele>
        <time>2019-03-26T10:53:36.000Z</time>
      </trkpt>
      <trkpt lat="42.588732" lon="-0.430188">
        <ele>1361.0</ele>
        <time>2019-03-26T10:53:37.000Z</time>
      </trkpt>
      <trkpt lat="42.588733" lon="-0.430169">
        <ele>1361.0</ele>
        <time>2019-03-26T10:53:38.000Z</time>
      </trkpt>
      <trkpt lat="42.588734" lon="-0.430149">
        <ele>1361.0</ele>
        <time>2019-03-26T10:53:39.000Z</time>
      </trkpt>
      <trkpt lat="42.588734" lon="-0.43013">
        <ele>1361.0</ele>
        <time>2019-03-26T10:53:40.000Z</time>
      </trkpt>
      <trkpt lat="42.588735" lon="-0.430111">
        <ele>1361.0</ele>
        <time>2019-03-26T10:53:41.000Z</time>
      </trkpt>
      <trkpt lat="42.588736" lon="-0.430091">
        <ele>1361.0</ele>
        <time>2019-03-26T10:53:42.000Z</time>
      </trkpt>
      <trkpt lat="42.588737" lon="-0.430072">
        <ele>1361.0</ele>
        <time>2019-03-26T10:53:43.000Z</time>
      </trkpt>
      <trkpt lat="42.588739" lon="-0.430053">
        <ele>1361.0</ele>
        <time>2019-03-26T10:53:44.000Z</time>
      </trkpt>
      <trkpt lat="42.58874" lon="-0.430034">
        <ele>1362.0</ele>
        <time>2019-03-26T10:53:45.000Z</time>
      </trkpt>
      <trkpt lat="42.588742" lon="-0.430015">
        <ele>1362.0</ele>
        <time>2019-03-26T10:53:46.000Z</time>
      </trkpt>
      <trkpt lat="42.588744" lon="-0.429996">
        <ele>1362.0</ele>
        <time>2019-03-26T10:53:47.000Z</time>
      </trkpt>
      <trkpt lat="42.588746" lon="-0.429977">
        <ele>1362.0</ele>
        <time>2019-03-26T10:53:48.000Z</time>
      </trkpt>
      <trkpt lat="42.588748" lon="-0.429958">
        <ele>1362.0</ele>
        <time>2019-03-26T10:53:49.000Z</time>
      </trkpt>
      <trkpt lat="42.58875" lon="-0.429939">
        <ele>1362.0</ele>
        <time>2019-03-26T10:53:50.000Z</time>
      </trkpt>
      <trkpt lat="42.588752" lon="-0.42992">
        <ele>1362.0</ele>
        <time>2019-03-26T10:53:51.000Z</time>
      </trkpt>
      <trkpt lat="42.588754" lon="-0.429901">
        <ele>1362.0</ele>
        <time>2019-03-26T10:53:52.000Z</time>
      </trkpt>
      <trkpt lat="42.588756" lon="-0.429882">
        <ele>1362.0</ele>
        <time>2019-03-26T10:53:53.000Z</time>
      </trkpt>
      <trkpt lat="42.588757" lon="-0.429862">
        <ele>1362.0</ele>
        <time>2019-03-26T10:53:54.000Z</time>
      </trkpt>
      <trkpt lat="42.588758" lon="-0.429843">
        <ele>1362.0</ele>
        <time>2019-03-26T10:53:55.000Z</time>
      </trkpt>
      <trkpt lat="42.58876" lon="-0.429824">
        <ele>1362.0</ele>
        <time>2019-03-26T10:53:56.000Z</time>
      </trkpt>
      <trkpt lat="42.58876" lon="-0.429805">
        <ele>1362.0</ele>
        <time>2019-03-26T10:53:57.000Z</time>
      </trkpt>
      <trkpt lat="42.588761" lon="-0.429788">
        <ele>1363.0</ele>
        <time>2019-03-26T10:53:58.000Z</time>
      </trkpt>
      <trkpt lat="42.588761" lon="-0.429773">
        <ele>1362.0</ele>
        <time>2019-03-26T10:53:59.000Z</time>
      </trkpt>
      <trkpt lat="42.588761" lon="-0.429764">
        <ele>1362.0</ele>
        <time>2019-03-26T10:54:00.000Z</time>
      </trkpt>
      <trkpt lat="42.588761" lon="-0.42976">
        <ele>1362.0</ele>
        <time>2019-03-26T10:54:01.000Z</time>
      </trkpt>
      <trkpt lat="42.588761" lon="-0.42976">
        <ele>1362.0</ele>
        <time>2019-03-26T10:54:02.000Z</time>
      </trkpt>
      <trkpt lat="42.588761" lon="-0.429761">
        <ele>1362.0</ele>
        <time>2019-03-26T10:54:03.000Z</time>
      </trkpt>
      <trkpt lat="42.588761" lon="-0.429762">
        <ele>1362.0</ele>
        <time>2019-03-26T10:54:04.000Z</time>
      </trkpt>
      <trkpt lat="42.588762" lon="-0.429762">
        <ele>1362.0</ele>
        <time>2019-03-26T10:54:05.000Z</time>
      </trkpt>
      <trkpt lat="42.588762" lon="-0.429762">
        <ele>1362.0</ele>
        <time>2019-03-26T10:54:06.000Z</time>
      </trkpt>
      <trkpt lat="42.588762" lon="-0.429762">
        <ele>1362.0</ele>
        <time>2019-03-26T10:54:07.000Z</time>
      </trkpt>
      <trkpt lat="42.588762" lon="-0.429761">
        <ele>1362.0</ele>
        <time>2019-03-26T10:54:08.000Z</time>
      </trkpt>
      <trkpt lat="42.588762" lon="-0.429761">
        <ele>1362.0</ele>
        <time>2019-03-26T10:54:09.000Z</time>
      </trkpt>
      <trkpt lat="42.588762" lon="-0.429761">
        <ele>1362.0</ele>
        <time>2019-03-26T10:54:10.000Z</time>
      </trkpt>
      <trkpt lat="42.588762" lon="-0.429762">
        <ele>1362.0</ele>
        <time>2019-03-26T10:54:11.000Z</time>
      </trkpt>
      <trkpt lat="42.588763" lon="-0.429759">
        <ele>1362.0</ele>
        <time>2019-03-26T10:54:12.000Z</time>
      </trkpt>
      <trkpt lat="42.588762" lon="-0.42975">
        <ele>1362.0</ele>
        <time>2019-03-26T10:54:13.000Z</time>
      </trkpt>
      <trkpt lat="42.588762" lon="-0.429737">
        <ele>1363.0</ele>
        <time>2019-03-26T10:54:14.000Z</time>
      </trkpt>
      <trkpt lat="42.58876" lon="-0.429721">
        <ele>1363.0</ele>
        <time>2019-03-26T10:54:15.000Z</time>
      </trkpt>
      <trkpt lat="42.588758" lon="-0.429703">
        <ele>1363.0</ele>
        <time>2019-03-26T10:54:16.000Z</time>
      </trkpt>
      <trkpt lat="42.588755" lon="-0.429684">
        <ele>1363.0</ele>
        <time>2019-03-26T10:54:17.000Z</time>
      </trkpt>
      <trkpt lat="42.588753" lon="-0.429664">
        <ele>1363.0</ele>
        <time>2019-03-26T10:54:18.000Z</time>
      </trkpt>
      <trkpt lat="42.588751" lon="-0.429644">
        <ele>1363.0</ele>
        <time>2019-03-26T10:54:19.000Z</time>
      </trkpt>
      <trkpt lat="42.588749" lon="-0.429624">
        <ele>1363.0</ele>
        <time>2019-03-26T10:54:20.000Z</time>
      </trkpt>
      <trkpt lat="42.588748" lon="-0.429604">
        <ele>1363.0</ele>
        <time>2019-03-26T10:54:21.000Z</time>
      </trkpt>
      <trkpt lat="42.588747" lon="-0.429584">
        <ele>1364.0</ele>
        <time>2019-03-26T10:54:22.000Z</time>
      </trkpt>
      <trkpt lat="42.588747" lon="-0.429563">
        <ele>1364.0</ele>
        <time>2019-03-26T10:54:23.000Z</time>
      </trkpt>
      <trkpt lat="42.588747" lon="-0.429542">
        <ele>1364.0</ele>
        <time>2019-03-26T10:54:24.000Z</time>
      </trkpt>
      <trkpt lat="42.588748" lon="-0.429521">
        <ele>1364.0</ele>
        <time>2019-03-26T10:54:25.000Z</time>
      </trkpt>
      <trkpt lat="42.588749" lon="-0.429499">
        <ele>1364.0</ele>
        <time>2019-03-26T10:54:26.000Z</time>
      </trkpt>
      <trkpt lat="42.58875" lon="-0.429476">
        <ele>1364.0</ele>
        <time>2019-03-26T10:54:27.000Z</time>
      </trkpt>
      <trkpt lat="42.588752" lon="-0.429453">
        <ele>1364.0</ele>
        <time>2019-03-26T10:54:28.000Z</time>
      </trkpt>
      <trkpt lat="42.588754" lon="-0.42943">
        <ele>1364.0</ele>
        <time>2019-03-26T10:54:29.000Z</time>
      </trkpt>
      <trkpt lat="42.588756" lon="-0.429407">
        <ele>1364.0</ele>
        <time>2019-03-26T10:54:30.000Z</time>
      </trkpt>
      <trkpt lat="42.588759" lon="-0.429384">
        <ele>1364.0</ele>
        <time>2019-03-26T10:54:31.000Z</time>
      </trkpt>
      <trkpt lat="42.588761" lon="-0.42936">
        <ele>1364.0</ele>
        <time>2019-03-26T10:54:32.000Z</time>
      </trkpt>
      <trkpt lat="42.588764" lon="-0.429337">
        <ele>1364.0</ele>
        <time>2019-03-26T10:54:33.000Z</time>
      </trkpt>
      <trkpt lat="42.588767" lon="-0.429313">
        <ele>1364.0</ele>
        <time>2019-03-26T10:54:34.000Z</time>
      </trkpt>
      <trkpt lat="42.58877" lon="-0.42929">
        <ele>1365.0</ele>
        <time>2019-03-26T10:54:35.000Z</time>
      </trkpt>
      <trkpt lat="42.588773" lon="-0.429267">
        <ele>1365.0</ele>
        <time>2019-03-26T10:54:36.000Z</time>
      </trkpt>
      <trkpt lat="42.588777" lon="-0.429244">
        <ele>1365.0</ele>
        <time>2019-03-26T10:54:37.000Z</time>
      </trkpt>
      <trkpt lat="42.58878" lon="-0.429221">
        <ele>1365.0</ele>
        <time>2019-03-26T10:54:38.000Z</time>
      </trkpt>
      <trkpt lat="42.588783" lon="-0.429199">
        <ele>1365.0</ele>
        <time>2019-03-26T10:54:39.000Z</time>
      </trkpt>
      <trkpt lat="42.588787" lon="-0.429177">
        <ele>1365.0</ele>
        <time>2019-03-26T10:54:40.000Z</time>
      </trkpt>
      <trkpt lat="42.58879" lon="-0.429155">
        <ele>1365.0</ele>
        <time>2019-03-26T10:54:41.000Z</time>
      </trkpt>
      <trkpt lat="42.588794" lon="-0.429134">
        <ele>1365.0</ele>
        <time>2019-03-26T10:54:42.000Z</time>
      </trkpt>
      <trkpt lat="42.588797" lon="-0.429114">
        <ele>1365.0</ele>
        <time>2019-03-26T10:54:43.000Z</time>
      </trkpt>
      <trkpt lat="42.588801" lon="-0.429094">
        <ele>1365.0</ele>
        <time>2019-03-26T10:54:44.000Z</time>
      </trkpt>
      <trkpt lat="42.588804" lon="-0.429074">
        <ele>1365.0</ele>
        <time>2019-03-26T10:54:45.000Z</time>
      </trkpt>
      <trkpt lat="42.588807" lon="-0.429055">
        <ele>1365.0</ele>
        <time>2019-03-26T10:54:46.000Z</time>
      </trkpt>
      <trkpt lat="42.588811" lon="-0.429036">
        <ele>1365.0</ele>
        <time>2019-03-26T10:54:47.000Z</time>
      </trkpt>
      <trkpt lat="42.588814" lon="-0.429017">
        <ele>1365.0</ele>
        <time>2019-03-26T10:54:48.000Z</time>
      </trkpt>
      <trkpt lat="42.588818" lon="-0.428999">
        <ele>1366.0</ele>
        <time>2019-03-26T10:54:49.000Z</time>
      </trkpt>
      <trkpt lat="42.588821" lon="-0.42898">
        <ele>1366.0</ele>
        <time>2019-03-26T10:54:50.000Z</time>
      </trkpt>
      <trkpt lat="42.588825" lon="-0.428962">
        <ele>1366.0</ele>
        <time>2019-03-26T10:54:51.000Z</time>
      </trkpt>
      <trkpt lat="42.588828" lon="-0.428944">
        <ele>1366.0</ele>
        <time>2019-03-26T10:54:52.000Z</time>
      </trkpt>
      <trkpt lat="42.588832" lon="-0.428926">
        <ele>1366.0</ele>
        <time>2019-03-26T10:54:53.000Z</time>
      </trkpt>
      <trkpt lat="42.588835" lon="-0.428908">
        <ele>1366.0</ele>
        <time>2019-03-26T10:54:54.000Z</time>
      </trkpt>
      <trkpt lat="42.588839" lon="-0.42889">
        <ele>1366.0</ele>
        <time>2019-03-26T10:54:55.000Z</time>
      </trkpt>
      <trkpt lat="42.588843" lon="-0.428872">
        <ele>1367.0</ele>
        <time>2019-03-26T10:54:56.000Z</time>
      </trkpt>
      <trkpt lat="42.588847" lon="-0.428855">
        <ele>1367.0</ele>
        <time>2019-03-26T10:54:57.000Z</time>
      </trkpt>
      <trkpt lat="42.58885" lon="-0.428837">
        <ele>1367.0</ele>
        <time>2019-03-26T10:54:58.000Z</time>
      </trkpt>
      <trkpt lat="42.588854" lon="-0.428819">
        <ele>1367.0</ele>
        <time>2019-03-26T10:54:59.000Z</time>
      </trkpt>
      <trkpt lat="42.588858" lon="-0.428801">
        <ele>1367.0</ele>
        <time>2019-03-26T10:55:00.000Z</time>
      </trkpt>
      <trkpt lat="42.588861" lon="-0.428783">
        <ele>1367.0</ele>
        <time>2019-03-26T10:55:01.000Z</time>
      </trkpt>
      <trkpt lat="42.588865" lon="-0.428765">
        <ele>1367.0</ele>
        <time>2019-03-26T10:55:02.000Z</time>
      </trkpt>
      <trkpt lat="42.588868" lon="-0.428747">
        <ele>1368.0</ele>
        <time>2019-03-26T10:55:03.000Z</time>
      </trkpt>
      <trkpt lat="42.588872" lon="-0.428728">
        <ele>1368.0</ele>
        <time>2019-03-26T10:55:04.000Z</time>
      </trkpt>
      <trkpt lat="42.588875" lon="-0.42871">
        <ele>1368.0</ele>
        <time>2019-03-26T10:55:05.000Z</time>
      </trkpt>
      <trkpt lat="42.588878" lon="-0.428692">
        <ele>1368.0</ele>
        <time>2019-03-26T10:55:06.000Z</time>
      </trkpt>
      <trkpt lat="42.58888" lon="-0.428673">
        <ele>1368.0</ele>
        <time>2019-03-26T10:55:07.000Z</time>
      </trkpt>
      <trkpt lat="42.588883" lon="-0.428655">
        <ele>1368.0</ele>
        <time>2019-03-26T10:55:08.000Z</time>
      </trkpt>
      <trkpt lat="42.588885" lon="-0.428636">
        <ele>1368.0</ele>
        <time>2019-03-26T10:55:09.000Z</time>
      </trkpt>
      <trkpt lat="42.588887" lon="-0.428618">
        <ele>1369.0</ele>
        <time>2019-03-26T10:55:10.000Z</time>
      </trkpt>
      <trkpt lat="42.588888" lon="-0.428599">
        <ele>1369.0</ele>
        <time>2019-03-26T10:55:11.000Z</time>
      </trkpt>
      <trkpt lat="42.58889" lon="-0.42858">
        <ele>1369.0</ele>
        <time>2019-03-26T10:55:12.000Z</time>
      </trkpt>
      <trkpt lat="42.588891" lon="-0.428561">
        <ele>1369.0</ele>
        <time>2019-03-26T10:55:13.000Z</time>
      </trkpt>
      <trkpt lat="42.588892" lon="-0.428542">
        <ele>1369.0</ele>
        <time>2019-03-26T10:55:14.000Z</time>
      </trkpt>
      <trkpt lat="42.588892" lon="-0.428522">
        <ele>1369.0</ele>
        <time>2019-03-26T10:55:15.000Z</time>
      </trkpt>
      <trkpt lat="42.588893" lon="-0.428502">
        <ele>1369.0</ele>
        <time>2019-03-26T10:55:16.000Z</time>
      </trkpt>
      <trkpt lat="42.588894" lon="-0.428482">
        <ele>1370.0</ele>
        <time>2019-03-26T10:55:17.000Z</time>
      </trkpt>
      <trkpt lat="42.588895" lon="-0.428462">
        <ele>1370.0</ele>
        <time>2019-03-26T10:55:18.000Z</time>
      </trkpt>
      <trkpt lat="42.588896" lon="-0.428441">
        <ele>1370.0</ele>
        <time>2019-03-26T10:55:19.000Z</time>
      </trkpt>
      <trkpt lat="42.588896" lon="-0.42842">
        <ele>1370.0</ele>
        <time>2019-03-26T10:55:20.000Z</time>
      </trkpt>
      <trkpt lat="42.588897" lon="-0.428399">
        <ele>1370.0</ele>
        <time>2019-03-26T10:55:21.000Z</time>
      </trkpt>
      <trkpt lat="42.588897" lon="-0.428378">
        <ele>1370.0</ele>
        <time>2019-03-26T10:55:22.000Z</time>
      </trkpt>
      <trkpt lat="42.588897" lon="-0.428357">
        <ele>1370.0</ele>
        <time>2019-03-26T10:55:23.000Z</time>
      </trkpt>
      <trkpt lat="42.588897" lon="-0.428335">
        <ele>1370.0</ele>
        <time>2019-03-26T10:55:24.000Z</time>
      </trkpt>
      <trkpt lat="42.588895" lon="-0.428315">
        <ele>1370.0</ele>
        <time>2019-03-26T10:55:25.000Z</time>
      </trkpt>
      <trkpt lat="42.588893" lon="-0.428294">
        <ele>1370.0</ele>
        <time>2019-03-26T10:55:26.000Z</time>
      </trkpt>
      <trkpt lat="42.58889" lon="-0.428274">
        <ele>1371.0</ele>
        <time>2019-03-26T10:55:27.000Z</time>
      </trkpt>
      <trkpt lat="42.588888" lon="-0.428254">
        <ele>1371.0</ele>
        <time>2019-03-26T10:55:28.000Z</time>
      </trkpt>
      <trkpt lat="42.588885" lon="-0.428235">
        <ele>1371.0</ele>
        <time>2019-03-26T10:55:29.000Z</time>
      </trkpt>
      <trkpt lat="42.588883" lon="-0.428217">
        <ele>1371.0</ele>
        <time>2019-03-26T10:55:30.000Z</time>
      </trkpt>
      <trkpt lat="42.588883" lon="-0.428201">
        <ele>1371.0</ele>
        <time>2019-03-26T10:55:31.000Z</time>
      </trkpt>
      <trkpt lat="42.588883" lon="-0.428186">
        <ele>1372.0</ele>
        <time>2019-03-26T10:55:32.000Z</time>
      </trkpt>
      <trkpt lat="42.588886" lon="-0.428172">
        <ele>1372.0</ele>
        <time>2019-03-26T10:55:33.000Z</time>
      </trkpt>
      <trkpt lat="42.58889" lon="-0.42816">
        <ele>1372.0</ele>
        <time>2019-03-26T10:55:34.000Z</time>
      </trkpt>
      <trkpt lat="42.588896" lon="-0.428149">
        <ele>1372.0</ele>
        <time>2019-03-26T10:55:35.000Z</time>
      </trkpt>
      <trkpt lat="42.588904" lon="-0.428141">
        <ele>1372.0</ele>
        <time>2019-03-26T10:55:36.000Z</time>
      </trkpt>
      <trkpt lat="42.588913" lon="-0.428135">
        <ele>1372.0</ele>
        <time>2019-03-26T10:55:37.000Z</time>
      </trkpt>
      <trkpt lat="42.588922" lon="-0.428132">
        <ele>1373.0</ele>
        <time>2019-03-26T10:55:38.000Z</time>
      </trkpt>
      <trkpt lat="42.588932" lon="-0.428131">
        <ele>1373.0</ele>
        <time>2019-03-26T10:55:39.000Z</time>
      </trkpt>
      <trkpt lat="42.588942" lon="-0.428132">
        <ele>1373.0</ele>
        <time>2019-03-26T10:55:40.000Z</time>
      </trkpt>
      <trkpt lat="42.588951" lon="-0.428137">
        <ele>1373.0</ele>
        <time>2019-03-26T10:55:41.000Z</time>
      </trkpt>
      <trkpt lat="42.58896" lon="-0.428144">
        <ele>1374.0</ele>
        <time>2019-03-26T10:55:42.000Z</time>
      </trkpt>
      <trkpt lat="42.588969" lon="-0.428153">
        <ele>1374.0</ele>
        <time>2019-03-26T10:55:43.000Z</time>
      </trkpt>
      <trkpt lat="42.588977" lon="-0.428164">
        <ele>1374.0</ele>
        <time>2019-03-26T10:55:44.000Z</time>
      </trkpt>
      <trkpt lat="42.588985" lon="-0.428176">
        <ele>1374.0</ele>
        <time>2019-03-26T10:55:45.000Z</time>
      </trkpt>
      <trkpt lat="42.588993" lon="-0.428188">
        <ele>1374.0</ele>
        <time>2019-03-26T10:55:46.000Z</time>
      </trkpt>
      <trkpt lat="42.589" lon="-0.428202">
        <ele>1374.0</ele>
        <time>2019-03-26T10:55:47.000Z</time>
      </trkpt>
      <trkpt lat="42.589006" lon="-0.428215">
        <ele>1374.0</ele>
        <time>2019-03-26T10:55:48.000Z</time>
      </trkpt>
      <trkpt lat="42.589012" lon="-0.428228">
        <ele>1375.0</ele>
        <time>2019-03-26T10:55:49.000Z</time>
      </trkpt>
      <trkpt lat="42.589018" lon="-0.428241">
        <ele>1375.0</ele>
        <time>2019-03-26T10:55:50.000Z</time>
      </trkpt>
      <trkpt lat="42.589024" lon="-0.428254">
        <ele>1375.0</ele>
        <time>2019-03-26T10:55:51.000Z</time>
      </trkpt>
      <trkpt lat="42.58903" lon="-0.428267">
        <ele>1375.0</ele>
        <time>2019-03-26T10:55:52.000Z</time>
      </trkpt>
      <trkpt lat="42.589036" lon="-0.42828">
        <ele>1375.0</ele>
        <time>2019-03-26T10:55:53.000Z</time>
      </trkpt>
      <trkpt lat="42.589043" lon="-0.428293">
        <ele>1375.0</ele>
        <time>2019-03-26T10:55:54.000Z</time>
      </trkpt>
      <trkpt lat="42.58905" lon="-0.428307">
        <ele>1375.0</ele>
        <time>2019-03-26T10:55:55.000Z</time>
      </trkpt>
      <trkpt lat="42.589058" lon="-0.428321">
        <ele>1375.0</ele>
        <time>2019-03-26T10:55:56.000Z</time>
      </trkpt>
      <trkpt lat="42.589066" lon="-0.428335">
        <ele>1376.0</ele>
        <time>2019-03-26T10:55:57.000Z</time>
      </trkpt>
      <trkpt lat="42.589075" lon="-0.42835">
        <ele>1376.0</ele>
        <time>2019-03-26T10:55:58.000Z</time>
      </trkpt>
      <trkpt lat="42.589084" lon="-0.428365">
        <ele>1376.0</ele>
        <time>2019-03-26T10:55:59.000Z</time>
      </trkpt>
      <trkpt lat="42.589094" lon="-0.42838">
        <ele>1376.0</ele>
        <time>2019-03-26T10:56:00.000Z</time>
      </trkpt>
      <trkpt lat="42.589103" lon="-0.428395">
        <ele>1376.0</ele>
        <time>2019-03-26T10:56:01.000Z</time>
      </trkpt>
      <trkpt lat="42.589113" lon="-0.428411">
        <ele>1376.0</ele>
        <time>2019-03-26T10:56:02.000Z</time>
      </trkpt>
      <trkpt lat="42.589123" lon="-0.428427">
        <ele>1376.0</ele>
        <time>2019-03-26T10:56:03.000Z</time>
      </trkpt>
      <trkpt lat="42.589132" lon="-0.428443">
        <ele>1376.0</ele>
        <time>2019-03-26T10:56:04.000Z</time>
      </trkpt>
      <trkpt lat="42.589142" lon="-0.428459">
        <ele>1376.0</ele>
        <time>2019-03-26T10:56:05.000Z</time>
      </trkpt>
      <trkpt lat="42.589152" lon="-0.428475">
        <ele>1377.0</ele>
        <time>2019-03-26T10:56:06.000Z</time>
      </trkpt>
      <trkpt lat="42.589162" lon="-0.42849">
        <ele>1377.0</ele>
        <time>2019-03-26T10:56:07.000Z</time>
      </trkpt>
      <trkpt lat="42.589172" lon="-0.428506">
        <ele>1377.0</ele>
        <time>2019-03-26T10:56:08.000Z</time>
      </trkpt>
      <trkpt lat="42.589183" lon="-0.428521">
        <ele>1377.0</ele>
        <time>2019-03-26T10:56:09.000Z</time>
      </trkpt>
      <trkpt lat="42.589194" lon="-0.428536">
        <ele>1377.0</ele>
        <time>2019-03-26T10:56:10.000Z</time>
      </trkpt>
      <trkpt lat="42.589205" lon="-0.428551">
        <ele>1377.0</ele>
        <time>2019-03-26T10:56:11.000Z</time>
      </trkpt>
      <trkpt lat="42.589217" lon="-0.428566">
        <ele>1377.0</ele>
        <time>2019-03-26T10:56:12.000Z</time>
      </trkpt>
      <trkpt lat="42.589229" lon="-0.428581">
        <ele>1377.0</ele>
        <time>2019-03-26T10:56:13.000Z</time>
      </trkpt>
      <trkpt lat="42.58924" lon="-0.428596">
        <ele>1377.0</ele>
        <time>2019-03-26T10:56:14.000Z</time>
      </trkpt>
      <trkpt lat="42.58925" lon="-0.428612">
        <ele>1377.0</ele>
        <time>2019-03-26T10:56:15.000Z</time>
      </trkpt>
      <trkpt lat="42.58926" lon="-0.428628">
        <ele>1378.0</ele>
        <time>2019-03-26T10:56:16.000Z</time>
      </trkpt>
      <trkpt lat="42.589269" lon="-0.428645">
        <ele>1378.0</ele>
        <time>2019-03-26T10:56:17.000Z</time>
      </trkpt>
      <trkpt lat="42.589277" lon="-0.428663">
        <ele>1378.0</ele>
        <time>2019-03-26T10:56:18.000Z</time>
      </trkpt>
      <trkpt lat="42.589284" lon="-0.428681">
        <ele>1378.0</ele>
        <time>2019-03-26T10:56:19.000Z</time>
      </trkpt>
      <trkpt lat="42.589291" lon="-0.428699">
        <ele>1378.0</ele>
        <time>2019-03-26T10:56:20.000Z</time>
      </trkpt>
      <trkpt lat="42.589296" lon="-0.428719">
        <ele>1378.0</ele>
        <time>2019-03-26T10:56:21.000Z</time>
      </trkpt>
      <trkpt lat="42.589301" lon="-0.428738">
        <ele>1378.0</ele>
        <time>2019-03-26T10:56:22.000Z</time>
      </trkpt>
      <trkpt lat="42.589305" lon="-0.428757">
        <ele>1378.0</ele>
        <time>2019-03-26T10:56:23.000Z</time>
      </trkpt>
      <trkpt lat="42.589308" lon="-0.428777">
        <ele>1378.0</ele>
        <time>2019-03-26T10:56:24.000Z</time>
      </trkpt>
      <trkpt lat="42.589311" lon="-0.428796">
        <ele>1378.0</ele>
        <time>2019-03-26T10:56:25.000Z</time>
      </trkpt>
      <trkpt lat="42.589314" lon="-0.428816">
        <ele>1379.0</ele>
        <time>2019-03-26T10:56:26.000Z</time>
      </trkpt>
      <trkpt lat="42.589316" lon="-0.428835">
        <ele>1379.0</ele>
        <time>2019-03-26T10:56:27.000Z</time>
      </trkpt>
      <trkpt lat="42.589318" lon="-0.428854">
        <ele>1379.0</ele>
        <time>2019-03-26T10:56:28.000Z</time>
      </trkpt>
      <trkpt lat="42.58932" lon="-0.428872">
        <ele>1379.0</ele>
        <time>2019-03-26T10:56:29.000Z</time>
      </trkpt>
      <trkpt lat="42.589321" lon="-0.428891">
        <ele>1379.0</ele>
        <time>2019-03-26T10:56:30.000Z</time>
      </trkpt>
      <trkpt lat="42.589322" lon="-0.428909">
        <ele>1379.0</ele>
        <time>2019-03-26T10:56:31.000Z</time>
      </trkpt>
      <trkpt lat="42.589323" lon="-0.428927">
        <ele>1379.0</ele>
        <time>2019-03-26T10:56:32.000Z</time>
      </trkpt>
      <trkpt lat="42.589324" lon="-0.428944">
        <ele>1380.0</ele>
        <time>2019-03-26T10:56:33.000Z</time>
      </trkpt>
      <trkpt lat="42.589324" lon="-0.428961">
        <ele>1379.0</ele>
        <time>2019-03-26T10:56:34.000Z</time>
      </trkpt>
      <trkpt lat="42.589324" lon="-0.428979">
        <ele>1380.0</ele>
        <time>2019-03-26T10:56:35.000Z</time>
      </trkpt>
      <trkpt lat="42.589325" lon="-0.428995">
        <ele>1380.0</ele>
        <time>2019-03-26T10:56:36.000Z</time>
      </trkpt>
      <trkpt lat="42.589325" lon="-0.429012">
        <ele>1380.0</ele>
        <time>2019-03-26T10:56:37.000Z</time>
      </trkpt>
      <trkpt lat="42.589325" lon="-0.429029">
        <ele>1380.0</ele>
        <time>2019-03-26T10:56:38.000Z</time>
      </trkpt>
      <trkpt lat="42.589325" lon="-0.429046">
        <ele>1380.0</ele>
        <time>2019-03-26T10:56:39.000Z</time>
      </trkpt>
      <trkpt lat="42.589325" lon="-0.429062">
        <ele>1380.0</ele>
        <time>2019-03-26T10:56:40.000Z</time>
      </trkpt>
      <trkpt lat="42.589326" lon="-0.429079">
        <ele>1380.0</ele>
        <time>2019-03-26T10:56:41.000Z</time>
      </trkpt>
      <trkpt lat="42.589326" lon="-0.429096">
        <ele>1381.0</ele>
        <time>2019-03-26T10:56:42.000Z</time>
      </trkpt>
      <trkpt lat="42.589326" lon="-0.429113">
        <ele>1381.0</ele>
        <time>2019-03-26T10:56:43.000Z</time>
      </trkpt>
      <trkpt lat="42.589327" lon="-0.429129">
        <ele>1381.0</ele>
        <time>2019-03-26T10:56:44.000Z</time>
      </trkpt>
      <trkpt lat="42.589327" lon="-0.429146">
        <ele>1381.0</ele>
        <time>2019-03-26T10:56:45.000Z</time>
      </trkpt>
      <trkpt lat="42.589328" lon="-0.429163">
        <ele>1381.0</ele>
        <time>2019-03-26T10:56:46.000Z</time>
      </trkpt>
      <trkpt lat="42.589329" lon="-0.42918">
        <ele>1381.0</ele>
        <time>2019-03-26T10:56:47.000Z</time>
      </trkpt>
      <trkpt lat="42.589329" lon="-0.429197">
        <ele>1381.0</ele>
        <time>2019-03-26T10:56:48.000Z</time>
      </trkpt>
      <trkpt lat="42.58933" lon="-0.429214">
        <ele>1381.0</ele>
        <time>2019-03-26T10:56:49.000Z</time>
      </trkpt>
      <trkpt lat="42.589331" lon="-0.429232">
        <ele>1381.0</ele>
        <time>2019-03-26T10:56:50.000Z</time>
      </trkpt>
      <trkpt lat="42.589331" lon="-0.429249">
        <ele>1382.0</ele>
        <time>2019-03-26T10:56:51.000Z</time>
      </trkpt>
      <trkpt lat="42.589332" lon="-0.429266">
        <ele>1382.0</ele>
        <time>2019-03-26T10:56:52.000Z</time>
      </trkpt>
      <trkpt lat="42.589333" lon="-0.429284">
        <ele>1382.0</ele>
        <time>2019-03-26T10:56:53.000Z</time>
      </trkpt>
      <trkpt lat="42.589334" lon="-0.429301">
        <ele>1382.0</ele>
        <time>2019-03-26T10:56:54.000Z</time>
      </trkpt>
      <trkpt lat="42.589334" lon="-0.429319">
        <ele>1382.0</ele>
        <time>2019-03-26T10:56:55.000Z</time>
      </trkpt>
      <trkpt lat="42.589335" lon="-0.429337">
        <ele>1382.0</ele>
        <time>2019-03-26T10:56:56.000Z</time>
      </trkpt>
      <trkpt lat="42.589336" lon="-0.429355">
        <ele>1382.0</ele>
        <time>2019-03-26T10:56:57.000Z</time>
      </trkpt>
      <trkpt lat="42.589336" lon="-0.429373">
        <ele>1382.0</ele>
        <time>2019-03-26T10:56:58.000Z</time>
      </trkpt>
      <trkpt lat="42.589337" lon="-0.429392">
        <ele>1382.0</ele>
        <time>2019-03-26T10:56:59.000Z</time>
      </trkpt>
      <trkpt lat="42.589338" lon="-0.42941">
        <ele>1383.0</ele>
        <time>2019-03-26T10:57:00.000Z</time>
      </trkpt>
      <trkpt lat="42.589338" lon="-0.429429">
        <ele>1383.0</ele>
        <time>2019-03-26T10:57:01.000Z</time>
      </trkpt>
      <trkpt lat="42.589339" lon="-0.429447">
        <ele>1383.0</ele>
        <time>2019-03-26T10:57:02.000Z</time>
      </trkpt>
      <trkpt lat="42.58934" lon="-0.429466">
        <ele>1383.0</ele>
        <time>2019-03-26T10:57:03.000Z</time>
      </trkpt>
      <trkpt lat="42.58934" lon="-0.429485">
        <ele>1383.0</ele>
        <time>2019-03-26T10:57:04.000Z</time>
      </trkpt>
      <trkpt lat="42.589341" lon="-0.429505">
        <ele>1383.0</ele>
        <time>2019-03-26T10:57:05.000Z</time>
      </trkpt>
      <trkpt lat="42.589341" lon="-0.429524">
        <ele>1383.0</ele>
        <time>2019-03-26T10:57:06.000Z</time>
      </trkpt>
      <trkpt lat="42.589341" lon="-0.429544">
        <ele>1383.0</ele>
        <time>2019-03-26T10:57:07.000Z</time>
      </trkpt>
      <trkpt lat="42.589342" lon="-0.429564">
        <ele>1383.0</ele>
        <time>2019-03-26T10:57:08.000Z</time>
      </trkpt>
      <trkpt lat="42.589342" lon="-0.429584">
        <ele>1383.0</ele>
        <time>2019-03-26T10:57:09.000Z</time>
      </trkpt>
      <trkpt lat="42.589342" lon="-0.429604">
        <ele>1383.0</ele>
        <time>2019-03-26T10:57:10.000Z</time>
      </trkpt>
      <trkpt lat="42.589342" lon="-0.429625">
        <ele>1383.0</ele>
        <time>2019-03-26T10:57:11.000Z</time>
      </trkpt>
      <trkpt lat="42.589342" lon="-0.429646">
        <ele>1384.0</ele>
        <time>2019-03-26T10:57:12.000Z</time>
      </trkpt>
      <trkpt lat="42.589343" lon="-0.429666">
        <ele>1384.0</ele>
        <time>2019-03-26T10:57:13.000Z</time>
      </trkpt>
      <trkpt lat="42.589344" lon="-0.429687">
        <ele>1384.0</ele>
        <time>2019-03-26T10:57:14.000Z</time>
      </trkpt>
      <trkpt lat="42.589345" lon="-0.429708">
        <ele>1384.0</ele>
        <time>2019-03-26T10:57:15.000Z</time>
      </trkpt>
      <trkpt lat="42.589347" lon="-0.429729">
        <ele>1384.0</ele>
        <time>2019-03-26T10:57:16.000Z</time>
      </trkpt>
      <trkpt lat="42.58935" lon="-0.429749">
        <ele>1384.0</ele>
        <time>2019-03-26T10:57:17.000Z</time>
      </trkpt>
      <trkpt lat="42.589354" lon="-0.42977">
        <ele>1384.0</ele>
        <time>2019-03-26T10:57:18.000Z</time>
      </trkpt>
      <trkpt lat="42.589358" lon="-0.42979">
        <ele>1384.0</ele>
        <time>2019-03-26T10:57:19.000Z</time>
      </trkpt>
      <trkpt lat="42.589362" lon="-0.42981">
        <ele>1384.0</ele>
        <time>2019-03-26T10:57:20.000Z</time>
      </trkpt>
      <trkpt lat="42.589367" lon="-0.42983">
        <ele>1384.0</ele>
        <time>2019-03-26T10:57:21.000Z</time>
      </trkpt>
      <trkpt lat="42.589372" lon="-0.42985">
        <ele>1384.0</ele>
        <time>2019-03-26T10:57:22.000Z</time>
      </trkpt>
      <trkpt lat="42.589376" lon="-0.42987">
        <ele>1384.0</ele>
        <time>2019-03-26T10:57:23.000Z</time>
      </trkpt>
      <trkpt lat="42.58938" lon="-0.42989">
        <ele>1384.0</ele>
        <time>2019-03-26T10:57:24.000Z</time>
      </trkpt>
      <trkpt lat="42.589383" lon="-0.42991">
        <ele>1384.0</ele>
        <time>2019-03-26T10:57:25.000Z</time>
      </trkpt>
      <trkpt lat="42.589386" lon="-0.42993">
        <ele>1384.0</ele>
        <time>2019-03-26T10:57:26.000Z</time>
      </trkpt>
      <trkpt lat="42.589387" lon="-0.42995">
        <ele>1384.0</ele>
        <time>2019-03-26T10:57:27.000Z</time>
      </trkpt>
      <trkpt lat="42.589389" lon="-0.429969">
        <ele>1384.0</ele>
        <time>2019-03-26T10:57:28.000Z</time>
      </trkpt>
      <trkpt lat="42.58939" lon="-0.429989">
        <ele>1384.0</ele>
        <time>2019-03-26T10:57:29.000Z</time>
      </trkpt>
      <trkpt lat="42.58939" lon="-0.430008">
        <ele>1385.0</ele>
        <time>2019-03-26T10:57:30.000Z</time>
      </trkpt>
      <trkpt lat="42.58939" lon="-0.430028">
        <ele>1385.0</ele>
        <time>2019-03-26T10:57:31.000Z</time>
      </trkpt>
      <trkpt lat="42.58939" lon="-0.430047">
        <ele>1385.0</ele>
        <time>2019-03-26T10:57:32.000Z</time>
      </trkpt>
      <trkpt lat="42.58939" lon="-0.430066">
        <ele>1385.0</ele>
        <time>2019-03-26T10:57:33.000Z</time>
      </trkpt>
      <trkpt lat="42.58939" lon="-0.430084">
        <ele>1385.0</ele>
        <time>2019-03-26T10:57:34.000Z</time>
      </trkpt>
      <trkpt lat="42.589389" lon="-0.430103">
        <ele>1385.0</ele>
        <time>2019-03-26T10:57:35.000Z</time>
      </trkpt>
      <trkpt lat="42.589388" lon="-0.430121">
        <ele>1385.0</ele>
        <time>2019-03-26T10:57:36.000Z</time>
      </trkpt>
      <trkpt lat="42.589388" lon="-0.430139">
        <ele>1385.0</ele>
        <time>2019-03-26T10:57:37.000Z</time>
      </trkpt>
      <trkpt lat="42.589387" lon="-0.430157">
        <ele>1385.0</ele>
        <time>2019-03-26T10:57:38.000Z</time>
      </trkpt>
      <trkpt lat="42.589387" lon="-0.430174">
        <ele>1386.0</ele>
        <time>2019-03-26T10:57:39.000Z</time>
      </trkpt>
      <trkpt lat="42.589387" lon="-0.430191">
        <ele>1386.0</ele>
        <time>2019-03-26T10:57:40.000Z</time>
      </trkpt>
      <trkpt lat="42.589387" lon="-0.430208">
        <ele>1386.0</ele>
        <time>2019-03-26T10:57:41.000Z</time>
      </trkpt>
      <trkpt lat="42.589387" lon="-0.430225">
        <ele>1386.0</ele>
        <time>2019-03-26T10:57:42.000Z</time>
      </trkpt>
      <trkpt lat="42.589388" lon="-0.430241">
        <ele>1386.0</ele>
        <time>2019-03-26T10:57:43.000Z</time>
      </trkpt>
      <trkpt lat="42.589388" lon="-0.430258">
        <ele>1386.0</ele>
        <time>2019-03-26T10:57:44.000Z</time>
      </trkpt>
      <trkpt lat="42.589389" lon="-0.430275">
        <ele>1387.0</ele>
        <time>2019-03-26T10:57:45.000Z</time>
      </trkpt>
      <trkpt lat="42.58939" lon="-0.430292">
        <ele>1387.0</ele>
        <time>2019-03-26T10:57:46.000Z</time>
      </trkpt>
      <trkpt lat="42.589391" lon="-0.430309">
        <ele>1387.0</ele>
        <time>2019-03-26T10:57:47.000Z</time>
      </trkpt>
      <trkpt lat="42.589392" lon="-0.430327">
        <ele>1387.0</ele>
        <time>2019-03-26T10:57:48.000Z</time>
      </trkpt>
      <trkpt lat="42.589393" lon="-0.430345">
        <ele>1387.0</ele>
        <time>2019-03-26T10:57:49.000Z</time>
      </trkpt>
      <trkpt lat="42.589394" lon="-0.430363">
        <ele>1387.0</ele>
        <time>2019-03-26T10:57:50.000Z</time>
      </trkpt>
      <trkpt lat="42.589395" lon="-0.430381">
        <ele>1387.0</ele>
        <time>2019-03-26T10:57:51.000Z</time>
      </trkpt>
      <trkpt lat="42.589395" lon="-0.4304">
        <ele>1387.0</ele>
        <time>2019-03-26T10:57:52.000Z</time>
      </trkpt>
      <trkpt lat="42.589396" lon="-0.430418">
        <ele>1387.0</ele>
        <time>2019-03-26T10:57:53.000Z</time>
      </trkpt>
      <trkpt lat="42.589396" lon="-0.430437">
        <ele>1388.0</ele>
        <time>2019-03-26T10:57:54.000Z</time>
      </trkpt>
      <trkpt lat="42.589395" lon="-0.430456">
        <ele>1388.0</ele>
        <time>2019-03-26T10:57:55.000Z</time>
      </trkpt>
      <trkpt lat="42.589394" lon="-0.430475">
        <ele>1388.0</ele>
        <time>2019-03-26T10:57:56.000Z</time>
      </trkpt>
      <trkpt lat="42.589392" lon="-0.430493">
        <ele>1388.0</ele>
        <time>2019-03-26T10:57:57.000Z</time>
      </trkpt>
      <trkpt lat="42.58939" lon="-0.430512">
        <ele>1388.0</ele>
        <time>2019-03-26T10:57:58.000Z</time>
      </trkpt>
      <trkpt lat="42.589388" lon="-0.430531">
        <ele>1388.0</ele>
        <time>2019-03-26T10:57:59.000Z</time>
      </trkpt>
      <trkpt lat="42.589386" lon="-0.43055">
        <ele>1388.0</ele>
        <time>2019-03-26T10:58:00.000Z</time>
      </trkpt>
      <trkpt lat="42.589383" lon="-0.430568">
        <ele>1388.0</ele>
        <time>2019-03-26T10:58:01.000Z</time>
      </trkpt>
      <trkpt lat="42.58938" lon="-0.430587">
        <ele>1388.0</ele>
        <time>2019-03-26T10:58:02.000Z</time>
      </trkpt>
      <trkpt lat="42.589376" lon="-0.430606">
        <ele>1388.0</ele>
        <time>2019-03-26T10:58:03.000Z</time>
      </trkpt>
      <trkpt lat="42.589372" lon="-0.430624">
        <ele>1388.0</ele>
        <time>2019-03-26T10:58:04.000Z</time>
      </trkpt>
      <trkpt lat="42.589369" lon="-0.430643">
        <ele>1389.0</ele>
        <time>2019-03-26T10:58:05.000Z</time>
      </trkpt>
      <trkpt lat="42.589365" lon="-0.430661">
        <ele>1389.0</ele>
        <time>2019-03-26T10:58:06.000Z</time>
      </trkpt>
      <trkpt lat="42.58936" lon="-0.43068">
        <ele>1389.0</ele>
        <time>2019-03-26T10:58:07.000Z</time>
      </trkpt>
      <trkpt lat="42.589356" lon="-0.430698">
        <ele>1389.0</ele>
        <time>2019-03-26T10:58:08.000Z</time>
      </trkpt>
      <trkpt lat="42.589352" lon="-0.430717">
        <ele>1389.0</ele>
        <time>2019-03-26T10:58:09.000Z</time>
      </trkpt>
      <trkpt lat="42.589348" lon="-0.430735">
        <ele>1389.0</ele>
        <time>2019-03-26T10:58:10.000Z</time>
      </trkpt>
      <trkpt lat="42.589343" lon="-0.430753">
        <ele>1389.0</ele>
        <time>2019-03-26T10:58:11.000Z</time>
      </trkpt>
      <trkpt lat="42.589339" lon="-0.430772">
        <ele>1389.0</ele>
        <time>2019-03-26T10:58:12.000Z</time>
      </trkpt>
      <trkpt lat="42.589334" lon="-0.43079">
        <ele>1389.0</ele>
        <time>2019-03-26T10:58:13.000Z</time>
      </trkpt>
      <trkpt lat="42.58933" lon="-0.430809">
        <ele>1390.0</ele>
        <time>2019-03-26T10:58:14.000Z</time>
      </trkpt>
      <trkpt lat="42.589325" lon="-0.430828">
        <ele>1390.0</ele>
        <time>2019-03-26T10:58:15.000Z</time>
      </trkpt>
      <trkpt lat="42.58932" lon="-0.430847">
        <ele>1390.0</ele>
        <time>2019-03-26T10:58:16.000Z</time>
      </trkpt>
      <trkpt lat="42.589316" lon="-0.430867">
        <ele>1390.0</ele>
        <time>2019-03-26T10:58:17.000Z</time>
      </trkpt>
      <trkpt lat="42.589311" lon="-0.430887">
        <ele>1390.0</ele>
        <time>2019-03-26T10:58:18.000Z</time>
      </trkpt>
      <trkpt lat="42.589306" lon="-0.430907">
        <ele>1390.0</ele>
        <time>2019-03-26T10:58:19.000Z</time>
      </trkpt>
      <trkpt lat="42.589302" lon="-0.430927">
        <ele>1390.0</ele>
        <time>2019-03-26T10:58:20.000Z</time>
      </trkpt>
      <trkpt lat="42.589298" lon="-0.430948">
        <ele>1390.0</ele>
        <time>2019-03-26T10:58:21.000Z</time>
      </trkpt>
      <trkpt lat="42.589294" lon="-0.430969">
        <ele>1390.0</ele>
        <time>2019-03-26T10:58:22.000Z</time>
      </trkpt>
      <trkpt lat="42.58929" lon="-0.430989">
        <ele>1390.0</ele>
        <time>2019-03-26T10:58:23.000Z</time>
      </trkpt>
      <trkpt lat="42.589287" lon="-0.43101">
        <ele>1390.0</ele>
        <time>2019-03-26T10:58:24.000Z</time>
      </trkpt>
      <trkpt lat="42.589284" lon="-0.431031">
        <ele>1391.0</ele>
        <time>2019-03-26T10:58:25.000Z</time>
      </trkpt>
      <trkpt lat="42.589281" lon="-0.431052">
        <ele>1391.0</ele>
        <time>2019-03-26T10:58:26.000Z</time>
      </trkpt>
      <trkpt lat="42.589279" lon="-0.431073">
        <ele>1391.0</ele>
        <time>2019-03-26T10:58:27.000Z</time>
      </trkpt>
      <trkpt lat="42.589277" lon="-0.431095">
        <ele>1391.0</ele>
        <time>2019-03-26T10:58:28.000Z</time>
      </trkpt>
      <trkpt lat="42.589276" lon="-0.431116">
        <ele>1391.0</ele>
        <time>2019-03-26T10:58:29.000Z</time>
      </trkpt>
      <trkpt lat="42.589275" lon="-0.431137">
        <ele>1391.0</ele>
        <time>2019-03-26T10:58:30.000Z</time>
      </trkpt>
      <trkpt lat="42.589274" lon="-0.431157">
        <ele>1391.0</ele>
        <time>2019-03-26T10:58:31.000Z</time>
      </trkpt>
      <trkpt lat="42.589273" lon="-0.431178">
        <ele>1391.0</ele>
        <time>2019-03-26T10:58:32.000Z</time>
      </trkpt>
      <trkpt lat="42.589273" lon="-0.431199">
        <ele>1391.0</ele>
        <time>2019-03-26T10:58:33.000Z</time>
      </trkpt>
      <trkpt lat="42.589273" lon="-0.431219">
        <ele>1391.0</ele>
        <time>2019-03-26T10:58:34.000Z</time>
      </trkpt>
      <trkpt lat="42.589273" lon="-0.431239">
        <ele>1391.0</ele>
        <time>2019-03-26T10:58:35.000Z</time>
      </trkpt>
      <trkpt lat="42.589273" lon="-0.431259">
        <ele>1391.0</ele>
        <time>2019-03-26T10:58:36.000Z</time>
      </trkpt>
      <trkpt lat="42.589274" lon="-0.431279">
        <ele>1391.0</ele>
        <time>2019-03-26T10:58:37.000Z</time>
      </trkpt>
      <trkpt lat="42.589275" lon="-0.431298">
        <ele>1391.0</ele>
        <time>2019-03-26T10:58:38.000Z</time>
      </trkpt>
      <trkpt lat="42.589276" lon="-0.431317">
        <ele>1392.0</ele>
        <time>2019-03-26T10:58:39.000Z</time>
      </trkpt>
      <trkpt lat="42.589278" lon="-0.431336">
        <ele>1392.0</ele>
        <time>2019-03-26T10:58:40.000Z</time>
      </trkpt>
      <trkpt lat="42.58928" lon="-0.431354">
        <ele>1392.0</ele>
        <time>2019-03-26T10:58:41.000Z</time>
      </trkpt>
      <trkpt lat="42.589281" lon="-0.431373">
        <ele>1392.0</ele>
        <time>2019-03-26T10:58:42.000Z</time>
      </trkpt>
      <trkpt lat="42.589283" lon="-0.431391">
        <ele>1392.0</ele>
        <time>2019-03-26T10:58:43.000Z</time>
      </trkpt>
      <trkpt lat="42.589286" lon="-0.431408">
        <ele>1392.0</ele>
        <time>2019-03-26T10:58:44.000Z</time>
      </trkpt>
      <trkpt lat="42.589288" lon="-0.431426">
        <ele>1392.0</ele>
        <time>2019-03-26T10:58:45.000Z</time>
      </trkpt>
      <trkpt lat="42.58929" lon="-0.431444">
        <ele>1393.0</ele>
        <time>2019-03-26T10:58:46.000Z</time>
      </trkpt>
      <trkpt lat="42.589293" lon="-0.431461">
        <ele>1393.0</ele>
        <time>2019-03-26T10:58:47.000Z</time>
      </trkpt>
      <trkpt lat="42.589295" lon="-0.431478">
        <ele>1393.0</ele>
        <time>2019-03-26T10:58:48.000Z</time>
      </trkpt>
      <trkpt lat="42.589298" lon="-0.431496">
        <ele>1393.0</ele>
        <time>2019-03-26T10:58:49.000Z</time>
      </trkpt>
      <trkpt lat="42.589301" lon="-0.431513">
        <ele>1393.0</ele>
        <time>2019-03-26T10:58:50.000Z</time>
      </trkpt>
      <trkpt lat="42.589303" lon="-0.43153">
        <ele>1393.0</ele>
        <time>2019-03-26T10:58:51.000Z</time>
      </trkpt>
      <trkpt lat="42.589306" lon="-0.431547">
        <ele>1393.0</ele>
        <time>2019-03-26T10:58:52.000Z</time>
      </trkpt>
      <trkpt lat="42.589309" lon="-0.431565">
        <ele>1393.0</ele>
        <time>2019-03-26T10:58:53.000Z</time>
      </trkpt>
      <trkpt lat="42.589312" lon="-0.431582">
        <ele>1393.0</ele>
        <time>2019-03-26T10:58:54.000Z</time>
      </trkpt>
      <trkpt lat="42.589314" lon="-0.4316">
        <ele>1394.0</ele>
        <time>2019-03-26T10:58:55.000Z</time>
      </trkpt>
      <trkpt lat="42.589317" lon="-0.431618">
        <ele>1394.0</ele>
        <time>2019-03-26T10:58:56.000Z</time>
      </trkpt>
      <trkpt lat="42.589319" lon="-0.431636">
        <ele>1394.0</ele>
        <time>2019-03-26T10:58:57.000Z</time>
      </trkpt>
      <trkpt lat="42.589322" lon="-0.431653">
        <ele>1394.0</ele>
        <time>2019-03-26T10:58:58.000Z</time>
      </trkpt>
      <trkpt lat="42.589325" lon="-0.431671">
        <ele>1394.0</ele>
        <time>2019-03-26T10:58:59.000Z</time>
      </trkpt>
      <trkpt lat="42.589327" lon="-0.43169">
        <ele>1394.0</ele>
        <time>2019-03-26T10:59:00.000Z</time>
      </trkpt>
      <trkpt lat="42.58933" lon="-0.431708">
        <ele>1394.0</ele>
        <time>2019-03-26T10:59:01.000Z</time>
      </trkpt>
      <trkpt lat="42.589332" lon="-0.431726">
        <ele>1394.0</ele>
        <time>2019-03-26T10:59:02.000Z</time>
      </trkpt>
      <trkpt lat="42.589334" lon="-0.431744">
        <ele>1394.0</ele>
        <time>2019-03-26T10:59:03.000Z</time>
      </trkpt>
      <trkpt lat="42.589337" lon="-0.431763">
        <ele>1394.0</ele>
        <time>2019-03-26T10:59:04.000Z</time>
      </trkpt>
      <trkpt lat="42.589339" lon="-0.431781">
        <ele>1395.0</ele>
        <time>2019-03-26T10:59:05.000Z</time>
      </trkpt>
      <trkpt lat="42.589341" lon="-0.431799">
        <ele>1395.0</ele>
        <time>2019-03-26T10:59:06.000Z</time>
      </trkpt>
      <trkpt lat="42.589344" lon="-0.431818">
        <ele>1395.0</ele>
        <time>2019-03-26T10:59:07.000Z</time>
      </trkpt>
      <trkpt lat="42.589346" lon="-0.431837">
        <ele>1395.0</ele>
        <time>2019-03-26T10:59:08.000Z</time>
      </trkpt>
      <trkpt lat="42.589348" lon="-0.431855">
        <ele>1395.0</ele>
        <time>2019-03-26T10:59:09.000Z</time>
      </trkpt>
      <trkpt lat="42.58935" lon="-0.431874">
        <ele>1395.0</ele>
        <time>2019-03-26T10:59:10.000Z</time>
      </trkpt>
      <trkpt lat="42.589352" lon="-0.431892">
        <ele>1395.0</ele>
        <time>2019-03-26T10:59:11.000Z</time>
      </trkpt>
      <trkpt lat="42.589354" lon="-0.431911">
        <ele>1396.0</ele>
        <time>2019-03-26T10:59:12.000Z</time>
      </trkpt>
      <trkpt lat="42.589356" lon="-0.431928">
        <ele>1396.0</ele>
        <time>2019-03-26T10:59:13.000Z</time>
      </trkpt>
      <trkpt lat="42.589358" lon="-0.431946">
        <ele>1396.0</ele>
        <time>2019-03-26T10:59:14.000Z</time>
      </trkpt>
      <trkpt lat="42.58936" lon="-0.431963">
        <ele>1396.0</ele>
        <time>2019-03-26T10:59:15.000Z</time>
      </trkpt>
      <trkpt lat="42.589361" lon="-0.43198">
        <ele>1396.0</ele>
        <time>2019-03-26T10:59:16.000Z</time>
      </trkpt>
      <trkpt lat="42.589363" lon="-0.431996">
        <ele>1396.0</ele>
        <time>2019-03-26T10:59:17.000Z</time>
      </trkpt>
      <trkpt lat="42.589364" lon="-0.432012">
        <ele>1396.0</ele>
        <time>2019-03-26T10:59:18.000Z</time>
      </trkpt>
      <trkpt lat="42.589365" lon="-0.432027">
        <ele>1396.0</ele>
        <time>2019-03-26T10:59:19.000Z</time>
      </trkpt>
      <trkpt lat="42.589366" lon="-0.432042">
        <ele>1396.0</ele>
        <time>2019-03-26T10:59:20.000Z</time>
      </trkpt>
      <trkpt lat="42.589366" lon="-0.432057">
        <ele>1396.0</ele>
        <time>2019-03-26T10:59:21.000Z</time>
      </trkpt>
      <trkpt lat="42.589366" lon="-0.432073">
        <ele>1396.0</ele>
        <time>2019-03-26T10:59:22.000Z</time>
      </trkpt>
      <trkpt lat="42.589366" lon="-0.432089">
        <ele>1396.0</ele>
        <time>2019-03-26T10:59:23.000Z</time>
      </trkpt>
      <trkpt lat="42.589366" lon="-0.432105">
        <ele>1397.0</ele>
        <time>2019-03-26T10:59:24.000Z</time>
      </trkpt>
      <trkpt lat="42.589365" lon="-0.432122">
        <ele>1397.0</ele>
        <time>2019-03-26T10:59:25.000Z</time>
      </trkpt>
      <trkpt lat="42.589364" lon="-0.432139">
        <ele>1397.0</ele>
        <time>2019-03-26T10:59:26.000Z</time>
      </trkpt>
      <trkpt lat="42.589362" lon="-0.432157">
        <ele>1397.0</ele>
        <time>2019-03-26T10:59:27.000Z</time>
      </trkpt>
      <trkpt lat="42.589359" lon="-0.432175">
        <ele>1397.0</ele>
        <time>2019-03-26T10:59:28.000Z</time>
      </trkpt>
      <trkpt lat="42.589356" lon="-0.432193">
        <ele>1397.0</ele>
        <time>2019-03-26T10:59:29.000Z</time>
      </trkpt>
      <trkpt lat="42.589353" lon="-0.432211">
        <ele>1397.0</ele>
        <time>2019-03-26T10:59:30.000Z</time>
      </trkpt>
      <trkpt lat="42.589348" lon="-0.432229">
        <ele>1397.0</ele>
        <time>2019-03-26T10:59:31.000Z</time>
      </trkpt>
      <trkpt lat="42.589343" lon="-0.432247">
        <ele>1397.0</ele>
        <time>2019-03-26T10:59:32.000Z</time>
      </trkpt>
      <trkpt lat="42.589337" lon="-0.432265">
        <ele>1397.0</ele>
        <time>2019-03-26T10:59:33.000Z</time>
      </trkpt>
      <trkpt lat="42.58933" lon="-0.432283">
        <ele>1398.0</ele>
        <time>2019-03-26T10:59:34.000Z</time>
      </trkpt>
      <trkpt lat="42.589322" lon="-0.4323">
        <ele>1398.0</ele>
        <time>2019-03-26T10:59:35.000Z</time>
      </trkpt>
      <trkpt lat="42.589315" lon="-0.432316">
        <ele>1398.0</ele>
        <time>2019-03-26T10:59:36.000Z</time>
      </trkpt>
      <trkpt lat="42.589307" lon="-0.432332">
        <ele>1398.0</ele>
        <time>2019-03-26T10:59:37.000Z</time>
      </trkpt>
      <trkpt lat="42.589299" lon="-0.432348">
        <ele>1398.0</ele>
        <time>2019-03-26T10:59:38.000Z</time>
      </trkpt>
      <trkpt lat="42.589292" lon="-0.432363">
        <ele>1398.0</ele>
        <time>2019-03-26T10:59:39.000Z</time>
      </trkpt>
      <trkpt lat="42.589286" lon="-0.432379">
        <ele>1398.0</ele>
        <time>2019-03-26T10:59:40.000Z</time>
      </trkpt>
      <trkpt lat="42.58928" lon="-0.432394">
        <ele>1398.0</ele>
        <time>2019-03-26T10:59:41.000Z</time>
      </trkpt>
      <trkpt lat="42.589274" lon="-0.43241">
        <ele>1398.0</ele>
        <time>2019-03-26T10:59:42.000Z</time>
      </trkpt>
      <trkpt lat="42.589269" lon="-0.432426">
        <ele>1398.0</ele>
        <time>2019-03-26T10:59:43.000Z</time>
      </trkpt>
      <trkpt lat="42.589265" lon="-0.432443">
        <ele>1399.0</ele>
        <time>2019-03-26T10:59:44.000Z</time>
      </trkpt>
      <trkpt lat="42.589261" lon="-0.432459">
        <ele>1399.0</ele>
        <time>2019-03-26T10:59:45.000Z</time>
      </trkpt>
      <trkpt lat="42.589257" lon="-0.432476">
        <ele>1399.0</ele>
        <time>2019-03-26T10:59:46.000Z</time>
      </trkpt>
      <trkpt lat="42.589254" lon="-0.432494">
        <ele>1399.0</ele>
        <time>2019-03-26T10:59:47.000Z</time>
      </trkpt>
      <trkpt lat="42.589251" lon="-0.432512">
        <ele>1399.0</ele>
        <time>2019-03-26T10:59:48.000Z</time>
      </trkpt>
      <trkpt lat="42.589249" lon="-0.43253">
        <ele>1399.0</ele>
        <time>2019-03-26T10:59:49.000Z</time>
      </trkpt>
      <trkpt lat="42.589247" lon="-0.432548">
        <ele>1399.0</ele>
        <time>2019-03-26T10:59:50.000Z</time>
      </trkpt>
      <trkpt lat="42.589246" lon="-0.432566">
        <ele>1399.0</ele>
        <time>2019-03-26T10:59:51.000Z</time>
      </trkpt>
      <trkpt lat="42.589245" lon="-0.432584">
        <ele>1399.0</ele>
        <time>2019-03-26T10:59:52.000Z</time>
      </trkpt>
      <trkpt lat="42.589245" lon="-0.432601">
        <ele>1399.0</ele>
        <time>2019-03-26T10:59:53.000Z</time>
      </trkpt>
      <trkpt lat="42.589246" lon="-0.432619">
        <ele>1399.0</ele>
        <time>2019-03-26T10:59:54.000Z</time>
      </trkpt>
      <trkpt lat="42.589247" lon="-0.432636">
        <ele>1399.0</ele>
        <time>2019-03-26T10:59:55.000Z</time>
      </trkpt>
      <trkpt lat="42.589249" lon="-0.432652">
        <ele>1399.0</ele>
        <time>2019-03-26T10:59:56.000Z</time>
      </trkpt>
      <trkpt lat="42.589251" lon="-0.432669">
        <ele>1399.0</ele>
        <time>2019-03-26T10:59:57.000Z</time>
      </trkpt>
      <trkpt lat="42.589253" lon="-0.432686">
        <ele>1400.0</ele>
        <time>2019-03-26T10:59:58.000Z</time>
      </trkpt>
      <trkpt lat="42.589255" lon="-0.432704">
        <ele>1400.0</ele>
        <time>2019-03-26T10:59:59.000Z</time>
      </trkpt>
      <trkpt lat="42.589258" lon="-0.432722">
        <ele>1400.0</ele>
        <time>2019-03-26T11:00:00.000Z</time>
      </trkpt>
      <trkpt lat="42.58926" lon="-0.432741">
        <ele>1400.0</ele>
        <time>2019-03-26T11:00:01.000Z</time>
      </trkpt>
      <trkpt lat="42.589263" lon="-0.43276">
        <ele>1400.0</ele>
        <time>2019-03-26T11:00:02.000Z</time>
      </trkpt>
      <trkpt lat="42.589265" lon="-0.43278">
        <ele>1400.0</ele>
        <time>2019-03-26T11:00:03.000Z</time>
      </trkpt>
      <trkpt lat="42.589268" lon="-0.4328">
        <ele>1400.0</ele>
        <time>2019-03-26T11:00:04.000Z</time>
      </trkpt>
      <trkpt lat="42.58927" lon="-0.43282">
        <ele>1400.0</ele>
        <time>2019-03-26T11:00:05.000Z</time>
      </trkpt>
      <trkpt lat="42.589272" lon="-0.43284">
        <ele>1400.0</ele>
        <time>2019-03-26T11:00:06.000Z</time>
      </trkpt>
      <trkpt lat="42.589274" lon="-0.43286">
        <ele>1400.0</ele>
        <time>2019-03-26T11:00:07.000Z</time>
      </trkpt>
      <trkpt lat="42.589275" lon="-0.432879">
        <ele>1400.0</ele>
        <time>2019-03-26T11:00:08.000Z</time>
      </trkpt>
      <trkpt lat="42.589276" lon="-0.432898">
        <ele>1401.0</ele>
        <time>2019-03-26T11:00:09.000Z</time>
      </trkpt>
      <trkpt lat="42.589278" lon="-0.432917">
        <ele>1401.0</ele>
        <time>2019-03-26T11:00:10.000Z</time>
      </trkpt>
      <trkpt lat="42.58928" lon="-0.432935">
        <ele>1401.0</ele>
        <time>2019-03-26T11:00:11.000Z</time>
      </trkpt>
      <trkpt lat="42.589282" lon="-0.432954">
        <ele>1401.0</ele>
        <time>2019-03-26T11:00:12.000Z</time>
      </trkpt>
      <trkpt lat="42.589284" lon="-0.432972">
        <ele>1401.0</ele>
        <time>2019-03-26T11:00:13.000Z</time>
      </trkpt>
      <trkpt lat="42.589288" lon="-0.432991">
        <ele>1401.0</ele>
        <time>2019-03-26T11:00:14.000Z</time>
      </trkpt>
      <trkpt lat="42.589292" lon="-0.433009">
        <ele>1402.0</ele>
        <time>2019-03-26T11:00:15.000Z</time>
      </trkpt>
      <trkpt lat="42.589298" lon="-0.433028">
        <ele>1402.0</ele>
        <time>2019-03-26T11:00:16.000Z</time>
      </trkpt>
      <trkpt lat="42.589304" lon="-0.433046">
        <ele>1402.0</ele>
        <time>2019-03-26T11:00:17.000Z</time>
      </trkpt>
      <trkpt lat="42.589312" lon="-0.433063">
        <ele>1402.0</ele>
        <time>2019-03-26T11:00:18.000Z</time>
      </trkpt>
      <trkpt lat="42.589321" lon="-0.433077">
        <ele>1402.0</ele>
        <time>2019-03-26T11:00:19.000Z</time>
      </trkpt>
      <trkpt lat="42.589331" lon="-0.43309">
        <ele>1403.0</ele>
        <time>2019-03-26T11:00:20.000Z</time>
      </trkpt>
      <trkpt lat="42.589342" lon="-0.433098">
        <ele>1403.0</ele>
        <time>2019-03-26T11:00:21.000Z</time>
      </trkpt>
      <trkpt lat="42.589355" lon="-0.433103">
        <ele>1403.0</ele>
        <time>2019-03-26T11:00:22.000Z</time>
      </trkpt>
      <trkpt lat="42.589368" lon="-0.433103">
        <ele>1403.0</ele>
        <time>2019-03-26T11:00:23.000Z</time>
      </trkpt>
      <trkpt lat="42.589382" lon="-0.433099">
        <ele>1403.0</ele>
        <time>2019-03-26T11:00:24.000Z</time>
      </trkpt>
      <trkpt lat="42.589394" lon="-0.433091">
        <ele>1403.0</ele>
        <time>2019-03-26T11:00:25.000Z</time>
      </trkpt>
      <trkpt lat="42.589404" lon="-0.433081">
        <ele>1403.0</ele>
        <time>2019-03-26T11:00:26.000Z</time>
      </trkpt>
      <trkpt lat="42.589411" lon="-0.433069">
        <ele>1403.0</ele>
        <time>2019-03-26T11:00:27.000Z</time>
      </trkpt>
      <trkpt lat="42.589415" lon="-0.433055">
        <ele>1404.0</ele>
        <time>2019-03-26T11:00:28.000Z</time>
      </trkpt>
      <trkpt lat="42.589416" lon="-0.433041">
        <ele>1404.0</ele>
        <time>2019-03-26T11:00:29.000Z</time>
      </trkpt>
      <trkpt lat="42.589417" lon="-0.433026">
        <ele>1404.0</ele>
        <time>2019-03-26T11:00:30.000Z</time>
      </trkpt>
      <trkpt lat="42.589416" lon="-0.433012">
        <ele>1404.0</ele>
        <time>2019-03-26T11:00:31.000Z</time>
      </trkpt>
      <trkpt lat="42.589415" lon="-0.432997">
        <ele>1404.0</ele>
        <time>2019-03-26T11:00:32.000Z</time>
      </trkpt>
      <trkpt lat="42.589413" lon="-0.432983">
        <ele>1405.0</ele>
        <time>2019-03-26T11:00:33.000Z</time>
      </trkpt>
      <trkpt lat="42.589411" lon="-0.432968">
        <ele>1405.0</ele>
        <time>2019-03-26T11:00:34.000Z</time>
      </trkpt>
      <trkpt lat="42.589409" lon="-0.432953">
        <ele>1405.0</ele>
        <time>2019-03-26T11:00:35.000Z</time>
      </trkpt>
      <trkpt lat="42.589407" lon="-0.432938">
        <ele>1405.0</ele>
        <time>2019-03-26T11:00:36.000Z</time>
      </trkpt>
      <trkpt lat="42.589405" lon="-0.432922">
        <ele>1405.0</ele>
        <time>2019-03-26T11:00:37.000Z</time>
      </trkpt>
      <trkpt lat="42.589404" lon="-0.432905">
        <ele>1405.0</ele>
        <time>2019-03-26T11:00:38.000Z</time>
      </trkpt>
      <trkpt lat="42.589402" lon="-0.432887">
        <ele>1406.0</ele>
        <time>2019-03-26T11:00:39.000Z</time>
      </trkpt>
      <trkpt lat="42.589401" lon="-0.432869">
        <ele>1406.0</ele>
        <time>2019-03-26T11:00:40.000Z</time>
      </trkpt>
      <trkpt lat="42.5894" lon="-0.43285">
        <ele>1406.0</ele>
        <time>2019-03-26T11:00:41.000Z</time>
      </trkpt>
      <trkpt lat="42.589399" lon="-0.43283">
        <ele>1406.0</ele>
        <time>2019-03-26T11:00:42.000Z</time>
      </trkpt>
      <trkpt lat="42.589398" lon="-0.43281">
        <ele>1406.0</ele>
        <time>2019-03-26T11:00:43.000Z</time>
      </trkpt>
      <trkpt lat="42.589397" lon="-0.43279">
        <ele>1406.0</ele>
        <time>2019-03-26T11:00:44.000Z</time>
      </trkpt>
      <trkpt lat="42.589395" lon="-0.432769">
        <ele>1406.0</ele>
        <time>2019-03-26T11:00:45.000Z</time>
      </trkpt>
      <trkpt lat="42.589393" lon="-0.432748">
        <ele>1406.0</ele>
        <time>2019-03-26T11:00:46.000Z</time>
      </trkpt>
      <trkpt lat="42.589392" lon="-0.432727">
        <ele>1406.0</ele>
        <time>2019-03-26T11:00:47.000Z</time>
      </trkpt>
      <trkpt lat="42.58939" lon="-0.432706">
        <ele>1406.0</ele>
        <time>2019-03-26T11:00:48.000Z</time>
      </trkpt>
      <trkpt lat="42.589389" lon="-0.432685">
        <ele>1406.0</ele>
        <time>2019-03-26T11:00:49.000Z</time>
      </trkpt>
      <trkpt lat="42.589389" lon="-0.432664">
        <ele>1406.0</ele>
        <time>2019-03-26T11:00:50.000Z</time>
      </trkpt>
      <trkpt lat="42.589391" lon="-0.432643">
        <ele>1407.0</ele>
        <time>2019-03-26T11:00:51.000Z</time>
      </trkpt>
      <trkpt lat="42.589393" lon="-0.432623">
        <ele>1407.0</ele>
        <time>2019-03-26T11:00:52.000Z</time>
      </trkpt>
      <trkpt lat="42.589397" lon="-0.432603">
        <ele>1407.0</ele>
        <time>2019-03-26T11:00:53.000Z</time>
      </trkpt>
      <trkpt lat="42.589403" lon="-0.432583">
        <ele>1407.0</ele>
        <time>2019-03-26T11:00:54.000Z</time>
      </trkpt>
      <trkpt lat="42.589411" lon="-0.432564">
        <ele>1407.0</ele>
        <time>2019-03-26T11:00:55.000Z</time>
      </trkpt>
      <trkpt lat="42.589419" lon="-0.432546">
        <ele>1407.0</ele>
        <time>2019-03-26T11:00:56.000Z</time>
      </trkpt>
      <trkpt lat="42.589429" lon="-0.432529">
        <ele>1407.0</ele>
        <time>2019-03-26T11:00:57.000Z</time>
      </trkpt>
      <trkpt lat="42.589439" lon="-0.432513">
        <ele>1407.0</ele>
        <time>2019-03-26T11:00:58.000Z</time>
      </trkpt>
      <trkpt lat="42.58945" lon="-0.432498">
        <ele>1407.0</ele>
        <time>2019-03-26T11:00:59.000Z</time>
      </trkpt>
      <trkpt lat="42.589461" lon="-0.432485">
        <ele>1407.0</ele>
        <time>2019-03-26T11:01:00.000Z</time>
      </trkpt>
      <trkpt lat="42.589473" lon="-0.432473">
        <ele>1407.0</ele>
        <time>2019-03-26T11:01:01.000Z</time>
      </trkpt>
      <trkpt lat="42.589485" lon="-0.432462">
        <ele>1407.0</ele>
        <time>2019-03-26T11:01:02.000Z</time>
      </trkpt>
      <trkpt lat="42.589497" lon="-0.432451">
        <ele>1407.0</ele>
        <time>2019-03-26T11:01:03.000Z</time>
      </trkpt>
      <trkpt lat="42.589509" lon="-0.43244">
        <ele>1408.0</ele>
        <time>2019-03-26T11:01:04.000Z</time>
      </trkpt>
      <trkpt lat="42.58952" lon="-0.432428">
        <ele>1408.0</ele>
        <time>2019-03-26T11:01:05.000Z</time>
      </trkpt>
      <trkpt lat="42.58953" lon="-0.432415">
        <ele>1408.0</ele>
        <time>2019-03-26T11:01:06.000Z</time>
      </trkpt>
      <trkpt lat="42.589539" lon="-0.432401">
        <ele>1408.0</ele>
        <time>2019-03-26T11:01:07.000Z</time>
      </trkpt>
      <trkpt lat="42.589547" lon="-0.432384">
        <ele>1408.0</ele>
        <time>2019-03-26T11:01:08.000Z</time>
      </trkpt>
      <trkpt lat="42.589554" lon="-0.432365">
        <ele>1408.0</ele>
        <time>2019-03-26T11:01:09.000Z</time>
      </trkpt>
      <trkpt lat="42.58956" lon="-0.432345">
        <ele>1408.0</ele>
        <time>2019-03-26T11:01:10.000Z</time>
      </trkpt>
      <trkpt lat="42.589565" lon="-0.432324">
        <ele>1409.0</ele>
        <time>2019-03-26T11:01:11.000Z</time>
      </trkpt>
      <trkpt lat="42.58957" lon="-0.432302">
        <ele>1409.0</ele>
        <time>2019-03-26T11:01:12.000Z</time>
      </trkpt>
      <trkpt lat="42.589574" lon="-0.43228">
        <ele>1408.0</ele>
        <time>2019-03-26T11:01:13.000Z</time>
      </trkpt>
      <trkpt lat="42.589579" lon="-0.432258">
        <ele>1409.0</ele>
        <time>2019-03-26T11:01:14.000Z</time>
      </trkpt>
      <trkpt lat="42.589583" lon="-0.432237">
        <ele>1409.0</ele>
        <time>2019-03-26T11:01:15.000Z</time>
      </trkpt>
      <trkpt lat="42.589588" lon="-0.432217">
        <ele>1409.0</ele>
        <time>2019-03-26T11:01:16.000Z</time>
      </trkpt>
      <trkpt lat="42.589592" lon="-0.432198">
        <ele>1409.0</ele>
        <time>2019-03-26T11:01:17.000Z</time>
      </trkpt>
      <trkpt lat="42.589597" lon="-0.43218">
        <ele>1409.0</ele>
        <time>2019-03-26T11:01:18.000Z</time>
      </trkpt>
      <trkpt lat="42.589603" lon="-0.432162">
        <ele>1409.0</ele>
        <time>2019-03-26T11:01:19.000Z</time>
      </trkpt>
      <trkpt lat="42.589608" lon="-0.432145">
        <ele>1409.0</ele>
        <time>2019-03-26T11:01:20.000Z</time>
      </trkpt>
      <trkpt lat="42.589614" lon="-0.432128">
        <ele>1409.0</ele>
        <time>2019-03-26T11:01:21.000Z</time>
      </trkpt>
      <trkpt lat="42.58962" lon="-0.43211">
        <ele>1409.0</ele>
        <time>2019-03-26T11:01:22.000Z</time>
      </trkpt>
      <trkpt lat="42.589627" lon="-0.432092">
        <ele>1410.0</ele>
        <time>2019-03-26T11:01:23.000Z</time>
      </trkpt>
      <trkpt lat="42.589633" lon="-0.432075">
        <ele>1410.0</ele>
        <time>2019-03-26T11:01:24.000Z</time>
      </trkpt>
      <trkpt lat="42.58964" lon="-0.432057">
        <ele>1410.0</ele>
        <time>2019-03-26T11:01:25.000Z</time>
      </trkpt>
      <trkpt lat="42.589646" lon="-0.432038">
        <ele>1410.0</ele>
        <time>2019-03-26T11:01:26.000Z</time>
      </trkpt>
      <trkpt lat="42.589651" lon="-0.43202">
        <ele>1410.0</ele>
        <time>2019-03-26T11:01:27.000Z</time>
      </trkpt>
      <trkpt lat="42.589656" lon="-0.432002">
        <ele>1410.0</ele>
        <time>2019-03-26T11:01:28.000Z</time>
      </trkpt>
      <trkpt lat="42.58966" lon="-0.431984">
        <ele>1410.0</ele>
        <time>2019-03-26T11:01:29.000Z</time>
      </trkpt>
      <trkpt lat="42.589662" lon="-0.431966">
        <ele>1410.0</ele>
        <time>2019-03-26T11:01:30.000Z</time>
      </trkpt>
      <trkpt lat="42.589663" lon="-0.431948">
        <ele>1410.0</ele>
        <time>2019-03-26T11:01:31.000Z</time>
      </trkpt>
      <trkpt lat="42.589663" lon="-0.43193">
        <ele>1410.0</ele>
        <time>2019-03-26T11:01:32.000Z</time>
      </trkpt>
      <trkpt lat="42.589663" lon="-0.43191">
        <ele>1410.0</ele>
        <time>2019-03-26T11:01:33.000Z</time>
      </trkpt>
      <trkpt lat="42.589662" lon="-0.431888">
        <ele>1410.0</ele>
        <time>2019-03-26T11:01:34.000Z</time>
      </trkpt>
      <trkpt lat="42.589662" lon="-0.431863">
        <ele>1410.0</ele>
        <time>2019-03-26T11:01:35.000Z</time>
      </trkpt>
      <trkpt lat="42.589662" lon="-0.431837">
        <ele>1410.0</ele>
        <time>2019-03-26T11:01:36.000Z</time>
      </trkpt>
      <trkpt lat="42.589664" lon="-0.431811">
        <ele>1410.0</ele>
        <time>2019-03-26T11:01:37.000Z</time>
      </trkpt>
      <trkpt lat="42.589665" lon="-0.431787">
        <ele>1410.0</ele>
        <time>2019-03-26T11:01:38.000Z</time>
      </trkpt>
      <trkpt lat="42.589668" lon="-0.431764">
        <ele>1410.0</ele>
        <time>2019-03-26T11:01:39.000Z</time>
      </trkpt>
      <trkpt lat="42.589672" lon="-0.431743">
        <ele>1410.0</ele>
        <time>2019-03-26T11:01:40.000Z</time>
      </trkpt>
      <trkpt lat="42.589675" lon="-0.431722">
        <ele>1411.0</ele>
        <time>2019-03-26T11:01:41.000Z</time>
      </trkpt>
      <trkpt lat="42.589679" lon="-0.431702">
        <ele>1411.0</ele>
        <time>2019-03-26T11:01:42.000Z</time>
      </trkpt>
      <trkpt lat="42.589682" lon="-0.431683">
        <ele>1411.0</ele>
        <time>2019-03-26T11:01:43.000Z</time>
      </trkpt>
      <trkpt lat="42.589686" lon="-0.431663">
        <ele>1411.0</ele>
        <time>2019-03-26T11:01:44.000Z</time>
      </trkpt>
      <trkpt lat="42.589688" lon="-0.431642">
        <ele>1411.0</ele>
        <time>2019-03-26T11:01:45.000Z</time>
      </trkpt>
      <trkpt lat="42.58969" lon="-0.431621">
        <ele>1411.0</ele>
        <time>2019-03-26T11:01:46.000Z</time>
      </trkpt>
      <trkpt lat="42.589692" lon="-0.431599">
        <ele>1411.0</ele>
        <time>2019-03-26T11:01:47.000Z</time>
      </trkpt>
      <trkpt lat="42.589693" lon="-0.431576">
        <ele>1411.0</ele>
        <time>2019-03-26T11:01:48.000Z</time>
      </trkpt>
      <trkpt lat="42.589694" lon="-0.431553">
        <ele>1411.0</ele>
        <time>2019-03-26T11:01:49.000Z</time>
      </trkpt>
      <trkpt lat="42.589694" lon="-0.43153">
        <ele>1411.0</ele>
        <time>2019-03-26T11:01:50.000Z</time>
      </trkpt>
      <trkpt lat="42.589695" lon="-0.431506">
        <ele>1411.0</ele>
        <time>2019-03-26T11:01:51.000Z</time>
      </trkpt>
      <trkpt lat="42.589696" lon="-0.431482">
        <ele>1411.0</ele>
        <time>2019-03-26T11:01:52.000Z</time>
      </trkpt>
      <trkpt lat="42.589697" lon="-0.431457">
        <ele>1411.0</ele>
        <time>2019-03-26T11:01:53.000Z</time>
      </trkpt>
      <trkpt lat="42.589699" lon="-0.431433">
        <ele>1411.0</ele>
        <time>2019-03-26T11:01:54.000Z</time>
      </trkpt>
      <trkpt lat="42.589701" lon="-0.431408">
        <ele>1411.0</ele>
        <time>2019-03-26T11:01:55.000Z</time>
      </trkpt>
      <trkpt lat="42.589703" lon="-0.431382">
        <ele>1411.0</ele>
        <time>2019-03-26T11:01:56.000Z</time>
      </trkpt>
      <trkpt lat="42.589706" lon="-0.431356">
        <ele>1411.0</ele>
        <time>2019-03-26T11:01:57.000Z</time>
      </trkpt>
      <trkpt lat="42.589709" lon="-0.43133">
        <ele>1411.0</ele>
        <time>2019-03-26T11:01:58.000Z</time>
      </trkpt>
      <trkpt lat="42.589712" lon="-0.431302">
        <ele>1411.0</ele>
        <time>2019-03-26T11:01:59.000Z</time>
      </trkpt>
      <trkpt lat="42.589715" lon="-0.431273">
        <ele>1411.0</ele>
        <time>2019-03-26T11:02:00.000Z</time>
      </trkpt>
      <trkpt lat="42.589719" lon="-0.431244">
        <ele>1411.0</ele>
        <time>2019-03-26T11:02:01.000Z</time>
      </trkpt>
      <trkpt lat="42.589723" lon="-0.431215">
        <ele>1411.0</ele>
        <time>2019-03-26T11:02:02.000Z</time>
      </trkpt>
      <trkpt lat="42.589727" lon="-0.431185">
        <ele>1411.0</ele>
        <time>2019-03-26T11:02:03.000Z</time>
      </trkpt>
      <trkpt lat="42.589731" lon="-0.431155">
        <ele>1411.0</ele>
        <time>2019-03-26T11:02:04.000Z</time>
      </trkpt>
      <trkpt lat="42.589735" lon="-0.431127">
        <ele>1411.0</ele>
        <time>2019-03-26T11:02:05.000Z</time>
      </trkpt>
      <trkpt lat="42.58974" lon="-0.431099">
        <ele>1411.0</ele>
        <time>2019-03-26T11:02:06.000Z</time>
      </trkpt>
      <trkpt lat="42.589744" lon="-0.431072">
        <ele>1411.0</ele>
        <time>2019-03-26T11:02:07.000Z</time>
      </trkpt>
      <trkpt lat="42.589749" lon="-0.431046">
        <ele>1411.0</ele>
        <time>2019-03-26T11:02:08.000Z</time>
      </trkpt>
      <trkpt lat="42.589753" lon="-0.43102">
        <ele>1411.0</ele>
        <time>2019-03-26T11:02:09.000Z</time>
      </trkpt>
      <trkpt lat="42.589758" lon="-0.430995">
        <ele>1411.0</ele>
        <time>2019-03-26T11:02:10.000Z</time>
      </trkpt>
      <trkpt lat="42.589761" lon="-0.430969">
        <ele>1411.0</ele>
        <time>2019-03-26T11:02:11.000Z</time>
      </trkpt>
      <trkpt lat="42.589764" lon="-0.430943">
        <ele>1411.0</ele>
        <time>2019-03-26T11:02:12.000Z</time>
      </trkpt>
      <trkpt lat="42.589766" lon="-0.430916">
        <ele>1411.0</ele>
        <time>2019-03-26T11:02:13.000Z</time>
      </trkpt>
      <trkpt lat="42.589768" lon="-0.430888">
        <ele>1411.0</ele>
        <time>2019-03-26T11:02:14.000Z</time>
      </trkpt>
      <trkpt lat="42.589768" lon="-0.430859">
        <ele>1411.0</ele>
        <time>2019-03-26T11:02:15.000Z</time>
      </trkpt>
      <trkpt lat="42.589767" lon="-0.430828">
        <ele>1411.0</ele>
        <time>2019-03-26T11:02:16.000Z</time>
      </trkpt>
      <trkpt lat="42.589765" lon="-0.430797">
        <ele>1411.0</ele>
        <time>2019-03-26T11:02:17.000Z</time>
      </trkpt>
      <trkpt lat="42.589763" lon="-0.430764">
        <ele>1411.0</ele>
        <time>2019-03-26T11:02:18.000Z</time>
      </trkpt>
      <trkpt lat="42.589761" lon="-0.430731">
        <ele>1411.0</ele>
        <time>2019-03-26T11:02:19.000Z</time>
      </trkpt>
      <trkpt lat="42.589759" lon="-0.430698">
        <ele>1411.0</ele>
        <time>2019-03-26T11:02:20.000Z</time>
      </trkpt>
      <trkpt lat="42.589758" lon="-0.430665">
        <ele>1411.0</ele>
        <time>2019-03-26T11:02:21.000Z</time>
      </trkpt>
      <trkpt lat="42.589757" lon="-0.430632">
        <ele>1411.0</ele>
        <time>2019-03-26T11:02:22.000Z</time>
      </trkpt>
      <trkpt lat="42.589757" lon="-0.4306">
        <ele>1411.0</ele>
        <time>2019-03-26T11:02:23.000Z</time>
      </trkpt>
      <trkpt lat="42.589756" lon="-0.430569">
        <ele>1411.0</ele>
        <time>2019-03-26T11:02:24.000Z</time>
      </trkpt>
      <trkpt lat="42.589756" lon="-0.43054">
        <ele>1411.0</ele>
        <time>2019-03-26T11:02:25.000Z</time>
      </trkpt>
      <trkpt lat="42.589755" lon="-0.430513">
        <ele>1411.0</ele>
        <time>2019-03-26T11:02:26.000Z</time>
      </trkpt>
      <trkpt lat="42.589754" lon="-0.430487">
        <ele>1411.0</ele>
        <time>2019-03-26T11:02:27.000Z</time>
      </trkpt>
      <trkpt lat="42.589755" lon="-0.430459">
        <ele>1411.0</ele>
        <time>2019-03-26T11:02:28.000Z</time>
      </trkpt>
      <trkpt lat="42.589757" lon="-0.430429">
        <ele>1411.0</ele>
        <time>2019-03-26T11:02:29.000Z</time>
      </trkpt>
      <trkpt lat="42.589762" lon="-0.430396">
        <ele>1411.0</ele>
        <time>2019-03-26T11:02:30.000Z</time>
      </trkpt>
      <trkpt lat="42.589768" lon="-0.430361">
        <ele>1411.0</ele>
        <time>2019-03-26T11:02:31.000Z</time>
      </trkpt>
      <trkpt lat="42.589776" lon="-0.430327">
        <ele>1411.0</ele>
        <time>2019-03-26T11:02:32.000Z</time>
      </trkpt>
      <trkpt lat="42.589783" lon="-0.430296">
        <ele>1411.0</ele>
        <time>2019-03-26T11:02:33.000Z</time>
      </trkpt>
      <trkpt lat="42.589789" lon="-0.430272">
        <ele>1411.0</ele>
        <time>2019-03-26T11:02:34.000Z</time>
      </trkpt>
      <trkpt lat="42.589795" lon="-0.430251">
        <ele>1411.0</ele>
        <time>2019-03-26T11:02:35.000Z</time>
      </trkpt>
      <trkpt lat="42.589801" lon="-0.430232">
        <ele>1411.0</ele>
        <time>2019-03-26T11:02:36.000Z</time>
      </trkpt>
      <trkpt lat="42.589806" lon="-0.430214">
        <ele>1411.0</ele>
        <time>2019-03-26T11:02:37.000Z</time>
      </trkpt>
      <trkpt lat="42.589811" lon="-0.430195">
        <ele>1411.0</ele>
        <time>2019-03-26T11:02:38.000Z</time>
      </trkpt>
      <trkpt lat="42.589817" lon="-0.430175">
        <ele>1411.0</ele>
        <time>2019-03-26T11:02:39.000Z</time>
      </trkpt>
      <trkpt lat="42.589822" lon="-0.430156">
        <ele>1411.0</ele>
        <time>2019-03-26T11:02:40.000Z</time>
      </trkpt>
      <trkpt lat="42.589827" lon="-0.430136">
        <ele>1411.0</ele>
        <time>2019-03-26T11:02:41.000Z</time>
      </trkpt>
      <trkpt lat="42.589833" lon="-0.430116">
        <ele>1411.0</ele>
        <time>2019-03-26T11:02:42.000Z</time>
      </trkpt>
      <trkpt lat="42.589838" lon="-0.430096">
        <ele>1411.0</ele>
        <time>2019-03-26T11:02:43.000Z</time>
      </trkpt>
      <trkpt lat="42.589843" lon="-0.430076">
        <ele>1411.0</ele>
        <time>2019-03-26T11:02:44.000Z</time>
      </trkpt>
      <trkpt lat="42.589847" lon="-0.430055">
        <ele>1411.0</ele>
        <time>2019-03-26T11:02:45.000Z</time>
      </trkpt>
      <trkpt lat="42.589852" lon="-0.430035">
        <ele>1411.0</ele>
        <time>2019-03-26T11:02:46.000Z</time>
      </trkpt>
      <trkpt lat="42.589856" lon="-0.430014">
        <ele>1411.0</ele>
        <time>2019-03-26T11:02:47.000Z</time>
      </trkpt>
      <trkpt lat="42.58986" lon="-0.429993">
        <ele>1411.0</ele>
        <time>2019-03-26T11:02:48.000Z</time>
      </trkpt>
      <trkpt lat="42.589864" lon="-0.429971">
        <ele>1411.0</ele>
        <time>2019-03-26T11:02:49.000Z</time>
      </trkpt>
      <trkpt lat="42.589868" lon="-0.42995">
        <ele>1411.0</ele>
        <time>2019-03-26T11:02:50.000Z</time>
      </trkpt>
      <trkpt lat="42.589871" lon="-0.429928">
        <ele>1411.0</ele>
        <time>2019-03-26T11:02:51.000Z</time>
      </trkpt>
      <trkpt lat="42.589873" lon="-0.429907">
        <ele>1411.0</ele>
        <time>2019-03-26T11:02:52.000Z</time>
      </trkpt>
      <trkpt lat="42.589876" lon="-0.429885">
        <ele>1411.0</ele>
        <time>2019-03-26T11:02:53.000Z</time>
      </trkpt>
      <trkpt lat="42.589878" lon="-0.429863">
        <ele>1411.0</ele>
        <time>2019-03-26T11:02:54.000Z</time>
      </trkpt>
      <trkpt lat="42.58988" lon="-0.429841">
        <ele>1411.0</ele>
        <time>2019-03-26T11:02:55.000Z</time>
      </trkpt>
      <trkpt lat="42.589881" lon="-0.429819">
        <ele>1412.0</ele>
        <time>2019-03-26T11:02:56.000Z</time>
      </trkpt>
      <trkpt lat="42.589883" lon="-0.429797">
        <ele>1412.0</ele>
        <time>2019-03-26T11:02:57.000Z</time>
      </trkpt>
      <trkpt lat="42.589884" lon="-0.429774">
        <ele>1411.0</ele>
        <time>2019-03-26T11:02:58.000Z</time>
      </trkpt>
      <trkpt lat="42.589884" lon="-0.429752">
        <ele>1412.0</ele>
        <time>2019-03-26T11:02:59.000Z</time>
      </trkpt>
      <trkpt lat="42.589885" lon="-0.429729">
        <ele>1412.0</ele>
        <time>2019-03-26T11:03:00.000Z</time>
      </trkpt>
      <trkpt lat="42.589885" lon="-0.429707">
        <ele>1412.0</ele>
        <time>2019-03-26T11:03:01.000Z</time>
      </trkpt>
      <trkpt lat="42.589886" lon="-0.429684">
        <ele>1412.0</ele>
        <time>2019-03-26T11:03:02.000Z</time>
      </trkpt>
      <trkpt lat="42.589886" lon="-0.429662">
        <ele>1412.0</ele>
        <time>2019-03-26T11:03:03.000Z</time>
      </trkpt>
      <trkpt lat="42.589886" lon="-0.42964">
        <ele>1412.0</ele>
        <time>2019-03-26T11:03:04.000Z</time>
      </trkpt>
      <trkpt lat="42.589887" lon="-0.429619">
        <ele>1412.0</ele>
        <time>2019-03-26T11:03:05.000Z</time>
      </trkpt>
      <trkpt lat="42.589887" lon="-0.429598">
        <ele>1412.0</ele>
        <time>2019-03-26T11:03:06.000Z</time>
      </trkpt>
      <trkpt lat="42.589887" lon="-0.429577">
        <ele>1412.0</ele>
        <time>2019-03-26T11:03:07.000Z</time>
      </trkpt>
      <trkpt lat="42.589888" lon="-0.429557">
        <ele>1412.0</ele>
        <time>2019-03-26T11:03:08.000Z</time>
      </trkpt>
      <trkpt lat="42.589889" lon="-0.429537">
        <ele>1412.0</ele>
        <time>2019-03-26T11:03:09.000Z</time>
      </trkpt>
      <trkpt lat="42.589889" lon="-0.429518">
        <ele>1412.0</ele>
        <time>2019-03-26T11:03:10.000Z</time>
      </trkpt>
      <trkpt lat="42.589891" lon="-0.429498">
        <ele>1412.0</ele>
        <time>2019-03-26T11:03:11.000Z</time>
      </trkpt>
      <trkpt lat="42.589892" lon="-0.429478">
        <ele>1412.0</ele>
        <time>2019-03-26T11:03:12.000Z</time>
      </trkpt>
      <trkpt lat="42.589893" lon="-0.429458">
        <ele>1412.0</ele>
        <time>2019-03-26T11:03:13.000Z</time>
      </trkpt>
      <trkpt lat="42.589895" lon="-0.429437">
        <ele>1412.0</ele>
        <time>2019-03-26T11:03:14.000Z</time>
      </trkpt>
      <trkpt lat="42.589896" lon="-0.429416">
        <ele>1413.0</ele>
        <time>2019-03-26T11:03:15.000Z</time>
      </trkpt>
      <trkpt lat="42.589898" lon="-0.429394">
        <ele>1413.0</ele>
        <time>2019-03-26T11:03:16.000Z</time>
      </trkpt>
      <trkpt lat="42.5899" lon="-0.429372">
        <ele>1413.0</ele>
        <time>2019-03-26T11:03:17.000Z</time>
      </trkpt>
      <trkpt lat="42.589902" lon="-0.429349">
        <ele>1413.0</ele>
        <time>2019-03-26T11:03:18.000Z</time>
      </trkpt>
      <trkpt lat="42.589904" lon="-0.429327">
        <ele>1413.0</ele>
        <time>2019-03-26T11:03:19.000Z</time>
      </trkpt>
      <trkpt lat="42.589906" lon="-0.429304">
        <ele>1413.0</ele>
        <time>2019-03-26T11:03:20.000Z</time>
      </trkpt>
      <trkpt lat="42.589907" lon="-0.429281">
        <ele>1413.0</ele>
        <time>2019-03-26T11:03:21.000Z</time>
      </trkpt>
      <trkpt lat="42.589908" lon="-0.429259">
        <ele>1413.0</ele>
        <time>2019-03-26T11:03:22.000Z</time>
      </trkpt>
      <trkpt lat="42.589909" lon="-0.429237">
        <ele>1413.0</ele>
        <time>2019-03-26T11:03:23.000Z</time>
      </trkpt>
      <trkpt lat="42.58991" lon="-0.429215">
        <ele>1413.0</ele>
        <time>2019-03-26T11:03:24.000Z</time>
      </trkpt>
      <trkpt lat="42.58991" lon="-0.429193">
        <ele>1413.0</ele>
        <time>2019-03-26T11:03:25.000Z</time>
      </trkpt>
      <trkpt lat="42.589911" lon="-0.429172">
        <ele>1413.0</ele>
        <time>2019-03-26T11:03:26.000Z</time>
      </trkpt>
      <trkpt lat="42.589911" lon="-0.429151">
        <ele>1414.0</ele>
        <time>2019-03-26T11:03:27.000Z</time>
      </trkpt>
      <trkpt lat="42.589911" lon="-0.42913">
        <ele>1414.0</ele>
        <time>2019-03-26T11:03:28.000Z</time>
      </trkpt>
      <trkpt lat="42.589911" lon="-0.429109">
        <ele>1414.0</ele>
        <time>2019-03-26T11:03:29.000Z</time>
      </trkpt>
      <trkpt lat="42.58991" lon="-0.429088">
        <ele>1414.0</ele>
        <time>2019-03-26T11:03:30.000Z</time>
      </trkpt>
      <trkpt lat="42.58991" lon="-0.429068">
        <ele>1414.0</ele>
        <time>2019-03-26T11:03:31.000Z</time>
      </trkpt>
      <trkpt lat="42.58991" lon="-0.429048">
        <ele>1415.0</ele>
        <time>2019-03-26T11:03:32.000Z</time>
      </trkpt>
      <trkpt lat="42.58991" lon="-0.429028">
        <ele>1415.0</ele>
        <time>2019-03-26T11:03:33.000Z</time>
      </trkpt>
      <trkpt lat="42.58991" lon="-0.429008">
        <ele>1415.0</ele>
        <time>2019-03-26T11:03:34.000Z</time>
      </trkpt>
      <trkpt lat="42.589911" lon="-0.428988">
        <ele>1415.0</ele>
        <time>2019-03-26T11:03:35.000Z</time>
      </trkpt>
      <trkpt lat="42.589911" lon="-0.428968">
        <ele>1415.0</ele>
        <time>2019-03-26T11:03:36.000Z</time>
      </trkpt>
      <trkpt lat="42.589912" lon="-0.428949">
        <ele>1415.0</ele>
        <time>2019-03-26T11:03:37.000Z</time>
      </trkpt>
      <trkpt lat="42.589913" lon="-0.428929">
        <ele>1416.0</ele>
        <time>2019-03-26T11:03:38.000Z</time>
      </trkpt>
      <trkpt lat="42.589914" lon="-0.42891">
        <ele>1416.0</ele>
        <time>2019-03-26T11:03:39.000Z</time>
      </trkpt>
      <trkpt lat="42.589915" lon="-0.428891">
        <ele>1416.0</ele>
        <time>2019-03-26T11:03:40.000Z</time>
      </trkpt>
      <trkpt lat="42.589916" lon="-0.428872">
        <ele>1416.0</ele>
        <time>2019-03-26T11:03:41.000Z</time>
      </trkpt>
      <trkpt lat="42.589918" lon="-0.428853">
        <ele>1416.0</ele>
        <time>2019-03-26T11:03:42.000Z</time>
      </trkpt>
      <trkpt lat="42.58992" lon="-0.428834">
        <ele>1416.0</ele>
        <time>2019-03-26T11:03:43.000Z</time>
      </trkpt>
      <trkpt lat="42.589921" lon="-0.428815">
        <ele>1416.0</ele>
        <time>2019-03-26T11:03:44.000Z</time>
      </trkpt>
      <trkpt lat="42.589923" lon="-0.428797">
        <ele>1417.0</ele>
        <time>2019-03-26T11:03:45.000Z</time>
      </trkpt>
      <trkpt lat="42.589925" lon="-0.428778">
        <ele>1417.0</ele>
        <time>2019-03-26T11:03:46.000Z</time>
      </trkpt>
      <trkpt lat="42.589927" lon="-0.42876">
        <ele>1417.0</ele>
        <time>2019-03-26T11:03:47.000Z</time>
      </trkpt>
      <trkpt lat="42.589929" lon="-0.428741">
        <ele>1417.0</ele>
        <time>2019-03-26T11:03:48.000Z</time>
      </trkpt>
      <trkpt lat="42.589932" lon="-0.428723">
        <ele>1417.0</ele>
        <time>2019-03-26T11:03:49.000Z</time>
      </trkpt>
      <trkpt lat="42.589934" lon="-0.428705">
        <ele>1418.0</ele>
        <time>2019-03-26T11:03:50.000Z</time>
      </trkpt>
      <trkpt lat="42.589936" lon="-0.428687">
        <ele>1418.0</ele>
        <time>2019-03-26T11:03:51.000Z</time>
      </trkpt>
      <trkpt lat="42.589938" lon="-0.428669">
        <ele>1418.0</ele>
        <time>2019-03-26T11:03:52.000Z</time>
      </trkpt>
      <trkpt lat="42.58994" lon="-0.42865">
        <ele>1418.0</ele>
        <time>2019-03-26T11:03:53.000Z</time>
      </trkpt>
      <trkpt lat="42.589943" lon="-0.428632">
        <ele>1418.0</ele>
        <time>2019-03-26T11:03:54.000Z</time>
      </trkpt>
      <trkpt lat="42.589945" lon="-0.428614">
        <ele>1419.0</ele>
        <time>2019-03-26T11:03:55.000Z</time>
      </trkpt>
      <trkpt lat="42.589947" lon="-0.428597">
        <ele>1419.0</ele>
        <time>2019-03-26T11:03:56.000Z</time>
      </trkpt>
      <trkpt lat="42.58995" lon="-0.428579">
        <ele>1419.0</ele>
        <time>2019-03-26T11:03:57.000Z</time>
      </trkpt>
      <trkpt lat="42.589953" lon="-0.428561">
        <ele>1419.0</ele>
        <time>2019-03-26T11:03:58.000Z</time>
      </trkpt>
      <trkpt lat="42.589956" lon="-0.428543">
        <ele>1419.0</ele>
        <time>2019-03-26T11:03:59.000Z</time>
      </trkpt>
      <trkpt lat="42.58996" lon="-0.428525">
        <ele>1419.0</ele>
        <time>2019-03-26T11:04:00.000Z</time>
      </trkpt>
      <trkpt lat="42.589963" lon="-0.428507">
        <ele>1419.0</ele>
        <time>2019-03-26T11:04:01.000Z</time>
      </trkpt>
      <trkpt lat="42.589967" lon="-0.428488">
        <ele>1420.0</ele>
        <time>2019-03-26T11:04:02.000Z</time>
      </trkpt>
      <trkpt lat="42.589972" lon="-0.42847">
        <ele>1420.0</ele>
        <time>2019-03-26T11:04:03.000Z</time>
      </trkpt>
      <trkpt lat="42.589977" lon="-0.428452">
        <ele>1420.0</ele>
        <time>2019-03-26T11:04:04.000Z</time>
      </trkpt>
      <trkpt lat="42.589982" lon="-0.428434">
        <ele>1420.0</ele>
        <time>2019-03-26T11:04:05.000Z</time>
      </trkpt>
      <trkpt lat="42.589988" lon="-0.428415">
        <ele>1420.0</ele>
        <time>2019-03-26T11:04:06.000Z</time>
      </trkpt>
      <trkpt lat="42.589994" lon="-0.428397">
        <ele>1420.0</ele>
        <time>2019-03-26T11:04:07.000Z</time>
      </trkpt>
      <trkpt lat="42.590001" lon="-0.428378">
        <ele>1420.0</ele>
        <time>2019-03-26T11:04:08.000Z</time>
      </trkpt>
      <trkpt lat="42.590007" lon="-0.428359">
        <ele>1421.0</ele>
        <time>2019-03-26T11:04:09.000Z</time>
      </trkpt>
      <trkpt lat="42.590014" lon="-0.42834">
        <ele>1421.0</ele>
        <time>2019-03-26T11:04:10.000Z</time>
      </trkpt>
      <trkpt lat="42.590021" lon="-0.428321">
        <ele>1421.0</ele>
        <time>2019-03-26T11:04:11.000Z</time>
      </trkpt>
      <trkpt lat="42.590027" lon="-0.428302">
        <ele>1421.0</ele>
        <time>2019-03-26T11:04:12.000Z</time>
      </trkpt>
      <trkpt lat="42.590033" lon="-0.428283">
        <ele>1421.0</ele>
        <time>2019-03-26T11:04:13.000Z</time>
      </trkpt>
      <trkpt lat="42.590039" lon="-0.428263">
        <ele>1421.0</ele>
        <time>2019-03-26T11:04:14.000Z</time>
      </trkpt>
      <trkpt lat="42.590044" lon="-0.428244">
        <ele>1421.0</ele>
        <time>2019-03-26T11:04:15.000Z</time>
      </trkpt>
      <trkpt lat="42.590049" lon="-0.428224">
        <ele>1421.0</ele>
        <time>2019-03-26T11:04:16.000Z</time>
      </trkpt>
      <trkpt lat="42.590053" lon="-0.428205">
        <ele>1422.0</ele>
        <time>2019-03-26T11:04:17.000Z</time>
      </trkpt>
      <trkpt lat="42.590056" lon="-0.428185">
        <ele>1422.0</ele>
        <time>2019-03-26T11:04:18.000Z</time>
      </trkpt>
      <trkpt lat="42.590059" lon="-0.428166">
        <ele>1422.0</ele>
        <time>2019-03-26T11:04:19.000Z</time>
      </trkpt>
      <trkpt lat="42.59006" lon="-0.428147">
        <ele>1422.0</ele>
        <time>2019-03-26T11:04:20.000Z</time>
      </trkpt>
      <trkpt lat="42.59006" lon="-0.428128">
        <ele>1422.0</ele>
        <time>2019-03-26T11:04:21.000Z</time>
      </trkpt>
      <trkpt lat="42.59006" lon="-0.428109">
        <ele>1422.0</ele>
        <time>2019-03-26T11:04:22.000Z</time>
      </trkpt>
      <trkpt lat="42.590058" lon="-0.42809">
        <ele>1422.0</ele>
        <time>2019-03-26T11:04:23.000Z</time>
      </trkpt>
      <trkpt lat="42.590056" lon="-0.428072">
        <ele>1423.0</ele>
        <time>2019-03-26T11:04:24.000Z</time>
      </trkpt>
      <trkpt lat="42.590053" lon="-0.428054">
        <ele>1423.0</ele>
        <time>2019-03-26T11:04:25.000Z</time>
      </trkpt>
      <trkpt lat="42.590049" lon="-0.428036">
        <ele>1423.0</ele>
        <time>2019-03-26T11:04:26.000Z</time>
      </trkpt>
      <trkpt lat="42.590045" lon="-0.428019">
        <ele>1423.0</ele>
        <time>2019-03-26T11:04:27.000Z</time>
      </trkpt>
      <trkpt lat="42.590041" lon="-0.428001">
        <ele>1423.0</ele>
        <time>2019-03-26T11:04:28.000Z</time>
      </trkpt>
      <trkpt lat="42.590037" lon="-0.427984">
        <ele>1423.0</ele>
        <time>2019-03-26T11:04:29.000Z</time>
      </trkpt>
      <trkpt lat="42.590032" lon="-0.427967">
        <ele>1423.0</ele>
        <time>2019-03-26T11:04:30.000Z</time>
      </trkpt>
      <trkpt lat="42.590028" lon="-0.42795">
        <ele>1423.0</ele>
        <time>2019-03-26T11:04:31.000Z</time>
      </trkpt>
      <trkpt lat="42.590023" lon="-0.427933">
        <ele>1423.0</ele>
        <time>2019-03-26T11:04:32.000Z</time>
      </trkpt>
      <trkpt lat="42.590019" lon="-0.427916">
        <ele>1423.0</ele>
        <time>2019-03-26T11:04:33.000Z</time>
      </trkpt>
      <trkpt lat="42.590015" lon="-0.427899">
        <ele>1423.0</ele>
        <time>2019-03-26T11:04:34.000Z</time>
      </trkpt>
      <trkpt lat="42.590011" lon="-0.427881">
        <ele>1424.0</ele>
        <time>2019-03-26T11:04:35.000Z</time>
      </trkpt>
      <trkpt lat="42.590008" lon="-0.427862">
        <ele>1424.0</ele>
        <time>2019-03-26T11:04:36.000Z</time>
      </trkpt>
      <trkpt lat="42.590005" lon="-0.427843">
        <ele>1424.0</ele>
        <time>2019-03-26T11:04:37.000Z</time>
      </trkpt>
      <trkpt lat="42.590002" lon="-0.427823">
        <ele>1424.0</ele>
        <time>2019-03-26T11:04:38.000Z</time>
      </trkpt>
      <trkpt lat="42.59" lon="-0.427804">
        <ele>1424.0</ele>
        <time>2019-03-26T11:04:39.000Z</time>
      </trkpt>
      <trkpt lat="42.589997" lon="-0.427784">
        <ele>1424.0</ele>
        <time>2019-03-26T11:04:40.000Z</time>
      </trkpt>
      <trkpt lat="42.589995" lon="-0.427764">
        <ele>1424.0</ele>
        <time>2019-03-26T11:04:41.000Z</time>
      </trkpt>
      <trkpt lat="42.589994" lon="-0.427744">
        <ele>1425.0</ele>
        <time>2019-03-26T11:04:42.000Z</time>
      </trkpt>
      <trkpt lat="42.589992" lon="-0.427724">
        <ele>1425.0</ele>
        <time>2019-03-26T11:04:43.000Z</time>
      </trkpt>
      <trkpt lat="42.58999" lon="-0.427704">
        <ele>1425.0</ele>
        <time>2019-03-26T11:04:44.000Z</time>
      </trkpt>
      <trkpt lat="42.589989" lon="-0.427684">
        <ele>1425.0</ele>
        <time>2019-03-26T11:04:45.000Z</time>
      </trkpt>
      <trkpt lat="42.589988" lon="-0.427665">
        <ele>1425.0</ele>
        <time>2019-03-26T11:04:46.000Z</time>
      </trkpt>
      <trkpt lat="42.589988" lon="-0.427646">
        <ele>1425.0</ele>
        <time>2019-03-26T11:04:47.000Z</time>
      </trkpt>
      <trkpt lat="42.589989" lon="-0.427628">
        <ele>1425.0</ele>
        <time>2019-03-26T11:04:48.000Z</time>
      </trkpt>
      <trkpt lat="42.589991" lon="-0.42761">
        <ele>1425.0</ele>
        <time>2019-03-26T11:04:49.000Z</time>
      </trkpt>
      <trkpt lat="42.589995" lon="-0.427593">
        <ele>1426.0</ele>
        <time>2019-03-26T11:04:50.000Z</time>
      </trkpt>
      <trkpt lat="42.59" lon="-0.427577">
        <ele>1426.0</ele>
        <time>2019-03-26T11:04:51.000Z</time>
      </trkpt>
      <trkpt lat="42.590007" lon="-0.42756">
        <ele>1426.0</ele>
        <time>2019-03-26T11:04:52.000Z</time>
      </trkpt>
      <trkpt lat="42.590014" lon="-0.427545">
        <ele>1426.0</ele>
        <time>2019-03-26T11:04:53.000Z</time>
      </trkpt>
      <trkpt lat="42.590014" lon="-0.427545">
        <ele>1427.0</ele>
        <time>2019-03-26T11:04:54.000Z</time>
      </trkpt>
      <trkpt lat="42.590016" lon="-0.427543">
        <ele>1427.0</ele>
        <time>2019-03-26T11:04:55.000Z</time>
      </trkpt>
      <trkpt lat="42.59002" lon="-0.427535">
        <ele>1427.0</ele>
        <time>2019-03-26T11:04:56.000Z</time>
      </trkpt>
      <trkpt lat="42.590027" lon="-0.427524">
        <ele>1427.0</ele>
        <time>2019-03-26T11:04:57.000Z</time>
      </trkpt>
      <trkpt lat="42.590037" lon="-0.427514">
        <ele>1427.0</ele>
        <time>2019-03-26T11:04:58.000Z</time>
      </trkpt>
      <trkpt lat="42.590048" lon="-0.427506">
        <ele>1428.0</ele>
        <time>2019-03-26T11:04:59.000Z</time>
      </trkpt>
      <trkpt lat="42.59006" lon="-0.427501">
        <ele>1428.0</ele>
        <time>2019-03-26T11:05:00.000Z</time>
      </trkpt>
      <trkpt lat="42.590074" lon="-0.427499">
        <ele>1428.0</ele>
        <time>2019-03-26T11:05:01.000Z</time>
      </trkpt>
      <trkpt lat="42.590088" lon="-0.4275">
        <ele>1428.0</ele>
        <time>2019-03-26T11:05:02.000Z</time>
      </trkpt>
      <trkpt lat="42.590102" lon="-0.427502">
        <ele>1429.0</ele>
        <time>2019-03-26T11:05:03.000Z</time>
      </trkpt>
      <trkpt lat="42.590117" lon="-0.427504">
        <ele>1429.0</ele>
        <time>2019-03-26T11:05:04.000Z</time>
      </trkpt>
      <trkpt lat="42.590131" lon="-0.427503">
        <ele>1429.0</ele>
        <time>2019-03-26T11:05:05.000Z</time>
      </trkpt>
      <trkpt lat="42.590145" lon="-0.427495">
        <ele>1429.0</ele>
        <time>2019-03-26T11:05:06.000Z</time>
      </trkpt>
      <trkpt lat="42.590157" lon="-0.427482">
        <ele>1429.0</ele>
        <time>2019-03-26T11:05:07.000Z</time>
      </trkpt>
      <trkpt lat="42.590168" lon="-0.427465">
        <ele>1429.0</ele>
        <time>2019-03-26T11:05:08.000Z</time>
      </trkpt>
      <trkpt lat="42.590174" lon="-0.427447">
        <ele>1429.0</ele>
        <time>2019-03-26T11:05:09.000Z</time>
      </trkpt>
      <trkpt lat="42.590178" lon="-0.427427">
        <ele>1429.0</ele>
        <time>2019-03-26T11:05:10.000Z</time>
      </trkpt>
      <trkpt lat="42.590177" lon="-0.427408">
        <ele>1429.0</ele>
        <time>2019-03-26T11:05:11.000Z</time>
      </trkpt>
      <trkpt lat="42.590175" lon="-0.42739">
        <ele>1429.0</ele>
        <time>2019-03-26T11:05:12.000Z</time>
      </trkpt>
      <trkpt lat="42.59017" lon="-0.427375">
        <ele>1429.0</ele>
        <time>2019-03-26T11:05:13.000Z</time>
      </trkpt>
      <trkpt lat="42.590164" lon="-0.427361">
        <ele>1429.0</ele>
        <time>2019-03-26T11:05:14.000Z</time>
      </trkpt>
      <trkpt lat="42.590158" lon="-0.42735">
        <ele>1429.0</ele>
        <time>2019-03-26T11:05:15.000Z</time>
      </trkpt>
      <trkpt lat="42.590152" lon="-0.427338">
        <ele>1429.0</ele>
        <time>2019-03-26T11:05:16.000Z</time>
      </trkpt>
      <trkpt lat="42.590148" lon="-0.427325">
        <ele>1429.0</ele>
        <time>2019-03-26T11:05:17.000Z</time>
      </trkpt>
      <trkpt lat="42.590145" lon="-0.427311">
        <ele>1429.0</ele>
        <time>2019-03-26T11:05:18.000Z</time>
      </trkpt>
      <trkpt lat="42.590143" lon="-0.427294">
        <ele>1429.0</ele>
        <time>2019-03-26T11:05:19.000Z</time>
      </trkpt>
      <trkpt lat="42.590142" lon="-0.427278">
        <ele>1429.0</ele>
        <time>2019-03-26T11:05:20.000Z</time>
      </trkpt>
      <trkpt lat="42.59014" lon="-0.427262">
        <ele>1429.0</ele>
        <time>2019-03-26T11:05:21.000Z</time>
      </trkpt>
      <trkpt lat="42.590138" lon="-0.427247">
        <ele>1429.0</ele>
        <time>2019-03-26T11:05:22.000Z</time>
      </trkpt>
      <trkpt lat="42.590135" lon="-0.427232">
        <ele>1429.0</ele>
        <time>2019-03-26T11:05:23.000Z</time>
      </trkpt>
      <trkpt lat="42.59013" lon="-0.427217">
        <ele>1429.0</ele>
        <time>2019-03-26T11:05:24.000Z</time>
      </trkpt>
      <trkpt lat="42.590123" lon="-0.427202">
        <ele>1429.0</ele>
        <time>2019-03-26T11:05:25.000Z</time>
      </trkpt>
      <trkpt lat="42.590116" lon="-0.427187">
        <ele>1429.0</ele>
        <time>2019-03-26T11:05:26.000Z</time>
      </trkpt>
      <trkpt lat="42.590109" lon="-0.427172">
        <ele>1429.0</ele>
        <time>2019-03-26T11:05:27.000Z</time>
      </trkpt>
      <trkpt lat="42.590103" lon="-0.427155">
        <ele>1429.0</ele>
        <time>2019-03-26T11:05:28.000Z</time>
      </trkpt>
      <trkpt lat="42.590099" lon="-0.427138">
        <ele>1429.0</ele>
        <time>2019-03-26T11:05:29.000Z</time>
      </trkpt>
      <trkpt lat="42.590097" lon="-0.42712">
        <ele>1430.0</ele>
        <time>2019-03-26T11:05:30.000Z</time>
      </trkpt>
      <trkpt lat="42.590094" lon="-0.427102">
        <ele>1429.0</ele>
        <time>2019-03-26T11:05:31.000Z</time>
      </trkpt>
      <trkpt lat="42.590091" lon="-0.427084">
        <ele>1430.0</ele>
        <time>2019-03-26T11:05:32.000Z</time>
      </trkpt>
      <trkpt lat="42.590087" lon="-0.427065">
        <ele>1430.0</ele>
        <time>2019-03-26T11:05:33.000Z</time>
      </trkpt>
      <trkpt lat="42.590082" lon="-0.427046">
        <ele>1430.0</ele>
        <time>2019-03-26T11:05:34.000Z</time>
      </trkpt>
      <trkpt lat="42.590076" lon="-0.427027">
        <ele>1430.0</ele>
        <time>2019-03-26T11:05:35.000Z</time>
      </trkpt>
      <trkpt lat="42.590071" lon="-0.427008">
        <ele>1430.0</ele>
        <time>2019-03-26T11:05:36.000Z</time>
      </trkpt>
      <trkpt lat="42.590066" lon="-0.42699">
        <ele>1430.0</ele>
        <time>2019-03-26T11:05:37.000Z</time>
      </trkpt>
      <trkpt lat="42.590061" lon="-0.426971">
        <ele>1430.0</ele>
        <time>2019-03-26T11:05:38.000Z</time>
      </trkpt>
      <trkpt lat="42.590057" lon="-0.426952">
        <ele>1430.0</ele>
        <time>2019-03-26T11:05:39.000Z</time>
      </trkpt>
      <trkpt lat="42.590053" lon="-0.426934">
        <ele>1430.0</ele>
        <time>2019-03-26T11:05:40.000Z</time>
      </trkpt>
      <trkpt lat="42.590049" lon="-0.426915">
        <ele>1430.0</ele>
        <time>2019-03-26T11:05:41.000Z</time>
      </trkpt>
      <trkpt lat="42.590046" lon="-0.426897">
        <ele>1430.0</ele>
        <time>2019-03-26T11:05:42.000Z</time>
      </trkpt>
      <trkpt lat="42.590042" lon="-0.426879">
        <ele>1430.0</ele>
        <time>2019-03-26T11:05:43.000Z</time>
      </trkpt>
      <trkpt lat="42.590039" lon="-0.426861">
        <ele>1430.0</ele>
        <time>2019-03-26T11:05:44.000Z</time>
      </trkpt>
      <trkpt lat="42.590036" lon="-0.426843">
        <ele>1430.0</ele>
        <time>2019-03-26T11:05:45.000Z</time>
      </trkpt>
      <trkpt lat="42.590033" lon="-0.426825">
        <ele>1430.0</ele>
        <time>2019-03-26T11:05:46.000Z</time>
      </trkpt>
      <trkpt lat="42.59003" lon="-0.426808">
        <ele>1431.0</ele>
        <time>2019-03-26T11:05:47.000Z</time>
      </trkpt>
      <trkpt lat="42.590027" lon="-0.42679">
        <ele>1431.0</ele>
        <time>2019-03-26T11:05:48.000Z</time>
      </trkpt>
      <trkpt lat="42.590025" lon="-0.426773">
        <ele>1431.0</ele>
        <time>2019-03-26T11:05:49.000Z</time>
      </trkpt>
      <trkpt lat="42.590022" lon="-0.426756">
        <ele>1431.0</ele>
        <time>2019-03-26T11:05:50.000Z</time>
      </trkpt>
      <trkpt lat="42.590019" lon="-0.426738">
        <ele>1431.0</ele>
        <time>2019-03-26T11:05:51.000Z</time>
      </trkpt>
      <trkpt lat="42.590016" lon="-0.426722">
        <ele>1431.0</ele>
        <time>2019-03-26T11:05:52.000Z</time>
      </trkpt>
      <trkpt lat="42.590013" lon="-0.426705">
        <ele>1431.0</ele>
        <time>2019-03-26T11:05:53.000Z</time>
      </trkpt>
      <trkpt lat="42.59001" lon="-0.426688">
        <ele>1431.0</ele>
        <time>2019-03-26T11:05:54.000Z</time>
      </trkpt>
      <trkpt lat="42.590007" lon="-0.426672">
        <ele>1431.0</ele>
        <time>2019-03-26T11:05:55.000Z</time>
      </trkpt>
      <trkpt lat="42.590003" lon="-0.426655">
        <ele>1432.0</ele>
        <time>2019-03-26T11:05:56.000Z</time>
      </trkpt>
      <trkpt lat="42.59" lon="-0.426639">
        <ele>1432.0</ele>
        <time>2019-03-26T11:05:57.000Z</time>
      </trkpt>
      <trkpt lat="42.589997" lon="-0.426622">
        <ele>1432.0</ele>
        <time>2019-03-26T11:05:58.000Z</time>
      </trkpt>
      <trkpt lat="42.589994" lon="-0.426606">
        <ele>1432.0</ele>
        <time>2019-03-26T11:05:59.000Z</time>
      </trkpt>
      <trkpt lat="42.58999" lon="-0.42659">
        <ele>1432.0</ele>
        <time>2019-03-26T11:06:00.000Z</time>
      </trkpt>
      <trkpt lat="42.589987" lon="-0.426574">
        <ele>1432.0</ele>
        <time>2019-03-26T11:06:01.000Z</time>
      </trkpt>
      <trkpt lat="42.589984" lon="-0.426557">
        <ele>1432.0</ele>
        <time>2019-03-26T11:06:02.000Z</time>
      </trkpt>
      <trkpt lat="42.58998" lon="-0.426541">
        <ele>1432.0</ele>
        <time>2019-03-26T11:06:03.000Z</time>
      </trkpt>
      <trkpt lat="42.589977" lon="-0.426525">
        <ele>1432.0</ele>
        <time>2019-03-26T11:06:04.000Z</time>
      </trkpt>
      <trkpt lat="42.589973" lon="-0.426508">
        <ele>1433.0</ele>
        <time>2019-03-26T11:06:05.000Z</time>
      </trkpt>
      <trkpt lat="42.589969" lon="-0.426492">
        <ele>1433.0</ele>
        <time>2019-03-26T11:06:06.000Z</time>
      </trkpt>
      <trkpt lat="42.589966" lon="-0.426475">
        <ele>1433.0</ele>
        <time>2019-03-26T11:06:07.000Z</time>
      </trkpt>
      <trkpt lat="42.589962" lon="-0.426459">
        <ele>1433.0</ele>
        <time>2019-03-26T11:06:08.000Z</time>
      </trkpt>
      <trkpt lat="42.589958" lon="-0.426442">
        <ele>1433.0</ele>
        <time>2019-03-26T11:06:09.000Z</time>
      </trkpt>
      <trkpt lat="42.589955" lon="-0.426425">
        <ele>1433.0</ele>
        <time>2019-03-26T11:06:10.000Z</time>
      </trkpt>
      <trkpt lat="42.589951" lon="-0.426408">
        <ele>1433.0</ele>
        <time>2019-03-26T11:06:11.000Z</time>
      </trkpt>
      <trkpt lat="42.589947" lon="-0.426391">
        <ele>1433.0</ele>
        <time>2019-03-26T11:06:12.000Z</time>
      </trkpt>
      <trkpt lat="42.589943" lon="-0.426374">
        <ele>1433.0</ele>
        <time>2019-03-26T11:06:13.000Z</time>
      </trkpt>
      <trkpt lat="42.589939" lon="-0.426357">
        <ele>1433.0</ele>
        <time>2019-03-26T11:06:14.000Z</time>
      </trkpt>
      <trkpt lat="42.589935" lon="-0.426339">
        <ele>1434.0</ele>
        <time>2019-03-26T11:06:15.000Z</time>
      </trkpt>
      <trkpt lat="42.589931" lon="-0.426321">
        <ele>1434.0</ele>
        <time>2019-03-26T11:06:16.000Z</time>
      </trkpt>
      <trkpt lat="42.589926" lon="-0.426303">
        <ele>1434.0</ele>
        <time>2019-03-26T11:06:17.000Z</time>
      </trkpt>
      <trkpt lat="42.589922" lon="-0.426285">
        <ele>1434.0</ele>
        <time>2019-03-26T11:06:18.000Z</time>
      </trkpt>
      <trkpt lat="42.589918" lon="-0.426266">
        <ele>1434.0</ele>
        <time>2019-03-26T11:06:19.000Z</time>
      </trkpt>
      <trkpt lat="42.589913" lon="-0.426247">
        <ele>1434.0</ele>
        <time>2019-03-26T11:06:20.000Z</time>
      </trkpt>
      <trkpt lat="42.589909" lon="-0.426228">
        <ele>1434.0</ele>
        <time>2019-03-26T11:06:21.000Z</time>
      </trkpt>
      <trkpt lat="42.589904" lon="-0.426209">
        <ele>1434.0</ele>
        <time>2019-03-26T11:06:22.000Z</time>
      </trkpt>
      <trkpt lat="42.589899" lon="-0.426189">
        <ele>1434.0</ele>
        <time>2019-03-26T11:06:23.000Z</time>
      </trkpt>
      <trkpt lat="42.589894" lon="-0.42617">
        <ele>1434.0</ele>
        <time>2019-03-26T11:06:24.000Z</time>
      </trkpt>
      <trkpt lat="42.58989" lon="-0.42615">
        <ele>1434.0</ele>
        <time>2019-03-26T11:06:25.000Z</time>
      </trkpt>
      <trkpt lat="42.589885" lon="-0.42613">
        <ele>1434.0</ele>
        <time>2019-03-26T11:06:26.000Z</time>
      </trkpt>
      <trkpt lat="42.58988" lon="-0.426111">
        <ele>1434.0</ele>
        <time>2019-03-26T11:06:27.000Z</time>
      </trkpt>
      <trkpt lat="42.589875" lon="-0.426091">
        <ele>1434.0</ele>
        <time>2019-03-26T11:06:28.000Z</time>
      </trkpt>
      <trkpt lat="42.589871" lon="-0.426071">
        <ele>1434.0</ele>
        <time>2019-03-26T11:06:29.000Z</time>
      </trkpt>
      <trkpt lat="42.589866" lon="-0.426052">
        <ele>1434.0</ele>
        <time>2019-03-26T11:06:30.000Z</time>
      </trkpt>
      <trkpt lat="42.589862" lon="-0.426032">
        <ele>1434.0</ele>
        <time>2019-03-26T11:06:31.000Z</time>
      </trkpt>
      <trkpt lat="42.589857" lon="-0.426013">
        <ele>1434.0</ele>
        <time>2019-03-26T11:06:32.000Z</time>
      </trkpt>
      <trkpt lat="42.589853" lon="-0.425994">
        <ele>1434.0</ele>
        <time>2019-03-26T11:06:33.000Z</time>
      </trkpt>
      <trkpt lat="42.589849" lon="-0.425975">
        <ele>1434.0</ele>
        <time>2019-03-26T11:06:34.000Z</time>
      </trkpt>
      <trkpt lat="42.589845" lon="-0.425957">
        <ele>1434.0</ele>
        <time>2019-03-26T11:06:35.000Z</time>
      </trkpt>
      <trkpt lat="42.589841" lon="-0.425938">
        <ele>1434.0</ele>
        <time>2019-03-26T11:06:36.000Z</time>
      </trkpt>
      <trkpt lat="42.589837" lon="-0.425921">
        <ele>1434.0</ele>
        <time>2019-03-26T11:06:37.000Z</time>
      </trkpt>
      <trkpt lat="42.589834" lon="-0.425903">
        <ele>1434.0</ele>
        <time>2019-03-26T11:06:38.000Z</time>
      </trkpt>
      <trkpt lat="42.58983" lon="-0.425886">
        <ele>1434.0</ele>
        <time>2019-03-26T11:06:39.000Z</time>
      </trkpt>
      <trkpt lat="42.589827" lon="-0.425869">
        <ele>1434.0</ele>
        <time>2019-03-26T11:06:40.000Z</time>
      </trkpt>
      <trkpt lat="42.589824" lon="-0.425852">
        <ele>1434.0</ele>
        <time>2019-03-26T11:06:41.000Z</time>
      </trkpt>
      <trkpt lat="42.589822" lon="-0.425836">
        <ele>1435.0</ele>
        <time>2019-03-26T11:06:42.000Z</time>
      </trkpt>
      <trkpt lat="42.589819" lon="-0.42582">
        <ele>1435.0</ele>
        <time>2019-03-26T11:06:43.000Z</time>
      </trkpt>
      <trkpt lat="42.589817" lon="-0.425804">
        <ele>1435.0</ele>
        <time>2019-03-26T11:06:44.000Z</time>
      </trkpt>
      <trkpt lat="42.589815" lon="-0.425789">
        <ele>1435.0</ele>
        <time>2019-03-26T11:06:45.000Z</time>
      </trkpt>
      <trkpt lat="42.589813" lon="-0.425774">
        <ele>1435.0</ele>
        <time>2019-03-26T11:06:46.000Z</time>
      </trkpt>
      <trkpt lat="42.589812" lon="-0.42576">
        <ele>1435.0</ele>
        <time>2019-03-26T11:06:47.000Z</time>
      </trkpt>
      <trkpt lat="42.589811" lon="-0.425745">
        <ele>1436.0</ele>
        <time>2019-03-26T11:06:48.000Z</time>
      </trkpt>
      <trkpt lat="42.58981" lon="-0.425732">
        <ele>1436.0</ele>
        <time>2019-03-26T11:06:49.000Z</time>
      </trkpt>
      <trkpt lat="42.58981" lon="-0.425718">
        <ele>1436.0</ele>
        <time>2019-03-26T11:06:50.000Z</time>
      </trkpt>
      <trkpt lat="42.589809" lon="-0.425706">
        <ele>1436.0</ele>
        <time>2019-03-26T11:06:51.000Z</time>
      </trkpt>
      <trkpt lat="42.589809" lon="-0.425696">
        <ele>1436.0</ele>
        <time>2019-03-26T11:06:52.000Z</time>
      </trkpt>
      <trkpt lat="42.589809" lon="-0.425689">
        <ele>1437.0</ele>
        <time>2019-03-26T11:06:53.000Z</time>
      </trkpt>
      <trkpt lat="42.589808" lon="-0.425685">
        <ele>1437.0</ele>
        <time>2019-03-26T11:06:54.000Z</time>
      </trkpt>
      <trkpt lat="42.589808" lon="-0.425683">
        <ele>1437.0</ele>
        <time>2019-03-26T11:06:55.000Z</time>
      </trkpt>
      <trkpt lat="42.589808" lon="-0.425681">
        <ele>1437.0</ele>
        <time>2019-03-26T11:06:56.000Z</time>
      </trkpt>
      <trkpt lat="42.589808" lon="-0.425678">
        <ele>1437.0</ele>
        <time>2019-03-26T11:06:57.000Z</time>
      </trkpt>
      <trkpt lat="42.589809" lon="-0.425672">
        <ele>1437.0</ele>
        <time>2019-03-26T11:06:58.000Z</time>
      </trkpt>
      <trkpt lat="42.58981" lon="-0.425665">
        <ele>1437.0</ele>
        <time>2019-03-26T11:06:59.000Z</time>
      </trkpt>
      <trkpt lat="42.589812" lon="-0.425657">
        <ele>1437.0</ele>
        <time>2019-03-26T11:07:00.000Z</time>
      </trkpt>
      <trkpt lat="42.589814" lon="-0.425647">
        <ele>1437.0</ele>
        <time>2019-03-26T11:07:01.000Z</time>
      </trkpt>
      <trkpt lat="42.589815" lon="-0.425637">
        <ele>1437.0</ele>
        <time>2019-03-26T11:07:02.000Z</time>
      </trkpt>
      <trkpt lat="42.589817" lon="-0.425626">
        <ele>1438.0</ele>
        <time>2019-03-26T11:07:03.000Z</time>
      </trkpt>
      <trkpt lat="42.589819" lon="-0.425615">
        <ele>1438.0</ele>
        <time>2019-03-26T11:07:04.000Z</time>
      </trkpt>
      <trkpt lat="42.58982" lon="-0.425604">
        <ele>1438.0</ele>
        <time>2019-03-26T11:07:05.000Z</time>
      </trkpt>
      <trkpt lat="42.589821" lon="-0.425593">
        <ele>1438.0</ele>
        <time>2019-03-26T11:07:06.000Z</time>
      </trkpt>
      <trkpt lat="42.589822" lon="-0.425581">
        <ele>1438.0</ele>
        <time>2019-03-26T11:07:07.000Z</time>
      </trkpt>
      <trkpt lat="42.589823" lon="-0.425569">
        <ele>1438.0</ele>
        <time>2019-03-26T11:07:08.000Z</time>
      </trkpt>
      <trkpt lat="42.589824" lon="-0.425557">
        <ele>1439.0</ele>
        <time>2019-03-26T11:07:09.000Z</time>
      </trkpt>
      <trkpt lat="42.589824" lon="-0.425545">
        <ele>1439.0</ele>
        <time>2019-03-26T11:07:10.000Z</time>
      </trkpt>
      <trkpt lat="42.589825" lon="-0.425533">
        <ele>1439.0</ele>
        <time>2019-03-26T11:07:11.000Z</time>
      </trkpt>
      <trkpt lat="42.589825" lon="-0.425521">
        <ele>1439.0</ele>
        <time>2019-03-26T11:07:12.000Z</time>
      </trkpt>
      <trkpt lat="42.589825" lon="-0.425509">
        <ele>1439.0</ele>
        <time>2019-03-26T11:07:13.000Z</time>
      </trkpt>
      <trkpt lat="42.589825" lon="-0.425497">
        <ele>1439.0</ele>
        <time>2019-03-26T11:07:14.000Z</time>
      </trkpt>
      <trkpt lat="42.589825" lon="-0.425485">
        <ele>1440.0</ele>
        <time>2019-03-26T11:07:15.000Z</time>
      </trkpt>
      <trkpt lat="42.589824" lon="-0.425473">
        <ele>1440.0</ele>
        <time>2019-03-26T11:07:16.000Z</time>
      </trkpt>
      <trkpt lat="42.589823" lon="-0.425461">
        <ele>1440.0</ele>
        <time>2019-03-26T11:07:17.000Z</time>
      </trkpt>
      <trkpt lat="42.589823" lon="-0.42545">
        <ele>1440.0</ele>
        <time>2019-03-26T11:07:18.000Z</time>
      </trkpt>
      <trkpt lat="42.589822" lon="-0.425438">
        <ele>1440.0</ele>
        <time>2019-03-26T11:07:19.000Z</time>
      </trkpt>
      <trkpt lat="42.58982" lon="-0.425427">
        <ele>1440.0</ele>
        <time>2019-03-26T11:07:20.000Z</time>
      </trkpt>
      <trkpt lat="42.589819" lon="-0.425415">
        <ele>1441.0</ele>
        <time>2019-03-26T11:07:21.000Z</time>
      </trkpt>
      <trkpt lat="42.589818" lon="-0.425404">
        <ele>1441.0</ele>
        <time>2019-03-26T11:07:22.000Z</time>
      </trkpt>
      <trkpt lat="42.589816" lon="-0.425393">
        <ele>1441.0</ele>
        <time>2019-03-26T11:07:23.000Z</time>
      </trkpt>
      <trkpt lat="42.589814" lon="-0.425382">
        <ele>1441.0</ele>
        <time>2019-03-26T11:07:24.000Z</time>
      </trkpt>
      <trkpt lat="42.589813" lon="-0.425371">
        <ele>1441.0</ele>
        <time>2019-03-26T11:07:25.000Z</time>
      </trkpt>
      <trkpt lat="42.589811" lon="-0.425359">
        <ele>1442.0</ele>
        <time>2019-03-26T11:07:26.000Z</time>
      </trkpt>
      <trkpt lat="42.589809" lon="-0.425348">
        <ele>1442.0</ele>
        <time>2019-03-26T11:07:27.000Z</time>
      </trkpt>
      <trkpt lat="42.589807" lon="-0.425336">
        <ele>1442.0</ele>
        <time>2019-03-26T11:07:28.000Z</time>
      </trkpt>
      <trkpt lat="42.589805" lon="-0.425324">
        <ele>1442.0</ele>
        <time>2019-03-26T11:07:29.000Z</time>
      </trkpt>
      <trkpt lat="42.589803" lon="-0.425312">
        <ele>1442.0</ele>
        <time>2019-03-26T11:07:30.000Z</time>
      </trkpt>
      <trkpt lat="42.589801" lon="-0.425301">
        <ele>1442.0</ele>
        <time>2019-03-26T11:07:31.000Z</time>
      </trkpt>
      <trkpt lat="42.589798" lon="-0.425289">
        <ele>1443.0</ele>
        <time>2019-03-26T11:07:32.000Z</time>
      </trkpt>
      <trkpt lat="42.589796" lon="-0.425278">
        <ele>1443.0</ele>
        <time>2019-03-26T11:07:33.000Z</time>
      </trkpt>
      <trkpt lat="42.589793" lon="-0.425267">
        <ele>1443.0</ele>
        <time>2019-03-26T11:07:34.000Z</time>
      </trkpt>
      <trkpt lat="42.58979" lon="-0.425256">
        <ele>1443.0</ele>
        <time>2019-03-26T11:07:35.000Z</time>
      </trkpt>
      <trkpt lat="42.589787" lon="-0.425246">
        <ele>1443.0</ele>
        <time>2019-03-26T11:07:36.000Z</time>
      </trkpt>
      <trkpt lat="42.589784" lon="-0.425235">
        <ele>1444.0</ele>
        <time>2019-03-26T11:07:37.000Z</time>
      </trkpt>
      <trkpt lat="42.58978" lon="-0.425225">
        <ele>1444.0</ele>
        <time>2019-03-26T11:07:38.000Z</time>
      </trkpt>
      <trkpt lat="42.589777" lon="-0.425214">
        <ele>1444.0</ele>
        <time>2019-03-26T11:07:39.000Z</time>
      </trkpt>
      <trkpt lat="42.589773" lon="-0.425204">
        <ele>1444.0</ele>
        <time>2019-03-26T11:07:40.000Z</time>
      </trkpt>
      <trkpt lat="42.589769" lon="-0.425194">
        <ele>1444.0</ele>
        <time>2019-03-26T11:07:41.000Z</time>
      </trkpt>
      <trkpt lat="42.589765" lon="-0.425184">
        <ele>1444.0</ele>
        <time>2019-03-26T11:07:42.000Z</time>
      </trkpt>
      <trkpt lat="42.58976" lon="-0.425174">
        <ele>1444.0</ele>
        <time>2019-03-26T11:07:43.000Z</time>
      </trkpt>
      <trkpt lat="42.589756" lon="-0.425163">
        <ele>1444.0</ele>
        <time>2019-03-26T11:07:44.000Z</time>
      </trkpt>
      <trkpt lat="42.589751" lon="-0.425153">
        <ele>1444.0</ele>
        <time>2019-03-26T11:07:45.000Z</time>
      </trkpt>
      <trkpt lat="42.589746" lon="-0.425142">
        <ele>1444.0</ele>
        <time>2019-03-26T11:07:46.000Z</time>
      </trkpt>
      <trkpt lat="42.589741" lon="-0.425131">
        <ele>1444.0</ele>
        <time>2019-03-26T11:07:47.000Z</time>
      </trkpt>
      <trkpt lat="42.589736" lon="-0.42512">
        <ele>1445.0</ele>
        <time>2019-03-26T11:07:48.000Z</time>
      </trkpt>
      <trkpt lat="42.58973" lon="-0.425109">
        <ele>1445.0</ele>
        <time>2019-03-26T11:07:49.000Z</time>
      </trkpt>
      <trkpt lat="42.589724" lon="-0.425098">
        <ele>1445.0</ele>
        <time>2019-03-26T11:07:50.000Z</time>
      </trkpt>
      <trkpt lat="42.589718" lon="-0.425086">
        <ele>1445.0</ele>
        <time>2019-03-26T11:07:51.000Z</time>
      </trkpt>
      <trkpt lat="42.589712" lon="-0.425075">
        <ele>1445.0</ele>
        <time>2019-03-26T11:07:52.000Z</time>
      </trkpt>
      <trkpt lat="42.589706" lon="-0.425064">
        <ele>1445.0</ele>
        <time>2019-03-26T11:07:53.000Z</time>
      </trkpt>
      <trkpt lat="42.589699" lon="-0.425054">
        <ele>1446.0</ele>
        <time>2019-03-26T11:07:54.000Z</time>
      </trkpt>
      <trkpt lat="42.589692" lon="-0.425044">
        <ele>1446.0</ele>
        <time>2019-03-26T11:07:55.000Z</time>
      </trkpt>
      <trkpt lat="42.589685" lon="-0.425035">
        <ele>1446.0</ele>
        <time>2019-03-26T11:07:56.000Z</time>
      </trkpt>
      <trkpt lat="42.589678" lon="-0.425026">
        <ele>1446.0</ele>
        <time>2019-03-26T11:07:57.000Z</time>
      </trkpt>
      <trkpt lat="42.58967" lon="-0.425018">
        <ele>1446.0</ele>
        <time>2019-03-26T11:07:58.000Z</time>
      </trkpt>
      <trkpt lat="42.589662" lon="-0.42501">
        <ele>1446.0</ele>
        <time>2019-03-26T11:07:59.000Z</time>
      </trkpt>
      <trkpt lat="42.589654" lon="-0.425003">
        <ele>1446.0</ele>
        <time>2019-03-26T11:08:00.000Z</time>
      </trkpt>
      <trkpt lat="42.589647" lon="-0.424996">
        <ele>1446.0</ele>
        <time>2019-03-26T11:08:01.000Z</time>
      </trkpt>
      <trkpt lat="42.589639" lon="-0.424989">
        <ele>1446.0</ele>
        <time>2019-03-26T11:08:02.000Z</time>
      </trkpt>
      <trkpt lat="42.589632" lon="-0.424982">
        <ele>1446.0</ele>
        <time>2019-03-26T11:08:03.000Z</time>
      </trkpt>
      <trkpt lat="42.589625" lon="-0.424974">
        <ele>1447.0</ele>
        <time>2019-03-26T11:08:04.000Z</time>
      </trkpt>
      <trkpt lat="42.589619" lon="-0.424965">
        <ele>1447.0</ele>
        <time>2019-03-26T11:08:05.000Z</time>
      </trkpt>
      <trkpt lat="42.589614" lon="-0.424954">
        <ele>1447.0</ele>
        <time>2019-03-26T11:08:06.000Z</time>
      </trkpt>
      <trkpt lat="42.58961" lon="-0.424942">
        <ele>1447.0</ele>
        <time>2019-03-26T11:08:07.000Z</time>
      </trkpt>
      <trkpt lat="42.589607" lon="-0.424928">
        <ele>1447.0</ele>
        <time>2019-03-26T11:08:08.000Z</time>
      </trkpt>
      <trkpt lat="42.589604" lon="-0.424914">
        <ele>1447.0</ele>
        <time>2019-03-26T11:08:09.000Z</time>
      </trkpt>
      <trkpt lat="42.589601" lon="-0.4249">
        <ele>1447.0</ele>
        <time>2019-03-26T11:08:10.000Z</time>
      </trkpt>
      <trkpt lat="42.589597" lon="-0.424887">
        <ele>1447.0</ele>
        <time>2019-03-26T11:08:11.000Z</time>
      </trkpt>
      <trkpt lat="42.589592" lon="-0.424876">
        <ele>1447.0</ele>
        <time>2019-03-26T11:08:12.000Z</time>
      </trkpt>
      <trkpt lat="42.589589" lon="-0.424868">
        <ele>1448.0</ele>
        <time>2019-03-26T11:08:13.000Z</time>
      </trkpt>
      <trkpt lat="42.589586" lon="-0.424862">
        <ele>1448.0</ele>
        <time>2019-03-26T11:08:14.000Z</time>
      </trkpt>
      <trkpt lat="42.589586" lon="-0.424861">
        <ele>1448.0</ele>
        <time>2019-03-26T11:08:15.000Z</time>
      </trkpt>
      <trkpt lat="42.589587" lon="-0.424861">
        <ele>1448.0</ele>
        <time>2019-03-26T11:08:16.000Z</time>
      </trkpt>
      <trkpt lat="42.589588" lon="-0.42486">
        <ele>1448.0</ele>
        <time>2019-03-26T11:08:17.000Z</time>
      </trkpt>
      <trkpt lat="42.589588" lon="-0.424857">
        <ele>1448.0</ele>
        <time>2019-03-26T11:08:18.000Z</time>
      </trkpt>
      <trkpt lat="42.589588" lon="-0.424851">
        <ele>1448.0</ele>
        <time>2019-03-26T11:08:19.000Z</time>
      </trkpt>
      <trkpt lat="42.589586" lon="-0.424842">
        <ele>1448.0</ele>
        <time>2019-03-26T11:08:20.000Z</time>
      </trkpt>
      <trkpt lat="42.589585" lon="-0.424831">
        <ele>1448.0</ele>
        <time>2019-03-26T11:08:21.000Z</time>
      </trkpt>
      <trkpt lat="42.589583" lon="-0.424818">
        <ele>1448.0</ele>
        <time>2019-03-26T11:08:22.000Z</time>
      </trkpt>
      <trkpt lat="42.589581" lon="-0.424803">
        <ele>1448.0</ele>
        <time>2019-03-26T11:08:23.000Z</time>
      </trkpt>
      <trkpt lat="42.589578" lon="-0.424787">
        <ele>1448.0</ele>
        <time>2019-03-26T11:08:24.000Z</time>
      </trkpt>
      <trkpt lat="42.589574" lon="-0.424771">
        <ele>1449.0</ele>
        <time>2019-03-26T11:08:25.000Z</time>
      </trkpt>
      <trkpt lat="42.589569" lon="-0.424754">
        <ele>1449.0</ele>
        <time>2019-03-26T11:08:26.000Z</time>
      </trkpt>
      <trkpt lat="42.589563" lon="-0.424737">
        <ele>1449.0</ele>
        <time>2019-03-26T11:08:27.000Z</time>
      </trkpt>
      <trkpt lat="42.589556" lon="-0.424721">
        <ele>1449.0</ele>
        <time>2019-03-26T11:08:28.000Z</time>
      </trkpt>
      <trkpt lat="42.589548" lon="-0.424707">
        <ele>1449.0</ele>
        <time>2019-03-26T11:08:29.000Z</time>
      </trkpt>
      <trkpt lat="42.58954" lon="-0.424694">
        <ele>1449.0</ele>
        <time>2019-03-26T11:08:30.000Z</time>
      </trkpt>
      <trkpt lat="42.589531" lon="-0.424684">
        <ele>1449.0</ele>
        <time>2019-03-26T11:08:31.000Z</time>
      </trkpt>
      <trkpt lat="42.589522" lon="-0.424677">
        <ele>1449.0</ele>
        <time>2019-03-26T11:08:32.000Z</time>
      </trkpt>
      <trkpt lat="42.589512" lon="-0.424673">
        <ele>1449.0</ele>
        <time>2019-03-26T11:08:33.000Z</time>
      </trkpt>
      <trkpt lat="42.589502" lon="-0.424673">
        <ele>1449.0</ele>
        <time>2019-03-26T11:08:34.000Z</time>
      </trkpt>
      <trkpt lat="42.589491" lon="-0.424676">
        <ele>1449.0</ele>
        <time>2019-03-26T11:08:35.000Z</time>
      </trkpt>
      <trkpt lat="42.58948" lon="-0.424683">
        <ele>1449.0</ele>
        <time>2019-03-26T11:08:36.000Z</time>
      </trkpt>
      <trkpt lat="42.589467" lon="-0.424693">
        <ele>1449.0</ele>
        <time>2019-03-26T11:08:37.000Z</time>
      </trkpt>
      <trkpt lat="42.589454" lon="-0.424703">
        <ele>1449.0</ele>
        <time>2019-03-26T11:08:38.000Z</time>
      </trkpt>
      <trkpt lat="42.589441" lon="-0.424712">
        <ele>1449.0</ele>
        <time>2019-03-26T11:08:39.000Z</time>
      </trkpt>
      <trkpt lat="42.589428" lon="-0.424714">
        <ele>1449.0</ele>
        <time>2019-03-26T11:08:40.000Z</time>
      </trkpt>
      <trkpt lat="42.589416" lon="-0.424709">
        <ele>1449.0</ele>
        <time>2019-03-26T11:08:41.000Z</time>
      </trkpt>
      <trkpt lat="42.589405" lon="-0.424698">
        <ele>1449.0</ele>
        <time>2019-03-26T11:08:42.000Z</time>
      </trkpt>
      <trkpt lat="42.589395" lon="-0.424684">
        <ele>1449.0</ele>
        <time>2019-03-26T11:08:43.000Z</time>
      </trkpt>
      <trkpt lat="42.589385" lon="-0.424669">
        <ele>1449.0</ele>
        <time>2019-03-26T11:08:44.000Z</time>
      </trkpt>
      <trkpt lat="42.589377" lon="-0.424655">
        <ele>1450.0</ele>
        <time>2019-03-26T11:08:45.000Z</time>
      </trkpt>
      <trkpt lat="42.589368" lon="-0.424643">
        <ele>1450.0</ele>
        <time>2019-03-26T11:08:46.000Z</time>
      </trkpt>
      <trkpt lat="42.58936" lon="-0.424631">
        <ele>1450.0</ele>
        <time>2019-03-26T11:08:47.000Z</time>
      </trkpt>
      <trkpt lat="42.58935" lon="-0.42462">
        <ele>1450.0</ele>
        <time>2019-03-26T11:08:48.000Z</time>
      </trkpt>
      <trkpt lat="42.58934" lon="-0.424609">
        <ele>1450.0</ele>
        <time>2019-03-26T11:08:49.000Z</time>
      </trkpt>
      <trkpt lat="42.589329" lon="-0.424598">
        <ele>1450.0</ele>
        <time>2019-03-26T11:08:50.000Z</time>
      </trkpt>
      <trkpt lat="42.589317" lon="-0.424587">
        <ele>1450.0</ele>
        <time>2019-03-26T11:08:51.000Z</time>
      </trkpt>
      <trkpt lat="42.589305" lon="-0.424576">
        <ele>1450.0</ele>
        <time>2019-03-26T11:08:52.000Z</time>
      </trkpt>
      <trkpt lat="42.589292" lon="-0.424564">
        <ele>1450.0</ele>
        <time>2019-03-26T11:08:53.000Z</time>
      </trkpt>
      <trkpt lat="42.589279" lon="-0.424551">
        <ele>1450.0</ele>
        <time>2019-03-26T11:08:54.000Z</time>
      </trkpt>
      <trkpt lat="42.589266" lon="-0.424538">
        <ele>1450.0</ele>
        <time>2019-03-26T11:08:55.000Z</time>
      </trkpt>
      <trkpt lat="42.589252" lon="-0.424523">
        <ele>1450.0</ele>
        <time>2019-03-26T11:08:56.000Z</time>
      </trkpt>
      <trkpt lat="42.589239" lon="-0.424508">
        <ele>1450.0</ele>
        <time>2019-03-26T11:08:57.000Z</time>
      </trkpt>
      <trkpt lat="42.589226" lon="-0.424492">
        <ele>1450.0</ele>
        <time>2019-03-26T11:08:58.000Z</time>
      </trkpt>
      <trkpt lat="42.589214" lon="-0.424477">
        <ele>1450.0</ele>
        <time>2019-03-26T11:08:59.000Z</time>
      </trkpt>
      <trkpt lat="42.589203" lon="-0.424463">
        <ele>1451.0</ele>
        <time>2019-03-26T11:09:00.000Z</time>
      </trkpt>
      <trkpt lat="42.589193" lon="-0.424449">
        <ele>1451.0</ele>
        <time>2019-03-26T11:09:01.000Z</time>
      </trkpt>
      <trkpt lat="42.589185" lon="-0.424437">
        <ele>1451.0</ele>
        <time>2019-03-26T11:09:02.000Z</time>
      </trkpt>
      <trkpt lat="42.589178" lon="-0.424427">
        <ele>1451.0</ele>
        <time>2019-03-26T11:09:03.000Z</time>
      </trkpt>
      <trkpt lat="42.589172" lon="-0.424418">
        <ele>1451.0</ele>
        <time>2019-03-26T11:09:04.000Z</time>
      </trkpt>
      <trkpt lat="42.589165" lon="-0.424409">
        <ele>1451.0</ele>
        <time>2019-03-26T11:09:05.000Z</time>
      </trkpt>
      <trkpt lat="42.589157" lon="-0.424398">
        <ele>1451.0</ele>
        <time>2019-03-26T11:09:06.000Z</time>
      </trkpt>
      <trkpt lat="42.589147" lon="-0.424385">
        <ele>1451.0</ele>
        <time>2019-03-26T11:09:07.000Z</time>
      </trkpt>
      <trkpt lat="42.589134" lon="-0.42437">
        <ele>1451.0</ele>
        <time>2019-03-26T11:09:08.000Z</time>
      </trkpt>
      <trkpt lat="42.589121" lon="-0.424354">
        <ele>1451.0</ele>
        <time>2019-03-26T11:09:09.000Z</time>
      </trkpt>
      <trkpt lat="42.589107" lon="-0.424337">
        <ele>1451.0</ele>
        <time>2019-03-26T11:09:10.000Z</time>
      </trkpt>
      <trkpt lat="42.589094" lon="-0.42432">
        <ele>1451.0</ele>
        <time>2019-03-26T11:09:11.000Z</time>
      </trkpt>
      <trkpt lat="42.58908" lon="-0.424302">
        <ele>1451.0</ele>
        <time>2019-03-26T11:09:12.000Z</time>
      </trkpt>
      <trkpt lat="42.589068" lon="-0.424284">
        <ele>1451.0</ele>
        <time>2019-03-26T11:09:13.000Z</time>
      </trkpt>
      <trkpt lat="42.589056" lon="-0.424265">
        <ele>1451.0</ele>
        <time>2019-03-26T11:09:14.000Z</time>
      </trkpt>
      <trkpt lat="42.589044" lon="-0.424246">
        <ele>1451.0</ele>
        <time>2019-03-26T11:09:15.000Z</time>
      </trkpt>
      <trkpt lat="42.589033" lon="-0.424225">
        <ele>1451.0</ele>
        <time>2019-03-26T11:09:16.000Z</time>
      </trkpt>
      <trkpt lat="42.589023" lon="-0.424202">
        <ele>1451.0</ele>
        <time>2019-03-26T11:09:17.000Z</time>
      </trkpt>
      <trkpt lat="42.589013" lon="-0.424178">
        <ele>1451.0</ele>
        <time>2019-03-26T11:09:18.000Z</time>
      </trkpt>
      <trkpt lat="42.589004" lon="-0.424153">
        <ele>1451.0</ele>
        <time>2019-03-26T11:09:19.000Z</time>
      </trkpt>
      <trkpt lat="42.588995" lon="-0.424127">
        <ele>1451.0</ele>
        <time>2019-03-26T11:09:20.000Z</time>
      </trkpt>
      <trkpt lat="42.588987" lon="-0.424099">
        <ele>1451.0</ele>
        <time>2019-03-26T11:09:21.000Z</time>
      </trkpt>
      <trkpt lat="42.588979" lon="-0.42407">
        <ele>1451.0</ele>
        <time>2019-03-26T11:09:22.000Z</time>
      </trkpt>
      <trkpt lat="42.58897" lon="-0.424041">
        <ele>1451.0</ele>
        <time>2019-03-26T11:09:23.000Z</time>
      </trkpt>
      <trkpt lat="42.588962" lon="-0.424012">
        <ele>1451.0</ele>
        <time>2019-03-26T11:09:24.000Z</time>
      </trkpt>
      <trkpt lat="42.588953" lon="-0.423981">
        <ele>1451.0</ele>
        <time>2019-03-26T11:09:25.000Z</time>
      </trkpt>
      <trkpt lat="42.588944" lon="-0.423951">
        <ele>1451.0</ele>
        <time>2019-03-26T11:09:26.000Z</time>
      </trkpt>
      <trkpt lat="42.588934" lon="-0.423921">
        <ele>1451.0</ele>
        <time>2019-03-26T11:09:27.000Z</time>
      </trkpt>
      <trkpt lat="42.588923" lon="-0.423891">
        <ele>1451.0</ele>
        <time>2019-03-26T11:09:28.000Z</time>
      </trkpt>
      <trkpt lat="42.588911" lon="-0.423862">
        <ele>1451.0</ele>
        <time>2019-03-26T11:09:29.000Z</time>
      </trkpt>
      <trkpt lat="42.588898" lon="-0.423833">
        <ele>1451.0</ele>
        <time>2019-03-26T11:09:30.000Z</time>
      </trkpt>
      <trkpt lat="42.588884" lon="-0.423804">
        <ele>1451.0</ele>
        <time>2019-03-26T11:09:31.000Z</time>
      </trkpt>
      <trkpt lat="42.588869" lon="-0.423777">
        <ele>1452.0</ele>
        <time>2019-03-26T11:09:32.000Z</time>
      </trkpt>
      <trkpt lat="42.588852" lon="-0.423751">
        <ele>1452.0</ele>
        <time>2019-03-26T11:09:33.000Z</time>
      </trkpt>
      <trkpt lat="42.588836" lon="-0.423727">
        <ele>1452.0</ele>
        <time>2019-03-26T11:09:34.000Z</time>
      </trkpt>
      <trkpt lat="42.588821" lon="-0.423705">
        <ele>1452.0</ele>
        <time>2019-03-26T11:09:35.000Z</time>
      </trkpt>
      <trkpt lat="42.588808" lon="-0.423687">
        <ele>1452.0</ele>
        <time>2019-03-26T11:09:36.000Z</time>
      </trkpt>
      <trkpt lat="42.588801" lon="-0.423675">
        <ele>1452.0</ele>
        <time>2019-03-26T11:09:37.000Z</time>
      </trkpt>
      <trkpt lat="42.5888" lon="-0.423672">
        <ele>1451.0</ele>
        <time>2019-03-26T11:14:43.000Z</time>
      </trkpt>
      <trkpt lat="42.5888" lon="-0.423672">
        <ele>1451.0</ele>
        <time>2019-03-26T11:14:44.000Z</time>
      </trkpt>
      <trkpt lat="42.588798" lon="-0.423667">
        <ele>1451.0</ele>
        <time>2019-03-26T11:14:45.000Z</time>
      </trkpt>
      <trkpt lat="42.588796" lon="-0.423655">
        <ele>1451.0</ele>
        <time>2019-03-26T11:14:46.000Z</time>
      </trkpt>
      <trkpt lat="42.588794" lon="-0.423638">
        <ele>1451.0</ele>
        <time>2019-03-26T11:14:47.000Z</time>
      </trkpt>
      <trkpt lat="42.588792" lon="-0.423617">
        <ele>1451.0</ele>
        <time>2019-03-26T11:14:48.000Z</time>
      </trkpt>
      <trkpt lat="42.58879" lon="-0.423593">
        <ele>1451.0</ele>
        <time>2019-03-26T11:14:49.000Z</time>
      </trkpt>
      <trkpt lat="42.588787" lon="-0.423568">
        <ele>1451.0</ele>
        <time>2019-03-26T11:14:50.000Z</time>
      </trkpt>
      <trkpt lat="42.588784" lon="-0.423543">
        <ele>1451.0</ele>
        <time>2019-03-26T11:14:51.000Z</time>
      </trkpt>
      <trkpt lat="42.588782" lon="-0.423517">
        <ele>1451.0</ele>
        <time>2019-03-26T11:14:52.000Z</time>
      </trkpt>
      <trkpt lat="42.58878" lon="-0.42349">
        <ele>1451.0</ele>
        <time>2019-03-26T11:14:53.000Z</time>
      </trkpt>
      <trkpt lat="42.588779" lon="-0.423462">
        <ele>1451.0</ele>
        <time>2019-03-26T11:14:54.000Z</time>
      </trkpt>
      <trkpt lat="42.588777" lon="-0.423433">
        <ele>1451.0</ele>
        <time>2019-03-26T11:14:55.000Z</time>
      </trkpt>
      <trkpt lat="42.588774" lon="-0.423405">
        <ele>1451.0</ele>
        <time>2019-03-26T11:14:56.000Z</time>
      </trkpt>
      <trkpt lat="42.58877" lon="-0.423377">
        <ele>1451.0</ele>
        <time>2019-03-26T11:14:57.000Z</time>
      </trkpt>
      <trkpt lat="42.588764" lon="-0.423349">
        <ele>1452.0</ele>
        <time>2019-03-26T11:14:58.000Z</time>
      </trkpt>
      <trkpt lat="42.588755" lon="-0.423322">
        <ele>1451.0</ele>
        <time>2019-03-26T11:14:59.000Z</time>
      </trkpt>
      <trkpt lat="42.588743" lon="-0.423296">
        <ele>1451.0</ele>
        <time>2019-03-26T11:15:00.000Z</time>
      </trkpt>
      <trkpt lat="42.588729" lon="-0.423272">
        <ele>1451.0</ele>
        <time>2019-03-26T11:15:01.000Z</time>
      </trkpt>
      <trkpt lat="42.588714" lon="-0.423249">
        <ele>1451.0</ele>
        <time>2019-03-26T11:15:02.000Z</time>
      </trkpt>
      <trkpt lat="42.588698" lon="-0.423229">
        <ele>1452.0</ele>
        <time>2019-03-26T11:15:03.000Z</time>
      </trkpt>
      <trkpt lat="42.588683" lon="-0.423212">
        <ele>1452.0</ele>
        <time>2019-03-26T11:15:04.000Z</time>
      </trkpt>
      <trkpt lat="42.588668" lon="-0.423196">
        <ele>1452.0</ele>
        <time>2019-03-26T11:15:05.000Z</time>
      </trkpt>
      <trkpt lat="42.588654" lon="-0.423183">
        <ele>1452.0</ele>
        <time>2019-03-26T11:15:06.000Z</time>
      </trkpt>
      <trkpt lat="42.588639" lon="-0.42317">
        <ele>1452.0</ele>
        <time>2019-03-26T11:15:07.000Z</time>
      </trkpt>
      <trkpt lat="42.588624" lon="-0.423157">
        <ele>1452.0</ele>
        <time>2019-03-26T11:15:08.000Z</time>
      </trkpt>
      <trkpt lat="42.588609" lon="-0.423144">
        <ele>1452.0</ele>
        <time>2019-03-26T11:15:09.000Z</time>
      </trkpt>
      <trkpt lat="42.588594" lon="-0.423132">
        <ele>1452.0</ele>
        <time>2019-03-26T11:15:10.000Z</time>
      </trkpt>
      <trkpt lat="42.588579" lon="-0.423119">
        <ele>1452.0</ele>
        <time>2019-03-26T11:15:11.000Z</time>
      </trkpt>
      <trkpt lat="42.588563" lon="-0.423105">
        <ele>1452.0</ele>
        <time>2019-03-26T11:15:12.000Z</time>
      </trkpt>
      <trkpt lat="42.588547" lon="-0.42309">
        <ele>1452.0</ele>
        <time>2019-03-26T11:15:13.000Z</time>
      </trkpt>
      <trkpt lat="42.58853" lon="-0.423074">
        <ele>1452.0</ele>
        <time>2019-03-26T11:15:14.000Z</time>
      </trkpt>
      <trkpt lat="42.588514" lon="-0.423057">
        <ele>1452.0</ele>
        <time>2019-03-26T11:15:15.000Z</time>
      </trkpt>
      <trkpt lat="42.588497" lon="-0.423038">
        <ele>1452.0</ele>
        <time>2019-03-26T11:15:16.000Z</time>
      </trkpt>
      <trkpt lat="42.58848" lon="-0.423021">
        <ele>1451.0</ele>
        <time>2019-03-26T11:15:17.000Z</time>
      </trkpt>
      <trkpt lat="42.588464" lon="-0.423004">
        <ele>1451.0</ele>
        <time>2019-03-26T11:15:18.000Z</time>
      </trkpt>
      <trkpt lat="42.588448" lon="-0.42299">
        <ele>1452.0</ele>
        <time>2019-03-26T11:15:19.000Z</time>
      </trkpt>
      <trkpt lat="42.588432" lon="-0.422976">
        <ele>1452.0</ele>
        <time>2019-03-26T11:15:20.000Z</time>
      </trkpt>
      <trkpt lat="42.588415" lon="-0.422962">
        <ele>1452.0</ele>
        <time>2019-03-26T11:15:21.000Z</time>
      </trkpt>
      <trkpt lat="42.588397" lon="-0.422945">
        <ele>1452.0</ele>
        <time>2019-03-26T11:15:22.000Z</time>
      </trkpt>
      <trkpt lat="42.588378" lon="-0.422927">
        <ele>1452.0</ele>
        <time>2019-03-26T11:15:23.000Z</time>
      </trkpt>
      <trkpt lat="42.588358" lon="-0.422907">
        <ele>1452.0</ele>
        <time>2019-03-26T11:15:24.000Z</time>
      </trkpt>
      <trkpt lat="42.58834" lon="-0.422888">
        <ele>1451.0</ele>
        <time>2019-03-26T11:15:25.000Z</time>
      </trkpt>
      <trkpt lat="42.588323" lon="-0.422869">
        <ele>1451.0</ele>
        <time>2019-03-26T11:15:26.000Z</time>
      </trkpt>
      <trkpt lat="42.588307" lon="-0.42285">
        <ele>1451.0</ele>
        <time>2019-03-26T11:15:27.000Z</time>
      </trkpt>
      <trkpt lat="42.588292" lon="-0.422829">
        <ele>1451.0</ele>
        <time>2019-03-26T11:15:28.000Z</time>
      </trkpt>
      <trkpt lat="42.588278" lon="-0.422807">
        <ele>1451.0</ele>
        <time>2019-03-26T11:15:29.000Z</time>
      </trkpt>
      <trkpt lat="42.588263" lon="-0.422783">
        <ele>1451.0</ele>
        <time>2019-03-26T11:15:30.000Z</time>
      </trkpt>
      <trkpt lat="42.588248" lon="-0.422758">
        <ele>1451.0</ele>
        <time>2019-03-26T11:15:31.000Z</time>
      </trkpt>
      <trkpt lat="42.588233" lon="-0.422731">
        <ele>1451.0</ele>
        <time>2019-03-26T11:15:32.000Z</time>
      </trkpt>
      <trkpt lat="42.588217" lon="-0.422704">
        <ele>1451.0</ele>
        <time>2019-03-26T11:15:33.000Z</time>
      </trkpt>
      <trkpt lat="42.5882" lon="-0.422677">
        <ele>1451.0</ele>
        <time>2019-03-26T11:15:34.000Z</time>
      </trkpt>
      <trkpt lat="42.588182" lon="-0.422652">
        <ele>1451.0</ele>
        <time>2019-03-26T11:15:35.000Z</time>
      </trkpt>
      <trkpt lat="42.588163" lon="-0.422629">
        <ele>1451.0</ele>
        <time>2019-03-26T11:15:36.000Z</time>
      </trkpt>
      <trkpt lat="42.588145" lon="-0.422608">
        <ele>1451.0</ele>
        <time>2019-03-26T11:15:37.000Z</time>
      </trkpt>
      <trkpt lat="42.588126" lon="-0.422589">
        <ele>1451.0</ele>
        <time>2019-03-26T11:15:38.000Z</time>
      </trkpt>
      <trkpt lat="42.588107" lon="-0.422572">
        <ele>1451.0</ele>
        <time>2019-03-26T11:15:39.000Z</time>
      </trkpt>
      <trkpt lat="42.588088" lon="-0.422557">
        <ele>1451.0</ele>
        <time>2019-03-26T11:15:40.000Z</time>
      </trkpt>
      <trkpt lat="42.588068" lon="-0.422543">
        <ele>1451.0</ele>
        <time>2019-03-26T11:15:41.000Z</time>
      </trkpt>
      <trkpt lat="42.588049" lon="-0.42253">
        <ele>1451.0</ele>
        <time>2019-03-26T11:15:42.000Z</time>
      </trkpt>
      <trkpt lat="42.58803" lon="-0.422517">
        <ele>1451.0</ele>
        <time>2019-03-26T11:15:43.000Z</time>
      </trkpt>
      <trkpt lat="42.588011" lon="-0.422504">
        <ele>1451.0</ele>
        <time>2019-03-26T11:15:44.000Z</time>
      </trkpt>
      <trkpt lat="42.587992" lon="-0.42249">
        <ele>1451.0</ele>
        <time>2019-03-26T11:15:45.000Z</time>
      </trkpt>
      <trkpt lat="42.587973" lon="-0.422476">
        <ele>1451.0</ele>
        <time>2019-03-26T11:15:46.000Z</time>
      </trkpt>
      <trkpt lat="42.587954" lon="-0.422462">
        <ele>1451.0</ele>
        <time>2019-03-26T11:15:47.000Z</time>
      </trkpt>
      <trkpt lat="42.587935" lon="-0.422447">
        <ele>1451.0</ele>
        <time>2019-03-26T11:15:48.000Z</time>
      </trkpt>
      <trkpt lat="42.587916" lon="-0.422432">
        <ele>1451.0</ele>
        <time>2019-03-26T11:15:49.000Z</time>
      </trkpt>
      <trkpt lat="42.587897" lon="-0.422418">
        <ele>1451.0</ele>
        <time>2019-03-26T11:15:50.000Z</time>
      </trkpt>
      <trkpt lat="42.587878" lon="-0.422403">
        <ele>1451.0</ele>
        <time>2019-03-26T11:15:51.000Z</time>
      </trkpt>
      <trkpt lat="42.587859" lon="-0.422388">
        <ele>1451.0</ele>
        <time>2019-03-26T11:15:52.000Z</time>
      </trkpt>
      <trkpt lat="42.58784" lon="-0.422374">
        <ele>1451.0</ele>
        <time>2019-03-26T11:15:53.000Z</time>
      </trkpt>
      <trkpt lat="42.587821" lon="-0.422359">
        <ele>1451.0</ele>
        <time>2019-03-26T11:15:54.000Z</time>
      </trkpt>
      <trkpt lat="42.587802" lon="-0.422345">
        <ele>1451.0</ele>
        <time>2019-03-26T11:15:55.000Z</time>
      </trkpt>
      <trkpt lat="42.587783" lon="-0.422331">
        <ele>1451.0</ele>
        <time>2019-03-26T11:15:56.000Z</time>
      </trkpt>
      <trkpt lat="42.587764" lon="-0.422317">
        <ele>1451.0</ele>
        <time>2019-03-26T11:15:57.000Z</time>
      </trkpt>
      <trkpt lat="42.587745" lon="-0.422303">
        <ele>1451.0</ele>
        <time>2019-03-26T11:15:58.000Z</time>
      </trkpt>
      <trkpt lat="42.587727" lon="-0.422289">
        <ele>1451.0</ele>
        <time>2019-03-26T11:15:59.000Z</time>
      </trkpt>
      <trkpt lat="42.587708" lon="-0.422274">
        <ele>1451.0</ele>
        <time>2019-03-26T11:16:00.000Z</time>
      </trkpt>
      <trkpt lat="42.587689" lon="-0.42226">
        <ele>1451.0</ele>
        <time>2019-03-26T11:16:01.000Z</time>
      </trkpt>
      <trkpt lat="42.58767" lon="-0.422245">
        <ele>1451.0</ele>
        <time>2019-03-26T11:16:02.000Z</time>
      </trkpt>
      <trkpt lat="42.587651" lon="-0.422229">
        <ele>1451.0</ele>
        <time>2019-03-26T11:16:03.000Z</time>
      </trkpt>
      <trkpt lat="42.587631" lon="-0.422211">
        <ele>1451.0</ele>
        <time>2019-03-26T11:16:04.000Z</time>
      </trkpt>
      <trkpt lat="42.587611" lon="-0.422193">
        <ele>1451.0</ele>
        <time>2019-03-26T11:16:05.000Z</time>
      </trkpt>
      <trkpt lat="42.587591" lon="-0.422174">
        <ele>1451.0</ele>
        <time>2019-03-26T11:16:06.000Z</time>
      </trkpt>
      <trkpt lat="42.58757" lon="-0.422155">
        <ele>1451.0</ele>
        <time>2019-03-26T11:16:07.000Z</time>
      </trkpt>
      <trkpt lat="42.587549" lon="-0.422136">
        <ele>1451.0</ele>
        <time>2019-03-26T11:16:08.000Z</time>
      </trkpt>
      <trkpt lat="42.587528" lon="-0.422117">
        <ele>1451.0</ele>
        <time>2019-03-26T11:16:09.000Z</time>
      </trkpt>
      <trkpt lat="42.587507" lon="-0.422098">
        <ele>1451.0</ele>
        <time>2019-03-26T11:16:10.000Z</time>
      </trkpt>
      <trkpt lat="42.587486" lon="-0.42208">
        <ele>1450.0</ele>
        <time>2019-03-26T11:16:11.000Z</time>
      </trkpt>
      <trkpt lat="42.587465" lon="-0.422061">
        <ele>1450.0</ele>
        <time>2019-03-26T11:16:12.000Z</time>
      </trkpt>
      <trkpt lat="42.587444" lon="-0.422043">
        <ele>1450.0</ele>
        <time>2019-03-26T11:16:13.000Z</time>
      </trkpt>
      <trkpt lat="42.587423" lon="-0.422025">
        <ele>1450.0</ele>
        <time>2019-03-26T11:16:14.000Z</time>
      </trkpt>
      <trkpt lat="42.587402" lon="-0.422008">
        <ele>1450.0</ele>
        <time>2019-03-26T11:16:15.000Z</time>
      </trkpt>
      <trkpt lat="42.587381" lon="-0.421991">
        <ele>1450.0</ele>
        <time>2019-03-26T11:16:16.000Z</time>
      </trkpt>
      <trkpt lat="42.58736" lon="-0.421974">
        <ele>1450.0</ele>
        <time>2019-03-26T11:16:17.000Z</time>
      </trkpt>
      <trkpt lat="42.587339" lon="-0.421957">
        <ele>1450.0</ele>
        <time>2019-03-26T11:16:18.000Z</time>
      </trkpt>
      <trkpt lat="42.587318" lon="-0.42194">
        <ele>1450.0</ele>
        <time>2019-03-26T11:16:19.000Z</time>
      </trkpt>
      <trkpt lat="42.587298" lon="-0.421922">
        <ele>1450.0</ele>
        <time>2019-03-26T11:16:20.000Z</time>
      </trkpt>
      <trkpt lat="42.587279" lon="-0.421903">
        <ele>1450.0</ele>
        <time>2019-03-26T11:16:21.000Z</time>
      </trkpt>
      <trkpt lat="42.587259" lon="-0.421883">
        <ele>1450.0</ele>
        <time>2019-03-26T11:16:22.000Z</time>
      </trkpt>
      <trkpt lat="42.58724" lon="-0.421862">
        <ele>1450.0</ele>
        <time>2019-03-26T11:16:23.000Z</time>
      </trkpt>
      <trkpt lat="42.587221" lon="-0.421841">
        <ele>1450.0</ele>
        <time>2019-03-26T11:16:24.000Z</time>
      </trkpt>
      <trkpt lat="42.587202" lon="-0.421819">
        <ele>1450.0</ele>
        <time>2019-03-26T11:16:25.000Z</time>
      </trkpt>
      <trkpt lat="42.587182" lon="-0.421797">
        <ele>1450.0</ele>
        <time>2019-03-26T11:16:26.000Z</time>
      </trkpt>
      <trkpt lat="42.587161" lon="-0.421775">
        <ele>1450.0</ele>
        <time>2019-03-26T11:16:27.000Z</time>
      </trkpt>
      <trkpt lat="42.587139" lon="-0.421753">
        <ele>1450.0</ele>
        <time>2019-03-26T11:16:28.000Z</time>
      </trkpt>
      <trkpt lat="42.587116" lon="-0.421731">
        <ele>1450.0</ele>
        <time>2019-03-26T11:16:29.000Z</time>
      </trkpt>
      <trkpt lat="42.587092" lon="-0.42171">
        <ele>1450.0</ele>
        <time>2019-03-26T11:16:30.000Z</time>
      </trkpt>
      <trkpt lat="42.587067" lon="-0.421689">
        <ele>1450.0</ele>
        <time>2019-03-26T11:16:31.000Z</time>
      </trkpt>
      <trkpt lat="42.587041" lon="-0.421669">
        <ele>1450.0</ele>
        <time>2019-03-26T11:16:32.000Z</time>
      </trkpt>
      <trkpt lat="42.587014" lon="-0.42165">
        <ele>1450.0</ele>
        <time>2019-03-26T11:16:33.000Z</time>
      </trkpt>
      <trkpt lat="42.586987" lon="-0.421631">
        <ele>1450.0</ele>
        <time>2019-03-26T11:16:34.000Z</time>
      </trkpt>
      <trkpt lat="42.58696" lon="-0.421612">
        <ele>1449.0</ele>
        <time>2019-03-26T11:16:35.000Z</time>
      </trkpt>
      <trkpt lat="42.586934" lon="-0.421594">
        <ele>1449.0</ele>
        <time>2019-03-26T11:16:36.000Z</time>
      </trkpt>
      <trkpt lat="42.586908" lon="-0.421577">
        <ele>1449.0</ele>
        <time>2019-03-26T11:16:37.000Z</time>
      </trkpt>
      <trkpt lat="42.586883" lon="-0.42156">
        <ele>1449.0</ele>
        <time>2019-03-26T11:16:38.000Z</time>
      </trkpt>
      <trkpt lat="42.586858" lon="-0.421544">
        <ele>1449.0</ele>
        <time>2019-03-26T11:16:39.000Z</time>
      </trkpt>
      <trkpt lat="42.586833" lon="-0.421528">
        <ele>1449.0</ele>
        <time>2019-03-26T11:16:40.000Z</time>
      </trkpt>
      <trkpt lat="42.586809" lon="-0.421513">
        <ele>1449.0</ele>
        <time>2019-03-26T11:16:41.000Z</time>
      </trkpt>
      <trkpt lat="42.586785" lon="-0.421499">
        <ele>1449.0</ele>
        <time>2019-03-26T11:16:42.000Z</time>
      </trkpt>
      <trkpt lat="42.586762" lon="-0.421486">
        <ele>1449.0</ele>
        <time>2019-03-26T11:16:43.000Z</time>
      </trkpt>
      <trkpt lat="42.586738" lon="-0.421473">
        <ele>1449.0</ele>
        <time>2019-03-26T11:16:44.000Z</time>
      </trkpt>
      <trkpt lat="42.586714" lon="-0.421462">
        <ele>1449.0</ele>
        <time>2019-03-26T11:16:45.000Z</time>
      </trkpt>
      <trkpt lat="42.586689" lon="-0.42145">
        <ele>1449.0</ele>
        <time>2019-03-26T11:16:46.000Z</time>
      </trkpt>
      <trkpt lat="42.586662" lon="-0.421438">
        <ele>1449.0</ele>
        <time>2019-03-26T11:16:47.000Z</time>
      </trkpt>
      <trkpt lat="42.586633" lon="-0.421423">
        <ele>1449.0</ele>
        <time>2019-03-26T11:16:48.000Z</time>
      </trkpt>
      <trkpt lat="42.586601" lon="-0.421407">
        <ele>1449.0</ele>
        <time>2019-03-26T11:16:49.000Z</time>
      </trkpt>
      <trkpt lat="42.586566" lon="-0.421388">
        <ele>1448.0</ele>
        <time>2019-03-26T11:16:50.000Z</time>
      </trkpt>
      <trkpt lat="42.586531" lon="-0.421367">
        <ele>1448.0</ele>
        <time>2019-03-26T11:16:51.000Z</time>
      </trkpt>
      <trkpt lat="42.586496" lon="-0.421346">
        <ele>1448.0</ele>
        <time>2019-03-26T11:16:52.000Z</time>
      </trkpt>
      <trkpt lat="42.586461" lon="-0.421324">
        <ele>1448.0</ele>
        <time>2019-03-26T11:16:53.000Z</time>
      </trkpt>
      <trkpt lat="42.586427" lon="-0.421302">
        <ele>1448.0</ele>
        <time>2019-03-26T11:16:54.000Z</time>
      </trkpt>
      <trkpt lat="42.586394" lon="-0.421279">
        <ele>1448.0</ele>
        <time>2019-03-26T11:16:55.000Z</time>
      </trkpt>
      <trkpt lat="42.58636" lon="-0.421256">
        <ele>1448.0</ele>
        <time>2019-03-26T11:16:56.000Z</time>
      </trkpt>
      <trkpt lat="42.586327" lon="-0.421233">
        <ele>1448.0</ele>
        <time>2019-03-26T11:16:57.000Z</time>
      </trkpt>
      <trkpt lat="42.586294" lon="-0.42121">
        <ele>1448.0</ele>
        <time>2019-03-26T11:16:58.000Z</time>
      </trkpt>
      <trkpt lat="42.586261" lon="-0.421188">
        <ele>1447.0</ele>
        <time>2019-03-26T11:16:59.000Z</time>
      </trkpt>
      <trkpt lat="42.586228" lon="-0.421165">
        <ele>1447.0</ele>
        <time>2019-03-26T11:17:00.000Z</time>
      </trkpt>
      <trkpt lat="42.586196" lon="-0.421144">
        <ele>1447.0</ele>
        <time>2019-03-26T11:17:01.000Z</time>
      </trkpt>
      <trkpt lat="42.586163" lon="-0.421123">
        <ele>1447.0</ele>
        <time>2019-03-26T11:17:02.000Z</time>
      </trkpt>
      <trkpt lat="42.586129" lon="-0.421104">
        <ele>1447.0</ele>
        <time>2019-03-26T11:17:03.000Z</time>
      </trkpt>
      <trkpt lat="42.586096" lon="-0.421085">
        <ele>1446.0</ele>
        <time>2019-03-26T11:17:04.000Z</time>
      </trkpt>
      <trkpt lat="42.586061" lon="-0.421069">
        <ele>1446.0</ele>
        <time>2019-03-26T11:17:05.000Z</time>
      </trkpt>
      <trkpt lat="42.586026" lon="-0.421054">
        <ele>1446.0</ele>
        <time>2019-03-26T11:17:06.000Z</time>
      </trkpt>
      <trkpt lat="42.58599" lon="-0.42104">
        <ele>1446.0</ele>
        <time>2019-03-26T11:17:07.000Z</time>
      </trkpt>
      <trkpt lat="42.585954" lon="-0.421027">
        <ele>1446.0</ele>
        <time>2019-03-26T11:17:08.000Z</time>
      </trkpt>
      <trkpt lat="42.585916" lon="-0.421015">
        <ele>1445.0</ele>
        <time>2019-03-26T11:17:09.000Z</time>
      </trkpt>
      <trkpt lat="42.585878" lon="-0.421002">
        <ele>1445.0</ele>
        <time>2019-03-26T11:17:10.000Z</time>
      </trkpt>
      <trkpt lat="42.585839" lon="-0.420988">
        <ele>1445.0</ele>
        <time>2019-03-26T11:17:11.000Z</time>
      </trkpt>
      <trkpt lat="42.585799" lon="-0.420972">
        <ele>1445.0</ele>
        <time>2019-03-26T11:17:12.000Z</time>
      </trkpt>
      <trkpt lat="42.585758" lon="-0.420955">
        <ele>1444.0</ele>
        <time>2019-03-26T11:17:13.000Z</time>
      </trkpt>
      <trkpt lat="42.585716" lon="-0.420935">
        <ele>1444.0</ele>
        <time>2019-03-26T11:17:14.000Z</time>
      </trkpt>
      <trkpt lat="42.585673" lon="-0.420912">
        <ele>1443.0</ele>
        <time>2019-03-26T11:17:15.000Z</time>
      </trkpt>
      <trkpt lat="42.58563" lon="-0.420889">
        <ele>1443.0</ele>
        <time>2019-03-26T11:17:16.000Z</time>
      </trkpt>
      <trkpt lat="42.585586" lon="-0.420863">
        <ele>1443.0</ele>
        <time>2019-03-26T11:17:17.000Z</time>
      </trkpt>
      <trkpt lat="42.585542" lon="-0.420837">
        <ele>1443.0</ele>
        <time>2019-03-26T11:17:18.000Z</time>
      </trkpt>
      <trkpt lat="42.585498" lon="-0.420811">
        <ele>1443.0</ele>
        <time>2019-03-26T11:17:19.000Z</time>
      </trkpt>
      <trkpt lat="42.585454" lon="-0.420784">
        <ele>1442.0</ele>
        <time>2019-03-26T11:17:20.000Z</time>
      </trkpt>
      <trkpt lat="42.58541" lon="-0.420758">
        <ele>1442.0</ele>
        <time>2019-03-26T11:17:21.000Z</time>
      </trkpt>
      <trkpt lat="42.585367" lon="-0.420731">
        <ele>1442.0</ele>
        <time>2019-03-26T11:17:22.000Z</time>
      </trkpt>
      <trkpt lat="42.585323" lon="-0.420705">
        <ele>1442.0</ele>
        <time>2019-03-26T11:17:23.000Z</time>
      </trkpt>
      <trkpt lat="42.58528" lon="-0.420678">
        <ele>1442.0</ele>
        <time>2019-03-26T11:17:24.000Z</time>
      </trkpt>
      <trkpt lat="42.585236" lon="-0.420651">
        <ele>1441.0</ele>
        <time>2019-03-26T11:17:25.000Z</time>
      </trkpt>
      <trkpt lat="42.585192" lon="-0.420623">
        <ele>1441.0</ele>
        <time>2019-03-26T11:17:26.000Z</time>
      </trkpt>
      <trkpt lat="42.585148" lon="-0.420595">
        <ele>1440.0</ele>
        <time>2019-03-26T11:17:27.000Z</time>
      </trkpt>
      <trkpt lat="42.585103" lon="-0.420565">
        <ele>1440.0</ele>
        <time>2019-03-26T11:17:28.000Z</time>
      </trkpt>
      <trkpt lat="42.585058" lon="-0.420534">
        <ele>1440.0</ele>
        <time>2019-03-26T11:17:29.000Z</time>
      </trkpt>
      <trkpt lat="42.585013" lon="-0.420502">
        <ele>1440.0</ele>
        <time>2019-03-26T11:17:30.000Z</time>
      </trkpt>
      <trkpt lat="42.58497" lon="-0.420469">
        <ele>1439.0</ele>
        <time>2019-03-26T11:17:31.000Z</time>
      </trkpt>
      <trkpt lat="42.584931" lon="-0.420435">
        <ele>1439.0</ele>
        <time>2019-03-26T11:17:32.000Z</time>
      </trkpt>
      <trkpt lat="42.584895" lon="-0.420402">
        <ele>1439.0</ele>
        <time>2019-03-26T11:17:33.000Z</time>
      </trkpt>
      <trkpt lat="42.584863" lon="-0.420367">
        <ele>1439.0</ele>
        <time>2019-03-26T11:17:34.000Z</time>
      </trkpt>
      <trkpt lat="42.584833" lon="-0.420328">
        <ele>1439.0</ele>
        <time>2019-03-26T11:17:35.000Z</time>
      </trkpt>
      <trkpt lat="42.584806" lon="-0.420286">
        <ele>1438.0</ele>
        <time>2019-03-26T11:17:36.000Z</time>
      </trkpt>
      <trkpt lat="42.58478" lon="-0.420241">
        <ele>1438.0</ele>
        <time>2019-03-26T11:17:37.000Z</time>
      </trkpt>
      <trkpt lat="42.584757" lon="-0.420194">
        <ele>1438.0</ele>
        <time>2019-03-26T11:17:38.000Z</time>
      </trkpt>
      <trkpt lat="42.584735" lon="-0.420146">
        <ele>1438.0</ele>
        <time>2019-03-26T11:17:39.000Z</time>
      </trkpt>
      <trkpt lat="42.584716" lon="-0.420097">
        <ele>1437.0</ele>
        <time>2019-03-26T11:17:40.000Z</time>
      </trkpt>
      <trkpt lat="42.584699" lon="-0.420047">
        <ele>1437.0</ele>
        <time>2019-03-26T11:17:41.000Z</time>
      </trkpt>
      <trkpt lat="42.584683" lon="-0.419994">
        <ele>1437.0</ele>
        <time>2019-03-26T11:17:42.000Z</time>
      </trkpt>
      <trkpt lat="42.584668" lon="-0.419937">
        <ele>1436.0</ele>
        <time>2019-03-26T11:17:43.000Z</time>
      </trkpt>
      <trkpt lat="42.584655" lon="-0.419874">
        <ele>1436.0</ele>
        <time>2019-03-26T11:17:44.000Z</time>
      </trkpt>
      <trkpt lat="42.584646" lon="-0.419809">
        <ele>1436.0</ele>
        <time>2019-03-26T11:17:45.000Z</time>
      </trkpt>
      <trkpt lat="42.584646" lon="-0.419742">
        <ele>1435.0</ele>
        <time>2019-03-26T11:17:46.000Z</time>
      </trkpt>
      <trkpt lat="42.584652" lon="-0.419676">
        <ele>1435.0</ele>
        <time>2019-03-26T11:17:47.000Z</time>
      </trkpt>
      <trkpt lat="42.584666" lon="-0.41961">
        <ele>1434.0</ele>
        <time>2019-03-26T11:17:48.000Z</time>
      </trkpt>
      <trkpt lat="42.584683" lon="-0.419545">
        <ele>1434.0</ele>
        <time>2019-03-26T11:17:49.000Z</time>
      </trkpt>
      <trkpt lat="42.584703" lon="-0.419485">
        <ele>1434.0</ele>
        <time>2019-03-26T11:17:50.000Z</time>
      </trkpt>
      <trkpt lat="42.584723" lon="-0.41943">
        <ele>1433.0</ele>
        <time>2019-03-26T11:17:51.000Z</time>
      </trkpt>
      <trkpt lat="42.584744" lon="-0.419378">
        <ele>1433.0</ele>
        <time>2019-03-26T11:17:52.000Z</time>
      </trkpt>
      <trkpt lat="42.584768" lon="-0.41933">
        <ele>1433.0</ele>
        <time>2019-03-26T11:17:53.000Z</time>
      </trkpt>
      <trkpt lat="42.584795" lon="-0.419282">
        <ele>1432.0</ele>
        <time>2019-03-26T11:17:54.000Z</time>
      </trkpt>
      <trkpt lat="42.584827" lon="-0.419234">
        <ele>1432.0</ele>
        <time>2019-03-26T11:17:55.000Z</time>
      </trkpt>
      <trkpt lat="42.584862" lon="-0.419186">
        <ele>1432.0</ele>
        <time>2019-03-26T11:17:56.000Z</time>
      </trkpt>
      <trkpt lat="42.584901" lon="-0.41914">
        <ele>1431.0</ele>
        <time>2019-03-26T11:17:57.000Z</time>
      </trkpt>
      <trkpt lat="42.584941" lon="-0.419096">
        <ele>1430.0</ele>
        <time>2019-03-26T11:17:58.000Z</time>
      </trkpt>
      <trkpt lat="42.584981" lon="-0.419056">
        <ele>1430.0</ele>
        <time>2019-03-26T11:17:59.000Z</time>
      </trkpt>
      <trkpt lat="42.585022" lon="-0.419019">
        <ele>1430.0</ele>
        <time>2019-03-26T11:18:00.000Z</time>
      </trkpt>
      <trkpt lat="42.585063" lon="-0.418984">
        <ele>1429.0</ele>
        <time>2019-03-26T11:18:01.000Z</time>
      </trkpt>
      <trkpt lat="42.585105" lon="-0.418951">
        <ele>1429.0</ele>
        <time>2019-03-26T11:18:02.000Z</time>
      </trkpt>
      <trkpt lat="42.585145" lon="-0.418918">
        <ele>1428.0</ele>
        <time>2019-03-26T11:18:03.000Z</time>
      </trkpt>
      <trkpt lat="42.585186" lon="-0.418887">
        <ele>1428.0</ele>
        <time>2019-03-26T11:18:04.000Z</time>
      </trkpt>
      <trkpt lat="42.585225" lon="-0.418854">
        <ele>1428.0</ele>
        <time>2019-03-26T11:18:05.000Z</time>
      </trkpt>
      <trkpt lat="42.585264" lon="-0.418821">
        <ele>1428.0</ele>
        <time>2019-03-26T11:18:06.000Z</time>
      </trkpt>
      <trkpt lat="42.585302" lon="-0.418788">
        <ele>1427.0</ele>
        <time>2019-03-26T11:18:07.000Z</time>
      </trkpt>
      <trkpt lat="42.58534" lon="-0.418753">
        <ele>1427.0</ele>
        <time>2019-03-26T11:18:08.000Z</time>
      </trkpt>
      <trkpt lat="42.585377" lon="-0.418718">
        <ele>1426.0</ele>
        <time>2019-03-26T11:18:09.000Z</time>
      </trkpt>
      <trkpt lat="42.585414" lon="-0.418682">
        <ele>1426.0</ele>
        <time>2019-03-26T11:18:10.000Z</time>
      </trkpt>
      <trkpt lat="42.58545" lon="-0.418646">
        <ele>1426.0</ele>
        <time>2019-03-26T11:18:11.000Z</time>
      </trkpt>
      <trkpt lat="42.585487" lon="-0.41861">
        <ele>1425.0</ele>
        <time>2019-03-26T11:18:12.000Z</time>
      </trkpt>
      <trkpt lat="42.585523" lon="-0.418573">
        <ele>1425.0</ele>
        <time>2019-03-26T11:18:13.000Z</time>
      </trkpt>
      <trkpt lat="42.58556" lon="-0.418537">
        <ele>1425.0</ele>
        <time>2019-03-26T11:18:14.000Z</time>
      </trkpt>
      <trkpt lat="42.585596" lon="-0.4185">
        <ele>1425.0</ele>
        <time>2019-03-26T11:18:15.000Z</time>
      </trkpt>
      <trkpt lat="42.585634" lon="-0.418464">
        <ele>1425.0</ele>
        <time>2019-03-26T11:18:16.000Z</time>
      </trkpt>
      <trkpt lat="42.585672" lon="-0.418428">
        <ele>1424.0</ele>
        <time>2019-03-26T11:18:17.000Z</time>
      </trkpt>
      <trkpt lat="42.58571" lon="-0.418393">
        <ele>1424.0</ele>
        <time>2019-03-26T11:18:18.000Z</time>
      </trkpt>
      <trkpt lat="42.58575" lon="-0.418358">
        <ele>1423.0</ele>
        <time>2019-03-26T11:18:19.000Z</time>
      </trkpt>
      <trkpt lat="42.58579" lon="-0.418323">
        <ele>1423.0</ele>
        <time>2019-03-26T11:18:20.000Z</time>
      </trkpt>
      <trkpt lat="42.585832" lon="-0.41829">
        <ele>1423.0</ele>
        <time>2019-03-26T11:18:21.000Z</time>
      </trkpt>
      <trkpt lat="42.585873" lon="-0.41826">
        <ele>1423.0</ele>
        <time>2019-03-26T11:18:22.000Z</time>
      </trkpt>
      <trkpt lat="42.585915" lon="-0.418235">
        <ele>1422.0</ele>
        <time>2019-03-26T11:18:23.000Z</time>
      </trkpt>
      <trkpt lat="42.585955" lon="-0.418216">
        <ele>1422.0</ele>
        <time>2019-03-26T11:18:24.000Z</time>
      </trkpt>
      <trkpt lat="42.585993" lon="-0.418204">
        <ele>1422.0</ele>
        <time>2019-03-26T11:18:25.000Z</time>
      </trkpt>
      <trkpt lat="42.58603" lon="-0.418188">
        <ele>1421.0</ele>
        <time>2019-03-26T11:18:26.000Z</time>
      </trkpt>
      <trkpt lat="42.586062" lon="-0.418159">
        <ele>1421.0</ele>
        <time>2019-03-26T11:18:27.000Z</time>
      </trkpt>
      <trkpt lat="42.586081" lon="-0.418126">
        <ele>1421.0</ele>
        <time>2019-03-26T11:18:28.000Z</time>
      </trkpt>
      <trkpt lat="42.586078" lon="-0.4181">
        <ele>1421.0</ele>
        <time>2019-03-26T11:18:29.000Z</time>
      </trkpt>
      <trkpt lat="42.586055" lon="-0.418082">
        <ele>1421.0</ele>
        <time>2019-03-26T11:18:30.000Z</time>
      </trkpt>
      <trkpt lat="42.58602" lon="-0.418073">
        <ele>1420.0</ele>
        <time>2019-03-26T11:18:31.000Z</time>
      </trkpt>
      <trkpt lat="42.585979" lon="-0.418071">
        <ele>1420.0</ele>
        <time>2019-03-26T11:18:32.000Z</time>
      </trkpt>
      <trkpt lat="42.585937" lon="-0.418075">
        <ele>1420.0</ele>
        <time>2019-03-26T11:18:33.000Z</time>
      </trkpt>
      <trkpt lat="42.585895" lon="-0.418083">
        <ele>1419.0</ele>
        <time>2019-03-26T11:18:34.000Z</time>
      </trkpt>
      <trkpt lat="42.585854" lon="-0.418091">
        <ele>1419.0</ele>
        <time>2019-03-26T11:18:35.000Z</time>
      </trkpt>
      <trkpt lat="42.585813" lon="-0.418097">
        <ele>1418.0</ele>
        <time>2019-03-26T11:18:36.000Z</time>
      </trkpt>
      <trkpt lat="42.585773" lon="-0.418101">
        <ele>1418.0</ele>
        <time>2019-03-26T11:18:37.000Z</time>
      </trkpt>
      <trkpt lat="42.585732" lon="-0.418103">
        <ele>1419.0</ele>
        <time>2019-03-26T11:18:38.000Z</time>
      </trkpt>
      <trkpt lat="42.585692" lon="-0.418104">
        <ele>1418.0</ele>
        <time>2019-03-26T11:18:39.000Z</time>
      </trkpt>
      <trkpt lat="42.585651" lon="-0.418105">
        <ele>1418.0</ele>
        <time>2019-03-26T11:18:40.000Z</time>
      </trkpt>
      <trkpt lat="42.58561" lon="-0.418105">
        <ele>1418.0</ele>
        <time>2019-03-26T11:18:41.000Z</time>
      </trkpt>
      <trkpt lat="42.585569" lon="-0.418105">
        <ele>1418.0</ele>
        <time>2019-03-26T11:18:42.000Z</time>
      </trkpt>
      <trkpt lat="42.585527" lon="-0.418105">
        <ele>1418.0</ele>
        <time>2019-03-26T11:18:43.000Z</time>
      </trkpt>
      <trkpt lat="42.585484" lon="-0.418107">
        <ele>1417.0</ele>
        <time>2019-03-26T11:18:44.000Z</time>
      </trkpt>
      <trkpt lat="42.58544" lon="-0.41811">
        <ele>1417.0</ele>
        <time>2019-03-26T11:18:45.000Z</time>
      </trkpt>
      <trkpt lat="42.585396" lon="-0.418114">
        <ele>1417.0</ele>
        <time>2019-03-26T11:18:46.000Z</time>
      </trkpt>
      <trkpt lat="42.585351" lon="-0.418119">
        <ele>1416.0</ele>
        <time>2019-03-26T11:18:47.000Z</time>
      </trkpt>
      <trkpt lat="42.585306" lon="-0.418126">
        <ele>1416.0</ele>
        <time>2019-03-26T11:18:48.000Z</time>
      </trkpt>
      <trkpt lat="42.585261" lon="-0.418135">
        <ele>1416.0</ele>
        <time>2019-03-26T11:18:49.000Z</time>
      </trkpt>
      <trkpt lat="42.585215" lon="-0.418145">
        <ele>1416.0</ele>
        <time>2019-03-26T11:18:50.000Z</time>
      </trkpt>
      <trkpt lat="42.585168" lon="-0.418157">
        <ele>1415.0</ele>
        <time>2019-03-26T11:18:51.000Z</time>
      </trkpt>
      <trkpt lat="42.585122" lon="-0.418172">
        <ele>1415.0</ele>
        <time>2019-03-26T11:18:52.000Z</time>
      </trkpt>
      <trkpt lat="42.585077" lon="-0.418189">
        <ele>1415.0</ele>
        <time>2019-03-26T11:18:53.000Z</time>
      </trkpt>
      <trkpt lat="42.585032" lon="-0.41821">
        <ele>1415.0</ele>
        <time>2019-03-26T11:18:54.000Z</time>
      </trkpt>
      <trkpt lat="42.58499" lon="-0.418236">
        <ele>1415.0</ele>
        <time>2019-03-26T11:18:55.000Z</time>
      </trkpt>
      <trkpt lat="42.584949" lon="-0.418266">
        <ele>1414.0</ele>
        <time>2019-03-26T11:18:56.000Z</time>
      </trkpt>
      <trkpt lat="42.58491" lon="-0.418301">
        <ele>1414.0</ele>
        <time>2019-03-26T11:18:57.000Z</time>
      </trkpt>
      <trkpt lat="42.584874" lon="-0.418341">
        <ele>1413.0</ele>
        <time>2019-03-26T11:18:58.000Z</time>
      </trkpt>
      <trkpt lat="42.584837" lon="-0.418383">
        <ele>1413.0</ele>
        <time>2019-03-26T11:18:59.000Z</time>
      </trkpt>
      <trkpt lat="42.584798" lon="-0.418423">
        <ele>1413.0</ele>
        <time>2019-03-26T11:19:00.000Z</time>
      </trkpt>
      <trkpt lat="42.584763" lon="-0.418454">
        <ele>1412.0</ele>
        <time>2019-03-26T11:19:01.000Z</time>
      </trkpt>
      <trkpt lat="42.584741" lon="-0.418474">
        <ele>1412.0</ele>
        <time>2019-03-26T11:19:02.000Z</time>
      </trkpt>
      <trkpt lat="42.584731" lon="-0.418482">
        <ele>1412.0</ele>
        <time>2019-03-26T11:19:03.000Z</time>
      </trkpt>
      <trkpt lat="42.584731" lon="-0.418483">
        <ele>1412.0</ele>
        <time>2019-03-26T11:19:04.000Z</time>
      </trkpt>
      <trkpt lat="42.584732" lon="-0.418483">
        <ele>1411.0</ele>
        <time>2019-03-26T11:19:05.000Z</time>
      </trkpt>
      <trkpt lat="42.584732" lon="-0.418483">
        <ele>1411.0</ele>
        <time>2019-03-26T11:19:06.000Z</time>
      </trkpt>
      <trkpt lat="42.584731" lon="-0.418484">
        <ele>1411.0</ele>
        <time>2019-03-26T11:19:07.000Z</time>
      </trkpt>
      <trkpt lat="42.584731" lon="-0.418484">
        <ele>1411.0</ele>
        <time>2019-03-26T11:19:08.000Z</time>
      </trkpt>
      <trkpt lat="42.584732" lon="-0.418484">
        <ele>1411.0</ele>
        <time>2019-03-26T11:19:09.000Z</time>
      </trkpt>
      <trkpt lat="42.584733" lon="-0.418483">
        <ele>1411.0</ele>
        <time>2019-03-26T11:19:10.000Z</time>
      </trkpt>
      <trkpt lat="42.584733" lon="-0.418484">
        <ele>1411.0</ele>
        <time>2019-03-26T11:19:11.000Z</time>
      </trkpt>
      <trkpt lat="42.584732" lon="-0.418485">
        <ele>1411.0</ele>
        <time>2019-03-26T11:19:12.000Z</time>
      </trkpt>
      <trkpt lat="42.584729" lon="-0.418489">
        <ele>1411.0</ele>
        <time>2019-03-26T11:19:13.000Z</time>
      </trkpt>
      <trkpt lat="42.584724" lon="-0.418496">
        <ele>1411.0</ele>
        <time>2019-03-26T11:19:14.000Z</time>
      </trkpt>
      <trkpt lat="42.584714" lon="-0.41851">
        <ele>1411.0</ele>
        <time>2019-03-26T11:19:15.000Z</time>
      </trkpt>
      <trkpt lat="42.5847" lon="-0.418533">
        <ele>1411.0</ele>
        <time>2019-03-26T11:19:16.000Z</time>
      </trkpt>
      <trkpt lat="42.584681" lon="-0.418565">
        <ele>1411.0</ele>
        <time>2019-03-26T11:19:17.000Z</time>
      </trkpt>
      <trkpt lat="42.584658" lon="-0.418605">
        <ele>1411.0</ele>
        <time>2019-03-26T11:19:18.000Z</time>
      </trkpt>
      <trkpt lat="42.584632" lon="-0.418649">
        <ele>1411.0</ele>
        <time>2019-03-26T11:19:19.000Z</time>
      </trkpt>
      <trkpt lat="42.584606" lon="-0.418694">
        <ele>1411.0</ele>
        <time>2019-03-26T11:19:20.000Z</time>
      </trkpt>
      <trkpt lat="42.584578" lon="-0.418739">
        <ele>1411.0</ele>
        <time>2019-03-26T11:19:21.000Z</time>
      </trkpt>
      <trkpt lat="42.584547" lon="-0.418784">
        <ele>1410.0</ele>
        <time>2019-03-26T11:19:22.000Z</time>
      </trkpt>
      <trkpt lat="42.584514" lon="-0.418826">
        <ele>1410.0</ele>
        <time>2019-03-26T11:19:23.000Z</time>
      </trkpt>
      <trkpt lat="42.584476" lon="-0.418866">
        <ele>1409.0</ele>
        <time>2019-03-26T11:19:24.000Z</time>
      </trkpt>
      <trkpt lat="42.584435" lon="-0.418901">
        <ele>1409.0</ele>
        <time>2019-03-26T11:19:25.000Z</time>
      </trkpt>
      <trkpt lat="42.584391" lon="-0.418931">
        <ele>1408.0</ele>
        <time>2019-03-26T11:19:26.000Z</time>
      </trkpt>
      <trkpt lat="42.584345" lon="-0.418954">
        <ele>1408.0</ele>
        <time>2019-03-26T11:19:27.000Z</time>
      </trkpt>
      <trkpt lat="42.584299" lon="-0.418971">
        <ele>1408.0</ele>
        <time>2019-03-26T11:19:28.000Z</time>
      </trkpt>
      <trkpt lat="42.584253" lon="-0.418986">
        <ele>1408.0</ele>
        <time>2019-03-26T11:19:29.000Z</time>
      </trkpt>
      <trkpt lat="42.584212" lon="-0.419004">
        <ele>1408.0</ele>
        <time>2019-03-26T11:19:30.000Z</time>
      </trkpt>
      <trkpt lat="42.584176" lon="-0.419032">
        <ele>1407.0</ele>
        <time>2019-03-26T11:19:31.000Z</time>
      </trkpt>
      <trkpt lat="42.584149" lon="-0.419071">
        <ele>1407.0</ele>
        <time>2019-03-26T11:19:32.000Z</time>
      </trkpt>
      <trkpt lat="42.584125" lon="-0.419113">
        <ele>1407.0</ele>
        <time>2019-03-26T11:19:33.000Z</time>
      </trkpt>
      <trkpt lat="42.584103" lon="-0.419145">
        <ele>1406.0</ele>
        <time>2019-03-26T11:19:34.000Z</time>
      </trkpt>
      <trkpt lat="42.584078" lon="-0.419158">
        <ele>1406.0</ele>
        <time>2019-03-26T11:19:35.000Z</time>
      </trkpt>
      <trkpt lat="42.584054" lon="-0.419152">
        <ele>1406.0</ele>
        <time>2019-03-26T11:19:36.000Z</time>
      </trkpt>
      <trkpt lat="42.584035" lon="-0.419132">
        <ele>1406.0</ele>
        <time>2019-03-26T11:19:37.000Z</time>
      </trkpt>
      <trkpt lat="42.584025" lon="-0.419102">
        <ele>1405.0</ele>
        <time>2019-03-26T11:19:38.000Z</time>
      </trkpt>
      <trkpt lat="42.584028" lon="-0.419064">
        <ele>1406.0</ele>
        <time>2019-03-26T11:19:39.000Z</time>
      </trkpt>
      <trkpt lat="42.584041" lon="-0.41902">
        <ele>1405.0</ele>
        <time>2019-03-26T11:19:40.000Z</time>
      </trkpt>
      <trkpt lat="42.584061" lon="-0.418971">
        <ele>1405.0</ele>
        <time>2019-03-26T11:19:41.000Z</time>
      </trkpt>
      <trkpt lat="42.584084" lon="-0.418918">
        <ele>1405.0</ele>
        <time>2019-03-26T11:19:42.000Z</time>
      </trkpt>
      <trkpt lat="42.584109" lon="-0.418862">
        <ele>1405.0</ele>
        <time>2019-03-26T11:19:43.000Z</time>
      </trkpt>
      <trkpt lat="42.584135" lon="-0.418804">
        <ele>1405.0</ele>
        <time>2019-03-26T11:19:44.000Z</time>
      </trkpt>
      <trkpt lat="42.584162" lon="-0.418745">
        <ele>1404.0</ele>
        <time>2019-03-26T11:19:45.000Z</time>
      </trkpt>
      <trkpt lat="42.584191" lon="-0.418686">
        <ele>1404.0</ele>
        <time>2019-03-26T11:19:46.000Z</time>
      </trkpt>
      <trkpt lat="42.584223" lon="-0.418629">
        <ele>1403.0</ele>
        <time>2019-03-26T11:19:47.000Z</time>
      </trkpt>
      <trkpt lat="42.584258" lon="-0.418574">
        <ele>1403.0</ele>
        <time>2019-03-26T11:19:48.000Z</time>
      </trkpt>
      <trkpt lat="42.584296" lon="-0.418523">
        <ele>1403.0</ele>
        <time>2019-03-26T11:19:49.000Z</time>
      </trkpt>
      <trkpt lat="42.584339" lon="-0.418476">
        <ele>1402.0</ele>
        <time>2019-03-26T11:19:50.000Z</time>
      </trkpt>
      <trkpt lat="42.584383" lon="-0.418434">
        <ele>1402.0</ele>
        <time>2019-03-26T11:19:51.000Z</time>
      </trkpt>
      <trkpt lat="42.584425" lon="-0.418394">
        <ele>1401.0</ele>
        <time>2019-03-26T11:19:52.000Z</time>
      </trkpt>
      <trkpt lat="42.584463" lon="-0.418355">
        <ele>1401.0</ele>
        <time>2019-03-26T11:19:53.000Z</time>
      </trkpt>
      <trkpt lat="42.584494" lon="-0.418315">
        <ele>1401.0</ele>
        <time>2019-03-26T11:19:54.000Z</time>
      </trkpt>
      <trkpt lat="42.584516" lon="-0.418267">
        <ele>1400.0</ele>
        <time>2019-03-26T11:19:55.000Z</time>
      </trkpt>
      <trkpt lat="42.584527" lon="-0.418206">
        <ele>1400.0</ele>
        <time>2019-03-26T11:19:56.000Z</time>
      </trkpt>
      <trkpt lat="42.584527" lon="-0.418146">
        <ele>1400.0</ele>
        <time>2019-03-26T11:19:57.000Z</time>
      </trkpt>
      <trkpt lat="42.584529" lon="-0.418095">
        <ele>1399.0</ele>
        <time>2019-03-26T11:19:58.000Z</time>
      </trkpt>
      <trkpt lat="42.584545" lon="-0.418056">
        <ele>1399.0</ele>
        <time>2019-03-26T11:19:59.000Z</time>
      </trkpt>
      <trkpt lat="42.584567" lon="-0.418022">
        <ele>1398.0</ele>
        <time>2019-03-26T11:20:00.000Z</time>
      </trkpt>
      <trkpt lat="42.584587" lon="-0.417987">
        <ele>1398.0</ele>
        <time>2019-03-26T11:20:01.000Z</time>
      </trkpt>
      <trkpt lat="42.584605" lon="-0.417952">
        <ele>1398.0</ele>
        <time>2019-03-26T11:20:02.000Z</time>
      </trkpt>
      <trkpt lat="42.58463" lon="-0.417921">
        <ele>1398.0</ele>
        <time>2019-03-26T11:20:03.000Z</time>
      </trkpt>
      <trkpt lat="42.584666" lon="-0.417897">
        <ele>1398.0</ele>
        <time>2019-03-26T11:20:04.000Z</time>
      </trkpt>
      <trkpt lat="42.584708" lon="-0.417874">
        <ele>1398.0</ele>
        <time>2019-03-26T11:20:05.000Z</time>
      </trkpt>
      <trkpt lat="42.584751" lon="-0.417845">
        <ele>1398.0</ele>
        <time>2019-03-26T11:20:06.000Z</time>
      </trkpt>
      <trkpt lat="42.584787" lon="-0.417804">
        <ele>1398.0</ele>
        <time>2019-03-26T11:20:07.000Z</time>
      </trkpt>
      <trkpt lat="42.584813" lon="-0.417747">
        <ele>1397.0</ele>
        <time>2019-03-26T11:20:08.000Z</time>
      </trkpt>
      <trkpt lat="42.584831" lon="-0.417678">
        <ele>1397.0</ele>
        <time>2019-03-26T11:20:09.000Z</time>
      </trkpt>
      <trkpt lat="42.584847" lon="-0.417608">
        <ele>1397.0</ele>
        <time>2019-03-26T11:20:10.000Z</time>
      </trkpt>
      <trkpt lat="42.584865" lon="-0.417544">
        <ele>1396.0</ele>
        <time>2019-03-26T11:20:11.000Z</time>
      </trkpt>
      <trkpt lat="42.58489" lon="-0.417494">
        <ele>1396.0</ele>
        <time>2019-03-26T11:20:12.000Z</time>
      </trkpt>
      <trkpt lat="42.584924" lon="-0.417456">
        <ele>1395.0</ele>
        <time>2019-03-26T11:20:13.000Z</time>
      </trkpt>
      <trkpt lat="42.584968" lon="-0.417426">
        <ele>1395.0</ele>
        <time>2019-03-26T11:20:14.000Z</time>
      </trkpt>
      <trkpt lat="42.585009" lon="-0.417394">
        <ele>1395.0</ele>
        <time>2019-03-26T11:20:15.000Z</time>
      </trkpt>
      <trkpt lat="42.585036" lon="-0.417352">
        <ele>1394.0</ele>
        <time>2019-03-26T11:20:16.000Z</time>
      </trkpt>
      <trkpt lat="42.585046" lon="-0.417305">
        <ele>1394.0</ele>
        <time>2019-03-26T11:20:17.000Z</time>
      </trkpt>
      <trkpt lat="42.585035" lon="-0.417263">
        <ele>1394.0</ele>
        <time>2019-03-26T11:20:18.000Z</time>
      </trkpt>
      <trkpt lat="42.585006" lon="-0.417234">
        <ele>1393.0</ele>
        <time>2019-03-26T11:20:19.000Z</time>
      </trkpt>
      <trkpt lat="42.584968" lon="-0.417223">
        <ele>1393.0</ele>
        <time>2019-03-26T11:20:20.000Z</time>
      </trkpt>
      <trkpt lat="42.584931" lon="-0.417231">
        <ele>1393.0</ele>
        <time>2019-03-26T11:20:21.000Z</time>
      </trkpt>
      <trkpt lat="42.584895" lon="-0.417252">
        <ele>1392.0</ele>
        <time>2019-03-26T11:20:22.000Z</time>
      </trkpt>
      <trkpt lat="42.584859" lon="-0.417275">
        <ele>1392.0</ele>
        <time>2019-03-26T11:20:23.000Z</time>
      </trkpt>
      <trkpt lat="42.584821" lon="-0.4173">
        <ele>1392.0</ele>
        <time>2019-03-26T11:20:24.000Z</time>
      </trkpt>
      <trkpt lat="42.584782" lon="-0.417327">
        <ele>1392.0</ele>
        <time>2019-03-26T11:20:25.000Z</time>
      </trkpt>
      <trkpt lat="42.58474" lon="-0.417355">
        <ele>1391.0</ele>
        <time>2019-03-26T11:20:26.000Z</time>
      </trkpt>
      <trkpt lat="42.584695" lon="-0.417385">
        <ele>1391.0</ele>
        <time>2019-03-26T11:20:27.000Z</time>
      </trkpt>
      <trkpt lat="42.584647" lon="-0.417416">
        <ele>1391.0</ele>
        <time>2019-03-26T11:20:28.000Z</time>
      </trkpt>
      <trkpt lat="42.584598" lon="-0.417448">
        <ele>1390.0</ele>
        <time>2019-03-26T11:20:29.000Z</time>
      </trkpt>
      <trkpt lat="42.584548" lon="-0.41748">
        <ele>1389.0</ele>
        <time>2019-03-26T11:20:30.000Z</time>
      </trkpt>
      <trkpt lat="42.584499" lon="-0.417513">
        <ele>1389.0</ele>
        <time>2019-03-26T11:20:31.000Z</time>
      </trkpt>
      <trkpt lat="42.584451" lon="-0.417547">
        <ele>1389.0</ele>
        <time>2019-03-26T11:20:32.000Z</time>
      </trkpt>
      <trkpt lat="42.584405" lon="-0.417579">
        <ele>1389.0</ele>
        <time>2019-03-26T11:20:33.000Z</time>
      </trkpt>
      <trkpt lat="42.584363" lon="-0.417612">
        <ele>1388.0</ele>
        <time>2019-03-26T11:20:34.000Z</time>
      </trkpt>
      <trkpt lat="42.584323" lon="-0.417643">
        <ele>1388.0</ele>
        <time>2019-03-26T11:20:35.000Z</time>
      </trkpt>
      <trkpt lat="42.584284" lon="-0.417673">
        <ele>1387.0</ele>
        <time>2019-03-26T11:20:36.000Z</time>
      </trkpt>
      <trkpt lat="42.584247" lon="-0.417702">
        <ele>1387.0</ele>
        <time>2019-03-26T11:20:37.000Z</time>
      </trkpt>
      <trkpt lat="42.584211" lon="-0.417728">
        <ele>1387.0</ele>
        <time>2019-03-26T11:20:38.000Z</time>
      </trkpt>
      <trkpt lat="42.584174" lon="-0.417753">
        <ele>1386.0</ele>
        <time>2019-03-26T11:20:39.000Z</time>
      </trkpt>
      <trkpt lat="42.584136" lon="-0.417774">
        <ele>1386.0</ele>
        <time>2019-03-26T11:20:40.000Z</time>
      </trkpt>
      <trkpt lat="42.584097" lon="-0.417793">
        <ele>1385.0</ele>
        <time>2019-03-26T11:20:41.000Z</time>
      </trkpt>
      <trkpt lat="42.584055" lon="-0.417808">
        <ele>1385.0</ele>
        <time>2019-03-26T11:20:42.000Z</time>
      </trkpt>
      <trkpt lat="42.584012" lon="-0.417822">
        <ele>1385.0</ele>
        <time>2019-03-26T11:20:43.000Z</time>
      </trkpt>
      <trkpt lat="42.583967" lon="-0.417835">
        <ele>1386.0</ele>
        <time>2019-03-26T11:20:44.000Z</time>
      </trkpt>
      <trkpt lat="42.583921" lon="-0.417848">
        <ele>1385.0</ele>
        <time>2019-03-26T11:20:45.000Z</time>
      </trkpt>
      <trkpt lat="42.583874" lon="-0.417862">
        <ele>1385.0</ele>
        <time>2019-03-26T11:20:46.000Z</time>
      </trkpt>
      <trkpt lat="42.583827" lon="-0.417877">
        <ele>1385.0</ele>
        <time>2019-03-26T11:20:47.000Z</time>
      </trkpt>
      <trkpt lat="42.583782" lon="-0.417889">
        <ele>1384.0</ele>
        <time>2019-03-26T11:20:48.000Z</time>
      </trkpt>
      <trkpt lat="42.583741" lon="-0.417898">
        <ele>1384.0</ele>
        <time>2019-03-26T11:20:49.000Z</time>
      </trkpt>
      <trkpt lat="42.583699" lon="-0.417899">
        <ele>1384.0</ele>
        <time>2019-03-26T11:20:50.000Z</time>
      </trkpt>
      <trkpt lat="42.583655" lon="-0.417892">
        <ele>1383.0</ele>
        <time>2019-03-26T11:20:51.000Z</time>
      </trkpt>
      <trkpt lat="42.583611" lon="-0.417878">
        <ele>1383.0</ele>
        <time>2019-03-26T11:20:52.000Z</time>
      </trkpt>
      <trkpt lat="42.583566" lon="-0.417859">
        <ele>1383.0</ele>
        <time>2019-03-26T11:20:53.000Z</time>
      </trkpt>
      <trkpt lat="42.583521" lon="-0.417843">
        <ele>1382.0</ele>
        <time>2019-03-26T11:20:54.000Z</time>
      </trkpt>
      <trkpt lat="42.583474" lon="-0.417833">
        <ele>1382.0</ele>
        <time>2019-03-26T11:20:55.000Z</time>
      </trkpt>
      <trkpt lat="42.583428" lon="-0.41782">
        <ele>1382.0</ele>
        <time>2019-03-26T11:20:56.000Z</time>
      </trkpt>
      <trkpt lat="42.583382" lon="-0.417804">
        <ele>1382.0</ele>
        <time>2019-03-26T11:20:57.000Z</time>
      </trkpt>
      <trkpt lat="42.583336" lon="-0.417787">
        <ele>1381.0</ele>
        <time>2019-03-26T11:20:58.000Z</time>
      </trkpt>
      <trkpt lat="42.583291" lon="-0.417771">
        <ele>1381.0</ele>
        <time>2019-03-26T11:20:59.000Z</time>
      </trkpt>
      <trkpt lat="42.583248" lon="-0.417759">
        <ele>1381.0</ele>
        <time>2019-03-26T11:21:00.000Z</time>
      </trkpt>
      <trkpt lat="42.583205" lon="-0.417755">
        <ele>1380.0</ele>
        <time>2019-03-26T11:21:01.000Z</time>
      </trkpt>
      <trkpt lat="42.583164" lon="-0.417759">
        <ele>1380.0</ele>
        <time>2019-03-26T11:21:02.000Z</time>
      </trkpt>
      <trkpt lat="42.583125" lon="-0.417775">
        <ele>1379.0</ele>
        <time>2019-03-26T11:21:03.000Z</time>
      </trkpt>
      <trkpt lat="42.583088" lon="-0.417799">
        <ele>1379.0</ele>
        <time>2019-03-26T11:21:04.000Z</time>
      </trkpt>
      <trkpt lat="42.583054" lon="-0.41783">
        <ele>1379.0</ele>
        <time>2019-03-26T11:21:05.000Z</time>
      </trkpt>
      <trkpt lat="42.583023" lon="-0.417865">
        <ele>1378.0</ele>
        <time>2019-03-26T11:21:06.000Z</time>
      </trkpt>
      <trkpt lat="42.582995" lon="-0.4179">
        <ele>1378.0</ele>
        <time>2019-03-26T11:21:07.000Z</time>
      </trkpt>
      <trkpt lat="42.58297" lon="-0.417936">
        <ele>1378.0</ele>
        <time>2019-03-26T11:21:08.000Z</time>
      </trkpt>
      <trkpt lat="42.582945" lon="-0.417974">
        <ele>1377.0</ele>
        <time>2019-03-26T11:21:09.000Z</time>
      </trkpt>
      <trkpt lat="42.582919" lon="-0.418012">
        <ele>1377.0</ele>
        <time>2019-03-26T11:21:10.000Z</time>
      </trkpt>
      <trkpt lat="42.582892" lon="-0.418051">
        <ele>1377.0</ele>
        <time>2019-03-26T11:21:11.000Z</time>
      </trkpt>
      <trkpt lat="42.582862" lon="-0.418086">
        <ele>1377.0</ele>
        <time>2019-03-26T11:21:12.000Z</time>
      </trkpt>
      <trkpt lat="42.582831" lon="-0.418112">
        <ele>1376.0</ele>
        <time>2019-03-26T11:21:13.000Z</time>
      </trkpt>
      <trkpt lat="42.582798" lon="-0.418124">
        <ele>1376.0</ele>
        <time>2019-03-26T11:21:14.000Z</time>
      </trkpt>
      <trkpt lat="42.582763" lon="-0.418117">
        <ele>1376.0</ele>
        <time>2019-03-26T11:21:15.000Z</time>
      </trkpt>
      <trkpt lat="42.582727" lon="-0.418097">
        <ele>1376.0</ele>
        <time>2019-03-26T11:21:16.000Z</time>
      </trkpt>
      <trkpt lat="42.58269" lon="-0.418069">
        <ele>1376.0</ele>
        <time>2019-03-26T11:21:17.000Z</time>
      </trkpt>
      <trkpt lat="42.582651" lon="-0.418037">
        <ele>1375.0</ele>
        <time>2019-03-26T11:21:18.000Z</time>
      </trkpt>
      <trkpt lat="42.582613" lon="-0.418003">
        <ele>1375.0</ele>
        <time>2019-03-26T11:21:19.000Z</time>
      </trkpt>
      <trkpt lat="42.582574" lon="-0.417968">
        <ele>1375.0</ele>
        <time>2019-03-26T11:21:20.000Z</time>
      </trkpt>
      <trkpt lat="42.582535" lon="-0.417931">
        <ele>1375.0</ele>
        <time>2019-03-26T11:21:21.000Z</time>
      </trkpt>
      <trkpt lat="42.582497" lon="-0.417894">
        <ele>1374.0</ele>
        <time>2019-03-26T11:21:22.000Z</time>
      </trkpt>
      <trkpt lat="42.58246" lon="-0.417855">
        <ele>1374.0</ele>
        <time>2019-03-26T11:21:23.000Z</time>
      </trkpt>
      <trkpt lat="42.582425" lon="-0.417816">
        <ele>1374.0</ele>
        <time>2019-03-26T11:21:24.000Z</time>
      </trkpt>
      <trkpt lat="42.58239" lon="-0.417777">
        <ele>1374.0</ele>
        <time>2019-03-26T11:21:25.000Z</time>
      </trkpt>
      <trkpt lat="42.582358" lon="-0.417739">
        <ele>1374.0</ele>
        <time>2019-03-26T11:21:26.000Z</time>
      </trkpt>
      <trkpt lat="42.582329" lon="-0.417702">
        <ele>1373.0</ele>
        <time>2019-03-26T11:21:27.000Z</time>
      </trkpt>
      <trkpt lat="42.582301" lon="-0.417667">
        <ele>1373.0</ele>
        <time>2019-03-26T11:21:28.000Z</time>
      </trkpt>
      <trkpt lat="42.582277" lon="-0.417635">
        <ele>1373.0</ele>
        <time>2019-03-26T11:21:29.000Z</time>
      </trkpt>
      <trkpt lat="42.582255" lon="-0.417608">
        <ele>1373.0</ele>
        <time>2019-03-26T11:21:30.000Z</time>
      </trkpt>
      <trkpt lat="42.582237" lon="-0.417587">
        <ele>1374.0</ele>
        <time>2019-03-26T11:21:31.000Z</time>
      </trkpt>
      <trkpt lat="42.582223" lon="-0.417571">
        <ele>1374.0</ele>
        <time>2019-03-26T11:21:32.000Z</time>
      </trkpt>
      <trkpt lat="42.582213" lon="-0.417563">
        <ele>1373.0</ele>
        <time>2019-03-26T11:21:33.000Z</time>
      </trkpt>
      <trkpt lat="42.582208" lon="-0.417561">
        <ele>1374.0</ele>
        <time>2019-03-26T11:21:34.000Z</time>
      </trkpt>
      <trkpt lat="42.582207" lon="-0.417561">
        <ele>1374.0</ele>
        <time>2019-03-26T11:22:16.000Z</time>
      </trkpt>
      <trkpt lat="42.58221" lon="-0.417561">
        <ele>1374.0</ele>
        <time>2019-03-26T11:22:17.000Z</time>
      </trkpt>
      <trkpt lat="42.582212" lon="-0.417562">
        <ele>1374.0</ele>
        <time>2019-03-26T11:22:18.000Z</time>
      </trkpt>
      <trkpt lat="42.582215" lon="-0.417564">
        <ele>1374.0</ele>
        <time>2019-03-26T11:22:19.000Z</time>
      </trkpt>
      <trkpt lat="42.58222" lon="-0.417567">
        <ele>1374.0</ele>
        <time>2019-03-26T11:22:20.000Z</time>
      </trkpt>
      <trkpt lat="42.582227" lon="-0.417575">
        <ele>1374.0</ele>
        <time>2019-03-26T11:22:21.000Z</time>
      </trkpt>
      <trkpt lat="42.582237" lon="-0.417587">
        <ele>1374.0</ele>
        <time>2019-03-26T11:22:22.000Z</time>
      </trkpt>
      <trkpt lat="42.582251" lon="-0.417605">
        <ele>1373.0</ele>
        <time>2019-03-26T11:22:23.000Z</time>
      </trkpt>
      <trkpt lat="42.582267" lon="-0.417625">
        <ele>1374.0</ele>
        <time>2019-03-26T11:22:24.000Z</time>
      </trkpt>
      <trkpt lat="42.582287" lon="-0.417649">
        <ele>1374.0</ele>
        <time>2019-03-26T11:22:25.000Z</time>
      </trkpt>
      <trkpt lat="42.582309" lon="-0.417674">
        <ele>1373.0</ele>
        <time>2019-03-26T11:22:26.000Z</time>
      </trkpt>
      <trkpt lat="42.582333" lon="-0.4177">
        <ele>1374.0</ele>
        <time>2019-03-26T11:22:27.000Z</time>
      </trkpt>
      <trkpt lat="42.58236" lon="-0.417726">
        <ele>1374.0</ele>
        <time>2019-03-26T11:22:28.000Z</time>
      </trkpt>
      <trkpt lat="42.582389" lon="-0.41775">
        <ele>1374.0</ele>
        <time>2019-03-26T11:22:29.000Z</time>
      </trkpt>
      <trkpt lat="42.582418" lon="-0.417771">
        <ele>1374.0</ele>
        <time>2019-03-26T11:22:30.000Z</time>
      </trkpt>
      <trkpt lat="42.582445" lon="-0.417785">
        <ele>1373.0</ele>
        <time>2019-03-26T11:22:31.000Z</time>
      </trkpt>
      <trkpt lat="42.582468" lon="-0.417789">
        <ele>1373.0</ele>
        <time>2019-03-26T11:22:32.000Z</time>
      </trkpt>
      <trkpt lat="42.582486" lon="-0.417782">
        <ele>1373.0</ele>
        <time>2019-03-26T11:22:33.000Z</time>
      </trkpt>
      <trkpt lat="42.582498" lon="-0.417766">
        <ele>1373.0</ele>
        <time>2019-03-26T11:22:34.000Z</time>
      </trkpt>
      <trkpt lat="42.582507" lon="-0.417748">
        <ele>1373.0</ele>
        <time>2019-03-26T11:22:35.000Z</time>
      </trkpt>
      <trkpt lat="42.582512" lon="-0.417731">
        <ele>1373.0</ele>
        <time>2019-03-26T11:22:36.000Z</time>
      </trkpt>
      <trkpt lat="42.582513" lon="-0.417719">
        <ele>1373.0</ele>
        <time>2019-03-26T11:22:37.000Z</time>
      </trkpt>
      <trkpt lat="42.582513" lon="-0.417713">
        <ele>1373.0</ele>
        <time>2019-03-26T11:22:38.000Z</time>
      </trkpt>
      <trkpt lat="42.58251" lon="-0.41771">
        <ele>1373.0</ele>
        <time>2019-03-26T11:22:39.000Z</time>
      </trkpt>
      <trkpt lat="42.582507" lon="-0.41771">
        <ele>1373.0</ele>
        <time>2019-03-26T11:22:40.000Z</time>
      </trkpt>
      <trkpt lat="42.582503" lon="-0.417711">
        <ele>1372.0</ele>
        <time>2019-03-26T11:22:41.000Z</time>
      </trkpt>
      <trkpt lat="42.582497" lon="-0.417709">
        <ele>1372.0</ele>
        <time>2019-03-26T11:22:42.000Z</time>
      </trkpt>
      <trkpt lat="42.582486" lon="-0.4177">
        <ele>1372.0</ele>
        <time>2019-03-26T11:22:43.000Z</time>
      </trkpt>
      <trkpt lat="42.582471" lon="-0.41768">
        <ele>1372.0</ele>
        <time>2019-03-26T11:22:44.000Z</time>
      </trkpt>
      <trkpt lat="42.582451" lon="-0.41765">
        <ele>1372.0</ele>
        <time>2019-03-26T11:22:45.000Z</time>
      </trkpt>
      <trkpt lat="42.582428" lon="-0.417613">
        <ele>1372.0</ele>
        <time>2019-03-26T11:22:46.000Z</time>
      </trkpt>
      <trkpt lat="42.582405" lon="-0.417571">
        <ele>1372.0</ele>
        <time>2019-03-26T11:22:47.000Z</time>
      </trkpt>
      <trkpt lat="42.582382" lon="-0.417526">
        <ele>1371.0</ele>
        <time>2019-03-26T11:22:48.000Z</time>
      </trkpt>
      <trkpt lat="42.58236" lon="-0.41748">
        <ele>1371.0</ele>
        <time>2019-03-26T11:22:49.000Z</time>
      </trkpt>
      <trkpt lat="42.582339" lon="-0.417435">
        <ele>1371.0</ele>
        <time>2019-03-26T11:22:50.000Z</time>
      </trkpt>
      <trkpt lat="42.582319" lon="-0.417393">
        <ele>1371.0</ele>
        <time>2019-03-26T11:22:51.000Z</time>
      </trkpt>
      <trkpt lat="42.5823" lon="-0.417356">
        <ele>1371.0</ele>
        <time>2019-03-26T11:22:52.000Z</time>
      </trkpt>
      <trkpt lat="42.582281" lon="-0.417323">
        <ele>1371.0</ele>
        <time>2019-03-26T11:22:53.000Z</time>
      </trkpt>
      <trkpt lat="42.582263" lon="-0.41729">
        <ele>1371.0</ele>
        <time>2019-03-26T11:22:54.000Z</time>
      </trkpt>
      <trkpt lat="42.582244" lon="-0.417257">
        <ele>1371.0</ele>
        <time>2019-03-26T11:22:55.000Z</time>
      </trkpt>
      <trkpt lat="42.582223" lon="-0.41722">
        <ele>1370.0</ele>
        <time>2019-03-26T11:22:56.000Z</time>
      </trkpt>
      <trkpt lat="42.582202" lon="-0.417182">
        <ele>1370.0</ele>
        <time>2019-03-26T11:22:57.000Z</time>
      </trkpt>
      <trkpt lat="42.582179" lon="-0.417141">
        <ele>1369.0</ele>
        <time>2019-03-26T11:22:58.000Z</time>
      </trkpt>
      <trkpt lat="42.582154" lon="-0.4171">
        <ele>1369.0</ele>
        <time>2019-03-26T11:22:59.000Z</time>
      </trkpt>
      <trkpt lat="42.582129" lon="-0.417058">
        <ele>1369.0</ele>
        <time>2019-03-26T11:23:00.000Z</time>
      </trkpt>
      <trkpt lat="42.582103" lon="-0.417014">
        <ele>1369.0</ele>
        <time>2019-03-26T11:23:01.000Z</time>
      </trkpt>
      <trkpt lat="42.582077" lon="-0.416971">
        <ele>1369.0</ele>
        <time>2019-03-26T11:23:02.000Z</time>
      </trkpt>
      <trkpt lat="42.58205" lon="-0.416927">
        <ele>1368.0</ele>
        <time>2019-03-26T11:23:03.000Z</time>
      </trkpt>
      <trkpt lat="42.582024" lon="-0.416883">
        <ele>1368.0</ele>
        <time>2019-03-26T11:23:04.000Z</time>
      </trkpt>
      <trkpt lat="42.581997" lon="-0.416839">
        <ele>1367.0</ele>
        <time>2019-03-26T11:23:05.000Z</time>
      </trkpt>
      <trkpt lat="42.581972" lon="-0.416795">
        <ele>1367.0</ele>
        <time>2019-03-26T11:23:06.000Z</time>
      </trkpt>
      <trkpt lat="42.581947" lon="-0.416752">
        <ele>1367.0</ele>
        <time>2019-03-26T11:23:07.000Z</time>
      </trkpt>
      <trkpt lat="42.581922" lon="-0.416709">
        <ele>1366.0</ele>
        <time>2019-03-26T11:23:08.000Z</time>
      </trkpt>
      <trkpt lat="42.581897" lon="-0.416668">
        <ele>1366.0</ele>
        <time>2019-03-26T11:23:09.000Z</time>
      </trkpt>
      <trkpt lat="42.581873" lon="-0.416628">
        <ele>1366.0</ele>
        <time>2019-03-26T11:23:10.000Z</time>
      </trkpt>
      <trkpt lat="42.581848" lon="-0.41659">
        <ele>1365.0</ele>
        <time>2019-03-26T11:23:11.000Z</time>
      </trkpt>
      <trkpt lat="42.581822" lon="-0.416554">
        <ele>1365.0</ele>
        <time>2019-03-26T11:23:12.000Z</time>
      </trkpt>
      <trkpt lat="42.581795" lon="-0.416521">
        <ele>1365.0</ele>
        <time>2019-03-26T11:23:13.000Z</time>
      </trkpt>
      <trkpt lat="42.581766" lon="-0.41649">
        <ele>1364.0</ele>
        <time>2019-03-26T11:23:14.000Z</time>
      </trkpt>
      <trkpt lat="42.581737" lon="-0.416461">
        <ele>1364.0</ele>
        <time>2019-03-26T11:23:15.000Z</time>
      </trkpt>
      <trkpt lat="42.581709" lon="-0.416433">
        <ele>1364.0</ele>
        <time>2019-03-26T11:23:16.000Z</time>
      </trkpt>
      <trkpt lat="42.581682" lon="-0.416404">
        <ele>1364.0</ele>
        <time>2019-03-26T11:23:17.000Z</time>
      </trkpt>
      <trkpt lat="42.581657" lon="-0.416375">
        <ele>1364.0</ele>
        <time>2019-03-26T11:23:18.000Z</time>
      </trkpt>
      <trkpt lat="42.581634" lon="-0.416344">
        <ele>1364.0</ele>
        <time>2019-03-26T11:23:19.000Z</time>
      </trkpt>
      <trkpt lat="42.581611" lon="-0.416312">
        <ele>1363.0</ele>
        <time>2019-03-26T11:23:20.000Z</time>
      </trkpt>
      <trkpt lat="42.581587" lon="-0.416276">
        <ele>1363.0</ele>
        <time>2019-03-26T11:23:21.000Z</time>
      </trkpt>
      <trkpt lat="42.581562" lon="-0.416238">
        <ele>1363.0</ele>
        <time>2019-03-26T11:23:22.000Z</time>
      </trkpt>
      <trkpt lat="42.581535" lon="-0.416198">
        <ele>1363.0</ele>
        <time>2019-03-26T11:23:23.000Z</time>
      </trkpt>
      <trkpt lat="42.581508" lon="-0.416156">
        <ele>1363.0</ele>
        <time>2019-03-26T11:23:24.000Z</time>
      </trkpt>
      <trkpt lat="42.581481" lon="-0.416114">
        <ele>1363.0</ele>
        <time>2019-03-26T11:23:25.000Z</time>
      </trkpt>
      <trkpt lat="42.581455" lon="-0.416072">
        <ele>1362.0</ele>
        <time>2019-03-26T11:23:26.000Z</time>
      </trkpt>
      <trkpt lat="42.581428" lon="-0.416031">
        <ele>1362.0</ele>
        <time>2019-03-26T11:23:27.000Z</time>
      </trkpt>
      <trkpt lat="42.581401" lon="-0.415993">
        <ele>1362.0</ele>
        <time>2019-03-26T11:23:28.000Z</time>
      </trkpt>
      <trkpt lat="42.581371" lon="-0.415958">
        <ele>1362.0</ele>
        <time>2019-03-26T11:23:29.000Z</time>
      </trkpt>
      <trkpt lat="42.58134" lon="-0.415924">
        <ele>1362.0</ele>
        <time>2019-03-26T11:23:30.000Z</time>
      </trkpt>
      <trkpt lat="42.581306" lon="-0.415892">
        <ele>1361.0</ele>
        <time>2019-03-26T11:23:31.000Z</time>
      </trkpt>
      <trkpt lat="42.58127" lon="-0.415859">
        <ele>1361.0</ele>
        <time>2019-03-26T11:23:32.000Z</time>
      </trkpt>
      <trkpt lat="42.58123" lon="-0.415825">
        <ele>1360.0</ele>
        <time>2019-03-26T11:23:33.000Z</time>
      </trkpt>
      <trkpt lat="42.581191" lon="-0.415789">
        <ele>1360.0</ele>
        <time>2019-03-26T11:23:34.000Z</time>
      </trkpt>
      <trkpt lat="42.581157" lon="-0.415753">
        <ele>1359.0</ele>
        <time>2019-03-26T11:23:35.000Z</time>
      </trkpt>
      <trkpt lat="42.581129" lon="-0.415717">
        <ele>1359.0</ele>
        <time>2019-03-26T11:23:36.000Z</time>
      </trkpt>
      <trkpt lat="42.581108" lon="-0.415681">
        <ele>1359.0</ele>
        <time>2019-03-26T11:23:37.000Z</time>
      </trkpt>
      <trkpt lat="42.581091" lon="-0.415646">
        <ele>1358.0</ele>
        <time>2019-03-26T11:23:38.000Z</time>
      </trkpt>
      <trkpt lat="42.581077" lon="-0.415613">
        <ele>1359.0</ele>
        <time>2019-03-26T11:23:39.000Z</time>
      </trkpt>
      <trkpt lat="42.581064" lon="-0.41558">
        <ele>1358.0</ele>
        <time>2019-03-26T11:23:40.000Z</time>
      </trkpt>
      <trkpt lat="42.581049" lon="-0.41555">
        <ele>1358.0</ele>
        <time>2019-03-26T11:23:41.000Z</time>
      </trkpt>
      <trkpt lat="42.581029" lon="-0.415522">
        <ele>1358.0</ele>
        <time>2019-03-26T11:23:42.000Z</time>
      </trkpt>
      <trkpt lat="42.581003" lon="-0.415497">
        <ele>1358.0</ele>
        <time>2019-03-26T11:23:43.000Z</time>
      </trkpt>
      <trkpt lat="42.580971" lon="-0.415473">
        <ele>1357.0</ele>
        <time>2019-03-26T11:23:44.000Z</time>
      </trkpt>
      <trkpt lat="42.580936" lon="-0.41545">
        <ele>1357.0</ele>
        <time>2019-03-26T11:23:45.000Z</time>
      </trkpt>
      <trkpt lat="42.580899" lon="-0.415426">
        <ele>1357.0</ele>
        <time>2019-03-26T11:23:46.000Z</time>
      </trkpt>
      <trkpt lat="42.580863" lon="-0.415402">
        <ele>1356.0</ele>
        <time>2019-03-26T11:23:47.000Z</time>
      </trkpt>
      <trkpt lat="42.580826" lon="-0.415377">
        <ele>1356.0</ele>
        <time>2019-03-26T11:23:48.000Z</time>
      </trkpt>
      <trkpt lat="42.580788" lon="-0.415351">
        <ele>1356.0</ele>
        <time>2019-03-26T11:23:49.000Z</time>
      </trkpt>
      <trkpt lat="42.580749" lon="-0.415325">
        <ele>1356.0</ele>
        <time>2019-03-26T11:23:50.000Z</time>
      </trkpt>
      <trkpt lat="42.580708" lon="-0.415297">
        <ele>1356.0</ele>
        <time>2019-03-26T11:23:51.000Z</time>
      </trkpt>
      <trkpt lat="42.580667" lon="-0.415269">
        <ele>1355.0</ele>
        <time>2019-03-26T11:23:52.000Z</time>
      </trkpt>
      <trkpt lat="42.580627" lon="-0.415238">
        <ele>1355.0</ele>
        <time>2019-03-26T11:23:53.000Z</time>
      </trkpt>
      <trkpt lat="42.58059" lon="-0.415204">
        <ele>1355.0</ele>
        <time>2019-03-26T11:23:54.000Z</time>
      </trkpt>
      <trkpt lat="42.580555" lon="-0.415167">
        <ele>1354.0</ele>
        <time>2019-03-26T11:23:55.000Z</time>
      </trkpt>
      <trkpt lat="42.580523" lon="-0.415131">
        <ele>1354.0</ele>
        <time>2019-03-26T11:23:56.000Z</time>
      </trkpt>
      <trkpt lat="42.580492" lon="-0.415101">
        <ele>1354.0</ele>
        <time>2019-03-26T11:23:57.000Z</time>
      </trkpt>
      <trkpt lat="42.58046" lon="-0.415081">
        <ele>1354.0</ele>
        <time>2019-03-26T11:23:58.000Z</time>
      </trkpt>
      <trkpt lat="42.580427" lon="-0.41507">
        <ele>1353.0</ele>
        <time>2019-03-26T11:23:59.000Z</time>
      </trkpt>
      <trkpt lat="42.580392" lon="-0.415061">
        <ele>1353.0</ele>
        <time>2019-03-26T11:24:00.000Z</time>
      </trkpt>
      <trkpt lat="42.580355" lon="-0.415053">
        <ele>1353.0</ele>
        <time>2019-03-26T11:24:01.000Z</time>
      </trkpt>
      <trkpt lat="42.580314" lon="-0.41504">
        <ele>1352.0</ele>
        <time>2019-03-26T11:24:02.000Z</time>
      </trkpt>
      <trkpt lat="42.580271" lon="-0.415026">
        <ele>1352.0</ele>
        <time>2019-03-26T11:24:03.000Z</time>
      </trkpt>
      <trkpt lat="42.580227" lon="-0.415012">
        <ele>1352.0</ele>
        <time>2019-03-26T11:24:04.000Z</time>
      </trkpt>
      <trkpt lat="42.580182" lon="-0.415002">
        <ele>1351.0</ele>
        <time>2019-03-26T11:24:05.000Z</time>
      </trkpt>
      <trkpt lat="42.580137" lon="-0.414998">
        <ele>1351.0</ele>
        <time>2019-03-26T11:24:06.000Z</time>
      </trkpt>
      <trkpt lat="42.580093" lon="-0.414997">
        <ele>1350.0</ele>
        <time>2019-03-26T11:24:07.000Z</time>
      </trkpt>
      <trkpt lat="42.58005" lon="-0.415">
        <ele>1350.0</ele>
        <time>2019-03-26T11:24:08.000Z</time>
      </trkpt>
      <trkpt lat="42.580008" lon="-0.415003">
        <ele>1350.0</ele>
        <time>2019-03-26T11:24:09.000Z</time>
      </trkpt>
      <trkpt lat="42.579968" lon="-0.415006">
        <ele>1350.0</ele>
        <time>2019-03-26T11:24:10.000Z</time>
      </trkpt>
      <trkpt lat="42.579928" lon="-0.415007">
        <ele>1350.0</ele>
        <time>2019-03-26T11:24:11.000Z</time>
      </trkpt>
      <trkpt lat="42.579891" lon="-0.415007">
        <ele>1350.0</ele>
        <time>2019-03-26T11:24:12.000Z</time>
      </trkpt>
      <trkpt lat="42.579855" lon="-0.415005">
        <ele>1349.0</ele>
        <time>2019-03-26T11:24:13.000Z</time>
      </trkpt>
      <trkpt lat="42.57982" lon="-0.415001">
        <ele>1349.0</ele>
        <time>2019-03-26T11:24:14.000Z</time>
      </trkpt>
      <trkpt lat="42.579786" lon="-0.414994">
        <ele>1348.0</ele>
        <time>2019-03-26T11:24:15.000Z</time>
      </trkpt>
      <trkpt lat="42.579752" lon="-0.414986">
        <ele>1348.0</ele>
        <time>2019-03-26T11:24:16.000Z</time>
      </trkpt>
      <trkpt lat="42.579718" lon="-0.414974">
        <ele>1347.0</ele>
        <time>2019-03-26T11:24:17.000Z</time>
      </trkpt>
      <trkpt lat="42.579685" lon="-0.41496">
        <ele>1347.0</ele>
        <time>2019-03-26T11:24:18.000Z</time>
      </trkpt>
      <trkpt lat="42.57965" lon="-0.414944">
        <ele>1347.0</ele>
        <time>2019-03-26T11:24:19.000Z</time>
      </trkpt>
      <trkpt lat="42.579615" lon="-0.414924">
        <ele>1346.0</ele>
        <time>2019-03-26T11:24:20.000Z</time>
      </trkpt>
      <trkpt lat="42.579578" lon="-0.414902">
        <ele>1346.0</ele>
        <time>2019-03-26T11:24:21.000Z</time>
      </trkpt>
      <trkpt lat="42.57954" lon="-0.414877">
        <ele>1346.0</ele>
        <time>2019-03-26T11:24:22.000Z</time>
      </trkpt>
      <trkpt lat="42.579502" lon="-0.414851">
        <ele>1346.0</ele>
        <time>2019-03-26T11:24:23.000Z</time>
      </trkpt>
      <trkpt lat="42.579463" lon="-0.414825">
        <ele>1346.0</ele>
        <time>2019-03-26T11:24:24.000Z</time>
      </trkpt>
      <trkpt lat="42.579424" lon="-0.414798">
        <ele>1345.0</ele>
        <time>2019-03-26T11:24:25.000Z</time>
      </trkpt>
      <trkpt lat="42.579384" lon="-0.41477">
        <ele>1345.0</ele>
        <time>2019-03-26T11:24:26.000Z</time>
      </trkpt>
      <trkpt lat="42.579345" lon="-0.41474">
        <ele>1344.0</ele>
        <time>2019-03-26T11:24:27.000Z</time>
      </trkpt>
      <trkpt lat="42.579305" lon="-0.414705">
        <ele>1344.0</ele>
        <time>2019-03-26T11:24:28.000Z</time>
      </trkpt>
      <trkpt lat="42.579266" lon="-0.414667">
        <ele>1343.0</ele>
        <time>2019-03-26T11:24:29.000Z</time>
      </trkpt>
      <trkpt lat="42.579227" lon="-0.414625">
        <ele>1343.0</ele>
        <time>2019-03-26T11:24:30.000Z</time>
      </trkpt>
      <trkpt lat="42.579189" lon="-0.414579">
        <ele>1343.0</ele>
        <time>2019-03-26T11:24:31.000Z</time>
      </trkpt>
      <trkpt lat="42.579152" lon="-0.414531">
        <ele>1342.0</ele>
        <time>2019-03-26T11:24:32.000Z</time>
      </trkpt>
      <trkpt lat="42.579116" lon="-0.41448">
        <ele>1342.0</ele>
        <time>2019-03-26T11:24:33.000Z</time>
      </trkpt>
      <trkpt lat="42.579082" lon="-0.414428">
        <ele>1342.0</ele>
        <time>2019-03-26T11:24:34.000Z</time>
      </trkpt>
      <trkpt lat="42.57905" lon="-0.414373">
        <ele>1342.0</ele>
        <time>2019-03-26T11:24:35.000Z</time>
      </trkpt>
      <trkpt lat="42.57902" lon="-0.414317">
        <ele>1342.0</ele>
        <time>2019-03-26T11:24:36.000Z</time>
      </trkpt>
      <trkpt lat="42.578992" lon="-0.414261">
        <ele>1341.0</ele>
        <time>2019-03-26T11:24:37.000Z</time>
      </trkpt>
      <trkpt lat="42.578966" lon="-0.414203">
        <ele>1341.0</ele>
        <time>2019-03-26T11:24:38.000Z</time>
      </trkpt>
      <trkpt lat="42.578939" lon="-0.414144">
        <ele>1341.0</ele>
        <time>2019-03-26T11:24:39.000Z</time>
      </trkpt>
      <trkpt lat="42.578913" lon="-0.414086">
        <ele>1340.0</ele>
        <time>2019-03-26T11:24:40.000Z</time>
      </trkpt>
      <trkpt lat="42.578887" lon="-0.414027">
        <ele>1340.0</ele>
        <time>2019-03-26T11:24:41.000Z</time>
      </trkpt>
      <trkpt lat="42.578859" lon="-0.413968">
        <ele>1340.0</ele>
        <time>2019-03-26T11:24:42.000Z</time>
      </trkpt>
      <trkpt lat="42.57883" lon="-0.413909">
        <ele>1339.0</ele>
        <time>2019-03-26T11:24:43.000Z</time>
      </trkpt>
      <trkpt lat="42.578799" lon="-0.41385">
        <ele>1339.0</ele>
        <time>2019-03-26T11:24:44.000Z</time>
      </trkpt>
      <trkpt lat="42.578768" lon="-0.413792">
        <ele>1339.0</ele>
        <time>2019-03-26T11:24:45.000Z</time>
      </trkpt>
      <trkpt lat="42.578736" lon="-0.413734">
        <ele>1339.0</ele>
        <time>2019-03-26T11:24:46.000Z</time>
      </trkpt>
      <trkpt lat="42.578705" lon="-0.413676">
        <ele>1339.0</ele>
        <time>2019-03-26T11:24:47.000Z</time>
      </trkpt>
      <trkpt lat="42.578674" lon="-0.413618">
        <ele>1338.0</ele>
        <time>2019-03-26T11:24:48.000Z</time>
      </trkpt>
      <trkpt lat="42.578643" lon="-0.41356">
        <ele>1338.0</ele>
        <time>2019-03-26T11:24:49.000Z</time>
      </trkpt>
      <trkpt lat="42.578614" lon="-0.413503">
        <ele>1338.0</ele>
        <time>2019-03-26T11:24:50.000Z</time>
      </trkpt>
      <trkpt lat="42.578587" lon="-0.413445">
        <ele>1337.0</ele>
        <time>2019-03-26T11:24:51.000Z</time>
      </trkpt>
      <trkpt lat="42.578562" lon="-0.413387">
        <ele>1337.0</ele>
        <time>2019-03-26T11:24:52.000Z</time>
      </trkpt>
      <trkpt lat="42.578538" lon="-0.41333">
        <ele>1337.0</ele>
        <time>2019-03-26T11:24:53.000Z</time>
      </trkpt>
      <trkpt lat="42.578516" lon="-0.413272">
        <ele>1337.0</ele>
        <time>2019-03-26T11:24:54.000Z</time>
      </trkpt>
      <trkpt lat="42.578496" lon="-0.413216">
        <ele>1337.0</ele>
        <time>2019-03-26T11:24:55.000Z</time>
      </trkpt>
      <trkpt lat="42.578478" lon="-0.41316">
        <ele>1337.0</ele>
        <time>2019-03-26T11:24:56.000Z</time>
      </trkpt>
      <trkpt lat="42.578462" lon="-0.413105">
        <ele>1337.0</ele>
        <time>2019-03-26T11:24:57.000Z</time>
      </trkpt>
      <trkpt lat="42.578448" lon="-0.41305">
        <ele>1337.0</ele>
        <time>2019-03-26T11:24:58.000Z</time>
      </trkpt>
      <trkpt lat="42.578435" lon="-0.412997">
        <ele>1337.0</ele>
        <time>2019-03-26T11:24:59.000Z</time>
      </trkpt>
      <trkpt lat="42.578423" lon="-0.412944">
        <ele>1337.0</ele>
        <time>2019-03-26T11:25:00.000Z</time>
      </trkpt>
      <trkpt lat="42.578411" lon="-0.412891">
        <ele>1337.0</ele>
        <time>2019-03-26T11:25:01.000Z</time>
      </trkpt>
      <trkpt lat="42.578398" lon="-0.412839">
        <ele>1337.0</ele>
        <time>2019-03-26T11:25:02.000Z</time>
      </trkpt>
      <trkpt lat="42.578383" lon="-0.412787">
        <ele>1336.0</ele>
        <time>2019-03-26T11:25:03.000Z</time>
      </trkpt>
      <trkpt lat="42.578366" lon="-0.412735">
        <ele>1336.0</ele>
        <time>2019-03-26T11:25:04.000Z</time>
      </trkpt>
      <trkpt lat="42.578346" lon="-0.412683">
        <ele>1336.0</ele>
        <time>2019-03-26T11:25:05.000Z</time>
      </trkpt>
      <trkpt lat="42.578322" lon="-0.412631">
        <ele>1336.0</ele>
        <time>2019-03-26T11:25:06.000Z</time>
      </trkpt>
      <trkpt lat="42.578295" lon="-0.412581">
        <ele>1336.0</ele>
        <time>2019-03-26T11:25:07.000Z</time>
      </trkpt>
      <trkpt lat="42.578263" lon="-0.412535">
        <ele>1336.0</ele>
        <time>2019-03-26T11:25:08.000Z</time>
      </trkpt>
      <trkpt lat="42.578229" lon="-0.412493">
        <ele>1336.0</ele>
        <time>2019-03-26T11:25:09.000Z</time>
      </trkpt>
      <trkpt lat="42.57819" lon="-0.412459">
        <ele>1336.0</ele>
        <time>2019-03-26T11:25:10.000Z</time>
      </trkpt>
      <trkpt lat="42.578147" lon="-0.412433">
        <ele>1335.0</ele>
        <time>2019-03-26T11:25:11.000Z</time>
      </trkpt>
      <trkpt lat="42.578099" lon="-0.412415">
        <ele>1335.0</ele>
        <time>2019-03-26T11:25:12.000Z</time>
      </trkpt>
      <trkpt lat="42.578047" lon="-0.412405">
        <ele>1335.0</ele>
        <time>2019-03-26T11:25:13.000Z</time>
      </trkpt>
      <trkpt lat="42.577995" lon="-0.41239">
        <ele>1335.0</ele>
        <time>2019-03-26T11:25:14.000Z</time>
      </trkpt>
      <trkpt lat="42.577951" lon="-0.412362">
        <ele>1335.0</ele>
        <time>2019-03-26T11:25:15.000Z</time>
      </trkpt>
      <trkpt lat="42.577917" lon="-0.412317">
        <ele>1334.0</ele>
        <time>2019-03-26T11:25:16.000Z</time>
      </trkpt>
      <trkpt lat="42.577894" lon="-0.412259">
        <ele>1335.0</ele>
        <time>2019-03-26T11:25:17.000Z</time>
      </trkpt>
      <trkpt lat="42.577878" lon="-0.412193">
        <ele>1334.0</ele>
        <time>2019-03-26T11:25:18.000Z</time>
      </trkpt>
      <trkpt lat="42.577863" lon="-0.412125">
        <ele>1334.0</ele>
        <time>2019-03-26T11:25:19.000Z</time>
      </trkpt>
      <trkpt lat="42.577848" lon="-0.412055">
        <ele>1334.0</ele>
        <time>2019-03-26T11:25:20.000Z</time>
      </trkpt>
      <trkpt lat="42.577832" lon="-0.411982">
        <ele>1334.0</ele>
        <time>2019-03-26T11:25:21.000Z</time>
      </trkpt>
      <trkpt lat="42.577816" lon="-0.411908">
        <ele>1333.0</ele>
        <time>2019-03-26T11:25:22.000Z</time>
      </trkpt>
      <trkpt lat="42.577801" lon="-0.411831">
        <ele>1333.0</ele>
        <time>2019-03-26T11:25:23.000Z</time>
      </trkpt>
      <trkpt lat="42.577792" lon="-0.411754">
        <ele>1332.0</ele>
        <time>2019-03-26T11:25:24.000Z</time>
      </trkpt>
      <trkpt lat="42.577789" lon="-0.411679">
        <ele>1332.0</ele>
        <time>2019-03-26T11:25:25.000Z</time>
      </trkpt>
      <trkpt lat="42.577789" lon="-0.411607">
        <ele>1331.0</ele>
        <time>2019-03-26T11:25:26.000Z</time>
      </trkpt>
      <trkpt lat="42.577782" lon="-0.41154">
        <ele>1331.0</ele>
        <time>2019-03-26T11:25:27.000Z</time>
      </trkpt>
      <trkpt lat="42.577763" lon="-0.411478">
        <ele>1330.0</ele>
        <time>2019-03-26T11:25:28.000Z</time>
      </trkpt>
      <trkpt lat="42.577736" lon="-0.411419">
        <ele>1330.0</ele>
        <time>2019-03-26T11:25:29.000Z</time>
      </trkpt>
      <trkpt lat="42.577704" lon="-0.411361">
        <ele>1330.0</ele>
        <time>2019-03-26T11:25:30.000Z</time>
      </trkpt>
      <trkpt lat="42.577674" lon="-0.411303">
        <ele>1329.0</ele>
        <time>2019-03-26T11:25:31.000Z</time>
      </trkpt>
      <trkpt lat="42.577648" lon="-0.411241">
        <ele>1329.0</ele>
        <time>2019-03-26T11:25:32.000Z</time>
      </trkpt>
      <trkpt lat="42.57763" lon="-0.411177">
        <ele>1328.0</ele>
        <time>2019-03-26T11:25:33.000Z</time>
      </trkpt>
      <trkpt lat="42.57762" lon="-0.411113">
        <ele>1328.0</ele>
        <time>2019-03-26T11:25:34.000Z</time>
      </trkpt>
      <trkpt lat="42.577618" lon="-0.411048">
        <ele>1327.0</ele>
        <time>2019-03-26T11:25:35.000Z</time>
      </trkpt>
      <trkpt lat="42.577623" lon="-0.410984">
        <ele>1327.0</ele>
        <time>2019-03-26T11:25:36.000Z</time>
      </trkpt>
      <trkpt lat="42.577633" lon="-0.410921">
        <ele>1327.0</ele>
        <time>2019-03-26T11:25:37.000Z</time>
      </trkpt>
      <trkpt lat="42.577643" lon="-0.410858">
        <ele>1327.0</ele>
        <time>2019-03-26T11:25:38.000Z</time>
      </trkpt>
      <trkpt lat="42.577654" lon="-0.410795">
        <ele>1326.0</ele>
        <time>2019-03-26T11:25:39.000Z</time>
      </trkpt>
      <trkpt lat="42.57766" lon="-0.410732">
        <ele>1326.0</ele>
        <time>2019-03-26T11:25:40.000Z</time>
      </trkpt>
      <trkpt lat="42.577661" lon="-0.410669">
        <ele>1326.0</ele>
        <time>2019-03-26T11:25:41.000Z</time>
      </trkpt>
      <trkpt lat="42.577654" lon="-0.410606">
        <ele>1326.0</ele>
        <time>2019-03-26T11:25:42.000Z</time>
      </trkpt>
      <trkpt lat="42.57764" lon="-0.410543">
        <ele>1326.0</ele>
        <time>2019-03-26T11:25:43.000Z</time>
      </trkpt>
      <trkpt lat="42.57762" lon="-0.41048">
        <ele>1325.0</ele>
        <time>2019-03-26T11:25:44.000Z</time>
      </trkpt>
      <trkpt lat="42.577596" lon="-0.410417">
        <ele>1325.0</ele>
        <time>2019-03-26T11:25:45.000Z</time>
      </trkpt>
      <trkpt lat="42.577568" lon="-0.410354">
        <ele>1324.0</ele>
        <time>2019-03-26T11:25:46.000Z</time>
      </trkpt>
      <trkpt lat="42.57754" lon="-0.410292">
        <ele>1324.0</ele>
        <time>2019-03-26T11:25:47.000Z</time>
      </trkpt>
      <trkpt lat="42.577511" lon="-0.41023">
        <ele>1324.0</ele>
        <time>2019-03-26T11:25:48.000Z</time>
      </trkpt>
      <trkpt lat="42.577484" lon="-0.410168">
        <ele>1323.0</ele>
        <time>2019-03-26T11:25:49.000Z</time>
      </trkpt>
      <trkpt lat="42.577458" lon="-0.410107">
        <ele>1323.0</ele>
        <time>2019-03-26T11:25:50.000Z</time>
      </trkpt>
      <trkpt lat="42.577435" lon="-0.410046">
        <ele>1323.0</ele>
        <time>2019-03-26T11:25:51.000Z</time>
      </trkpt>
      <trkpt lat="42.577414" lon="-0.409985">
        <ele>1323.0</ele>
        <time>2019-03-26T11:25:52.000Z</time>
      </trkpt>
      <trkpt lat="42.577393" lon="-0.409924">
        <ele>1323.0</ele>
        <time>2019-03-26T11:25:53.000Z</time>
      </trkpt>
      <trkpt lat="42.577374" lon="-0.409863">
        <ele>1322.0</ele>
        <time>2019-03-26T11:25:54.000Z</time>
      </trkpt>
      <trkpt lat="42.577355" lon="-0.409803">
        <ele>1322.0</ele>
        <time>2019-03-26T11:25:55.000Z</time>
      </trkpt>
      <trkpt lat="42.577335" lon="-0.409742">
        <ele>1321.0</ele>
        <time>2019-03-26T11:25:56.000Z</time>
      </trkpt>
      <trkpt lat="42.577315" lon="-0.40968">
        <ele>1321.0</ele>
        <time>2019-03-26T11:25:57.000Z</time>
      </trkpt>
      <trkpt lat="42.577295" lon="-0.40962">
        <ele>1321.0</ele>
        <time>2019-03-26T11:25:58.000Z</time>
      </trkpt>
      <trkpt lat="42.577276" lon="-0.40956">
        <ele>1321.0</ele>
        <time>2019-03-26T11:25:59.000Z</time>
      </trkpt>
      <trkpt lat="42.577258" lon="-0.409502">
        <ele>1320.0</ele>
        <time>2019-03-26T11:26:00.000Z</time>
      </trkpt>
      <trkpt lat="42.577241" lon="-0.409447">
        <ele>1320.0</ele>
        <time>2019-03-26T11:26:01.000Z</time>
      </trkpt>
      <trkpt lat="42.577226" lon="-0.409394">
        <ele>1320.0</ele>
        <time>2019-03-26T11:26:02.000Z</time>
      </trkpt>
      <trkpt lat="42.577213" lon="-0.409341">
        <ele>1320.0</ele>
        <time>2019-03-26T11:26:03.000Z</time>
      </trkpt>
      <trkpt lat="42.577202" lon="-0.409289">
        <ele>1319.0</ele>
        <time>2019-03-26T11:26:04.000Z</time>
      </trkpt>
      <trkpt lat="42.577192" lon="-0.409235">
        <ele>1319.0</ele>
        <time>2019-03-26T11:26:05.000Z</time>
      </trkpt>
      <trkpt lat="42.577183" lon="-0.409181">
        <ele>1319.0</ele>
        <time>2019-03-26T11:26:06.000Z</time>
      </trkpt>
      <trkpt lat="42.577173" lon="-0.409125">
        <ele>1319.0</ele>
        <time>2019-03-26T11:26:07.000Z</time>
      </trkpt>
      <trkpt lat="42.577161" lon="-0.409068">
        <ele>1319.0</ele>
        <time>2019-03-26T11:26:08.000Z</time>
      </trkpt>
      <trkpt lat="42.577146" lon="-0.40901">
        <ele>1318.0</ele>
        <time>2019-03-26T11:26:09.000Z</time>
      </trkpt>
      <trkpt lat="42.577127" lon="-0.408951">
        <ele>1318.0</ele>
        <time>2019-03-26T11:26:10.000Z</time>
      </trkpt>
      <trkpt lat="42.577103" lon="-0.408889">
        <ele>1318.0</ele>
        <time>2019-03-26T11:26:11.000Z</time>
      </trkpt>
      <trkpt lat="42.577073" lon="-0.408823">
        <ele>1318.0</ele>
        <time>2019-03-26T11:26:12.000Z</time>
      </trkpt>
      <trkpt lat="42.577039" lon="-0.408757">
        <ele>1317.0</ele>
        <time>2019-03-26T11:26:13.000Z</time>
      </trkpt>
      <trkpt lat="42.577005" lon="-0.408691">
        <ele>1317.0</ele>
        <time>2019-03-26T11:26:14.000Z</time>
      </trkpt>
      <trkpt lat="42.576974" lon="-0.408627">
        <ele>1316.0</ele>
        <time>2019-03-26T11:26:15.000Z</time>
      </trkpt>
      <trkpt lat="42.576947" lon="-0.408566">
        <ele>1316.0</ele>
        <time>2019-03-26T11:26:16.000Z</time>
      </trkpt>
      <trkpt lat="42.576923" lon="-0.408508">
        <ele>1316.0</ele>
        <time>2019-03-26T11:26:17.000Z</time>
      </trkpt>
      <trkpt lat="42.576901" lon="-0.408451">
        <ele>1315.0</ele>
        <time>2019-03-26T11:26:18.000Z</time>
      </trkpt>
      <trkpt lat="42.576878" lon="-0.408392">
        <ele>1315.0</ele>
        <time>2019-03-26T11:26:19.000Z</time>
      </trkpt>
      <trkpt lat="42.576854" lon="-0.408331">
        <ele>1315.0</ele>
        <time>2019-03-26T11:26:20.000Z</time>
      </trkpt>
      <trkpt lat="42.576827" lon="-0.408268">
        <ele>1315.0</ele>
        <time>2019-03-26T11:26:21.000Z</time>
      </trkpt>
      <trkpt lat="42.576798" lon="-0.408203">
        <ele>1314.0</ele>
        <time>2019-03-26T11:26:22.000Z</time>
      </trkpt>
      <trkpt lat="42.576768" lon="-0.408137">
        <ele>1314.0</ele>
        <time>2019-03-26T11:26:23.000Z</time>
      </trkpt>
      <trkpt lat="42.576735" lon="-0.408069">
        <ele>1314.0</ele>
        <time>2019-03-26T11:26:24.000Z</time>
      </trkpt>
      <trkpt lat="42.576701" lon="-0.408001">
        <ele>1313.0</ele>
        <time>2019-03-26T11:26:25.000Z</time>
      </trkpt>
      <trkpt lat="42.576666" lon="-0.407933">
        <ele>1313.0</ele>
        <time>2019-03-26T11:26:26.000Z</time>
      </trkpt>
      <trkpt lat="42.57663" lon="-0.407866">
        <ele>1313.0</ele>
        <time>2019-03-26T11:26:27.000Z</time>
      </trkpt>
      <trkpt lat="42.576592" lon="-0.407799">
        <ele>1313.0</ele>
        <time>2019-03-26T11:26:28.000Z</time>
      </trkpt>
      <trkpt lat="42.576554" lon="-0.407734">
        <ele>1313.0</ele>
        <time>2019-03-26T11:26:29.000Z</time>
      </trkpt>
      <trkpt lat="42.576515" lon="-0.40767">
        <ele>1312.0</ele>
        <time>2019-03-26T11:26:30.000Z</time>
      </trkpt>
      <trkpt lat="42.576475" lon="-0.407609">
        <ele>1312.0</ele>
        <time>2019-03-26T11:26:31.000Z</time>
      </trkpt>
      <trkpt lat="42.576435" lon="-0.40755">
        <ele>1311.0</ele>
        <time>2019-03-26T11:26:32.000Z</time>
      </trkpt>
      <trkpt lat="42.576394" lon="-0.407494">
        <ele>1311.0</ele>
        <time>2019-03-26T11:26:33.000Z</time>
      </trkpt>
      <trkpt lat="42.576353" lon="-0.407442">
        <ele>1310.0</ele>
        <time>2019-03-26T11:26:34.000Z</time>
      </trkpt>
      <trkpt lat="42.576312" lon="-0.407394">
        <ele>1310.0</ele>
        <time>2019-03-26T11:26:35.000Z</time>
      </trkpt>
      <trkpt lat="42.57627" lon="-0.407348">
        <ele>1309.0</ele>
        <time>2019-03-26T11:26:36.000Z</time>
      </trkpt>
      <trkpt lat="42.576227" lon="-0.407301">
        <ele>1309.0</ele>
        <time>2019-03-26T11:26:37.000Z</time>
      </trkpt>
      <trkpt lat="42.576182" lon="-0.407252">
        <ele>1308.0</ele>
        <time>2019-03-26T11:26:38.000Z</time>
      </trkpt>
      <trkpt lat="42.576135" lon="-0.4072">
        <ele>1308.0</ele>
        <time>2019-03-26T11:26:39.000Z</time>
      </trkpt>
      <trkpt lat="42.576086" lon="-0.407146">
        <ele>1307.0</ele>
        <time>2019-03-26T11:26:40.000Z</time>
      </trkpt>
      <trkpt lat="42.576034" lon="-0.407093">
        <ele>1307.0</ele>
        <time>2019-03-26T11:26:41.000Z</time>
      </trkpt>
      <trkpt lat="42.575981" lon="-0.407043">
        <ele>1307.0</ele>
        <time>2019-03-26T11:26:42.000Z</time>
      </trkpt>
      <trkpt lat="42.575928" lon="-0.406996">
        <ele>1306.0</ele>
        <time>2019-03-26T11:26:43.000Z</time>
      </trkpt>
      <trkpt lat="42.575877" lon="-0.406953">
        <ele>1306.0</ele>
        <time>2019-03-26T11:26:44.000Z</time>
      </trkpt>
      <trkpt lat="42.575831" lon="-0.406913">
        <ele>1305.0</ele>
        <time>2019-03-26T11:26:45.000Z</time>
      </trkpt>
      <trkpt lat="42.575791" lon="-0.406876">
        <ele>1305.0</ele>
        <time>2019-03-26T11:26:46.000Z</time>
      </trkpt>
      <trkpt lat="42.575761" lon="-0.406842">
        <ele>1304.0</ele>
        <time>2019-03-26T11:26:47.000Z</time>
      </trkpt>
      <trkpt lat="42.575741" lon="-0.40681">
        <ele>1304.0</ele>
        <time>2019-03-26T11:26:48.000Z</time>
      </trkpt>
      <trkpt lat="42.575734" lon="-0.40678">
        <ele>1303.0</ele>
        <time>2019-03-26T11:26:49.000Z</time>
      </trkpt>
      <trkpt lat="42.575742" lon="-0.406751">
        <ele>1303.0</ele>
        <time>2019-03-26T11:26:50.000Z</time>
      </trkpt>
      <trkpt lat="42.57576" lon="-0.406729">
        <ele>1303.0</ele>
        <time>2019-03-26T11:26:51.000Z</time>
      </trkpt>
      <trkpt lat="42.575787" lon="-0.406716">
        <ele>1303.0</ele>
        <time>2019-03-26T11:26:52.000Z</time>
      </trkpt>
      <trkpt lat="42.575817" lon="-0.406719">
        <ele>1302.0</ele>
        <time>2019-03-26T11:26:53.000Z</time>
      </trkpt>
      <trkpt lat="42.575847" lon="-0.406738">
        <ele>1302.0</ele>
        <time>2019-03-26T11:26:54.000Z</time>
      </trkpt>
      <trkpt lat="42.575878" lon="-0.406768">
        <ele>1302.0</ele>
        <time>2019-03-26T11:26:55.000Z</time>
      </trkpt>
      <trkpt lat="42.575911" lon="-0.406801">
        <ele>1302.0</ele>
        <time>2019-03-26T11:26:56.000Z</time>
      </trkpt>
      <trkpt lat="42.575944" lon="-0.40683">
        <ele>1302.0</ele>
        <time>2019-03-26T11:26:57.000Z</time>
      </trkpt>
      <trkpt lat="42.57598" lon="-0.406853">
        <ele>1301.0</ele>
        <time>2019-03-26T11:26:58.000Z</time>
      </trkpt>
      <trkpt lat="42.576016" lon="-0.406872">
        <ele>1301.0</ele>
        <time>2019-03-26T11:26:59.000Z</time>
      </trkpt>
      <trkpt lat="42.576054" lon="-0.406887">
        <ele>1301.0</ele>
        <time>2019-03-26T11:27:00.000Z</time>
      </trkpt>
      <trkpt lat="42.576092" lon="-0.406898">
        <ele>1301.0</ele>
        <time>2019-03-26T11:27:01.000Z</time>
      </trkpt>
      <trkpt lat="42.576131" lon="-0.406907">
        <ele>1301.0</ele>
        <time>2019-03-26T11:27:02.000Z</time>
      </trkpt>
      <trkpt lat="42.576173" lon="-0.406914">
        <ele>1301.0</ele>
        <time>2019-03-26T11:27:03.000Z</time>
      </trkpt>
      <trkpt lat="42.576217" lon="-0.406919">
        <ele>1300.0</ele>
        <time>2019-03-26T11:27:04.000Z</time>
      </trkpt>
      <trkpt lat="42.576264" lon="-0.406925">
        <ele>1300.0</ele>
        <time>2019-03-26T11:27:05.000Z</time>
      </trkpt>
      <trkpt lat="42.576314" lon="-0.406928">
        <ele>1300.0</ele>
        <time>2019-03-26T11:27:06.000Z</time>
      </trkpt>
      <trkpt lat="42.576366" lon="-0.406928">
        <ele>1299.0</ele>
        <time>2019-03-26T11:27:07.000Z</time>
      </trkpt>
      <trkpt lat="42.57642" lon="-0.406922">
        <ele>1299.0</ele>
        <time>2019-03-26T11:27:08.000Z</time>
      </trkpt>
      <trkpt lat="42.576474" lon="-0.40691">
        <ele>1298.0</ele>
        <time>2019-03-26T11:27:09.000Z</time>
      </trkpt>
      <trkpt lat="42.576528" lon="-0.406895">
        <ele>1298.0</ele>
        <time>2019-03-26T11:27:10.000Z</time>
      </trkpt>
      <trkpt lat="42.576582" lon="-0.406881">
        <ele>1297.0</ele>
        <time>2019-03-26T11:27:11.000Z</time>
      </trkpt>
      <trkpt lat="42.576634" lon="-0.406872">
        <ele>1297.0</ele>
        <time>2019-03-26T11:27:12.000Z</time>
      </trkpt>
      <trkpt lat="42.576686" lon="-0.406868">
        <ele>1297.0</ele>
        <time>2019-03-26T11:27:13.000Z</time>
      </trkpt>
      <trkpt lat="42.576737" lon="-0.406869">
        <ele>1296.0</ele>
        <time>2019-03-26T11:27:14.000Z</time>
      </trkpt>
      <trkpt lat="42.576788" lon="-0.406874">
        <ele>1296.0</ele>
        <time>2019-03-26T11:27:15.000Z</time>
      </trkpt>
      <trkpt lat="42.57684" lon="-0.406884">
        <ele>1296.0</ele>
        <time>2019-03-26T11:27:16.000Z</time>
      </trkpt>
      <trkpt lat="42.576893" lon="-0.406897">
        <ele>1295.0</ele>
        <time>2019-03-26T11:27:17.000Z</time>
      </trkpt>
      <trkpt lat="42.576947" lon="-0.406913">
        <ele>1295.0</ele>
        <time>2019-03-26T11:27:18.000Z</time>
      </trkpt>
      <trkpt lat="42.577003" lon="-0.406932">
        <ele>1295.0</ele>
        <time>2019-03-26T11:27:19.000Z</time>
      </trkpt>
      <trkpt lat="42.577061" lon="-0.406953">
        <ele>1295.0</ele>
        <time>2019-03-26T11:27:20.000Z</time>
      </trkpt>
      <trkpt lat="42.577119" lon="-0.406977">
        <ele>1294.0</ele>
        <time>2019-03-26T11:27:21.000Z</time>
      </trkpt>
      <trkpt lat="42.577174" lon="-0.407003">
        <ele>1294.0</ele>
        <time>2019-03-26T11:27:22.000Z</time>
      </trkpt>
      <trkpt lat="42.577225" lon="-0.407032">
        <ele>1293.0</ele>
        <time>2019-03-26T11:27:23.000Z</time>
      </trkpt>
      <trkpt lat="42.57727" lon="-0.407063">
        <ele>1293.0</ele>
        <time>2019-03-26T11:27:24.000Z</time>
      </trkpt>
      <trkpt lat="42.577308" lon="-0.407096">
        <ele>1292.0</ele>
        <time>2019-03-26T11:27:25.000Z</time>
      </trkpt>
      <trkpt lat="42.577341" lon="-0.407132">
        <ele>1292.0</ele>
        <time>2019-03-26T11:27:26.000Z</time>
      </trkpt>
      <trkpt lat="42.577369" lon="-0.40717">
        <ele>1292.0</ele>
        <time>2019-03-26T11:27:27.000Z</time>
      </trkpt>
      <trkpt lat="42.577395" lon="-0.407209">
        <ele>1292.0</ele>
        <time>2019-03-26T11:27:28.000Z</time>
      </trkpt>
      <trkpt lat="42.577421" lon="-0.407249">
        <ele>1291.0</ele>
        <time>2019-03-26T11:27:29.000Z</time>
      </trkpt>
      <trkpt lat="42.577448" lon="-0.407288">
        <ele>1291.0</ele>
        <time>2019-03-26T11:27:30.000Z</time>
      </trkpt>
      <trkpt lat="42.577478" lon="-0.407324">
        <ele>1291.0</ele>
        <time>2019-03-26T11:27:31.000Z</time>
      </trkpt>
      <trkpt lat="42.577512" lon="-0.407357">
        <ele>1290.0</ele>
        <time>2019-03-26T11:27:32.000Z</time>
      </trkpt>
      <trkpt lat="42.577548" lon="-0.407386">
        <ele>1290.0</ele>
        <time>2019-03-26T11:27:33.000Z</time>
      </trkpt>
      <trkpt lat="42.577588" lon="-0.407409">
        <ele>1290.0</ele>
        <time>2019-03-26T11:27:34.000Z</time>
      </trkpt>
      <trkpt lat="42.577629" lon="-0.407428">
        <ele>1289.0</ele>
        <time>2019-03-26T11:27:35.000Z</time>
      </trkpt>
      <trkpt lat="42.57767" lon="-0.407446">
        <ele>1289.0</ele>
        <time>2019-03-26T11:27:36.000Z</time>
      </trkpt>
      <trkpt lat="42.577711" lon="-0.407462">
        <ele>1289.0</ele>
        <time>2019-03-26T11:27:37.000Z</time>
      </trkpt>
      <trkpt lat="42.577749" lon="-0.407479">
        <ele>1288.0</ele>
        <time>2019-03-26T11:27:38.000Z</time>
      </trkpt>
      <trkpt lat="42.577785" lon="-0.407498">
        <ele>1288.0</ele>
        <time>2019-03-26T11:27:39.000Z</time>
      </trkpt>
      <trkpt lat="42.577818" lon="-0.407518">
        <ele>1288.0</ele>
        <time>2019-03-26T11:27:40.000Z</time>
      </trkpt>
      <trkpt lat="42.577849" lon="-0.407538">
        <ele>1287.0</ele>
        <time>2019-03-26T11:27:41.000Z</time>
      </trkpt>
      <trkpt lat="42.577877" lon="-0.407559">
        <ele>1287.0</ele>
        <time>2019-03-26T11:27:42.000Z</time>
      </trkpt>
      <trkpt lat="42.577906" lon="-0.407579">
        <ele>1287.0</ele>
        <time>2019-03-26T11:27:43.000Z</time>
      </trkpt>
      <trkpt lat="42.577937" lon="-0.407596">
        <ele>1287.0</ele>
        <time>2019-03-26T11:27:44.000Z</time>
      </trkpt>
      <trkpt lat="42.57797" lon="-0.407609">
        <ele>1287.0</ele>
        <time>2019-03-26T11:27:45.000Z</time>
      </trkpt>
      <trkpt lat="42.578002" lon="-0.407605">
        <ele>1287.0</ele>
        <time>2019-03-26T11:27:46.000Z</time>
      </trkpt>
      <trkpt lat="42.578029" lon="-0.407577">
        <ele>1286.0</ele>
        <time>2019-03-26T11:27:47.000Z</time>
      </trkpt>
      <trkpt lat="42.578043" lon="-0.407531">
        <ele>1286.0</ele>
        <time>2019-03-26T11:27:48.000Z</time>
      </trkpt>
      <trkpt lat="42.578039" lon="-0.407477">
        <ele>1285.0</ele>
        <time>2019-03-26T11:27:49.000Z</time>
      </trkpt>
      <trkpt lat="42.57802" lon="-0.40742">
        <ele>1285.0</ele>
        <time>2019-03-26T11:27:50.000Z</time>
      </trkpt>
      <trkpt lat="42.577993" lon="-0.407363">
        <ele>1284.0</ele>
        <time>2019-03-26T11:27:51.000Z</time>
      </trkpt>
      <trkpt lat="42.577965" lon="-0.407308">
        <ele>1284.0</ele>
        <time>2019-03-26T11:27:52.000Z</time>
      </trkpt>
      <trkpt lat="42.577939" lon="-0.407258">
        <ele>1284.0</ele>
        <time>2019-03-26T11:27:53.000Z</time>
      </trkpt>
      <trkpt lat="42.577915" lon="-0.407211">
        <ele>1283.0</ele>
        <time>2019-03-26T11:27:54.000Z</time>
      </trkpt>
      <trkpt lat="42.577891" lon="-0.407163">
        <ele>1283.0</ele>
        <time>2019-03-26T11:27:55.000Z</time>
      </trkpt>
      <trkpt lat="42.577867" lon="-0.407112">
        <ele>1283.0</ele>
        <time>2019-03-26T11:27:56.000Z</time>
      </trkpt>
      <trkpt lat="42.577841" lon="-0.407062">
        <ele>1282.0</ele>
        <time>2019-03-26T11:27:57.000Z</time>
      </trkpt>
      <trkpt lat="42.577816" lon="-0.407014">
        <ele>1282.0</ele>
        <time>2019-03-26T11:27:58.000Z</time>
      </trkpt>
      <trkpt lat="42.577791" lon="-0.406971">
        <ele>1282.0</ele>
        <time>2019-03-26T11:27:59.000Z</time>
      </trkpt>
      <trkpt lat="42.577767" lon="-0.406936">
        <ele>1281.0</ele>
        <time>2019-03-26T11:28:00.000Z</time>
      </trkpt>
      <trkpt lat="42.577746" lon="-0.406907">
        <ele>1281.0</ele>
        <time>2019-03-26T11:28:01.000Z</time>
      </trkpt>
      <trkpt lat="42.577726" lon="-0.406881">
        <ele>1281.0</ele>
        <time>2019-03-26T11:28:02.000Z</time>
      </trkpt>
      <trkpt lat="42.577709" lon="-0.406854">
        <ele>1281.0</ele>
        <time>2019-03-26T11:28:03.000Z</time>
      </trkpt>
      <trkpt lat="42.577695" lon="-0.406824">
        <ele>1281.0</ele>
        <time>2019-03-26T11:28:04.000Z</time>
      </trkpt>
      <trkpt lat="42.577682" lon="-0.40679">
        <ele>1281.0</ele>
        <time>2019-03-26T11:28:05.000Z</time>
      </trkpt>
      <trkpt lat="42.57767" lon="-0.406753">
        <ele>1281.0</ele>
        <time>2019-03-26T11:28:06.000Z</time>
      </trkpt>
      <trkpt lat="42.577657" lon="-0.406711">
        <ele>1280.0</ele>
        <time>2019-03-26T11:28:07.000Z</time>
      </trkpt>
      <trkpt lat="42.577642" lon="-0.406664">
        <ele>1280.0</ele>
        <time>2019-03-26T11:28:08.000Z</time>
      </trkpt>
      <trkpt lat="42.577625" lon="-0.406615">
        <ele>1280.0</ele>
        <time>2019-03-26T11:28:09.000Z</time>
      </trkpt>
      <trkpt lat="42.577606" lon="-0.406565">
        <ele>1280.0</ele>
        <time>2019-03-26T11:28:10.000Z</time>
      </trkpt>
      <trkpt lat="42.577585" lon="-0.406514">
        <ele>1280.0</ele>
        <time>2019-03-26T11:28:11.000Z</time>
      </trkpt>
      <trkpt lat="42.577563" lon="-0.406463">
        <ele>1279.0</ele>
        <time>2019-03-26T11:28:12.000Z</time>
      </trkpt>
      <trkpt lat="42.577542" lon="-0.406412">
        <ele>1279.0</ele>
        <time>2019-03-26T11:28:13.000Z</time>
      </trkpt>
      <trkpt lat="42.577523" lon="-0.406358">
        <ele>1279.0</ele>
        <time>2019-03-26T11:28:14.000Z</time>
      </trkpt>
      <trkpt lat="42.577507" lon="-0.406303">
        <ele>1279.0</ele>
        <time>2019-03-26T11:28:15.000Z</time>
      </trkpt>
      <trkpt lat="42.577492" lon="-0.406247">
        <ele>1279.0</ele>
        <time>2019-03-26T11:28:16.000Z</time>
      </trkpt>
      <trkpt lat="42.577474" lon="-0.406192">
        <ele>1279.0</ele>
        <time>2019-03-26T11:28:17.000Z</time>
      </trkpt>
      <trkpt lat="42.57745" lon="-0.406138">
        <ele>1278.0</ele>
        <time>2019-03-26T11:28:18.000Z</time>
      </trkpt>
      <trkpt lat="42.577418" lon="-0.406089">
        <ele>1278.0</ele>
        <time>2019-03-26T11:28:19.000Z</time>
      </trkpt>
      <trkpt lat="42.577379" lon="-0.406045">
        <ele>1278.0</ele>
        <time>2019-03-26T11:28:20.000Z</time>
      </trkpt>
      <trkpt lat="42.577333" lon="-0.406009">
        <ele>1278.0</ele>
        <time>2019-03-26T11:28:21.000Z</time>
      </trkpt>
      <trkpt lat="42.577283" lon="-0.405984">
        <ele>1277.0</ele>
        <time>2019-03-26T11:28:22.000Z</time>
      </trkpt>
      <trkpt lat="42.57723" lon="-0.40597">
        <ele>1277.0</ele>
        <time>2019-03-26T11:28:23.000Z</time>
      </trkpt>
      <trkpt lat="42.577176" lon="-0.405959">
        <ele>1276.0</ele>
        <time>2019-03-26T11:28:24.000Z</time>
      </trkpt>
      <trkpt lat="42.577123" lon="-0.405944">
        <ele>1276.0</ele>
        <time>2019-03-26T11:28:25.000Z</time>
      </trkpt>
      <trkpt lat="42.577072" lon="-0.405919">
        <ele>1276.0</ele>
        <time>2019-03-26T11:28:26.000Z</time>
      </trkpt>
      <trkpt lat="42.577024" lon="-0.405887">
        <ele>1275.0</ele>
        <time>2019-03-26T11:28:27.000Z</time>
      </trkpt>
      <trkpt lat="42.576975" lon="-0.405856">
        <ele>1275.0</ele>
        <time>2019-03-26T11:28:28.000Z</time>
      </trkpt>
      <trkpt lat="42.576925" lon="-0.405833">
        <ele>1275.0</ele>
        <time>2019-03-26T11:28:29.000Z</time>
      </trkpt>
      <trkpt lat="42.576873" lon="-0.405821">
        <ele>1274.0</ele>
        <time>2019-03-26T11:28:30.000Z</time>
      </trkpt>
      <trkpt lat="42.57682" lon="-0.405811">
        <ele>1274.0</ele>
        <time>2019-03-26T11:28:31.000Z</time>
      </trkpt>
      <trkpt lat="42.576772" lon="-0.405792">
        <ele>1274.0</ele>
        <time>2019-03-26T11:28:32.000Z</time>
      </trkpt>
      <trkpt lat="42.576731" lon="-0.405753">
        <ele>1273.0</ele>
        <time>2019-03-26T11:28:33.000Z</time>
      </trkpt>
      <trkpt lat="42.576697" lon="-0.405703">
        <ele>1273.0</ele>
        <time>2019-03-26T11:28:34.000Z</time>
      </trkpt>
      <trkpt lat="42.576668" lon="-0.405649">
        <ele>1273.0</ele>
        <time>2019-03-26T11:28:35.000Z</time>
      </trkpt>
      <trkpt lat="42.57664" lon="-0.405591">
        <ele>1272.0</ele>
        <time>2019-03-26T11:28:36.000Z</time>
      </trkpt>
      <trkpt lat="42.576607" lon="-0.405529">
        <ele>1272.0</ele>
        <time>2019-03-26T11:28:37.000Z</time>
      </trkpt>
      <trkpt lat="42.576571" lon="-0.405465">
        <ele>1271.0</ele>
        <time>2019-03-26T11:28:38.000Z</time>
      </trkpt>
      <trkpt lat="42.576533" lon="-0.4054">
        <ele>1271.0</ele>
        <time>2019-03-26T11:28:39.000Z</time>
      </trkpt>
      <trkpt lat="42.576497" lon="-0.405338">
        <ele>1270.0</ele>
        <time>2019-03-26T11:28:40.000Z</time>
      </trkpt>
      <trkpt lat="42.576462" lon="-0.405277">
        <ele>1270.0</ele>
        <time>2019-03-26T11:28:41.000Z</time>
      </trkpt>
      <trkpt lat="42.576428" lon="-0.405217">
        <ele>1269.0</ele>
        <time>2019-03-26T11:28:42.000Z</time>
      </trkpt>
      <trkpt lat="42.576394" lon="-0.405158">
        <ele>1269.0</ele>
        <time>2019-03-26T11:28:43.000Z</time>
      </trkpt>
      <trkpt lat="42.576359" lon="-0.4051">
        <ele>1269.0</ele>
        <time>2019-03-26T11:28:44.000Z</time>
      </trkpt>
      <trkpt lat="42.576323" lon="-0.405042">
        <ele>1268.0</ele>
        <time>2019-03-26T11:28:45.000Z</time>
      </trkpt>
      <trkpt lat="42.576285" lon="-0.404983">
        <ele>1268.0</ele>
        <time>2019-03-26T11:28:46.000Z</time>
      </trkpt>
      <trkpt lat="42.576246" lon="-0.404923">
        <ele>1268.0</ele>
        <time>2019-03-26T11:28:47.000Z</time>
      </trkpt>
      <trkpt lat="42.576203" lon="-0.404863">
        <ele>1267.0</ele>
        <time>2019-03-26T11:28:48.000Z</time>
      </trkpt>
      <trkpt lat="42.576155" lon="-0.40481">
        <ele>1267.0</ele>
        <time>2019-03-26T11:28:49.000Z</time>
      </trkpt>
      <trkpt lat="42.576101" lon="-0.404767">
        <ele>1266.0</ele>
        <time>2019-03-26T11:28:50.000Z</time>
      </trkpt>
      <trkpt lat="42.576048" lon="-0.404726">
        <ele>1265.0</ele>
        <time>2019-03-26T11:28:51.000Z</time>
      </trkpt>
      <trkpt lat="42.576003" lon="-0.404677">
        <ele>1265.0</ele>
        <time>2019-03-26T11:28:52.000Z</time>
      </trkpt>
      <trkpt lat="42.575966" lon="-0.404619">
        <ele>1265.0</ele>
        <time>2019-03-26T11:28:53.000Z</time>
      </trkpt>
      <trkpt lat="42.575936" lon="-0.404556">
        <ele>1264.0</ele>
        <time>2019-03-26T11:28:54.000Z</time>
      </trkpt>
      <trkpt lat="42.57591" lon="-0.404491">
        <ele>1264.0</ele>
        <time>2019-03-26T11:28:55.000Z</time>
      </trkpt>
      <trkpt lat="42.575886" lon="-0.404425">
        <ele>1264.0</ele>
        <time>2019-03-26T11:28:56.000Z</time>
      </trkpt>
      <trkpt lat="42.575863" lon="-0.404361">
        <ele>1263.0</ele>
        <time>2019-03-26T11:28:57.000Z</time>
      </trkpt>
      <trkpt lat="42.575841" lon="-0.404299">
        <ele>1263.0</ele>
        <time>2019-03-26T11:28:58.000Z</time>
      </trkpt>
      <trkpt lat="42.575817" lon="-0.40424">
        <ele>1263.0</ele>
        <time>2019-03-26T11:28:59.000Z</time>
      </trkpt>
      <trkpt lat="42.575792" lon="-0.404184">
        <ele>1262.0</ele>
        <time>2019-03-26T11:29:00.000Z</time>
      </trkpt>
      <trkpt lat="42.575765" lon="-0.404129">
        <ele>1262.0</ele>
        <time>2019-03-26T11:29:01.000Z</time>
      </trkpt>
      <trkpt lat="42.575735" lon="-0.404074">
        <ele>1262.0</ele>
        <time>2019-03-26T11:29:02.000Z</time>
      </trkpt>
      <trkpt lat="42.575704" lon="-0.404019">
        <ele>1261.0</ele>
        <time>2019-03-26T11:29:03.000Z</time>
      </trkpt>
      <trkpt lat="42.575671" lon="-0.403963">
        <ele>1261.0</ele>
        <time>2019-03-26T11:29:04.000Z</time>
      </trkpt>
      <trkpt lat="42.575637" lon="-0.403905">
        <ele>1260.0</ele>
        <time>2019-03-26T11:29:05.000Z</time>
      </trkpt>
      <trkpt lat="42.575601" lon="-0.403847">
        <ele>1260.0</ele>
        <time>2019-03-26T11:29:06.000Z</time>
      </trkpt>
      <trkpt lat="42.575564" lon="-0.403788">
        <ele>1259.0</ele>
        <time>2019-03-26T11:29:07.000Z</time>
      </trkpt>
      <trkpt lat="42.575528" lon="-0.403728">
        <ele>1259.0</ele>
        <time>2019-03-26T11:29:08.000Z</time>
      </trkpt>
      <trkpt lat="42.575491" lon="-0.403667">
        <ele>1258.0</ele>
        <time>2019-03-26T11:29:09.000Z</time>
      </trkpt>
      <trkpt lat="42.575455" lon="-0.403605">
        <ele>1258.0</ele>
        <time>2019-03-26T11:29:10.000Z</time>
      </trkpt>
      <trkpt lat="42.575417" lon="-0.403546">
        <ele>1258.0</ele>
        <time>2019-03-26T11:29:11.000Z</time>
      </trkpt>
      <trkpt lat="42.575376" lon="-0.403491">
        <ele>1258.0</ele>
        <time>2019-03-26T11:29:12.000Z</time>
      </trkpt>
      <trkpt lat="42.575331" lon="-0.403444">
        <ele>1257.0</ele>
        <time>2019-03-26T11:29:13.000Z</time>
      </trkpt>
      <trkpt lat="42.57528" lon="-0.403406">
        <ele>1257.0</ele>
        <time>2019-03-26T11:29:14.000Z</time>
      </trkpt>
      <trkpt lat="42.575227" lon="-0.403374">
        <ele>1257.0</ele>
        <time>2019-03-26T11:29:15.000Z</time>
      </trkpt>
      <trkpt lat="42.575177" lon="-0.403342">
        <ele>1256.0</ele>
        <time>2019-03-26T11:29:16.000Z</time>
      </trkpt>
      <trkpt lat="42.575133" lon="-0.403305">
        <ele>1256.0</ele>
        <time>2019-03-26T11:29:17.000Z</time>
      </trkpt>
      <trkpt lat="42.5751" lon="-0.403261">
        <ele>1255.0</ele>
        <time>2019-03-26T11:29:18.000Z</time>
      </trkpt>
      <trkpt lat="42.57508" lon="-0.403213">
        <ele>1255.0</ele>
        <time>2019-03-26T11:29:19.000Z</time>
      </trkpt>
      <trkpt lat="42.575074" lon="-0.403167">
        <ele>1254.0</ele>
        <time>2019-03-26T11:29:20.000Z</time>
      </trkpt>
      <trkpt lat="42.575084" lon="-0.403127">
        <ele>1253.0</ele>
        <time>2019-03-26T11:29:21.000Z</time>
      </trkpt>
      <trkpt lat="42.575111" lon="-0.403099">
        <ele>1253.0</ele>
        <time>2019-03-26T11:29:22.000Z</time>
      </trkpt>
      <trkpt lat="42.57515" lon="-0.403082">
        <ele>1253.0</ele>
        <time>2019-03-26T11:29:23.000Z</time>
      </trkpt>
      <trkpt lat="42.575196" lon="-0.403074">
        <ele>1253.0</ele>
        <time>2019-03-26T11:29:24.000Z</time>
      </trkpt>
      <trkpt lat="42.575244" lon="-0.403073">
        <ele>1253.0</ele>
        <time>2019-03-26T11:29:25.000Z</time>
      </trkpt>
      <trkpt lat="42.575293" lon="-0.40308">
        <ele>1252.0</ele>
        <time>2019-03-26T11:29:26.000Z</time>
      </trkpt>
      <trkpt lat="42.575343" lon="-0.403093">
        <ele>1252.0</ele>
        <time>2019-03-26T11:29:27.000Z</time>
      </trkpt>
      <trkpt lat="42.575394" lon="-0.403112">
        <ele>1252.0</ele>
        <time>2019-03-26T11:29:28.000Z</time>
      </trkpt>
      <trkpt lat="42.575445" lon="-0.403136">
        <ele>1251.0</ele>
        <time>2019-03-26T11:29:29.000Z</time>
      </trkpt>
      <trkpt lat="42.575497" lon="-0.403166">
        <ele>1251.0</ele>
        <time>2019-03-26T11:29:30.000Z</time>
      </trkpt>
      <trkpt lat="42.57555" lon="-0.4032">
        <ele>1250.0</ele>
        <time>2019-03-26T11:29:31.000Z</time>
      </trkpt>
      <trkpt lat="42.575602" lon="-0.403238">
        <ele>1250.0</ele>
        <time>2019-03-26T11:29:32.000Z</time>
      </trkpt>
      <trkpt lat="42.575655" lon="-0.403278">
        <ele>1249.0</ele>
        <time>2019-03-26T11:29:33.000Z</time>
      </trkpt>
      <trkpt lat="42.575707" lon="-0.403316">
        <ele>1249.0</ele>
        <time>2019-03-26T11:29:34.000Z</time>
      </trkpt>
      <trkpt lat="42.575758" lon="-0.40335">
        <ele>1248.0</ele>
        <time>2019-03-26T11:29:35.000Z</time>
      </trkpt>
      <trkpt lat="42.575809" lon="-0.403378">
        <ele>1248.0</ele>
        <time>2019-03-26T11:29:36.000Z</time>
      </trkpt>
      <trkpt lat="42.57586" lon="-0.403398">
        <ele>1248.0</ele>
        <time>2019-03-26T11:29:37.000Z</time>
      </trkpt>
      <trkpt lat="42.575913" lon="-0.40341">
        <ele>1247.0</ele>
        <time>2019-03-26T11:29:38.000Z</time>
      </trkpt>
      <trkpt lat="42.575969" lon="-0.403415">
        <ele>1247.0</ele>
        <time>2019-03-26T11:29:39.000Z</time>
      </trkpt>
      <trkpt lat="42.576026" lon="-0.403417">
        <ele>1247.0</ele>
        <time>2019-03-26T11:29:40.000Z</time>
      </trkpt>
      <trkpt lat="42.576083" lon="-0.403423">
        <ele>1246.0</ele>
        <time>2019-03-26T11:29:41.000Z</time>
      </trkpt>
      <trkpt lat="42.576139" lon="-0.403438">
        <ele>1246.0</ele>
        <time>2019-03-26T11:29:42.000Z</time>
      </trkpt>
      <trkpt lat="42.576191" lon="-0.403465">
        <ele>1246.0</ele>
        <time>2019-03-26T11:29:43.000Z</time>
      </trkpt>
      <trkpt lat="42.576241" lon="-0.403503">
        <ele>1246.0</ele>
        <time>2019-03-26T11:29:44.000Z</time>
      </trkpt>
      <trkpt lat="42.576289" lon="-0.403547">
        <ele>1245.0</ele>
        <time>2019-03-26T11:29:45.000Z</time>
      </trkpt>
      <trkpt lat="42.576337" lon="-0.403591">
        <ele>1245.0</ele>
        <time>2019-03-26T11:29:46.000Z</time>
      </trkpt>
      <trkpt lat="42.576384" lon="-0.403632">
        <ele>1244.0</ele>
        <time>2019-03-26T11:29:47.000Z</time>
      </trkpt>
      <trkpt lat="42.576432" lon="-0.403668">
        <ele>1244.0</ele>
        <time>2019-03-26T11:29:48.000Z</time>
      </trkpt>
      <trkpt lat="42.57648" lon="-0.403699">
        <ele>1244.0</ele>
        <time>2019-03-26T11:29:49.000Z</time>
      </trkpt>
      <trkpt lat="42.576528" lon="-0.403722">
        <ele>1243.0</ele>
        <time>2019-03-26T11:29:50.000Z</time>
      </trkpt>
      <trkpt lat="42.576577" lon="-0.40374">
        <ele>1243.0</ele>
        <time>2019-03-26T11:29:51.000Z</time>
      </trkpt>
      <trkpt lat="42.576621" lon="-0.403762">
        <ele>1242.0</ele>
        <time>2019-03-26T11:29:52.000Z</time>
      </trkpt>
      <trkpt lat="42.576659" lon="-0.403797">
        <ele>1242.0</ele>
        <time>2019-03-26T11:29:53.000Z</time>
      </trkpt>
      <trkpt lat="42.576695" lon="-0.403833">
        <ele>1241.0</ele>
        <time>2019-03-26T11:29:54.000Z</time>
      </trkpt>
      <trkpt lat="42.57673" lon="-0.403868">
        <ele>1241.0</ele>
        <time>2019-03-26T11:29:55.000Z</time>
      </trkpt>
      <trkpt lat="42.576767" lon="-0.403899">
        <ele>1241.0</ele>
        <time>2019-03-26T11:29:56.000Z</time>
      </trkpt>
      <trkpt lat="42.576804" lon="-0.403925">
        <ele>1240.0</ele>
        <time>2019-03-26T11:29:57.000Z</time>
      </trkpt>
      <trkpt lat="42.576844" lon="-0.403946">
        <ele>1240.0</ele>
        <time>2019-03-26T11:29:58.000Z</time>
      </trkpt>
      <trkpt lat="42.576884" lon="-0.403964">
        <ele>1239.0</ele>
        <time>2019-03-26T11:29:59.000Z</time>
      </trkpt>
      <trkpt lat="42.576922" lon="-0.403978">
        <ele>1239.0</ele>
        <time>2019-03-26T11:30:00.000Z</time>
      </trkpt>
      <trkpt lat="42.576959" lon="-0.403993">
        <ele>1239.0</ele>
        <time>2019-03-26T11:30:01.000Z</time>
      </trkpt>
      <trkpt lat="42.576992" lon="-0.404007">
        <ele>1239.0</ele>
        <time>2019-03-26T11:30:02.000Z</time>
      </trkpt>
      <trkpt lat="42.577027" lon="-0.404015">
        <ele>1239.0</ele>
        <time>2019-03-26T11:30:03.000Z</time>
      </trkpt>
      <trkpt lat="42.577066" lon="-0.404011">
        <ele>1239.0</ele>
        <time>2019-03-26T11:30:04.000Z</time>
      </trkpt>
      <trkpt lat="42.577099" lon="-0.403991">
        <ele>1238.0</ele>
        <time>2019-03-26T11:30:05.000Z</time>
      </trkpt>
      <trkpt lat="42.577115" lon="-0.403957">
        <ele>1238.0</ele>
        <time>2019-03-26T11:30:06.000Z</time>
      </trkpt>
      <trkpt lat="42.577114" lon="-0.403917">
        <ele>1237.0</ele>
        <time>2019-03-26T11:30:07.000Z</time>
      </trkpt>
      <trkpt lat="42.577098" lon="-0.403882">
        <ele>1237.0</ele>
        <time>2019-03-26T11:30:08.000Z</time>
      </trkpt>
      <trkpt lat="42.577068" lon="-0.403858">
        <ele>1237.0</ele>
        <time>2019-03-26T11:30:09.000Z</time>
      </trkpt>
      <trkpt lat="42.577029" lon="-0.403842">
        <ele>1236.0</ele>
        <time>2019-03-26T11:30:10.000Z</time>
      </trkpt>
      <trkpt lat="42.576987" lon="-0.403826">
        <ele>1236.0</ele>
        <time>2019-03-26T11:30:11.000Z</time>
      </trkpt>
      <trkpt lat="42.576946" lon="-0.403802">
        <ele>1236.0</ele>
        <time>2019-03-26T11:30:12.000Z</time>
      </trkpt>
      <trkpt lat="42.576911" lon="-0.403765">
        <ele>1235.0</ele>
        <time>2019-03-26T11:30:13.000Z</time>
      </trkpt>
      <trkpt lat="42.576882" lon="-0.403717">
        <ele>1235.0</ele>
        <time>2019-03-26T11:30:14.000Z</time>
      </trkpt>
      <trkpt lat="42.576856" lon="-0.403662">
        <ele>1234.0</ele>
        <time>2019-03-26T11:30:15.000Z</time>
      </trkpt>
      <trkpt lat="42.576832" lon="-0.403605">
        <ele>1234.0</ele>
        <time>2019-03-26T11:30:16.000Z</time>
      </trkpt>
      <trkpt lat="42.576809" lon="-0.403547">
        <ele>1234.0</ele>
        <time>2019-03-26T11:30:17.000Z</time>
      </trkpt>
      <trkpt lat="42.576786" lon="-0.40349">
        <ele>1234.0</ele>
        <time>2019-03-26T11:30:18.000Z</time>
      </trkpt>
      <trkpt lat="42.576764" lon="-0.403432">
        <ele>1233.0</ele>
        <time>2019-03-26T11:30:19.000Z</time>
      </trkpt>
      <trkpt lat="42.576744" lon="-0.403374">
        <ele>1233.0</ele>
        <time>2019-03-26T11:30:20.000Z</time>
      </trkpt>
      <trkpt lat="42.576725" lon="-0.403314">
        <ele>1232.0</ele>
        <time>2019-03-26T11:30:21.000Z</time>
      </trkpt>
      <trkpt lat="42.576708" lon="-0.403252">
        <ele>1232.0</ele>
        <time>2019-03-26T11:30:22.000Z</time>
      </trkpt>
      <trkpt lat="42.576693" lon="-0.403188">
        <ele>1231.0</ele>
        <time>2019-03-26T11:30:23.000Z</time>
      </trkpt>
      <trkpt lat="42.57668" lon="-0.403121">
        <ele>1231.0</ele>
        <time>2019-03-26T11:30:24.000Z</time>
      </trkpt>
      <trkpt lat="42.576668" lon="-0.403053">
        <ele>1231.0</ele>
        <time>2019-03-26T11:30:25.000Z</time>
      </trkpt>
      <trkpt lat="42.576654" lon="-0.402985">
        <ele>1231.0</ele>
        <time>2019-03-26T11:30:26.000Z</time>
      </trkpt>
      <trkpt lat="42.576636" lon="-0.402921">
        <ele>1230.0</ele>
        <time>2019-03-26T11:30:27.000Z</time>
      </trkpt>
      <trkpt lat="42.576613" lon="-0.402861">
        <ele>1230.0</ele>
        <time>2019-03-26T11:30:28.000Z</time>
      </trkpt>
      <trkpt lat="42.576586" lon="-0.402804">
        <ele>1230.0</ele>
        <time>2019-03-26T11:30:29.000Z</time>
      </trkpt>
      <trkpt lat="42.576558" lon="-0.402747">
        <ele>1229.0</ele>
        <time>2019-03-26T11:30:30.000Z</time>
      </trkpt>
      <trkpt lat="42.576533" lon="-0.402688">
        <ele>1228.0</ele>
        <time>2019-03-26T11:30:31.000Z</time>
      </trkpt>
      <trkpt lat="42.57651" lon="-0.402625">
        <ele>1228.0</ele>
        <time>2019-03-26T11:30:32.000Z</time>
      </trkpt>
      <trkpt lat="42.576491" lon="-0.402559">
        <ele>1228.0</ele>
        <time>2019-03-26T11:30:33.000Z</time>
      </trkpt>
      <trkpt lat="42.576473" lon="-0.402492">
        <ele>1228.0</ele>
        <time>2019-03-26T11:30:34.000Z</time>
      </trkpt>
      <trkpt lat="42.576455" lon="-0.402425">
        <ele>1227.0</ele>
        <time>2019-03-26T11:30:35.000Z</time>
      </trkpt>
      <trkpt lat="42.576435" lon="-0.402359">
        <ele>1227.0</ele>
        <time>2019-03-26T11:30:36.000Z</time>
      </trkpt>
      <trkpt lat="42.576412" lon="-0.402295">
        <ele>1227.0</ele>
        <time>2019-03-26T11:30:37.000Z</time>
      </trkpt>
      <trkpt lat="42.576384" lon="-0.402236">
        <ele>1227.0</ele>
        <time>2019-03-26T11:30:38.000Z</time>
      </trkpt>
      <trkpt lat="42.57635" lon="-0.402182">
        <ele>1226.0</ele>
        <time>2019-03-26T11:30:39.000Z</time>
      </trkpt>
      <trkpt lat="42.576312" lon="-0.402131">
        <ele>1226.0</ele>
        <time>2019-03-26T11:30:40.000Z</time>
      </trkpt>
      <trkpt lat="42.576272" lon="-0.402082">
        <ele>1225.0</ele>
        <time>2019-03-26T11:30:41.000Z</time>
      </trkpt>
      <trkpt lat="42.57623" lon="-0.402031">
        <ele>1225.0</ele>
        <time>2019-03-26T11:30:42.000Z</time>
      </trkpt>
      <trkpt lat="42.57619" lon="-0.401976">
        <ele>1224.0</ele>
        <time>2019-03-26T11:30:43.000Z</time>
      </trkpt>
      <trkpt lat="42.576152" lon="-0.40192">
        <ele>1224.0</ele>
        <time>2019-03-26T11:30:44.000Z</time>
      </trkpt>
      <trkpt lat="42.576116" lon="-0.401861">
        <ele>1223.0</ele>
        <time>2019-03-26T11:30:45.000Z</time>
      </trkpt>
      <trkpt lat="42.576083" lon="-0.401802">
        <ele>1223.0</ele>
        <time>2019-03-26T11:30:46.000Z</time>
      </trkpt>
      <trkpt lat="42.576053" lon="-0.401743">
        <ele>1222.0</ele>
        <time>2019-03-26T11:30:47.000Z</time>
      </trkpt>
      <trkpt lat="42.576025" lon="-0.401687">
        <ele>1222.0</ele>
        <time>2019-03-26T11:30:48.000Z</time>
      </trkpt>
      <trkpt lat="42.575996" lon="-0.401636">
        <ele>1222.0</ele>
        <time>2019-03-26T11:30:49.000Z</time>
      </trkpt>
      <trkpt lat="42.575964" lon="-0.401593">
        <ele>1222.0</ele>
        <time>2019-03-26T11:30:50.000Z</time>
      </trkpt>
      <trkpt lat="42.575927" lon="-0.40156">
        <ele>1221.0</ele>
        <time>2019-03-26T11:30:51.000Z</time>
      </trkpt>
      <trkpt lat="42.575885" lon="-0.401535">
        <ele>1221.0</ele>
        <time>2019-03-26T11:30:52.000Z</time>
      </trkpt>
      <trkpt lat="42.575838" lon="-0.401517">
        <ele>1220.0</ele>
        <time>2019-03-26T11:30:53.000Z</time>
      </trkpt>
      <trkpt lat="42.575787" lon="-0.401502">
        <ele>1220.0</ele>
        <time>2019-03-26T11:30:54.000Z</time>
      </trkpt>
      <trkpt lat="42.575732" lon="-0.40149">
        <ele>1219.0</ele>
        <time>2019-03-26T11:30:55.000Z</time>
      </trkpt>
      <trkpt lat="42.575675" lon="-0.401476">
        <ele>1219.0</ele>
        <time>2019-03-26T11:30:56.000Z</time>
      </trkpt>
      <trkpt lat="42.575618" lon="-0.401459">
        <ele>1218.0</ele>
        <time>2019-03-26T11:30:57.000Z</time>
      </trkpt>
      <trkpt lat="42.575561" lon="-0.401436">
        <ele>1218.0</ele>
        <time>2019-03-26T11:30:58.000Z</time>
      </trkpt>
      <trkpt lat="42.575506" lon="-0.401406">
        <ele>1218.0</ele>
        <time>2019-03-26T11:30:59.000Z</time>
      </trkpt>
      <trkpt lat="42.575457" lon="-0.401368">
        <ele>1217.0</ele>
        <time>2019-03-26T11:31:00.000Z</time>
      </trkpt>
      <trkpt lat="42.575415" lon="-0.40132">
        <ele>1217.0</ele>
        <time>2019-03-26T11:31:01.000Z</time>
      </trkpt>
      <trkpt lat="42.575382" lon="-0.401261">
        <ele>1216.0</ele>
        <time>2019-03-26T11:31:02.000Z</time>
      </trkpt>
      <trkpt lat="42.575354" lon="-0.401194">
        <ele>1216.0</ele>
        <time>2019-03-26T11:31:03.000Z</time>
      </trkpt>
      <trkpt lat="42.575327" lon="-0.401124">
        <ele>1216.0</ele>
        <time>2019-03-26T11:31:04.000Z</time>
      </trkpt>
      <trkpt lat="42.575297" lon="-0.401055">
        <ele>1215.0</ele>
        <time>2019-03-26T11:31:05.000Z</time>
      </trkpt>
      <trkpt lat="42.57526" lon="-0.400989">
        <ele>1215.0</ele>
        <time>2019-03-26T11:31:06.000Z</time>
      </trkpt>
      <trkpt lat="42.575217" lon="-0.400929">
        <ele>1214.0</ele>
        <time>2019-03-26T11:31:07.000Z</time>
      </trkpt>
      <trkpt lat="42.57517" lon="-0.400876">
        <ele>1214.0</ele>
        <time>2019-03-26T11:31:08.000Z</time>
      </trkpt>
      <trkpt lat="42.575119" lon="-0.40083">
        <ele>1214.0</ele>
        <time>2019-03-26T11:31:09.000Z</time>
      </trkpt>
      <trkpt lat="42.575065" lon="-0.400791">
        <ele>1213.0</ele>
        <time>2019-03-26T11:31:10.000Z</time>
      </trkpt>
      <trkpt lat="42.575006" lon="-0.400757">
        <ele>1213.0</ele>
        <time>2019-03-26T11:31:11.000Z</time>
      </trkpt>
      <trkpt lat="42.57495" lon="-0.400712">
        <ele>1212.0</ele>
        <time>2019-03-26T11:31:12.000Z</time>
      </trkpt>
      <trkpt lat="42.574904" lon="-0.400644">
        <ele>1212.0</ele>
        <time>2019-03-26T11:31:13.000Z</time>
      </trkpt>
      <trkpt lat="42.574861" lon="-0.400567">
        <ele>1212.0</ele>
        <time>2019-03-26T11:31:14.000Z</time>
      </trkpt>
      <trkpt lat="42.574815" lon="-0.400499">
        <ele>1211.0</ele>
        <time>2019-03-26T11:31:15.000Z</time>
      </trkpt>
      <trkpt lat="42.57477" lon="-0.400436">
        <ele>1210.0</ele>
        <time>2019-03-26T11:31:16.000Z</time>
      </trkpt>
      <trkpt lat="42.574729" lon="-0.400369">
        <ele>1210.0</ele>
        <time>2019-03-26T11:31:17.000Z</time>
      </trkpt>
      <trkpt lat="42.574692" lon="-0.400301">
        <ele>1209.0</ele>
        <time>2019-03-26T11:31:18.000Z</time>
      </trkpt>
      <trkpt lat="42.574653" lon="-0.400239">
        <ele>1209.0</ele>
        <time>2019-03-26T11:31:19.000Z</time>
      </trkpt>
      <trkpt lat="42.574608" lon="-0.400186">
        <ele>1209.0</ele>
        <time>2019-03-26T11:31:20.000Z</time>
      </trkpt>
      <trkpt lat="42.574554" lon="-0.400146">
        <ele>1208.0</ele>
        <time>2019-03-26T11:31:21.000Z</time>
      </trkpt>
      <trkpt lat="42.574495" lon="-0.400122">
        <ele>1208.0</ele>
        <time>2019-03-26T11:31:22.000Z</time>
      </trkpt>
      <trkpt lat="42.574432" lon="-0.400112">
        <ele>1207.0</ele>
        <time>2019-03-26T11:31:23.000Z</time>
      </trkpt>
      <trkpt lat="42.574369" lon="-0.400117">
        <ele>1207.0</ele>
        <time>2019-03-26T11:31:24.000Z</time>
      </trkpt>
      <trkpt lat="42.574307" lon="-0.400134">
        <ele>1206.0</ele>
        <time>2019-03-26T11:31:25.000Z</time>
      </trkpt>
      <trkpt lat="42.574247" lon="-0.400161">
        <ele>1206.0</ele>
        <time>2019-03-26T11:31:26.000Z</time>
      </trkpt>
      <trkpt lat="42.574188" lon="-0.400196">
        <ele>1206.0</ele>
        <time>2019-03-26T11:31:27.000Z</time>
      </trkpt>
      <trkpt lat="42.574132" lon="-0.400235">
        <ele>1205.0</ele>
        <time>2019-03-26T11:31:28.000Z</time>
      </trkpt>
      <trkpt lat="42.574075" lon="-0.400274">
        <ele>1205.0</ele>
        <time>2019-03-26T11:31:29.000Z</time>
      </trkpt>
      <trkpt lat="42.574014" lon="-0.400307">
        <ele>1204.0</ele>
        <time>2019-03-26T11:31:30.000Z</time>
      </trkpt>
      <trkpt lat="42.573949" lon="-0.400331">
        <ele>1203.0</ele>
        <time>2019-03-26T11:31:31.000Z</time>
      </trkpt>
      <trkpt lat="42.573881" lon="-0.400346">
        <ele>1203.0</ele>
        <time>2019-03-26T11:31:32.000Z</time>
      </trkpt>
      <trkpt lat="42.573813" lon="-0.400353">
        <ele>1202.0</ele>
        <time>2019-03-26T11:31:33.000Z</time>
      </trkpt>
      <trkpt lat="42.573747" lon="-0.400356">
        <ele>1202.0</ele>
        <time>2019-03-26T11:31:34.000Z</time>
      </trkpt>
      <trkpt lat="42.573685" lon="-0.400357">
        <ele>1201.0</ele>
        <time>2019-03-26T11:31:35.000Z</time>
      </trkpt>
      <trkpt lat="42.573625" lon="-0.400367">
        <ele>1201.0</ele>
        <time>2019-03-26T11:31:36.000Z</time>
      </trkpt>
      <trkpt lat="42.573564" lon="-0.400387">
        <ele>1200.0</ele>
        <time>2019-03-26T11:31:37.000Z</time>
      </trkpt>
      <trkpt lat="42.573503" lon="-0.400384">
        <ele>1200.0</ele>
        <time>2019-03-26T11:31:38.000Z</time>
      </trkpt>
      <trkpt lat="42.573439" lon="-0.400374">
        <ele>1200.0</ele>
        <time>2019-03-26T11:31:39.000Z</time>
      </trkpt>
      <trkpt lat="42.573375" lon="-0.400375">
        <ele>1199.0</ele>
        <time>2019-03-26T11:31:40.000Z</time>
      </trkpt>
      <trkpt lat="42.573311" lon="-0.400382">
        <ele>1199.0</ele>
        <time>2019-03-26T11:31:41.000Z</time>
      </trkpt>
      <trkpt lat="42.573245" lon="-0.40038">
        <ele>1198.0</ele>
        <time>2019-03-26T11:31:42.000Z</time>
      </trkpt>
      <trkpt lat="42.57318" lon="-0.40037">
        <ele>1198.0</ele>
        <time>2019-03-26T11:31:43.000Z</time>
      </trkpt>
      <trkpt lat="42.573116" lon="-0.400353">
        <ele>1198.0</ele>
        <time>2019-03-26T11:31:44.000Z</time>
      </trkpt>
      <trkpt lat="42.573052" lon="-0.40033">
        <ele>1197.0</ele>
        <time>2019-03-26T11:31:45.000Z</time>
      </trkpt>
      <trkpt lat="42.57299" lon="-0.400304">
        <ele>1197.0</ele>
        <time>2019-03-26T11:31:46.000Z</time>
      </trkpt>
      <trkpt lat="42.572929" lon="-0.400276">
        <ele>1196.0</ele>
        <time>2019-03-26T11:31:47.000Z</time>
      </trkpt>
      <trkpt lat="42.572871" lon="-0.400248">
        <ele>1196.0</ele>
        <time>2019-03-26T11:31:48.000Z</time>
      </trkpt>
      <trkpt lat="42.572815" lon="-0.400222">
        <ele>1196.0</ele>
        <time>2019-03-26T11:31:49.000Z</time>
      </trkpt>
      <trkpt lat="42.572761" lon="-0.4002">
        <ele>1195.0</ele>
        <time>2019-03-26T11:31:50.000Z</time>
      </trkpt>
      <trkpt lat="42.572712" lon="-0.400179">
        <ele>1194.0</ele>
        <time>2019-03-26T11:31:51.000Z</time>
      </trkpt>
      <trkpt lat="42.57267" lon="-0.400159">
        <ele>1194.0</ele>
        <time>2019-03-26T11:31:52.000Z</time>
      </trkpt>
      <trkpt lat="42.572637" lon="-0.400135">
        <ele>1193.0</ele>
        <time>2019-03-26T11:31:53.000Z</time>
      </trkpt>
      <trkpt lat="42.572617" lon="-0.400103">
        <ele>1193.0</ele>
        <time>2019-03-26T11:31:54.000Z</time>
      </trkpt>
      <trkpt lat="42.572615" lon="-0.400059">
        <ele>1193.0</ele>
        <time>2019-03-26T11:31:55.000Z</time>
      </trkpt>
      <trkpt lat="42.572629" lon="-0.40001">
        <ele>1192.0</ele>
        <time>2019-03-26T11:31:56.000Z</time>
      </trkpt>
      <trkpt lat="42.572656" lon="-0.399964">
        <ele>1192.0</ele>
        <time>2019-03-26T11:31:57.000Z</time>
      </trkpt>
      <trkpt lat="42.572691" lon="-0.399923">
        <ele>1192.0</ele>
        <time>2019-03-26T11:31:58.000Z</time>
      </trkpt>
      <trkpt lat="42.572725" lon="-0.399889">
        <ele>1191.0</ele>
        <time>2019-03-26T11:31:59.000Z</time>
      </trkpt>
      <trkpt lat="42.57276" lon="-0.399858">
        <ele>1191.0</ele>
        <time>2019-03-26T11:32:00.000Z</time>
      </trkpt>
      <trkpt lat="42.572796" lon="-0.399828">
        <ele>1190.0</ele>
        <time>2019-03-26T11:32:01.000Z</time>
      </trkpt>
      <trkpt lat="42.572834" lon="-0.399795">
        <ele>1190.0</ele>
        <time>2019-03-26T11:32:02.000Z</time>
      </trkpt>
      <trkpt lat="42.572873" lon="-0.399761">
        <ele>1189.0</ele>
        <time>2019-03-26T11:32:03.000Z</time>
      </trkpt>
      <trkpt lat="42.572913" lon="-0.399725">
        <ele>1189.0</ele>
        <time>2019-03-26T11:32:04.000Z</time>
      </trkpt>
      <trkpt lat="42.572954" lon="-0.399686">
        <ele>1189.0</ele>
        <time>2019-03-26T11:32:05.000Z</time>
      </trkpt>
      <trkpt lat="42.572998" lon="-0.399648">
        <ele>1188.0</ele>
        <time>2019-03-26T11:32:06.000Z</time>
      </trkpt>
      <trkpt lat="42.573043" lon="-0.399611">
        <ele>1188.0</ele>
        <time>2019-03-26T11:32:07.000Z</time>
      </trkpt>
      <trkpt lat="42.573092" lon="-0.399578">
        <ele>1187.0</ele>
        <time>2019-03-26T11:32:08.000Z</time>
      </trkpt>
      <trkpt lat="42.573142" lon="-0.399548">
        <ele>1187.0</ele>
        <time>2019-03-26T11:32:09.000Z</time>
      </trkpt>
      <trkpt lat="42.573192" lon="-0.399521">
        <ele>1186.0</ele>
        <time>2019-03-26T11:32:10.000Z</time>
      </trkpt>
      <trkpt lat="42.57324" lon="-0.399498">
        <ele>1186.0</ele>
        <time>2019-03-26T11:32:11.000Z</time>
      </trkpt>
      <trkpt lat="42.573286" lon="-0.399477">
        <ele>1186.0</ele>
        <time>2019-03-26T11:32:12.000Z</time>
      </trkpt>
      <trkpt lat="42.573331" lon="-0.399457">
        <ele>1186.0</ele>
        <time>2019-03-26T11:32:13.000Z</time>
      </trkpt>
      <trkpt lat="42.573375" lon="-0.399437">
        <ele>1186.0</ele>
        <time>2019-03-26T11:32:14.000Z</time>
      </trkpt>
      <trkpt lat="42.573422" lon="-0.399417">
        <ele>1185.0</ele>
        <time>2019-03-26T11:32:15.000Z</time>
      </trkpt>
      <trkpt lat="42.573473" lon="-0.399395">
        <ele>1185.0</ele>
        <time>2019-03-26T11:32:16.000Z</time>
      </trkpt>
      <trkpt lat="42.573526" lon="-0.39937">
        <ele>1184.0</ele>
        <time>2019-03-26T11:32:17.000Z</time>
      </trkpt>
      <trkpt lat="42.573579" lon="-0.399339">
        <ele>1184.0</ele>
        <time>2019-03-26T11:32:18.000Z</time>
      </trkpt>
      <trkpt lat="42.573629" lon="-0.3993">
        <ele>1184.0</ele>
        <time>2019-03-26T11:32:19.000Z</time>
      </trkpt>
      <trkpt lat="42.573675" lon="-0.399253">
        <ele>1183.0</ele>
        <time>2019-03-26T11:32:20.000Z</time>
      </trkpt>
      <trkpt lat="42.573718" lon="-0.3992">
        <ele>1183.0</ele>
        <time>2019-03-26T11:32:21.000Z</time>
      </trkpt>
      <trkpt lat="42.573761" lon="-0.399145">
        <ele>1183.0</ele>
        <time>2019-03-26T11:32:22.000Z</time>
      </trkpt>
      <trkpt lat="42.573804" lon="-0.39909">
        <ele>1182.0</ele>
        <time>2019-03-26T11:32:23.000Z</time>
      </trkpt>
      <trkpt lat="42.573848" lon="-0.399035">
        <ele>1182.0</ele>
        <time>2019-03-26T11:32:24.000Z</time>
      </trkpt>
      <trkpt lat="42.573892" lon="-0.398982">
        <ele>1181.0</ele>
        <time>2019-03-26T11:32:25.000Z</time>
      </trkpt>
      <trkpt lat="42.573936" lon="-0.398929">
        <ele>1181.0</ele>
        <time>2019-03-26T11:32:26.000Z</time>
      </trkpt>
      <trkpt lat="42.573979" lon="-0.398876">
        <ele>1180.0</ele>
        <time>2019-03-26T11:32:27.000Z</time>
      </trkpt>
      <trkpt lat="42.574021" lon="-0.398825">
        <ele>1180.0</ele>
        <time>2019-03-26T11:32:28.000Z</time>
      </trkpt>
      <trkpt lat="42.574065" lon="-0.398774">
        <ele>1180.0</ele>
        <time>2019-03-26T11:32:29.000Z</time>
      </trkpt>
      <trkpt lat="42.574109" lon="-0.398726">
        <ele>1179.0</ele>
        <time>2019-03-26T11:32:30.000Z</time>
      </trkpt>
      <trkpt lat="42.574155" lon="-0.39868">
        <ele>1179.0</ele>
        <time>2019-03-26T11:32:31.000Z</time>
      </trkpt>
      <trkpt lat="42.574203" lon="-0.398637">
        <ele>1178.0</ele>
        <time>2019-03-26T11:32:32.000Z</time>
      </trkpt>
      <trkpt lat="42.574253" lon="-0.3986">
        <ele>1178.0</ele>
        <time>2019-03-26T11:32:33.000Z</time>
      </trkpt>
      <trkpt lat="42.574306" lon="-0.398569">
        <ele>1177.0</ele>
        <time>2019-03-26T11:32:34.000Z</time>
      </trkpt>
      <trkpt lat="42.574361" lon="-0.398545">
        <ele>1177.0</ele>
        <time>2019-03-26T11:32:35.000Z</time>
      </trkpt>
      <trkpt lat="42.574417" lon="-0.398521">
        <ele>1177.0</ele>
        <time>2019-03-26T11:32:36.000Z</time>
      </trkpt>
      <trkpt lat="42.574471" lon="-0.398488">
        <ele>1176.0</ele>
        <time>2019-03-26T11:32:37.000Z</time>
      </trkpt>
      <trkpt lat="42.574521" lon="-0.39844">
        <ele>1176.0</ele>
        <time>2019-03-26T11:32:38.000Z</time>
      </trkpt>
      <trkpt lat="42.574568" lon="-0.398385">
        <ele>1175.0</ele>
        <time>2019-03-26T11:32:39.000Z</time>
      </trkpt>
      <trkpt lat="42.574612" lon="-0.398331">
        <ele>1175.0</ele>
        <time>2019-03-26T11:32:40.000Z</time>
      </trkpt>
      <trkpt lat="42.574656" lon="-0.39828">
        <ele>1175.0</ele>
        <time>2019-03-26T11:32:41.000Z</time>
      </trkpt>
      <trkpt lat="42.574706" lon="-0.398236">
        <ele>1174.0</ele>
        <time>2019-03-26T11:32:42.000Z</time>
      </trkpt>
      <trkpt lat="42.574762" lon="-0.398203">
        <ele>1174.0</ele>
        <time>2019-03-26T11:32:43.000Z</time>
      </trkpt>
      <trkpt lat="42.574822" lon="-0.398189">
        <ele>1173.0</ele>
        <time>2019-03-26T11:32:44.000Z</time>
      </trkpt>
      <trkpt lat="42.574881" lon="-0.398184">
        <ele>1173.0</ele>
        <time>2019-03-26T11:32:45.000Z</time>
      </trkpt>
      <trkpt lat="42.574933" lon="-0.398182">
        <ele>1172.0</ele>
        <time>2019-03-26T11:32:46.000Z</time>
      </trkpt>
      <trkpt lat="42.574977" lon="-0.398179">
        <ele>1172.0</ele>
        <time>2019-03-26T11:32:47.000Z</time>
      </trkpt>
      <trkpt lat="42.575014" lon="-0.398177">
        <ele>1171.0</ele>
        <time>2019-03-26T11:32:48.000Z</time>
      </trkpt>
      <trkpt lat="42.575044" lon="-0.398175">
        <ele>1171.0</ele>
        <time>2019-03-26T11:32:49.000Z</time>
      </trkpt>
      <trkpt lat="42.575068" lon="-0.398173">
        <ele>1171.0</ele>
        <time>2019-03-26T11:32:50.000Z</time>
      </trkpt>
      <trkpt lat="42.575087" lon="-0.398171">
        <ele>1171.0</ele>
        <time>2019-03-26T11:32:51.000Z</time>
      </trkpt>
      <trkpt lat="42.575105" lon="-0.398169">
        <ele>1171.0</ele>
        <time>2019-03-26T11:32:52.000Z</time>
      </trkpt>
      <trkpt lat="42.575125" lon="-0.398165">
        <ele>1171.0</ele>
        <time>2019-03-26T11:32:53.000Z</time>
      </trkpt>
      <trkpt lat="42.575147" lon="-0.39816">
        <ele>1171.0</ele>
        <time>2019-03-26T11:32:54.000Z</time>
      </trkpt>
      <trkpt lat="42.575172" lon="-0.398153">
        <ele>1170.0</ele>
        <time>2019-03-26T11:32:55.000Z</time>
      </trkpt>
      <trkpt lat="42.5752" lon="-0.398146">
        <ele>1170.0</ele>
        <time>2019-03-26T11:32:56.000Z</time>
      </trkpt>
      <trkpt lat="42.575232" lon="-0.398138">
        <ele>1170.0</ele>
        <time>2019-03-26T11:32:57.000Z</time>
      </trkpt>
      <trkpt lat="42.575267" lon="-0.398131">
        <ele>1170.0</ele>
        <time>2019-03-26T11:32:58.000Z</time>
      </trkpt>
      <trkpt lat="42.575305" lon="-0.398128">
        <ele>1170.0</ele>
        <time>2019-03-26T11:32:59.000Z</time>
      </trkpt>
      <trkpt lat="42.575345" lon="-0.398131">
        <ele>1169.0</ele>
        <time>2019-03-26T11:33:00.000Z</time>
      </trkpt>
      <trkpt lat="42.575387" lon="-0.398142">
        <ele>1169.0</ele>
        <time>2019-03-26T11:33:01.000Z</time>
      </trkpt>
      <trkpt lat="42.575429" lon="-0.39816">
        <ele>1169.0</ele>
        <time>2019-03-26T11:33:02.000Z</time>
      </trkpt>
      <trkpt lat="42.57547" lon="-0.398185">
        <ele>1169.0</ele>
        <time>2019-03-26T11:33:03.000Z</time>
      </trkpt>
      <trkpt lat="42.575508" lon="-0.398215">
        <ele>1169.0</ele>
        <time>2019-03-26T11:33:04.000Z</time>
      </trkpt>
      <trkpt lat="42.575542" lon="-0.39825">
        <ele>1168.0</ele>
        <time>2019-03-26T11:33:05.000Z</time>
      </trkpt>
      <trkpt lat="42.575576" lon="-0.398285">
        <ele>1168.0</ele>
        <time>2019-03-26T11:33:06.000Z</time>
      </trkpt>
      <trkpt lat="42.575611" lon="-0.398315">
        <ele>1168.0</ele>
        <time>2019-03-26T11:33:07.000Z</time>
      </trkpt>
      <trkpt lat="42.575652" lon="-0.398339">
        <ele>1168.0</ele>
        <time>2019-03-26T11:33:08.000Z</time>
      </trkpt>
      <trkpt lat="42.575697" lon="-0.398353">
        <ele>1167.0</ele>
        <time>2019-03-26T11:33:09.000Z</time>
      </trkpt>
      <trkpt lat="42.575747" lon="-0.398359">
        <ele>1167.0</ele>
        <time>2019-03-26T11:33:10.000Z</time>
      </trkpt>
      <trkpt lat="42.575801" lon="-0.398356">
        <ele>1167.0</ele>
        <time>2019-03-26T11:33:11.000Z</time>
      </trkpt>
      <trkpt lat="42.575859" lon="-0.398346">
        <ele>1167.0</ele>
        <time>2019-03-26T11:33:12.000Z</time>
      </trkpt>
      <trkpt lat="42.575918" lon="-0.398332">
        <ele>1166.0</ele>
        <time>2019-03-26T11:33:13.000Z</time>
      </trkpt>
      <trkpt lat="42.575976" lon="-0.398321">
        <ele>1165.0</ele>
        <time>2019-03-26T11:33:14.000Z</time>
      </trkpt>
      <trkpt lat="42.576033" lon="-0.398318">
        <ele>1165.0</ele>
        <time>2019-03-26T11:33:15.000Z</time>
      </trkpt>
      <trkpt lat="42.576086" lon="-0.398328">
        <ele>1165.0</ele>
        <time>2019-03-26T11:33:16.000Z</time>
      </trkpt>
      <trkpt lat="42.576134" lon="-0.398346">
        <ele>1164.0</ele>
        <time>2019-03-26T11:33:17.000Z</time>
      </trkpt>
      <trkpt lat="42.576178" lon="-0.398368">
        <ele>1164.0</ele>
        <time>2019-03-26T11:33:18.000Z</time>
      </trkpt>
      <trkpt lat="42.576218" lon="-0.398387">
        <ele>1164.0</ele>
        <time>2019-03-26T11:33:19.000Z</time>
      </trkpt>
      <trkpt lat="42.576253" lon="-0.398399">
        <ele>1163.0</ele>
        <time>2019-03-26T11:33:20.000Z</time>
      </trkpt>
      <trkpt lat="42.576287" lon="-0.398407">
        <ele>1162.0</ele>
        <time>2019-03-26T11:33:21.000Z</time>
      </trkpt>
      <trkpt lat="42.576322" lon="-0.398413">
        <ele>1162.0</ele>
        <time>2019-03-26T11:33:22.000Z</time>
      </trkpt>
      <trkpt lat="42.57636" lon="-0.39842">
        <ele>1161.0</ele>
        <time>2019-03-26T11:33:23.000Z</time>
      </trkpt>
      <trkpt lat="42.576402" lon="-0.39842">
        <ele>1161.0</ele>
        <time>2019-03-26T11:33:24.000Z</time>
      </trkpt>
      <trkpt lat="42.576446" lon="-0.398406">
        <ele>1161.0</ele>
        <time>2019-03-26T11:33:25.000Z</time>
      </trkpt>
      <trkpt lat="42.576492" lon="-0.398381">
        <ele>1161.0</ele>
        <time>2019-03-26T11:33:26.000Z</time>
      </trkpt>
      <trkpt lat="42.576538" lon="-0.398349">
        <ele>1160.0</ele>
        <time>2019-03-26T11:33:27.000Z</time>
      </trkpt>
      <trkpt lat="42.576582" lon="-0.398318">
        <ele>1160.0</ele>
        <time>2019-03-26T11:33:28.000Z</time>
      </trkpt>
      <trkpt lat="42.576624" lon="-0.398295">
        <ele>1160.0</ele>
        <time>2019-03-26T11:33:29.000Z</time>
      </trkpt>
      <trkpt lat="42.576662" lon="-0.398284">
        <ele>1160.0</ele>
        <time>2019-03-26T11:33:30.000Z</time>
      </trkpt>
      <trkpt lat="42.576695" lon="-0.398284">
        <ele>1160.0</ele>
        <time>2019-03-26T11:33:31.000Z</time>
      </trkpt>
      <trkpt lat="42.576723" lon="-0.398289">
        <ele>1159.0</ele>
        <time>2019-03-26T11:33:32.000Z</time>
      </trkpt>
      <trkpt lat="42.576744" lon="-0.398297">
        <ele>1159.0</ele>
        <time>2019-03-26T11:33:33.000Z</time>
      </trkpt>
      <trkpt lat="42.576757" lon="-0.398303">
        <ele>1159.0</ele>
        <time>2019-03-26T11:33:34.000Z</time>
      </trkpt>
      <trkpt lat="42.576768" lon="-0.398308">
        <ele>1159.0</ele>
        <time>2019-03-26T11:33:35.000Z</time>
      </trkpt>
      <trkpt lat="42.576781" lon="-0.398313">
        <ele>1159.0</ele>
        <time>2019-03-26T11:33:36.000Z</time>
      </trkpt>
      <trkpt lat="42.576799" lon="-0.39832">
        <ele>1159.0</ele>
        <time>2019-03-26T11:33:37.000Z</time>
      </trkpt>
      <trkpt lat="42.576822" lon="-0.398331">
        <ele>1159.0</ele>
        <time>2019-03-26T11:33:38.000Z</time>
      </trkpt>
      <trkpt lat="42.57685" lon="-0.398346">
        <ele>1159.0</ele>
        <time>2019-03-26T11:33:39.000Z</time>
      </trkpt>
      <trkpt lat="42.576881" lon="-0.398367">
        <ele>1159.0</ele>
        <time>2019-03-26T11:33:40.000Z</time>
      </trkpt>
      <trkpt lat="42.576915" lon="-0.398396">
        <ele>1159.0</ele>
        <time>2019-03-26T11:33:41.000Z</time>
      </trkpt>
      <trkpt lat="42.576952" lon="-0.39843">
        <ele>1158.0</ele>
        <time>2019-03-26T11:33:42.000Z</time>
      </trkpt>
      <trkpt lat="42.576991" lon="-0.398469">
        <ele>1158.0</ele>
        <time>2019-03-26T11:33:43.000Z</time>
      </trkpt>
      <trkpt lat="42.577032" lon="-0.398512">
        <ele>1157.0</ele>
        <time>2019-03-26T11:33:44.000Z</time>
      </trkpt>
      <trkpt lat="42.577075" lon="-0.398557">
        <ele>1157.0</ele>
        <time>2019-03-26T11:33:45.000Z</time>
      </trkpt>
      <trkpt lat="42.57712" lon="-0.398602">
        <ele>1156.0</ele>
        <time>2019-03-26T11:33:46.000Z</time>
      </trkpt>
      <trkpt lat="42.577164" lon="-0.398642">
        <ele>1156.0</ele>
        <time>2019-03-26T11:33:47.000Z</time>
      </trkpt>
      <trkpt lat="42.577207" lon="-0.398673">
        <ele>1156.0</ele>
        <time>2019-03-26T11:33:48.000Z</time>
      </trkpt>
      <trkpt lat="42.577248" lon="-0.398693">
        <ele>1156.0</ele>
        <time>2019-03-26T11:33:49.000Z</time>
      </trkpt>
      <trkpt lat="42.577285" lon="-0.398695">
        <ele>1155.0</ele>
        <time>2019-03-26T11:33:50.000Z</time>
      </trkpt>
      <trkpt lat="42.577315" lon="-0.398675">
        <ele>1155.0</ele>
        <time>2019-03-26T11:33:51.000Z</time>
      </trkpt>
      <trkpt lat="42.577336" lon="-0.39863">
        <ele>1154.0</ele>
        <time>2019-03-26T11:33:52.000Z</time>
      </trkpt>
      <trkpt lat="42.577346" lon="-0.39857">
        <ele>1154.0</ele>
        <time>2019-03-26T11:33:53.000Z</time>
      </trkpt>
      <trkpt lat="42.577345" lon="-0.398504">
        <ele>1153.0</ele>
        <time>2019-03-26T11:33:54.000Z</time>
      </trkpt>
      <trkpt lat="42.577337" lon="-0.398438">
        <ele>1153.0</ele>
        <time>2019-03-26T11:33:55.000Z</time>
      </trkpt>
      <trkpt lat="42.577327" lon="-0.398375">
        <ele>1153.0</ele>
        <time>2019-03-26T11:33:56.000Z</time>
      </trkpt>
      <trkpt lat="42.577316" lon="-0.398316">
        <ele>1153.0</ele>
        <time>2019-03-26T11:33:57.000Z</time>
      </trkpt>
      <trkpt lat="42.577301" lon="-0.398261">
        <ele>1152.0</ele>
        <time>2019-03-26T11:33:58.000Z</time>
      </trkpt>
      <trkpt lat="42.577282" lon="-0.398211">
        <ele>1152.0</ele>
        <time>2019-03-26T11:33:59.000Z</time>
      </trkpt>
      <trkpt lat="42.577257" lon="-0.398166">
        <ele>1152.0</ele>
        <time>2019-03-26T11:34:00.000Z</time>
      </trkpt>
      <trkpt lat="42.577227" lon="-0.398123">
        <ele>1151.0</ele>
        <time>2019-03-26T11:34:01.000Z</time>
      </trkpt>
      <trkpt lat="42.577195" lon="-0.398078">
        <ele>1151.0</ele>
        <time>2019-03-26T11:34:02.000Z</time>
      </trkpt>
      <trkpt lat="42.577162" lon="-0.398027">
        <ele>1151.0</ele>
        <time>2019-03-26T11:34:03.000Z</time>
      </trkpt>
      <trkpt lat="42.57713" lon="-0.397968">
        <ele>1151.0</ele>
        <time>2019-03-26T11:34:04.000Z</time>
      </trkpt>
      <trkpt lat="42.577095" lon="-0.397908">
        <ele>1150.0</ele>
        <time>2019-03-26T11:34:05.000Z</time>
      </trkpt>
      <trkpt lat="42.577055" lon="-0.397857">
        <ele>1150.0</ele>
        <time>2019-03-26T11:34:06.000Z</time>
      </trkpt>
      <trkpt lat="42.577009" lon="-0.397821">
        <ele>1150.0</ele>
        <time>2019-03-26T11:34:07.000Z</time>
      </trkpt>
      <trkpt lat="42.576958" lon="-0.3978">
        <ele>1150.0</ele>
        <time>2019-03-26T11:34:08.000Z</time>
      </trkpt>
      <trkpt lat="42.576907" lon="-0.39779">
        <ele>1149.0</ele>
        <time>2019-03-26T11:34:09.000Z</time>
      </trkpt>
      <trkpt lat="42.576859" lon="-0.397787">
        <ele>1149.0</ele>
        <time>2019-03-26T11:34:10.000Z</time>
      </trkpt>
      <trkpt lat="42.576817" lon="-0.397788">
        <ele>1148.0</ele>
        <time>2019-03-26T11:34:11.000Z</time>
      </trkpt>
      <trkpt lat="42.576779" lon="-0.39779">
        <ele>1148.0</ele>
        <time>2019-03-26T11:34:12.000Z</time>
      </trkpt>
      <trkpt lat="42.576741" lon="-0.397792">
        <ele>1147.0</ele>
        <time>2019-03-26T11:34:13.000Z</time>
      </trkpt>
      <trkpt lat="42.5767" lon="-0.397791">
        <ele>1147.0</ele>
        <time>2019-03-26T11:34:14.000Z</time>
      </trkpt>
      <trkpt lat="42.576655" lon="-0.397785">
        <ele>1147.0</ele>
        <time>2019-03-26T11:34:15.000Z</time>
      </trkpt>
      <trkpt lat="42.576605" lon="-0.397773">
        <ele>1147.0</ele>
        <time>2019-03-26T11:34:16.000Z</time>
      </trkpt>
      <trkpt lat="42.576554" lon="-0.397753">
        <ele>1146.0</ele>
        <time>2019-03-26T11:34:17.000Z</time>
      </trkpt>
      <trkpt lat="42.576502" lon="-0.397726">
        <ele>1146.0</ele>
        <time>2019-03-26T11:34:18.000Z</time>
      </trkpt>
      <trkpt lat="42.576453" lon="-0.397692">
        <ele>1145.0</ele>
        <time>2019-03-26T11:34:19.000Z</time>
      </trkpt>
      <trkpt lat="42.576406" lon="-0.397654">
        <ele>1145.0</ele>
        <time>2019-03-26T11:34:20.000Z</time>
      </trkpt>
      <trkpt lat="42.576364" lon="-0.397619">
        <ele>1144.0</ele>
        <time>2019-03-26T11:34:21.000Z</time>
      </trkpt>
      <trkpt lat="42.576325" lon="-0.397591">
        <ele>1144.0</ele>
        <time>2019-03-26T11:34:22.000Z</time>
      </trkpt>
      <trkpt lat="42.57629" lon="-0.397568">
        <ele>1143.0</ele>
        <time>2019-03-26T11:34:23.000Z</time>
      </trkpt>
      <trkpt lat="42.576257" lon="-0.397547">
        <ele>1143.0</ele>
        <time>2019-03-26T11:34:24.000Z</time>
      </trkpt>
      <trkpt lat="42.576223" lon="-0.397526">
        <ele>1143.0</ele>
        <time>2019-03-26T11:34:25.000Z</time>
      </trkpt>
      <trkpt lat="42.576188" lon="-0.397501">
        <ele>1142.0</ele>
        <time>2019-03-26T11:34:26.000Z</time>
      </trkpt>
      <trkpt lat="42.576153" lon="-0.397473">
        <ele>1142.0</ele>
        <time>2019-03-26T11:34:27.000Z</time>
      </trkpt>
      <trkpt lat="42.576116" lon="-0.397442">
        <ele>1141.0</ele>
        <time>2019-03-26T11:34:28.000Z</time>
      </trkpt>
      <trkpt lat="42.57608" lon="-0.39741">
        <ele>1142.0</ele>
        <time>2019-03-26T11:34:29.000Z</time>
      </trkpt>
      <trkpt lat="42.576044" lon="-0.397375">
        <ele>1141.0</ele>
        <time>2019-03-26T11:34:30.000Z</time>
      </trkpt>
      <trkpt lat="42.576009" lon="-0.397339">
        <ele>1141.0</ele>
        <time>2019-03-26T11:34:31.000Z</time>
      </trkpt>
      <trkpt lat="42.575976" lon="-0.397301">
        <ele>1140.0</ele>
        <time>2019-03-26T11:34:32.000Z</time>
      </trkpt>
      <trkpt lat="42.575943" lon="-0.397261">
        <ele>1140.0</ele>
        <time>2019-03-26T11:34:33.000Z</time>
      </trkpt>
      <trkpt lat="42.575912" lon="-0.397219">
        <ele>1140.0</ele>
        <time>2019-03-26T11:34:34.000Z</time>
      </trkpt>
      <trkpt lat="42.575881" lon="-0.397174">
        <ele>1140.0</ele>
        <time>2019-03-26T11:34:35.000Z</time>
      </trkpt>
      <trkpt lat="42.575849" lon="-0.397129">
        <ele>1139.0</ele>
        <time>2019-03-26T11:34:36.000Z</time>
      </trkpt>
      <trkpt lat="42.575814" lon="-0.397082">
        <ele>1139.0</ele>
        <time>2019-03-26T11:34:37.000Z</time>
      </trkpt>
      <trkpt lat="42.575776" lon="-0.397035">
        <ele>1138.0</ele>
        <time>2019-03-26T11:34:38.000Z</time>
      </trkpt>
      <trkpt lat="42.575737" lon="-0.396986">
        <ele>1138.0</ele>
        <time>2019-03-26T11:34:39.000Z</time>
      </trkpt>
      <trkpt lat="42.575698" lon="-0.396934">
        <ele>1137.0</ele>
        <time>2019-03-26T11:34:40.000Z</time>
      </trkpt>
      <trkpt lat="42.575659" lon="-0.396879">
        <ele>1137.0</ele>
        <time>2019-03-26T11:34:41.000Z</time>
      </trkpt>
      <trkpt lat="42.575621" lon="-0.396821">
        <ele>1137.0</ele>
        <time>2019-03-26T11:34:42.000Z</time>
      </trkpt>
      <trkpt lat="42.575586" lon="-0.396759">
        <ele>1137.0</ele>
        <time>2019-03-26T11:34:43.000Z</time>
      </trkpt>
      <trkpt lat="42.575553" lon="-0.396692">
        <ele>1137.0</ele>
        <time>2019-03-26T11:34:44.000Z</time>
      </trkpt>
      <trkpt lat="42.575524" lon="-0.396621">
        <ele>1136.0</ele>
        <time>2019-03-26T11:34:45.000Z</time>
      </trkpt>
      <trkpt lat="42.575497" lon="-0.396546">
        <ele>1136.0</ele>
        <time>2019-03-26T11:34:46.000Z</time>
      </trkpt>
      <trkpt lat="42.57547" lon="-0.396472">
        <ele>1135.0</ele>
        <time>2019-03-26T11:34:47.000Z</time>
      </trkpt>
      <trkpt lat="42.575443" lon="-0.3964">
        <ele>1135.0</ele>
        <time>2019-03-26T11:34:48.000Z</time>
      </trkpt>
      <trkpt lat="42.575414" lon="-0.396334">
        <ele>1135.0</ele>
        <time>2019-03-26T11:34:49.000Z</time>
      </trkpt>
      <trkpt lat="42.575381" lon="-0.396276">
        <ele>1135.0</ele>
        <time>2019-03-26T11:34:50.000Z</time>
      </trkpt>
      <trkpt lat="42.575343" lon="-0.396228">
        <ele>1134.0</ele>
        <time>2019-03-26T11:34:51.000Z</time>
      </trkpt>
      <trkpt lat="42.575299" lon="-0.396193">
        <ele>1134.0</ele>
        <time>2019-03-26T11:34:52.000Z</time>
      </trkpt>
      <trkpt lat="42.57525" lon="-0.396168">
        <ele>1133.0</ele>
        <time>2019-03-26T11:34:53.000Z</time>
      </trkpt>
      <trkpt lat="42.575199" lon="-0.39615">
        <ele>1133.0</ele>
        <time>2019-03-26T11:34:54.000Z</time>
      </trkpt>
      <trkpt lat="42.575146" lon="-0.396136">
        <ele>1132.0</ele>
        <time>2019-03-26T11:34:55.000Z</time>
      </trkpt>
      <trkpt lat="42.575094" lon="-0.396122">
        <ele>1131.0</ele>
        <time>2019-03-26T11:34:56.000Z</time>
      </trkpt>
      <trkpt lat="42.575043" lon="-0.396109">
        <ele>1131.0</ele>
        <time>2019-03-26T11:34:57.000Z</time>
      </trkpt>
      <trkpt lat="42.574992" lon="-0.396094">
        <ele>1130.0</ele>
        <time>2019-03-26T11:34:58.000Z</time>
      </trkpt>
      <trkpt lat="42.574941" lon="-0.396078">
        <ele>1130.0</ele>
        <time>2019-03-26T11:34:59.000Z</time>
      </trkpt>
      <trkpt lat="42.57489" lon="-0.396061">
        <ele>1130.0</ele>
        <time>2019-03-26T11:35:00.000Z</time>
      </trkpt>
      <trkpt lat="42.574837" lon="-0.396049">
        <ele>1129.0</ele>
        <time>2019-03-26T11:35:01.000Z</time>
      </trkpt>
      <trkpt lat="42.574783" lon="-0.396048">
        <ele>1129.0</ele>
        <time>2019-03-26T11:35:02.000Z</time>
      </trkpt>
      <trkpt lat="42.574726" lon="-0.396055">
        <ele>1129.0</ele>
        <time>2019-03-26T11:35:03.000Z</time>
      </trkpt>
      <trkpt lat="42.574669" lon="-0.396068">
        <ele>1128.0</ele>
        <time>2019-03-26T11:35:04.000Z</time>
      </trkpt>
      <trkpt lat="42.57461" lon="-0.396078">
        <ele>1128.0</ele>
        <time>2019-03-26T11:35:05.000Z</time>
      </trkpt>
      <trkpt lat="42.574549" lon="-0.396079">
        <ele>1127.0</ele>
        <time>2019-03-26T11:35:06.000Z</time>
      </trkpt>
      <trkpt lat="42.574484" lon="-0.396066">
        <ele>1126.0</ele>
        <time>2019-03-26T11:35:07.000Z</time>
      </trkpt>
      <trkpt lat="42.574419" lon="-0.396043">
        <ele>1126.0</ele>
        <time>2019-03-26T11:35:08.000Z</time>
      </trkpt>
      <trkpt lat="42.574359" lon="-0.396015">
        <ele>1126.0</ele>
        <time>2019-03-26T11:35:09.000Z</time>
      </trkpt>
      <trkpt lat="42.574306" lon="-0.395987">
        <ele>1125.0</ele>
        <time>2019-03-26T11:35:10.000Z</time>
      </trkpt>
      <trkpt lat="42.574264" lon="-0.395965">
        <ele>1125.0</ele>
        <time>2019-03-26T11:35:11.000Z</time>
      </trkpt>
      <trkpt lat="42.57423" lon="-0.395949">
        <ele>1124.0</ele>
        <time>2019-03-26T11:35:12.000Z</time>
      </trkpt>
      <trkpt lat="42.574198" lon="-0.395938">
        <ele>1124.0</ele>
        <time>2019-03-26T11:35:13.000Z</time>
      </trkpt>
      <trkpt lat="42.574164" lon="-0.395934">
        <ele>1123.0</ele>
        <time>2019-03-26T11:35:14.000Z</time>
      </trkpt>
      <trkpt lat="42.574126" lon="-0.395934">
        <ele>1123.0</ele>
        <time>2019-03-26T11:35:15.000Z</time>
      </trkpt>
      <trkpt lat="42.574082" lon="-0.395935">
        <ele>1123.0</ele>
        <time>2019-03-26T11:35:16.000Z</time>
      </trkpt>
      <trkpt lat="42.574034" lon="-0.395933">
        <ele>1123.0</ele>
        <time>2019-03-26T11:35:17.000Z</time>
      </trkpt>
      <trkpt lat="42.573984" lon="-0.395922">
        <ele>1123.0</ele>
        <time>2019-03-26T11:35:18.000Z</time>
      </trkpt>
      <trkpt lat="42.573933" lon="-0.3959">
        <ele>1122.0</ele>
        <time>2019-03-26T11:35:19.000Z</time>
      </trkpt>
      <trkpt lat="42.573881" lon="-0.395868">
        <ele>1122.0</ele>
        <time>2019-03-26T11:35:20.000Z</time>
      </trkpt>
      <trkpt lat="42.573828" lon="-0.39583">
        <ele>1122.0</ele>
        <time>2019-03-26T11:35:21.000Z</time>
      </trkpt>
      <trkpt lat="42.573774" lon="-0.395789">
        <ele>1121.0</ele>
        <time>2019-03-26T11:35:22.000Z</time>
      </trkpt>
      <trkpt lat="42.573721" lon="-0.395747">
        <ele>1121.0</ele>
        <time>2019-03-26T11:35:23.000Z</time>
      </trkpt>
      <trkpt lat="42.57367" lon="-0.395706">
        <ele>1120.0</ele>
        <time>2019-03-26T11:35:24.000Z</time>
      </trkpt>
      <trkpt lat="42.573623" lon="-0.395668">
        <ele>1120.0</ele>
        <time>2019-03-26T11:35:25.000Z</time>
      </trkpt>
      <trkpt lat="42.573582" lon="-0.395635">
        <ele>1119.0</ele>
        <time>2019-03-26T11:35:26.000Z</time>
      </trkpt>
      <trkpt lat="42.573552" lon="-0.395607">
        <ele>1119.0</ele>
        <time>2019-03-26T11:35:27.000Z</time>
      </trkpt>
      <trkpt lat="42.573533" lon="-0.395582">
        <ele>1119.0</ele>
        <time>2019-03-26T11:35:28.000Z</time>
      </trkpt>
      <trkpt lat="42.573509" lon="-0.395552">
        <ele>1118.0</ele>
        <time>2019-03-26T11:35:29.000Z</time>
      </trkpt>
      <trkpt lat="42.573477" lon="-0.395519">
        <ele>1118.0</ele>
        <time>2019-03-26T11:35:30.000Z</time>
      </trkpt>
      <trkpt lat="42.57344" lon="-0.395484">
        <ele>1118.0</ele>
        <time>2019-03-26T11:35:31.000Z</time>
      </trkpt>
      <trkpt lat="42.573396" lon="-0.395452">
        <ele>1117.0</ele>
        <time>2019-03-26T11:35:32.000Z</time>
      </trkpt>
      <trkpt lat="42.573348" lon="-0.395422">
        <ele>1117.0</ele>
        <time>2019-03-26T11:35:33.000Z</time>
      </trkpt>
      <trkpt lat="42.573296" lon="-0.395394">
        <ele>1116.0</ele>
        <time>2019-03-26T11:35:34.000Z</time>
      </trkpt>
      <trkpt lat="42.573243" lon="-0.395365">
        <ele>1116.0</ele>
        <time>2019-03-26T11:35:35.000Z</time>
      </trkpt>
      <trkpt lat="42.57319" lon="-0.395332">
        <ele>1116.0</ele>
        <time>2019-03-26T11:35:36.000Z</time>
      </trkpt>
      <trkpt lat="42.573137" lon="-0.395297">
        <ele>1115.0</ele>
        <time>2019-03-26T11:35:37.000Z</time>
      </trkpt>
      <trkpt lat="42.573087" lon="-0.395261">
        <ele>1115.0</ele>
        <time>2019-03-26T11:35:38.000Z</time>
      </trkpt>
      <trkpt lat="42.573042" lon="-0.395226">
        <ele>1114.0</ele>
        <time>2019-03-26T11:35:39.000Z</time>
      </trkpt>
      <trkpt lat="42.573002" lon="-0.395193">
        <ele>1114.0</ele>
        <time>2019-03-26T11:35:40.000Z</time>
      </trkpt>
      <trkpt lat="42.572972" lon="-0.395162">
        <ele>1114.0</ele>
        <time>2019-03-26T11:35:41.000Z</time>
      </trkpt>
      <trkpt lat="42.572956" lon="-0.395133">
        <ele>1113.0</ele>
        <time>2019-03-26T11:35:42.000Z</time>
      </trkpt>
      <trkpt lat="42.572956" lon="-0.395104">
        <ele>1113.0</ele>
        <time>2019-03-26T11:35:43.000Z</time>
      </trkpt>
      <trkpt lat="42.572976" lon="-0.395077">
        <ele>1112.0</ele>
        <time>2019-03-26T11:35:44.000Z</time>
      </trkpt>
      <trkpt lat="42.573004" lon="-0.395064">
        <ele>1112.0</ele>
        <time>2019-03-26T11:35:45.000Z</time>
      </trkpt>
      <trkpt lat="42.573032" lon="-0.395073">
        <ele>1112.0</ele>
        <time>2019-03-26T11:35:46.000Z</time>
      </trkpt>
      <trkpt lat="42.573063" lon="-0.395094">
        <ele>1112.0</ele>
        <time>2019-03-26T11:35:47.000Z</time>
      </trkpt>
      <trkpt lat="42.573103" lon="-0.395115">
        <ele>1111.0</ele>
        <time>2019-03-26T11:35:48.000Z</time>
      </trkpt>
      <trkpt lat="42.573151" lon="-0.395133">
        <ele>1111.0</ele>
        <time>2019-03-26T11:35:49.000Z</time>
      </trkpt>
      <trkpt lat="42.573202" lon="-0.395148">
        <ele>1111.0</ele>
        <time>2019-03-26T11:35:50.000Z</time>
      </trkpt>
      <trkpt lat="42.573253" lon="-0.39516">
        <ele>1110.0</ele>
        <time>2019-03-26T11:35:51.000Z</time>
      </trkpt>
      <trkpt lat="42.573306" lon="-0.395169">
        <ele>1110.0</ele>
        <time>2019-03-26T11:35:52.000Z</time>
      </trkpt>
      <trkpt lat="42.573359" lon="-0.395177">
        <ele>1110.0</ele>
        <time>2019-03-26T11:35:53.000Z</time>
      </trkpt>
      <trkpt lat="42.573414" lon="-0.395183">
        <ele>1109.0</ele>
        <time>2019-03-26T11:35:54.000Z</time>
      </trkpt>
      <trkpt lat="42.57347" lon="-0.39519">
        <ele>1109.0</ele>
        <time>2019-03-26T11:35:55.000Z</time>
      </trkpt>
      <trkpt lat="42.573525" lon="-0.395206">
        <ele>1109.0</ele>
        <time>2019-03-26T11:35:56.000Z</time>
      </trkpt>
      <trkpt lat="42.573577" lon="-0.395232">
        <ele>1109.0</ele>
        <time>2019-03-26T11:35:57.000Z</time>
      </trkpt>
      <trkpt lat="42.57363" lon="-0.395258">
        <ele>1108.0</ele>
        <time>2019-03-26T11:35:58.000Z</time>
      </trkpt>
      <trkpt lat="42.573687" lon="-0.395269">
        <ele>1108.0</ele>
        <time>2019-03-26T11:35:59.000Z</time>
      </trkpt>
      <trkpt lat="42.573748" lon="-0.395268">
        <ele>1107.0</ele>
        <time>2019-03-26T11:36:00.000Z</time>
      </trkpt>
      <trkpt lat="42.57381" lon="-0.395261">
        <ele>1107.0</ele>
        <time>2019-03-26T11:36:01.000Z</time>
      </trkpt>
      <trkpt lat="42.573869" lon="-0.395254">
        <ele>1107.0</ele>
        <time>2019-03-26T11:36:02.000Z</time>
      </trkpt>
      <trkpt lat="42.573919" lon="-0.395253">
        <ele>1106.0</ele>
        <time>2019-03-26T11:36:03.000Z</time>
      </trkpt>
      <trkpt lat="42.573961" lon="-0.39526">
        <ele>1106.0</ele>
        <time>2019-03-26T11:36:04.000Z</time>
      </trkpt>
      <trkpt lat="42.573998" lon="-0.395273">
        <ele>1105.0</ele>
        <time>2019-03-26T11:36:05.000Z</time>
      </trkpt>
      <trkpt lat="42.574035" lon="-0.395283">
        <ele>1105.0</ele>
        <time>2019-03-26T11:36:06.000Z</time>
      </trkpt>
      <trkpt lat="42.574074" lon="-0.395287">
        <ele>1105.0</ele>
        <time>2019-03-26T11:36:07.000Z</time>
      </trkpt>
      <trkpt lat="42.574114" lon="-0.395288">
        <ele>1105.0</ele>
        <time>2019-03-26T11:36:08.000Z</time>
      </trkpt>
      <trkpt lat="42.574157" lon="-0.395287">
        <ele>1105.0</ele>
        <time>2019-03-26T11:36:09.000Z</time>
      </trkpt>
      <trkpt lat="42.574202" lon="-0.395286">
        <ele>1105.0</ele>
        <time>2019-03-26T11:36:10.000Z</time>
      </trkpt>
      <trkpt lat="42.574249" lon="-0.395283">
        <ele>1105.0</ele>
        <time>2019-03-26T11:36:11.000Z</time>
      </trkpt>
      <trkpt lat="42.574298" lon="-0.395276">
        <ele>1104.0</ele>
        <time>2019-03-26T11:36:12.000Z</time>
      </trkpt>
      <trkpt lat="42.574349" lon="-0.395263">
        <ele>1104.0</ele>
        <time>2019-03-26T11:36:13.000Z</time>
      </trkpt>
      <trkpt lat="42.574402" lon="-0.395243">
        <ele>1103.0</ele>
        <time>2019-03-26T11:36:14.000Z</time>
      </trkpt>
      <trkpt lat="42.574455" lon="-0.395217">
        <ele>1103.0</ele>
        <time>2019-03-26T11:36:15.000Z</time>
      </trkpt>
      <trkpt lat="42.574508" lon="-0.395187">
        <ele>1103.0</ele>
        <time>2019-03-26T11:36:16.000Z</time>
      </trkpt>
      <trkpt lat="42.57456" lon="-0.395157">
        <ele>1102.0</ele>
        <time>2019-03-26T11:36:17.000Z</time>
      </trkpt>
      <trkpt lat="42.574608" lon="-0.395127">
        <ele>1102.0</ele>
        <time>2019-03-26T11:36:18.000Z</time>
      </trkpt>
      <trkpt lat="42.574655" lon="-0.395098">
        <ele>1101.0</ele>
        <time>2019-03-26T11:36:19.000Z</time>
      </trkpt>
      <trkpt lat="42.574699" lon="-0.395069">
        <ele>1101.0</ele>
        <time>2019-03-26T11:36:20.000Z</time>
      </trkpt>
      <trkpt lat="42.574742" lon="-0.39504">
        <ele>1101.0</ele>
        <time>2019-03-26T11:36:21.000Z</time>
      </trkpt>
      <trkpt lat="42.574785" lon="-0.395012">
        <ele>1100.0</ele>
        <time>2019-03-26T11:36:22.000Z</time>
      </trkpt>
      <trkpt lat="42.57483" lon="-0.394987">
        <ele>1100.0</ele>
        <time>2019-03-26T11:36:23.000Z</time>
      </trkpt>
      <trkpt lat="42.574879" lon="-0.394966">
        <ele>1099.0</ele>
        <time>2019-03-26T11:36:24.000Z</time>
      </trkpt>
      <trkpt lat="42.574931" lon="-0.394951">
        <ele>1099.0</ele>
        <time>2019-03-26T11:36:25.000Z</time>
      </trkpt>
      <trkpt lat="42.574986" lon="-0.394935">
        <ele>1098.0</ele>
        <time>2019-03-26T11:36:26.000Z</time>
      </trkpt>
      <trkpt lat="42.575039" lon="-0.39491">
        <ele>1098.0</ele>
        <time>2019-03-26T11:36:27.000Z</time>
      </trkpt>
      <trkpt lat="42.57509" lon="-0.394873">
        <ele>1098.0</ele>
        <time>2019-03-26T11:36:28.000Z</time>
      </trkpt>
      <trkpt lat="42.575141" lon="-0.394839">
        <ele>1098.0</ele>
        <time>2019-03-26T11:36:29.000Z</time>
      </trkpt>
      <trkpt lat="42.575195" lon="-0.394823">
        <ele>1097.0</ele>
        <time>2019-03-26T11:36:30.000Z</time>
      </trkpt>
      <trkpt lat="42.575251" lon="-0.394812">
        <ele>1097.0</ele>
        <time>2019-03-26T11:36:31.000Z</time>
      </trkpt>
      <trkpt lat="42.575305" lon="-0.394793">
        <ele>1096.0</ele>
        <time>2019-03-26T11:36:32.000Z</time>
      </trkpt>
      <trkpt lat="42.575355" lon="-0.394761">
        <ele>1096.0</ele>
        <time>2019-03-26T11:36:33.000Z</time>
      </trkpt>
      <trkpt lat="42.575401" lon="-0.39472">
        <ele>1096.0</ele>
        <time>2019-03-26T11:36:34.000Z</time>
      </trkpt>
      <trkpt lat="42.575441" lon="-0.394672">
        <ele>1095.0</ele>
        <time>2019-03-26T11:36:35.000Z</time>
      </trkpt>
      <trkpt lat="42.575476" lon="-0.394619">
        <ele>1095.0</ele>
        <time>2019-03-26T11:36:36.000Z</time>
      </trkpt>
      <trkpt lat="42.575509" lon="-0.394568">
        <ele>1094.0</ele>
        <time>2019-03-26T11:36:37.000Z</time>
      </trkpt>
      <trkpt lat="42.575542" lon="-0.394524">
        <ele>1094.0</ele>
        <time>2019-03-26T11:36:38.000Z</time>
      </trkpt>
      <trkpt lat="42.575574" lon="-0.394489">
        <ele>1094.0</ele>
        <time>2019-03-26T11:36:39.000Z</time>
      </trkpt>
      <trkpt lat="42.575609" lon="-0.394466">
        <ele>1094.0</ele>
        <time>2019-03-26T11:36:40.000Z</time>
      </trkpt>
      <trkpt lat="42.575645" lon="-0.394455">
        <ele>1093.0</ele>
        <time>2019-03-26T11:36:41.000Z</time>
      </trkpt>
      <trkpt lat="42.575684" lon="-0.394456">
        <ele>1093.0</ele>
        <time>2019-03-26T11:36:42.000Z</time>
      </trkpt>
      <trkpt lat="42.575725" lon="-0.394469">
        <ele>1093.0</ele>
        <time>2019-03-26T11:36:43.000Z</time>
      </trkpt>
      <trkpt lat="42.57577" lon="-0.394489">
        <ele>1092.0</ele>
        <time>2019-03-26T11:36:44.000Z</time>
      </trkpt>
      <trkpt lat="42.575819" lon="-0.39451">
        <ele>1092.0</ele>
        <time>2019-03-26T11:36:45.000Z</time>
      </trkpt>
      <trkpt lat="42.575872" lon="-0.394528">
        <ele>1091.0</ele>
        <time>2019-03-26T11:36:46.000Z</time>
      </trkpt>
      <trkpt lat="42.575929" lon="-0.394538">
        <ele>1091.0</ele>
        <time>2019-03-26T11:36:47.000Z</time>
      </trkpt>
      <trkpt lat="42.575988" lon="-0.394543">
        <ele>1090.0</ele>
        <time>2019-03-26T11:36:48.000Z</time>
      </trkpt>
      <trkpt lat="42.576047" lon="-0.394551">
        <ele>1090.0</ele>
        <time>2019-03-26T11:36:49.000Z</time>
      </trkpt>
      <trkpt lat="42.576102" lon="-0.394564">
        <ele>1090.0</ele>
        <time>2019-03-26T11:36:50.000Z</time>
      </trkpt>
      <trkpt lat="42.576153" lon="-0.394584">
        <ele>1089.0</ele>
        <time>2019-03-26T11:36:51.000Z</time>
      </trkpt>
      <trkpt lat="42.576201" lon="-0.39461">
        <ele>1089.0</ele>
        <time>2019-03-26T11:36:52.000Z</time>
      </trkpt>
      <trkpt lat="42.576246" lon="-0.394641">
        <ele>1088.0</ele>
        <time>2019-03-26T11:36:53.000Z</time>
      </trkpt>
      <trkpt lat="42.57629" lon="-0.394678">
        <ele>1088.0</ele>
        <time>2019-03-26T11:36:54.000Z</time>
      </trkpt>
      <trkpt lat="42.576332" lon="-0.394716">
        <ele>1088.0</ele>
        <time>2019-03-26T11:36:55.000Z</time>
      </trkpt>
      <trkpt lat="42.576376" lon="-0.39475">
        <ele>1087.0</ele>
        <time>2019-03-26T11:36:56.000Z</time>
      </trkpt>
      <trkpt lat="42.576422" lon="-0.394777">
        <ele>1087.0</ele>
        <time>2019-03-26T11:36:57.000Z</time>
      </trkpt>
      <trkpt lat="42.576472" lon="-0.394792">
        <ele>1087.0</ele>
        <time>2019-03-26T11:36:58.000Z</time>
      </trkpt>
      <trkpt lat="42.576526" lon="-0.3948">
        <ele>1086.0</ele>
        <time>2019-03-26T11:36:59.000Z</time>
      </trkpt>
      <trkpt lat="42.576581" lon="-0.394801">
        <ele>1086.0</ele>
        <time>2019-03-26T11:37:00.000Z</time>
      </trkpt>
      <trkpt lat="42.576639" lon="-0.394801">
        <ele>1086.0</ele>
        <time>2019-03-26T11:37:01.000Z</time>
      </trkpt>
      <trkpt lat="42.576697" lon="-0.394803">
        <ele>1085.0</ele>
        <time>2019-03-26T11:37:02.000Z</time>
      </trkpt>
      <trkpt lat="42.576755" lon="-0.394809">
        <ele>1085.0</ele>
        <time>2019-03-26T11:37:03.000Z</time>
      </trkpt>
      <trkpt lat="42.576813" lon="-0.394824">
        <ele>1085.0</ele>
        <time>2019-03-26T11:37:04.000Z</time>
      </trkpt>
      <trkpt lat="42.57687" lon="-0.394851">
        <ele>1084.0</ele>
        <time>2019-03-26T11:37:05.000Z</time>
      </trkpt>
      <trkpt lat="42.576924" lon="-0.394886">
        <ele>1084.0</ele>
        <time>2019-03-26T11:37:06.000Z</time>
      </trkpt>
      <trkpt lat="42.576975" lon="-0.394926">
        <ele>1084.0</ele>
        <time>2019-03-26T11:37:07.000Z</time>
      </trkpt>
      <trkpt lat="42.577021" lon="-0.394966">
        <ele>1084.0</ele>
        <time>2019-03-26T11:37:08.000Z</time>
      </trkpt>
      <trkpt lat="42.577062" lon="-0.395003">
        <ele>1083.0</ele>
        <time>2019-03-26T11:37:09.000Z</time>
      </trkpt>
      <trkpt lat="42.577097" lon="-0.395037">
        <ele>1083.0</ele>
        <time>2019-03-26T11:37:10.000Z</time>
      </trkpt>
      <trkpt lat="42.577128" lon="-0.395068">
        <ele>1082.0</ele>
        <time>2019-03-26T11:37:11.000Z</time>
      </trkpt>
      <trkpt lat="42.577156" lon="-0.395096">
        <ele>1082.0</ele>
        <time>2019-03-26T11:37:12.000Z</time>
      </trkpt>
      <trkpt lat="42.577183" lon="-0.395123">
        <ele>1082.0</ele>
        <time>2019-03-26T11:37:13.000Z</time>
      </trkpt>
      <trkpt lat="42.577212" lon="-0.39515">
        <ele>1082.0</ele>
        <time>2019-03-26T11:37:14.000Z</time>
      </trkpt>
      <trkpt lat="42.577247" lon="-0.39518">
        <ele>1081.0</ele>
        <time>2019-03-26T11:37:15.000Z</time>
      </trkpt>
      <trkpt lat="42.577286" lon="-0.395212">
        <ele>1081.0</ele>
        <time>2019-03-26T11:37:16.000Z</time>
      </trkpt>
      <trkpt lat="42.577326" lon="-0.395249">
        <ele>1081.0</ele>
        <time>2019-03-26T11:37:17.000Z</time>
      </trkpt>
      <trkpt lat="42.577368" lon="-0.395286">
        <ele>1080.0</ele>
        <time>2019-03-26T11:37:18.000Z</time>
      </trkpt>
      <trkpt lat="42.577412" lon="-0.39532">
        <ele>1080.0</ele>
        <time>2019-03-26T11:37:19.000Z</time>
      </trkpt>
      <trkpt lat="42.57746" lon="-0.395348">
        <ele>1079.0</ele>
        <time>2019-03-26T11:37:20.000Z</time>
      </trkpt>
      <trkpt lat="42.577509" lon="-0.39537">
        <ele>1079.0</ele>
        <time>2019-03-26T11:37:21.000Z</time>
      </trkpt>
      <trkpt lat="42.577556" lon="-0.395388">
        <ele>1078.0</ele>
        <time>2019-03-26T11:37:22.000Z</time>
      </trkpt>
      <trkpt lat="42.577596" lon="-0.395404">
        <ele>1078.0</ele>
        <time>2019-03-26T11:37:23.000Z</time>
      </trkpt>
      <trkpt lat="42.577628" lon="-0.395417">
        <ele>1077.0</ele>
        <time>2019-03-26T11:37:24.000Z</time>
      </trkpt>
      <trkpt lat="42.577654" lon="-0.395428">
        <ele>1077.0</ele>
        <time>2019-03-26T11:37:25.000Z</time>
      </trkpt>
      <trkpt lat="42.577677" lon="-0.395434">
        <ele>1076.0</ele>
        <time>2019-03-26T11:37:26.000Z</time>
      </trkpt>
      <trkpt lat="42.577702" lon="-0.395433">
        <ele>1076.0</ele>
        <time>2019-03-26T11:37:27.000Z</time>
      </trkpt>
      <trkpt lat="42.577726" lon="-0.395426">
        <ele>1076.0</ele>
        <time>2019-03-26T11:37:28.000Z</time>
      </trkpt>
      <trkpt lat="42.57775" lon="-0.395416">
        <ele>1076.0</ele>
        <time>2019-03-26T11:37:29.000Z</time>
      </trkpt>
      <trkpt lat="42.577771" lon="-0.395403">
        <ele>1076.0</ele>
        <time>2019-03-26T11:37:30.000Z</time>
      </trkpt>
      <trkpt lat="42.577789" lon="-0.395388">
        <ele>1076.0</ele>
        <time>2019-03-26T11:37:31.000Z</time>
      </trkpt>
      <trkpt lat="42.577806" lon="-0.395371">
        <ele>1076.0</ele>
        <time>2019-03-26T11:37:32.000Z</time>
      </trkpt>
      <trkpt lat="42.577825" lon="-0.395353">
        <ele>1076.0</ele>
        <time>2019-03-26T11:37:33.000Z</time>
      </trkpt>
      <trkpt lat="42.577847" lon="-0.395333">
        <ele>1076.0</ele>
        <time>2019-03-26T11:37:34.000Z</time>
      </trkpt>
      <trkpt lat="42.577872" lon="-0.395311">
        <ele>1076.0</ele>
        <time>2019-03-26T11:37:35.000Z</time>
      </trkpt>
      <trkpt lat="42.5779" lon="-0.395286">
        <ele>1075.0</ele>
        <time>2019-03-26T11:37:36.000Z</time>
      </trkpt>
      <trkpt lat="42.577931" lon="-0.39526">
        <ele>1075.0</ele>
        <time>2019-03-26T11:37:37.000Z</time>
      </trkpt>
      <trkpt lat="42.577965" lon="-0.395232">
        <ele>1075.0</ele>
        <time>2019-03-26T11:37:38.000Z</time>
      </trkpt>
      <trkpt lat="42.578001" lon="-0.395202">
        <ele>1075.0</ele>
        <time>2019-03-26T11:37:39.000Z</time>
      </trkpt>
      <trkpt lat="42.578039" lon="-0.395169">
        <ele>1074.0</ele>
        <time>2019-03-26T11:37:40.000Z</time>
      </trkpt>
      <trkpt lat="42.578079" lon="-0.395135">
        <ele>1074.0</ele>
        <time>2019-03-26T11:37:41.000Z</time>
      </trkpt>
      <trkpt lat="42.57812" lon="-0.3951">
        <ele>1074.0</ele>
        <time>2019-03-26T11:37:42.000Z</time>
      </trkpt>
      <trkpt lat="42.578164" lon="-0.395067">
        <ele>1073.0</ele>
        <time>2019-03-26T11:37:43.000Z</time>
      </trkpt>
      <trkpt lat="42.57821" lon="-0.395041">
        <ele>1073.0</ele>
        <time>2019-03-26T11:37:44.000Z</time>
      </trkpt>
      <trkpt lat="42.578261" lon="-0.395027">
        <ele>1073.0</ele>
        <time>2019-03-26T11:37:45.000Z</time>
      </trkpt>
      <trkpt lat="42.578316" lon="-0.395029">
        <ele>1072.0</ele>
        <time>2019-03-26T11:37:46.000Z</time>
      </trkpt>
      <trkpt lat="42.57837" lon="-0.395046">
        <ele>1071.0</ele>
        <time>2019-03-26T11:37:47.000Z</time>
      </trkpt>
      <trkpt lat="42.578421" lon="-0.395077">
        <ele>1071.0</ele>
        <time>2019-03-26T11:37:48.000Z</time>
      </trkpt>
      <trkpt lat="42.578465" lon="-0.395119">
        <ele>1071.0</ele>
        <time>2019-03-26T11:37:49.000Z</time>
      </trkpt>
      <trkpt lat="42.578504" lon="-0.395167">
        <ele>1070.0</ele>
        <time>2019-03-26T11:37:50.000Z</time>
      </trkpt>
      <trkpt lat="42.578539" lon="-0.395215">
        <ele>1070.0</ele>
        <time>2019-03-26T11:37:51.000Z</time>
      </trkpt>
      <trkpt lat="42.578575" lon="-0.395256">
        <ele>1069.0</ele>
        <time>2019-03-26T11:37:52.000Z</time>
      </trkpt>
      <trkpt lat="42.578614" lon="-0.395286">
        <ele>1069.0</ele>
        <time>2019-03-26T11:37:53.000Z</time>
      </trkpt>
      <trkpt lat="42.578654" lon="-0.395307">
        <ele>1069.0</ele>
        <time>2019-03-26T11:37:54.000Z</time>
      </trkpt>
      <trkpt lat="42.578697" lon="-0.395326">
        <ele>1069.0</ele>
        <time>2019-03-26T11:37:55.000Z</time>
      </trkpt>
      <trkpt lat="42.578741" lon="-0.395346">
        <ele>1069.0</ele>
        <time>2019-03-26T11:37:56.000Z</time>
      </trkpt>
      <trkpt lat="42.578787" lon="-0.395371">
        <ele>1068.0</ele>
        <time>2019-03-26T11:37:57.000Z</time>
      </trkpt>
      <trkpt lat="42.578832" lon="-0.395399">
        <ele>1068.0</ele>
        <time>2019-03-26T11:37:58.000Z</time>
      </trkpt>
      <trkpt lat="42.578877" lon="-0.395429">
        <ele>1067.0</ele>
        <time>2019-03-26T11:37:59.000Z</time>
      </trkpt>
      <trkpt lat="42.578919" lon="-0.395458">
        <ele>1067.0</ele>
        <time>2019-03-26T11:38:00.000Z</time>
      </trkpt>
      <trkpt lat="42.578959" lon="-0.395482">
        <ele>1067.0</ele>
        <time>2019-03-26T11:38:01.000Z</time>
      </trkpt>
      <trkpt lat="42.578995" lon="-0.395494">
        <ele>1066.0</ele>
        <time>2019-03-26T11:38:02.000Z</time>
      </trkpt>
      <trkpt lat="42.579023" lon="-0.395486">
        <ele>1066.0</ele>
        <time>2019-03-26T11:38:03.000Z</time>
      </trkpt>
      <trkpt lat="42.579043" lon="-0.395456">
        <ele>1066.0</ele>
        <time>2019-03-26T11:38:04.000Z</time>
      </trkpt>
      <trkpt lat="42.579047" lon="-0.395413">
        <ele>1065.0</ele>
        <time>2019-03-26T11:38:05.000Z</time>
      </trkpt>
      <trkpt lat="42.57903" lon="-0.395372">
        <ele>1065.0</ele>
        <time>2019-03-26T11:38:06.000Z</time>
      </trkpt>
      <trkpt lat="42.578999" lon="-0.395336">
        <ele>1065.0</ele>
        <time>2019-03-26T11:38:07.000Z</time>
      </trkpt>
      <trkpt lat="42.578961" lon="-0.395304">
        <ele>1064.0</ele>
        <time>2019-03-26T11:38:08.000Z</time>
      </trkpt>
      <trkpt lat="42.57892" lon="-0.395274">
        <ele>1064.0</ele>
        <time>2019-03-26T11:38:09.000Z</time>
      </trkpt>
      <trkpt lat="42.578882" lon="-0.39524">
        <ele>1064.0</ele>
        <time>2019-03-26T11:38:10.000Z</time>
      </trkpt>
      <trkpt lat="42.578849" lon="-0.395196">
        <ele>1064.0</ele>
        <time>2019-03-26T11:38:11.000Z</time>
      </trkpt>
      <trkpt lat="42.578826" lon="-0.395139">
        <ele>1063.0</ele>
        <time>2019-03-26T11:38:12.000Z</time>
      </trkpt>
      <trkpt lat="42.578809" lon="-0.395074">
        <ele>1063.0</ele>
        <time>2019-03-26T11:38:13.000Z</time>
      </trkpt>
      <trkpt lat="42.578796" lon="-0.395004">
        <ele>1063.0</ele>
        <time>2019-03-26T11:38:14.000Z</time>
      </trkpt>
      <trkpt lat="42.578783" lon="-0.394937">
        <ele>1063.0</ele>
        <time>2019-03-26T11:38:15.000Z</time>
      </trkpt>
      <trkpt lat="42.578767" lon="-0.394877">
        <ele>1062.0</ele>
        <time>2019-03-26T11:38:16.000Z</time>
      </trkpt>
      <trkpt lat="42.578745" lon="-0.394825">
        <ele>1062.0</ele>
        <time>2019-03-26T11:38:17.000Z</time>
      </trkpt>
      <trkpt lat="42.578715" lon="-0.394782">
        <ele>1061.0</ele>
        <time>2019-03-26T11:38:18.000Z</time>
      </trkpt>
      <trkpt lat="42.578676" lon="-0.39475">
        <ele>1061.0</ele>
        <time>2019-03-26T11:38:19.000Z</time>
      </trkpt>
      <trkpt lat="42.578628" lon="-0.394727">
        <ele>1060.0</ele>
        <time>2019-03-26T11:38:20.000Z</time>
      </trkpt>
      <trkpt lat="42.578575" lon="-0.394709">
        <ele>1060.0</ele>
        <time>2019-03-26T11:38:21.000Z</time>
      </trkpt>
      <trkpt lat="42.578517" lon="-0.394695">
        <ele>1060.0</ele>
        <time>2019-03-26T11:38:22.000Z</time>
      </trkpt>
      <trkpt lat="42.578456" lon="-0.394681">
        <ele>1059.0</ele>
        <time>2019-03-26T11:38:23.000Z</time>
      </trkpt>
      <trkpt lat="42.578395" lon="-0.394665">
        <ele>1059.0</ele>
        <time>2019-03-26T11:38:24.000Z</time>
      </trkpt>
      <trkpt lat="42.578335" lon="-0.394645">
        <ele>1059.0</ele>
        <time>2019-03-26T11:38:25.000Z</time>
      </trkpt>
      <trkpt lat="42.578278" lon="-0.394618">
        <ele>1058.0</ele>
        <time>2019-03-26T11:38:26.000Z</time>
      </trkpt>
      <trkpt lat="42.578225" lon="-0.394582">
        <ele>1058.0</ele>
        <time>2019-03-26T11:38:27.000Z</time>
      </trkpt>
      <trkpt lat="42.578174" lon="-0.394546">
        <ele>1057.0</ele>
        <time>2019-03-26T11:38:28.000Z</time>
      </trkpt>
      <trkpt lat="42.578124" lon="-0.394518">
        <ele>1057.0</ele>
        <time>2019-03-26T11:38:29.000Z</time>
      </trkpt>
      <trkpt lat="42.578072" lon="-0.394506">
        <ele>1056.0</ele>
        <time>2019-03-26T11:38:30.000Z</time>
      </trkpt>
      <trkpt lat="42.578017" lon="-0.394511">
        <ele>1056.0</ele>
        <time>2019-03-26T11:38:31.000Z</time>
      </trkpt>
      <trkpt lat="42.577964" lon="-0.394503">
        <ele>1055.0</ele>
        <time>2019-03-26T11:38:32.000Z</time>
      </trkpt>
      <trkpt lat="42.577917" lon="-0.39446">
        <ele>1055.0</ele>
        <time>2019-03-26T11:38:33.000Z</time>
      </trkpt>
      <trkpt lat="42.577869" lon="-0.394418">
        <ele>1055.0</ele>
        <time>2019-03-26T11:38:34.000Z</time>
      </trkpt>
      <trkpt lat="42.577821" lon="-0.394394">
        <ele>1054.0</ele>
        <time>2019-03-26T11:38:35.000Z</time>
      </trkpt>
      <trkpt lat="42.577772" lon="-0.394393">
        <ele>1054.0</ele>
        <time>2019-03-26T11:38:36.000Z</time>
      </trkpt>
      <trkpt lat="42.577721" lon="-0.394409">
        <ele>1054.0</ele>
        <time>2019-03-26T11:38:37.000Z</time>
      </trkpt>
      <trkpt lat="42.577669" lon="-0.394429">
        <ele>1053.0</ele>
        <time>2019-03-26T11:38:38.000Z</time>
      </trkpt>
      <trkpt lat="42.577618" lon="-0.394435">
        <ele>1052.0</ele>
        <time>2019-03-26T11:38:39.000Z</time>
      </trkpt>
      <trkpt lat="42.577574" lon="-0.394413">
        <ele>1052.0</ele>
        <time>2019-03-26T11:38:40.000Z</time>
      </trkpt>
      <trkpt lat="42.577536" lon="-0.394372">
        <ele>1052.0</ele>
        <time>2019-03-26T11:38:41.000Z</time>
      </trkpt>
      <trkpt lat="42.577503" lon="-0.394324">
        <ele>1051.0</ele>
        <time>2019-03-26T11:38:42.000Z</time>
      </trkpt>
      <trkpt lat="42.577475" lon="-0.394274">
        <ele>1051.0</ele>
        <time>2019-03-26T11:38:43.000Z</time>
      </trkpt>
      <trkpt lat="42.577451" lon="-0.394225">
        <ele>1051.0</ele>
        <time>2019-03-26T11:38:44.000Z</time>
      </trkpt>
      <trkpt lat="42.577432" lon="-0.394182">
        <ele>1050.0</ele>
        <time>2019-03-26T11:38:45.000Z</time>
      </trkpt>
      <trkpt lat="42.577415" lon="-0.394145">
        <ele>1050.0</ele>
        <time>2019-03-26T11:38:46.000Z</time>
      </trkpt>
      <trkpt lat="42.577402" lon="-0.394116">
        <ele>1050.0</ele>
        <time>2019-03-26T11:38:47.000Z</time>
      </trkpt>
      <trkpt lat="42.577389" lon="-0.394093">
        <ele>1049.0</ele>
        <time>2019-03-26T11:38:48.000Z</time>
      </trkpt>
      <trkpt lat="42.577377" lon="-0.394074">
        <ele>1049.0</ele>
        <time>2019-03-26T11:38:49.000Z</time>
      </trkpt>
      <trkpt lat="42.577362" lon="-0.394059">
        <ele>1049.0</ele>
        <time>2019-03-26T11:38:50.000Z</time>
      </trkpt>
      <trkpt lat="42.577344" lon="-0.394043">
        <ele>1049.0</ele>
        <time>2019-03-26T11:38:51.000Z</time>
      </trkpt>
      <trkpt lat="42.577322" lon="-0.394025">
        <ele>1049.0</ele>
        <time>2019-03-26T11:38:52.000Z</time>
      </trkpt>
      <trkpt lat="42.577292" lon="-0.394003">
        <ele>1049.0</ele>
        <time>2019-03-26T11:38:53.000Z</time>
      </trkpt>
      <trkpt lat="42.577257" lon="-0.393978">
        <ele>1049.0</ele>
        <time>2019-03-26T11:38:54.000Z</time>
      </trkpt>
      <trkpt lat="42.577215" lon="-0.393951">
        <ele>1049.0</ele>
        <time>2019-03-26T11:38:55.000Z</time>
      </trkpt>
      <trkpt lat="42.577169" lon="-0.393925">
        <ele>1048.0</ele>
        <time>2019-03-26T11:38:56.000Z</time>
      </trkpt>
      <trkpt lat="42.577117" lon="-0.393901">
        <ele>1048.0</ele>
        <time>2019-03-26T11:38:57.000Z</time>
      </trkpt>
      <trkpt lat="42.577064" lon="-0.393878">
        <ele>1047.0</ele>
        <time>2019-03-26T11:38:58.000Z</time>
      </trkpt>
      <trkpt lat="42.577012" lon="-0.393854">
        <ele>1047.0</ele>
        <time>2019-03-26T11:38:59.000Z</time>
      </trkpt>
      <trkpt lat="42.576964" lon="-0.393827">
        <ele>1046.0</ele>
        <time>2019-03-26T11:39:00.000Z</time>
      </trkpt>
      <trkpt lat="42.576922" lon="-0.393797">
        <ele>1045.0</ele>
        <time>2019-03-26T11:39:01.000Z</time>
      </trkpt>
      <trkpt lat="42.576885" lon="-0.393764">
        <ele>1045.0</ele>
        <time>2019-03-26T11:39:02.000Z</time>
      </trkpt>
      <trkpt lat="42.57685" lon="-0.393729">
        <ele>1044.0</ele>
        <time>2019-03-26T11:39:03.000Z</time>
      </trkpt>
      <trkpt lat="42.576815" lon="-0.393693">
        <ele>1044.0</ele>
        <time>2019-03-26T11:39:04.000Z</time>
      </trkpt>
      <trkpt lat="42.57678" lon="-0.393656">
        <ele>1044.0</ele>
        <time>2019-03-26T11:39:05.000Z</time>
      </trkpt>
      <trkpt lat="42.576746" lon="-0.393621">
        <ele>1044.0</ele>
        <time>2019-03-26T11:39:06.000Z</time>
      </trkpt>
      <trkpt lat="42.576714" lon="-0.393586">
        <ele>1043.0</ele>
        <time>2019-03-26T11:39:07.000Z</time>
      </trkpt>
      <trkpt lat="42.576684" lon="-0.393554">
        <ele>1043.0</ele>
        <time>2019-03-26T11:39:08.000Z</time>
      </trkpt>
      <trkpt lat="42.576656" lon="-0.393523">
        <ele>1043.0</ele>
        <time>2019-03-26T11:39:09.000Z</time>
      </trkpt>
      <trkpt lat="42.57663" lon="-0.393494">
        <ele>1043.0</ele>
        <time>2019-03-26T11:39:10.000Z</time>
      </trkpt>
      <trkpt lat="42.576607" lon="-0.393466">
        <ele>1043.0</ele>
        <time>2019-03-26T11:39:11.000Z</time>
      </trkpt>
      <trkpt lat="42.576585" lon="-0.393439">
        <ele>1043.0</ele>
        <time>2019-03-26T11:39:12.000Z</time>
      </trkpt>
      <trkpt lat="42.576563" lon="-0.393412">
        <ele>1043.0</ele>
        <time>2019-03-26T11:39:13.000Z</time>
      </trkpt>
      <trkpt lat="42.576537" lon="-0.393388">
        <ele>1043.0</ele>
        <time>2019-03-26T11:39:14.000Z</time>
      </trkpt>
      <trkpt lat="42.576505" lon="-0.393365">
        <ele>1043.0</ele>
        <time>2019-03-26T11:39:15.000Z</time>
      </trkpt>
      <trkpt lat="42.576465" lon="-0.393343">
        <ele>1043.0</ele>
        <time>2019-03-26T11:39:16.000Z</time>
      </trkpt>
      <trkpt lat="42.576419" lon="-0.393317">
        <ele>1043.0</ele>
        <time>2019-03-26T11:39:17.000Z</time>
      </trkpt>
      <trkpt lat="42.576373" lon="-0.393283">
        <ele>1042.0</ele>
        <time>2019-03-26T11:39:18.000Z</time>
      </trkpt>
      <trkpt lat="42.576328" lon="-0.393237">
        <ele>1042.0</ele>
        <time>2019-03-26T11:39:19.000Z</time>
      </trkpt>
      <trkpt lat="42.576285" lon="-0.393181">
        <ele>1042.0</ele>
        <time>2019-03-26T11:39:20.000Z</time>
      </trkpt>
      <trkpt lat="42.57624" lon="-0.393122">
        <ele>1042.0</ele>
        <time>2019-03-26T11:39:21.000Z</time>
      </trkpt>
      <trkpt lat="42.576193" lon="-0.393064">
        <ele>1042.0</ele>
        <time>2019-03-26T11:39:22.000Z</time>
      </trkpt>
      <trkpt lat="42.576142" lon="-0.393011">
        <ele>1041.0</ele>
        <time>2019-03-26T11:39:23.000Z</time>
      </trkpt>
      <trkpt lat="42.576091" lon="-0.392959">
        <ele>1041.0</ele>
        <time>2019-03-26T11:39:24.000Z</time>
      </trkpt>
      <trkpt lat="42.576046" lon="-0.392904">
        <ele>1040.0</ele>
        <time>2019-03-26T11:39:25.000Z</time>
      </trkpt>
      <trkpt lat="42.576009" lon="-0.392841">
        <ele>1039.0</ele>
        <time>2019-03-26T11:39:26.000Z</time>
      </trkpt>
      <trkpt lat="42.57598" lon="-0.392773">
        <ele>1038.0</ele>
        <time>2019-03-26T11:39:27.000Z</time>
      </trkpt>
      <trkpt lat="42.575955" lon="-0.392701">
        <ele>1038.0</ele>
        <time>2019-03-26T11:39:28.000Z</time>
      </trkpt>
      <trkpt lat="42.575931" lon="-0.39263">
        <ele>1038.0</ele>
        <time>2019-03-26T11:39:29.000Z</time>
      </trkpt>
      <trkpt lat="42.575906" lon="-0.392562">
        <ele>1037.0</ele>
        <time>2019-03-26T11:39:30.000Z</time>
      </trkpt>
      <trkpt lat="42.575878" lon="-0.3925">
        <ele>1037.0</ele>
        <time>2019-03-26T11:39:31.000Z</time>
      </trkpt>
      <trkpt lat="42.575842" lon="-0.392448">
        <ele>1036.0</ele>
        <time>2019-03-26T11:39:32.000Z</time>
      </trkpt>
      <trkpt lat="42.575798" lon="-0.392407">
        <ele>1036.0</ele>
        <time>2019-03-26T11:39:33.000Z</time>
      </trkpt>
      <trkpt lat="42.575746" lon="-0.392379">
        <ele>1036.0</ele>
        <time>2019-03-26T11:39:34.000Z</time>
      </trkpt>
      <trkpt lat="42.57569" lon="-0.392366">
        <ele>1035.0</ele>
        <time>2019-03-26T11:39:35.000Z</time>
      </trkpt>
      <trkpt lat="42.575632" lon="-0.392367">
        <ele>1035.0</ele>
        <time>2019-03-26T11:39:36.000Z</time>
      </trkpt>
      <trkpt lat="42.575574" lon="-0.392384">
        <ele>1035.0</ele>
        <time>2019-03-26T11:39:37.000Z</time>
      </trkpt>
      <trkpt lat="42.575517" lon="-0.392411">
        <ele>1034.0</ele>
        <time>2019-03-26T11:39:38.000Z</time>
      </trkpt>
      <trkpt lat="42.575459" lon="-0.392446">
        <ele>1034.0</ele>
        <time>2019-03-26T11:39:39.000Z</time>
      </trkpt>
      <trkpt lat="42.575402" lon="-0.392482">
        <ele>1033.0</ele>
        <time>2019-03-26T11:39:40.000Z</time>
      </trkpt>
      <trkpt lat="42.575344" lon="-0.392516">
        <ele>1033.0</ele>
        <time>2019-03-26T11:39:41.000Z</time>
      </trkpt>
      <trkpt lat="42.575286" lon="-0.392539">
        <ele>1032.0</ele>
        <time>2019-03-26T11:39:42.000Z</time>
      </trkpt>
      <trkpt lat="42.575228" lon="-0.392545">
        <ele>1032.0</ele>
        <time>2019-03-26T11:39:43.000Z</time>
      </trkpt>
      <trkpt lat="42.575168" lon="-0.392526">
        <ele>1031.0</ele>
        <time>2019-03-26T11:39:44.000Z</time>
      </trkpt>
      <trkpt lat="42.575107" lon="-0.392482">
        <ele>1030.0</ele>
        <time>2019-03-26T11:39:45.000Z</time>
      </trkpt>
      <trkpt lat="42.575042" lon="-0.392438">
        <ele>1030.0</ele>
        <time>2019-03-26T11:39:46.000Z</time>
      </trkpt>
      <trkpt lat="42.574974" lon="-0.392419">
        <ele>1029.0</ele>
        <time>2019-03-26T11:39:47.000Z</time>
      </trkpt>
      <trkpt lat="42.574912" lon="-0.392414">
        <ele>1029.0</ele>
        <time>2019-03-26T11:39:48.000Z</time>
      </trkpt>
      <trkpt lat="42.574855" lon="-0.392416">
        <ele>1028.0</ele>
        <time>2019-03-26T11:39:49.000Z</time>
      </trkpt>
      <trkpt lat="42.574802" lon="-0.392425">
        <ele>1028.0</ele>
        <time>2019-03-26T11:39:50.000Z</time>
      </trkpt>
      <trkpt lat="42.574753" lon="-0.392439">
        <ele>1027.0</ele>
        <time>2019-03-26T11:39:51.000Z</time>
      </trkpt>
      <trkpt lat="42.574704" lon="-0.392454">
        <ele>1027.0</ele>
        <time>2019-03-26T11:39:52.000Z</time>
      </trkpt>
      <trkpt lat="42.574656" lon="-0.392467">
        <ele>1026.0</ele>
        <time>2019-03-26T11:39:53.000Z</time>
      </trkpt>
      <trkpt lat="42.574606" lon="-0.392471">
        <ele>1026.0</ele>
        <time>2019-03-26T11:39:54.000Z</time>
      </trkpt>
      <trkpt lat="42.574554" lon="-0.392462">
        <ele>1026.0</ele>
        <time>2019-03-26T11:39:55.000Z</time>
      </trkpt>
      <trkpt lat="42.574499" lon="-0.392437">
        <ele>1025.0</ele>
        <time>2019-03-26T11:39:56.000Z</time>
      </trkpt>
      <trkpt lat="42.574441" lon="-0.392403">
        <ele>1025.0</ele>
        <time>2019-03-26T11:39:57.000Z</time>
      </trkpt>
      <trkpt lat="42.574379" lon="-0.39237">
        <ele>1024.0</ele>
        <time>2019-03-26T11:39:58.000Z</time>
      </trkpt>
      <trkpt lat="42.574313" lon="-0.392349">
        <ele>1024.0</ele>
        <time>2019-03-26T11:39:59.000Z</time>
      </trkpt>
      <trkpt lat="42.574244" lon="-0.392344">
        <ele>1023.0</ele>
        <time>2019-03-26T11:40:00.000Z</time>
      </trkpt>
      <trkpt lat="42.574179" lon="-0.392333">
        <ele>1023.0</ele>
        <time>2019-03-26T11:40:01.000Z</time>
      </trkpt>
      <trkpt lat="42.574121" lon="-0.392301">
        <ele>1022.0</ele>
        <time>2019-03-26T11:40:02.000Z</time>
      </trkpt>
      <trkpt lat="42.574061" lon="-0.392264">
        <ele>1022.0</ele>
        <time>2019-03-26T11:40:03.000Z</time>
      </trkpt>
      <trkpt lat="42.573999" lon="-0.392227">
        <ele>1021.0</ele>
        <time>2019-03-26T11:40:04.000Z</time>
      </trkpt>
      <trkpt lat="42.573936" lon="-0.392191">
        <ele>1021.0</ele>
        <time>2019-03-26T11:40:05.000Z</time>
      </trkpt>
      <trkpt lat="42.573873" lon="-0.392156">
        <ele>1020.0</ele>
        <time>2019-03-26T11:40:06.000Z</time>
      </trkpt>
      <trkpt lat="42.573811" lon="-0.392122">
        <ele>1020.0</ele>
        <time>2019-03-26T11:40:07.000Z</time>
      </trkpt>
      <trkpt lat="42.573754" lon="-0.392089">
        <ele>1020.0</ele>
        <time>2019-03-26T11:40:08.000Z</time>
      </trkpt>
      <trkpt lat="42.5737" lon="-0.392056">
        <ele>1019.0</ele>
        <time>2019-03-26T11:40:09.000Z</time>
      </trkpt>
      <trkpt lat="42.573653" lon="-0.392021">
        <ele>1018.0</ele>
        <time>2019-03-26T11:40:10.000Z</time>
      </trkpt>
      <trkpt lat="42.573614" lon="-0.391985">
        <ele>1018.0</ele>
        <time>2019-03-26T11:40:11.000Z</time>
      </trkpt>
      <trkpt lat="42.573584" lon="-0.391947">
        <ele>1018.0</ele>
        <time>2019-03-26T11:40:12.000Z</time>
      </trkpt>
      <trkpt lat="42.573566" lon="-0.391911">
        <ele>1017.0</ele>
        <time>2019-03-26T11:40:13.000Z</time>
      </trkpt>
      <trkpt lat="42.573562" lon="-0.391877">
        <ele>1016.0</ele>
        <time>2019-03-26T11:40:14.000Z</time>
      </trkpt>
      <trkpt lat="42.573572" lon="-0.391848">
        <ele>1016.0</ele>
        <time>2019-03-26T11:40:15.000Z</time>
      </trkpt>
      <trkpt lat="42.57359" lon="-0.391828">
        <ele>1015.0</ele>
        <time>2019-03-26T11:40:16.000Z</time>
      </trkpt>
      <trkpt lat="42.57361" lon="-0.391825">
        <ele>1015.0</ele>
        <time>2019-03-26T11:40:17.000Z</time>
      </trkpt>
      <trkpt lat="42.573625" lon="-0.391839">
        <ele>1014.0</ele>
        <time>2019-03-26T11:40:18.000Z</time>
      </trkpt>
      <trkpt lat="42.573634" lon="-0.391857">
        <ele>1014.0</ele>
        <time>2019-03-26T11:40:19.000Z</time>
      </trkpt>
      <trkpt lat="42.573637" lon="-0.391864">
        <ele>1014.0</ele>
        <time>2019-03-26T11:40:20.000Z</time>
      </trkpt>
      <trkpt lat="42.573637" lon="-0.391864">
        <ele>1014.0</ele>
        <time>2019-03-26T11:40:21.000Z</time>
      </trkpt>
      <trkpt lat="42.573637" lon="-0.391864">
        <ele>1014.0</ele>
        <time>2019-03-26T11:40:22.000Z</time>
      </trkpt>
      <trkpt lat="42.573638" lon="-0.391864">
        <ele>1014.0</ele>
        <time>2019-03-26T11:40:23.000Z</time>
      </trkpt>
      <trkpt lat="42.573638" lon="-0.391865">
        <ele>1014.0</ele>
        <time>2019-03-26T11:40:24.000Z</time>
      </trkpt>
      <trkpt lat="42.573638" lon="-0.391865">
        <ele>1014.0</ele>
        <time>2019-03-26T11:40:25.000Z</time>
      </trkpt>
      <trkpt lat="42.573638" lon="-0.391865">
        <ele>1014.0</ele>
        <time>2019-03-26T11:40:26.000Z</time>
      </trkpt>
      <trkpt lat="42.573638" lon="-0.391865">
        <ele>1014.0</ele>
        <time>2019-03-26T11:40:27.000Z</time>
      </trkpt>
      <trkpt lat="42.57364" lon="-0.391866">
        <ele>1014.0</ele>
        <time>2019-03-26T11:40:28.000Z</time>
      </trkpt>
      <trkpt lat="42.573646" lon="-0.391871">
        <ele>1014.0</ele>
        <time>2019-03-26T11:40:29.000Z</time>
      </trkpt>
      <trkpt lat="42.573657" lon="-0.391879">
        <ele>1014.0</ele>
        <time>2019-03-26T11:40:30.000Z</time>
      </trkpt>
      <trkpt lat="42.573673" lon="-0.391891">
        <ele>1014.0</ele>
        <time>2019-03-26T11:40:31.000Z</time>
      </trkpt>
      <trkpt lat="42.573696" lon="-0.391906">
        <ele>1014.0</ele>
        <time>2019-03-26T11:40:32.000Z</time>
      </trkpt>
      <trkpt lat="42.573725" lon="-0.391923">
        <ele>1014.0</ele>
        <time>2019-03-26T11:40:33.000Z</time>
      </trkpt>
      <trkpt lat="42.57376" lon="-0.39194">
        <ele>1014.0</ele>
        <time>2019-03-26T11:40:34.000Z</time>
      </trkpt>
      <trkpt lat="42.573799" lon="-0.391954">
        <ele>1014.0</ele>
        <time>2019-03-26T11:40:35.000Z</time>
      </trkpt>
      <trkpt lat="42.57384" lon="-0.391962">
        <ele>1013.0</ele>
        <time>2019-03-26T11:40:36.000Z</time>
      </trkpt>
      <trkpt lat="42.573884" lon="-0.391962">
        <ele>1013.0</ele>
        <time>2019-03-26T11:40:37.000Z</time>
      </trkpt>
      <trkpt lat="42.573929" lon="-0.391955">
        <ele>1013.0</ele>
        <time>2019-03-26T11:40:38.000Z</time>
      </trkpt>
      <trkpt lat="42.573976" lon="-0.391942">
        <ele>1013.0</ele>
        <time>2019-03-26T11:40:39.000Z</time>
      </trkpt>
      <trkpt lat="42.574023" lon="-0.391925">
        <ele>1012.0</ele>
        <time>2019-03-26T11:40:40.000Z</time>
      </trkpt>
      <trkpt lat="42.57407" lon="-0.391905">
        <ele>1012.0</ele>
        <time>2019-03-26T11:40:41.000Z</time>
      </trkpt>
      <trkpt lat="42.574117" lon="-0.39188">
        <ele>1012.0</ele>
        <time>2019-03-26T11:40:42.000Z</time>
      </trkpt>
      <trkpt lat="42.574165" lon="-0.391851">
        <ele>1011.0</ele>
        <time>2019-03-26T11:40:43.000Z</time>
      </trkpt>
      <trkpt lat="42.574211" lon="-0.391817">
        <ele>1011.0</ele>
        <time>2019-03-26T11:40:44.000Z</time>
      </trkpt>
      <trkpt lat="42.574258" lon="-0.391779">
        <ele>1011.0</ele>
        <time>2019-03-26T11:40:45.000Z</time>
      </trkpt>
      <trkpt lat="42.574304" lon="-0.391743">
        <ele>1010.0</ele>
        <time>2019-03-26T11:40:46.000Z</time>
      </trkpt>
      <trkpt lat="42.574353" lon="-0.39172">
        <ele>1010.0</ele>
        <time>2019-03-26T11:40:47.000Z</time>
      </trkpt>
      <trkpt lat="42.574405" lon="-0.391715">
        <ele>1010.0</ele>
        <time>2019-03-26T11:40:48.000Z</time>
      </trkpt>
      <trkpt lat="42.57446" lon="-0.391721">
        <ele>1010.0</ele>
        <time>2019-03-26T11:40:49.000Z</time>
      </trkpt>
      <trkpt lat="42.574518" lon="-0.391729">
        <ele>1009.0</ele>
        <time>2019-03-26T11:40:50.000Z</time>
      </trkpt>
      <trkpt lat="42.574579" lon="-0.391729">
        <ele>1009.0</ele>
        <time>2019-03-26T11:40:51.000Z</time>
      </trkpt>
      <trkpt lat="42.574643" lon="-0.391714">
        <ele>1009.0</ele>
        <time>2019-03-26T11:40:52.000Z</time>
      </trkpt>
      <trkpt lat="42.574708" lon="-0.391686">
        <ele>1008.0</ele>
        <time>2019-03-26T11:40:53.000Z</time>
      </trkpt>
      <trkpt lat="42.57477" lon="-0.39165">
        <ele>1007.0</ele>
        <time>2019-03-26T11:40:54.000Z</time>
      </trkpt>
      <trkpt lat="42.574827" lon="-0.391611">
        <ele>1007.0</ele>
        <time>2019-03-26T11:40:55.000Z</time>
      </trkpt>
      <trkpt lat="42.574877" lon="-0.391574">
        <ele>1006.0</ele>
        <time>2019-03-26T11:40:56.000Z</time>
      </trkpt>
      <trkpt lat="42.574918" lon="-0.391542">
        <ele>1006.0</ele>
        <time>2019-03-26T11:40:57.000Z</time>
      </trkpt>
      <trkpt lat="42.57495" lon="-0.391518">
        <ele>1005.0</ele>
        <time>2019-03-26T11:40:58.000Z</time>
      </trkpt>
      <trkpt lat="42.574971" lon="-0.391505">
        <ele>1005.0</ele>
        <time>2019-03-26T11:40:59.000Z</time>
      </trkpt>
      <trkpt lat="42.574982" lon="-0.391504">
        <ele>1005.0</ele>
        <time>2019-03-26T11:41:00.000Z</time>
      </trkpt>
      <trkpt lat="42.574985" lon="-0.391511">
        <ele>1005.0</ele>
        <time>2019-03-26T11:41:01.000Z</time>
      </trkpt>
      <trkpt lat="42.574986" lon="-0.39152">
        <ele>1004.0</ele>
        <time>2019-03-26T11:41:02.000Z</time>
      </trkpt>
      <trkpt lat="42.574987" lon="-0.391524">
        <ele>1004.0</ele>
        <time>2019-03-26T11:41:03.000Z</time>
      </trkpt>
      <trkpt lat="42.574988" lon="-0.391525">
        <ele>1004.0</ele>
        <time>2019-03-26T11:41:04.000Z</time>
      </trkpt>
      <trkpt lat="42.574989" lon="-0.391525">
        <ele>1004.0</ele>
        <time>2019-03-26T11:41:05.000Z</time>
      </trkpt>
      <trkpt lat="42.574989" lon="-0.391525">
        <ele>1004.0</ele>
        <time>2019-03-26T11:41:06.000Z</time>
      </trkpt>
      <trkpt lat="42.574989" lon="-0.391528">
        <ele>1004.0</ele>
        <time>2019-03-26T11:41:07.000Z</time>
      </trkpt>
      <trkpt lat="42.574992" lon="-0.391529">
        <ele>1004.0</ele>
        <time>2019-03-26T11:41:08.000Z</time>
      </trkpt>
      <trkpt lat="42.574999" lon="-0.391525">
        <ele>1004.0</ele>
        <time>2019-03-26T11:41:09.000Z</time>
      </trkpt>
      <trkpt lat="42.575014" lon="-0.391513">
        <ele>1004.0</ele>
        <time>2019-03-26T11:41:10.000Z</time>
      </trkpt>
      <trkpt lat="42.575038" lon="-0.391492">
        <ele>1004.0</ele>
        <time>2019-03-26T11:41:11.000Z</time>
      </trkpt>
      <trkpt lat="42.575068" lon="-0.391473">
        <ele>1004.0</ele>
        <time>2019-03-26T11:41:12.000Z</time>
      </trkpt>
      <trkpt lat="42.575102" lon="-0.391464">
        <ele>1003.0</ele>
        <time>2019-03-26T11:41:13.000Z</time>
      </trkpt>
      <trkpt lat="42.575142" lon="-0.391463">
        <ele>1003.0</ele>
        <time>2019-03-26T11:41:14.000Z</time>
      </trkpt>
      <trkpt lat="42.575189" lon="-0.391465">
        <ele>1003.0</ele>
        <time>2019-03-26T11:41:15.000Z</time>
      </trkpt>
      <trkpt lat="42.575243" lon="-0.391465">
        <ele>1003.0</ele>
        <time>2019-03-26T11:41:16.000Z</time>
      </trkpt>
      <trkpt lat="42.575298" lon="-0.391462">
        <ele>1002.0</ele>
        <time>2019-03-26T11:41:17.000Z</time>
      </trkpt>
      <trkpt lat="42.575353" lon="-0.391454">
        <ele>1002.0</ele>
        <time>2019-03-26T11:41:18.000Z</time>
      </trkpt>
      <trkpt lat="42.575407" lon="-0.39144">
        <ele>1002.0</ele>
        <time>2019-03-26T11:41:19.000Z</time>
      </trkpt>
      <trkpt lat="42.575461" lon="-0.391419">
        <ele>1002.0</ele>
        <time>2019-03-26T11:41:20.000Z</time>
      </trkpt>
      <trkpt lat="42.575518" lon="-0.39139">
        <ele>1001.0</ele>
        <time>2019-03-26T11:41:21.000Z</time>
      </trkpt>
      <trkpt lat="42.575576" lon="-0.391352">
        <ele>1001.0</ele>
        <time>2019-03-26T11:41:22.000Z</time>
      </trkpt>
      <trkpt lat="42.575633" lon="-0.391304">
        <ele>1001.0</ele>
        <time>2019-03-26T11:41:23.000Z</time>
      </trkpt>
      <trkpt lat="42.575684" lon="-0.391245">
        <ele>1000.0</ele>
        <time>2019-03-26T11:41:24.000Z</time>
      </trkpt>
      <trkpt lat="42.575727" lon="-0.391173">
        <ele>1000.0</ele>
        <time>2019-03-26T11:41:25.000Z</time>
      </trkpt>
      <trkpt lat="42.575763" lon="-0.391095">
        <ele>1000.0</ele>
        <time>2019-03-26T11:41:26.000Z</time>
      </trkpt>
      <trkpt lat="42.575797" lon="-0.391017">
        <ele>999.0</ele>
        <time>2019-03-26T11:41:27.000Z</time>
      </trkpt>
      <trkpt lat="42.575832" lon="-0.390946">
        <ele>999.0</ele>
        <time>2019-03-26T11:41:28.000Z</time>
      </trkpt>
      <trkpt lat="42.575871" lon="-0.390888">
        <ele>998.0</ele>
        <time>2019-03-26T11:41:29.000Z</time>
      </trkpt>
      <trkpt lat="42.575915" lon="-0.390844">
        <ele>998.0</ele>
        <time>2019-03-26T11:41:30.000Z</time>
      </trkpt>
      <trkpt lat="42.575966" lon="-0.390815">
        <ele>998.0</ele>
        <time>2019-03-26T11:41:31.000Z</time>
      </trkpt>
      <trkpt lat="42.576023" lon="-0.390801">
        <ele>997.0</ele>
        <time>2019-03-26T11:41:32.000Z</time>
      </trkpt>
      <trkpt lat="42.57608" lon="-0.390794">
        <ele>997.0</ele>
        <time>2019-03-26T11:41:33.000Z</time>
      </trkpt>
      <trkpt lat="42.57613" lon="-0.390785">
        <ele>997.0</ele>
        <time>2019-03-26T11:41:34.000Z</time>
      </trkpt>
      <trkpt lat="42.576166" lon="-0.390765">
        <ele>996.0</ele>
        <time>2019-03-26T11:41:35.000Z</time>
      </trkpt>
      <trkpt lat="42.576182" lon="-0.390728">
        <ele>996.0</ele>
        <time>2019-03-26T11:41:36.000Z</time>
      </trkpt>
      <trkpt lat="42.576181" lon="-0.390683">
        <ele>996.0</ele>
        <time>2019-03-26T11:41:37.000Z</time>
      </trkpt>
      <trkpt lat="42.576165" lon="-0.390642">
        <ele>995.0</ele>
        <time>2019-03-26T11:41:38.000Z</time>
      </trkpt>
      <trkpt lat="42.576139" lon="-0.390617">
        <ele>995.0</ele>
        <time>2019-03-26T11:41:39.000Z</time>
      </trkpt>
      <trkpt lat="42.576105" lon="-0.390616">
        <ele>994.0</ele>
        <time>2019-03-26T11:41:40.000Z</time>
      </trkpt>
      <trkpt lat="42.576065" lon="-0.390632">
        <ele>994.0</ele>
        <time>2019-03-26T11:41:41.000Z</time>
      </trkpt>
      <trkpt lat="42.576022" lon="-0.390655">
        <ele>994.0</ele>
        <time>2019-03-26T11:41:42.000Z</time>
      </trkpt>
      <trkpt lat="42.575976" lon="-0.390672">
        <ele>993.0</ele>
        <time>2019-03-26T11:41:43.000Z</time>
      </trkpt>
      <trkpt lat="42.575928" lon="-0.390678">
        <ele>993.0</ele>
        <time>2019-03-26T11:41:44.000Z</time>
      </trkpt>
      <trkpt lat="42.575879" lon="-0.390679">
        <ele>993.0</ele>
        <time>2019-03-26T11:41:45.000Z</time>
      </trkpt>
      <trkpt lat="42.575828" lon="-0.390686">
        <ele>993.0</ele>
        <time>2019-03-26T11:41:46.000Z</time>
      </trkpt>
      <trkpt lat="42.575775" lon="-0.390707">
        <ele>993.0</ele>
        <time>2019-03-26T11:41:47.000Z</time>
      </trkpt>
      <trkpt lat="42.575726" lon="-0.390744">
        <ele>992.0</ele>
        <time>2019-03-26T11:41:48.000Z</time>
      </trkpt>
      <trkpt lat="42.575681" lon="-0.390793">
        <ele>991.0</ele>
        <time>2019-03-26T11:41:49.000Z</time>
      </trkpt>
      <trkpt lat="42.575635" lon="-0.390842">
        <ele>991.0</ele>
        <time>2019-03-26T11:41:50.000Z</time>
      </trkpt>
      <trkpt lat="42.575584" lon="-0.390879">
        <ele>990.0</ele>
        <time>2019-03-26T11:41:51.000Z</time>
      </trkpt>
      <trkpt lat="42.575527" lon="-0.390901">
        <ele>990.0</ele>
        <time>2019-03-26T11:41:52.000Z</time>
      </trkpt>
      <trkpt lat="42.575469" lon="-0.390903">
        <ele>989.0</ele>
        <time>2019-03-26T11:41:53.000Z</time>
      </trkpt>
      <trkpt lat="42.575412" lon="-0.390883">
        <ele>989.0</ele>
        <time>2019-03-26T11:41:54.000Z</time>
      </trkpt>
      <trkpt lat="42.575357" lon="-0.390843">
        <ele>989.0</ele>
        <time>2019-03-26T11:41:55.000Z</time>
      </trkpt>
      <trkpt lat="42.5753" lon="-0.390796">
        <ele>988.0</ele>
        <time>2019-03-26T11:41:56.000Z</time>
      </trkpt>
      <trkpt lat="42.575237" lon="-0.390757">
        <ele>988.0</ele>
        <time>2019-03-26T11:41:57.000Z</time>
      </trkpt>
      <trkpt lat="42.575168" lon="-0.390724">
        <ele>987.0</ele>
        <time>2019-03-26T11:41:58.000Z</time>
      </trkpt>
      <trkpt lat="42.575096" lon="-0.390694">
        <ele>987.0</ele>
        <time>2019-03-26T11:41:59.000Z</time>
      </trkpt>
      <trkpt lat="42.575024" lon="-0.390666">
        <ele>986.0</ele>
        <time>2019-03-26T11:42:00.000Z</time>
      </trkpt>
      <trkpt lat="42.574955" lon="-0.390644">
        <ele>985.0</ele>
        <time>2019-03-26T11:42:01.000Z</time>
      </trkpt>
      <trkpt lat="42.57489" lon="-0.390628">
        <ele>985.0</ele>
        <time>2019-03-26T11:42:02.000Z</time>
      </trkpt>
      <trkpt lat="42.574831" lon="-0.390611">
        <ele>984.0</ele>
        <time>2019-03-26T11:42:03.000Z</time>
      </trkpt>
      <trkpt lat="42.574776" lon="-0.390589">
        <ele>983.0</ele>
        <time>2019-03-26T11:42:04.000Z</time>
      </trkpt>
      <trkpt lat="42.574725" lon="-0.390553">
        <ele>983.0</ele>
        <time>2019-03-26T11:42:05.000Z</time>
      </trkpt>
      <trkpt lat="42.574675" lon="-0.390502">
        <ele>982.0</ele>
        <time>2019-03-26T11:42:06.000Z</time>
      </trkpt>
      <trkpt lat="42.574623" lon="-0.390446">
        <ele>982.0</ele>
        <time>2019-03-26T11:42:07.000Z</time>
      </trkpt>
      <trkpt lat="42.574564" lon="-0.390397">
        <ele>981.0</ele>
        <time>2019-03-26T11:42:08.000Z</time>
      </trkpt>
      <trkpt lat="42.574503" lon="-0.390347">
        <ele>981.0</ele>
        <time>2019-03-26T11:42:09.000Z</time>
      </trkpt>
      <trkpt lat="42.574447" lon="-0.390288">
        <ele>980.0</ele>
        <time>2019-03-26T11:42:10.000Z</time>
      </trkpt>
      <trkpt lat="42.574396" lon="-0.390228">
        <ele>979.0</ele>
        <time>2019-03-26T11:42:11.000Z</time>
      </trkpt>
      <trkpt lat="42.57435" lon="-0.390178">
        <ele>979.0</ele>
        <time>2019-03-26T11:42:12.000Z</time>
      </trkpt>
      <trkpt lat="42.574305" lon="-0.390143">
        <ele>978.0</ele>
        <time>2019-03-26T11:42:13.000Z</time>
      </trkpt>
      <trkpt lat="42.574257" lon="-0.390126">
        <ele>978.0</ele>
        <time>2019-03-26T11:42:14.000Z</time>
      </trkpt>
      <trkpt lat="42.574209" lon="-0.390121">
        <ele>978.0</ele>
        <time>2019-03-26T11:42:15.000Z</time>
      </trkpt>
      <trkpt lat="42.574168" lon="-0.390118">
        <ele>978.0</ele>
        <time>2019-03-26T11:42:16.000Z</time>
      </trkpt>
      <trkpt lat="42.574136" lon="-0.390112">
        <ele>978.0</ele>
        <time>2019-03-26T11:42:17.000Z</time>
      </trkpt>
      <trkpt lat="42.574113" lon="-0.390099">
        <ele>978.0</ele>
        <time>2019-03-26T11:42:18.000Z</time>
      </trkpt>
      <trkpt lat="42.574097" lon="-0.390077">
        <ele>978.0</ele>
        <time>2019-03-26T11:42:19.000Z</time>
      </trkpt>
      <trkpt lat="42.574087" lon="-0.390043">
        <ele>978.0</ele>
        <time>2019-03-26T11:42:20.000Z</time>
      </trkpt>
      <trkpt lat="42.574079" lon="-0.389996">
        <ele>978.0</ele>
        <time>2019-03-26T11:42:21.000Z</time>
      </trkpt>
      <trkpt lat="42.574074" lon="-0.389938">
        <ele>978.0</ele>
        <time>2019-03-26T11:42:22.000Z</time>
      </trkpt>
      <trkpt lat="42.574069" lon="-0.38987">
        <ele>977.0</ele>
        <time>2019-03-26T11:42:23.000Z</time>
      </trkpt>
      <trkpt lat="42.574063" lon="-0.389796">
        <ele>977.0</ele>
        <time>2019-03-26T11:42:24.000Z</time>
      </trkpt>
      <trkpt lat="42.574054" lon="-0.389716">
        <ele>976.0</ele>
        <time>2019-03-26T11:42:25.000Z</time>
      </trkpt>
      <trkpt lat="42.574043" lon="-0.389632">
        <ele>976.0</ele>
        <time>2019-03-26T11:42:26.000Z</time>
      </trkpt>
      <trkpt lat="42.57403" lon="-0.389544">
        <ele>975.0</ele>
        <time>2019-03-26T11:42:27.000Z</time>
      </trkpt>
      <trkpt lat="42.574014" lon="-0.389453">
        <ele>975.0</ele>
        <time>2019-03-26T11:42:28.000Z</time>
      </trkpt>
      <trkpt lat="42.573996" lon="-0.38936">
        <ele>974.0</ele>
        <time>2019-03-26T11:42:29.000Z</time>
      </trkpt>
      <trkpt lat="42.573976" lon="-0.389265">
        <ele>974.0</ele>
        <time>2019-03-26T11:42:30.000Z</time>
      </trkpt>
      <trkpt lat="42.573953" lon="-0.389168">
        <ele>973.0</ele>
        <time>2019-03-26T11:42:31.000Z</time>
      </trkpt>
      <trkpt lat="42.573927" lon="-0.389072">
        <ele>973.0</ele>
        <time>2019-03-26T11:42:32.000Z</time>
      </trkpt>
      <trkpt lat="42.573899" lon="-0.388976">
        <ele>972.0</ele>
        <time>2019-03-26T11:42:33.000Z</time>
      </trkpt>
      <trkpt lat="42.573868" lon="-0.388881">
        <ele>971.0</ele>
        <time>2019-03-26T11:42:34.000Z</time>
      </trkpt>
      <trkpt lat="42.573835" lon="-0.388789">
        <ele>971.0</ele>
        <time>2019-03-26T11:42:35.000Z</time>
      </trkpt>
      <trkpt lat="42.573799" lon="-0.388701">
        <ele>970.0</ele>
        <time>2019-03-26T11:42:36.000Z</time>
      </trkpt>
      <trkpt lat="42.57376" lon="-0.388618">
        <ele>970.0</ele>
        <time>2019-03-26T11:42:37.000Z</time>
      </trkpt>
      <trkpt lat="42.573718" lon="-0.388541">
        <ele>969.0</ele>
        <time>2019-03-26T11:42:38.000Z</time>
      </trkpt>
      <trkpt lat="42.573672" lon="-0.388471">
        <ele>969.0</ele>
        <time>2019-03-26T11:42:39.000Z</time>
      </trkpt>
      <trkpt lat="42.573625" lon="-0.388408">
        <ele>968.0</ele>
        <time>2019-03-26T11:42:40.000Z</time>
      </trkpt>
      <trkpt lat="42.573577" lon="-0.388351">
        <ele>968.0</ele>
        <time>2019-03-26T11:42:41.000Z</time>
      </trkpt>
      <trkpt lat="42.573534" lon="-0.388296">
        <ele>967.0</ele>
        <time>2019-03-26T11:42:42.000Z</time>
      </trkpt>
      <trkpt lat="42.573498" lon="-0.388241">
        <ele>966.0</ele>
        <time>2019-03-26T11:42:43.000Z</time>
      </trkpt>
      <trkpt lat="42.573474" lon="-0.388183">
        <ele>966.0</ele>
        <time>2019-03-26T11:42:44.000Z</time>
      </trkpt>
      <trkpt lat="42.573466" lon="-0.388125">
        <ele>965.0</ele>
        <time>2019-03-26T11:42:45.000Z</time>
      </trkpt>
      <trkpt lat="42.573478" lon="-0.388068">
        <ele>964.0</ele>
        <time>2019-03-26T11:42:46.000Z</time>
      </trkpt>
      <trkpt lat="42.573513" lon="-0.388014">
        <ele>964.0</ele>
        <time>2019-03-26T11:42:47.000Z</time>
      </trkpt>
      <trkpt lat="42.573565" lon="-0.387968">
        <ele>963.0</ele>
        <time>2019-03-26T11:42:48.000Z</time>
      </trkpt>
      <trkpt lat="42.573629" lon="-0.387935">
        <ele>962.0</ele>
        <time>2019-03-26T11:42:49.000Z</time>
      </trkpt>
      <trkpt lat="42.573699" lon="-0.387919">
        <ele>961.0</ele>
        <time>2019-03-26T11:42:50.000Z</time>
      </trkpt>
      <trkpt lat="42.573768" lon="-0.387923">
        <ele>961.0</ele>
        <time>2019-03-26T11:42:51.000Z</time>
      </trkpt>
      <trkpt lat="42.573836" lon="-0.387943">
        <ele>960.0</ele>
        <time>2019-03-26T11:42:52.000Z</time>
      </trkpt>
      <trkpt lat="42.573904" lon="-0.387977">
        <ele>959.0</ele>
        <time>2019-03-26T11:42:53.000Z</time>
      </trkpt>
      <trkpt lat="42.573971" lon="-0.388018">
        <ele>958.0</ele>
        <time>2019-03-26T11:42:54.000Z</time>
      </trkpt>
      <trkpt lat="42.574037" lon="-0.388065">
        <ele>958.0</ele>
        <time>2019-03-26T11:42:55.000Z</time>
      </trkpt>
      <trkpt lat="42.574102" lon="-0.388115">
        <ele>957.0</ele>
        <time>2019-03-26T11:42:56.000Z</time>
      </trkpt>
      <trkpt lat="42.574166" lon="-0.388169">
        <ele>957.0</ele>
        <time>2019-03-26T11:42:57.000Z</time>
      </trkpt>
      <trkpt lat="42.574229" lon="-0.388227">
        <ele>956.0</ele>
        <time>2019-03-26T11:42:58.000Z</time>
      </trkpt>
      <trkpt lat="42.57429" lon="-0.388287">
        <ele>955.0</ele>
        <time>2019-03-26T11:42:59.000Z</time>
      </trkpt>
      <trkpt lat="42.57435" lon="-0.388351">
        <ele>955.0</ele>
        <time>2019-03-26T11:43:00.000Z</time>
      </trkpt>
      <trkpt lat="42.574407" lon="-0.388418">
        <ele>954.0</ele>
        <time>2019-03-26T11:43:01.000Z</time>
      </trkpt>
      <trkpt lat="42.574461" lon="-0.388486">
        <ele>954.0</ele>
        <time>2019-03-26T11:43:02.000Z</time>
      </trkpt>
      <trkpt lat="42.574513" lon="-0.388556">
        <ele>953.0</ele>
        <time>2019-03-26T11:43:03.000Z</time>
      </trkpt>
      <trkpt lat="42.574562" lon="-0.388623">
        <ele>953.0</ele>
        <time>2019-03-26T11:43:04.000Z</time>
      </trkpt>
      <trkpt lat="42.574608" lon="-0.388686">
        <ele>952.0</ele>
        <time>2019-03-26T11:43:05.000Z</time>
      </trkpt>
      <trkpt lat="42.57465" lon="-0.388742">
        <ele>951.0</ele>
        <time>2019-03-26T11:43:06.000Z</time>
      </trkpt>
      <trkpt lat="42.574689" lon="-0.388787">
        <ele>951.0</ele>
        <time>2019-03-26T11:43:07.000Z</time>
      </trkpt>
      <trkpt lat="42.574724" lon="-0.388818">
        <ele>950.0</ele>
        <time>2019-03-26T11:43:08.000Z</time>
      </trkpt>
      <trkpt lat="42.574755" lon="-0.38883">
        <ele>950.0</ele>
        <time>2019-03-26T11:43:09.000Z</time>
      </trkpt>
      <trkpt lat="42.574781" lon="-0.388821">
        <ele>949.0</ele>
        <time>2019-03-26T11:43:10.000Z</time>
      </trkpt>
      <trkpt lat="42.574801" lon="-0.388794">
        <ele>949.0</ele>
        <time>2019-03-26T11:43:11.000Z</time>
      </trkpt>
      <trkpt lat="42.574812" lon="-0.388757">
        <ele>948.0</ele>
        <time>2019-03-26T11:43:12.000Z</time>
      </trkpt>
      <trkpt lat="42.574813" lon="-0.388714">
        <ele>948.0</ele>
        <time>2019-03-26T11:43:13.000Z</time>
      </trkpt>
      <trkpt lat="42.574802" lon="-0.388671">
        <ele>948.0</ele>
        <time>2019-03-26T11:43:14.000Z</time>
      </trkpt>
      <trkpt lat="42.574782" lon="-0.388627">
        <ele>947.0</ele>
        <time>2019-03-26T11:43:15.000Z</time>
      </trkpt>
      <trkpt lat="42.574758" lon="-0.388581">
        <ele>947.0</ele>
        <time>2019-03-26T11:43:16.000Z</time>
      </trkpt>
      <trkpt lat="42.574733" lon="-0.388532">
        <ele>947.0</ele>
        <time>2019-03-26T11:43:17.000Z</time>
      </trkpt>
      <trkpt lat="42.574709" lon="-0.388481">
        <ele>947.0</ele>
        <time>2019-03-26T11:43:18.000Z</time>
      </trkpt>
      <trkpt lat="42.574684" lon="-0.388427">
        <ele>947.0</ele>
        <time>2019-03-26T11:43:19.000Z</time>
      </trkpt>
      <trkpt lat="42.574658" lon="-0.388373">
        <ele>947.0</ele>
        <time>2019-03-26T11:43:20.000Z</time>
      </trkpt>
      <trkpt lat="42.57463" lon="-0.388317">
        <ele>947.0</ele>
        <time>2019-03-26T11:43:21.000Z</time>
      </trkpt>
      <trkpt lat="42.574601" lon="-0.388261">
        <ele>946.0</ele>
        <time>2019-03-26T11:43:22.000Z</time>
      </trkpt>
      <trkpt lat="42.574569" lon="-0.388206">
        <ele>946.0</ele>
        <time>2019-03-26T11:43:23.000Z</time>
      </trkpt>
      <trkpt lat="42.574535" lon="-0.388151">
        <ele>946.0</ele>
        <time>2019-03-26T11:43:24.000Z</time>
      </trkpt>
      <trkpt lat="42.574498" lon="-0.388097">
        <ele>946.0</ele>
        <time>2019-03-26T11:43:25.000Z</time>
      </trkpt>
      <trkpt lat="42.574459" lon="-0.388043">
        <ele>946.0</ele>
        <time>2019-03-26T11:43:26.000Z</time>
      </trkpt>
      <trkpt lat="42.574418" lon="-0.387988">
        <ele>946.0</ele>
        <time>2019-03-26T11:43:27.000Z</time>
      </trkpt>
      <trkpt lat="42.574375" lon="-0.387932">
        <ele>946.0</ele>
        <time>2019-03-26T11:43:28.000Z</time>
      </trkpt>
      <trkpt lat="42.57433" lon="-0.387875">
        <ele>946.0</ele>
        <time>2019-03-26T11:43:29.000Z</time>
      </trkpt>
      <trkpt lat="42.574283" lon="-0.387816">
        <ele>945.0</ele>
        <time>2019-03-26T11:43:30.000Z</time>
      </trkpt>
      <trkpt lat="42.574234" lon="-0.387755">
        <ele>945.0</ele>
        <time>2019-03-26T11:43:31.000Z</time>
      </trkpt>
      <trkpt lat="42.574184" lon="-0.387694">
        <ele>945.0</ele>
        <time>2019-03-26T11:43:32.000Z</time>
      </trkpt>
      <trkpt lat="42.574132" lon="-0.387633">
        <ele>944.0</ele>
        <time>2019-03-26T11:43:33.000Z</time>
      </trkpt>
      <trkpt lat="42.574078" lon="-0.387574">
        <ele>944.0</ele>
        <time>2019-03-26T11:43:34.000Z</time>
      </trkpt>
      <trkpt lat="42.574022" lon="-0.387519">
        <ele>944.0</ele>
        <time>2019-03-26T11:43:35.000Z</time>
      </trkpt>
      <trkpt lat="42.573964" lon="-0.387469">
        <ele>943.0</ele>
        <time>2019-03-26T11:43:36.000Z</time>
      </trkpt>
      <trkpt lat="42.573904" lon="-0.387426">
        <ele>943.0</ele>
        <time>2019-03-26T11:43:37.000Z</time>
      </trkpt>
      <trkpt lat="42.573841" lon="-0.387391">
        <ele>943.0</ele>
        <time>2019-03-26T11:43:38.000Z</time>
      </trkpt>
      <trkpt lat="42.573776" lon="-0.387365">
        <ele>942.0</ele>
        <time>2019-03-26T11:43:39.000Z</time>
      </trkpt>
      <trkpt lat="42.573714" lon="-0.387346">
        <ele>942.0</ele>
        <time>2019-03-26T11:43:40.000Z</time>
      </trkpt>
      <trkpt lat="42.573658" lon="-0.38733">
        <ele>941.0</ele>
        <time>2019-03-26T11:43:41.000Z</time>
      </trkpt>
      <trkpt lat="42.573608" lon="-0.387307">
        <ele>941.0</ele>
        <time>2019-03-26T11:43:42.000Z</time>
      </trkpt>
      <trkpt lat="42.573561" lon="-0.387268">
        <ele>941.0</ele>
        <time>2019-03-26T11:43:43.000Z</time>
      </trkpt>
      <trkpt lat="42.573518" lon="-0.387213">
        <ele>941.0</ele>
        <time>2019-03-26T11:43:44.000Z</time>
      </trkpt>
      <trkpt lat="42.57348" lon="-0.387148">
        <ele>940.0</ele>
        <time>2019-03-26T11:43:45.000Z</time>
      </trkpt>
      <trkpt lat="42.573449" lon="-0.387077">
        <ele>940.0</ele>
        <time>2019-03-26T11:43:46.000Z</time>
      </trkpt>
      <trkpt lat="42.573421" lon="-0.387001">
        <ele>940.0</ele>
        <time>2019-03-26T11:43:47.000Z</time>
      </trkpt>
      <trkpt lat="42.573394" lon="-0.386922">
        <ele>939.0</ele>
        <time>2019-03-26T11:43:48.000Z</time>
      </trkpt>
      <trkpt lat="42.573365" lon="-0.386844">
        <ele>939.0</ele>
        <time>2019-03-26T11:43:49.000Z</time>
      </trkpt>
      <trkpt lat="42.573332" lon="-0.386766">
        <ele>939.0</ele>
        <time>2019-03-26T11:43:50.000Z</time>
      </trkpt>
      <trkpt lat="42.573295" lon="-0.386691">
        <ele>939.0</ele>
        <time>2019-03-26T11:43:51.000Z</time>
      </trkpt>
      <trkpt lat="42.573255" lon="-0.386618">
        <ele>938.0</ele>
        <time>2019-03-26T11:43:52.000Z</time>
      </trkpt>
      <trkpt lat="42.573213" lon="-0.386547">
        <ele>938.0</ele>
        <time>2019-03-26T11:43:53.000Z</time>
      </trkpt>
      <trkpt lat="42.57317" lon="-0.38648">
        <ele>938.0</ele>
        <time>2019-03-26T11:43:54.000Z</time>
      </trkpt>
      <trkpt lat="42.573126" lon="-0.386415">
        <ele>938.0</ele>
        <time>2019-03-26T11:43:55.000Z</time>
      </trkpt>
      <trkpt lat="42.573083" lon="-0.386351">
        <ele>938.0</ele>
        <time>2019-03-26T11:43:56.000Z</time>
      </trkpt>
      <trkpt lat="42.573039" lon="-0.386288">
        <ele>938.0</ele>
        <time>2019-03-26T11:43:57.000Z</time>
      </trkpt>
      <trkpt lat="42.572996" lon="-0.386225">
        <ele>938.0</ele>
        <time>2019-03-26T11:43:58.000Z</time>
      </trkpt>
      <trkpt lat="42.572953" lon="-0.386161">
        <ele>937.0</ele>
        <time>2019-03-26T11:43:59.000Z</time>
      </trkpt>
      <trkpt lat="42.572912" lon="-0.386096">
        <ele>937.0</ele>
        <time>2019-03-26T11:44:00.000Z</time>
      </trkpt>
      <trkpt lat="42.572872" lon="-0.386028">
        <ele>937.0</ele>
        <time>2019-03-26T11:44:01.000Z</time>
      </trkpt>
      <trkpt lat="42.572833" lon="-0.385958">
        <ele>937.0</ele>
        <time>2019-03-26T11:44:02.000Z</time>
      </trkpt>
      <trkpt lat="42.572794" lon="-0.385888">
        <ele>937.0</ele>
        <time>2019-03-26T11:44:03.000Z</time>
      </trkpt>
      <trkpt lat="42.572754" lon="-0.385819">
        <ele>937.0</ele>
        <time>2019-03-26T11:44:04.000Z</time>
      </trkpt>
      <trkpt lat="42.572714" lon="-0.385751">
        <ele>937.0</ele>
        <time>2019-03-26T11:44:05.000Z</time>
      </trkpt>
      <trkpt lat="42.572672" lon="-0.385686">
        <ele>937.0</ele>
        <time>2019-03-26T11:44:06.000Z</time>
      </trkpt>
      <trkpt lat="42.572627" lon="-0.385625">
        <ele>936.0</ele>
        <time>2019-03-26T11:44:07.000Z</time>
      </trkpt>
      <trkpt lat="42.57258" lon="-0.385569">
        <ele>936.0</ele>
        <time>2019-03-26T11:44:08.000Z</time>
      </trkpt>
      <trkpt lat="42.572529" lon="-0.385519">
        <ele>936.0</ele>
        <time>2019-03-26T11:44:09.000Z</time>
      </trkpt>
      <trkpt lat="42.572475" lon="-0.385473">
        <ele>936.0</ele>
        <time>2019-03-26T11:44:10.000Z</time>
      </trkpt>
      <trkpt lat="42.572418" lon="-0.38543">
        <ele>936.0</ele>
        <time>2019-03-26T11:44:11.000Z</time>
      </trkpt>
      <trkpt lat="42.572358" lon="-0.385389">
        <ele>936.0</ele>
        <time>2019-03-26T11:44:12.000Z</time>
      </trkpt>
      <trkpt lat="42.572297" lon="-0.385348">
        <ele>936.0</ele>
        <time>2019-03-26T11:44:13.000Z</time>
      </trkpt>
      <trkpt lat="42.572233" lon="-0.385306">
        <ele>935.0</ele>
        <time>2019-03-26T11:44:14.000Z</time>
      </trkpt>
      <trkpt lat="42.572167" lon="-0.385262">
        <ele>935.0</ele>
        <time>2019-03-26T11:44:15.000Z</time>
      </trkpt>
      <trkpt lat="42.5721" lon="-0.385214">
        <ele>934.0</ele>
        <time>2019-03-26T11:44:16.000Z</time>
      </trkpt>
      <trkpt lat="42.572033" lon="-0.385162">
        <ele>934.0</ele>
        <time>2019-03-26T11:44:17.000Z</time>
      </trkpt>
      <trkpt lat="42.571968" lon="-0.385106">
        <ele>933.0</ele>
        <time>2019-03-26T11:44:18.000Z</time>
      </trkpt>
      <trkpt lat="42.571906" lon="-0.385046">
        <ele>933.0</ele>
        <time>2019-03-26T11:44:19.000Z</time>
      </trkpt>
      <trkpt lat="42.571847" lon="-0.384983">
        <ele>933.0</ele>
        <time>2019-03-26T11:44:20.000Z</time>
      </trkpt>
      <trkpt lat="42.571791" lon="-0.384917">
        <ele>933.0</ele>
        <time>2019-03-26T11:44:21.000Z</time>
      </trkpt>
      <trkpt lat="42.571736" lon="-0.384852">
        <ele>933.0</ele>
        <time>2019-03-26T11:44:22.000Z</time>
      </trkpt>
      <trkpt lat="42.57168" lon="-0.384788">
        <ele>932.0</ele>
        <time>2019-03-26T11:44:23.000Z</time>
      </trkpt>
      <trkpt lat="42.571624" lon="-0.384726">
        <ele>932.0</ele>
        <time>2019-03-26T11:44:24.000Z</time>
      </trkpt>
      <trkpt lat="42.571566" lon="-0.384666">
        <ele>932.0</ele>
        <time>2019-03-26T11:44:25.000Z</time>
      </trkpt>
      <trkpt lat="42.571508" lon="-0.384606">
        <ele>931.0</ele>
        <time>2019-03-26T11:44:26.000Z</time>
      </trkpt>
      <trkpt lat="42.571448" lon="-0.384546">
        <ele>931.0</ele>
        <time>2019-03-26T11:44:27.000Z</time>
      </trkpt>
      <trkpt lat="42.571387" lon="-0.384487">
        <ele>931.0</ele>
        <time>2019-03-26T11:44:28.000Z</time>
      </trkpt>
      <trkpt lat="42.571324" lon="-0.384426">
        <ele>930.0</ele>
        <time>2019-03-26T11:44:29.000Z</time>
      </trkpt>
      <trkpt lat="42.57126" lon="-0.384365">
        <ele>930.0</ele>
        <time>2019-03-26T11:44:30.000Z</time>
      </trkpt>
      <trkpt lat="42.571197" lon="-0.384303">
        <ele>930.0</ele>
        <time>2019-03-26T11:44:31.000Z</time>
      </trkpt>
      <trkpt lat="42.571135" lon="-0.384238">
        <ele>930.0</ele>
        <time>2019-03-26T11:44:32.000Z</time>
      </trkpt>
      <trkpt lat="42.571076" lon="-0.384172">
        <ele>929.0</ele>
        <time>2019-03-26T11:44:33.000Z</time>
      </trkpt>
      <trkpt lat="42.571022" lon="-0.384105">
        <ele>929.0</ele>
        <time>2019-03-26T11:44:34.000Z</time>
      </trkpt>
      <trkpt lat="42.570973" lon="-0.384037">
        <ele>929.0</ele>
        <time>2019-03-26T11:44:35.000Z</time>
      </trkpt>
      <trkpt lat="42.570927" lon="-0.38397">
        <ele>929.0</ele>
        <time>2019-03-26T11:44:36.000Z</time>
      </trkpt>
      <trkpt lat="42.570884" lon="-0.383905">
        <ele>929.0</ele>
        <time>2019-03-26T11:44:37.000Z</time>
      </trkpt>
      <trkpt lat="42.570843" lon="-0.383846">
        <ele>929.0</ele>
        <time>2019-03-26T11:44:38.000Z</time>
      </trkpt>
      <trkpt lat="42.570802" lon="-0.383793">
        <ele>929.0</ele>
        <time>2019-03-26T11:44:39.000Z</time>
      </trkpt>
      <trkpt lat="42.570758" lon="-0.38375">
        <ele>929.0</ele>
        <time>2019-03-26T11:44:40.000Z</time>
      </trkpt>
      <trkpt lat="42.570708" lon="-0.383719">
        <ele>929.0</ele>
        <time>2019-03-26T11:44:41.000Z</time>
      </trkpt>
      <trkpt lat="42.570651" lon="-0.383702">
        <ele>929.0</ele>
        <time>2019-03-26T11:44:42.000Z</time>
      </trkpt>
      <trkpt lat="42.570587" lon="-0.383696">
        <ele>929.0</ele>
        <time>2019-03-26T11:44:43.000Z</time>
      </trkpt>
      <trkpt lat="42.57052" lon="-0.383695">
        <ele>929.0</ele>
        <time>2019-03-26T11:44:44.000Z</time>
      </trkpt>
      <trkpt lat="42.570451" lon="-0.383696">
        <ele>929.0</ele>
        <time>2019-03-26T11:44:45.000Z</time>
      </trkpt>
      <trkpt lat="42.570381" lon="-0.383694">
        <ele>929.0</ele>
        <time>2019-03-26T11:44:46.000Z</time>
      </trkpt>
      <trkpt lat="42.57031" lon="-0.383687">
        <ele>929.0</ele>
        <time>2019-03-26T11:44:47.000Z</time>
      </trkpt>
      <trkpt lat="42.570238" lon="-0.383677">
        <ele>928.0</ele>
        <time>2019-03-26T11:44:48.000Z</time>
      </trkpt>
      <trkpt lat="42.570168" lon="-0.383668">
        <ele>928.0</ele>
        <time>2019-03-26T11:44:49.000Z</time>
      </trkpt>
      <trkpt lat="42.570099" lon="-0.38366">
        <ele>928.0</ele>
        <time>2019-03-26T11:44:50.000Z</time>
      </trkpt>
      <trkpt lat="42.57003" lon="-0.383653">
        <ele>928.0</ele>
        <time>2019-03-26T11:44:51.000Z</time>
      </trkpt>
      <trkpt lat="42.569962" lon="-0.383647">
        <ele>928.0</ele>
        <time>2019-03-26T11:44:52.000Z</time>
      </trkpt>
      <trkpt lat="42.569894" lon="-0.383643">
        <ele>928.0</ele>
        <time>2019-03-26T11:44:53.000Z</time>
      </trkpt>
      <trkpt lat="42.569827" lon="-0.383641">
        <ele>928.0</ele>
        <time>2019-03-26T11:44:54.000Z</time>
      </trkpt>
      <trkpt lat="42.56976" lon="-0.383642">
        <ele>928.0</ele>
        <time>2019-03-26T11:44:55.000Z</time>
      </trkpt>
      <trkpt lat="42.569693" lon="-0.383648">
        <ele>928.0</ele>
        <time>2019-03-26T11:44:56.000Z</time>
      </trkpt>
      <trkpt lat="42.569626" lon="-0.383658">
        <ele>928.0</ele>
        <time>2019-03-26T11:44:57.000Z</time>
      </trkpt>
      <trkpt lat="42.569558" lon="-0.383671">
        <ele>928.0</ele>
        <time>2019-03-26T11:44:58.000Z</time>
      </trkpt>
      <trkpt lat="42.56949" lon="-0.383683">
        <ele>928.0</ele>
        <time>2019-03-26T11:44:59.000Z</time>
      </trkpt>
      <trkpt lat="42.56942" lon="-0.383691">
        <ele>928.0</ele>
        <time>2019-03-26T11:45:00.000Z</time>
      </trkpt>
      <trkpt lat="42.56935" lon="-0.383696">
        <ele>928.0</ele>
        <time>2019-03-26T11:45:01.000Z</time>
      </trkpt>
      <trkpt lat="42.569282" lon="-0.383699">
        <ele>928.0</ele>
        <time>2019-03-26T11:45:02.000Z</time>
      </trkpt>
      <trkpt lat="42.569218" lon="-0.383698">
        <ele>928.0</ele>
        <time>2019-03-26T11:45:03.000Z</time>
      </trkpt>
      <trkpt lat="42.569158" lon="-0.383696">
        <ele>928.0</ele>
        <time>2019-03-26T11:45:04.000Z</time>
      </trkpt>
      <trkpt lat="42.569101" lon="-0.383691">
        <ele>928.0</ele>
        <time>2019-03-26T11:45:05.000Z</time>
      </trkpt>
      <trkpt lat="42.569047" lon="-0.383686">
        <ele>928.0</ele>
        <time>2019-03-26T11:45:06.000Z</time>
      </trkpt>
      <trkpt lat="42.568993" lon="-0.383678">
        <ele>929.0</ele>
        <time>2019-03-26T11:45:07.000Z</time>
      </trkpt>
      <trkpt lat="42.568939" lon="-0.38367">
        <ele>928.0</ele>
        <time>2019-03-26T11:45:08.000Z</time>
      </trkpt>
      <trkpt lat="42.568882" lon="-0.38366">
        <ele>928.0</ele>
        <time>2019-03-26T11:45:09.000Z</time>
      </trkpt>
      <trkpt lat="42.568822" lon="-0.383648">
        <ele>928.0</ele>
        <time>2019-03-26T11:45:10.000Z</time>
      </trkpt>
      <trkpt lat="42.568757" lon="-0.383635">
        <ele>928.0</ele>
        <time>2019-03-26T11:45:11.000Z</time>
      </trkpt>
      <trkpt lat="42.568687" lon="-0.383619">
        <ele>927.0</ele>
        <time>2019-03-26T11:45:12.000Z</time>
      </trkpt>
      <trkpt lat="42.568613" lon="-0.383603">
        <ele>927.0</ele>
        <time>2019-03-26T11:45:13.000Z</time>
      </trkpt>
      <trkpt lat="42.568536" lon="-0.383586">
        <ele>926.0</ele>
        <time>2019-03-26T11:45:14.000Z</time>
      </trkpt>
      <trkpt lat="42.568458" lon="-0.383569">
        <ele>926.0</ele>
        <time>2019-03-26T11:45:15.000Z</time>
      </trkpt>
      <trkpt lat="42.568379" lon="-0.383553">
        <ele>925.0</ele>
        <time>2019-03-26T11:45:16.000Z</time>
      </trkpt>
      <trkpt lat="42.5683" lon="-0.383536">
        <ele>925.0</ele>
        <time>2019-03-26T11:45:17.000Z</time>
      </trkpt>
      <trkpt lat="42.56822" lon="-0.383517">
        <ele>924.0</ele>
        <time>2019-03-26T11:45:18.000Z</time>
      </trkpt>
      <trkpt lat="42.56814" lon="-0.383496">
        <ele>923.0</ele>
        <time>2019-03-26T11:45:19.000Z</time>
      </trkpt>
      <trkpt lat="42.568058" lon="-0.383475">
        <ele>923.0</ele>
        <time>2019-03-26T11:45:20.000Z</time>
      </trkpt>
      <trkpt lat="42.567973" lon="-0.383456">
        <ele>922.0</ele>
        <time>2019-03-26T11:45:21.000Z</time>
      </trkpt>
      <trkpt lat="42.567885" lon="-0.383442">
        <ele>921.0</ele>
        <time>2019-03-26T11:45:22.000Z</time>
      </trkpt>
      <trkpt lat="42.567794" lon="-0.383433">
        <ele>921.0</ele>
        <time>2019-03-26T11:45:23.000Z</time>
      </trkpt>
      <trkpt lat="42.5677" lon="-0.38343">
        <ele>920.0</ele>
        <time>2019-03-26T11:45:24.000Z</time>
      </trkpt>
      <trkpt lat="42.567604" lon="-0.383434">
        <ele>919.0</ele>
        <time>2019-03-26T11:45:25.000Z</time>
      </trkpt>
      <trkpt lat="42.567508" lon="-0.383446">
        <ele>918.0</ele>
        <time>2019-03-26T11:45:26.000Z</time>
      </trkpt>
      <trkpt lat="42.567411" lon="-0.383462">
        <ele>918.0</ele>
        <time>2019-03-26T11:45:27.000Z</time>
      </trkpt>
      <trkpt lat="42.567314" lon="-0.38348">
        <ele>917.0</ele>
        <time>2019-03-26T11:45:28.000Z</time>
      </trkpt>
      <trkpt lat="42.567218" lon="-0.383497">
        <ele>916.0</ele>
        <time>2019-03-26T11:45:29.000Z</time>
      </trkpt>
      <trkpt lat="42.567124" lon="-0.383513">
        <ele>915.0</ele>
        <time>2019-03-26T11:45:30.000Z</time>
      </trkpt>
      <trkpt lat="42.567032" lon="-0.38353">
        <ele>915.0</ele>
        <time>2019-03-26T11:45:31.000Z</time>
      </trkpt>
      <trkpt lat="42.56694" lon="-0.383548">
        <ele>914.0</ele>
        <time>2019-03-26T11:45:32.000Z</time>
      </trkpt>
      <trkpt lat="42.56685" lon="-0.383567">
        <ele>914.0</ele>
        <time>2019-03-26T11:45:33.000Z</time>
      </trkpt>
      <trkpt lat="42.566762" lon="-0.383589">
        <ele>913.0</ele>
        <time>2019-03-26T11:45:34.000Z</time>
      </trkpt>
      <trkpt lat="42.566677" lon="-0.383611">
        <ele>913.0</ele>
        <time>2019-03-26T11:45:35.000Z</time>
      </trkpt>
      <trkpt lat="42.566595" lon="-0.383632">
        <ele>912.0</ele>
        <time>2019-03-26T11:45:36.000Z</time>
      </trkpt>
      <trkpt lat="42.566517" lon="-0.383653">
        <ele>912.0</ele>
        <time>2019-03-26T11:45:37.000Z</time>
      </trkpt>
      <trkpt lat="42.566442" lon="-0.383672">
        <ele>912.0</ele>
        <time>2019-03-26T11:45:38.000Z</time>
      </trkpt>
      <trkpt lat="42.56637" lon="-0.38369">
        <ele>912.0</ele>
        <time>2019-03-26T11:45:39.000Z</time>
      </trkpt>
      <trkpt lat="42.566299" lon="-0.383706">
        <ele>911.0</ele>
        <time>2019-03-26T11:45:40.000Z</time>
      </trkpt>
      <trkpt lat="42.56623" lon="-0.383721">
        <ele>911.0</ele>
        <time>2019-03-26T11:45:41.000Z</time>
      </trkpt>
      <trkpt lat="42.566161" lon="-0.383732">
        <ele>911.0</ele>
        <time>2019-03-26T11:45:42.000Z</time>
      </trkpt>
      <trkpt lat="42.566091" lon="-0.383742">
        <ele>910.0</ele>
        <time>2019-03-26T11:45:43.000Z</time>
      </trkpt>
      <trkpt lat="42.566021" lon="-0.383748">
        <ele>910.0</ele>
        <time>2019-03-26T11:45:44.000Z</time>
      </trkpt>
      <trkpt lat="42.56595" lon="-0.383755">
        <ele>909.0</ele>
        <time>2019-03-26T11:45:45.000Z</time>
      </trkpt>
      <trkpt lat="42.56588" lon="-0.383763">
        <ele>909.0</ele>
        <time>2019-03-26T11:45:46.000Z</time>
      </trkpt>
      <trkpt lat="42.56581" lon="-0.383776">
        <ele>909.0</ele>
        <time>2019-03-26T11:45:47.000Z</time>
      </trkpt>
      <trkpt lat="42.565742" lon="-0.383794">
        <ele>909.0</ele>
        <time>2019-03-26T11:45:48.000Z</time>
      </trkpt>
      <trkpt lat="42.565676" lon="-0.383817">
        <ele>909.0</ele>
        <time>2019-03-26T11:45:49.000Z</time>
      </trkpt>
      <trkpt lat="42.56561" lon="-0.383845">
        <ele>909.0</ele>
        <time>2019-03-26T11:45:50.000Z</time>
      </trkpt>
      <trkpt lat="42.565544" lon="-0.383875">
        <ele>909.0</ele>
        <time>2019-03-26T11:45:51.000Z</time>
      </trkpt>
      <trkpt lat="42.565478" lon="-0.383907">
        <ele>909.0</ele>
        <time>2019-03-26T11:45:52.000Z</time>
      </trkpt>
      <trkpt lat="42.565413" lon="-0.38394">
        <ele>909.0</ele>
        <time>2019-03-26T11:45:53.000Z</time>
      </trkpt>
      <trkpt lat="42.565348" lon="-0.383973">
        <ele>909.0</ele>
        <time>2019-03-26T11:45:54.000Z</time>
      </trkpt>
      <trkpt lat="42.565285" lon="-0.384005">
        <ele>909.0</ele>
        <time>2019-03-26T11:45:55.000Z</time>
      </trkpt>
      <trkpt lat="42.565224" lon="-0.384036">
        <ele>908.0</ele>
        <time>2019-03-26T11:45:56.000Z</time>
      </trkpt>
      <trkpt lat="42.565165" lon="-0.384064">
        <ele>908.0</ele>
        <time>2019-03-26T11:45:57.000Z</time>
      </trkpt>
      <trkpt lat="42.565109" lon="-0.384089">
        <ele>908.0</ele>
        <time>2019-03-26T11:45:58.000Z</time>
      </trkpt>
      <trkpt lat="42.565058" lon="-0.38411">
        <ele>908.0</ele>
        <time>2019-03-26T11:45:59.000Z</time>
      </trkpt>
      <trkpt lat="42.565009" lon="-0.384127">
        <ele>909.0</ele>
        <time>2019-03-26T11:46:00.000Z</time>
      </trkpt>
      <trkpt lat="42.564963" lon="-0.384141">
        <ele>909.0</ele>
        <time>2019-03-26T11:46:01.000Z</time>
      </trkpt>
      <trkpt lat="42.564919" lon="-0.384153">
        <ele>909.0</ele>
        <time>2019-03-26T11:46:02.000Z</time>
      </trkpt>
      <trkpt lat="42.564876" lon="-0.384162">
        <ele>910.0</ele>
        <time>2019-03-26T11:46:03.000Z</time>
      </trkpt>
      <trkpt lat="42.564835" lon="-0.38417">
        <ele>910.0</ele>
        <time>2019-03-26T11:46:04.000Z</time>
      </trkpt>
      <trkpt lat="42.564794" lon="-0.384176">
        <ele>911.0</ele>
        <time>2019-03-26T11:46:05.000Z</time>
      </trkpt>
      <trkpt lat="42.564753" lon="-0.384181">
        <ele>911.0</ele>
        <time>2019-03-26T11:46:06.000Z</time>
      </trkpt>
      <trkpt lat="42.564712" lon="-0.384187">
        <ele>912.0</ele>
        <time>2019-03-26T11:46:07.000Z</time>
      </trkpt>
      <trkpt lat="42.564671" lon="-0.384192">
        <ele>912.0</ele>
        <time>2019-03-26T11:46:08.000Z</time>
      </trkpt>
      <trkpt lat="42.56463" lon="-0.3842">
        <ele>912.0</ele>
        <time>2019-03-26T11:46:09.000Z</time>
      </trkpt>
      <trkpt lat="42.56459" lon="-0.38421">
        <ele>913.0</ele>
        <time>2019-03-26T11:46:10.000Z</time>
      </trkpt>
      <trkpt lat="42.564552" lon="-0.384223">
        <ele>913.0</ele>
        <time>2019-03-26T11:46:11.000Z</time>
      </trkpt>
      <trkpt lat="42.564516" lon="-0.384241">
        <ele>913.0</ele>
        <time>2019-03-26T11:46:12.000Z</time>
      </trkpt>
      <trkpt lat="42.564483" lon="-0.384265">
        <ele>913.0</ele>
        <time>2019-03-26T11:46:13.000Z</time>
      </trkpt>
      <trkpt lat="42.564454" lon="-0.384295">
        <ele>913.0</ele>
        <time>2019-03-26T11:46:14.000Z</time>
      </trkpt>
      <trkpt lat="42.564427" lon="-0.38433">
        <ele>913.0</ele>
        <time>2019-03-26T11:46:15.000Z</time>
      </trkpt>
      <trkpt lat="42.564402" lon="-0.384369">
        <ele>913.0</ele>
        <time>2019-03-26T11:46:16.000Z</time>
      </trkpt>
      <trkpt lat="42.564378" lon="-0.384411">
        <ele>913.0</ele>
        <time>2019-03-26T11:46:17.000Z</time>
      </trkpt>
      <trkpt lat="42.564356" lon="-0.384454">
        <ele>913.0</ele>
        <time>2019-03-26T11:46:18.000Z</time>
      </trkpt>
      <trkpt lat="42.564334" lon="-0.384497">
        <ele>913.0</ele>
        <time>2019-03-26T11:46:19.000Z</time>
      </trkpt>
      <trkpt lat="42.564312" lon="-0.38454">
        <ele>913.0</ele>
        <time>2019-03-26T11:46:20.000Z</time>
      </trkpt>
      <trkpt lat="42.564288" lon="-0.38458">
        <ele>913.0</ele>
        <time>2019-03-26T11:46:21.000Z</time>
      </trkpt>
      <trkpt lat="42.564264" lon="-0.384617">
        <ele>913.0</ele>
        <time>2019-03-26T11:46:22.000Z</time>
      </trkpt>
      <trkpt lat="42.564238" lon="-0.38465">
        <ele>914.0</ele>
        <time>2019-03-26T11:46:23.000Z</time>
      </trkpt>
      <trkpt lat="42.564211" lon="-0.384681">
        <ele>914.0</ele>
        <time>2019-03-26T11:46:24.000Z</time>
      </trkpt>
      <trkpt lat="42.564182" lon="-0.38471">
        <ele>914.0</ele>
        <time>2019-03-26T11:46:25.000Z</time>
      </trkpt>
      <trkpt lat="42.564152" lon="-0.384737">
        <ele>914.0</ele>
        <time>2019-03-26T11:46:26.000Z</time>
      </trkpt>
      <trkpt lat="42.564121" lon="-0.384762">
        <ele>914.0</ele>
        <time>2019-03-26T11:46:27.000Z</time>
      </trkpt>
      <trkpt lat="42.564089" lon="-0.384786">
        <ele>914.0</ele>
        <time>2019-03-26T11:46:28.000Z</time>
      </trkpt>
      <trkpt lat="42.564056" lon="-0.38481">
        <ele>914.0</ele>
        <time>2019-03-26T11:46:29.000Z</time>
      </trkpt>
      <trkpt lat="42.564021" lon="-0.384833">
        <ele>915.0</ele>
        <time>2019-03-26T11:46:30.000Z</time>
      </trkpt>
      <trkpt lat="42.563986" lon="-0.384854">
        <ele>915.0</ele>
        <time>2019-03-26T11:46:31.000Z</time>
      </trkpt>
      <trkpt lat="42.563949" lon="-0.384873">
        <ele>915.0</ele>
        <time>2019-03-26T11:46:32.000Z</time>
      </trkpt>
      <trkpt lat="42.563912" lon="-0.384889">
        <ele>915.0</ele>
        <time>2019-03-26T11:46:33.000Z</time>
      </trkpt>
      <trkpt lat="42.563873" lon="-0.384902">
        <ele>915.0</ele>
        <time>2019-03-26T11:46:34.000Z</time>
      </trkpt>
      <trkpt lat="42.563834" lon="-0.384912">
        <ele>915.0</ele>
        <time>2019-03-26T11:46:35.000Z</time>
      </trkpt>
      <trkpt lat="42.563794" lon="-0.384917">
        <ele>915.0</ele>
        <time>2019-03-26T11:46:36.000Z</time>
      </trkpt>
      <trkpt lat="42.563752" lon="-0.384918">
        <ele>915.0</ele>
        <time>2019-03-26T11:46:37.000Z</time>
      </trkpt>
      <trkpt lat="42.563711" lon="-0.384916">
        <ele>915.0</ele>
        <time>2019-03-26T11:46:38.000Z</time>
      </trkpt>
      <trkpt lat="42.563669" lon="-0.384909">
        <ele>916.0</ele>
        <time>2019-03-26T11:46:39.000Z</time>
      </trkpt>
      <trkpt lat="42.563627" lon="-0.384901">
        <ele>916.0</ele>
        <time>2019-03-26T11:46:40.000Z</time>
      </trkpt>
      <trkpt lat="42.563586" lon="-0.384891">
        <ele>916.0</ele>
        <time>2019-03-26T11:46:41.000Z</time>
      </trkpt>
      <trkpt lat="42.563545" lon="-0.384879">
        <ele>916.0</ele>
        <time>2019-03-26T11:46:42.000Z</time>
      </trkpt>
      <trkpt lat="42.563506" lon="-0.384867">
        <ele>916.0</ele>
        <time>2019-03-26T11:46:43.000Z</time>
      </trkpt>
      <trkpt lat="42.563468" lon="-0.384856">
        <ele>916.0</ele>
        <time>2019-03-26T11:46:44.000Z</time>
      </trkpt>
      <trkpt lat="42.563432" lon="-0.384844">
        <ele>917.0</ele>
        <time>2019-03-26T11:46:45.000Z</time>
      </trkpt>
      <trkpt lat="42.563397" lon="-0.384833">
        <ele>917.0</ele>
        <time>2019-03-26T11:46:46.000Z</time>
      </trkpt>
      <trkpt lat="42.563362" lon="-0.384822">
        <ele>917.0</ele>
        <time>2019-03-26T11:46:47.000Z</time>
      </trkpt>
      <trkpt lat="42.563328" lon="-0.384812">
        <ele>917.0</ele>
        <time>2019-03-26T11:46:48.000Z</time>
      </trkpt>
      <trkpt lat="42.563294" lon="-0.384801">
        <ele>917.0</ele>
        <time>2019-03-26T11:46:49.000Z</time>
      </trkpt>
      <trkpt lat="42.56326" lon="-0.384791">
        <ele>917.0</ele>
        <time>2019-03-26T11:46:50.000Z</time>
      </trkpt>
      <trkpt lat="42.563225" lon="-0.384781">
        <ele>917.0</ele>
        <time>2019-03-26T11:46:51.000Z</time>
      </trkpt>
      <trkpt lat="42.56319" lon="-0.384772">
        <ele>917.0</ele>
        <time>2019-03-26T11:46:52.000Z</time>
      </trkpt>
      <trkpt lat="42.563154" lon="-0.384762">
        <ele>918.0</ele>
        <time>2019-03-26T11:46:53.000Z</time>
      </trkpt>
      <trkpt lat="42.563117" lon="-0.384753">
        <ele>918.0</ele>
        <time>2019-03-26T11:46:54.000Z</time>
      </trkpt>
      <trkpt lat="42.56308" lon="-0.384743">
        <ele>918.0</ele>
        <time>2019-03-26T11:46:55.000Z</time>
      </trkpt>
      <trkpt lat="42.563043" lon="-0.384734">
        <ele>918.0</ele>
        <time>2019-03-26T11:46:56.000Z</time>
      </trkpt>
      <trkpt lat="42.563006" lon="-0.384724">
        <ele>918.0</ele>
        <time>2019-03-26T11:46:57.000Z</time>
      </trkpt>
      <trkpt lat="42.562969" lon="-0.384715">
        <ele>918.0</ele>
        <time>2019-03-26T11:46:58.000Z</time>
      </trkpt>
      <trkpt lat="42.562931" lon="-0.384705">
        <ele>918.0</ele>
        <time>2019-03-26T11:46:59.000Z</time>
      </trkpt>
      <trkpt lat="42.562894" lon="-0.384695">
        <ele>918.0</ele>
        <time>2019-03-26T11:47:00.000Z</time>
      </trkpt>
      <trkpt lat="42.562857" lon="-0.384685">
        <ele>918.0</ele>
        <time>2019-03-26T11:47:01.000Z</time>
      </trkpt>
      <trkpt lat="42.562819" lon="-0.384675">
        <ele>918.0</ele>
        <time>2019-03-26T11:47:02.000Z</time>
      </trkpt>
      <trkpt lat="42.562782" lon="-0.384666">
        <ele>918.0</ele>
        <time>2019-03-26T11:47:03.000Z</time>
      </trkpt>
      <trkpt lat="42.562744" lon="-0.384657">
        <ele>918.0</ele>
        <time>2019-03-26T11:47:04.000Z</time>
      </trkpt>
      <trkpt lat="42.562706" lon="-0.384649">
        <ele>918.0</ele>
        <time>2019-03-26T11:47:05.000Z</time>
      </trkpt>
      <trkpt lat="42.562668" lon="-0.384642">
        <ele>918.0</ele>
        <time>2019-03-26T11:47:06.000Z</time>
      </trkpt>
      <trkpt lat="42.56263" lon="-0.384635">
        <ele>918.0</ele>
        <time>2019-03-26T11:47:07.000Z</time>
      </trkpt>
      <trkpt lat="42.562592" lon="-0.38463">
        <ele>918.0</ele>
        <time>2019-03-26T11:47:08.000Z</time>
      </trkpt>
      <trkpt lat="42.562553" lon="-0.384625">
        <ele>918.0</ele>
        <time>2019-03-26T11:47:09.000Z</time>
      </trkpt>
      <trkpt lat="42.562514" lon="-0.384619">
        <ele>918.0</ele>
        <time>2019-03-26T11:47:10.000Z</time>
      </trkpt>
      <trkpt lat="42.562474" lon="-0.384614">
        <ele>919.0</ele>
        <time>2019-03-26T11:47:11.000Z</time>
      </trkpt>
      <trkpt lat="42.562434" lon="-0.384608">
        <ele>919.0</ele>
        <time>2019-03-26T11:47:12.000Z</time>
      </trkpt>
      <trkpt lat="42.562393" lon="-0.384601">
        <ele>919.0</ele>
        <time>2019-03-26T11:47:13.000Z</time>
      </trkpt>
      <trkpt lat="42.562351" lon="-0.384594">
        <ele>919.0</ele>
        <time>2019-03-26T11:47:14.000Z</time>
      </trkpt>
      <trkpt lat="42.562309" lon="-0.384584">
        <ele>919.0</ele>
        <time>2019-03-26T11:47:15.000Z</time>
      </trkpt>
      <trkpt lat="42.562266" lon="-0.384574">
        <ele>919.0</ele>
        <time>2019-03-26T11:47:16.000Z</time>
      </trkpt>
      <trkpt lat="42.562223" lon="-0.384561">
        <ele>919.0</ele>
        <time>2019-03-26T11:47:17.000Z</time>
      </trkpt>
      <trkpt lat="42.562179" lon="-0.384547">
        <ele>919.0</ele>
        <time>2019-03-26T11:47:18.000Z</time>
      </trkpt>
      <trkpt lat="42.562134" lon="-0.384531">
        <ele>919.0</ele>
        <time>2019-03-26T11:47:19.000Z</time>
      </trkpt>
      <trkpt lat="42.562089" lon="-0.384513">
        <ele>919.0</ele>
        <time>2019-03-26T11:47:20.000Z</time>
      </trkpt>
      <trkpt lat="42.562043" lon="-0.384493">
        <ele>919.0</ele>
        <time>2019-03-26T11:47:21.000Z</time>
      </trkpt>
      <trkpt lat="42.561996" lon="-0.384471">
        <ele>919.0</ele>
        <time>2019-03-26T11:47:22.000Z</time>
      </trkpt>
      <trkpt lat="42.561947" lon="-0.384447">
        <ele>919.0</ele>
        <time>2019-03-26T11:47:23.000Z</time>
      </trkpt>
      <trkpt lat="42.561894" lon="-0.384422">
        <ele>919.0</ele>
        <time>2019-03-26T11:47:24.000Z</time>
      </trkpt>
      <trkpt lat="42.561836" lon="-0.384396">
        <ele>919.0</ele>
        <time>2019-03-26T11:47:25.000Z</time>
      </trkpt>
      <trkpt lat="42.561775" lon="-0.384369">
        <ele>918.0</ele>
        <time>2019-03-26T11:47:26.000Z</time>
      </trkpt>
      <trkpt lat="42.561711" lon="-0.384341">
        <ele>918.0</ele>
        <time>2019-03-26T11:47:27.000Z</time>
      </trkpt>
      <trkpt lat="42.561644" lon="-0.384311">
        <ele>917.0</ele>
        <time>2019-03-26T11:47:28.000Z</time>
      </trkpt>
      <trkpt lat="42.561575" lon="-0.38428">
        <ele>917.0</ele>
        <time>2019-03-26T11:47:29.000Z</time>
      </trkpt>
      <trkpt lat="42.561505" lon="-0.384249">
        <ele>916.0</ele>
        <time>2019-03-26T11:47:30.000Z</time>
      </trkpt>
      <trkpt lat="42.561435" lon="-0.384217">
        <ele>915.0</ele>
        <time>2019-03-26T11:47:31.000Z</time>
      </trkpt>
      <trkpt lat="42.561364" lon="-0.384185">
        <ele>915.0</ele>
        <time>2019-03-26T11:47:32.000Z</time>
      </trkpt>
      <trkpt lat="42.561293" lon="-0.384156">
        <ele>914.0</ele>
        <time>2019-03-26T11:47:33.000Z</time>
      </trkpt>
      <trkpt lat="42.56122" lon="-0.384131">
        <ele>913.0</ele>
        <time>2019-03-26T11:47:34.000Z</time>
      </trkpt>
      <trkpt lat="42.561146" lon="-0.384104">
        <ele>912.0</ele>
        <time>2019-03-26T11:47:35.000Z</time>
      </trkpt>
      <trkpt lat="42.56107" lon="-0.384067">
        <ele>911.0</ele>
        <time>2019-03-26T11:47:36.000Z</time>
      </trkpt>
      <trkpt lat="42.560994" lon="-0.384021">
        <ele>911.0</ele>
        <time>2019-03-26T11:47:37.000Z</time>
      </trkpt>
      <trkpt lat="42.560919" lon="-0.383967">
        <ele>910.0</ele>
        <time>2019-03-26T11:47:38.000Z</time>
      </trkpt>
      <trkpt lat="42.560846" lon="-0.383905">
        <ele>910.0</ele>
        <time>2019-03-26T11:47:39.000Z</time>
      </trkpt>
      <trkpt lat="42.560777" lon="-0.383839">
        <ele>909.0</ele>
        <time>2019-03-26T11:47:40.000Z</time>
      </trkpt>
      <trkpt lat="42.56071" lon="-0.38377">
        <ele>909.0</ele>
        <time>2019-03-26T11:47:41.000Z</time>
      </trkpt>
      <trkpt lat="42.560645" lon="-0.383701">
        <ele>909.0</ele>
        <time>2019-03-26T11:47:42.000Z</time>
      </trkpt>
      <trkpt lat="42.560583" lon="-0.383636">
        <ele>908.0</ele>
        <time>2019-03-26T11:47:43.000Z</time>
      </trkpt>
      <trkpt lat="42.560523" lon="-0.383574">
        <ele>908.0</ele>
        <time>2019-03-26T11:47:44.000Z</time>
      </trkpt>
      <trkpt lat="42.560466" lon="-0.383515">
        <ele>908.0</ele>
        <time>2019-03-26T11:47:45.000Z</time>
      </trkpt>
      <trkpt lat="42.560414" lon="-0.383461">
        <ele>908.0</ele>
        <time>2019-03-26T11:47:46.000Z</time>
      </trkpt>
      <trkpt lat="42.560367" lon="-0.38341">
        <ele>909.0</ele>
        <time>2019-03-26T11:47:47.000Z</time>
      </trkpt>
      <trkpt lat="42.560324" lon="-0.383361">
        <ele>909.0</ele>
        <time>2019-03-26T11:47:48.000Z</time>
      </trkpt>
      <trkpt lat="42.560285" lon="-0.383314">
        <ele>909.0</ele>
        <time>2019-03-26T11:47:49.000Z</time>
      </trkpt>
      <trkpt lat="42.56025" lon="-0.383266">
        <ele>910.0</ele>
        <time>2019-03-26T11:47:50.000Z</time>
      </trkpt>
      <trkpt lat="42.560217" lon="-0.383217">
        <ele>910.0</ele>
        <time>2019-03-26T11:47:51.000Z</time>
      </trkpt>
      <trkpt lat="42.560187" lon="-0.383166">
        <ele>910.0</ele>
        <time>2019-03-26T11:47:52.000Z</time>
      </trkpt>
      <trkpt lat="42.560159" lon="-0.383112">
        <ele>910.0</ele>
        <time>2019-03-26T11:47:53.000Z</time>
      </trkpt>
      <trkpt lat="42.560133" lon="-0.383056">
        <ele>910.0</ele>
        <time>2019-03-26T11:47:54.000Z</time>
      </trkpt>
      <trkpt lat="42.560108" lon="-0.382996">
        <ele>911.0</ele>
        <time>2019-03-26T11:47:55.000Z</time>
      </trkpt>
      <trkpt lat="42.560084" lon="-0.382935">
        <ele>911.0</ele>
        <time>2019-03-26T11:47:56.000Z</time>
      </trkpt>
      <trkpt lat="42.560062" lon="-0.382873">
        <ele>911.0</ele>
        <time>2019-03-26T11:47:57.000Z</time>
      </trkpt>
      <trkpt lat="42.560042" lon="-0.382812">
        <ele>911.0</ele>
        <time>2019-03-26T11:47:58.000Z</time>
      </trkpt>
      <trkpt lat="42.560023" lon="-0.382753">
        <ele>911.0</ele>
        <time>2019-03-26T11:47:59.000Z</time>
      </trkpt>
      <trkpt lat="42.560006" lon="-0.382695">
        <ele>912.0</ele>
        <time>2019-03-26T11:48:00.000Z</time>
      </trkpt>
      <trkpt lat="42.55999" lon="-0.382639">
        <ele>912.0</ele>
        <time>2019-03-26T11:48:01.000Z</time>
      </trkpt>
      <trkpt lat="42.559976" lon="-0.382584">
        <ele>912.0</ele>
        <time>2019-03-26T11:48:02.000Z</time>
      </trkpt>
      <trkpt lat="42.559963" lon="-0.382532">
        <ele>913.0</ele>
        <time>2019-03-26T11:48:03.000Z</time>
      </trkpt>
      <trkpt lat="42.55995" lon="-0.382481">
        <ele>913.0</ele>
        <time>2019-03-26T11:48:04.000Z</time>
      </trkpt>
      <trkpt lat="42.559939" lon="-0.382432">
        <ele>913.0</ele>
        <time>2019-03-26T11:48:05.000Z</time>
      </trkpt>
      <trkpt lat="42.559928" lon="-0.382386">
        <ele>914.0</ele>
        <time>2019-03-26T11:48:06.000Z</time>
      </trkpt>
      <trkpt lat="42.559918" lon="-0.382342">
        <ele>914.0</ele>
        <time>2019-03-26T11:48:07.000Z</time>
      </trkpt>
      <trkpt lat="42.559908" lon="-0.382299">
        <ele>914.0</ele>
        <time>2019-03-26T11:48:08.000Z</time>
      </trkpt>
      <trkpt lat="42.559898" lon="-0.382257">
        <ele>915.0</ele>
        <time>2019-03-26T11:48:09.000Z</time>
      </trkpt>
      <trkpt lat="42.559887" lon="-0.382216">
        <ele>915.0</ele>
        <time>2019-03-26T11:48:10.000Z</time>
      </trkpt>
      <trkpt lat="42.559876" lon="-0.382175">
        <ele>915.0</ele>
        <time>2019-03-26T11:48:11.000Z</time>
      </trkpt>
      <trkpt lat="42.559864" lon="-0.382134">
        <ele>916.0</ele>
        <time>2019-03-26T11:48:12.000Z</time>
      </trkpt>
      <trkpt lat="42.55985" lon="-0.382093">
        <ele>916.0</ele>
        <time>2019-03-26T11:48:13.000Z</time>
      </trkpt>
      <trkpt lat="42.559835" lon="-0.382051">
        <ele>916.0</ele>
        <time>2019-03-26T11:48:14.000Z</time>
      </trkpt>
      <trkpt lat="42.559817" lon="-0.382008">
        <ele>916.0</ele>
        <time>2019-03-26T11:48:15.000Z</time>
      </trkpt>
      <trkpt lat="42.559797" lon="-0.381965">
        <ele>916.0</ele>
        <time>2019-03-26T11:48:16.000Z</time>
      </trkpt>
      <trkpt lat="42.559773" lon="-0.381921">
        <ele>916.0</ele>
        <time>2019-03-26T11:48:17.000Z</time>
      </trkpt>
      <trkpt lat="42.559747" lon="-0.381877">
        <ele>916.0</ele>
        <time>2019-03-26T11:48:18.000Z</time>
      </trkpt>
      <trkpt lat="42.559716" lon="-0.381831">
        <ele>916.0</ele>
        <time>2019-03-26T11:48:19.000Z</time>
      </trkpt>
      <trkpt lat="42.559681" lon="-0.381784">
        <ele>916.0</ele>
        <time>2019-03-26T11:48:20.000Z</time>
      </trkpt>
      <trkpt lat="42.559641" lon="-0.381737">
        <ele>915.0</ele>
        <time>2019-03-26T11:48:21.000Z</time>
      </trkpt>
      <trkpt lat="42.559598" lon="-0.381688">
        <ele>915.0</ele>
        <time>2019-03-26T11:48:22.000Z</time>
      </trkpt>
      <trkpt lat="42.559551" lon="-0.381639">
        <ele>915.0</ele>
        <time>2019-03-26T11:48:23.000Z</time>
      </trkpt>
      <trkpt lat="42.559501" lon="-0.381589">
        <ele>914.0</ele>
        <time>2019-03-26T11:48:24.000Z</time>
      </trkpt>
      <trkpt lat="42.559449" lon="-0.38154">
        <ele>914.0</ele>
        <time>2019-03-26T11:48:25.000Z</time>
      </trkpt>
      <trkpt lat="42.559396" lon="-0.38149">
        <ele>914.0</ele>
        <time>2019-03-26T11:48:26.000Z</time>
      </trkpt>
      <trkpt lat="42.559342" lon="-0.381441">
        <ele>914.0</ele>
        <time>2019-03-26T11:48:27.000Z</time>
      </trkpt>
      <trkpt lat="42.559288" lon="-0.381393">
        <ele>914.0</ele>
        <time>2019-03-26T11:48:28.000Z</time>
      </trkpt>
      <trkpt lat="42.559234" lon="-0.381346">
        <ele>914.0</ele>
        <time>2019-03-26T11:48:29.000Z</time>
      </trkpt>
      <trkpt lat="42.55918" lon="-0.381302">
        <ele>914.0</ele>
        <time>2019-03-26T11:48:30.000Z</time>
      </trkpt>
      <trkpt lat="42.559127" lon="-0.38126">
        <ele>914.0</ele>
        <time>2019-03-26T11:48:31.000Z</time>
      </trkpt>
      <trkpt lat="42.559075" lon="-0.381222">
        <ele>914.0</ele>
        <time>2019-03-26T11:48:32.000Z</time>
      </trkpt>
      <trkpt lat="42.559023" lon="-0.381189">
        <ele>914.0</ele>
        <time>2019-03-26T11:48:33.000Z</time>
      </trkpt>
      <trkpt lat="42.558973" lon="-0.381161">
        <ele>914.0</ele>
        <time>2019-03-26T11:48:34.000Z</time>
      </trkpt>
      <trkpt lat="42.558924" lon="-0.38114">
        <ele>914.0</ele>
        <time>2019-03-26T11:48:35.000Z</time>
      </trkpt>
      <trkpt lat="42.558876" lon="-0.381125">
        <ele>914.0</ele>
        <time>2019-03-26T11:48:36.000Z</time>
      </trkpt>
      <trkpt lat="42.55883" lon="-0.381116">
        <ele>914.0</ele>
        <time>2019-03-26T11:48:37.000Z</time>
      </trkpt>
      <trkpt lat="42.558784" lon="-0.381113">
        <ele>914.0</ele>
        <time>2019-03-26T11:48:38.000Z</time>
      </trkpt>
      <trkpt lat="42.55874" lon="-0.381114">
        <ele>914.0</ele>
        <time>2019-03-26T11:48:39.000Z</time>
      </trkpt>
      <trkpt lat="42.558696" lon="-0.381119">
        <ele>915.0</ele>
        <time>2019-03-26T11:48:40.000Z</time>
      </trkpt>
      <trkpt lat="42.558654" lon="-0.381126">
        <ele>915.0</ele>
        <time>2019-03-26T11:48:41.000Z</time>
      </trkpt>
      <trkpt lat="42.558611" lon="-0.381135">
        <ele>915.0</ele>
        <time>2019-03-26T11:48:42.000Z</time>
      </trkpt>
      <trkpt lat="42.55857" lon="-0.381146">
        <ele>915.0</ele>
        <time>2019-03-26T11:48:43.000Z</time>
      </trkpt>
      <trkpt lat="42.558529" lon="-0.381157">
        <ele>915.0</ele>
        <time>2019-03-26T11:48:44.000Z</time>
      </trkpt>
      <trkpt lat="42.558488" lon="-0.381169">
        <ele>915.0</ele>
        <time>2019-03-26T11:48:45.000Z</time>
      </trkpt>
      <trkpt lat="42.558448" lon="-0.381182">
        <ele>916.0</ele>
        <time>2019-03-26T11:48:46.000Z</time>
      </trkpt>
      <trkpt lat="42.558408" lon="-0.381196">
        <ele>916.0</ele>
        <time>2019-03-26T11:48:47.000Z</time>
      </trkpt>
      <trkpt lat="42.558368" lon="-0.38121">
        <ele>916.0</ele>
        <time>2019-03-26T11:48:48.000Z</time>
      </trkpt>
      <trkpt lat="42.558329" lon="-0.381224">
        <ele>916.0</ele>
        <time>2019-03-26T11:48:49.000Z</time>
      </trkpt>
      <trkpt lat="42.558291" lon="-0.381238">
        <ele>916.0</ele>
        <time>2019-03-26T11:48:50.000Z</time>
      </trkpt>
      <trkpt lat="42.558253" lon="-0.381252">
        <ele>917.0</ele>
        <time>2019-03-26T11:48:51.000Z</time>
      </trkpt>
      <trkpt lat="42.558215" lon="-0.381266">
        <ele>917.0</ele>
        <time>2019-03-26T11:48:52.000Z</time>
      </trkpt>
      <trkpt lat="42.558177" lon="-0.381279">
        <ele>917.0</ele>
        <time>2019-03-26T11:48:53.000Z</time>
      </trkpt>
      <trkpt lat="42.558139" lon="-0.381292">
        <ele>917.0</ele>
        <time>2019-03-26T11:48:54.000Z</time>
      </trkpt>
      <trkpt lat="42.558101" lon="-0.381304">
        <ele>918.0</ele>
        <time>2019-03-26T11:48:55.000Z</time>
      </trkpt>
      <trkpt lat="42.558062" lon="-0.381316">
        <ele>918.0</ele>
        <time>2019-03-26T11:48:56.000Z</time>
      </trkpt>
      <trkpt lat="42.558023" lon="-0.381326">
        <ele>918.0</ele>
        <time>2019-03-26T11:48:57.000Z</time>
      </trkpt>
      <trkpt lat="42.557983" lon="-0.381335">
        <ele>918.0</ele>
        <time>2019-03-26T11:48:58.000Z</time>
      </trkpt>
      <trkpt lat="42.557942" lon="-0.381343">
        <ele>918.0</ele>
        <time>2019-03-26T11:48:59.000Z</time>
      </trkpt>
      <trkpt lat="42.557901" lon="-0.381349">
        <ele>919.0</ele>
        <time>2019-03-26T11:49:00.000Z</time>
      </trkpt>
      <trkpt lat="42.55786" lon="-0.381354">
        <ele>919.0</ele>
        <time>2019-03-26T11:49:01.000Z</time>
      </trkpt>
      <trkpt lat="42.557819" lon="-0.381356">
        <ele>919.0</ele>
        <time>2019-03-26T11:49:02.000Z</time>
      </trkpt>
      <trkpt lat="42.557777" lon="-0.381357">
        <ele>919.0</ele>
        <time>2019-03-26T11:49:03.000Z</time>
      </trkpt>
      <trkpt lat="42.557736" lon="-0.381355">
        <ele>919.0</ele>
        <time>2019-03-26T11:49:04.000Z</time>
      </trkpt>
      <trkpt lat="42.557694" lon="-0.381351">
        <ele>919.0</ele>
        <time>2019-03-26T11:49:05.000Z</time>
      </trkpt>
      <trkpt lat="42.557653" lon="-0.381345">
        <ele>919.0</ele>
        <time>2019-03-26T11:49:06.000Z</time>
      </trkpt>
      <trkpt lat="42.557613" lon="-0.381336">
        <ele>920.0</ele>
        <time>2019-03-26T11:49:07.000Z</time>
      </trkpt>
      <trkpt lat="42.557572" lon="-0.381324">
        <ele>919.0</ele>
        <time>2019-03-26T11:49:08.000Z</time>
      </trkpt>
      <trkpt lat="42.557532" lon="-0.381311">
        <ele>920.0</ele>
        <time>2019-03-26T11:49:09.000Z</time>
      </trkpt>
      <trkpt lat="42.557492" lon="-0.381296">
        <ele>920.0</ele>
        <time>2019-03-26T11:49:10.000Z</time>
      </trkpt>
      <trkpt lat="42.557452" lon="-0.381279">
        <ele>920.0</ele>
        <time>2019-03-26T11:49:11.000Z</time>
      </trkpt>
      <trkpt lat="42.557413" lon="-0.38126">
        <ele>920.0</ele>
        <time>2019-03-26T11:49:12.000Z</time>
      </trkpt>
      <trkpt lat="42.557373" lon="-0.38124">
        <ele>920.0</ele>
        <time>2019-03-26T11:49:13.000Z</time>
      </trkpt>
      <trkpt lat="42.557334" lon="-0.381218">
        <ele>920.0</ele>
        <time>2019-03-26T11:49:14.000Z</time>
      </trkpt>
      <trkpt lat="42.557294" lon="-0.381196">
        <ele>920.0</ele>
        <time>2019-03-26T11:49:15.000Z</time>
      </trkpt>
      <trkpt lat="42.557255" lon="-0.381172">
        <ele>920.0</ele>
        <time>2019-03-26T11:49:16.000Z</time>
      </trkpt>
      <trkpt lat="42.557215" lon="-0.381148">
        <ele>920.0</ele>
        <time>2019-03-26T11:49:17.000Z</time>
      </trkpt>
      <trkpt lat="42.557175" lon="-0.381123">
        <ele>920.0</ele>
        <time>2019-03-26T11:49:18.000Z</time>
      </trkpt>
      <trkpt lat="42.557135" lon="-0.381097">
        <ele>920.0</ele>
        <time>2019-03-26T11:49:19.000Z</time>
      </trkpt>
      <trkpt lat="42.557094" lon="-0.381071">
        <ele>920.0</ele>
        <time>2019-03-26T11:49:20.000Z</time>
      </trkpt>
      <trkpt lat="42.557054" lon="-0.381045">
        <ele>920.0</ele>
        <time>2019-03-26T11:49:21.000Z</time>
      </trkpt>
      <trkpt lat="42.557013" lon="-0.381018">
        <ele>921.0</ele>
        <time>2019-03-26T11:49:22.000Z</time>
      </trkpt>
      <trkpt lat="42.556971" lon="-0.380992">
        <ele>921.0</ele>
        <time>2019-03-26T11:49:23.000Z</time>
      </trkpt>
      <trkpt lat="42.556929" lon="-0.380965">
        <ele>921.0</ele>
        <time>2019-03-26T11:49:24.000Z</time>
      </trkpt>
      <trkpt lat="42.556887" lon="-0.380938">
        <ele>921.0</ele>
        <time>2019-03-26T11:49:25.000Z</time>
      </trkpt>
      <trkpt lat="42.556845" lon="-0.380911">
        <ele>921.0</ele>
        <time>2019-03-26T11:49:26.000Z</time>
      </trkpt>
      <trkpt lat="42.556802" lon="-0.380884">
        <ele>921.0</ele>
        <time>2019-03-26T11:49:27.000Z</time>
      </trkpt>
      <trkpt lat="42.556759" lon="-0.380857">
        <ele>921.0</ele>
        <time>2019-03-26T11:49:28.000Z</time>
      </trkpt>
      <trkpt lat="42.556716" lon="-0.38083">
        <ele>921.0</ele>
        <time>2019-03-26T11:49:29.000Z</time>
      </trkpt>
      <trkpt lat="42.556672" lon="-0.380803">
        <ele>921.0</ele>
        <time>2019-03-26T11:49:30.000Z</time>
      </trkpt>
      <trkpt lat="42.556628" lon="-0.380776">
        <ele>921.0</ele>
        <time>2019-03-26T11:49:31.000Z</time>
      </trkpt>
      <trkpt lat="42.556584" lon="-0.380749">
        <ele>921.0</ele>
        <time>2019-03-26T11:49:32.000Z</time>
      </trkpt>
      <trkpt lat="42.55654" lon="-0.380722">
        <ele>921.0</ele>
        <time>2019-03-26T11:49:33.000Z</time>
      </trkpt>
      <trkpt lat="42.556495" lon="-0.380694">
        <ele>921.0</ele>
        <time>2019-03-26T11:49:34.000Z</time>
      </trkpt>
      <trkpt lat="42.55645" lon="-0.380667">
        <ele>921.0</ele>
        <time>2019-03-26T11:49:35.000Z</time>
      </trkpt>
      <trkpt lat="42.556405" lon="-0.380639">
        <ele>921.0</ele>
        <time>2019-03-26T11:49:36.000Z</time>
      </trkpt>
      <trkpt lat="42.55636" lon="-0.380611">
        <ele>921.0</ele>
        <time>2019-03-26T11:49:37.000Z</time>
      </trkpt>
      <trkpt lat="42.556314" lon="-0.380583">
        <ele>921.0</ele>
        <time>2019-03-26T11:49:38.000Z</time>
      </trkpt>
      <trkpt lat="42.556268" lon="-0.380555">
        <ele>921.0</ele>
        <time>2019-03-26T11:49:39.000Z</time>
      </trkpt>
      <trkpt lat="42.556222" lon="-0.380527">
        <ele>921.0</ele>
        <time>2019-03-26T11:49:40.000Z</time>
      </trkpt>
      <trkpt lat="42.556176" lon="-0.380498">
        <ele>921.0</ele>
        <time>2019-03-26T11:49:41.000Z</time>
      </trkpt>
      <trkpt lat="42.556129" lon="-0.380469">
        <ele>921.0</ele>
        <time>2019-03-26T11:49:42.000Z</time>
      </trkpt>
      <trkpt lat="42.556083" lon="-0.38044">
        <ele>921.0</ele>
        <time>2019-03-26T11:49:43.000Z</time>
      </trkpt>
      <trkpt lat="42.556036" lon="-0.380411">
        <ele>921.0</ele>
        <time>2019-03-26T11:49:44.000Z</time>
      </trkpt>
      <trkpt lat="42.555989" lon="-0.380382">
        <ele>921.0</ele>
        <time>2019-03-26T11:49:45.000Z</time>
      </trkpt>
      <trkpt lat="42.555941" lon="-0.380352">
        <ele>921.0</ele>
        <time>2019-03-26T11:49:46.000Z</time>
      </trkpt>
      <trkpt lat="42.555894" lon="-0.380323">
        <ele>921.0</ele>
        <time>2019-03-26T11:49:47.000Z</time>
      </trkpt>
      <trkpt lat="42.555847" lon="-0.380293">
        <ele>921.0</ele>
        <time>2019-03-26T11:49:48.000Z</time>
      </trkpt>
      <trkpt lat="42.5558" lon="-0.380264">
        <ele>920.0</ele>
        <time>2019-03-26T11:49:49.000Z</time>
      </trkpt>
      <trkpt lat="42.555752" lon="-0.380234">
        <ele>920.0</ele>
        <time>2019-03-26T11:49:50.000Z</time>
      </trkpt>
      <trkpt lat="42.555705" lon="-0.380205">
        <ele>920.0</ele>
        <time>2019-03-26T11:49:51.000Z</time>
      </trkpt>
      <trkpt lat="42.555658" lon="-0.380176">
        <ele>920.0</ele>
        <time>2019-03-26T11:49:52.000Z</time>
      </trkpt>
      <trkpt lat="42.555611" lon="-0.380147">
        <ele>921.0</ele>
        <time>2019-03-26T11:49:53.000Z</time>
      </trkpt>
      <trkpt lat="42.555564" lon="-0.380118">
        <ele>921.0</ele>
        <time>2019-03-26T11:49:54.000Z</time>
      </trkpt>
      <trkpt lat="42.555517" lon="-0.38009">
        <ele>920.0</ele>
        <time>2019-03-26T11:49:55.000Z</time>
      </trkpt>
      <trkpt lat="42.555471" lon="-0.380062">
        <ele>921.0</ele>
        <time>2019-03-26T11:49:56.000Z</time>
      </trkpt>
      <trkpt lat="42.555424" lon="-0.380034">
        <ele>921.0</ele>
        <time>2019-03-26T11:49:57.000Z</time>
      </trkpt>
      <trkpt lat="42.555378" lon="-0.380006">
        <ele>921.0</ele>
        <time>2019-03-26T11:49:58.000Z</time>
      </trkpt>
      <trkpt lat="42.555332" lon="-0.379978">
        <ele>921.0</ele>
        <time>2019-03-26T11:49:59.000Z</time>
      </trkpt>
      <trkpt lat="42.555286" lon="-0.379951">
        <ele>921.0</ele>
        <time>2019-03-26T11:50:00.000Z</time>
      </trkpt>
      <trkpt lat="42.55524" lon="-0.379923">
        <ele>921.0</ele>
        <time>2019-03-26T11:50:01.000Z</time>
      </trkpt>
      <trkpt lat="42.555193" lon="-0.379894">
        <ele>921.0</ele>
        <time>2019-03-26T11:50:02.000Z</time>
      </trkpt>
      <trkpt lat="42.555147" lon="-0.379865">
        <ele>921.0</ele>
        <time>2019-03-26T11:50:03.000Z</time>
      </trkpt>
      <trkpt lat="42.5551" lon="-0.379835">
        <ele>921.0</ele>
        <time>2019-03-26T11:50:04.000Z</time>
      </trkpt>
      <trkpt lat="42.555052" lon="-0.379805">
        <ele>921.0</ele>
        <time>2019-03-26T11:50:05.000Z</time>
      </trkpt>
      <trkpt lat="42.555005" lon="-0.379774">
        <ele>921.0</ele>
        <time>2019-03-26T11:50:06.000Z</time>
      </trkpt>
      <trkpt lat="42.554957" lon="-0.379744">
        <ele>922.0</ele>
        <time>2019-03-26T11:50:07.000Z</time>
      </trkpt>
      <trkpt lat="42.55491" lon="-0.379714">
        <ele>922.0</ele>
        <time>2019-03-26T11:50:08.000Z</time>
      </trkpt>
      <trkpt lat="42.554863" lon="-0.379685">
        <ele>922.0</ele>
        <time>2019-03-26T11:50:09.000Z</time>
      </trkpt>
      <trkpt lat="42.554816" lon="-0.379658">
        <ele>922.0</ele>
        <time>2019-03-26T11:50:10.000Z</time>
      </trkpt>
      <trkpt lat="42.55477" lon="-0.379633">
        <ele>922.0</ele>
        <time>2019-03-26T11:50:11.000Z</time>
      </trkpt>
      <trkpt lat="42.55472" lon="-0.379611">
        <ele>922.0</ele>
        <time>2019-03-26T11:50:12.000Z</time>
      </trkpt>
      <trkpt lat="42.554644" lon="-0.379593">
        <ele>922.0</ele>
        <time>2019-03-26T11:50:13.000Z</time>
      </trkpt>
      <trkpt lat="42.554514" lon="-0.379581">
        <ele>922.0</ele>
        <time>2019-03-26T11:50:14.000Z</time>
      </trkpt>
      <trkpt lat="42.554306" lon="-0.379577">
        <ele>922.0</ele>
        <time>2019-03-26T11:50:15.000Z</time>
      </trkpt>
      <trkpt lat="42.553999" lon="-0.379582">
        <ele>922.0</ele>
        <time>2019-03-26T11:50:16.000Z</time>
      </trkpt>
      <trkpt lat="42.553608" lon="-0.379597">
        <ele>923.0</ele>
        <time>2019-03-26T11:50:17.000Z</time>
      </trkpt>
      <trkpt lat="42.553157" lon="-0.379622">
        <ele>923.0</ele>
        <time>2019-03-26T11:50:18.000Z</time>
      </trkpt>
      <trkpt lat="42.552669" lon="-0.379658">
        <ele>923.0</ele>
        <time>2019-03-26T11:50:19.000Z</time>
      </trkpt>
      <trkpt lat="42.552166" lon="-0.379704">
        <ele>923.0</ele>
        <time>2019-03-26T11:50:20.000Z</time>
      </trkpt>
      <trkpt lat="42.551669" lon="-0.379756">
        <ele>923.0</ele>
        <time>2019-03-26T11:50:21.000Z</time>
      </trkpt>
      <trkpt lat="42.551185" lon="-0.379814">
        <ele>923.0</ele>
        <time>2019-03-26T11:50:22.000Z</time>
      </trkpt>
      <trkpt lat="42.550683" lon="-0.379885">
        <ele>923.0</ele>
        <time>2019-03-26T11:50:23.000Z</time>
      </trkpt>
      <trkpt lat="42.550182" lon="-0.379961">
        <ele>923.0</ele>
        <time>2019-03-26T11:50:24.000Z</time>
      </trkpt>
      <trkpt lat="42.549706" lon="-0.380036">
        <ele>923.0</ele>
        <time>2019-03-26T11:50:25.000Z</time>
      </trkpt>
      <trkpt lat="42.549204" lon="-0.380111">
        <ele>923.0</ele>
        <time>2019-03-26T11:50:26.000Z</time>
      </trkpt>
      <trkpt lat="42.548722" lon="-0.380186">
        <ele>881.0</ele>
        <time>2019-03-26T11:55:58.000Z</time>
      </trkpt>
      <trkpt lat="42.548221" lon="-0.380266">
        <ele>881.0</ele>
        <time>2019-03-26T11:55:59.000Z</time>
      </trkpt>
      <trkpt lat="42.547753" lon="-0.380345">
        <ele>881.0</ele>
        <time>2019-03-26T11:56:00.000Z</time>
      </trkpt>
      <trkpt lat="42.547298" lon="-0.380419">
        <ele>881.0</ele>
        <time>2019-03-26T11:56:01.000Z</time>
      </trkpt>
      <trkpt lat="42.546798" lon="-0.380507">
        <ele>881.0</ele>
        <time>2019-03-26T11:56:02.000Z</time>
      </trkpt>
      <trkpt lat="42.546314" lon="-0.380578">
        <ele>881.0</ele>
        <time>2019-03-26T11:56:03.000Z</time>
      </trkpt>
      <trkpt lat="42.545814" lon="-0.38066">
        <ele>881.0</ele>
        <time>2019-03-26T11:56:04.000Z</time>
      </trkpt>
      <trkpt lat="42.54532" lon="-0.380742">
        <ele>881.0</ele>
        <time>2019-03-26T11:56:05.000Z</time>
      </trkpt>
      <trkpt lat="42.544874" lon="-0.380803">
        <ele>881.0</ele>
        <time>2019-03-26T11:56:06.000Z</time>
      </trkpt>
      <trkpt lat="42.544495" lon="-0.380845">
        <ele>881.0</ele>
        <time>2019-03-26T11:56:07.000Z</time>
      </trkpt>
      <trkpt lat="42.544194" lon="-0.380873">
        <ele>881.0</ele>
        <time>2019-03-26T11:56:08.000Z</time>
      </trkpt>
      <trkpt lat="42.543983" lon="-0.380891">
        <ele>881.0</ele>
        <time>2019-03-26T11:56:09.000Z</time>
      </trkpt>
      <trkpt lat="42.543868" lon="-0.380903">
        <ele>881.0</ele>
        <time>2019-03-26T11:56:10.000Z</time>
      </trkpt>
      <trkpt lat="42.543819" lon="-0.380909">
        <ele>881.0</ele>
        <time>2019-03-26T11:56:11.000Z</time>
      </trkpt>
      <trkpt lat="42.543803" lon="-0.380908">
        <ele>881.0</ele>
        <time>2019-03-26T11:56:12.000Z</time>
      </trkpt>
      <trkpt lat="42.54379" lon="-0.380897">
        <ele>881.0</ele>
        <time>2019-03-26T11:56:13.000Z</time>
      </trkpt>
      <trkpt lat="42.543774" lon="-0.380877">
        <ele>881.0</ele>
        <time>2019-03-26T11:56:14.000Z</time>
      </trkpt>
      <trkpt lat="42.543755" lon="-0.38085">
        <ele>881.0</ele>
        <time>2019-03-26T11:56:15.000Z</time>
      </trkpt>
      <trkpt lat="42.543735" lon="-0.380818">
        <ele>881.0</ele>
        <time>2019-03-26T11:56:16.000Z</time>
      </trkpt>
      <trkpt lat="42.543714" lon="-0.380782">
        <ele>881.0</ele>
        <time>2019-03-26T11:56:17.000Z</time>
      </trkpt>
      <trkpt lat="42.543692" lon="-0.380743">
        <ele>882.0</ele>
        <time>2019-03-26T11:56:18.000Z</time>
      </trkpt>
      <trkpt lat="42.543669" lon="-0.380702">
        <ele>882.0</ele>
        <time>2019-03-26T11:56:19.000Z</time>
      </trkpt>
      <trkpt lat="42.543647" lon="-0.380662">
        <ele>882.0</ele>
        <time>2019-03-26T11:56:20.000Z</time>
      </trkpt>
      <trkpt lat="42.543626" lon="-0.380624">
        <ele>882.0</ele>
        <time>2019-03-26T11:56:21.000Z</time>
      </trkpt>
      <trkpt lat="42.543605" lon="-0.380587">
        <ele>882.0</ele>
        <time>2019-03-26T11:56:22.000Z</time>
      </trkpt>
      <trkpt lat="42.543584" lon="-0.380551">
        <ele>882.0</ele>
        <time>2019-03-26T11:56:23.000Z</time>
      </trkpt>
      <trkpt lat="42.543564" lon="-0.380516">
        <ele>882.0</ele>
        <time>2019-03-26T11:56:24.000Z</time>
      </trkpt>
      <trkpt lat="42.543543" lon="-0.380481">
        <ele>883.0</ele>
        <time>2019-03-26T11:56:25.000Z</time>
      </trkpt>
      <trkpt lat="42.543522" lon="-0.380447">
        <ele>883.0</ele>
        <time>2019-03-26T11:56:26.000Z</time>
      </trkpt>
      <trkpt lat="42.5435" lon="-0.380413">
        <ele>883.0</ele>
        <time>2019-03-26T11:56:27.000Z</time>
      </trkpt>
      <trkpt lat="42.543477" lon="-0.380379">
        <ele>883.0</ele>
        <time>2019-03-26T11:56:28.000Z</time>
      </trkpt>
      <trkpt lat="42.543454" lon="-0.380346">
        <ele>883.0</ele>
        <time>2019-03-26T11:56:29.000Z</time>
      </trkpt>
      <trkpt lat="42.54343" lon="-0.380312">
        <ele>884.0</ele>
        <time>2019-03-26T11:56:30.000Z</time>
      </trkpt>
      <trkpt lat="42.543406" lon="-0.380279">
        <ele>884.0</ele>
        <time>2019-03-26T11:56:31.000Z</time>
      </trkpt>
      <trkpt lat="42.543381" lon="-0.380246">
        <ele>884.0</ele>
        <time>2019-03-26T11:56:32.000Z</time>
      </trkpt>
      <trkpt lat="42.543357" lon="-0.380214">
        <ele>884.0</ele>
        <time>2019-03-26T11:56:33.000Z</time>
      </trkpt>
      <trkpt lat="42.543332" lon="-0.380183">
        <ele>884.0</ele>
        <time>2019-03-26T11:56:34.000Z</time>
      </trkpt>
      <trkpt lat="42.543308" lon="-0.380154">
        <ele>885.0</ele>
        <time>2019-03-26T11:56:35.000Z</time>
      </trkpt>
      <trkpt lat="42.543284" lon="-0.380126">
        <ele>885.0</ele>
        <time>2019-03-26T11:56:36.000Z</time>
      </trkpt>
      <trkpt lat="42.543261" lon="-0.380099">
        <ele>885.0</ele>
        <time>2019-03-26T11:56:37.000Z</time>
      </trkpt>
      <trkpt lat="42.543238" lon="-0.380073">
        <ele>885.0</ele>
        <time>2019-03-26T11:56:38.000Z</time>
      </trkpt>
      <trkpt lat="42.543217" lon="-0.380048">
        <ele>886.0</ele>
        <time>2019-03-26T11:56:39.000Z</time>
      </trkpt>
      <trkpt lat="42.543196" lon="-0.380025">
        <ele>886.0</ele>
        <time>2019-03-26T11:56:40.000Z</time>
      </trkpt>
      <trkpt lat="42.543176" lon="-0.380002">
        <ele>886.0</ele>
        <time>2019-03-26T11:56:41.000Z</time>
      </trkpt>
      <trkpt lat="42.543158" lon="-0.37998">
        <ele>886.0</ele>
        <time>2019-03-26T11:56:42.000Z</time>
      </trkpt>
      <trkpt lat="42.543141" lon="-0.379959">
        <ele>886.0</ele>
        <time>2019-03-26T11:56:43.000Z</time>
      </trkpt>
      <trkpt lat="42.543126" lon="-0.379939">
        <ele>887.0</ele>
        <time>2019-03-26T11:56:44.000Z</time>
      </trkpt>
      <trkpt lat="42.543112" lon="-0.379919">
        <ele>887.0</ele>
        <time>2019-03-26T11:56:45.000Z</time>
      </trkpt>
      <trkpt lat="42.543099" lon="-0.379899">
        <ele>887.0</ele>
        <time>2019-03-26T11:56:46.000Z</time>
      </trkpt>
      <trkpt lat="42.543088" lon="-0.379879">
        <ele>887.0</ele>
        <time>2019-03-26T11:56:47.000Z</time>
      </trkpt>
      <trkpt lat="42.543078" lon="-0.379859">
        <ele>888.0</ele>
        <time>2019-03-26T11:56:48.000Z</time>
      </trkpt>
      <trkpt lat="42.543068" lon="-0.379839">
        <ele>888.0</ele>
        <time>2019-03-26T11:56:49.000Z</time>
      </trkpt>
      <trkpt lat="42.54306" lon="-0.379819">
        <ele>888.0</ele>
        <time>2019-03-26T11:56:50.000Z</time>
      </trkpt>
      <trkpt lat="42.543053" lon="-0.379798">
        <ele>889.0</ele>
        <time>2019-03-26T11:56:51.000Z</time>
      </trkpt>
      <trkpt lat="42.543047" lon="-0.379778">
        <ele>889.0</ele>
        <time>2019-03-26T11:56:52.000Z</time>
      </trkpt>
      <trkpt lat="42.543041" lon="-0.379757">
        <ele>889.0</ele>
        <time>2019-03-26T11:56:53.000Z</time>
      </trkpt>
      <trkpt lat="42.543037" lon="-0.379737">
        <ele>890.0</ele>
        <time>2019-03-26T11:56:54.000Z</time>
      </trkpt>
      <trkpt lat="42.543033" lon="-0.379717">
        <ele>890.0</ele>
        <time>2019-03-26T11:56:55.000Z</time>
      </trkpt>
      <trkpt lat="42.543029" lon="-0.379697">
        <ele>890.0</ele>
        <time>2019-03-26T11:56:56.000Z</time>
      </trkpt>
      <trkpt lat="42.543026" lon="-0.379678">
        <ele>891.0</ele>
        <time>2019-03-26T11:56:57.000Z</time>
      </trkpt>
      <trkpt lat="42.543024" lon="-0.37966">
        <ele>891.0</ele>
        <time>2019-03-26T11:56:58.000Z</time>
      </trkpt>
      <trkpt lat="42.543021" lon="-0.379642">
        <ele>891.0</ele>
        <time>2019-03-26T11:56:59.000Z</time>
      </trkpt>
      <trkpt lat="42.543019" lon="-0.379624">
        <ele>891.0</ele>
        <time>2019-03-26T11:57:00.000Z</time>
      </trkpt>
      <trkpt lat="42.543015" lon="-0.379607">
        <ele>892.0</ele>
        <time>2019-03-26T11:57:01.000Z</time>
      </trkpt>
      <trkpt lat="42.543012" lon="-0.379589">
        <ele>892.0</ele>
        <time>2019-03-26T11:57:02.000Z</time>
      </trkpt>
      <trkpt lat="42.543007" lon="-0.379572">
        <ele>892.0</ele>
        <time>2019-03-26T11:57:03.000Z</time>
      </trkpt>
      <trkpt lat="42.543001" lon="-0.379554">
        <ele>893.0</ele>
        <time>2019-03-26T11:57:04.000Z</time>
      </trkpt>
      <trkpt lat="42.542993" lon="-0.379536">
        <ele>893.0</ele>
        <time>2019-03-26T11:57:05.000Z</time>
      </trkpt>
      <trkpt lat="42.542986" lon="-0.379517">
        <ele>893.0</ele>
        <time>2019-03-26T11:57:06.000Z</time>
      </trkpt>
      <trkpt lat="42.542978" lon="-0.379499">
        <ele>893.0</ele>
        <time>2019-03-26T11:57:07.000Z</time>
      </trkpt>
      <trkpt lat="42.542971" lon="-0.37948">
        <ele>894.0</ele>
        <time>2019-03-26T11:57:08.000Z</time>
      </trkpt>
      <trkpt lat="42.542966" lon="-0.379462">
        <ele>894.0</ele>
        <time>2019-03-26T11:57:09.000Z</time>
      </trkpt>
      <trkpt lat="42.542962" lon="-0.379445">
        <ele>894.0</ele>
        <time>2019-03-26T11:57:10.000Z</time>
      </trkpt>
      <trkpt lat="42.542959" lon="-0.379427">
        <ele>894.0</ele>
        <time>2019-03-26T11:57:11.000Z</time>
      </trkpt>
      <trkpt lat="42.542954" lon="-0.37941">
        <ele>894.0</ele>
        <time>2019-03-26T11:57:12.000Z</time>
      </trkpt>
      <trkpt lat="42.54295" lon="-0.379393">
        <ele>895.0</ele>
        <time>2019-03-26T11:57:13.000Z</time>
      </trkpt>
      <trkpt lat="42.542944" lon="-0.379375">
        <ele>895.0</ele>
        <time>2019-03-26T11:57:14.000Z</time>
      </trkpt>
      <trkpt lat="42.542938" lon="-0.379357">
        <ele>895.0</ele>
        <time>2019-03-26T11:57:15.000Z</time>
      </trkpt>
      <trkpt lat="42.542931" lon="-0.37934">
        <ele>895.0</ele>
        <time>2019-03-26T11:57:16.000Z</time>
      </trkpt>
      <trkpt lat="42.542923" lon="-0.379321">
        <ele>895.0</ele>
        <time>2019-03-26T11:57:17.000Z</time>
      </trkpt>
      <trkpt lat="42.542915" lon="-0.379303">
        <ele>895.0</ele>
        <time>2019-03-26T11:57:18.000Z</time>
      </trkpt>
      <trkpt lat="42.542907" lon="-0.379285">
        <ele>895.0</ele>
        <time>2019-03-26T11:57:19.000Z</time>
      </trkpt>
      <trkpt lat="42.542898" lon="-0.379266">
        <ele>895.0</ele>
        <time>2019-03-26T11:57:20.000Z</time>
      </trkpt>
      <trkpt lat="42.542888" lon="-0.379246">
        <ele>896.0</ele>
        <time>2019-03-26T11:57:21.000Z</time>
      </trkpt>
      <trkpt lat="42.542878" lon="-0.379227">
        <ele>896.0</ele>
        <time>2019-03-26T11:57:22.000Z</time>
      </trkpt>
      <trkpt lat="42.542867" lon="-0.379207">
        <ele>896.0</ele>
        <time>2019-03-26T11:57:23.000Z</time>
      </trkpt>
      <trkpt lat="42.542856" lon="-0.379186">
        <ele>896.0</ele>
        <time>2019-03-26T11:57:24.000Z</time>
      </trkpt>
      <trkpt lat="42.542844" lon="-0.379165">
        <ele>896.0</ele>
        <time>2019-03-26T11:57:25.000Z</time>
      </trkpt>
      <trkpt lat="42.542832" lon="-0.379143">
        <ele>896.0</ele>
        <time>2019-03-26T11:57:26.000Z</time>
      </trkpt>
      <trkpt lat="42.542819" lon="-0.379121">
        <ele>897.0</ele>
        <time>2019-03-26T11:57:27.000Z</time>
      </trkpt>
      <trkpt lat="42.542806" lon="-0.379099">
        <ele>897.0</ele>
        <time>2019-03-26T11:57:28.000Z</time>
      </trkpt>
      <trkpt lat="42.542792" lon="-0.379077">
        <ele>897.0</ele>
        <time>2019-03-26T11:57:29.000Z</time>
      </trkpt>
      <trkpt lat="42.542777" lon="-0.379055">
        <ele>897.0</ele>
        <time>2019-03-26T11:57:30.000Z</time>
      </trkpt>
      <trkpt lat="42.54276" lon="-0.379034">
        <ele>897.0</ele>
        <time>2019-03-26T11:57:31.000Z</time>
      </trkpt>
      <trkpt lat="42.542743" lon="-0.379013">
        <ele>897.0</ele>
        <time>2019-03-26T11:57:32.000Z</time>
      </trkpt>
      <trkpt lat="42.542724" lon="-0.378991">
        <ele>897.0</ele>
        <time>2019-03-26T11:57:33.000Z</time>
      </trkpt>
      <trkpt lat="42.542704" lon="-0.378968">
        <ele>897.0</ele>
        <time>2019-03-26T11:57:34.000Z</time>
      </trkpt>
      <trkpt lat="42.542684" lon="-0.378942">
        <ele>897.0</ele>
        <time>2019-03-26T11:57:35.000Z</time>
      </trkpt>
      <trkpt lat="42.542663" lon="-0.378915">
        <ele>897.0</ele>
        <time>2019-03-26T11:57:36.000Z</time>
      </trkpt>
      <trkpt lat="42.542641" lon="-0.378886">
        <ele>897.0</ele>
        <time>2019-03-26T11:57:37.000Z</time>
      </trkpt>
      <trkpt lat="42.542619" lon="-0.378856">
        <ele>897.0</ele>
        <time>2019-03-26T11:57:38.000Z</time>
      </trkpt>
      <trkpt lat="42.542596" lon="-0.378824">
        <ele>897.0</ele>
        <time>2019-03-26T11:57:39.000Z</time>
      </trkpt>
      <trkpt lat="42.542573" lon="-0.378792">
        <ele>897.0</ele>
        <time>2019-03-26T11:57:40.000Z</time>
      </trkpt>
      <trkpt lat="42.54255" lon="-0.37876">
        <ele>897.0</ele>
        <time>2019-03-26T11:57:41.000Z</time>
      </trkpt>
      <trkpt lat="42.542527" lon="-0.378727">
        <ele>897.0</ele>
        <time>2019-03-26T11:57:42.000Z</time>
      </trkpt>
      <trkpt lat="42.542503" lon="-0.378693">
        <ele>897.0</ele>
        <time>2019-03-26T11:57:43.000Z</time>
      </trkpt>
      <trkpt lat="42.542479" lon="-0.37866">
        <ele>897.0</ele>
        <time>2019-03-26T11:57:44.000Z</time>
      </trkpt>
      <trkpt lat="42.542455" lon="-0.378626">
        <ele>897.0</ele>
        <time>2019-03-26T11:57:45.000Z</time>
      </trkpt>
      <trkpt lat="42.542431" lon="-0.378591">
        <ele>897.0</ele>
        <time>2019-03-26T11:57:46.000Z</time>
      </trkpt>
      <trkpt lat="42.542406" lon="-0.378556">
        <ele>897.0</ele>
        <time>2019-03-26T11:57:47.000Z</time>
      </trkpt>
      <trkpt lat="42.54238" lon="-0.378519">
        <ele>896.0</ele>
        <time>2019-03-26T11:57:48.000Z</time>
      </trkpt>
      <trkpt lat="42.542354" lon="-0.378482">
        <ele>896.0</ele>
        <time>2019-03-26T11:57:49.000Z</time>
      </trkpt>
      <trkpt lat="42.542327" lon="-0.378444">
        <ele>896.0</ele>
        <time>2019-03-26T11:57:50.000Z</time>
      </trkpt>
      <trkpt lat="42.542299" lon="-0.378405">
        <ele>896.0</ele>
        <time>2019-03-26T11:57:51.000Z</time>
      </trkpt>
      <trkpt lat="42.542271" lon="-0.378365">
        <ele>896.0</ele>
        <time>2019-03-26T11:57:52.000Z</time>
      </trkpt>
      <trkpt lat="42.542241" lon="-0.378323">
        <ele>896.0</ele>
        <time>2019-03-26T11:57:53.000Z</time>
      </trkpt>
      <trkpt lat="42.542211" lon="-0.37828">
        <ele>896.0</ele>
        <time>2019-03-26T11:57:54.000Z</time>
      </trkpt>
      <trkpt lat="42.542179" lon="-0.378236">
        <ele>896.0</ele>
        <time>2019-03-26T11:57:55.000Z</time>
      </trkpt>
      <trkpt lat="42.542147" lon="-0.37819">
        <ele>896.0</ele>
        <time>2019-03-26T11:57:56.000Z</time>
      </trkpt>
      <trkpt lat="42.542113" lon="-0.378142">
        <ele>896.0</ele>
        <time>2019-03-26T11:57:57.000Z</time>
      </trkpt>
      <trkpt lat="42.542078" lon="-0.378094">
        <ele>896.0</ele>
        <time>2019-03-26T11:57:58.000Z</time>
      </trkpt>
      <trkpt lat="42.542043" lon="-0.378045">
        <ele>896.0</ele>
        <time>2019-03-26T11:57:59.000Z</time>
      </trkpt>
      <trkpt lat="42.542007" lon="-0.377995">
        <ele>896.0</ele>
        <time>2019-03-26T11:58:00.000Z</time>
      </trkpt>
      <trkpt lat="42.541971" lon="-0.377944">
        <ele>896.0</ele>
        <time>2019-03-26T11:58:01.000Z</time>
      </trkpt>
      <trkpt lat="42.541935" lon="-0.377893">
        <ele>896.0</ele>
        <time>2019-03-26T11:58:02.000Z</time>
      </trkpt>
      <trkpt lat="42.541898" lon="-0.377843">
        <ele>896.0</ele>
        <time>2019-03-26T11:58:03.000Z</time>
      </trkpt>
      <trkpt lat="42.541862" lon="-0.377792">
        <ele>896.0</ele>
        <time>2019-03-26T11:58:04.000Z</time>
      </trkpt>
      <trkpt lat="42.541825" lon="-0.377742">
        <ele>896.0</ele>
        <time>2019-03-26T11:58:05.000Z</time>
      </trkpt>
      <trkpt lat="42.541788" lon="-0.377692">
        <ele>896.0</ele>
        <time>2019-03-26T11:58:06.000Z</time>
      </trkpt>
      <trkpt lat="42.541752" lon="-0.377641">
        <ele>895.0</ele>
        <time>2019-03-26T11:58:07.000Z</time>
      </trkpt>
      <trkpt lat="42.541715" lon="-0.377591">
        <ele>895.0</ele>
        <time>2019-03-26T11:58:08.000Z</time>
      </trkpt>
      <trkpt lat="42.541679" lon="-0.37754">
        <ele>895.0</ele>
        <time>2019-03-26T11:58:09.000Z</time>
      </trkpt>
      <trkpt lat="42.541642" lon="-0.377488">
        <ele>895.0</ele>
        <time>2019-03-26T11:58:10.000Z</time>
      </trkpt>
      <trkpt lat="42.541605" lon="-0.377436">
        <ele>895.0</ele>
        <time>2019-03-26T11:58:11.000Z</time>
      </trkpt>
      <trkpt lat="42.541569" lon="-0.377383">
        <ele>895.0</ele>
        <time>2019-03-26T11:58:12.000Z</time>
      </trkpt>
      <trkpt lat="42.541532" lon="-0.377331">
        <ele>895.0</ele>
        <time>2019-03-26T11:58:13.000Z</time>
      </trkpt>
      <trkpt lat="42.541496" lon="-0.377278">
        <ele>895.0</ele>
        <time>2019-03-26T11:58:14.000Z</time>
      </trkpt>
      <trkpt lat="42.541461" lon="-0.377226">
        <ele>895.0</ele>
        <time>2019-03-26T11:58:15.000Z</time>
      </trkpt>
      <trkpt lat="42.541426" lon="-0.377174">
        <ele>895.0</ele>
        <time>2019-03-26T11:58:16.000Z</time>
      </trkpt>
      <trkpt lat="42.541392" lon="-0.377122">
        <ele>895.0</ele>
        <time>2019-03-26T11:58:17.000Z</time>
      </trkpt>
      <trkpt lat="42.54136" lon="-0.377072">
        <ele>895.0</ele>
        <time>2019-03-26T11:58:18.000Z</time>
      </trkpt>
      <trkpt lat="42.541328" lon="-0.377023">
        <ele>895.0</ele>
        <time>2019-03-26T11:58:19.000Z</time>
      </trkpt>
      <trkpt lat="42.541295" lon="-0.376973">
        <ele>895.0</ele>
        <time>2019-03-26T11:58:20.000Z</time>
      </trkpt>
      <trkpt lat="42.541258" lon="-0.376923">
        <ele>894.0</ele>
        <time>2019-03-26T11:58:21.000Z</time>
      </trkpt>
      <trkpt lat="42.541215" lon="-0.376885">
        <ele>894.0</ele>
        <time>2019-03-26T11:58:22.000Z</time>
      </trkpt>
      <trkpt lat="42.541165" lon="-0.376871">
        <ele>894.0</ele>
        <time>2019-03-26T11:58:23.000Z</time>
      </trkpt>
      <trkpt lat="42.541117" lon="-0.376882">
        <ele>894.0</ele>
        <time>2019-03-26T11:58:24.000Z</time>
      </trkpt>
      <trkpt lat="42.541074" lon="-0.376911">
        <ele>894.0</ele>
        <time>2019-03-26T11:58:25.000Z</time>
      </trkpt>
      <trkpt lat="42.541032" lon="-0.376943">
        <ele>894.0</ele>
        <time>2019-03-26T11:58:26.000Z</time>
      </trkpt>
      <trkpt lat="42.540989" lon="-0.376975">
        <ele>894.0</ele>
        <time>2019-03-26T11:58:27.000Z</time>
      </trkpt>
      <trkpt lat="42.540945" lon="-0.377006">
        <ele>894.0</ele>
        <time>2019-03-26T11:58:28.000Z</time>
      </trkpt>
      <trkpt lat="42.5409" lon="-0.377038">
        <ele>894.0</ele>
        <time>2019-03-26T11:58:29.000Z</time>
      </trkpt>
      <trkpt lat="42.540855" lon="-0.377069">
        <ele>894.0</ele>
        <time>2019-03-26T11:58:30.000Z</time>
      </trkpt>
      <trkpt lat="42.540809" lon="-0.377101">
        <ele>894.0</ele>
        <time>2019-03-26T11:58:31.000Z</time>
      </trkpt>
      <trkpt lat="42.540763" lon="-0.377133">
        <ele>894.0</ele>
        <time>2019-03-26T11:58:32.000Z</time>
      </trkpt>
      <trkpt lat="42.540717" lon="-0.377166">
        <ele>894.0</ele>
        <time>2019-03-26T11:58:33.000Z</time>
      </trkpt>
      <trkpt lat="42.54067" lon="-0.377199">
        <ele>894.0</ele>
        <time>2019-03-26T11:58:34.000Z</time>
      </trkpt>
      <trkpt lat="42.540623" lon="-0.377233">
        <ele>894.0</ele>
        <time>2019-03-26T11:58:35.000Z</time>
      </trkpt>
      <trkpt lat="42.540575" lon="-0.377266">
        <ele>894.0</ele>
        <time>2019-03-26T11:58:36.000Z</time>
      </trkpt>
      <trkpt lat="42.540527" lon="-0.3773">
        <ele>894.0</ele>
        <time>2019-03-26T11:58:37.000Z</time>
      </trkpt>
      <trkpt lat="42.540478" lon="-0.377332">
        <ele>894.0</ele>
        <time>2019-03-26T11:58:38.000Z</time>
      </trkpt>
      <trkpt lat="42.540428" lon="-0.377364">
        <ele>894.0</ele>
        <time>2019-03-26T11:58:39.000Z</time>
      </trkpt>
      <trkpt lat="42.540376" lon="-0.377395">
        <ele>894.0</ele>
        <time>2019-03-26T11:58:40.000Z</time>
      </trkpt>
      <trkpt lat="42.540323" lon="-0.377424">
        <ele>894.0</ele>
        <time>2019-03-26T11:58:41.000Z</time>
      </trkpt>
      <trkpt lat="42.540269" lon="-0.377451">
        <ele>894.0</ele>
        <time>2019-03-26T11:58:42.000Z</time>
      </trkpt>
      <trkpt lat="42.540213" lon="-0.377477">
        <ele>894.0</ele>
        <time>2019-03-26T11:58:43.000Z</time>
      </trkpt>
      <trkpt lat="42.540157" lon="-0.377502">
        <ele>894.0</ele>
        <time>2019-03-26T11:58:44.000Z</time>
      </trkpt>
      <trkpt lat="42.5401" lon="-0.377526">
        <ele>894.0</ele>
        <time>2019-03-26T11:58:45.000Z</time>
      </trkpt>
      <trkpt lat="42.540042" lon="-0.377548">
        <ele>894.0</ele>
        <time>2019-03-26T11:58:46.000Z</time>
      </trkpt>
      <trkpt lat="42.539983" lon="-0.377569">
        <ele>894.0</ele>
        <time>2019-03-26T11:58:47.000Z</time>
      </trkpt>
      <trkpt lat="42.539924" lon="-0.37759">
        <ele>894.0</ele>
        <time>2019-03-26T11:58:48.000Z</time>
      </trkpt>
      <trkpt lat="42.539864" lon="-0.377609">
        <ele>894.0</ele>
        <time>2019-03-26T11:58:49.000Z</time>
      </trkpt>
      <trkpt lat="42.539804" lon="-0.377628">
        <ele>893.0</ele>
        <time>2019-03-26T11:58:50.000Z</time>
      </trkpt>
      <trkpt lat="42.539744" lon="-0.377646">
        <ele>893.0</ele>
        <time>2019-03-26T11:58:51.000Z</time>
      </trkpt>
      <trkpt lat="42.539683" lon="-0.377663">
        <ele>893.0</ele>
        <time>2019-03-26T11:58:52.000Z</time>
      </trkpt>
      <trkpt lat="42.539622" lon="-0.377681">
        <ele>893.0</ele>
        <time>2019-03-26T11:58:53.000Z</time>
      </trkpt>
      <trkpt lat="42.53956" lon="-0.377698">
        <ele>893.0</ele>
        <time>2019-03-26T11:58:54.000Z</time>
      </trkpt>
      <trkpt lat="42.539498" lon="-0.377715">
        <ele>893.0</ele>
        <time>2019-03-26T11:58:55.000Z</time>
      </trkpt>
      <trkpt lat="42.539435" lon="-0.377732">
        <ele>893.0</ele>
        <time>2019-03-26T11:58:56.000Z</time>
      </trkpt>
      <trkpt lat="42.539372" lon="-0.377748">
        <ele>893.0</ele>
        <time>2019-03-26T11:58:57.000Z</time>
      </trkpt>
      <trkpt lat="42.539309" lon="-0.377765">
        <ele>892.0</ele>
        <time>2019-03-26T11:58:58.000Z</time>
      </trkpt>
      <trkpt lat="42.539246" lon="-0.377781">
        <ele>892.0</ele>
        <time>2019-03-26T11:58:59.000Z</time>
      </trkpt>
      <trkpt lat="42.539182" lon="-0.377796">
        <ele>892.0</ele>
        <time>2019-03-26T11:59:00.000Z</time>
      </trkpt>
      <trkpt lat="42.539118" lon="-0.377811">
        <ele>892.0</ele>
        <time>2019-03-26T11:59:01.000Z</time>
      </trkpt>
      <trkpt lat="42.539055" lon="-0.377825">
        <ele>891.0</ele>
        <time>2019-03-26T11:59:02.000Z</time>
      </trkpt>
      <trkpt lat="42.538992" lon="-0.377838">
        <ele>891.0</ele>
        <time>2019-03-26T11:59:03.000Z</time>
      </trkpt>
      <trkpt lat="42.538928" lon="-0.377851">
        <ele>891.0</ele>
        <time>2019-03-26T11:59:04.000Z</time>
      </trkpt>
      <trkpt lat="42.538864" lon="-0.377862">
        <ele>891.0</ele>
        <time>2019-03-26T11:59:05.000Z</time>
      </trkpt>
      <trkpt lat="42.5388" lon="-0.377872">
        <ele>891.0</ele>
        <time>2019-03-26T11:59:06.000Z</time>
      </trkpt>
      <trkpt lat="42.538734" lon="-0.37788">
        <ele>890.0</ele>
        <time>2019-03-26T11:59:07.000Z</time>
      </trkpt>
      <trkpt lat="42.538668" lon="-0.377886">
        <ele>890.0</ele>
        <time>2019-03-26T11:59:08.000Z</time>
      </trkpt>
      <trkpt lat="42.5386" lon="-0.377891">
        <ele>890.0</ele>
        <time>2019-03-26T11:59:09.000Z</time>
      </trkpt>
      <trkpt lat="42.538531" lon="-0.377895">
        <ele>890.0</ele>
        <time>2019-03-26T11:59:10.000Z</time>
      </trkpt>
      <trkpt lat="42.538462" lon="-0.377899">
        <ele>890.0</ele>
        <time>2019-03-26T11:59:11.000Z</time>
      </trkpt>
      <trkpt lat="42.538397" lon="-0.377908">
        <ele>890.0</ele>
        <time>2019-03-26T11:59:12.000Z</time>
      </trkpt>
      <trkpt lat="42.538336" lon="-0.377925">
        <ele>890.0</ele>
        <time>2019-03-26T11:59:13.000Z</time>
      </trkpt>
      <trkpt lat="42.538282" lon="-0.377954">
        <ele>890.0</ele>
        <time>2019-03-26T11:59:14.000Z</time>
      </trkpt>
      <trkpt lat="42.538244" lon="-0.378001">
        <ele>890.0</ele>
        <time>2019-03-26T11:59:15.000Z</time>
      </trkpt>
      <trkpt lat="42.538225" lon="-0.378067">
        <ele>890.0</ele>
        <time>2019-03-26T11:59:16.000Z</time>
      </trkpt>
      <trkpt lat="42.538215" lon="-0.37814">
        <ele>890.0</ele>
        <time>2019-03-26T11:59:17.000Z</time>
      </trkpt>
      <trkpt lat="42.538202" lon="-0.378206">
        <ele>890.0</ele>
        <time>2019-03-26T11:59:18.000Z</time>
      </trkpt>
      <trkpt lat="42.538182" lon="-0.378266">
        <ele>890.0</ele>
        <time>2019-03-26T11:59:19.000Z</time>
      </trkpt>
      <trkpt lat="42.538154" lon="-0.378324">
        <ele>890.0</ele>
        <time>2019-03-26T11:59:20.000Z</time>
      </trkpt>
      <trkpt lat="42.538117" lon="-0.37837">
        <ele>889.0</ele>
        <time>2019-03-26T11:59:21.000Z</time>
      </trkpt>
      <trkpt lat="42.53807" lon="-0.378394">
        <ele>889.0</ele>
        <time>2019-03-26T11:59:22.000Z</time>
      </trkpt>
      <trkpt lat="42.538018" lon="-0.378394">
        <ele>889.0</ele>
        <time>2019-03-26T11:59:23.000Z</time>
      </trkpt>
      <trkpt lat="42.537967" lon="-0.378369">
        <ele>889.0</ele>
        <time>2019-03-26T11:59:24.000Z</time>
      </trkpt>
      <trkpt lat="42.537922" lon="-0.378322">
        <ele>889.0</ele>
        <time>2019-03-26T11:59:25.000Z</time>
      </trkpt>
      <trkpt lat="42.537881" lon="-0.378263">
        <ele>889.0</ele>
        <time>2019-03-26T11:59:26.000Z</time>
      </trkpt>
      <trkpt lat="42.537839" lon="-0.378202">
        <ele>889.0</ele>
        <time>2019-03-26T11:59:27.000Z</time>
      </trkpt>
      <trkpt lat="42.537792" lon="-0.378154">
        <ele>889.0</ele>
        <time>2019-03-26T11:59:28.000Z</time>
      </trkpt>
      <trkpt lat="42.537737" lon="-0.378126">
        <ele>889.0</ele>
        <time>2019-03-26T11:59:29.000Z</time>
      </trkpt>
      <trkpt lat="42.537677" lon="-0.378114">
        <ele>889.0</ele>
        <time>2019-03-26T11:59:30.000Z</time>
      </trkpt>
      <trkpt lat="42.537612" lon="-0.37811">
        <ele>889.0</ele>
        <time>2019-03-26T11:59:31.000Z</time>
      </trkpt>
      <trkpt lat="42.537546" lon="-0.378107">
        <ele>889.0</ele>
        <time>2019-03-26T11:59:32.000Z</time>
      </trkpt>
      <trkpt lat="42.53748" lon="-0.378099">
        <ele>889.0</ele>
        <time>2019-03-26T11:59:33.000Z</time>
      </trkpt>
      <trkpt lat="42.537416" lon="-0.378087">
        <ele>889.0</ele>
        <time>2019-03-26T11:59:34.000Z</time>
      </trkpt>
      <trkpt lat="42.537352" lon="-0.378073">
        <ele>888.0</ele>
        <time>2019-03-26T11:59:35.000Z</time>
      </trkpt>
      <trkpt lat="42.537288" lon="-0.37806">
        <ele>888.0</ele>
        <time>2019-03-26T11:59:36.000Z</time>
      </trkpt>
      <trkpt lat="42.537224" lon="-0.378051">
        <ele>888.0</ele>
        <time>2019-03-26T11:59:37.000Z</time>
      </trkpt>
      <trkpt lat="42.53716" lon="-0.378049">
        <ele>888.0</ele>
        <time>2019-03-26T11:59:38.000Z</time>
      </trkpt>
      <trkpt lat="42.537094" lon="-0.378055">
        <ele>888.0</ele>
        <time>2019-03-26T11:59:39.000Z</time>
      </trkpt>
      <trkpt lat="42.537028" lon="-0.378073">
        <ele>888.0</ele>
        <time>2019-03-26T11:59:40.000Z</time>
      </trkpt>
      <trkpt lat="42.536962" lon="-0.378101">
        <ele>888.0</ele>
        <time>2019-03-26T11:59:41.000Z</time>
      </trkpt>
      <trkpt lat="42.536897" lon="-0.378137">
        <ele>887.0</ele>
        <time>2019-03-26T11:59:42.000Z</time>
      </trkpt>
      <trkpt lat="42.536835" lon="-0.37818">
        <ele>887.0</ele>
        <time>2019-03-26T11:59:43.000Z</time>
      </trkpt>
      <trkpt lat="42.536776" lon="-0.378229">
        <ele>887.0</ele>
        <time>2019-03-26T11:59:44.000Z</time>
      </trkpt>
      <trkpt lat="42.53672" lon="-0.378279">
        <ele>887.0</ele>
        <time>2019-03-26T11:59:45.000Z</time>
      </trkpt>
      <trkpt lat="42.536665" lon="-0.37833">
        <ele>887.0</ele>
        <time>2019-03-26T11:59:46.000Z</time>
      </trkpt>
      <trkpt lat="42.536609" lon="-0.378377">
        <ele>887.0</ele>
        <time>2019-03-26T11:59:47.000Z</time>
      </trkpt>
      <trkpt lat="42.53655" lon="-0.37842">
        <ele>887.0</ele>
        <time>2019-03-26T11:59:48.000Z</time>
      </trkpt>
      <trkpt lat="42.53649" lon="-0.378458">
        <ele>886.0</ele>
        <time>2019-03-26T11:59:49.000Z</time>
      </trkpt>
      <trkpt lat="42.536429" lon="-0.378494">
        <ele>886.0</ele>
        <time>2019-03-26T11:59:50.000Z</time>
      </trkpt>
      <trkpt lat="42.536368" lon="-0.378529">
        <ele>886.0</ele>
        <time>2019-03-26T11:59:51.000Z</time>
      </trkpt>
      <trkpt lat="42.536307" lon="-0.378564">
        <ele>886.0</ele>
        <time>2019-03-26T11:59:52.000Z</time>
      </trkpt>
      <trkpt lat="42.536247" lon="-0.378599">
        <ele>885.0</ele>
        <time>2019-03-26T11:59:53.000Z</time>
      </trkpt>
      <trkpt lat="42.536188" lon="-0.378633">
        <ele>885.0</ele>
        <time>2019-03-26T11:59:54.000Z</time>
      </trkpt>
      <trkpt lat="42.536129" lon="-0.378665">
        <ele>885.0</ele>
        <time>2019-03-26T11:59:55.000Z</time>
      </trkpt>
      <trkpt lat="42.536071" lon="-0.378697">
        <ele>886.0</ele>
        <time>2019-03-26T11:59:56.000Z</time>
      </trkpt>
      <trkpt lat="42.536013" lon="-0.378727">
        <ele>886.0</ele>
        <time>2019-03-26T11:59:57.000Z</time>
      </trkpt>
      <trkpt lat="42.535955" lon="-0.378756">
        <ele>886.0</ele>
        <time>2019-03-26T11:59:58.000Z</time>
      </trkpt>
      <trkpt lat="42.535896" lon="-0.378785">
        <ele>886.0</ele>
        <time>2019-03-26T11:59:59.000Z</time>
      </trkpt>
      <trkpt lat="42.535837" lon="-0.378813">
        <ele>886.0</ele>
        <time>2019-03-26T12:00:00.000Z</time>
      </trkpt>
      <trkpt lat="42.535777" lon="-0.378841">
        <ele>886.0</ele>
        <time>2019-03-26T12:00:01.000Z</time>
      </trkpt>
      <trkpt lat="42.535716" lon="-0.378869">
        <ele>886.0</ele>
        <time>2019-03-26T12:00:02.000Z</time>
      </trkpt>
      <trkpt lat="42.535653" lon="-0.378897">
        <ele>886.0</ele>
        <time>2019-03-26T12:00:03.000Z</time>
      </trkpt>
      <trkpt lat="42.53559" lon="-0.378925">
        <ele>885.0</ele>
        <time>2019-03-26T12:00:04.000Z</time>
      </trkpt>
      <trkpt lat="42.535525" lon="-0.378953">
        <ele>885.0</ele>
        <time>2019-03-26T12:00:05.000Z</time>
      </trkpt>
      <trkpt lat="42.53546" lon="-0.378982">
        <ele>885.0</ele>
        <time>2019-03-26T12:00:06.000Z</time>
      </trkpt>
      <trkpt lat="42.535394" lon="-0.37901">
        <ele>885.0</ele>
        <time>2019-03-26T12:00:07.000Z</time>
      </trkpt>
      <trkpt lat="42.535328" lon="-0.379037">
        <ele>885.0</ele>
        <time>2019-03-26T12:00:08.000Z</time>
      </trkpt>
      <trkpt lat="42.535263" lon="-0.379065">
        <ele>885.0</ele>
        <time>2019-03-26T12:00:09.000Z</time>
      </trkpt>
      <trkpt lat="42.535197" lon="-0.379092">
        <ele>885.0</ele>
        <time>2019-03-26T12:00:10.000Z</time>
      </trkpt>
      <trkpt lat="42.535132" lon="-0.379118">
        <ele>885.0</ele>
        <time>2019-03-26T12:00:11.000Z</time>
      </trkpt>
      <trkpt lat="42.535067" lon="-0.379142">
        <ele>885.0</ele>
        <time>2019-03-26T12:00:12.000Z</time>
      </trkpt>
      <trkpt lat="42.535002" lon="-0.379163">
        <ele>884.0</ele>
        <time>2019-03-26T12:00:13.000Z</time>
      </trkpt>
      <trkpt lat="42.534936" lon="-0.379181">
        <ele>884.0</ele>
        <time>2019-03-26T12:00:14.000Z</time>
      </trkpt>
      <trkpt lat="42.53487" lon="-0.379196">
        <ele>884.0</ele>
        <time>2019-03-26T12:00:15.000Z</time>
      </trkpt>
      <trkpt lat="42.534805" lon="-0.37921">
        <ele>884.0</ele>
        <time>2019-03-26T12:00:16.000Z</time>
      </trkpt>
      <trkpt lat="42.534741" lon="-0.379223">
        <ele>884.0</ele>
        <time>2019-03-26T12:00:17.000Z</time>
      </trkpt>
      <trkpt lat="42.534679" lon="-0.379238">
        <ele>884.0</ele>
        <time>2019-03-26T12:00:18.000Z</time>
      </trkpt>
      <trkpt lat="42.534618" lon="-0.379253">
        <ele>884.0</ele>
        <time>2019-03-26T12:00:19.000Z</time>
      </trkpt>
      <trkpt lat="42.534558" lon="-0.379269">
        <ele>884.0</ele>
        <time>2019-03-26T12:00:20.000Z</time>
      </trkpt>
      <trkpt lat="42.534499" lon="-0.379286">
        <ele>884.0</ele>
        <time>2019-03-26T12:00:21.000Z</time>
      </trkpt>
      <trkpt lat="42.534441" lon="-0.379303">
        <ele>884.0</ele>
        <time>2019-03-26T12:00:22.000Z</time>
      </trkpt>
      <trkpt lat="42.534382" lon="-0.379322">
        <ele>884.0</ele>
        <time>2019-03-26T12:00:23.000Z</time>
      </trkpt>
      <trkpt lat="42.534324" lon="-0.379342">
        <ele>884.0</ele>
        <time>2019-03-26T12:00:24.000Z</time>
      </trkpt>
      <trkpt lat="42.534265" lon="-0.379362">
        <ele>884.0</ele>
        <time>2019-03-26T12:00:25.000Z</time>
      </trkpt>
      <trkpt lat="42.534206" lon="-0.379384">
        <ele>884.0</ele>
        <time>2019-03-26T12:00:26.000Z</time>
      </trkpt>
      <trkpt lat="42.534146" lon="-0.379408">
        <ele>884.0</ele>
        <time>2019-03-26T12:00:27.000Z</time>
      </trkpt>
      <trkpt lat="42.534086" lon="-0.379435">
        <ele>884.0</ele>
        <time>2019-03-26T12:00:28.000Z</time>
      </trkpt>
      <trkpt lat="42.534025" lon="-0.379466">
        <ele>884.0</ele>
        <time>2019-03-26T12:00:29.000Z</time>
      </trkpt>
      <trkpt lat="42.533965" lon="-0.379502">
        <ele>884.0</ele>
        <time>2019-03-26T12:00:30.000Z</time>
      </trkpt>
      <trkpt lat="42.533907" lon="-0.379543">
        <ele>884.0</ele>
        <time>2019-03-26T12:00:31.000Z</time>
      </trkpt>
      <trkpt lat="42.53385" lon="-0.379592">
        <ele>884.0</ele>
        <time>2019-03-26T12:00:32.000Z</time>
      </trkpt>
      <trkpt lat="42.533796" lon="-0.379648">
        <ele>883.0</ele>
        <time>2019-03-26T12:00:33.000Z</time>
      </trkpt>
      <trkpt lat="42.533745" lon="-0.37971">
        <ele>883.0</ele>
        <time>2019-03-26T12:00:34.000Z</time>
      </trkpt>
      <trkpt lat="42.533695" lon="-0.379776">
        <ele>883.0</ele>
        <time>2019-03-26T12:00:35.000Z</time>
      </trkpt>
      <trkpt lat="42.533647" lon="-0.379842">
        <ele>882.0</ele>
        <time>2019-03-26T12:00:36.000Z</time>
      </trkpt>
      <trkpt lat="42.533599" lon="-0.379906">
        <ele>882.0</ele>
        <time>2019-03-26T12:00:37.000Z</time>
      </trkpt>
      <trkpt lat="42.533552" lon="-0.379969">
        <ele>882.0</ele>
        <time>2019-03-26T12:00:38.000Z</time>
      </trkpt>
      <trkpt lat="42.533505" lon="-0.380031">
        <ele>882.0</ele>
        <time>2019-03-26T12:00:39.000Z</time>
      </trkpt>
      <trkpt lat="42.533459" lon="-0.380091">
        <ele>882.0</ele>
        <time>2019-03-26T12:00:40.000Z</time>
      </trkpt>
      <trkpt lat="42.533413" lon="-0.380151">
        <ele>882.0</ele>
        <time>2019-03-26T12:00:41.000Z</time>
      </trkpt>
      <trkpt lat="42.533367" lon="-0.38021">
        <ele>881.0</ele>
        <time>2019-03-26T12:00:42.000Z</time>
      </trkpt>
      <trkpt lat="42.533321" lon="-0.38027">
        <ele>881.0</ele>
        <time>2019-03-26T12:00:43.000Z</time>
      </trkpt>
      <trkpt lat="42.533274" lon="-0.380329">
        <ele>881.0</ele>
        <time>2019-03-26T12:00:44.000Z</time>
      </trkpt>
      <trkpt lat="42.533227" lon="-0.380389">
        <ele>881.0</ele>
        <time>2019-03-26T12:00:45.000Z</time>
      </trkpt>
      <trkpt lat="42.533178" lon="-0.380449">
        <ele>881.0</ele>
        <time>2019-03-26T12:00:46.000Z</time>
      </trkpt>
      <trkpt lat="42.533129" lon="-0.38051">
        <ele>881.0</ele>
        <time>2019-03-26T12:00:47.000Z</time>
      </trkpt>
      <trkpt lat="42.533079" lon="-0.380571">
        <ele>880.0</ele>
        <time>2019-03-26T12:00:48.000Z</time>
      </trkpt>
      <trkpt lat="42.533028" lon="-0.380632">
        <ele>880.0</ele>
        <time>2019-03-26T12:00:49.000Z</time>
      </trkpt>
      <trkpt lat="42.532976" lon="-0.380692">
        <ele>880.0</ele>
        <time>2019-03-26T12:00:50.000Z</time>
      </trkpt>
      <trkpt lat="42.532925" lon="-0.38075">
        <ele>880.0</ele>
        <time>2019-03-26T12:00:51.000Z</time>
      </trkpt>
      <trkpt lat="42.532875" lon="-0.380805">
        <ele>879.0</ele>
        <time>2019-03-26T12:00:52.000Z</time>
      </trkpt>
      <trkpt lat="42.532825" lon="-0.380857">
        <ele>879.0</ele>
        <time>2019-03-26T12:00:53.000Z</time>
      </trkpt>
      <trkpt lat="42.532777" lon="-0.380906">
        <ele>879.0</ele>
        <time>2019-03-26T12:00:54.000Z</time>
      </trkpt>
      <trkpt lat="42.53273" lon="-0.380953">
        <ele>879.0</ele>
        <time>2019-03-26T12:00:55.000Z</time>
      </trkpt>
      <trkpt lat="42.532684" lon="-0.381">
        <ele>878.0</ele>
        <time>2019-03-26T12:00:56.000Z</time>
      </trkpt>
      <trkpt lat="42.53264" lon="-0.38105">
        <ele>878.0</ele>
        <time>2019-03-26T12:00:57.000Z</time>
      </trkpt>
      <trkpt lat="42.532597" lon="-0.381104">
        <ele>878.0</ele>
        <time>2019-03-26T12:00:58.000Z</time>
      </trkpt>
      <trkpt lat="42.532554" lon="-0.38116">
        <ele>877.0</ele>
        <time>2019-03-26T12:00:59.000Z</time>
      </trkpt>
      <trkpt lat="42.53251" lon="-0.381213">
        <ele>877.0</ele>
        <time>2019-03-26T12:01:00.000Z</time>
      </trkpt>
      <trkpt lat="42.532463" lon="-0.381263">
        <ele>877.0</ele>
        <time>2019-03-26T12:01:01.000Z</time>
      </trkpt>
      <trkpt lat="42.532412" lon="-0.381304">
        <ele>877.0</ele>
        <time>2019-03-26T12:01:02.000Z</time>
      </trkpt>
      <trkpt lat="42.532358" lon="-0.38134">
        <ele>877.0</ele>
        <time>2019-03-26T12:01:03.000Z</time>
      </trkpt>
      <trkpt lat="42.532301" lon="-0.38137">
        <ele>876.0</ele>
        <time>2019-03-26T12:01:04.000Z</time>
      </trkpt>
      <trkpt lat="42.532243" lon="-0.381396">
        <ele>876.0</ele>
        <time>2019-03-26T12:01:05.000Z</time>
      </trkpt>
      <trkpt lat="42.532184" lon="-0.38142">
        <ele>876.0</ele>
        <time>2019-03-26T12:01:06.000Z</time>
      </trkpt>
      <trkpt lat="42.532126" lon="-0.381444">
        <ele>876.0</ele>
        <time>2019-03-26T12:01:07.000Z</time>
      </trkpt>
      <trkpt lat="42.532069" lon="-0.381469">
        <ele>876.0</ele>
        <time>2019-03-26T12:01:08.000Z</time>
      </trkpt>
      <trkpt lat="42.532013" lon="-0.381496">
        <ele>876.0</ele>
        <time>2019-03-26T12:01:09.000Z</time>
      </trkpt>
      <trkpt lat="42.53196" lon="-0.381521">
        <ele>876.0</ele>
        <time>2019-03-26T12:01:10.000Z</time>
      </trkpt>
      <trkpt lat="42.531907" lon="-0.381541">
        <ele>876.0</ele>
        <time>2019-03-26T12:01:11.000Z</time>
      </trkpt>
      <trkpt lat="42.531856" lon="-0.381549">
        <ele>875.0</ele>
        <time>2019-03-26T12:01:12.000Z</time>
      </trkpt>
      <trkpt lat="42.531806" lon="-0.381544">
        <ele>875.0</ele>
        <time>2019-03-26T12:01:13.000Z</time>
      </trkpt>
      <trkpt lat="42.531756" lon="-0.381528">
        <ele>875.0</ele>
        <time>2019-03-26T12:01:14.000Z</time>
      </trkpt>
      <trkpt lat="42.531706" lon="-0.381505">
        <ele>875.0</ele>
        <time>2019-03-26T12:01:15.000Z</time>
      </trkpt>
      <trkpt lat="42.531656" lon="-0.381479">
        <ele>875.0</ele>
        <time>2019-03-26T12:01:16.000Z</time>
      </trkpt>
      <trkpt lat="42.531605" lon="-0.381453">
        <ele>875.0</ele>
        <time>2019-03-26T12:01:17.000Z</time>
      </trkpt>
      <trkpt lat="42.531553" lon="-0.38143">
        <ele>875.0</ele>
        <time>2019-03-26T12:01:18.000Z</time>
      </trkpt>
      <trkpt lat="42.531501" lon="-0.38141">
        <ele>875.0</ele>
        <time>2019-03-26T12:01:19.000Z</time>
      </trkpt>
      <trkpt lat="42.531447" lon="-0.381393">
        <ele>875.0</ele>
        <time>2019-03-26T12:01:20.000Z</time>
      </trkpt>
      <trkpt lat="42.531392" lon="-0.381382">
        <ele>875.0</ele>
        <time>2019-03-26T12:01:21.000Z</time>
      </trkpt>
      <trkpt lat="42.531335" lon="-0.381376">
        <ele>875.0</ele>
        <time>2019-03-26T12:01:22.000Z</time>
      </trkpt>
      <trkpt lat="42.531277" lon="-0.381376">
        <ele>875.0</ele>
        <time>2019-03-26T12:01:23.000Z</time>
      </trkpt>
      <trkpt lat="42.531218" lon="-0.381384">
        <ele>875.0</ele>
        <time>2019-03-26T12:01:24.000Z</time>
      </trkpt>
      <trkpt lat="42.531157" lon="-0.381398">
        <ele>875.0</ele>
        <time>2019-03-26T12:01:25.000Z</time>
      </trkpt>
      <trkpt lat="42.531095" lon="-0.381417">
        <ele>875.0</ele>
        <time>2019-03-26T12:01:26.000Z</time>
      </trkpt>
      <trkpt lat="42.531032" lon="-0.38144">
        <ele>875.0</ele>
        <time>2019-03-26T12:01:27.000Z</time>
      </trkpt>
      <trkpt lat="42.530968" lon="-0.381465">
        <ele>874.0</ele>
        <time>2019-03-26T12:01:28.000Z</time>
      </trkpt>
      <trkpt lat="42.530904" lon="-0.381492">
        <ele>874.0</ele>
        <time>2019-03-26T12:01:29.000Z</time>
      </trkpt>
      <trkpt lat="42.53084" lon="-0.381519">
        <ele>873.0</ele>
        <time>2019-03-26T12:01:30.000Z</time>
      </trkpt>
      <trkpt lat="42.530776" lon="-0.381545">
        <ele>873.0</ele>
        <time>2019-03-26T12:01:31.000Z</time>
      </trkpt>
      <trkpt lat="42.530712" lon="-0.38157">
        <ele>873.0</ele>
        <time>2019-03-26T12:01:32.000Z</time>
      </trkpt>
      <trkpt lat="42.530648" lon="-0.381591">
        <ele>873.0</ele>
        <time>2019-03-26T12:01:33.000Z</time>
      </trkpt>
      <trkpt lat="42.530584" lon="-0.381608">
        <ele>873.0</ele>
        <time>2019-03-26T12:01:34.000Z</time>
      </trkpt>
      <trkpt lat="42.53052" lon="-0.381622">
        <ele>872.0</ele>
        <time>2019-03-26T12:01:35.000Z</time>
      </trkpt>
      <trkpt lat="42.530456" lon="-0.381629">
        <ele>872.0</ele>
        <time>2019-03-26T12:01:36.000Z</time>
      </trkpt>
      <trkpt lat="42.530391" lon="-0.381631">
        <ele>872.0</ele>
        <time>2019-03-26T12:01:37.000Z</time>
      </trkpt>
      <trkpt lat="42.530327" lon="-0.381623">
        <ele>872.0</ele>
        <time>2019-03-26T12:01:38.000Z</time>
      </trkpt>
      <trkpt lat="42.530263" lon="-0.381607">
        <ele>872.0</ele>
        <time>2019-03-26T12:01:39.000Z</time>
      </trkpt>
      <trkpt lat="42.5302" lon="-0.381583">
        <ele>872.0</ele>
        <time>2019-03-26T12:01:40.000Z</time>
      </trkpt>
      <trkpt lat="42.530136" lon="-0.381554">
        <ele>872.0</ele>
        <time>2019-03-26T12:01:41.000Z</time>
      </trkpt>
      <trkpt lat="42.530072" lon="-0.381523">
        <ele>872.0</ele>
        <time>2019-03-26T12:01:42.000Z</time>
      </trkpt>
      <trkpt lat="42.530008" lon="-0.381491">
        <ele>872.0</ele>
        <time>2019-03-26T12:01:43.000Z</time>
      </trkpt>
      <trkpt lat="42.529943" lon="-0.381459">
        <ele>871.0</ele>
        <time>2019-03-26T12:01:44.000Z</time>
      </trkpt>
      <trkpt lat="42.529878" lon="-0.381427">
        <ele>871.0</ele>
        <time>2019-03-26T12:01:45.000Z</time>
      </trkpt>
      <trkpt lat="42.529814" lon="-0.381394">
        <ele>871.0</ele>
        <time>2019-03-26T12:01:46.000Z</time>
      </trkpt>
      <trkpt lat="42.529751" lon="-0.381361">
        <ele>871.0</ele>
        <time>2019-03-26T12:01:47.000Z</time>
      </trkpt>
      <trkpt lat="42.529688" lon="-0.381327">
        <ele>871.0</ele>
        <time>2019-03-26T12:01:48.000Z</time>
      </trkpt>
      <trkpt lat="42.529626" lon="-0.381292">
        <ele>871.0</ele>
        <time>2019-03-26T12:01:49.000Z</time>
      </trkpt>
      <trkpt lat="42.529564" lon="-0.381258">
        <ele>871.0</ele>
        <time>2019-03-26T12:01:50.000Z</time>
      </trkpt>
      <trkpt lat="42.529502" lon="-0.381225">
        <ele>870.0</ele>
        <time>2019-03-26T12:01:51.000Z</time>
      </trkpt>
      <trkpt lat="42.529439" lon="-0.381193">
        <ele>870.0</ele>
        <time>2019-03-26T12:01:52.000Z</time>
      </trkpt>
      <trkpt lat="42.529376" lon="-0.381162">
        <ele>870.0</ele>
        <time>2019-03-26T12:01:53.000Z</time>
      </trkpt>
      <trkpt lat="42.529312" lon="-0.381133">
        <ele>870.0</ele>
        <time>2019-03-26T12:01:54.000Z</time>
      </trkpt>
      <trkpt lat="42.529247" lon="-0.381106">
        <ele>870.0</ele>
        <time>2019-03-26T12:01:55.000Z</time>
      </trkpt>
      <trkpt lat="42.529182" lon="-0.381083">
        <ele>870.0</ele>
        <time>2019-03-26T12:01:56.000Z</time>
      </trkpt>
      <trkpt lat="42.529115" lon="-0.381063">
        <ele>870.0</ele>
        <time>2019-03-26T12:01:57.000Z</time>
      </trkpt>
      <trkpt lat="42.529048" lon="-0.381047">
        <ele>870.0</ele>
        <time>2019-03-26T12:01:58.000Z</time>
      </trkpt>
      <trkpt lat="42.528981" lon="-0.381034">
        <ele>870.0</ele>
        <time>2019-03-26T12:01:59.000Z</time>
      </trkpt>
      <trkpt lat="42.528913" lon="-0.381022">
        <ele>870.0</ele>
        <time>2019-03-26T12:02:00.000Z</time>
      </trkpt>
      <trkpt lat="42.528846" lon="-0.381012">
        <ele>869.0</ele>
        <time>2019-03-26T12:02:01.000Z</time>
      </trkpt>
      <trkpt lat="42.528779" lon="-0.381001">
        <ele>869.0</ele>
        <time>2019-03-26T12:02:02.000Z</time>
      </trkpt>
      <trkpt lat="42.528712" lon="-0.380991">
        <ele>869.0</ele>
        <time>2019-03-26T12:02:03.000Z</time>
      </trkpt>
      <trkpt lat="42.528645" lon="-0.380982">
        <ele>869.0</ele>
        <time>2019-03-26T12:02:04.000Z</time>
      </trkpt>
      <trkpt lat="42.528578" lon="-0.380974">
        <ele>868.0</ele>
        <time>2019-03-26T12:02:05.000Z</time>
      </trkpt>
      <trkpt lat="42.52851" lon="-0.380968">
        <ele>868.0</ele>
        <time>2019-03-26T12:02:06.000Z</time>
      </trkpt>
      <trkpt lat="42.528442" lon="-0.38096">
        <ele>868.0</ele>
        <time>2019-03-26T12:02:07.000Z</time>
      </trkpt>
      <trkpt lat="42.528375" lon="-0.380948">
        <ele>868.0</ele>
        <time>2019-03-26T12:02:08.000Z</time>
      </trkpt>
      <trkpt lat="42.528309" lon="-0.380929">
        <ele>868.0</ele>
        <time>2019-03-26T12:02:09.000Z</time>
      </trkpt>
      <trkpt lat="42.528244" lon="-0.380902">
        <ele>868.0</ele>
        <time>2019-03-26T12:02:10.000Z</time>
      </trkpt>
      <trkpt lat="42.52818" lon="-0.380868">
        <ele>868.0</ele>
        <time>2019-03-26T12:02:11.000Z</time>
      </trkpt>
      <trkpt lat="42.528117" lon="-0.380829">
        <ele>868.0</ele>
        <time>2019-03-26T12:02:12.000Z</time>
      </trkpt>
      <trkpt lat="42.528056" lon="-0.380784">
        <ele>868.0</ele>
        <time>2019-03-26T12:02:13.000Z</time>
      </trkpt>
      <trkpt lat="42.527995" lon="-0.380736">
        <ele>867.0</ele>
        <time>2019-03-26T12:02:14.000Z</time>
      </trkpt>
      <trkpt lat="42.527934" lon="-0.380686">
        <ele>867.0</ele>
        <time>2019-03-26T12:02:15.000Z</time>
      </trkpt>
      <trkpt lat="42.527873" lon="-0.380634">
        <ele>867.0</ele>
        <time>2019-03-26T12:02:16.000Z</time>
      </trkpt>
      <trkpt lat="42.527812" lon="-0.380583">
        <ele>867.0</ele>
        <time>2019-03-26T12:02:17.000Z</time>
      </trkpt>
      <trkpt lat="42.527749" lon="-0.380531">
        <ele>867.0</ele>
        <time>2019-03-26T12:02:18.000Z</time>
      </trkpt>
      <trkpt lat="42.527686" lon="-0.380479">
        <ele>867.0</ele>
        <time>2019-03-26T12:02:19.000Z</time>
      </trkpt>
      <trkpt lat="42.527622" lon="-0.380427">
        <ele>866.0</ele>
        <time>2019-03-26T12:02:20.000Z</time>
      </trkpt>
      <trkpt lat="42.527558" lon="-0.380375">
        <ele>866.0</ele>
        <time>2019-03-26T12:02:21.000Z</time>
      </trkpt>
      <trkpt lat="42.527493" lon="-0.380322">
        <ele>866.0</ele>
        <time>2019-03-26T12:02:22.000Z</time>
      </trkpt>
      <trkpt lat="42.527427" lon="-0.380269">
        <ele>865.0</ele>
        <time>2019-03-26T12:02:23.000Z</time>
      </trkpt>
      <trkpt lat="42.527361" lon="-0.380216">
        <ele>865.0</ele>
        <time>2019-03-26T12:02:24.000Z</time>
      </trkpt>
      <trkpt lat="42.527296" lon="-0.380161">
        <ele>865.0</ele>
        <time>2019-03-26T12:02:25.000Z</time>
      </trkpt>
      <trkpt lat="42.527231" lon="-0.380105">
        <ele>865.0</ele>
        <time>2019-03-26T12:02:26.000Z</time>
      </trkpt>
      <trkpt lat="42.527167" lon="-0.380046">
        <ele>865.0</ele>
        <time>2019-03-26T12:02:27.000Z</time>
      </trkpt>
      <trkpt lat="42.527105" lon="-0.379984">
        <ele>864.0</ele>
        <time>2019-03-26T12:02:28.000Z</time>
      </trkpt>
      <trkpt lat="42.527045" lon="-0.379917">
        <ele>864.0</ele>
        <time>2019-03-26T12:02:29.000Z</time>
      </trkpt>
      <trkpt lat="42.526989" lon="-0.379846">
        <ele>864.0</ele>
        <time>2019-03-26T12:02:30.000Z</time>
      </trkpt>
      <trkpt lat="42.526936" lon="-0.37977">
        <ele>864.0</ele>
        <time>2019-03-26T12:02:31.000Z</time>
      </trkpt>
      <trkpt lat="42.526888" lon="-0.379687">
        <ele>863.0</ele>
        <time>2019-03-26T12:02:32.000Z</time>
      </trkpt>
      <trkpt lat="42.526842" lon="-0.3796">
        <ele>863.0</ele>
        <time>2019-03-26T12:02:33.000Z</time>
      </trkpt>
      <trkpt lat="42.5268" lon="-0.379509">
        <ele>863.0</ele>
        <time>2019-03-26T12:02:34.000Z</time>
      </trkpt>
      <trkpt lat="42.52676" lon="-0.379416">
        <ele>863.0</ele>
        <time>2019-03-26T12:02:35.000Z</time>
      </trkpt>
      <trkpt lat="42.526721" lon="-0.379322">
        <ele>863.0</ele>
        <time>2019-03-26T12:02:36.000Z</time>
      </trkpt>
      <trkpt lat="42.526682" lon="-0.379229">
        <ele>862.0</ele>
        <time>2019-03-26T12:02:37.000Z</time>
      </trkpt>
      <trkpt lat="42.526644" lon="-0.379138">
        <ele>862.0</ele>
        <time>2019-03-26T12:02:38.000Z</time>
      </trkpt>
      <trkpt lat="42.526604" lon="-0.379049">
        <ele>862.0</ele>
        <time>2019-03-26T12:02:39.000Z</time>
      </trkpt>
      <trkpt lat="42.526565" lon="-0.378963">
        <ele>862.0</ele>
        <time>2019-03-26T12:02:40.000Z</time>
      </trkpt>
      <trkpt lat="42.526525" lon="-0.37888">
        <ele>862.0</ele>
        <time>2019-03-26T12:02:41.000Z</time>
      </trkpt>
      <trkpt lat="42.526486" lon="-0.378798">
        <ele>862.0</ele>
        <time>2019-03-26T12:02:42.000Z</time>
      </trkpt>
      <trkpt lat="42.526448" lon="-0.378717">
        <ele>862.0</ele>
        <time>2019-03-26T12:02:43.000Z</time>
      </trkpt>
      <trkpt lat="42.526411" lon="-0.378637">
        <ele>862.0</ele>
        <time>2019-03-26T12:02:44.000Z</time>
      </trkpt>
      <trkpt lat="42.526376" lon="-0.378559">
        <ele>862.0</ele>
        <time>2019-03-26T12:02:45.000Z</time>
      </trkpt>
      <trkpt lat="42.526341" lon="-0.378484">
        <ele>862.0</ele>
        <time>2019-03-26T12:02:46.000Z</time>
      </trkpt>
      <trkpt lat="42.526301" lon="-0.378417">
        <ele>862.0</ele>
        <time>2019-03-26T12:02:47.000Z</time>
      </trkpt>
      <trkpt lat="42.526251" lon="-0.378364">
        <ele>862.0</ele>
        <time>2019-03-26T12:02:48.000Z</time>
      </trkpt>
      <trkpt lat="42.526194" lon="-0.378325">
        <ele>861.0</ele>
        <time>2019-03-26T12:02:49.000Z</time>
      </trkpt>
      <trkpt lat="42.526134" lon="-0.378302">
        <ele>861.0</ele>
        <time>2019-03-26T12:02:50.000Z</time>
      </trkpt>
      <trkpt lat="42.526073" lon="-0.378283">
        <ele>861.0</ele>
        <time>2019-03-26T12:02:51.000Z</time>
      </trkpt>
      <trkpt lat="42.526012" lon="-0.378259">
        <ele>860.0</ele>
        <time>2019-03-26T12:02:52.000Z</time>
      </trkpt>
      <trkpt lat="42.52595" lon="-0.378233">
        <ele>860.0</ele>
        <time>2019-03-26T12:02:53.000Z</time>
      </trkpt>
      <trkpt lat="42.525887" lon="-0.378206">
        <ele>860.0</ele>
        <time>2019-03-26T12:02:54.000Z</time>
      </trkpt>
      <trkpt lat="42.525822" lon="-0.378175">
        <ele>859.0</ele>
        <time>2019-03-26T12:02:55.000Z</time>
      </trkpt>
      <trkpt lat="42.525756" lon="-0.378139">
        <ele>859.0</ele>
        <time>2019-03-26T12:02:56.000Z</time>
      </trkpt>
      <trkpt lat="42.525689" lon="-0.378098">
        <ele>859.0</ele>
        <time>2019-03-26T12:02:57.000Z</time>
      </trkpt>
      <trkpt lat="42.525622" lon="-0.378051">
        <ele>858.0</ele>
        <time>2019-03-26T12:02:58.000Z</time>
      </trkpt>
      <trkpt lat="42.525555" lon="-0.377997">
        <ele>857.0</ele>
        <time>2019-03-26T12:02:59.000Z</time>
      </trkpt>
      <trkpt lat="42.525491" lon="-0.377938">
        <ele>857.0</ele>
        <time>2019-03-26T12:03:00.000Z</time>
      </trkpt>
      <trkpt lat="42.52543" lon="-0.377872">
        <ele>856.0</ele>
        <time>2019-03-26T12:03:01.000Z</time>
      </trkpt>
      <trkpt lat="42.525371" lon="-0.377803">
        <ele>855.0</ele>
        <time>2019-03-26T12:03:02.000Z</time>
      </trkpt>
      <trkpt lat="42.52531" lon="-0.377732">
        <ele>855.0</ele>
        <time>2019-03-26T12:03:03.000Z</time>
      </trkpt>
      <trkpt lat="42.525248" lon="-0.377663">
        <ele>854.0</ele>
        <time>2019-03-26T12:03:04.000Z</time>
      </trkpt>
      <trkpt lat="42.525181" lon="-0.377596">
        <ele>853.0</ele>
        <time>2019-03-26T12:03:05.000Z</time>
      </trkpt>
      <trkpt lat="42.525111" lon="-0.377532">
        <ele>852.0</ele>
        <time>2019-03-26T12:03:06.000Z</time>
      </trkpt>
      <trkpt lat="42.525037" lon="-0.377473">
        <ele>851.0</ele>
        <time>2019-03-26T12:03:07.000Z</time>
      </trkpt>
      <trkpt lat="42.524961" lon="-0.377417">
        <ele>850.0</ele>
        <time>2019-03-26T12:03:08.000Z</time>
      </trkpt>
      <trkpt lat="42.524882" lon="-0.377364">
        <ele>849.0</ele>
        <time>2019-03-26T12:03:09.000Z</time>
      </trkpt>
      <trkpt lat="42.524802" lon="-0.377312">
        <ele>848.0</ele>
        <time>2019-03-26T12:03:10.000Z</time>
      </trkpt>
      <trkpt lat="42.524721" lon="-0.377259">
        <ele>846.0</ele>
        <time>2019-03-26T12:03:11.000Z</time>
      </trkpt>
      <trkpt lat="42.524638" lon="-0.377204">
        <ele>845.0</ele>
        <time>2019-03-26T12:03:12.000Z</time>
      </trkpt>
      <trkpt lat="42.524555" lon="-0.377148">
        <ele>844.0</ele>
        <time>2019-03-26T12:03:13.000Z</time>
      </trkpt>
      <trkpt lat="42.524472" lon="-0.377092">
        <ele>843.0</ele>
        <time>2019-03-26T12:03:14.000Z</time>
      </trkpt>
      <trkpt lat="42.524388" lon="-0.377038">
        <ele>842.0</ele>
        <time>2019-03-26T12:03:15.000Z</time>
      </trkpt>
      <trkpt lat="42.524303" lon="-0.376985">
        <ele>841.0</ele>
        <time>2019-03-26T12:03:16.000Z</time>
      </trkpt>
      <trkpt lat="42.524219" lon="-0.376936">
        <ele>840.0</ele>
        <time>2019-03-26T12:03:17.000Z</time>
      </trkpt>
      <trkpt lat="42.524134" lon="-0.376891">
        <ele>839.0</ele>
        <time>2019-03-26T12:03:18.000Z</time>
      </trkpt>
      <trkpt lat="42.52405" lon="-0.376852">
        <ele>838.0</ele>
        <time>2019-03-26T12:03:19.000Z</time>
      </trkpt>
      <trkpt lat="42.523968" lon="-0.376819">
        <ele>837.0</ele>
        <time>2019-03-26T12:03:20.000Z</time>
      </trkpt>
      <trkpt lat="42.523885" lon="-0.376792">
        <ele>836.0</ele>
        <time>2019-03-26T12:03:21.000Z</time>
      </trkpt>
      <trkpt lat="42.523803" lon="-0.376769">
        <ele>835.0</ele>
        <time>2019-03-26T12:03:22.000Z</time>
      </trkpt>
      <trkpt lat="42.52372" lon="-0.376749">
        <ele>834.0</ele>
        <time>2019-03-26T12:03:23.000Z</time>
      </trkpt>
      <trkpt lat="42.523638" lon="-0.376729">
        <ele>833.0</ele>
        <time>2019-03-26T12:03:24.000Z</time>
      </trkpt>
      <trkpt lat="42.523557" lon="-0.376706">
        <ele>832.0</ele>
        <time>2019-03-26T12:03:25.000Z</time>
      </trkpt>
      <trkpt lat="42.523477" lon="-0.376676">
        <ele>831.0</ele>
        <time>2019-03-26T12:03:26.000Z</time>
      </trkpt>
      <trkpt lat="42.5234" lon="-0.376636">
        <ele>830.0</ele>
        <time>2019-03-26T12:03:27.000Z</time>
      </trkpt>
      <trkpt lat="42.523325" lon="-0.376584">
        <ele>830.0</ele>
        <time>2019-03-26T12:03:28.000Z</time>
      </trkpt>
      <trkpt lat="42.523255" lon="-0.376521">
        <ele>829.0</ele>
        <time>2019-03-26T12:03:29.000Z</time>
      </trkpt>
      <trkpt lat="42.523191" lon="-0.376445">
        <ele>828.0</ele>
        <time>2019-03-26T12:03:30.000Z</time>
      </trkpt>
      <trkpt lat="42.523132" lon="-0.376356">
        <ele>828.0</ele>
        <time>2019-03-26T12:03:31.000Z</time>
      </trkpt>
      <trkpt lat="42.523078" lon="-0.376258">
        <ele>827.0</ele>
        <time>2019-03-26T12:03:32.000Z</time>
      </trkpt>
      <trkpt lat="42.523025" lon="-0.376158">
        <ele>827.0</ele>
        <time>2019-03-26T12:03:33.000Z</time>
      </trkpt>
      <trkpt lat="42.522971" lon="-0.376059">
        <ele>826.0</ele>
        <time>2019-03-26T12:03:34.000Z</time>
      </trkpt>
      <trkpt lat="42.522915" lon="-0.375966">
        <ele>826.0</ele>
        <time>2019-03-26T12:03:35.000Z</time>
      </trkpt>
      <trkpt lat="42.522857" lon="-0.375878">
        <ele>825.0</ele>
        <time>2019-03-26T12:03:36.000Z</time>
      </trkpt>
      <trkpt lat="42.522798" lon="-0.375792">
        <ele>825.0</ele>
        <time>2019-03-26T12:03:37.000Z</time>
      </trkpt>
      <trkpt lat="42.52274" lon="-0.375705">
        <ele>824.0</ele>
        <time>2019-03-26T12:03:38.000Z</time>
      </trkpt>
      <trkpt lat="42.522684" lon="-0.375619">
        <ele>823.0</ele>
        <time>2019-03-26T12:03:39.000Z</time>
      </trkpt>
      <trkpt lat="42.522627" lon="-0.375537">
        <ele>822.0</ele>
        <time>2019-03-26T12:03:40.000Z</time>
      </trkpt>
      <trkpt lat="42.522567" lon="-0.375468">
        <ele>822.0</ele>
        <time>2019-03-26T12:03:41.000Z</time>
      </trkpt>
      <trkpt lat="42.522499" lon="-0.375416">
        <ele>821.0</ele>
        <time>2019-03-26T12:03:42.000Z</time>
      </trkpt>
      <trkpt lat="42.522425" lon="-0.375379">
        <ele>820.0</ele>
        <time>2019-03-26T12:03:43.000Z</time>
      </trkpt>
      <trkpt lat="42.522347" lon="-0.375354">
        <ele>819.0</ele>
        <time>2019-03-26T12:03:44.000Z</time>
      </trkpt>
      <trkpt lat="42.522268" lon="-0.375335">
        <ele>819.0</ele>
        <time>2019-03-26T12:03:45.000Z</time>
      </trkpt>
      <trkpt lat="42.52219" lon="-0.37532">
        <ele>818.0</ele>
        <time>2019-03-26T12:03:46.000Z</time>
      </trkpt>
      <trkpt lat="42.522114" lon="-0.375307">
        <ele>817.0</ele>
        <time>2019-03-26T12:03:47.000Z</time>
      </trkpt>
      <trkpt lat="42.522039" lon="-0.375297">
        <ele>817.0</ele>
        <time>2019-03-26T12:03:48.000Z</time>
      </trkpt>
      <trkpt lat="42.521966" lon="-0.37529">
        <ele>817.0</ele>
        <time>2019-03-26T12:03:49.000Z</time>
      </trkpt>
      <trkpt lat="42.521895" lon="-0.375287">
        <ele>816.0</ele>
        <time>2019-03-26T12:03:50.000Z</time>
      </trkpt>
      <trkpt lat="42.521827" lon="-0.37528">
        <ele>816.0</ele>
        <time>2019-03-26T12:03:51.000Z</time>
      </trkpt>
      <trkpt lat="42.521763" lon="-0.375264">
        <ele>816.0</ele>
        <time>2019-03-26T12:03:52.000Z</time>
      </trkpt>
      <trkpt lat="42.521705" lon="-0.375232">
        <ele>816.0</ele>
        <time>2019-03-26T12:03:53.000Z</time>
      </trkpt>
      <trkpt lat="42.521654" lon="-0.375186">
        <ele>816.0</ele>
        <time>2019-03-26T12:03:54.000Z</time>
      </trkpt>
      <trkpt lat="42.521612" lon="-0.375127">
        <ele>815.0</ele>
        <time>2019-03-26T12:03:55.000Z</time>
      </trkpt>
      <trkpt lat="42.52158" lon="-0.375057">
        <ele>815.0</ele>
        <time>2019-03-26T12:03:56.000Z</time>
      </trkpt>
      <trkpt lat="42.521558" lon="-0.374978">
        <ele>815.0</ele>
        <time>2019-03-26T12:03:57.000Z</time>
      </trkpt>
      <trkpt lat="42.521545" lon="-0.374892">
        <ele>815.0</ele>
        <time>2019-03-26T12:03:58.000Z</time>
      </trkpt>
      <trkpt lat="42.521534" lon="-0.3748">
        <ele>814.0</ele>
        <time>2019-03-26T12:03:59.000Z</time>
      </trkpt>
      <trkpt lat="42.521522" lon="-0.374704">
        <ele>814.0</ele>
        <time>2019-03-26T12:04:00.000Z</time>
      </trkpt>
      <trkpt lat="42.521507" lon="-0.374604">
        <ele>814.0</ele>
        <time>2019-03-26T12:04:01.000Z</time>
      </trkpt>
      <trkpt lat="42.521489" lon="-0.374504">
        <ele>813.0</ele>
        <time>2019-03-26T12:04:02.000Z</time>
      </trkpt>
      <trkpt lat="42.521472" lon="-0.374402">
        <ele>812.0</ele>
        <time>2019-03-26T12:04:03.000Z</time>
      </trkpt>
      <trkpt lat="42.521459" lon="-0.374302">
        <ele>812.0</ele>
        <time>2019-03-26T12:04:04.000Z</time>
      </trkpt>
      <trkpt lat="42.521453" lon="-0.374203">
        <ele>811.0</ele>
        <time>2019-03-26T12:04:05.000Z</time>
      </trkpt>
      <trkpt lat="42.521449" lon="-0.374108">
        <ele>810.0</ele>
        <time>2019-03-26T12:04:06.000Z</time>
      </trkpt>
      <trkpt lat="42.521442" lon="-0.374019">
        <ele>810.0</ele>
        <time>2019-03-26T12:04:07.000Z</time>
      </trkpt>
      <trkpt lat="42.52143" lon="-0.373935">
        <ele>809.0</ele>
        <time>2019-03-26T12:04:08.000Z</time>
      </trkpt>
      <trkpt lat="42.521414" lon="-0.37386">
        <ele>809.0</ele>
        <time>2019-03-26T12:04:09.000Z</time>
      </trkpt>
      <trkpt lat="42.5214" lon="-0.373793">
        <ele>808.0</ele>
        <time>2019-03-26T12:04:10.000Z</time>
      </trkpt>
      <trkpt lat="42.521391" lon="-0.373737">
        <ele>808.0</ele>
        <time>2019-03-26T12:04:11.000Z</time>
      </trkpt>
      <trkpt lat="42.52139" lon="-0.37369">
        <ele>808.0</ele>
        <time>2019-03-26T12:04:12.000Z</time>
      </trkpt>
      <trkpt lat="42.521397" lon="-0.373653">
        <ele>808.0</ele>
        <time>2019-03-26T12:04:13.000Z</time>
      </trkpt>
      <trkpt lat="42.52141" lon="-0.37362">
        <ele>807.0</ele>
        <time>2019-03-26T12:04:14.000Z</time>
      </trkpt>
      <trkpt lat="42.521425" lon="-0.373592">
        <ele>807.0</ele>
        <time>2019-03-26T12:04:15.000Z</time>
      </trkpt>
      <trkpt lat="42.521442" lon="-0.373564">
        <ele>807.0</ele>
        <time>2019-03-26T12:04:16.000Z</time>
      </trkpt>
      <trkpt lat="42.521462" lon="-0.373539">
        <ele>807.0</ele>
        <time>2019-03-26T12:04:17.000Z</time>
      </trkpt>
      <trkpt lat="42.521486" lon="-0.373517">
        <ele>807.0</ele>
        <time>2019-03-26T12:04:18.000Z</time>
      </trkpt>
      <trkpt lat="42.521517" lon="-0.373501">
        <ele>807.0</ele>
        <time>2019-03-26T12:04:19.000Z</time>
      </trkpt>
      <trkpt lat="42.521555" lon="-0.373489">
        <ele>807.0</ele>
        <time>2019-03-26T12:04:20.000Z</time>
      </trkpt>
      <trkpt lat="42.521594" lon="-0.373479">
        <ele>807.0</ele>
        <time>2019-03-26T12:04:21.000Z</time>
      </trkpt>
      <trkpt lat="42.521626" lon="-0.373464">
        <ele>807.0</ele>
        <time>2019-03-26T12:04:22.000Z</time>
      </trkpt>
      <trkpt lat="42.521647" lon="-0.37344">
        <ele>807.0</ele>
        <time>2019-03-26T12:04:23.000Z</time>
      </trkpt>
      <trkpt lat="42.521659" lon="-0.37341">
        <ele>807.0</ele>
        <time>2019-03-26T12:04:24.000Z</time>
      </trkpt>
      <trkpt lat="42.521665" lon="-0.373376">
        <ele>807.0</ele>
        <time>2019-03-26T12:04:25.000Z</time>
      </trkpt>
      <trkpt lat="42.52167" lon="-0.373344">
        <ele>807.0</ele>
        <time>2019-03-26T12:04:26.000Z</time>
      </trkpt>
      <trkpt lat="42.521678" lon="-0.373316">
        <ele>807.0</ele>
        <time>2019-03-26T12:04:27.000Z</time>
      </trkpt>
      <trkpt lat="42.521689" lon="-0.373292">
        <ele>807.0</ele>
        <time>2019-03-26T12:04:28.000Z</time>
      </trkpt>
      <trkpt lat="42.521705" lon="-0.373271">
        <ele>808.0</ele>
        <time>2019-03-26T12:04:29.000Z</time>
      </trkpt>
      <trkpt lat="42.521724" lon="-0.373251">
        <ele>808.0</ele>
        <time>2019-03-26T12:04:30.000Z</time>
      </trkpt>
      <trkpt lat="42.521748" lon="-0.373232">
        <ele>808.0</ele>
        <time>2019-03-26T12:04:31.000Z</time>
      </trkpt>
      <trkpt lat="42.521776" lon="-0.373215">
        <ele>808.0</ele>
        <time>2019-03-26T12:04:32.000Z</time>
      </trkpt>
      <trkpt lat="42.521806" lon="-0.373199">
        <ele>808.0</ele>
        <time>2019-03-26T12:04:33.000Z</time>
      </trkpt>
      <trkpt lat="42.521839" lon="-0.373186">
        <ele>808.0</ele>
        <time>2019-03-26T12:04:34.000Z</time>
      </trkpt>
      <trkpt lat="42.521872" lon="-0.373176">
        <ele>808.0</ele>
        <time>2019-03-26T12:04:35.000Z</time>
      </trkpt>
      <trkpt lat="42.521906" lon="-0.373167">
        <ele>808.0</ele>
        <time>2019-03-26T12:04:36.000Z</time>
      </trkpt>
      <trkpt lat="42.521941" lon="-0.373158">
        <ele>808.0</ele>
        <time>2019-03-26T12:04:37.000Z</time>
      </trkpt>
      <trkpt lat="42.521978" lon="-0.373148">
        <ele>808.0</ele>
        <time>2019-03-26T12:04:38.000Z</time>
      </trkpt>
      <trkpt lat="42.522027" lon="-0.373144">
        <ele>809.0</ele>
        <time>2019-03-26T12:04:39.000Z</time>
      </trkpt>
      <trkpt lat="42.522093" lon="-0.373151">
        <ele>809.0</ele>
        <time>2019-03-26T12:04:40.000Z</time>
      </trkpt>
      <trkpt lat="42.522158" lon="-0.373161">
        <ele>809.0</ele>
        <time>2019-03-26T12:04:41.000Z</time>
      </trkpt>
      <trkpt lat="42.522207" lon="-0.37316">
        <ele>809.0</ele>
        <time>2019-03-26T12:04:42.000Z</time>
      </trkpt>
      <trkpt lat="42.522241" lon="-0.373153">
        <ele>809.0</ele>
        <time>2019-03-26T12:04:43.000Z</time>
      </trkpt>
      <trkpt lat="42.52227" lon="-0.373142">
        <ele>809.0</ele>
        <time>2019-03-26T12:04:44.000Z</time>
      </trkpt>
      <trkpt lat="42.522301" lon="-0.373132">
        <ele>809.0</ele>
        <time>2019-03-26T12:04:45.000Z</time>
      </trkpt>
      <trkpt lat="42.522334" lon="-0.373122">
        <ele>809.0</ele>
        <time>2019-03-26T12:04:46.000Z</time>
      </trkpt>
      <trkpt lat="42.522367" lon="-0.373113">
        <ele>810.0</ele>
        <time>2019-03-26T12:04:47.000Z</time>
      </trkpt>
      <trkpt lat="42.5224" lon="-0.373102">
        <ele>810.0</ele>
        <time>2019-03-26T12:04:48.000Z</time>
      </trkpt>
      <trkpt lat="42.52243" lon="-0.37309">
        <ele>810.0</ele>
        <time>2019-03-26T12:04:49.000Z</time>
      </trkpt>
      <trkpt lat="42.522457" lon="-0.373074">
        <ele>810.0</ele>
        <time>2019-03-26T12:04:50.000Z</time>
      </trkpt>
      <trkpt lat="42.522478" lon="-0.373055">
        <ele>810.0</ele>
        <time>2019-03-26T12:04:51.000Z</time>
      </trkpt>
      <trkpt lat="42.522494" lon="-0.373032">
        <ele>810.0</ele>
        <time>2019-03-26T12:04:52.000Z</time>
      </trkpt>
      <trkpt lat="42.522505" lon="-0.373005">
        <ele>811.0</ele>
        <time>2019-03-26T12:04:53.000Z</time>
      </trkpt>
      <trkpt lat="42.522512" lon="-0.372974">
        <ele>810.0</ele>
        <time>2019-03-26T12:04:54.000Z</time>
      </trkpt>
      <trkpt lat="42.522515" lon="-0.372941">
        <ele>810.0</ele>
        <time>2019-03-26T12:04:55.000Z</time>
      </trkpt>
      <trkpt lat="42.522516" lon="-0.372906">
        <ele>810.0</ele>
        <time>2019-03-26T12:04:56.000Z</time>
      </trkpt>
      <trkpt lat="42.522516" lon="-0.372869">
        <ele>810.0</ele>
        <time>2019-03-26T12:04:57.000Z</time>
      </trkpt>
      <trkpt lat="42.522516" lon="-0.372831">
        <ele>810.0</ele>
        <time>2019-03-26T12:04:58.000Z</time>
      </trkpt>
      <trkpt lat="42.522517" lon="-0.372793">
        <ele>810.0</ele>
        <time>2019-03-26T12:04:59.000Z</time>
      </trkpt>
      <trkpt lat="42.52252" lon="-0.372755">
        <ele>810.0</ele>
        <time>2019-03-26T12:05:00.000Z</time>
      </trkpt>
      <trkpt lat="42.522524" lon="-0.372716">
        <ele>810.0</ele>
        <time>2019-03-26T12:05:01.000Z</time>
      </trkpt>
      <trkpt lat="42.522529" lon="-0.372678">
        <ele>810.0</ele>
        <time>2019-03-26T12:05:02.000Z</time>
      </trkpt>
      <trkpt lat="42.522533" lon="-0.372638">
        <ele>811.0</ele>
        <time>2019-03-26T12:05:03.000Z</time>
      </trkpt>
      <trkpt lat="42.522536" lon="-0.372598">
        <ele>811.0</ele>
        <time>2019-03-26T12:05:04.000Z</time>
      </trkpt>
      <trkpt lat="42.522538" lon="-0.372556">
        <ele>811.0</ele>
        <time>2019-03-26T12:05:05.000Z</time>
      </trkpt>
      <trkpt lat="42.522536" lon="-0.372513">
        <ele>811.0</ele>
        <time>2019-03-26T12:05:06.000Z</time>
      </trkpt>
      <trkpt lat="42.522532" lon="-0.372468">
        <ele>811.0</ele>
        <time>2019-03-26T12:05:07.000Z</time>
      </trkpt>
      <trkpt lat="42.522526" lon="-0.372422">
        <ele>811.0</ele>
        <time>2019-03-26T12:05:08.000Z</time>
      </trkpt>
      <trkpt lat="42.522519" lon="-0.372375">
        <ele>811.0</ele>
        <time>2019-03-26T12:05:09.000Z</time>
      </trkpt>
      <trkpt lat="42.522513" lon="-0.372328">
        <ele>812.0</ele>
        <time>2019-03-26T12:05:10.000Z</time>
      </trkpt>
      <trkpt lat="42.522509" lon="-0.372282">
        <ele>812.0</ele>
        <time>2019-03-26T12:05:11.000Z</time>
      </trkpt>
      <trkpt lat="42.522507" lon="-0.372237">
        <ele>812.0</ele>
        <time>2019-03-26T12:05:12.000Z</time>
      </trkpt>
      <trkpt lat="42.522507" lon="-0.372193">
        <ele>812.0</ele>
        <time>2019-03-26T12:05:13.000Z</time>
      </trkpt>
      <trkpt lat="42.522509" lon="-0.37215">
        <ele>812.0</ele>
        <time>2019-03-26T12:05:14.000Z</time>
      </trkpt>
      <trkpt lat="42.522513" lon="-0.372109">
        <ele>812.0</ele>
        <time>2019-03-26T12:05:15.000Z</time>
      </trkpt>
      <trkpt lat="42.522516" lon="-0.372069">
        <ele>812.0</ele>
        <time>2019-03-26T12:05:16.000Z</time>
      </trkpt>
      <trkpt lat="42.522519" lon="-0.37203">
        <ele>813.0</ele>
        <time>2019-03-26T12:05:17.000Z</time>
      </trkpt>
      <trkpt lat="42.522519" lon="-0.371993">
        <ele>813.0</ele>
        <time>2019-03-26T12:05:18.000Z</time>
      </trkpt>
      <trkpt lat="42.522516" lon="-0.371957">
        <ele>813.0</ele>
        <time>2019-03-26T12:05:19.000Z</time>
      </trkpt>
      <trkpt lat="42.522513" lon="-0.371921">
        <ele>813.0</ele>
        <time>2019-03-26T12:05:20.000Z</time>
      </trkpt>
      <trkpt lat="42.522511" lon="-0.371883">
        <ele>813.0</ele>
        <time>2019-03-26T12:05:21.000Z</time>
      </trkpt>
      <trkpt lat="42.522514" lon="-0.371843">
        <ele>813.0</ele>
        <time>2019-03-26T12:05:22.000Z</time>
      </trkpt>
      <trkpt lat="42.52252" lon="-0.371799">
        <ele>813.0</ele>
        <time>2019-03-26T12:05:23.000Z</time>
      </trkpt>
      <trkpt lat="42.522526" lon="-0.371754">
        <ele>813.0</ele>
        <time>2019-03-26T12:05:24.000Z</time>
      </trkpt>
      <trkpt lat="42.522529" lon="-0.371707">
        <ele>814.0</ele>
        <time>2019-03-26T12:05:25.000Z</time>
      </trkpt>
      <trkpt lat="42.522527" lon="-0.371659">
        <ele>814.0</ele>
        <time>2019-03-26T12:05:26.000Z</time>
      </trkpt>
      <trkpt lat="42.522523" lon="-0.371613">
        <ele>814.0</ele>
        <time>2019-03-26T12:05:27.000Z</time>
      </trkpt>
      <trkpt lat="42.522518" lon="-0.371569">
        <ele>814.0</ele>
        <time>2019-03-26T12:05:28.000Z</time>
      </trkpt>
      <trkpt lat="42.522514" lon="-0.371529">
        <ele>814.0</ele>
        <time>2019-03-26T12:05:29.000Z</time>
      </trkpt>
      <trkpt lat="42.522514" lon="-0.371496">
        <ele>815.0</ele>
        <time>2019-03-26T12:05:30.000Z</time>
      </trkpt>
      <trkpt lat="42.522516" lon="-0.371469">
        <ele>815.0</ele>
        <time>2019-03-26T12:05:31.000Z</time>
      </trkpt>
      <trkpt lat="42.522519" lon="-0.371449">
        <ele>815.0</ele>
        <time>2019-03-26T12:05:32.000Z</time>
      </trkpt>
      <trkpt lat="42.522521" lon="-0.371435">
        <ele>815.0</ele>
        <time>2019-03-26T12:05:33.000Z</time>
      </trkpt>
      <trkpt lat="42.522523" lon="-0.371428">
        <ele>816.0</ele>
        <time>2019-03-26T12:05:34.000Z</time>
      </trkpt>
      <trkpt lat="42.522524" lon="-0.371425">
        <ele>816.0</ele>
        <time>2019-03-26T12:05:35.000Z</time>
      </trkpt>
      <trkpt lat="42.522524" lon="-0.371425">
        <ele>816.0</ele>
        <time>2019-03-26T12:05:36.000Z</time>
      </trkpt>
      <trkpt lat="42.522524" lon="-0.371425">
        <ele>816.0</ele>
        <time>2019-03-26T12:05:37.000Z</time>
      </trkpt>
      <trkpt lat="42.522524" lon="-0.371425">
        <ele>816.0</ele>
        <time>2019-03-26T12:05:38.000Z</time>
      </trkpt>
      <trkpt lat="42.522524" lon="-0.371425">
        <ele>816.0</ele>
        <time>2019-03-26T12:05:39.000Z</time>
      </trkpt>
      <trkpt lat="42.522524" lon="-0.371425">
        <ele>816.0</ele>
        <time>2019-03-26T12:05:40.000Z</time>
      </trkpt>
      <trkpt lat="42.522524" lon="-0.371425">
        <ele>816.0</ele>
        <time>2019-03-26T12:05:41.000Z</time>
      </trkpt>
      <trkpt lat="42.522524" lon="-0.371425">
        <ele>816.0</ele>
        <time>2019-03-26T12:05:42.000Z</time>
      </trkpt>
      <trkpt lat="42.522524" lon="-0.371425">
        <ele>815.0</ele>
        <time>2019-03-26T12:05:43.000Z</time>
      </trkpt>
      <trkpt lat="42.522524" lon="-0.371425">
        <ele>815.0</ele>
        <time>2019-03-26T12:05:44.000Z</time>
      </trkpt>
      <trkpt lat="42.522524" lon="-0.371425">
        <ele>816.0</ele>
        <time>2019-03-26T12:05:45.000Z</time>
      </trkpt>
      <trkpt lat="42.522524" lon="-0.371425">
        <ele>816.0</ele>
        <time>2019-03-26T12:05:46.000Z</time>
      </trkpt>
      <trkpt lat="42.522524" lon="-0.371425">
        <ele>816.0</ele>
        <time>2019-03-26T12:05:47.000Z</time>
      </trkpt>
      <trkpt lat="42.522524" lon="-0.371425">
        <ele>816.0</ele>
        <time>2019-03-26T12:05:48.000Z</time>
      </trkpt>
      <trkpt lat="42.522524" lon="-0.371425">
        <ele>816.0</ele>
        <time>2019-03-26T12:05:49.000Z</time>
      </trkpt>
      <trkpt lat="42.522524" lon="-0.371425">
        <ele>816.0</ele>
        <time>2019-03-26T12:05:50.000Z</time>
      </trkpt>
      <trkpt lat="42.522524" lon="-0.371425">
        <ele>816.0</ele>
        <time>2019-03-26T12:05:51.000Z</time>
      </trkpt>
      <trkpt lat="42.522524" lon="-0.371425">
        <ele>816.0</ele>
        <time>2019-03-26T12:05:52.000Z</time>
      </trkpt>
      <trkpt lat="42.522524" lon="-0.371425">
        <ele>816.0</ele>
        <time>2019-03-26T12:05:53.000Z</time>
      </trkpt>
      <trkpt lat="42.522524" lon="-0.371425">
        <ele>816.0</ele>
        <time>2019-03-26T12:05:54.000Z</time>
      </trkpt>
      <trkpt lat="42.522524" lon="-0.371425">
        <ele>816.0</ele>
        <time>2019-03-26T12:05:55.000Z</time>
      </trkpt>
      <trkpt lat="42.522524" lon="-0.371424">
        <ele>816.0</ele>
        <time>2019-03-26T12:05:56.000Z</time>
      </trkpt>
      <trkpt lat="42.522524" lon="-0.371424">
        <ele>816.0</ele>
        <time>2019-03-26T12:05:57.000Z</time>
      </trkpt>
      <trkpt lat="42.522524" lon="-0.371424">
        <ele>816.0</ele>
        <time>2019-03-26T12:05:58.000Z</time>
      </trkpt>
      <trkpt lat="42.522524" lon="-0.371423">
        <ele>816.0</ele>
        <time>2019-03-26T12:05:59.000Z</time>
      </trkpt>
      <trkpt lat="42.522525" lon="-0.371416">
        <ele>816.0</ele>
        <time>2019-03-26T12:06:00.000Z</time>
      </trkpt>
      <trkpt lat="42.522527" lon="-0.371391">
        <ele>816.0</ele>
        <time>2019-03-26T12:06:01.000Z</time>
      </trkpt>
      <trkpt lat="42.52253" lon="-0.371336">
        <ele>816.0</ele>
        <time>2019-03-26T12:06:02.000Z</time>
      </trkpt>
      <trkpt lat="42.522534" lon="-0.371298">
        <ele>816.0</ele>
        <time>2019-03-26T12:06:03.000Z</time>
      </trkpt>
      <trkpt lat="42.522536" lon="-0.371281">
        <ele>816.0</ele>
        <time>2019-03-26T12:06:04.000Z</time>
      </trkpt>
      <trkpt lat="42.522536" lon="-0.371279">
        <ele>816.0</ele>
        <time>2019-03-26T12:06:05.000Z</time>
      </trkpt>
      <trkpt lat="42.522536" lon="-0.371279">
        <ele>816.0</ele>
        <time>2019-03-26T12:06:06.000Z</time>
      </trkpt>
      <trkpt lat="42.522536" lon="-0.371278">
        <ele>816.0</ele>
        <time>2019-03-26T12:06:07.000Z</time>
      </trkpt>
      <trkpt lat="42.522536" lon="-0.371278">
        <ele>816.0</ele>
        <time>2019-03-26T12:06:08.000Z</time>
      </trkpt>
      <trkpt lat="42.522536" lon="-0.371278">
        <ele>816.0</ele>
        <time>2019-03-26T12:06:09.000Z</time>
      </trkpt>
      <trkpt lat="42.522536" lon="-0.371278">
        <ele>816.0</ele>
        <time>2019-03-26T12:06:10.000Z</time>
      </trkpt>
      <trkpt lat="42.522536" lon="-0.371278">
        <ele>816.0</ele>
        <time>2019-03-26T12:06:11.000Z</time>
      </trkpt>
      <trkpt lat="42.522536" lon="-0.371278">
        <ele>816.0</ele>
        <time>2019-03-26T12:06:12.000Z</time>
      </trkpt>
      <trkpt lat="42.522536" lon="-0.371278">
        <ele>816.0</ele>
        <time>2019-03-26T12:06:13.000Z</time>
      </trkpt>
      <trkpt lat="42.522536" lon="-0.371278">
        <ele>816.0</ele>
        <time>2019-03-26T12:06:14.000Z</time>
      </trkpt>
      <trkpt lat="42.522536" lon="-0.371278">
        <ele>816.0</ele>
        <time>2019-03-26T12:06:15.000Z</time>
      </trkpt>
      <trkpt lat="42.522536" lon="-0.371278">
        <ele>816.0</ele>
        <time>2019-03-26T12:06:16.000Z</time>
      </trkpt>
      <trkpt lat="42.522536" lon="-0.371278">
        <ele>816.0</ele>
        <time>2019-03-26T12:06:17.000Z</time>
      </trkpt>
      <trkpt lat="42.522536" lon="-0.371278">
        <ele>816.0</ele>
        <time>2019-03-26T12:06:18.000Z</time>
      </trkpt>
      <trkpt lat="42.522536" lon="-0.371278">
        <ele>816.0</ele>
        <time>2019-03-26T12:06:19.000Z</time>
      </trkpt>
      <trkpt lat="42.522536" lon="-0.371278">
        <ele>816.0</ele>
        <time>2019-03-26T12:06:20.000Z</time>
      </trkpt>
      <trkpt lat="42.522536" lon="-0.371278">
        <ele>816.0</ele>
        <time>2019-03-26T12:06:21.000Z</time>
      </trkpt>
      <trkpt lat="42.522536" lon="-0.371278">
        <ele>816.0</ele>
        <time>2019-03-26T12:06:22.000Z</time>
      </trkpt>
      <trkpt lat="42.522536" lon="-0.371278">
        <ele>816.0</ele>
        <time>2019-03-26T12:06:23.000Z</time>
      </trkpt>
      <trkpt lat="42.522536" lon="-0.371278">
        <ele>816.0</ele>
        <time>2019-03-26T12:06:24.000Z</time>
      </trkpt>
      <trkpt lat="42.522536" lon="-0.371278">
        <ele>816.0</ele>
        <time>2019-03-26T12:06:25.000Z</time>
      </trkpt>
      <trkpt lat="42.522536" lon="-0.371278">
        <ele>816.0</ele>
        <time>2019-03-26T12:06:26.000Z</time>
      </trkpt>
      <trkpt lat="42.522536" lon="-0.371278">
        <ele>816.0</ele>
        <time>2019-03-26T12:06:27.000Z</time>
      </trkpt>
      <trkpt lat="42.522536" lon="-0.371278">
        <ele>816.0</ele>
        <time>2019-03-26T12:06:28.000Z</time>
      </trkpt>
      <trkpt lat="42.522536" lon="-0.371278">
        <ele>816.0</ele>
        <time>2019-03-26T12:06:29.000Z</time>
      </trkpt>
      <trkpt lat="42.522536" lon="-0.371278">
        <ele>816.0</ele>
        <time>2019-03-26T12:06:30.000Z</time>
      </trkpt>
      <trkpt lat="42.522536" lon="-0.371278">
        <ele>816.0</ele>
        <time>2019-03-26T12:06:31.000Z</time>
      </trkpt>
      <trkpt lat="42.522536" lon="-0.371278">
        <ele>816.0</ele>
        <time>2019-03-26T12:06:32.000Z</time>
      </trkpt>
      <trkpt lat="42.522536" lon="-0.371278">
        <ele>816.0</ele>
        <time>2019-03-26T12:06:33.000Z</time>
      </trkpt>
      <trkpt lat="42.522536" lon="-0.371278">
        <ele>816.0</ele>
        <time>2019-03-26T12:06:34.000Z</time>
      </trkpt>
      <trkpt lat="42.522536" lon="-0.371278">
        <ele>817.0</ele>
        <time>2019-03-26T12:06:35.000Z</time>
      </trkpt>
      <trkpt lat="42.522536" lon="-0.371278">
        <ele>817.0</ele>
        <time>2019-03-26T12:06:36.000Z</time>
      </trkpt>
      <trkpt lat="42.522536" lon="-0.371278">
        <ele>817.0</ele>
        <time>2019-03-26T12:06:37.000Z</time>
      </trkpt>
      <trkpt lat="42.522536" lon="-0.371278">
        <ele>817.0</ele>
        <time>2019-03-26T12:06:38.000Z</time>
      </trkpt>
      <trkpt lat="42.522535" lon="-0.371278">
        <ele>817.0</ele>
        <time>2019-03-26T12:06:39.000Z</time>
      </trkpt>
      <trkpt lat="42.522534" lon="-0.371278">
        <ele>816.0</ele>
        <time>2019-03-26T12:06:40.000Z</time>
      </trkpt>
      <trkpt lat="42.522533" lon="-0.371279">
        <ele>817.0</ele>
        <time>2019-03-26T12:06:41.000Z</time>
      </trkpt>
      <trkpt lat="42.52253" lon="-0.37128">
        <ele>816.0</ele>
        <time>2019-03-26T12:06:42.000Z</time>
      </trkpt>
      <trkpt lat="42.522527" lon="-0.371281">
        <ele>816.0</ele>
        <time>2019-03-26T12:06:43.000Z</time>
      </trkpt>
      <trkpt lat="42.522522" lon="-0.371282">
        <ele>816.0</ele>
        <time>2019-03-26T12:06:44.000Z</time>
      </trkpt>
      <trkpt lat="42.522517" lon="-0.371284">
        <ele>816.0</ele>
        <time>2019-03-26T12:06:45.000Z</time>
      </trkpt>
      <trkpt lat="42.52251" lon="-0.371286">
        <ele>816.0</ele>
        <time>2019-03-26T12:06:46.000Z</time>
      </trkpt>
      <trkpt lat="42.522502" lon="-0.371288">
        <ele>816.0</ele>
        <time>2019-03-26T12:06:47.000Z</time>
      </trkpt>
      <trkpt lat="42.522493" lon="-0.371291">
        <ele>816.0</ele>
        <time>2019-03-26T12:06:48.000Z</time>
      </trkpt>
      <trkpt lat="42.522481" lon="-0.371295">
        <ele>816.0</ele>
        <time>2019-03-26T12:06:49.000Z</time>
      </trkpt>
    </trkseg>
  </trk>
</gpx>
